<?xml version="1.0" encoding="UTF-8" standalone="no" ?>
<gpx xmlns="http://www.topografix.com/GPX/1/1" xmlns:xsi="http://www.w3.org/2001/XMLSchema-instance" xsi:schemaLocation="http://www.topografix.com/GPX/1/1 http://www.topografix.com/GPX/1/1/gpx.xsd" version="1.1" creator="VisuGPX - https://www.visugpx.com">
  <metadata>
    <name>MONT THOU</name>
    <desc><![CDATA[Petite ballade sympa dans les Monts d\'Or au départ de Montanay avec le tour du Mont Thou]]></desc>
  </metadata>
  <trk>
    <name><![CDATA[Les Monts d'Or]]></name>
    <trkseg>
      <trkpt lat="45.88298" lon="4.86262">
        <ele>306</ele>
        <time>2011-06-02T06:56:34Z</time>
      </trkpt>
      <trkpt lat="45.88315" lon="4.86229">
        <ele>309</ele>
        <time>2011-06-02T06:56:52Z</time>
      </trkpt>
      <trkpt lat="45.88315" lon="4.86226">
        <ele>309</ele>
        <time>2011-06-02T06:56:53Z</time>
      </trkpt>
      <trkpt lat="45.88316" lon="4.86222">
        <ele>309</ele>
        <time>2011-06-02T06:56:54Z</time>
      </trkpt>
      <trkpt lat="45.88316" lon="4.86219">
        <ele>309</ele>
        <time>2011-06-02T06:56:55Z</time>
      </trkpt>
      <trkpt lat="45.88316" lon="4.86216">
        <ele>309</ele>
        <time>2011-06-02T06:56:56Z</time>
      </trkpt>
      <trkpt lat="45.88317" lon="4.86213">
        <ele>309</ele>
        <time>2011-06-02T06:56:57Z</time>
      </trkpt>
      <trkpt lat="45.88317" lon="4.8621">
        <ele>309</ele>
        <time>2011-06-02T06:56:58Z</time>
      </trkpt>
      <trkpt lat="45.88318" lon="4.86206">
        <ele>309</ele>
        <time>2011-06-02T06:56:59Z</time>
      </trkpt>
      <trkpt lat="45.88319" lon="4.86203">
        <ele>309</ele>
        <time>2011-06-02T06:57:00Z</time>
      </trkpt>
      <trkpt lat="45.88319" lon="4.862">
        <ele>309</ele>
        <time>2011-06-02T06:57:01Z</time>
      </trkpt>
      <trkpt lat="45.8832" lon="4.86197">
        <ele>309</ele>
        <time>2011-06-02T06:57:02Z</time>
      </trkpt>
      <trkpt lat="45.8832" lon="4.86194">
        <ele>309</ele>
        <time>2011-06-02T06:57:03Z</time>
      </trkpt>
      <trkpt lat="45.88321" lon="4.86191">
        <ele>309</ele>
        <time>2011-06-02T06:57:04Z</time>
      </trkpt>
      <trkpt lat="45.88321" lon="4.86187">
        <ele>309</ele>
        <time>2011-06-02T06:57:05Z</time>
      </trkpt>
      <trkpt lat="45.88322" lon="4.86184">
        <ele>309</ele>
        <time>2011-06-02T06:57:06Z</time>
      </trkpt>
      <trkpt lat="45.88322" lon="4.86181">
        <ele>309</ele>
        <time>2011-06-02T06:57:07Z</time>
      </trkpt>
      <trkpt lat="45.88322" lon="4.86177">
        <ele>309</ele>
        <time>2011-06-02T06:57:08Z</time>
      </trkpt>
      <trkpt lat="45.88323" lon="4.86174">
        <ele>309</ele>
        <time>2011-06-02T06:57:09Z</time>
      </trkpt>
      <trkpt lat="45.88324" lon="4.86171">
        <ele>309</ele>
        <time>2011-06-02T06:57:10Z</time>
      </trkpt>
      <trkpt lat="45.88324" lon="4.86168">
        <ele>309</ele>
        <time>2011-06-02T06:57:11Z</time>
      </trkpt>
      <trkpt lat="45.88324" lon="4.86165">
        <ele>309</ele>
        <time>2011-06-02T06:57:12Z</time>
      </trkpt>
      <trkpt lat="45.88324" lon="4.86162">
        <ele>309</ele>
        <time>2011-06-02T06:57:13Z</time>
      </trkpt>
      <trkpt lat="45.88324" lon="4.86158">
        <ele>309</ele>
        <time>2011-06-02T06:57:14Z</time>
      </trkpt>
      <trkpt lat="45.88324" lon="4.86155">
        <ele>309</ele>
        <time>2011-06-02T06:57:15Z</time>
      </trkpt>
      <trkpt lat="45.88325" lon="4.86152">
        <ele>309</ele>
        <time>2011-06-02T06:57:16Z</time>
      </trkpt>
      <trkpt lat="45.88325" lon="4.86149">
        <ele>309</ele>
        <time>2011-06-02T06:57:17Z</time>
      </trkpt>
      <trkpt lat="45.88324" lon="4.86145">
        <ele>309</ele>
        <time>2011-06-02T06:57:18Z</time>
      </trkpt>
      <trkpt lat="45.88324" lon="4.86141">
        <ele>309</ele>
        <time>2011-06-02T06:57:19Z</time>
      </trkpt>
      <trkpt lat="45.88325" lon="4.86138">
        <ele>309</ele>
        <time>2011-06-02T06:57:20Z</time>
      </trkpt>
      <trkpt lat="45.88325" lon="4.86134">
        <ele>309</ele>
        <time>2011-06-02T06:57:21Z</time>
      </trkpt>
      <trkpt lat="45.88326" lon="4.8613">
        <ele>309</ele>
        <time>2011-06-02T06:57:22Z</time>
      </trkpt>
      <trkpt lat="45.88326" lon="4.86127">
        <ele>309</ele>
        <time>2011-06-02T06:57:23Z</time>
      </trkpt>
      <trkpt lat="45.88326" lon="4.86123">
        <ele>309</ele>
        <time>2011-06-02T06:57:24Z</time>
      </trkpt>
      <trkpt lat="45.88326" lon="4.8612">
        <ele>309</ele>
        <time>2011-06-02T06:57:25Z</time>
      </trkpt>
      <trkpt lat="45.88326" lon="4.86116">
        <ele>309</ele>
        <time>2011-06-02T06:57:26Z</time>
      </trkpt>
      <trkpt lat="45.88326" lon="4.86112">
        <ele>309</ele>
        <time>2011-06-02T06:57:27Z</time>
      </trkpt>
      <trkpt lat="45.88325" lon="4.86108">
        <ele>309</ele>
        <time>2011-06-02T06:57:28Z</time>
      </trkpt>
      <trkpt lat="45.88325" lon="4.86105">
        <ele>309</ele>
        <time>2011-06-02T06:57:29Z</time>
      </trkpt>
      <trkpt lat="45.88324" lon="4.86101">
        <ele>309</ele>
        <time>2011-06-02T06:57:30Z</time>
      </trkpt>
      <trkpt lat="45.88324" lon="4.86096">
        <ele>309</ele>
        <time>2011-06-02T06:57:31Z</time>
      </trkpt>
      <trkpt lat="45.88323" lon="4.86092">
        <ele>309</ele>
        <time>2011-06-02T06:57:32Z</time>
      </trkpt>
      <trkpt lat="45.88322" lon="4.86087">
        <ele>309</ele>
        <time>2011-06-02T06:57:33Z</time>
      </trkpt>
      <trkpt lat="45.88321" lon="4.86083">
        <ele>309</ele>
        <time>2011-06-02T06:57:34Z</time>
      </trkpt>
      <trkpt lat="45.88321" lon="4.86079">
        <ele>309</ele>
        <time>2011-06-02T06:57:35Z</time>
      </trkpt>
      <trkpt lat="45.8832" lon="4.86075">
        <ele>309</ele>
        <time>2011-06-02T06:57:36Z</time>
      </trkpt>
      <trkpt lat="45.88319" lon="4.86071">
        <ele>309</ele>
        <time>2011-06-02T06:57:37Z</time>
      </trkpt>
      <trkpt lat="45.88318" lon="4.86067">
        <ele>309</ele>
        <time>2011-06-02T06:57:38Z</time>
      </trkpt>
      <trkpt lat="45.88317" lon="4.86063">
        <ele>309</ele>
        <time>2011-06-02T06:57:39Z</time>
      </trkpt>
      <trkpt lat="45.88316" lon="4.86059">
        <ele>309</ele>
        <time>2011-06-02T06:57:40Z</time>
      </trkpt>
      <trkpt lat="45.88316" lon="4.86055">
        <ele>308</ele>
        <time>2011-06-02T06:57:41Z</time>
      </trkpt>
      <trkpt lat="45.88315" lon="4.86051">
        <ele>308</ele>
        <time>2011-06-02T06:57:42Z</time>
      </trkpt>
      <trkpt lat="45.88314" lon="4.86047">
        <ele>308</ele>
        <time>2011-06-02T06:57:43Z</time>
      </trkpt>
      <trkpt lat="45.88313" lon="4.86043">
        <ele>308</ele>
        <time>2011-06-02T06:57:44Z</time>
      </trkpt>
      <trkpt lat="45.88312" lon="4.86038">
        <ele>307</ele>
        <time>2011-06-02T06:57:45Z</time>
      </trkpt>
      <trkpt lat="45.88311" lon="4.86033">
        <ele>307</ele>
        <time>2011-06-02T06:57:46Z</time>
      </trkpt>
      <trkpt lat="45.8831" lon="4.86028">
        <ele>306</ele>
        <time>2011-06-02T06:57:47Z</time>
      </trkpt>
      <trkpt lat="45.88309" lon="4.86023">
        <ele>306</ele>
        <time>2011-06-02T06:57:48Z</time>
      </trkpt>
      <trkpt lat="45.88309" lon="4.8602">
        <ele>306</ele>
        <time>2011-06-02T06:57:49Z</time>
      </trkpt>
      <trkpt lat="45.88309" lon="4.86017">
        <ele>305</ele>
        <time>2011-06-02T06:57:50Z</time>
      </trkpt>
      <trkpt lat="45.8831" lon="4.86014">
        <ele>305</ele>
        <time>2011-06-02T06:57:51Z</time>
      </trkpt>
      <trkpt lat="45.88311" lon="4.86012">
        <ele>305</ele>
        <time>2011-06-02T06:57:52Z</time>
      </trkpt>
      <trkpt lat="45.88313" lon="4.8601">
        <ele>304</ele>
        <time>2011-06-02T06:57:53Z</time>
      </trkpt>
      <trkpt lat="45.88315" lon="4.86009">
        <ele>304</ele>
        <time>2011-06-02T06:57:54Z</time>
      </trkpt>
      <trkpt lat="45.88317" lon="4.86009">
        <ele>304</ele>
        <time>2011-06-02T06:57:55Z</time>
      </trkpt>
      <trkpt lat="45.8832" lon="4.86009">
        <ele>303</ele>
        <time>2011-06-02T06:57:56Z</time>
      </trkpt>
      <trkpt lat="45.88322" lon="4.86009">
        <ele>302</ele>
        <time>2011-06-02T06:57:57Z</time>
      </trkpt>
      <trkpt lat="45.88325" lon="4.86009">
        <ele>302</ele>
        <time>2011-06-02T06:57:58Z</time>
      </trkpt>
      <trkpt lat="45.88328" lon="4.86009">
        <ele>302</ele>
        <time>2011-06-02T06:57:59Z</time>
      </trkpt>
      <trkpt lat="45.8833" lon="4.86009">
        <ele>301</ele>
        <time>2011-06-02T06:58:00Z</time>
      </trkpt>
      <trkpt lat="45.88333" lon="4.86009">
        <ele>301</ele>
        <time>2011-06-02T06:58:01Z</time>
      </trkpt>
      <trkpt lat="45.88335" lon="4.86009">
        <ele>301</ele>
        <time>2011-06-02T06:58:02Z</time>
      </trkpt>
      <trkpt lat="45.88338" lon="4.86009">
        <ele>301</ele>
        <time>2011-06-02T06:58:03Z</time>
      </trkpt>
      <trkpt lat="45.88341" lon="4.8601">
        <ele>300</ele>
        <time>2011-06-02T06:58:04Z</time>
      </trkpt>
      <trkpt lat="45.88343" lon="4.8601">
        <ele>300</ele>
        <time>2011-06-02T06:58:05Z</time>
      </trkpt>
      <trkpt lat="45.88346" lon="4.86009">
        <ele>300</ele>
        <time>2011-06-02T06:58:06Z</time>
      </trkpt>
      <trkpt lat="45.88349" lon="4.86009">
        <ele>300</ele>
        <time>2011-06-02T06:58:07Z</time>
      </trkpt>
      <trkpt lat="45.88351" lon="4.86009">
        <ele>300</ele>
        <time>2011-06-02T06:58:08Z</time>
      </trkpt>
      <trkpt lat="45.88354" lon="4.86008">
        <ele>300</ele>
        <time>2011-06-02T06:58:09Z</time>
      </trkpt>
      <trkpt lat="45.88356" lon="4.86008">
        <ele>300</ele>
        <time>2011-06-02T06:58:10Z</time>
      </trkpt>
      <trkpt lat="45.88359" lon="4.86007">
        <ele>300</ele>
        <time>2011-06-02T06:58:11Z</time>
      </trkpt>
      <trkpt lat="45.88362" lon="4.86007">
        <ele>300</ele>
        <time>2011-06-02T06:58:12Z</time>
      </trkpt>
      <trkpt lat="45.88364" lon="4.86006">
        <ele>300</ele>
        <time>2011-06-02T06:58:13Z</time>
      </trkpt>
      <trkpt lat="45.88367" lon="4.86006">
        <ele>300</ele>
        <time>2011-06-02T06:58:14Z</time>
      </trkpt>
      <trkpt lat="45.88369" lon="4.86005">
        <ele>300</ele>
        <time>2011-06-02T06:58:15Z</time>
      </trkpt>
      <trkpt lat="45.88372" lon="4.86005">
        <ele>300</ele>
        <time>2011-06-02T06:58:16Z</time>
      </trkpt>
      <trkpt lat="45.88375" lon="4.86004">
        <ele>300</ele>
        <time>2011-06-02T06:58:16Z</time>
      </trkpt>
      <trkpt lat="45.88377" lon="4.86003">
        <ele>300</ele>
        <time>2011-06-02T06:58:18Z</time>
      </trkpt>
      <trkpt lat="45.8838" lon="4.86003">
        <ele>300</ele>
        <time>2011-06-02T06:58:19Z</time>
      </trkpt>
      <trkpt lat="45.88382" lon="4.86002">
        <ele>300</ele>
        <time>2011-06-02T06:58:20Z</time>
      </trkpt>
      <trkpt lat="45.88385" lon="4.86002">
        <ele>300</ele>
        <time>2011-06-02T06:58:21Z</time>
      </trkpt>
      <trkpt lat="45.88387" lon="4.86002">
        <ele>300</ele>
        <time>2011-06-02T06:58:22Z</time>
      </trkpt>
      <trkpt lat="45.8839" lon="4.86002">
        <ele>300</ele>
        <time>2011-06-02T06:58:23Z</time>
      </trkpt>
      <trkpt lat="45.88393" lon="4.86001">
        <ele>300</ele>
        <time>2011-06-02T06:58:24Z</time>
      </trkpt>
      <trkpt lat="45.88395" lon="4.86001">
        <ele>300</ele>
        <time>2011-06-02T06:58:24Z</time>
      </trkpt>
      <trkpt lat="45.88398" lon="4.86">
        <ele>300</ele>
        <time>2011-06-02T06:58:26Z</time>
      </trkpt>
      <trkpt lat="45.884" lon="4.85999">
        <ele>300</ele>
        <time>2011-06-02T06:58:27Z</time>
      </trkpt>
      <trkpt lat="45.88403" lon="4.85998">
        <ele>300</ele>
        <time>2011-06-02T06:58:28Z</time>
      </trkpt>
      <trkpt lat="45.88406" lon="4.85997">
        <ele>300</ele>
        <time>2011-06-02T06:58:28Z</time>
      </trkpt>
      <trkpt lat="45.88408" lon="4.85996">
        <ele>300</ele>
        <time>2011-06-02T06:58:30Z</time>
      </trkpt>
      <trkpt lat="45.88411" lon="4.85995">
        <ele>300</ele>
        <time>2011-06-02T06:58:31Z</time>
      </trkpt>
      <trkpt lat="45.88413" lon="4.85994">
        <ele>300</ele>
        <time>2011-06-02T06:58:32Z</time>
      </trkpt>
      <trkpt lat="45.88416" lon="4.85994">
        <ele>300</ele>
        <time>2011-06-02T06:58:33Z</time>
      </trkpt>
      <trkpt lat="45.88418" lon="4.85993">
        <ele>300</ele>
        <time>2011-06-02T06:58:34Z</time>
      </trkpt>
      <trkpt lat="45.8842" lon="4.85993">
        <ele>300</ele>
        <time>2011-06-02T06:58:35Z</time>
      </trkpt>
      <trkpt lat="45.88423" lon="4.85992">
        <ele>300</ele>
        <time>2011-06-02T06:58:36Z</time>
      </trkpt>
      <trkpt lat="45.88425" lon="4.85991">
        <ele>300</ele>
        <time>2011-06-02T06:58:37Z</time>
      </trkpt>
      <trkpt lat="45.88428" lon="4.8599">
        <ele>300</ele>
        <time>2011-06-02T06:58:38Z</time>
      </trkpt>
      <trkpt lat="45.8843" lon="4.85989">
        <ele>300</ele>
        <time>2011-06-02T06:58:39Z</time>
      </trkpt>
      <trkpt lat="45.88432" lon="4.85986">
        <ele>300</ele>
        <time>2011-06-02T06:58:40Z</time>
      </trkpt>
      <trkpt lat="45.88433" lon="4.85983">
        <ele>300</ele>
        <time>2011-06-02T06:58:41Z</time>
      </trkpt>
      <trkpt lat="45.88434" lon="4.8598">
        <ele>300</ele>
        <time>2011-06-02T06:58:42Z</time>
      </trkpt>
      <trkpt lat="45.88435" lon="4.85976">
        <ele>299</ele>
        <time>2011-06-02T06:58:43Z</time>
      </trkpt>
      <trkpt lat="45.88436" lon="4.85973">
        <ele>298</ele>
        <time>2011-06-02T06:58:44Z</time>
      </trkpt>
      <trkpt lat="45.88436" lon="4.85969">
        <ele>297</ele>
        <time>2011-06-02T06:58:45Z</time>
      </trkpt>
      <trkpt lat="45.88437" lon="4.85964">
        <ele>296</ele>
        <time>2011-06-02T06:58:46Z</time>
      </trkpt>
      <trkpt lat="45.88437" lon="4.8596">
        <ele>296</ele>
        <time>2011-06-02T06:58:47Z</time>
      </trkpt>
      <trkpt lat="45.88437" lon="4.85955">
        <ele>295</ele>
        <time>2011-06-02T06:58:48Z</time>
      </trkpt>
      <trkpt lat="45.88438" lon="4.85951">
        <ele>295</ele>
        <time>2011-06-02T06:58:49Z</time>
      </trkpt>
      <trkpt lat="45.88438" lon="4.85946">
        <ele>295</ele>
        <time>2011-06-02T06:58:50Z</time>
      </trkpt>
      <trkpt lat="45.88439" lon="4.8594">
        <ele>294</ele>
        <time>2011-06-02T06:58:51Z</time>
      </trkpt>
      <trkpt lat="45.8844" lon="4.85935">
        <ele>294</ele>
        <time>2011-06-02T06:58:52Z</time>
      </trkpt>
      <trkpt lat="45.8844" lon="4.85929">
        <ele>293</ele>
        <time>2011-06-02T06:58:53Z</time>
      </trkpt>
      <trkpt lat="45.88441" lon="4.85924">
        <ele>293</ele>
        <time>2011-06-02T06:58:54Z</time>
      </trkpt>
      <trkpt lat="45.88442" lon="4.85919">
        <ele>293</ele>
        <time>2011-06-02T06:58:55Z</time>
      </trkpt>
      <trkpt lat="45.88443" lon="4.85914">
        <ele>292</ele>
        <time>2011-06-02T06:58:56Z</time>
      </trkpt>
      <trkpt lat="45.88443" lon="4.85909">
        <ele>292</ele>
        <time>2011-06-02T06:58:57Z</time>
      </trkpt>
      <trkpt lat="45.88444" lon="4.85903">
        <ele>291</ele>
        <time>2011-06-02T06:58:58Z</time>
      </trkpt>
      <trkpt lat="45.88445" lon="4.85898">
        <ele>291</ele>
        <time>2011-06-02T06:58:59Z</time>
      </trkpt>
      <trkpt lat="45.88445" lon="4.85893">
        <ele>291</ele>
        <time>2011-06-02T06:59:00Z</time>
      </trkpt>
      <trkpt lat="45.88446" lon="4.85888">
        <ele>291</ele>
        <time>2011-06-02T06:59:01Z</time>
      </trkpt>
      <trkpt lat="45.88446" lon="4.85884">
        <ele>291</ele>
        <time>2011-06-02T06:59:02Z</time>
      </trkpt>
      <trkpt lat="45.88446" lon="4.85879">
        <ele>291</ele>
        <time>2011-06-02T06:59:03Z</time>
      </trkpt>
      <trkpt lat="45.88446" lon="4.85874">
        <ele>290</ele>
        <time>2011-06-02T06:59:04Z</time>
      </trkpt>
      <trkpt lat="45.88446" lon="4.8587">
        <ele>290</ele>
        <time>2011-06-02T06:59:05Z</time>
      </trkpt>
      <trkpt lat="45.88447" lon="4.85865">
        <ele>290</ele>
        <time>2011-06-02T06:59:06Z</time>
      </trkpt>
      <trkpt lat="45.88447" lon="4.8586">
        <ele>290</ele>
        <time>2011-06-02T06:59:07Z</time>
      </trkpt>
      <trkpt lat="45.88448" lon="4.85856">
        <ele>290</ele>
        <time>2011-06-02T06:59:08Z</time>
      </trkpt>
      <trkpt lat="45.88448" lon="4.85851">
        <ele>290</ele>
        <time>2011-06-02T06:59:09Z</time>
      </trkpt>
      <trkpt lat="45.88449" lon="4.85847">
        <ele>290</ele>
        <time>2011-06-02T06:59:09Z</time>
      </trkpt>
      <trkpt lat="45.8845" lon="4.85842">
        <ele>290</ele>
        <time>2011-06-02T06:59:11Z</time>
      </trkpt>
      <trkpt lat="45.88451" lon="4.85838">
        <ele>290</ele>
        <time>2011-06-02T06:59:12Z</time>
      </trkpt>
      <trkpt lat="45.88451" lon="4.85834">
        <ele>290</ele>
        <time>2011-06-02T06:59:13Z</time>
      </trkpt>
      <trkpt lat="45.88452" lon="4.85829">
        <ele>290</ele>
        <time>2011-06-02T06:59:13Z</time>
      </trkpt>
      <trkpt lat="45.88453" lon="4.85825">
        <ele>290</ele>
        <time>2011-06-02T06:59:15Z</time>
      </trkpt>
      <trkpt lat="45.88454" lon="4.85821">
        <ele>290</ele>
        <time>2011-06-02T06:59:16Z</time>
      </trkpt>
      <trkpt lat="45.88456" lon="4.85817">
        <ele>290</ele>
        <time>2011-06-02T06:59:17Z</time>
      </trkpt>
      <trkpt lat="45.88457" lon="4.85814">
        <ele>290</ele>
        <time>2011-06-02T06:59:17Z</time>
      </trkpt>
      <trkpt lat="45.8846" lon="4.85812">
        <ele>290</ele>
        <time>2011-06-02T06:59:19Z</time>
      </trkpt>
      <trkpt lat="45.88462" lon="4.85809">
        <ele>290</ele>
        <time>2011-06-02T06:59:20Z</time>
      </trkpt>
      <trkpt lat="45.88465" lon="4.85808">
        <ele>290</ele>
        <time>2011-06-02T06:59:21Z</time>
      </trkpt>
      <trkpt lat="45.88468" lon="4.85808">
        <ele>290</ele>
        <time>2011-06-02T06:59:22Z</time>
      </trkpt>
      <trkpt lat="45.8847" lon="4.85808">
        <ele>290</ele>
        <time>2011-06-02T06:59:23Z</time>
      </trkpt>
      <trkpt lat="45.88473" lon="4.85807">
        <ele>290</ele>
        <time>2011-06-02T06:59:24Z</time>
      </trkpt>
      <trkpt lat="45.88476" lon="4.85807">
        <ele>290</ele>
        <time>2011-06-02T06:59:24Z</time>
      </trkpt>
      <trkpt lat="45.88479" lon="4.85807">
        <ele>290</ele>
        <time>2011-06-02T06:59:26Z</time>
      </trkpt>
      <trkpt lat="45.88482" lon="4.85807">
        <ele>290</ele>
        <time>2011-06-02T06:59:27Z</time>
      </trkpt>
      <trkpt lat="45.88485" lon="4.85808">
        <ele>290</ele>
        <time>2011-06-02T06:59:28Z</time>
      </trkpt>
      <trkpt lat="45.88487" lon="4.85808">
        <ele>290</ele>
        <time>2011-06-02T06:59:29Z</time>
      </trkpt>
      <trkpt lat="45.8849" lon="4.85808">
        <ele>290</ele>
        <time>2011-06-02T06:59:29Z</time>
      </trkpt>
      <trkpt lat="45.88493" lon="4.85806">
        <ele>290</ele>
        <time>2011-06-02T06:59:31Z</time>
      </trkpt>
      <trkpt lat="45.88496" lon="4.85805">
        <ele>290</ele>
        <time>2011-06-02T06:59:32Z</time>
      </trkpt>
      <trkpt lat="45.88498" lon="4.85803">
        <ele>290</ele>
        <time>2011-06-02T06:59:33Z</time>
      </trkpt>
      <trkpt lat="45.885" lon="4.858">
        <ele>290</ele>
        <time>2011-06-02T06:59:34Z</time>
      </trkpt>
      <trkpt lat="45.88503" lon="4.85797">
        <ele>290</ele>
        <time>2011-06-02T06:59:35Z</time>
      </trkpt>
      <trkpt lat="45.88506" lon="4.85794">
        <ele>290</ele>
        <time>2011-06-02T06:59:36Z</time>
      </trkpt>
      <trkpt lat="45.88509" lon="4.85794">
        <ele>290</ele>
        <time>2011-06-02T06:59:37Z</time>
      </trkpt>
      <trkpt lat="45.88512" lon="4.85794">
        <ele>290</ele>
        <time>2011-06-02T06:59:38Z</time>
      </trkpt>
      <trkpt lat="45.88514" lon="4.85794">
        <ele>290</ele>
        <time>2011-06-02T06:59:39Z</time>
      </trkpt>
      <trkpt lat="45.88518" lon="4.85794">
        <ele>290</ele>
        <time>2011-06-02T06:59:40Z</time>
      </trkpt>
      <trkpt lat="45.88521" lon="4.85795">
        <ele>291</ele>
        <time>2011-06-02T06:59:41Z</time>
      </trkpt>
      <trkpt lat="45.88525" lon="4.85795">
        <ele>292</ele>
        <time>2011-06-02T06:59:42Z</time>
      </trkpt>
      <trkpt lat="45.88528" lon="4.85795">
        <ele>292</ele>
        <time>2011-06-02T06:59:42Z</time>
      </trkpt>
      <trkpt lat="45.8853" lon="4.85794">
        <ele>292</ele>
        <time>2011-06-02T06:59:44Z</time>
      </trkpt>
      <trkpt lat="45.88531" lon="4.85794">
        <ele>292</ele>
        <time>2011-06-02T06:59:45Z</time>
      </trkpt>
      <trkpt lat="45.88533" lon="4.85791">
        <ele>292</ele>
        <time>2011-06-02T06:59:46Z</time>
      </trkpt>
      <trkpt lat="45.88534" lon="4.85788">
        <ele>293</ele>
        <time>2011-06-02T06:59:47Z</time>
      </trkpt>
      <trkpt lat="45.88535" lon="4.85785">
        <ele>293</ele>
        <time>2011-06-02T06:59:48Z</time>
      </trkpt>
      <trkpt lat="45.88536" lon="4.85781">
        <ele>293</ele>
        <time>2011-06-02T06:59:49Z</time>
      </trkpt>
      <trkpt lat="45.88537" lon="4.85777">
        <ele>293</ele>
        <time>2011-06-02T06:59:50Z</time>
      </trkpt>
      <trkpt lat="45.88538" lon="4.85773">
        <ele>293</ele>
        <time>2011-06-02T06:59:51Z</time>
      </trkpt>
      <trkpt lat="45.88538" lon="4.85768">
        <ele>293</ele>
        <time>2011-06-02T06:59:52Z</time>
      </trkpt>
      <trkpt lat="45.8854" lon="4.85764">
        <ele>293</ele>
        <time>2011-06-02T06:59:53Z</time>
      </trkpt>
      <trkpt lat="45.88542" lon="4.8576">
        <ele>293</ele>
        <time>2011-06-02T06:59:54Z</time>
      </trkpt>
      <trkpt lat="45.88544" lon="4.85755">
        <ele>293</ele>
        <time>2011-06-02T06:59:55Z</time>
      </trkpt>
      <trkpt lat="45.88546" lon="4.8575">
        <ele>293</ele>
        <time>2011-06-02T06:59:56Z</time>
      </trkpt>
      <trkpt lat="45.88547" lon="4.85744">
        <ele>293</ele>
        <time>2011-06-02T06:59:56Z</time>
      </trkpt>
      <trkpt lat="45.88548" lon="4.8574">
        <ele>293</ele>
        <time>2011-06-02T06:59:58Z</time>
      </trkpt>
      <trkpt lat="45.88549" lon="4.85733">
        <ele>293</ele>
        <time>2011-06-02T06:59:59Z</time>
      </trkpt>
      <trkpt lat="45.88551" lon="4.85726">
        <ele>293</ele>
        <time>2011-06-02T07:00:00Z</time>
      </trkpt>
      <trkpt lat="45.88552" lon="4.85718">
        <ele>293</ele>
        <time>2011-06-02T07:00:01Z</time>
      </trkpt>
      <trkpt lat="45.88552" lon="4.85711">
        <ele>293</ele>
        <time>2011-06-02T07:00:01Z</time>
      </trkpt>
      <trkpt lat="45.88552" lon="4.85704">
        <ele>293</ele>
        <time>2011-06-02T07:00:03Z</time>
      </trkpt>
      <trkpt lat="45.88554" lon="4.85696">
        <ele>293</ele>
        <time>2011-06-02T07:00:04Z</time>
      </trkpt>
      <trkpt lat="45.88556" lon="4.85687">
        <ele>293</ele>
        <time>2011-06-02T07:00:05Z</time>
      </trkpt>
      <trkpt lat="45.88558" lon="4.85679">
        <ele>293</ele>
        <time>2011-06-02T07:00:06Z</time>
      </trkpt>
      <trkpt lat="45.8856" lon="4.85672">
        <ele>293</ele>
        <time>2011-06-02T07:00:07Z</time>
      </trkpt>
      <trkpt lat="45.88562" lon="4.85664">
        <ele>293</ele>
        <time>2011-06-02T07:00:08Z</time>
      </trkpt>
      <trkpt lat="45.88564" lon="4.85657">
        <ele>293</ele>
        <time>2011-06-02T07:00:09Z</time>
      </trkpt>
      <trkpt lat="45.88565" lon="4.85651">
        <ele>293</ele>
        <time>2011-06-02T07:00:10Z</time>
      </trkpt>
      <trkpt lat="45.88567" lon="4.85643">
        <ele>293</ele>
        <time>2011-06-02T07:00:11Z</time>
      </trkpt>
      <trkpt lat="45.88569" lon="4.85636">
        <ele>293</ele>
        <time>2011-06-02T07:00:12Z</time>
      </trkpt>
      <trkpt lat="45.88571" lon="4.85629">
        <ele>293</ele>
        <time>2011-06-02T07:00:13Z</time>
      </trkpt>
      <trkpt lat="45.88572" lon="4.85621">
        <ele>293</ele>
        <time>2011-06-02T07:00:14Z</time>
      </trkpt>
      <trkpt lat="45.88573" lon="4.85613">
        <ele>293</ele>
        <time>2011-06-02T07:00:15Z</time>
      </trkpt>
      <trkpt lat="45.88574" lon="4.85605">
        <ele>293</ele>
        <time>2011-06-02T07:00:16Z</time>
      </trkpt>
      <trkpt lat="45.88575" lon="4.85597">
        <ele>293</ele>
        <time>2011-06-02T07:00:17Z</time>
      </trkpt>
      <trkpt lat="45.88573" lon="4.8559">
        <ele>293</ele>
        <time>2011-06-02T07:00:18Z</time>
      </trkpt>
      <trkpt lat="45.88572" lon="4.85584">
        <ele>293</ele>
        <time>2011-06-02T07:00:19Z</time>
      </trkpt>
      <trkpt lat="45.8857" lon="4.85577">
        <ele>293</ele>
        <time>2011-06-02T07:00:20Z</time>
      </trkpt>
      <trkpt lat="45.88567" lon="4.85571">
        <ele>293</ele>
        <time>2011-06-02T07:00:21Z</time>
      </trkpt>
      <trkpt lat="45.88564" lon="4.85565">
        <ele>293</ele>
        <time>2011-06-02T07:00:22Z</time>
      </trkpt>
      <trkpt lat="45.8856" lon="4.85558">
        <ele>292</ele>
        <time>2011-06-02T07:00:23Z</time>
      </trkpt>
      <trkpt lat="45.88556" lon="4.85551">
        <ele>292</ele>
        <time>2011-06-02T07:00:24Z</time>
      </trkpt>
      <trkpt lat="45.88552" lon="4.85543">
        <ele>291</ele>
        <time>2011-06-02T07:00:25Z</time>
      </trkpt>
      <trkpt lat="45.88547" lon="4.85536">
        <ele>290</ele>
        <time>2011-06-02T07:00:26Z</time>
      </trkpt>
      <trkpt lat="45.88542" lon="4.85529">
        <ele>290</ele>
        <time>2011-06-02T07:00:27Z</time>
      </trkpt>
      <trkpt lat="45.88536" lon="4.85521">
        <ele>289</ele>
        <time>2011-06-02T07:00:28Z</time>
      </trkpt>
      <trkpt lat="45.8853" lon="4.85513">
        <ele>288</ele>
        <time>2011-06-02T07:00:29Z</time>
      </trkpt>
      <trkpt lat="45.88522" lon="4.85504">
        <ele>287</ele>
        <time>2011-06-02T07:00:30Z</time>
      </trkpt>
      <trkpt lat="45.88516" lon="4.85494">
        <ele>286</ele>
        <time>2011-06-02T07:00:31Z</time>
      </trkpt>
      <trkpt lat="45.8851" lon="4.85484">
        <ele>285</ele>
        <time>2011-06-02T07:00:32Z</time>
      </trkpt>
      <trkpt lat="45.88504" lon="4.85475">
        <ele>284</ele>
        <time>2011-06-02T07:00:33Z</time>
      </trkpt>
      <trkpt lat="45.88496" lon="4.85464">
        <ele>283</ele>
        <time>2011-06-02T07:00:34Z</time>
      </trkpt>
      <trkpt lat="45.88489" lon="4.85455">
        <ele>282</ele>
        <time>2011-06-02T07:00:35Z</time>
      </trkpt>
      <trkpt lat="45.88483" lon="4.85445">
        <ele>281</ele>
        <time>2011-06-02T07:00:36Z</time>
      </trkpt>
      <trkpt lat="45.88476" lon="4.85436">
        <ele>280</ele>
        <time>2011-06-02T07:00:37Z</time>
      </trkpt>
      <trkpt lat="45.8847" lon="4.85427">
        <ele>279</ele>
        <time>2011-06-02T07:00:38Z</time>
      </trkpt>
      <trkpt lat="45.88465" lon="4.85419">
        <ele>278</ele>
        <time>2011-06-02T07:00:39Z</time>
      </trkpt>
      <trkpt lat="45.8846" lon="4.85412">
        <ele>277</ele>
        <time>2011-06-02T07:00:40Z</time>
      </trkpt>
      <trkpt lat="45.88455" lon="4.85404">
        <ele>276</ele>
        <time>2011-06-02T07:00:41Z</time>
      </trkpt>
      <trkpt lat="45.8845" lon="4.85396">
        <ele>275</ele>
        <time>2011-06-02T07:00:42Z</time>
      </trkpt>
      <trkpt lat="45.88446" lon="4.85391">
        <ele>274</ele>
        <time>2011-06-02T07:00:43Z</time>
      </trkpt>
      <trkpt lat="45.88441" lon="4.85383">
        <ele>272</ele>
        <time>2011-06-02T07:00:43Z</time>
      </trkpt>
      <trkpt lat="45.88437" lon="4.85376">
        <ele>271</ele>
        <time>2011-06-02T07:00:45Z</time>
      </trkpt>
      <trkpt lat="45.88432" lon="4.85368">
        <ele>270</ele>
        <time>2011-06-02T07:00:46Z</time>
      </trkpt>
      <trkpt lat="45.88428" lon="4.85362">
        <ele>269</ele>
        <time>2011-06-02T07:00:47Z</time>
      </trkpt>
      <trkpt lat="45.88423" lon="4.85355">
        <ele>267</ele>
        <time>2011-06-02T07:00:47Z</time>
      </trkpt>
      <trkpt lat="45.88419" lon="4.85349">
        <ele>266</ele>
        <time>2011-06-02T07:00:49Z</time>
      </trkpt>
      <trkpt lat="45.88414" lon="4.85343">
        <ele>265</ele>
        <time>2011-06-02T07:00:50Z</time>
      </trkpt>
      <trkpt lat="45.88411" lon="4.85338">
        <ele>264</ele>
        <time>2011-06-02T07:00:51Z</time>
      </trkpt>
      <trkpt lat="45.88408" lon="4.85335">
        <ele>263</ele>
        <time>2011-06-02T07:00:52Z</time>
      </trkpt>
      <trkpt lat="45.88406" lon="4.85333">
        <ele>262</ele>
        <time>2011-06-02T07:00:53Z</time>
      </trkpt>
      <trkpt lat="45.88404" lon="4.85334">
        <ele>260</ele>
        <time>2011-06-02T07:00:54Z</time>
      </trkpt>
      <trkpt lat="45.88402" lon="4.85338">
        <ele>259</ele>
        <time>2011-06-02T07:00:55Z</time>
      </trkpt>
      <trkpt lat="45.884" lon="4.85342">
        <ele>257</ele>
        <time>2011-06-02T07:00:55Z</time>
      </trkpt>
      <trkpt lat="45.88397" lon="4.85347">
        <ele>256</ele>
        <time>2011-06-02T07:00:57Z</time>
      </trkpt>
      <trkpt lat="45.88395" lon="4.85353">
        <ele>255</ele>
        <time>2011-06-02T07:00:58Z</time>
      </trkpt>
      <trkpt lat="45.88391" lon="4.85359">
        <ele>254</ele>
        <time>2011-06-02T07:00:59Z</time>
      </trkpt>
      <trkpt lat="45.88388" lon="4.85365">
        <ele>253</ele>
        <time>2011-06-02T07:01:00Z</time>
      </trkpt>
      <trkpt lat="45.88385" lon="4.85371">
        <ele>252</ele>
        <time>2011-06-02T07:01:01Z</time>
      </trkpt>
      <trkpt lat="45.88383" lon="4.85377">
        <ele>251</ele>
        <time>2011-06-02T07:01:02Z</time>
      </trkpt>
      <trkpt lat="45.8838" lon="4.85382">
        <ele>250</ele>
        <time>2011-06-02T07:01:03Z</time>
      </trkpt>
      <trkpt lat="45.88377" lon="4.85389">
        <ele>250</ele>
        <time>2011-06-02T07:01:03Z</time>
      </trkpt>
      <trkpt lat="45.88374" lon="4.85397">
        <ele>250</ele>
        <time>2011-06-02T07:01:05Z</time>
      </trkpt>
      <trkpt lat="45.88371" lon="4.85403">
        <ele>250</ele>
        <time>2011-06-02T07:01:06Z</time>
      </trkpt>
      <trkpt lat="45.88368" lon="4.85407">
        <ele>250</ele>
        <time>2011-06-02T07:01:06Z</time>
      </trkpt>
      <trkpt lat="45.88363" lon="4.85409">
        <ele>250</ele>
        <time>2011-06-02T07:01:08Z</time>
      </trkpt>
      <trkpt lat="45.88359" lon="4.8541">
        <ele>250</ele>
        <time>2011-06-02T07:01:09Z</time>
      </trkpt>
      <trkpt lat="45.88356" lon="4.85413">
        <ele>250</ele>
        <time>2011-06-02T07:01:10Z</time>
      </trkpt>
      <trkpt lat="45.88351" lon="4.85413">
        <ele>250</ele>
        <time>2011-06-02T07:01:11Z</time>
      </trkpt>
      <trkpt lat="45.88346" lon="4.85409">
        <ele>250</ele>
        <time>2011-06-02T07:01:12Z</time>
      </trkpt>
      <trkpt lat="45.88339" lon="4.85405">
        <ele>249</ele>
        <time>2011-06-02T07:01:13Z</time>
      </trkpt>
      <trkpt lat="45.88331" lon="4.85399">
        <ele>248</ele>
        <time>2011-06-02T07:01:14Z</time>
      </trkpt>
      <trkpt lat="45.88324" lon="4.85396">
        <ele>247</ele>
        <time>2011-06-02T07:01:15Z</time>
      </trkpt>
      <trkpt lat="45.88318" lon="4.8539">
        <ele>246</ele>
        <time>2011-06-02T07:01:16Z</time>
      </trkpt>
      <trkpt lat="45.88312" lon="4.85385">
        <ele>245</ele>
        <time>2011-06-02T07:01:17Z</time>
      </trkpt>
      <trkpt lat="45.88306" lon="4.85381">
        <ele>244</ele>
        <time>2011-06-02T07:01:18Z</time>
      </trkpt>
      <trkpt lat="45.883" lon="4.85377">
        <ele>243</ele>
        <time>2011-06-02T07:01:19Z</time>
      </trkpt>
      <trkpt lat="45.88295" lon="4.85373">
        <ele>242</ele>
        <time>2011-06-02T07:01:20Z</time>
      </trkpt>
      <trkpt lat="45.8829" lon="4.8537">
        <ele>241</ele>
        <time>2011-06-02T07:01:21Z</time>
      </trkpt>
      <trkpt lat="45.88286" lon="4.85366">
        <ele>240</ele>
        <time>2011-06-02T07:01:22Z</time>
      </trkpt>
      <trkpt lat="45.88284" lon="4.85363">
        <ele>239</ele>
        <time>2011-06-02T07:01:23Z</time>
      </trkpt>
      <trkpt lat="45.88283" lon="4.85358">
        <ele>238</ele>
        <time>2011-06-02T07:01:24Z</time>
      </trkpt>
      <trkpt lat="45.88281" lon="4.85354">
        <ele>236</ele>
        <time>2011-06-02T07:01:25Z</time>
      </trkpt>
      <trkpt lat="45.8828" lon="4.85348">
        <ele>235</ele>
        <time>2011-06-02T07:01:26Z</time>
      </trkpt>
      <trkpt lat="45.88279" lon="4.85342">
        <ele>234</ele>
        <time>2011-06-02T07:01:27Z</time>
      </trkpt>
      <trkpt lat="45.88279" lon="4.85333">
        <ele>233</ele>
        <time>2011-06-02T07:01:27Z</time>
      </trkpt>
      <trkpt lat="45.8828" lon="4.85324">
        <ele>232</ele>
        <time>2011-06-02T07:01:29Z</time>
      </trkpt>
      <trkpt lat="45.88283" lon="4.85314">
        <ele>231</ele>
        <time>2011-06-02T07:01:30Z</time>
      </trkpt>
      <trkpt lat="45.88287" lon="4.85303">
        <ele>230</ele>
        <time>2011-06-02T07:01:31Z</time>
      </trkpt>
      <trkpt lat="45.8829" lon="4.85291">
        <ele>229</ele>
        <time>2011-06-02T07:01:32Z</time>
      </trkpt>
      <trkpt lat="45.88293" lon="4.85277">
        <ele>228</ele>
        <time>2011-06-02T07:01:33Z</time>
      </trkpt>
      <trkpt lat="45.88297" lon="4.85264">
        <ele>227</ele>
        <time>2011-06-02T07:01:33Z</time>
      </trkpt>
      <trkpt lat="45.883" lon="4.85249">
        <ele>226</ele>
        <time>2011-06-02T07:01:34Z</time>
      </trkpt>
      <trkpt lat="45.88304" lon="4.85234">
        <ele>225</ele>
        <time>2011-06-02T07:01:36Z</time>
      </trkpt>
      <trkpt lat="45.88308" lon="4.85218">
        <ele>224</ele>
        <time>2011-06-02T07:01:36Z</time>
      </trkpt>
      <trkpt lat="45.88312" lon="4.85203">
        <ele>223</ele>
        <time>2011-06-02T07:01:37Z</time>
      </trkpt>
      <trkpt lat="45.88316" lon="4.85188">
        <ele>222</ele>
        <time>2011-06-02T07:01:39Z</time>
      </trkpt>
      <trkpt lat="45.8832" lon="4.85174">
        <ele>221</ele>
        <time>2011-06-02T07:01:39Z</time>
      </trkpt>
      <trkpt lat="45.88324" lon="4.85159">
        <ele>220</ele>
        <time>2011-06-02T07:01:41Z</time>
      </trkpt>
      <trkpt lat="45.88327" lon="4.85146">
        <ele>219</ele>
        <time>2011-06-02T07:01:42Z</time>
      </trkpt>
      <trkpt lat="45.88331" lon="4.85132">
        <ele>218</ele>
        <time>2011-06-02T07:01:42Z</time>
      </trkpt>
      <trkpt lat="45.88335" lon="4.85118">
        <ele>217</ele>
        <time>2011-06-02T07:01:43Z</time>
      </trkpt>
      <trkpt lat="45.88339" lon="4.85104">
        <ele>216</ele>
        <time>2011-06-02T07:01:44Z</time>
      </trkpt>
      <trkpt lat="45.88343" lon="4.85089">
        <ele>215</ele>
        <time>2011-06-02T07:01:45Z</time>
      </trkpt>
      <trkpt lat="45.88346" lon="4.85076">
        <ele>214</ele>
        <time>2011-06-02T07:01:47Z</time>
      </trkpt>
      <trkpt lat="45.8835" lon="4.85062">
        <ele>212</ele>
        <time>2011-06-02T07:01:47Z</time>
      </trkpt>
      <trkpt lat="45.88353" lon="4.85047">
        <ele>211</ele>
        <time>2011-06-02T07:01:48Z</time>
      </trkpt>
      <trkpt lat="45.88358" lon="4.85034">
        <ele>209</ele>
        <time>2011-06-02T07:01:50Z</time>
      </trkpt>
      <trkpt lat="45.88361" lon="4.85021">
        <ele>208</ele>
        <time>2011-06-02T07:01:51Z</time>
      </trkpt>
      <trkpt lat="45.88365" lon="4.85008">
        <ele>207</ele>
        <time>2011-06-02T07:01:52Z</time>
      </trkpt>
      <trkpt lat="45.88368" lon="4.84995">
        <ele>206</ele>
        <time>2011-06-02T07:01:53Z</time>
      </trkpt>
      <trkpt lat="45.88372" lon="4.84983">
        <ele>205</ele>
        <time>2011-06-02T07:01:54Z</time>
      </trkpt>
      <trkpt lat="45.88374" lon="4.84972">
        <ele>204</ele>
        <time>2011-06-02T07:01:55Z</time>
      </trkpt>
      <trkpt lat="45.88377" lon="4.84961">
        <ele>203</ele>
        <time>2011-06-02T07:01:56Z</time>
      </trkpt>
      <trkpt lat="45.88379" lon="4.84952">
        <ele>202</ele>
        <time>2011-06-02T07:01:57Z</time>
      </trkpt>
      <trkpt lat="45.88381" lon="4.84944">
        <ele>201</ele>
        <time>2011-06-02T07:01:58Z</time>
      </trkpt>
      <trkpt lat="45.88383" lon="4.84937">
        <ele>200</ele>
        <time>2011-06-02T07:01:59Z</time>
      </trkpt>
      <trkpt lat="45.88385" lon="4.84931">
        <ele>199</ele>
        <time>2011-06-02T07:01:59Z</time>
      </trkpt>
      <trkpt lat="45.88387" lon="4.84927">
        <ele>198</ele>
        <time>2011-06-02T07:02:01Z</time>
      </trkpt>
      <trkpt lat="45.88388" lon="4.84923">
        <ele>197</ele>
        <time>2011-06-02T07:02:02Z</time>
      </trkpt>
      <trkpt lat="45.88388" lon="4.84922">
        <ele>196</ele>
        <time>2011-06-02T07:02:03Z</time>
      </trkpt>
      <trkpt lat="45.88387" lon="4.84924">
        <ele>194</ele>
        <time>2011-06-02T07:02:11Z</time>
      </trkpt>
      <trkpt lat="45.88387" lon="4.84926">
        <ele>194</ele>
        <time>2011-06-02T07:02:14Z</time>
      </trkpt>
      <trkpt lat="45.88387" lon="4.84928">
        <ele>194</ele>
        <time>2011-06-02T07:02:16Z</time>
      </trkpt>
      <trkpt lat="45.88386" lon="4.8493">
        <ele>196</ele>
        <time>2011-06-02T07:02:19Z</time>
      </trkpt>
      <trkpt lat="45.88386" lon="4.84931">
        <ele>199</ele>
        <time>2011-06-02T07:02:22Z</time>
      </trkpt>
      <trkpt lat="45.88386" lon="4.84933">
        <ele>203</ele>
        <time>2011-06-02T07:02:26Z</time>
      </trkpt>
      <trkpt lat="45.88386" lon="4.84934">
        <ele>207</ele>
        <time>2011-06-02T07:02:36Z</time>
      </trkpt>
      <trkpt lat="45.88386" lon="4.84936">
        <ele>209</ele>
        <time>2011-06-02T07:03:07Z</time>
      </trkpt>
      <trkpt lat="45.88387" lon="4.84934">
        <ele>209</ele>
        <time>2011-06-02T07:03:33Z</time>
      </trkpt>
      <trkpt lat="45.88388" lon="4.84933">
        <ele>209</ele>
        <time>2011-06-02T07:03:38Z</time>
      </trkpt>
      <trkpt lat="45.88387" lon="4.8493">
        <ele>209</ele>
        <time>2011-06-02T07:03:39Z</time>
      </trkpt>
      <trkpt lat="45.88387" lon="4.84929">
        <ele>209</ele>
        <time>2011-06-02T07:03:41Z</time>
      </trkpt>
      <trkpt lat="45.88386" lon="4.84927">
        <ele>209</ele>
        <time>2011-06-02T07:03:42Z</time>
      </trkpt>
      <trkpt lat="45.88385" lon="4.84925">
        <ele>208</ele>
        <time>2011-06-02T07:03:42Z</time>
      </trkpt>
      <trkpt lat="45.88383" lon="4.84922">
        <ele>208</ele>
        <time>2011-06-02T07:03:44Z</time>
      </trkpt>
      <trkpt lat="45.88381" lon="4.8492">
        <ele>207</ele>
        <time>2011-06-02T07:03:45Z</time>
      </trkpt>
      <trkpt lat="45.88379" lon="4.84917">
        <ele>207</ele>
        <time>2011-06-02T07:03:46Z</time>
      </trkpt>
      <trkpt lat="45.88375" lon="4.84914">
        <ele>206</ele>
        <time>2011-06-02T07:03:46Z</time>
      </trkpt>
      <trkpt lat="45.88371" lon="4.84911">
        <ele>206</ele>
        <time>2011-06-02T07:03:48Z</time>
      </trkpt>
      <trkpt lat="45.88367" lon="4.84908">
        <ele>206</ele>
        <time>2011-06-02T07:03:49Z</time>
      </trkpt>
      <trkpt lat="45.88363" lon="4.84906">
        <ele>205</ele>
        <time>2011-06-02T07:03:50Z</time>
      </trkpt>
      <trkpt lat="45.88358" lon="4.84903">
        <ele>205</ele>
        <time>2011-06-02T07:03:51Z</time>
      </trkpt>
      <trkpt lat="45.88353" lon="4.849">
        <ele>205</ele>
        <time>2011-06-02T07:03:52Z</time>
      </trkpt>
      <trkpt lat="45.88349" lon="4.84897">
        <ele>205</ele>
        <time>2011-06-02T07:03:53Z</time>
      </trkpt>
      <trkpt lat="45.88344" lon="4.84894">
        <ele>205</ele>
        <time>2011-06-02T07:03:54Z</time>
      </trkpt>
      <trkpt lat="45.8834" lon="4.84891">
        <ele>205</ele>
        <time>2011-06-02T07:03:55Z</time>
      </trkpt>
      <trkpt lat="45.88335" lon="4.84888">
        <ele>205</ele>
        <time>2011-06-02T07:03:56Z</time>
      </trkpt>
      <trkpt lat="45.8833" lon="4.84885">
        <ele>205</ele>
        <time>2011-06-02T07:03:57Z</time>
      </trkpt>
      <trkpt lat="45.88325" lon="4.84882">
        <ele>205</ele>
        <time>2011-06-02T07:03:58Z</time>
      </trkpt>
      <trkpt lat="45.88319" lon="4.84879">
        <ele>205</ele>
        <time>2011-06-02T07:03:59Z</time>
      </trkpt>
      <trkpt lat="45.88314" lon="4.84876">
        <ele>205</ele>
        <time>2011-06-02T07:04:00Z</time>
      </trkpt>
      <trkpt lat="45.88309" lon="4.84873">
        <ele>205</ele>
        <time>2011-06-02T07:04:01Z</time>
      </trkpt>
      <trkpt lat="45.88304" lon="4.84869">
        <ele>205</ele>
        <time>2011-06-02T07:04:02Z</time>
      </trkpt>
      <trkpt lat="45.88299" lon="4.84866">
        <ele>205</ele>
        <time>2011-06-02T07:04:03Z</time>
      </trkpt>
      <trkpt lat="45.88293" lon="4.84862">
        <ele>205</ele>
        <time>2011-06-02T07:04:04Z</time>
      </trkpt>
      <trkpt lat="45.88288" lon="4.84859">
        <ele>205</ele>
        <time>2011-06-02T07:04:05Z</time>
      </trkpt>
      <trkpt lat="45.88283" lon="4.84856">
        <ele>205</ele>
        <time>2011-06-02T07:04:06Z</time>
      </trkpt>
      <trkpt lat="45.88277" lon="4.84853">
        <ele>205</ele>
        <time>2011-06-02T07:04:07Z</time>
      </trkpt>
      <trkpt lat="45.88272" lon="4.84849">
        <ele>205</ele>
        <time>2011-06-02T07:04:07Z</time>
      </trkpt>
      <trkpt lat="45.88266" lon="4.84846">
        <ele>205</ele>
        <time>2011-06-02T07:04:09Z</time>
      </trkpt>
      <trkpt lat="45.8826" lon="4.84842">
        <ele>206</ele>
        <time>2011-06-02T07:04:10Z</time>
      </trkpt>
      <trkpt lat="45.88255" lon="4.84838">
        <ele>206</ele>
        <time>2011-06-02T07:04:11Z</time>
      </trkpt>
      <trkpt lat="45.88249" lon="4.84834">
        <ele>206</ele>
        <time>2011-06-02T07:04:12Z</time>
      </trkpt>
      <trkpt lat="45.88244" lon="4.8483">
        <ele>206</ele>
        <time>2011-06-02T07:04:12Z</time>
      </trkpt>
      <trkpt lat="45.88239" lon="4.84827">
        <ele>206</ele>
        <time>2011-06-02T07:04:14Z</time>
      </trkpt>
      <trkpt lat="45.88233" lon="4.84823">
        <ele>207</ele>
        <time>2011-06-02T07:04:15Z</time>
      </trkpt>
      <trkpt lat="45.88228" lon="4.84819">
        <ele>207</ele>
        <time>2011-06-02T07:04:16Z</time>
      </trkpt>
      <trkpt lat="45.88223" lon="4.84815">
        <ele>207</ele>
        <time>2011-06-02T07:04:17Z</time>
      </trkpt>
      <trkpt lat="45.88217" lon="4.8481">
        <ele>207</ele>
        <time>2011-06-02T07:04:18Z</time>
      </trkpt>
      <trkpt lat="45.88211" lon="4.84806">
        <ele>207</ele>
        <time>2011-06-02T07:04:19Z</time>
      </trkpt>
      <trkpt lat="45.88205" lon="4.84802">
        <ele>207</ele>
        <time>2011-06-02T07:04:20Z</time>
      </trkpt>
      <trkpt lat="45.88199" lon="4.84798">
        <ele>208</ele>
        <time>2011-06-02T07:04:21Z</time>
      </trkpt>
      <trkpt lat="45.88193" lon="4.84794">
        <ele>208</ele>
        <time>2011-06-02T07:04:22Z</time>
      </trkpt>
      <trkpt lat="45.88187" lon="4.8479">
        <ele>208</ele>
        <time>2011-06-02T07:04:23Z</time>
      </trkpt>
      <trkpt lat="45.88181" lon="4.84786">
        <ele>209</ele>
        <time>2011-06-02T07:04:24Z</time>
      </trkpt>
      <trkpt lat="45.88175" lon="4.84781">
        <ele>209</ele>
        <time>2011-06-02T07:04:25Z</time>
      </trkpt>
      <trkpt lat="45.88169" lon="4.84777">
        <ele>210</ele>
        <time>2011-06-02T07:04:26Z</time>
      </trkpt>
      <trkpt lat="45.88163" lon="4.84772">
        <ele>210</ele>
        <time>2011-06-02T07:04:27Z</time>
      </trkpt>
      <trkpt lat="45.88157" lon="4.84768">
        <ele>211</ele>
        <time>2011-06-02T07:04:28Z</time>
      </trkpt>
      <trkpt lat="45.88151" lon="4.84764">
        <ele>211</ele>
        <time>2011-06-02T07:04:29Z</time>
      </trkpt>
      <trkpt lat="45.88145" lon="4.8476">
        <ele>212</ele>
        <time>2011-06-02T07:04:30Z</time>
      </trkpt>
      <trkpt lat="45.88139" lon="4.84756">
        <ele>212</ele>
        <time>2011-06-02T07:04:31Z</time>
      </trkpt>
      <trkpt lat="45.88133" lon="4.84751">
        <ele>212</ele>
        <time>2011-06-02T07:04:32Z</time>
      </trkpt>
      <trkpt lat="45.88127" lon="4.84747">
        <ele>212</ele>
        <time>2011-06-02T07:04:33Z</time>
      </trkpt>
      <trkpt lat="45.88121" lon="4.84743">
        <ele>213</ele>
        <time>2011-06-02T07:04:34Z</time>
      </trkpt>
      <trkpt lat="45.88115" lon="4.84739">
        <ele>213</ele>
        <time>2011-06-02T07:04:35Z</time>
      </trkpt>
      <trkpt lat="45.88109" lon="4.84736">
        <ele>213</ele>
        <time>2011-06-02T07:04:36Z</time>
      </trkpt>
      <trkpt lat="45.88103" lon="4.84732">
        <ele>213</ele>
        <time>2011-06-02T07:04:37Z</time>
      </trkpt>
      <trkpt lat="45.88097" lon="4.84728">
        <ele>213</ele>
        <time>2011-06-02T07:04:38Z</time>
      </trkpt>
      <trkpt lat="45.88092" lon="4.84723">
        <ele>213</ele>
        <time>2011-06-02T07:04:39Z</time>
      </trkpt>
      <trkpt lat="45.88087" lon="4.84717">
        <ele>213</ele>
        <time>2011-06-02T07:04:40Z</time>
      </trkpt>
      <trkpt lat="45.88081" lon="4.84711">
        <ele>213</ele>
        <time>2011-06-02T07:04:41Z</time>
      </trkpt>
      <trkpt lat="45.88076" lon="4.84705">
        <ele>213</ele>
        <time>2011-06-02T07:04:42Z</time>
      </trkpt>
      <trkpt lat="45.88071" lon="4.847">
        <ele>213</ele>
        <time>2011-06-02T07:04:43Z</time>
      </trkpt>
      <trkpt lat="45.88066" lon="4.84695">
        <ele>213</ele>
        <time>2011-06-02T07:04:44Z</time>
      </trkpt>
      <trkpt lat="45.88062" lon="4.84691">
        <ele>213</ele>
        <time>2011-06-02T07:04:45Z</time>
      </trkpt>
      <trkpt lat="45.88056" lon="4.84687">
        <ele>213</ele>
        <time>2011-06-02T07:04:46Z</time>
      </trkpt>
      <trkpt lat="45.8805" lon="4.84684">
        <ele>213</ele>
        <time>2011-06-02T07:04:47Z</time>
      </trkpt>
      <trkpt lat="45.88044" lon="4.8468">
        <ele>213</ele>
        <time>2011-06-02T07:04:48Z</time>
      </trkpt>
      <trkpt lat="45.88038" lon="4.84676">
        <ele>213</ele>
        <time>2011-06-02T07:04:49Z</time>
      </trkpt>
      <trkpt lat="45.88032" lon="4.84672">
        <ele>213</ele>
        <time>2011-06-02T07:04:50Z</time>
      </trkpt>
      <trkpt lat="45.88026" lon="4.84667">
        <ele>213</ele>
        <time>2011-06-02T07:04:51Z</time>
      </trkpt>
      <trkpt lat="45.8802" lon="4.84663">
        <ele>212</ele>
        <time>2011-06-02T07:04:52Z</time>
      </trkpt>
      <trkpt lat="45.88014" lon="4.84659">
        <ele>212</ele>
        <time>2011-06-02T07:04:53Z</time>
      </trkpt>
      <trkpt lat="45.88008" lon="4.84655">
        <ele>212</ele>
        <time>2011-06-02T07:04:54Z</time>
      </trkpt>
      <trkpt lat="45.88002" lon="4.84651">
        <ele>211</ele>
        <time>2011-06-02T07:04:55Z</time>
      </trkpt>
      <trkpt lat="45.87996" lon="4.84646">
        <ele>211</ele>
        <time>2011-06-02T07:04:56Z</time>
      </trkpt>
      <trkpt lat="45.8799" lon="4.84642">
        <ele>211</ele>
        <time>2011-06-02T07:04:57Z</time>
      </trkpt>
      <trkpt lat="45.87983" lon="4.84637">
        <ele>211</ele>
        <time>2011-06-02T07:04:58Z</time>
      </trkpt>
      <trkpt lat="45.87977" lon="4.84632">
        <ele>211</ele>
        <time>2011-06-02T07:04:59Z</time>
      </trkpt>
      <trkpt lat="45.87971" lon="4.84627">
        <ele>211</ele>
        <time>2011-06-02T07:04:59Z</time>
      </trkpt>
      <trkpt lat="45.87965" lon="4.84622">
        <ele>211</ele>
        <time>2011-06-02T07:05:01Z</time>
      </trkpt>
      <trkpt lat="45.87959" lon="4.84618">
        <ele>211</ele>
        <time>2011-06-02T07:05:02Z</time>
      </trkpt>
      <trkpt lat="45.87953" lon="4.84613">
        <ele>211</ele>
        <time>2011-06-02T07:05:03Z</time>
      </trkpt>
      <trkpt lat="45.87947" lon="4.84609">
        <ele>211</ele>
        <time>2011-06-02T07:05:03Z</time>
      </trkpt>
      <trkpt lat="45.87941" lon="4.84605">
        <ele>211</ele>
        <time>2011-06-02T07:05:05Z</time>
      </trkpt>
      <trkpt lat="45.87934" lon="4.846">
        <ele>211</ele>
        <time>2011-06-02T07:05:06Z</time>
      </trkpt>
      <trkpt lat="45.87928" lon="4.84595">
        <ele>211</ele>
        <time>2011-06-02T07:05:07Z</time>
      </trkpt>
      <trkpt lat="45.87922" lon="4.84591">
        <ele>211</ele>
        <time>2011-06-02T07:05:08Z</time>
      </trkpt>
      <trkpt lat="45.87916" lon="4.84587">
        <ele>211</ele>
        <time>2011-06-02T07:05:09Z</time>
      </trkpt>
      <trkpt lat="45.87909" lon="4.84583">
        <ele>211</ele>
        <time>2011-06-02T07:05:10Z</time>
      </trkpt>
      <trkpt lat="45.87903" lon="4.84579">
        <ele>211</ele>
        <time>2011-06-02T07:05:11Z</time>
      </trkpt>
      <trkpt lat="45.87897" lon="4.84575">
        <ele>211</ele>
        <time>2011-06-02T07:05:12Z</time>
      </trkpt>
      <trkpt lat="45.87891" lon="4.8457">
        <ele>211</ele>
        <time>2011-06-02T07:05:13Z</time>
      </trkpt>
      <trkpt lat="45.87885" lon="4.84565">
        <ele>211</ele>
        <time>2011-06-02T07:05:14Z</time>
      </trkpt>
      <trkpt lat="45.87879" lon="4.8456">
        <ele>211</ele>
        <time>2011-06-02T07:05:15Z</time>
      </trkpt>
      <trkpt lat="45.87873" lon="4.84554">
        <ele>211</ele>
        <time>2011-06-02T07:05:16Z</time>
      </trkpt>
      <trkpt lat="45.87867" lon="4.84549">
        <ele>211</ele>
        <time>2011-06-02T07:05:16Z</time>
      </trkpt>
      <trkpt lat="45.8786" lon="4.84544">
        <ele>211</ele>
        <time>2011-06-02T07:05:18Z</time>
      </trkpt>
      <trkpt lat="45.87854" lon="4.84539">
        <ele>211</ele>
        <time>2011-06-02T07:05:19Z</time>
      </trkpt>
      <trkpt lat="45.87849" lon="4.84532">
        <ele>210</ele>
        <time>2011-06-02T07:05:20Z</time>
      </trkpt>
      <trkpt lat="45.87843" lon="4.84526">
        <ele>210</ele>
        <time>2011-06-02T07:05:20Z</time>
      </trkpt>
      <trkpt lat="45.87836" lon="4.84519">
        <ele>209</ele>
        <time>2011-06-02T07:05:22Z</time>
      </trkpt>
      <trkpt lat="45.87831" lon="4.84512">
        <ele>209</ele>
        <time>2011-06-02T07:05:23Z</time>
      </trkpt>
      <trkpt lat="45.87827" lon="4.84501">
        <ele>208</ele>
        <time>2011-06-02T07:05:24Z</time>
      </trkpt>
      <trkpt lat="45.87823" lon="4.8449">
        <ele>207</ele>
        <time>2011-06-02T07:05:24Z</time>
      </trkpt>
      <trkpt lat="45.87818" lon="4.8448">
        <ele>206</ele>
        <time>2011-06-02T07:05:26Z</time>
      </trkpt>
      <trkpt lat="45.87814" lon="4.8447">
        <ele>205</ele>
        <time>2011-06-02T07:05:26Z</time>
      </trkpt>
      <trkpt lat="45.87809" lon="4.84461">
        <ele>204</ele>
        <time>2011-06-02T07:05:27Z</time>
      </trkpt>
      <trkpt lat="45.87804" lon="4.84453">
        <ele>203</ele>
        <time>2011-06-02T07:05:29Z</time>
      </trkpt>
      <trkpt lat="45.87799" lon="4.84445">
        <ele>202</ele>
        <time>2011-06-02T07:05:30Z</time>
      </trkpt>
      <trkpt lat="45.87794" lon="4.84437">
        <ele>201</ele>
        <time>2011-06-02T07:05:31Z</time>
      </trkpt>
      <trkpt lat="45.87789" lon="4.84429">
        <ele>200</ele>
        <time>2011-06-02T07:05:31Z</time>
      </trkpt>
      <trkpt lat="45.87784" lon="4.84421">
        <ele>199</ele>
        <time>2011-06-02T07:05:33Z</time>
      </trkpt>
      <trkpt lat="45.8778" lon="4.84413">
        <ele>198</ele>
        <time>2011-06-02T07:05:34Z</time>
      </trkpt>
      <trkpt lat="45.87776" lon="4.84405">
        <ele>197</ele>
        <time>2011-06-02T07:05:35Z</time>
      </trkpt>
      <trkpt lat="45.87771" lon="4.84397">
        <ele>196</ele>
        <time>2011-06-02T07:05:36Z</time>
      </trkpt>
      <trkpt lat="45.87767" lon="4.8439">
        <ele>195</ele>
        <time>2011-06-02T07:05:37Z</time>
      </trkpt>
      <trkpt lat="45.87762" lon="4.84382">
        <ele>194</ele>
        <time>2011-06-02T07:05:38Z</time>
      </trkpt>
      <trkpt lat="45.87758" lon="4.84375">
        <ele>193</ele>
        <time>2011-06-02T07:05:39Z</time>
      </trkpt>
      <trkpt lat="45.87754" lon="4.84368">
        <ele>192</ele>
        <time>2011-06-02T07:05:40Z</time>
      </trkpt>
      <trkpt lat="45.87749" lon="4.84361">
        <ele>191</ele>
        <time>2011-06-02T07:05:41Z</time>
      </trkpt>
      <trkpt lat="45.87746" lon="4.84354">
        <ele>190</ele>
        <time>2011-06-02T07:05:42Z</time>
      </trkpt>
      <trkpt lat="45.87743" lon="4.84347">
        <ele>189</ele>
        <time>2011-06-02T07:05:43Z</time>
      </trkpt>
      <trkpt lat="45.87741" lon="4.8434">
        <ele>188</ele>
        <time>2011-06-02T07:05:44Z</time>
      </trkpt>
      <trkpt lat="45.87738" lon="4.84332">
        <ele>187</ele>
        <time>2011-06-02T07:05:45Z</time>
      </trkpt>
      <trkpt lat="45.87737" lon="4.84325">
        <ele>187</ele>
        <time>2011-06-02T07:05:46Z</time>
      </trkpt>
      <trkpt lat="45.87737" lon="4.84319">
        <ele>187</ele>
        <time>2011-06-02T07:05:47Z</time>
      </trkpt>
      <trkpt lat="45.87737" lon="4.84314">
        <ele>187</ele>
        <time>2011-06-02T07:05:48Z</time>
      </trkpt>
      <trkpt lat="45.87738" lon="4.84309">
        <ele>186</ele>
        <time>2011-06-02T07:05:49Z</time>
      </trkpt>
      <trkpt lat="45.87739" lon="4.84304">
        <ele>186</ele>
        <time>2011-06-02T07:05:50Z</time>
      </trkpt>
      <trkpt lat="45.8774" lon="4.84298">
        <ele>185</ele>
        <time>2011-06-02T07:05:51Z</time>
      </trkpt>
      <trkpt lat="45.87742" lon="4.84291">
        <ele>184</ele>
        <time>2011-06-02T07:05:52Z</time>
      </trkpt>
      <trkpt lat="45.87742" lon="4.84283">
        <ele>183</ele>
        <time>2011-06-02T07:05:53Z</time>
      </trkpt>
      <trkpt lat="45.87743" lon="4.84274">
        <ele>182</ele>
        <time>2011-06-02T07:05:54Z</time>
      </trkpt>
      <trkpt lat="45.87744" lon="4.84266">
        <ele>181</ele>
        <time>2011-06-02T07:05:55Z</time>
      </trkpt>
      <trkpt lat="45.87744" lon="4.84256">
        <ele>180</ele>
        <time>2011-06-02T07:05:56Z</time>
      </trkpt>
      <trkpt lat="45.87745" lon="4.84246">
        <ele>179</ele>
        <time>2011-06-02T07:05:57Z</time>
      </trkpt>
      <trkpt lat="45.87746" lon="4.84236">
        <ele>178</ele>
        <time>2011-06-02T07:05:58Z</time>
      </trkpt>
      <trkpt lat="45.87747" lon="4.84226">
        <ele>177</ele>
        <time>2011-06-02T07:05:59Z</time>
      </trkpt>
      <trkpt lat="45.87748" lon="4.84218">
        <ele>176</ele>
        <time>2011-06-02T07:06:00Z</time>
      </trkpt>
      <trkpt lat="45.87749" lon="4.84209">
        <ele>175</ele>
        <time>2011-06-02T07:06:01Z</time>
      </trkpt>
      <trkpt lat="45.87751" lon="4.84202">
        <ele>174</ele>
        <time>2011-06-02T07:06:02Z</time>
      </trkpt>
      <trkpt lat="45.87752" lon="4.84197">
        <ele>173</ele>
        <time>2011-06-02T07:06:03Z</time>
      </trkpt>
      <trkpt lat="45.87757" lon="4.84192">
        <ele>172</ele>
        <time>2011-06-02T07:06:04Z</time>
      </trkpt>
      <trkpt lat="45.87759" lon="4.84188">
        <ele>171</ele>
        <time>2011-06-02T07:06:05Z</time>
      </trkpt>
      <trkpt lat="45.87761" lon="4.84184">
        <ele>170</ele>
        <time>2011-06-02T07:06:06Z</time>
      </trkpt>
      <trkpt lat="45.87763" lon="4.84179">
        <ele>170</ele>
        <time>2011-06-02T07:06:07Z</time>
      </trkpt>
      <trkpt lat="45.87764" lon="4.84175">
        <ele>170</ele>
        <time>2011-06-02T07:06:08Z</time>
      </trkpt>
      <trkpt lat="45.87766" lon="4.84171">
        <ele>170</ele>
        <time>2011-06-02T07:06:09Z</time>
      </trkpt>
      <trkpt lat="45.87766" lon="4.84166">
        <ele>170</ele>
        <time>2011-06-02T07:06:10Z</time>
      </trkpt>
      <trkpt lat="45.87767" lon="4.84161">
        <ele>170</ele>
        <time>2011-06-02T07:06:11Z</time>
      </trkpt>
      <trkpt lat="45.87768" lon="4.84155">
        <ele>170</ele>
        <time>2011-06-02T07:06:12Z</time>
      </trkpt>
      <trkpt lat="45.87769" lon="4.84149">
        <ele>169</ele>
        <time>2011-06-02T07:06:13Z</time>
      </trkpt>
      <trkpt lat="45.8777" lon="4.84143">
        <ele>169</ele>
        <time>2011-06-02T07:06:14Z</time>
      </trkpt>
      <trkpt lat="45.87772" lon="4.84137">
        <ele>169</ele>
        <time>2011-06-02T07:06:15Z</time>
      </trkpt>
      <trkpt lat="45.87773" lon="4.84133">
        <ele>169</ele>
        <time>2011-06-02T07:06:15Z</time>
      </trkpt>
      <trkpt lat="45.87775" lon="4.84128">
        <ele>169</ele>
        <time>2011-06-02T07:06:17Z</time>
      </trkpt>
      <trkpt lat="45.87778" lon="4.84124">
        <ele>169</ele>
        <time>2011-06-02T07:06:18Z</time>
      </trkpt>
      <trkpt lat="45.8778" lon="4.84119">
        <ele>169</ele>
        <time>2011-06-02T07:06:19Z</time>
      </trkpt>
      <trkpt lat="45.87782" lon="4.84115">
        <ele>169</ele>
        <time>2011-06-02T07:06:20Z</time>
      </trkpt>
      <trkpt lat="45.87783" lon="4.84112">
        <ele>169</ele>
        <time>2011-06-02T07:06:21Z</time>
      </trkpt>
      <trkpt lat="45.87783" lon="4.84108">
        <ele>169</ele>
        <time>2011-06-02T07:06:22Z</time>
      </trkpt>
      <trkpt lat="45.87783" lon="4.84105">
        <ele>168</ele>
        <time>2011-06-02T07:06:23Z</time>
      </trkpt>
      <trkpt lat="45.87785" lon="4.84097">
        <ele>168</ele>
        <time>2011-06-02T07:06:25Z</time>
      </trkpt>
      <trkpt lat="45.87784" lon="4.84093">
        <ele>168</ele>
        <time>2011-06-02T07:06:26Z</time>
      </trkpt>
      <trkpt lat="45.87782" lon="4.84089">
        <ele>168</ele>
        <time>2011-06-02T07:06:27Z</time>
      </trkpt>
      <trkpt lat="45.87778" lon="4.84086">
        <ele>168</ele>
        <time>2011-06-02T07:06:28Z</time>
      </trkpt>
      <trkpt lat="45.87775" lon="4.84083">
        <ele>168</ele>
        <time>2011-06-02T07:06:29Z</time>
      </trkpt>
      <trkpt lat="45.87773" lon="4.84079">
        <ele>168</ele>
        <time>2011-06-02T07:06:30Z</time>
      </trkpt>
      <trkpt lat="45.8777" lon="4.84076">
        <ele>168</ele>
        <time>2011-06-02T07:06:31Z</time>
      </trkpt>
      <trkpt lat="45.87767" lon="4.84073">
        <ele>168</ele>
        <time>2011-06-02T07:06:32Z</time>
      </trkpt>
      <trkpt lat="45.87764" lon="4.8407">
        <ele>168</ele>
        <time>2011-06-02T07:06:33Z</time>
      </trkpt>
      <trkpt lat="45.87761" lon="4.84068">
        <ele>168</ele>
        <time>2011-06-02T07:06:34Z</time>
      </trkpt>
      <trkpt lat="45.87757" lon="4.84065">
        <ele>168</ele>
        <time>2011-06-02T07:06:35Z</time>
      </trkpt>
      <trkpt lat="45.87754" lon="4.84062">
        <ele>168</ele>
        <time>2011-06-02T07:06:36Z</time>
      </trkpt>
      <trkpt lat="45.87751" lon="4.84058">
        <ele>168</ele>
        <time>2011-06-02T07:06:37Z</time>
      </trkpt>
      <trkpt lat="45.87749" lon="4.84054">
        <ele>168</ele>
        <time>2011-06-02T07:06:38Z</time>
      </trkpt>
      <trkpt lat="45.87748" lon="4.8405">
        <ele>168</ele>
        <time>2011-06-02T07:06:39Z</time>
      </trkpt>
      <trkpt lat="45.87747" lon="4.84046">
        <ele>168</ele>
        <time>2011-06-02T07:06:40Z</time>
      </trkpt>
      <trkpt lat="45.87746" lon="4.84042">
        <ele>168</ele>
        <time>2011-06-02T07:06:41Z</time>
      </trkpt>
      <trkpt lat="45.87747" lon="4.84038">
        <ele>168</ele>
        <time>2011-06-02T07:06:42Z</time>
      </trkpt>
      <trkpt lat="45.87747" lon="4.84033">
        <ele>168</ele>
        <time>2011-06-02T07:06:43Z</time>
      </trkpt>
      <trkpt lat="45.87748" lon="4.84028">
        <ele>168</ele>
        <time>2011-06-02T07:06:44Z</time>
      </trkpt>
      <trkpt lat="45.87748" lon="4.84023">
        <ele>168</ele>
        <time>2011-06-02T07:06:45Z</time>
      </trkpt>
      <trkpt lat="45.87748" lon="4.84018">
        <ele>168</ele>
        <time>2011-06-02T07:06:46Z</time>
      </trkpt>
      <trkpt lat="45.87747" lon="4.84012">
        <ele>168</ele>
        <time>2011-06-02T07:06:47Z</time>
      </trkpt>
      <trkpt lat="45.87747" lon="4.84007">
        <ele>168</ele>
        <time>2011-06-02T07:06:48Z</time>
      </trkpt>
      <trkpt lat="45.87747" lon="4.84001">
        <ele>168</ele>
        <time>2011-06-02T07:06:49Z</time>
      </trkpt>
      <trkpt lat="45.87746" lon="4.83996">
        <ele>168</ele>
        <time>2011-06-02T07:06:50Z</time>
      </trkpt>
      <trkpt lat="45.87746" lon="4.8399">
        <ele>168</ele>
        <time>2011-06-02T07:06:51Z</time>
      </trkpt>
      <trkpt lat="45.87745" lon="4.83984">
        <ele>168</ele>
        <time>2011-06-02T07:06:52Z</time>
      </trkpt>
      <trkpt lat="45.87745" lon="4.83979">
        <ele>168</ele>
        <time>2011-06-02T07:06:53Z</time>
      </trkpt>
      <trkpt lat="45.87744" lon="4.83973">
        <ele>168</ele>
        <time>2011-06-02T07:06:54Z</time>
      </trkpt>
      <trkpt lat="45.87743" lon="4.83967">
        <ele>168</ele>
        <time>2011-06-02T07:06:55Z</time>
      </trkpt>
      <trkpt lat="45.87743" lon="4.83961">
        <ele>168</ele>
        <time>2011-06-02T07:06:56Z</time>
      </trkpt>
      <trkpt lat="45.87742" lon="4.83955">
        <ele>168</ele>
        <time>2011-06-02T07:06:57Z</time>
      </trkpt>
      <trkpt lat="45.87741" lon="4.8395">
        <ele>168</ele>
        <time>2011-06-02T07:06:58Z</time>
      </trkpt>
      <trkpt lat="45.8774" lon="4.83945">
        <ele>168</ele>
        <time>2011-06-02T07:06:59Z</time>
      </trkpt>
      <trkpt lat="45.8774" lon="4.83939">
        <ele>168</ele>
        <time>2011-06-02T07:07:00Z</time>
      </trkpt>
      <trkpt lat="45.87739" lon="4.83934">
        <ele>168</ele>
        <time>2011-06-02T07:07:01Z</time>
      </trkpt>
      <trkpt lat="45.87739" lon="4.83928">
        <ele>168</ele>
        <time>2011-06-02T07:07:02Z</time>
      </trkpt>
      <trkpt lat="45.87738" lon="4.83923">
        <ele>168</ele>
        <time>2011-06-02T07:07:03Z</time>
      </trkpt>
      <trkpt lat="45.87738" lon="4.83918">
        <ele>168</ele>
        <time>2011-06-02T07:07:04Z</time>
      </trkpt>
      <trkpt lat="45.87737" lon="4.83914">
        <ele>168</ele>
        <time>2011-06-02T07:07:05Z</time>
      </trkpt>
      <trkpt lat="45.87737" lon="4.83909">
        <ele>168</ele>
        <time>2011-06-02T07:07:06Z</time>
      </trkpt>
      <trkpt lat="45.87736" lon="4.83904">
        <ele>168</ele>
        <time>2011-06-02T07:07:07Z</time>
      </trkpt>
      <trkpt lat="45.87736" lon="4.83899">
        <ele>168</ele>
        <time>2011-06-02T07:07:08Z</time>
      </trkpt>
      <trkpt lat="45.87735" lon="4.83895">
        <ele>168</ele>
        <time>2011-06-02T07:07:09Z</time>
      </trkpt>
      <trkpt lat="45.87735" lon="4.83892">
        <ele>168</ele>
        <time>2011-06-02T07:07:10Z</time>
      </trkpt>
      <trkpt lat="45.87734" lon="4.83889">
        <ele>168</ele>
        <time>2011-06-02T07:07:11Z</time>
      </trkpt>
      <trkpt lat="45.87734" lon="4.83887">
        <ele>168</ele>
        <time>2011-06-02T07:07:12Z</time>
      </trkpt>
      <trkpt lat="45.87734" lon="4.83885">
        <ele>168</ele>
        <time>2011-06-02T07:07:13Z</time>
      </trkpt>
      <trkpt lat="45.87735" lon="4.83882">
        <ele>168</ele>
        <time>2011-06-02T07:07:14Z</time>
      </trkpt>
      <trkpt lat="45.87735" lon="4.8388">
        <ele>168</ele>
        <time>2011-06-02T07:07:15Z</time>
      </trkpt>
      <trkpt lat="45.87735" lon="4.83878">
        <ele>168</ele>
        <time>2011-06-02T07:07:16Z</time>
      </trkpt>
      <trkpt lat="45.87735" lon="4.83876">
        <ele>168</ele>
        <time>2011-06-02T07:07:17Z</time>
      </trkpt>
      <trkpt lat="45.87733" lon="4.83874">
        <ele>168</ele>
        <time>2011-06-02T07:07:19Z</time>
      </trkpt>
      <trkpt lat="45.87732" lon="4.83873">
        <ele>168</ele>
        <time>2011-06-02T07:07:21Z</time>
      </trkpt>
      <trkpt lat="45.8773" lon="4.83872">
        <ele>168</ele>
        <time>2011-06-02T07:07:22Z</time>
      </trkpt>
      <trkpt lat="45.87729" lon="4.83871">
        <ele>168</ele>
        <time>2011-06-02T07:07:23Z</time>
      </trkpt>
      <trkpt lat="45.87728" lon="4.83869">
        <ele>168</ele>
        <time>2011-06-02T07:07:24Z</time>
      </trkpt>
      <trkpt lat="45.87728" lon="4.83866">
        <ele>168</ele>
        <time>2011-06-02T07:07:25Z</time>
      </trkpt>
      <trkpt lat="45.87729" lon="4.83863">
        <ele>168</ele>
        <time>2011-06-02T07:07:26Z</time>
      </trkpt>
      <trkpt lat="45.8773" lon="4.8386">
        <ele>168</ele>
        <time>2011-06-02T07:07:27Z</time>
      </trkpt>
      <trkpt lat="45.8773" lon="4.83856">
        <ele>168</ele>
        <time>2011-06-02T07:07:27Z</time>
      </trkpt>
      <trkpt lat="45.87731" lon="4.83852">
        <ele>168</ele>
        <time>2011-06-02T07:07:29Z</time>
      </trkpt>
      <trkpt lat="45.8773" lon="4.83848">
        <ele>168</ele>
        <time>2011-06-02T07:07:30Z</time>
      </trkpt>
      <trkpt lat="45.87729" lon="4.83844">
        <ele>168</ele>
        <time>2011-06-02T07:07:31Z</time>
      </trkpt>
      <trkpt lat="45.87727" lon="4.83842">
        <ele>168</ele>
        <time>2011-06-02T07:07:32Z</time>
      </trkpt>
      <trkpt lat="45.87725" lon="4.8384">
        <ele>168</ele>
        <time>2011-06-02T07:07:33Z</time>
      </trkpt>
      <trkpt lat="45.87722" lon="4.83839">
        <ele>168</ele>
        <time>2011-06-02T07:07:34Z</time>
      </trkpt>
      <trkpt lat="45.87719" lon="4.83838">
        <ele>168</ele>
        <time>2011-06-02T07:07:35Z</time>
      </trkpt>
      <trkpt lat="45.87716" lon="4.83836">
        <ele>168</ele>
        <time>2011-06-02T07:07:35Z</time>
      </trkpt>
      <trkpt lat="45.87713" lon="4.83834">
        <ele>168</ele>
        <time>2011-06-02T07:07:37Z</time>
      </trkpt>
      <trkpt lat="45.8771" lon="4.83832">
        <ele>168</ele>
        <time>2011-06-02T07:07:38Z</time>
      </trkpt>
      <trkpt lat="45.87707" lon="4.83829">
        <ele>168</ele>
        <time>2011-06-02T07:07:39Z</time>
      </trkpt>
      <trkpt lat="45.87704" lon="4.83826">
        <ele>168</ele>
        <time>2011-06-02T07:07:40Z</time>
      </trkpt>
      <trkpt lat="45.87701" lon="4.83823">
        <ele>168</ele>
        <time>2011-06-02T07:07:41Z</time>
      </trkpt>
      <trkpt lat="45.87699" lon="4.83819">
        <ele>169</ele>
        <time>2011-06-02T07:07:42Z</time>
      </trkpt>
      <trkpt lat="45.87698" lon="4.83814">
        <ele>169</ele>
        <time>2011-06-02T07:07:43Z</time>
      </trkpt>
      <trkpt lat="45.87697" lon="4.83809">
        <ele>169</ele>
        <time>2011-06-02T07:07:44Z</time>
      </trkpt>
      <trkpt lat="45.87696" lon="4.83803">
        <ele>170</ele>
        <time>2011-06-02T07:07:45Z</time>
      </trkpt>
      <trkpt lat="45.87695" lon="4.83798">
        <ele>170</ele>
        <time>2011-06-02T07:07:46Z</time>
      </trkpt>
      <trkpt lat="45.87695" lon="4.83792">
        <ele>171</ele>
        <time>2011-06-02T07:07:47Z</time>
      </trkpt>
      <trkpt lat="45.87694" lon="4.83787">
        <ele>172</ele>
        <time>2011-06-02T07:07:48Z</time>
      </trkpt>
      <trkpt lat="45.87693" lon="4.83781">
        <ele>172</ele>
        <time>2011-06-02T07:07:49Z</time>
      </trkpt>
      <trkpt lat="45.87693" lon="4.83776">
        <ele>172</ele>
        <time>2011-06-02T07:07:50Z</time>
      </trkpt>
      <trkpt lat="45.87692" lon="4.83771">
        <ele>172</ele>
        <time>2011-06-02T07:07:50Z</time>
      </trkpt>
      <trkpt lat="45.87692" lon="4.83766">
        <ele>172</ele>
        <time>2011-06-02T07:07:52Z</time>
      </trkpt>
      <trkpt lat="45.87692" lon="4.83761">
        <ele>172</ele>
        <time>2011-06-02T07:07:53Z</time>
      </trkpt>
      <trkpt lat="45.87691" lon="4.83756">
        <ele>172</ele>
        <time>2011-06-02T07:07:54Z</time>
      </trkpt>
      <trkpt lat="45.87691" lon="4.83752">
        <ele>172</ele>
        <time>2011-06-02T07:07:55Z</time>
      </trkpt>
      <trkpt lat="45.8769" lon="4.83747">
        <ele>172</ele>
        <time>2011-06-02T07:07:56Z</time>
      </trkpt>
      <trkpt lat="45.8769" lon="4.83743">
        <ele>172</ele>
        <time>2011-06-02T07:07:57Z</time>
      </trkpt>
      <trkpt lat="45.87689" lon="4.83738">
        <ele>172</ele>
        <time>2011-06-02T07:07:58Z</time>
      </trkpt>
      <trkpt lat="45.87688" lon="4.83733">
        <ele>172</ele>
        <time>2011-06-02T07:07:58Z</time>
      </trkpt>
      <trkpt lat="45.87688" lon="4.83728">
        <ele>172</ele>
        <time>2011-06-02T07:08:00Z</time>
      </trkpt>
      <trkpt lat="45.87688" lon="4.83722">
        <ele>172</ele>
        <time>2011-06-02T07:08:01Z</time>
      </trkpt>
      <trkpt lat="45.87688" lon="4.83715">
        <ele>172</ele>
        <time>2011-06-02T07:08:02Z</time>
      </trkpt>
      <trkpt lat="45.87688" lon="4.83709">
        <ele>172</ele>
        <time>2011-06-02T07:08:03Z</time>
      </trkpt>
      <trkpt lat="45.87687" lon="4.83704">
        <ele>172</ele>
        <time>2011-06-02T07:08:04Z</time>
      </trkpt>
      <trkpt lat="45.87686" lon="4.83698">
        <ele>172</ele>
        <time>2011-06-02T07:08:05Z</time>
      </trkpt>
      <trkpt lat="45.87686" lon="4.83692">
        <ele>172</ele>
        <time>2011-06-02T07:08:06Z</time>
      </trkpt>
      <trkpt lat="45.87686" lon="4.83685">
        <ele>172</ele>
        <time>2011-06-02T07:08:07Z</time>
      </trkpt>
      <trkpt lat="45.87685" lon="4.83679">
        <ele>173</ele>
        <time>2011-06-02T07:08:08Z</time>
      </trkpt>
      <trkpt lat="45.87685" lon="4.83673">
        <ele>173</ele>
        <time>2011-06-02T07:08:09Z</time>
      </trkpt>
      <trkpt lat="45.87685" lon="4.83666">
        <ele>173</ele>
        <time>2011-06-02T07:08:10Z</time>
      </trkpt>
      <trkpt lat="45.87684" lon="4.8366">
        <ele>173</ele>
        <time>2011-06-02T07:08:11Z</time>
      </trkpt>
      <trkpt lat="45.87683" lon="4.83653">
        <ele>173</ele>
        <time>2011-06-02T07:08:12Z</time>
      </trkpt>
      <trkpt lat="45.87683" lon="4.83647">
        <ele>173</ele>
        <time>2011-06-02T07:08:13Z</time>
      </trkpt>
      <trkpt lat="45.87683" lon="4.83639">
        <ele>173</ele>
        <time>2011-06-02T07:08:14Z</time>
      </trkpt>
      <trkpt lat="45.87682" lon="4.83633">
        <ele>173</ele>
        <time>2011-06-02T07:08:15Z</time>
      </trkpt>
      <trkpt lat="45.87681" lon="4.83625">
        <ele>173</ele>
        <time>2011-06-02T07:08:16Z</time>
      </trkpt>
      <trkpt lat="45.87681" lon="4.83618">
        <ele>173</ele>
        <time>2011-06-02T07:08:17Z</time>
      </trkpt>
      <trkpt lat="45.8768" lon="4.83611">
        <ele>173</ele>
        <time>2011-06-02T07:08:18Z</time>
      </trkpt>
      <trkpt lat="45.87679" lon="4.83604">
        <ele>173</ele>
        <time>2011-06-02T07:08:19Z</time>
      </trkpt>
      <trkpt lat="45.87679" lon="4.83596">
        <ele>173</ele>
        <time>2011-06-02T07:08:20Z</time>
      </trkpt>
      <trkpt lat="45.87678" lon="4.83588">
        <ele>173</ele>
        <time>2011-06-02T07:08:21Z</time>
      </trkpt>
      <trkpt lat="45.87678" lon="4.83581">
        <ele>173</ele>
        <time>2011-06-02T07:08:22Z</time>
      </trkpt>
      <trkpt lat="45.87678" lon="4.83573">
        <ele>173</ele>
        <time>2011-06-02T07:08:23Z</time>
      </trkpt>
      <trkpt lat="45.87679" lon="4.83566">
        <ele>173</ele>
        <time>2011-06-02T07:08:24Z</time>
      </trkpt>
      <trkpt lat="45.87681" lon="4.83558">
        <ele>173</ele>
        <time>2011-06-02T07:08:25Z</time>
      </trkpt>
      <trkpt lat="45.87682" lon="4.83551">
        <ele>173</ele>
        <time>2011-06-02T07:08:26Z</time>
      </trkpt>
      <trkpt lat="45.87682" lon="4.83542">
        <ele>173</ele>
        <time>2011-06-02T07:08:27Z</time>
      </trkpt>
      <trkpt lat="45.8768" lon="4.83535">
        <ele>173</ele>
        <time>2011-06-02T07:08:28Z</time>
      </trkpt>
      <trkpt lat="45.87679" lon="4.83528">
        <ele>173</ele>
        <time>2011-06-02T07:08:29Z</time>
      </trkpt>
      <trkpt lat="45.87677" lon="4.8352">
        <ele>173</ele>
        <time>2011-06-02T07:08:30Z</time>
      </trkpt>
      <trkpt lat="45.87675" lon="4.83513">
        <ele>173</ele>
        <time>2011-06-02T07:08:31Z</time>
      </trkpt>
      <trkpt lat="45.87673" lon="4.83506">
        <ele>173</ele>
        <time>2011-06-02T07:08:32Z</time>
      </trkpt>
      <trkpt lat="45.87671" lon="4.83499">
        <ele>172</ele>
        <time>2011-06-02T07:08:33Z</time>
      </trkpt>
      <trkpt lat="45.87669" lon="4.83492">
        <ele>171</ele>
        <time>2011-06-02T07:08:34Z</time>
      </trkpt>
      <trkpt lat="45.87668" lon="4.83486">
        <ele>171</ele>
        <time>2011-06-02T07:08:35Z</time>
      </trkpt>
      <trkpt lat="45.87666" lon="4.83479">
        <ele>171</ele>
        <time>2011-06-02T07:08:36Z</time>
      </trkpt>
      <trkpt lat="45.87664" lon="4.83473">
        <ele>170</ele>
        <time>2011-06-02T07:08:37Z</time>
      </trkpt>
      <trkpt lat="45.87661" lon="4.83467">
        <ele>170</ele>
        <time>2011-06-02T07:08:38Z</time>
      </trkpt>
      <trkpt lat="45.87659" lon="4.83462">
        <ele>170</ele>
        <time>2011-06-02T07:08:39Z</time>
      </trkpt>
      <trkpt lat="45.87656" lon="4.83457">
        <ele>169</ele>
        <time>2011-06-02T07:08:40Z</time>
      </trkpt>
      <trkpt lat="45.87653" lon="4.83452">
        <ele>169</ele>
        <time>2011-06-02T07:08:41Z</time>
      </trkpt>
      <trkpt lat="45.8765" lon="4.83447">
        <ele>169</ele>
        <time>2011-06-02T07:08:42Z</time>
      </trkpt>
      <trkpt lat="45.87647" lon="4.83443">
        <ele>169</ele>
        <time>2011-06-02T07:08:43Z</time>
      </trkpt>
      <trkpt lat="45.87643" lon="4.83438">
        <ele>169</ele>
        <time>2011-06-02T07:08:44Z</time>
      </trkpt>
      <trkpt lat="45.8764" lon="4.83434">
        <ele>169</ele>
        <time>2011-06-02T07:08:45Z</time>
      </trkpt>
      <trkpt lat="45.87637" lon="4.8343">
        <ele>169</ele>
        <time>2011-06-02T07:08:46Z</time>
      </trkpt>
      <trkpt lat="45.87633" lon="4.83427">
        <ele>169</ele>
        <time>2011-06-02T07:08:47Z</time>
      </trkpt>
      <trkpt lat="45.8763" lon="4.83423">
        <ele>169</ele>
        <time>2011-06-02T07:08:48Z</time>
      </trkpt>
      <trkpt lat="45.87626" lon="4.83419">
        <ele>169</ele>
        <time>2011-06-02T07:08:49Z</time>
      </trkpt>
      <trkpt lat="45.87622" lon="4.83416">
        <ele>169</ele>
        <time>2011-06-02T07:08:50Z</time>
      </trkpt>
      <trkpt lat="45.87619" lon="4.83413">
        <ele>169</ele>
        <time>2011-06-02T07:08:51Z</time>
      </trkpt>
      <trkpt lat="45.87615" lon="4.83409">
        <ele>169</ele>
        <time>2011-06-02T07:08:52Z</time>
      </trkpt>
      <trkpt lat="45.87612" lon="4.83406">
        <ele>169</ele>
        <time>2011-06-02T07:08:53Z</time>
      </trkpt>
      <trkpt lat="45.87608" lon="4.83403">
        <ele>169</ele>
        <time>2011-06-02T07:08:54Z</time>
      </trkpt>
      <trkpt lat="45.87605" lon="4.834">
        <ele>169</ele>
        <time>2011-06-02T07:08:55Z</time>
      </trkpt>
      <trkpt lat="45.87602" lon="4.83397">
        <ele>169</ele>
        <time>2011-06-02T07:08:56Z</time>
      </trkpt>
      <trkpt lat="45.87598" lon="4.83393">
        <ele>169</ele>
        <time>2011-06-02T07:08:57Z</time>
      </trkpt>
      <trkpt lat="45.87595" lon="4.83391">
        <ele>169</ele>
        <time>2011-06-02T07:08:58Z</time>
      </trkpt>
      <trkpt lat="45.87592" lon="4.83388">
        <ele>169</ele>
        <time>2011-06-02T07:08:59Z</time>
      </trkpt>
      <trkpt lat="45.87588" lon="4.83385">
        <ele>169</ele>
        <time>2011-06-02T07:09:00Z</time>
      </trkpt>
      <trkpt lat="45.87585" lon="4.83382">
        <ele>169</ele>
        <time>2011-06-02T07:09:01Z</time>
      </trkpt>
      <trkpt lat="45.87582" lon="4.83378">
        <ele>169</ele>
        <time>2011-06-02T07:09:02Z</time>
      </trkpt>
      <trkpt lat="45.87579" lon="4.83375">
        <ele>170</ele>
        <time>2011-06-02T07:09:03Z</time>
      </trkpt>
      <trkpt lat="45.87576" lon="4.83371">
        <ele>170</ele>
        <time>2011-06-02T07:09:04Z</time>
      </trkpt>
      <trkpt lat="45.87574" lon="4.83368">
        <ele>170</ele>
        <time>2011-06-02T07:09:05Z</time>
      </trkpt>
      <trkpt lat="45.87571" lon="4.83364">
        <ele>170</ele>
        <time>2011-06-02T07:09:06Z</time>
      </trkpt>
      <trkpt lat="45.87568" lon="4.83361">
        <ele>171</ele>
        <time>2011-06-02T07:09:07Z</time>
      </trkpt>
      <trkpt lat="45.87566" lon="4.83357">
        <ele>171</ele>
        <time>2011-06-02T07:09:08Z</time>
      </trkpt>
      <trkpt lat="45.87563" lon="4.83353">
        <ele>171</ele>
        <time>2011-06-02T07:09:09Z</time>
      </trkpt>
      <trkpt lat="45.87561" lon="4.8335">
        <ele>172</ele>
        <time>2011-06-02T07:09:10Z</time>
      </trkpt>
      <trkpt lat="45.87559" lon="4.83346">
        <ele>172</ele>
        <time>2011-06-02T07:09:11Z</time>
      </trkpt>
      <trkpt lat="45.87556" lon="4.83342">
        <ele>172</ele>
        <time>2011-06-02T07:09:12Z</time>
      </trkpt>
      <trkpt lat="45.87554" lon="4.83339">
        <ele>173</ele>
        <time>2011-06-02T07:09:13Z</time>
      </trkpt>
      <trkpt lat="45.87552" lon="4.83335">
        <ele>173</ele>
        <time>2011-06-02T07:09:14Z</time>
      </trkpt>
      <trkpt lat="45.8755" lon="4.83331">
        <ele>173</ele>
        <time>2011-06-02T07:09:15Z</time>
      </trkpt>
      <trkpt lat="45.87549" lon="4.83328">
        <ele>173</ele>
        <time>2011-06-02T07:09:16Z</time>
      </trkpt>
      <trkpt lat="45.87547" lon="4.83324">
        <ele>173</ele>
        <time>2011-06-02T07:09:17Z</time>
      </trkpt>
      <trkpt lat="45.87545" lon="4.83321">
        <ele>173</ele>
        <time>2011-06-02T07:09:18Z</time>
      </trkpt>
      <trkpt lat="45.87543" lon="4.83317">
        <ele>173</ele>
        <time>2011-06-02T07:09:19Z</time>
      </trkpt>
      <trkpt lat="45.87541" lon="4.83314">
        <ele>173</ele>
        <time>2011-06-02T07:09:20Z</time>
      </trkpt>
      <trkpt lat="45.8754" lon="4.8331">
        <ele>173</ele>
        <time>2011-06-02T07:09:21Z</time>
      </trkpt>
      <trkpt lat="45.87538" lon="4.83307">
        <ele>173</ele>
        <time>2011-06-02T07:09:22Z</time>
      </trkpt>
      <trkpt lat="45.87537" lon="4.83303">
        <ele>173</ele>
        <time>2011-06-02T07:09:23Z</time>
      </trkpt>
      <trkpt lat="45.87536" lon="4.833">
        <ele>173</ele>
        <time>2011-06-02T07:09:24Z</time>
      </trkpt>
      <trkpt lat="45.87536" lon="4.83296">
        <ele>173</ele>
        <time>2011-06-02T07:09:25Z</time>
      </trkpt>
      <trkpt lat="45.87535" lon="4.83292">
        <ele>173</ele>
        <time>2011-06-02T07:09:26Z</time>
      </trkpt>
      <trkpt lat="45.87535" lon="4.83288">
        <ele>173</ele>
        <time>2011-06-02T07:09:26Z</time>
      </trkpt>
      <trkpt lat="45.87536" lon="4.83284">
        <ele>173</ele>
        <time>2011-06-02T07:09:28Z</time>
      </trkpt>
      <trkpt lat="45.87537" lon="4.83281">
        <ele>173</ele>
        <time>2011-06-02T07:09:29Z</time>
      </trkpt>
      <trkpt lat="45.87537" lon="4.83277">
        <ele>173</ele>
        <time>2011-06-02T07:09:30Z</time>
      </trkpt>
      <trkpt lat="45.87539" lon="4.83274">
        <ele>174</ele>
        <time>2011-06-02T07:09:31Z</time>
      </trkpt>
      <trkpt lat="45.8754" lon="4.83272">
        <ele>174</ele>
        <time>2011-06-02T07:09:32Z</time>
      </trkpt>
      <trkpt lat="45.87542" lon="4.83269">
        <ele>174</ele>
        <time>2011-06-02T07:09:33Z</time>
      </trkpt>
      <trkpt lat="45.87543" lon="4.83267">
        <ele>174</ele>
        <time>2011-06-02T07:09:34Z</time>
      </trkpt>
      <trkpt lat="45.87545" lon="4.83264">
        <ele>174</ele>
        <time>2011-06-02T07:09:35Z</time>
      </trkpt>
      <trkpt lat="45.87547" lon="4.83262">
        <ele>174</ele>
        <time>2011-06-02T07:09:36Z</time>
      </trkpt>
      <trkpt lat="45.87549" lon="4.83259">
        <ele>174</ele>
        <time>2011-06-02T07:09:37Z</time>
      </trkpt>
      <trkpt lat="45.87551" lon="4.83256">
        <ele>174</ele>
        <time>2011-06-02T07:09:37Z</time>
      </trkpt>
      <trkpt lat="45.87553" lon="4.83254">
        <ele>174</ele>
        <time>2011-06-02T07:09:39Z</time>
      </trkpt>
      <trkpt lat="45.87555" lon="4.83251">
        <ele>174</ele>
        <time>2011-06-02T07:09:40Z</time>
      </trkpt>
      <trkpt lat="45.87557" lon="4.83249">
        <ele>174</ele>
        <time>2011-06-02T07:09:41Z</time>
      </trkpt>
      <trkpt lat="45.87558" lon="4.83246">
        <ele>173</ele>
        <time>2011-06-02T07:09:42Z</time>
      </trkpt>
      <trkpt lat="45.8756" lon="4.83243">
        <ele>173</ele>
        <time>2011-06-02T07:09:43Z</time>
      </trkpt>
      <trkpt lat="45.87561" lon="4.83241">
        <ele>172</ele>
        <time>2011-06-02T07:09:44Z</time>
      </trkpt>
      <trkpt lat="45.87562" lon="4.83238">
        <ele>171</ele>
        <time>2011-06-02T07:09:45Z</time>
      </trkpt>
      <trkpt lat="45.87564" lon="4.83235">
        <ele>170</ele>
        <time>2011-06-02T07:09:46Z</time>
      </trkpt>
      <trkpt lat="45.87566" lon="4.83232">
        <ele>169</ele>
        <time>2011-06-02T07:09:47Z</time>
      </trkpt>
      <trkpt lat="45.87566" lon="4.83229">
        <ele>169</ele>
        <time>2011-06-02T07:09:48Z</time>
      </trkpt>
      <trkpt lat="45.87567" lon="4.83226">
        <ele>168</ele>
        <time>2011-06-02T07:09:49Z</time>
      </trkpt>
      <trkpt lat="45.87567" lon="4.83223">
        <ele>168</ele>
        <time>2011-06-02T07:09:50Z</time>
      </trkpt>
      <trkpt lat="45.87566" lon="4.8322">
        <ele>168</ele>
        <time>2011-06-02T07:09:51Z</time>
      </trkpt>
      <trkpt lat="45.87565" lon="4.83217">
        <ele>168</ele>
        <time>2011-06-02T07:09:52Z</time>
      </trkpt>
      <trkpt lat="45.87564" lon="4.83214">
        <ele>168</ele>
        <time>2011-06-02T07:09:53Z</time>
      </trkpt>
      <trkpt lat="45.87562" lon="4.83211">
        <ele>168</ele>
        <time>2011-06-02T07:09:54Z</time>
      </trkpt>
      <trkpt lat="45.87561" lon="4.83208">
        <ele>168</ele>
        <time>2011-06-02T07:09:55Z</time>
      </trkpt>
      <trkpt lat="45.8756" lon="4.83206">
        <ele>168</ele>
        <time>2011-06-02T07:09:56Z</time>
      </trkpt>
      <trkpt lat="45.87558" lon="4.83204">
        <ele>168</ele>
        <time>2011-06-02T07:09:57Z</time>
      </trkpt>
      <trkpt lat="45.87557" lon="4.83201">
        <ele>168</ele>
        <time>2011-06-02T07:09:58Z</time>
      </trkpt>
      <trkpt lat="45.87555" lon="4.83199">
        <ele>168</ele>
        <time>2011-06-02T07:09:59Z</time>
      </trkpt>
      <trkpt lat="45.87554" lon="4.83196">
        <ele>168</ele>
        <time>2011-06-02T07:10:00Z</time>
      </trkpt>
      <trkpt lat="45.87553" lon="4.83193">
        <ele>168</ele>
        <time>2011-06-02T07:10:01Z</time>
      </trkpt>
      <trkpt lat="45.87551" lon="4.8319">
        <ele>168</ele>
        <time>2011-06-02T07:10:02Z</time>
      </trkpt>
      <trkpt lat="45.8755" lon="4.83188">
        <ele>168</ele>
        <time>2011-06-02T07:10:03Z</time>
      </trkpt>
      <trkpt lat="45.87548" lon="4.83186">
        <ele>168</ele>
        <time>2011-06-02T07:10:04Z</time>
      </trkpt>
      <trkpt lat="45.87547" lon="4.83183">
        <ele>168</ele>
        <time>2011-06-02T07:10:05Z</time>
      </trkpt>
      <trkpt lat="45.87546" lon="4.83181">
        <ele>169</ele>
        <time>2011-06-02T07:10:06Z</time>
      </trkpt>
      <trkpt lat="45.87545" lon="4.83179">
        <ele>169</ele>
        <time>2011-06-02T07:10:07Z</time>
      </trkpt>
      <trkpt lat="45.87543" lon="4.83177">
        <ele>169</ele>
        <time>2011-06-02T07:10:08Z</time>
      </trkpt>
      <trkpt lat="45.87542" lon="4.83175">
        <ele>170</ele>
        <time>2011-06-02T07:10:09Z</time>
      </trkpt>
      <trkpt lat="45.8754" lon="4.83172">
        <ele>170</ele>
        <time>2011-06-02T07:10:10Z</time>
      </trkpt>
      <trkpt lat="45.87539" lon="4.8317">
        <ele>170</ele>
        <time>2011-06-02T07:10:11Z</time>
      </trkpt>
      <trkpt lat="45.87538" lon="4.83167">
        <ele>171</ele>
        <time>2011-06-02T07:10:12Z</time>
      </trkpt>
      <trkpt lat="45.87536" lon="4.83165">
        <ele>171</ele>
        <time>2011-06-02T07:10:13Z</time>
      </trkpt>
      <trkpt lat="45.87534" lon="4.83163">
        <ele>171</ele>
        <time>2011-06-02T07:10:14Z</time>
      </trkpt>
      <trkpt lat="45.87533" lon="4.83161">
        <ele>171</ele>
        <time>2011-06-02T07:10:15Z</time>
      </trkpt>
      <trkpt lat="45.87531" lon="4.83159">
        <ele>171</ele>
        <time>2011-06-02T07:10:16Z</time>
      </trkpt>
      <trkpt lat="45.87529" lon="4.83158">
        <ele>171</ele>
        <time>2011-06-02T07:10:17Z</time>
      </trkpt>
      <trkpt lat="45.87527" lon="4.83158">
        <ele>171</ele>
        <time>2011-06-02T07:10:18Z</time>
      </trkpt>
      <trkpt lat="45.87524" lon="4.83158">
        <ele>172</ele>
        <time>2011-06-02T07:10:19Z</time>
      </trkpt>
      <trkpt lat="45.87522" lon="4.83158">
        <ele>172</ele>
        <time>2011-06-02T07:10:20Z</time>
      </trkpt>
      <trkpt lat="45.8752" lon="4.83159">
        <ele>173</ele>
        <time>2011-06-02T07:10:21Z</time>
      </trkpt>
      <trkpt lat="45.87518" lon="4.8316">
        <ele>173</ele>
        <time>2011-06-02T07:10:22Z</time>
      </trkpt>
      <trkpt lat="45.87516" lon="4.83161">
        <ele>174</ele>
        <time>2011-06-02T07:10:23Z</time>
      </trkpt>
      <trkpt lat="45.87514" lon="4.83161">
        <ele>175</ele>
        <time>2011-06-02T07:10:23Z</time>
      </trkpt>
      <trkpt lat="45.87512" lon="4.83162">
        <ele>175</ele>
        <time>2011-06-02T07:10:25Z</time>
      </trkpt>
      <trkpt lat="45.8751" lon="4.83163">
        <ele>176</ele>
        <time>2011-06-02T07:10:26Z</time>
      </trkpt>
      <trkpt lat="45.87508" lon="4.83164">
        <ele>176</ele>
        <time>2011-06-02T07:10:27Z</time>
      </trkpt>
      <trkpt lat="45.87505" lon="4.83164">
        <ele>177</ele>
        <time>2011-06-02T07:10:27Z</time>
      </trkpt>
      <trkpt lat="45.87504" lon="4.83164">
        <ele>177</ele>
        <time>2011-06-02T07:10:29Z</time>
      </trkpt>
      <trkpt lat="45.87502" lon="4.83164">
        <ele>178</ele>
        <time>2011-06-02T07:10:30Z</time>
      </trkpt>
      <trkpt lat="45.87499" lon="4.83165">
        <ele>178</ele>
        <time>2011-06-02T07:10:31Z</time>
      </trkpt>
      <trkpt lat="45.87497" lon="4.83164">
        <ele>178</ele>
        <time>2011-06-02T07:10:32Z</time>
      </trkpt>
      <trkpt lat="45.87495" lon="4.83163">
        <ele>179</ele>
        <time>2011-06-02T07:10:33Z</time>
      </trkpt>
      <trkpt lat="45.87492" lon="4.83163">
        <ele>179</ele>
        <time>2011-06-02T07:10:34Z</time>
      </trkpt>
      <trkpt lat="45.87489" lon="4.83162">
        <ele>180</ele>
        <time>2011-06-02T07:10:35Z</time>
      </trkpt>
      <trkpt lat="45.87487" lon="4.83161">
        <ele>181</ele>
        <time>2011-06-02T07:10:36Z</time>
      </trkpt>
      <trkpt lat="45.87486" lon="4.83158">
        <ele>181</ele>
        <time>2011-06-02T07:10:37Z</time>
      </trkpt>
      <trkpt lat="45.87484" lon="4.83155">
        <ele>182</ele>
        <time>2011-06-02T07:10:38Z</time>
      </trkpt>
      <trkpt lat="45.87482" lon="4.83152">
        <ele>182</ele>
        <time>2011-06-02T07:10:39Z</time>
      </trkpt>
      <trkpt lat="45.87482" lon="4.83149">
        <ele>182</ele>
        <time>2011-06-02T07:10:39Z</time>
      </trkpt>
      <trkpt lat="45.87481" lon="4.83146">
        <ele>183</ele>
        <time>2011-06-02T07:10:41Z</time>
      </trkpt>
      <trkpt lat="45.8748" lon="4.83142">
        <ele>183</ele>
        <time>2011-06-02T07:10:42Z</time>
      </trkpt>
      <trkpt lat="45.8748" lon="4.83139">
        <ele>183</ele>
        <time>2011-06-02T07:10:43Z</time>
      </trkpt>
      <trkpt lat="45.8748" lon="4.83136">
        <ele>183</ele>
        <time>2011-06-02T07:10:44Z</time>
      </trkpt>
      <trkpt lat="45.87481" lon="4.83134">
        <ele>183</ele>
        <time>2011-06-02T07:10:45Z</time>
      </trkpt>
      <trkpt lat="45.87483" lon="4.8313">
        <ele>183</ele>
        <time>2011-06-02T07:10:45Z</time>
      </trkpt>
      <trkpt lat="45.87485" lon="4.83127">
        <ele>183</ele>
        <time>2011-06-02T07:10:47Z</time>
      </trkpt>
      <trkpt lat="45.87487" lon="4.83124">
        <ele>183</ele>
        <time>2011-06-02T07:10:48Z</time>
      </trkpt>
      <trkpt lat="45.87489" lon="4.83121">
        <ele>183</ele>
        <time>2011-06-02T07:10:49Z</time>
      </trkpt>
      <trkpt lat="45.87492" lon="4.83119">
        <ele>183</ele>
        <time>2011-06-02T07:10:50Z</time>
      </trkpt>
      <trkpt lat="45.87494" lon="4.83116">
        <ele>183</ele>
        <time>2011-06-02T07:10:51Z</time>
      </trkpt>
      <trkpt lat="45.87495" lon="4.83113">
        <ele>183</ele>
        <time>2011-06-02T07:10:52Z</time>
      </trkpt>
      <trkpt lat="45.87497" lon="4.83111">
        <ele>183</ele>
        <time>2011-06-02T07:10:53Z</time>
      </trkpt>
      <trkpt lat="45.875" lon="4.83108">
        <ele>183</ele>
        <time>2011-06-02T07:10:54Z</time>
      </trkpt>
      <trkpt lat="45.87501" lon="4.83105">
        <ele>183</ele>
        <time>2011-06-02T07:10:55Z</time>
      </trkpt>
      <trkpt lat="45.87503" lon="4.83102">
        <ele>182</ele>
        <time>2011-06-02T07:10:56Z</time>
      </trkpt>
      <trkpt lat="45.87505" lon="4.83099">
        <ele>181</ele>
        <time>2011-06-02T07:10:57Z</time>
      </trkpt>
      <trkpt lat="45.87507" lon="4.83096">
        <ele>181</ele>
        <time>2011-06-02T07:10:58Z</time>
      </trkpt>
      <trkpt lat="45.87509" lon="4.83093">
        <ele>181</ele>
        <time>2011-06-02T07:10:59Z</time>
      </trkpt>
      <trkpt lat="45.87511" lon="4.83091">
        <ele>180</ele>
        <time>2011-06-02T07:10:59Z</time>
      </trkpt>
      <trkpt lat="45.87513" lon="4.83088">
        <ele>180</ele>
        <time>2011-06-02T07:11:01Z</time>
      </trkpt>
      <trkpt lat="45.87514" lon="4.83085">
        <ele>180</ele>
        <time>2011-06-02T07:11:02Z</time>
      </trkpt>
      <trkpt lat="45.87516" lon="4.83083">
        <ele>180</ele>
        <time>2011-06-02T07:11:03Z</time>
      </trkpt>
      <trkpt lat="45.87517" lon="4.8308">
        <ele>180</ele>
        <time>2011-06-02T07:11:04Z</time>
      </trkpt>
      <trkpt lat="45.87518" lon="4.83077">
        <ele>180</ele>
        <time>2011-06-02T07:11:05Z</time>
      </trkpt>
      <trkpt lat="45.87519" lon="4.83074">
        <ele>180</ele>
        <time>2011-06-02T07:11:06Z</time>
      </trkpt>
      <trkpt lat="45.87521" lon="4.83071">
        <ele>180</ele>
        <time>2011-06-02T07:11:07Z</time>
      </trkpt>
      <trkpt lat="45.87522" lon="4.83068">
        <ele>180</ele>
        <time>2011-06-02T07:11:08Z</time>
      </trkpt>
      <trkpt lat="45.87523" lon="4.83065">
        <ele>180</ele>
        <time>2011-06-02T07:11:09Z</time>
      </trkpt>
      <trkpt lat="45.87524" lon="4.83062">
        <ele>180</ele>
        <time>2011-06-02T07:11:10Z</time>
      </trkpt>
      <trkpt lat="45.87525" lon="4.83059">
        <ele>180</ele>
        <time>2011-06-02T07:11:11Z</time>
      </trkpt>
      <trkpt lat="45.87526" lon="4.83056">
        <ele>180</ele>
        <time>2011-06-02T07:11:12Z</time>
      </trkpt>
      <trkpt lat="45.87527" lon="4.83054">
        <ele>180</ele>
        <time>2011-06-02T07:11:13Z</time>
      </trkpt>
      <trkpt lat="45.87527" lon="4.83051">
        <ele>180</ele>
        <time>2011-06-02T07:11:14Z</time>
      </trkpt>
      <trkpt lat="45.87528" lon="4.83049">
        <ele>180</ele>
        <time>2011-06-02T07:11:15Z</time>
      </trkpt>
      <trkpt lat="45.87528" lon="4.83046">
        <ele>180</ele>
        <time>2011-06-02T07:11:16Z</time>
      </trkpt>
      <trkpt lat="45.87528" lon="4.83043">
        <ele>180</ele>
        <time>2011-06-02T07:11:17Z</time>
      </trkpt>
      <trkpt lat="45.87528" lon="4.8304">
        <ele>181</ele>
        <time>2011-06-02T07:11:18Z</time>
      </trkpt>
      <trkpt lat="45.87529" lon="4.83036">
        <ele>181</ele>
        <time>2011-06-02T07:11:19Z</time>
      </trkpt>
      <trkpt lat="45.87529" lon="4.83033">
        <ele>182</ele>
        <time>2011-06-02T07:11:20Z</time>
      </trkpt>
      <trkpt lat="45.87529" lon="4.8303">
        <ele>183</ele>
        <time>2011-06-02T07:11:21Z</time>
      </trkpt>
      <trkpt lat="45.87529" lon="4.83027">
        <ele>184</ele>
        <time>2011-06-02T07:11:22Z</time>
      </trkpt>
      <trkpt lat="45.87529" lon="4.83023">
        <ele>184</ele>
        <time>2011-06-02T07:11:23Z</time>
      </trkpt>
      <trkpt lat="45.87529" lon="4.83019">
        <ele>184</ele>
        <time>2011-06-02T07:11:24Z</time>
      </trkpt>
      <trkpt lat="45.87528" lon="4.83015">
        <ele>185</ele>
        <time>2011-06-02T07:11:25Z</time>
      </trkpt>
      <trkpt lat="45.87528" lon="4.83012">
        <ele>185</ele>
        <time>2011-06-02T07:11:26Z</time>
      </trkpt>
      <trkpt lat="45.87528" lon="4.83008">
        <ele>185</ele>
        <time>2011-06-02T07:11:26Z</time>
      </trkpt>
      <trkpt lat="45.87528" lon="4.83005">
        <ele>185</ele>
        <time>2011-06-02T07:11:28Z</time>
      </trkpt>
      <trkpt lat="45.87527" lon="4.83001">
        <ele>185</ele>
        <time>2011-06-02T07:11:29Z</time>
      </trkpt>
      <trkpt lat="45.87527" lon="4.82998">
        <ele>185</ele>
        <time>2011-06-02T07:11:30Z</time>
      </trkpt>
      <trkpt lat="45.87526" lon="4.82994">
        <ele>185</ele>
        <time>2011-06-02T07:11:31Z</time>
      </trkpt>
      <trkpt lat="45.87525" lon="4.82991">
        <ele>185</ele>
        <time>2011-06-02T07:11:32Z</time>
      </trkpt>
      <trkpt lat="45.87525" lon="4.82989">
        <ele>185</ele>
        <time>2011-06-02T07:11:33Z</time>
      </trkpt>
      <trkpt lat="45.87524" lon="4.82985">
        <ele>185</ele>
        <time>2011-06-02T07:11:34Z</time>
      </trkpt>
      <trkpt lat="45.87523" lon="4.82982">
        <ele>185</ele>
        <time>2011-06-02T07:11:35Z</time>
      </trkpt>
      <trkpt lat="45.87522" lon="4.82978">
        <ele>185</ele>
        <time>2011-06-02T07:11:36Z</time>
      </trkpt>
      <trkpt lat="45.87521" lon="4.82975">
        <ele>186</ele>
        <time>2011-06-02T07:11:37Z</time>
      </trkpt>
      <trkpt lat="45.87521" lon="4.82972">
        <ele>186</ele>
        <time>2011-06-02T07:11:38Z</time>
      </trkpt>
      <trkpt lat="45.8752" lon="4.82969">
        <ele>186</ele>
        <time>2011-06-02T07:11:39Z</time>
      </trkpt>
      <trkpt lat="45.87519" lon="4.82966">
        <ele>186</ele>
        <time>2011-06-02T07:11:40Z</time>
      </trkpt>
      <trkpt lat="45.87518" lon="4.82963">
        <ele>186</ele>
        <time>2011-06-02T07:11:40Z</time>
      </trkpt>
      <trkpt lat="45.87518" lon="4.8296">
        <ele>186</ele>
        <time>2011-06-02T07:11:42Z</time>
      </trkpt>
      <trkpt lat="45.87517" lon="4.82957">
        <ele>187</ele>
        <time>2011-06-02T07:11:43Z</time>
      </trkpt>
      <trkpt lat="45.87516" lon="4.82954">
        <ele>188</ele>
        <time>2011-06-02T07:11:43Z</time>
      </trkpt>
      <trkpt lat="45.87515" lon="4.8295">
        <ele>189</ele>
        <time>2011-06-02T07:11:45Z</time>
      </trkpt>
      <trkpt lat="45.87514" lon="4.82947">
        <ele>190</ele>
        <time>2011-06-02T07:11:46Z</time>
      </trkpt>
      <trkpt lat="45.87513" lon="4.82944">
        <ele>191</ele>
        <time>2011-06-02T07:11:47Z</time>
      </trkpt>
      <trkpt lat="45.87512" lon="4.82941">
        <ele>192</ele>
        <time>2011-06-02T07:11:48Z</time>
      </trkpt>
      <trkpt lat="45.87511" lon="4.82939">
        <ele>193</ele>
        <time>2011-06-02T07:11:49Z</time>
      </trkpt>
      <trkpt lat="45.8751" lon="4.82936">
        <ele>193</ele>
        <time>2011-06-02T07:11:50Z</time>
      </trkpt>
      <trkpt lat="45.87509" lon="4.82933">
        <ele>194</ele>
        <time>2011-06-02T07:11:51Z</time>
      </trkpt>
      <trkpt lat="45.87508" lon="4.82931">
        <ele>195</ele>
        <time>2011-06-02T07:11:52Z</time>
      </trkpt>
      <trkpt lat="45.87507" lon="4.82928">
        <ele>195</ele>
        <time>2011-06-02T07:11:53Z</time>
      </trkpt>
      <trkpt lat="45.87506" lon="4.82925">
        <ele>196</ele>
        <time>2011-06-02T07:11:54Z</time>
      </trkpt>
      <trkpt lat="45.87505" lon="4.82922">
        <ele>197</ele>
        <time>2011-06-02T07:11:55Z</time>
      </trkpt>
      <trkpt lat="45.87504" lon="4.8292">
        <ele>197</ele>
        <time>2011-06-02T07:11:56Z</time>
      </trkpt>
      <trkpt lat="45.87503" lon="4.82917">
        <ele>197</ele>
        <time>2011-06-02T07:11:57Z</time>
      </trkpt>
      <trkpt lat="45.87502" lon="4.82914">
        <ele>198</ele>
        <time>2011-06-02T07:11:58Z</time>
      </trkpt>
      <trkpt lat="45.875" lon="4.8291">
        <ele>198</ele>
        <time>2011-06-02T07:11:59Z</time>
      </trkpt>
      <trkpt lat="45.87499" lon="4.82907">
        <ele>199</ele>
        <time>2011-06-02T07:12:00Z</time>
      </trkpt>
      <trkpt lat="45.87498" lon="4.82904">
        <ele>199</ele>
        <time>2011-06-02T07:12:01Z</time>
      </trkpt>
      <trkpt lat="45.87497" lon="4.82901">
        <ele>200</ele>
        <time>2011-06-02T07:12:02Z</time>
      </trkpt>
      <trkpt lat="45.87496" lon="4.82898">
        <ele>200</ele>
        <time>2011-06-02T07:12:03Z</time>
      </trkpt>
      <trkpt lat="45.87495" lon="4.82895">
        <ele>201</ele>
        <time>2011-06-02T07:12:04Z</time>
      </trkpt>
      <trkpt lat="45.87494" lon="4.82892">
        <ele>201</ele>
        <time>2011-06-02T07:12:05Z</time>
      </trkpt>
      <trkpt lat="45.87494" lon="4.82889">
        <ele>201</ele>
        <time>2011-06-02T07:12:06Z</time>
      </trkpt>
      <trkpt lat="45.87492" lon="4.82886">
        <ele>201</ele>
        <time>2011-06-02T07:12:07Z</time>
      </trkpt>
      <trkpt lat="45.87491" lon="4.82884">
        <ele>201</ele>
        <time>2011-06-02T07:12:08Z</time>
      </trkpt>
      <trkpt lat="45.8749" lon="4.82881">
        <ele>201</ele>
        <time>2011-06-02T07:12:09Z</time>
      </trkpt>
      <trkpt lat="45.87489" lon="4.82878">
        <ele>201</ele>
        <time>2011-06-02T07:12:10Z</time>
      </trkpt>
      <trkpt lat="45.87487" lon="4.82876">
        <ele>201</ele>
        <time>2011-06-02T07:12:11Z</time>
      </trkpt>
      <trkpt lat="45.87486" lon="4.82874">
        <ele>201</ele>
        <time>2011-06-02T07:12:12Z</time>
      </trkpt>
      <trkpt lat="45.87485" lon="4.82871">
        <ele>201</ele>
        <time>2011-06-02T07:12:13Z</time>
      </trkpt>
      <trkpt lat="45.87484" lon="4.82868">
        <ele>201</ele>
        <time>2011-06-02T07:12:14Z</time>
      </trkpt>
      <trkpt lat="45.87483" lon="4.82865">
        <ele>201</ele>
        <time>2011-06-02T07:12:15Z</time>
      </trkpt>
      <trkpt lat="45.87481" lon="4.82862">
        <ele>201</ele>
        <time>2011-06-02T07:12:15Z</time>
      </trkpt>
      <trkpt lat="45.8748" lon="4.82859">
        <ele>201</ele>
        <time>2011-06-02T07:12:17Z</time>
      </trkpt>
      <trkpt lat="45.87479" lon="4.82856">
        <ele>201</ele>
        <time>2011-06-02T07:12:18Z</time>
      </trkpt>
      <trkpt lat="45.87478" lon="4.82852">
        <ele>201</ele>
        <time>2011-06-02T07:12:19Z</time>
      </trkpt>
      <trkpt lat="45.87477" lon="4.82849">
        <ele>201</ele>
        <time>2011-06-02T07:12:20Z</time>
      </trkpt>
      <trkpt lat="45.87476" lon="4.82846">
        <ele>201</ele>
        <time>2011-06-02T07:12:21Z</time>
      </trkpt>
      <trkpt lat="45.87474" lon="4.82843">
        <ele>201</ele>
        <time>2011-06-02T07:12:22Z</time>
      </trkpt>
      <trkpt lat="45.87473" lon="4.8284">
        <ele>201</ele>
        <time>2011-06-02T07:12:23Z</time>
      </trkpt>
      <trkpt lat="45.87471" lon="4.82837">
        <ele>201</ele>
        <time>2011-06-02T07:12:24Z</time>
      </trkpt>
      <trkpt lat="45.8747" lon="4.82835">
        <ele>201</ele>
        <time>2011-06-02T07:12:25Z</time>
      </trkpt>
      <trkpt lat="45.87469" lon="4.82831">
        <ele>201</ele>
        <time>2011-06-02T07:12:26Z</time>
      </trkpt>
      <trkpt lat="45.87468" lon="4.82828">
        <ele>201</ele>
        <time>2011-06-02T07:12:27Z</time>
      </trkpt>
      <trkpt lat="45.87466" lon="4.82825">
        <ele>201</ele>
        <time>2011-06-02T07:12:28Z</time>
      </trkpt>
      <trkpt lat="45.87465" lon="4.82822">
        <ele>201</ele>
        <time>2011-06-02T07:12:29Z</time>
      </trkpt>
      <trkpt lat="45.87463" lon="4.82819">
        <ele>201</ele>
        <time>2011-06-02T07:12:30Z</time>
      </trkpt>
      <trkpt lat="45.87462" lon="4.82816">
        <ele>201</ele>
        <time>2011-06-02T07:12:31Z</time>
      </trkpt>
      <trkpt lat="45.8746" lon="4.82812">
        <ele>201</ele>
        <time>2011-06-02T07:12:32Z</time>
      </trkpt>
      <trkpt lat="45.87459" lon="4.82809">
        <ele>201</ele>
        <time>2011-06-02T07:12:33Z</time>
      </trkpt>
      <trkpt lat="45.87458" lon="4.82806">
        <ele>201</ele>
        <time>2011-06-02T07:12:34Z</time>
      </trkpt>
      <trkpt lat="45.87456" lon="4.82803">
        <ele>201</ele>
        <time>2011-06-02T07:12:35Z</time>
      </trkpt>
      <trkpt lat="45.87455" lon="4.82799">
        <ele>201</ele>
        <time>2011-06-02T07:12:36Z</time>
      </trkpt>
      <trkpt lat="45.87454" lon="4.82796">
        <ele>200</ele>
        <time>2011-06-02T07:12:37Z</time>
      </trkpt>
      <trkpt lat="45.87452" lon="4.82793">
        <ele>200</ele>
        <time>2011-06-02T07:12:38Z</time>
      </trkpt>
      <trkpt lat="45.87451" lon="4.82789">
        <ele>199</ele>
        <time>2011-06-02T07:12:39Z</time>
      </trkpt>
      <trkpt lat="45.87449" lon="4.82786">
        <ele>199</ele>
        <time>2011-06-02T07:12:40Z</time>
      </trkpt>
      <trkpt lat="45.87447" lon="4.82782">
        <ele>199</ele>
        <time>2011-06-02T07:12:41Z</time>
      </trkpt>
      <trkpt lat="45.87446" lon="4.82779">
        <ele>199</ele>
        <time>2011-06-02T07:12:42Z</time>
      </trkpt>
      <trkpt lat="45.87444" lon="4.82775">
        <ele>199</ele>
        <time>2011-06-02T07:12:43Z</time>
      </trkpt>
      <trkpt lat="45.87443" lon="4.82772">
        <ele>199</ele>
        <time>2011-06-02T07:12:43Z</time>
      </trkpt>
      <trkpt lat="45.87441" lon="4.82768">
        <ele>199</ele>
        <time>2011-06-02T07:12:45Z</time>
      </trkpt>
      <trkpt lat="45.87439" lon="4.82765">
        <ele>199</ele>
        <time>2011-06-02T07:12:46Z</time>
      </trkpt>
      <trkpt lat="45.87438" lon="4.82761">
        <ele>199</ele>
        <time>2011-06-02T07:12:47Z</time>
      </trkpt>
      <trkpt lat="45.87436" lon="4.82758">
        <ele>199</ele>
        <time>2011-06-02T07:12:48Z</time>
      </trkpt>
      <trkpt lat="45.87434" lon="4.82755">
        <ele>199</ele>
        <time>2011-06-02T07:12:49Z</time>
      </trkpt>
      <trkpt lat="45.87433" lon="4.82752">
        <ele>199</ele>
        <time>2011-06-02T07:12:50Z</time>
      </trkpt>
      <trkpt lat="45.87431" lon="4.82748">
        <ele>199</ele>
        <time>2011-06-02T07:12:51Z</time>
      </trkpt>
      <trkpt lat="45.87429" lon="4.82744">
        <ele>199</ele>
        <time>2011-06-02T07:12:52Z</time>
      </trkpt>
      <trkpt lat="45.87428" lon="4.82741">
        <ele>199</ele>
        <time>2011-06-02T07:12:53Z</time>
      </trkpt>
      <trkpt lat="45.87426" lon="4.82737">
        <ele>199</ele>
        <time>2011-06-02T07:12:54Z</time>
      </trkpt>
      <trkpt lat="45.87424" lon="4.82734">
        <ele>199</ele>
        <time>2011-06-02T07:12:55Z</time>
      </trkpt>
      <trkpt lat="45.87423" lon="4.8273">
        <ele>199</ele>
        <time>2011-06-02T07:12:56Z</time>
      </trkpt>
      <trkpt lat="45.87421" lon="4.82727">
        <ele>198</ele>
        <time>2011-06-02T07:12:57Z</time>
      </trkpt>
      <trkpt lat="45.8742" lon="4.82724">
        <ele>198</ele>
        <time>2011-06-02T07:12:58Z</time>
      </trkpt>
      <trkpt lat="45.87418" lon="4.8272">
        <ele>198</ele>
        <time>2011-06-02T07:12:59Z</time>
      </trkpt>
      <trkpt lat="45.87416" lon="4.82717">
        <ele>198</ele>
        <time>2011-06-02T07:13:00Z</time>
      </trkpt>
      <trkpt lat="45.87415" lon="4.82714">
        <ele>198</ele>
        <time>2011-06-02T07:13:01Z</time>
      </trkpt>
      <trkpt lat="45.87413" lon="4.8271">
        <ele>198</ele>
        <time>2011-06-02T07:13:02Z</time>
      </trkpt>
      <trkpt lat="45.87411" lon="4.82707">
        <ele>198</ele>
        <time>2011-06-02T07:13:03Z</time>
      </trkpt>
      <trkpt lat="45.8741" lon="4.82703">
        <ele>198</ele>
        <time>2011-06-02T07:13:04Z</time>
      </trkpt>
      <trkpt lat="45.87409" lon="4.827">
        <ele>198</ele>
        <time>2011-06-02T07:13:05Z</time>
      </trkpt>
      <trkpt lat="45.87408" lon="4.82697">
        <ele>198</ele>
        <time>2011-06-02T07:13:06Z</time>
      </trkpt>
      <trkpt lat="45.87407" lon="4.82694">
        <ele>198</ele>
        <time>2011-06-02T07:13:07Z</time>
      </trkpt>
      <trkpt lat="45.87407" lon="4.82693">
        <ele>198</ele>
        <time>2011-06-02T07:13:08Z</time>
      </trkpt>
      <trkpt lat="45.87408" lon="4.82693">
        <ele>198</ele>
        <time>2011-06-02T07:13:13Z</time>
      </trkpt>
      <trkpt lat="45.8741" lon="4.82693">
        <ele>199</ele>
        <time>2011-06-02T07:13:18Z</time>
      </trkpt>
      <trkpt lat="45.87411" lon="4.82692">
        <ele>200</ele>
        <time>2011-06-02T07:13:21Z</time>
      </trkpt>
      <trkpt lat="45.87412" lon="4.82691">
        <ele>201</ele>
        <time>2011-06-02T07:13:24Z</time>
      </trkpt>
      <trkpt lat="45.87413" lon="4.8269">
        <ele>202</ele>
        <time>2011-06-02T07:13:48Z</time>
      </trkpt>
      <trkpt lat="45.87414" lon="4.8269">
        <ele>202</ele>
        <time>2011-06-02T07:14:16Z</time>
      </trkpt>
      <trkpt lat="45.87413" lon="4.82691">
        <ele>202</ele>
        <time>2011-06-02T07:14:17Z</time>
      </trkpt>
      <trkpt lat="45.87412" lon="4.82691">
        <ele>200</ele>
        <time>2011-06-02T07:14:33Z</time>
      </trkpt>
      <trkpt lat="45.8741" lon="4.82691">
        <ele>199</ele>
        <time>2011-06-02T07:14:46Z</time>
      </trkpt>
      <trkpt lat="45.87409" lon="4.82691">
        <ele>199</ele>
        <time>2011-06-02T07:15:06Z</time>
      </trkpt>
      <trkpt lat="45.87408" lon="4.82692">
        <ele>199</ele>
        <time>2011-06-02T07:15:13Z</time>
      </trkpt>
      <trkpt lat="45.87407" lon="4.82691">
        <ele>201</ele>
        <time>2011-06-02T07:15:22Z</time>
      </trkpt>
      <trkpt lat="45.87406" lon="4.82689">
        <ele>201</ele>
        <time>2011-06-02T07:15:24Z</time>
      </trkpt>
      <trkpt lat="45.87405" lon="4.82687">
        <ele>202</ele>
        <time>2011-06-02T07:15:25Z</time>
      </trkpt>
      <trkpt lat="45.87404" lon="4.82685">
        <ele>202</ele>
        <time>2011-06-02T07:15:26Z</time>
      </trkpt>
      <trkpt lat="45.87403" lon="4.82683">
        <ele>203</ele>
        <time>2011-06-02T07:15:27Z</time>
      </trkpt>
      <trkpt lat="45.87403" lon="4.82681">
        <ele>203</ele>
        <time>2011-06-02T07:15:28Z</time>
      </trkpt>
      <trkpt lat="45.87402" lon="4.8268">
        <ele>203</ele>
        <time>2011-06-02T07:15:29Z</time>
      </trkpt>
      <trkpt lat="45.87402" lon="4.82678">
        <ele>203</ele>
        <time>2011-06-02T07:15:30Z</time>
      </trkpt>
      <trkpt lat="45.87401" lon="4.82677">
        <ele>203</ele>
        <time>2011-06-02T07:15:31Z</time>
      </trkpt>
      <trkpt lat="45.874" lon="4.82675">
        <ele>203</ele>
        <time>2011-06-02T07:15:32Z</time>
      </trkpt>
      <trkpt lat="45.87399" lon="4.82673">
        <ele>203</ele>
        <time>2011-06-02T07:15:33Z</time>
      </trkpt>
      <trkpt lat="45.87397" lon="4.82671">
        <ele>203</ele>
        <time>2011-06-02T07:15:34Z</time>
      </trkpt>
      <trkpt lat="45.87396" lon="4.82669">
        <ele>203</ele>
        <time>2011-06-02T07:15:35Z</time>
      </trkpt>
      <trkpt lat="45.87394" lon="4.82666">
        <ele>203</ele>
        <time>2011-06-02T07:15:36Z</time>
      </trkpt>
      <trkpt lat="45.87393" lon="4.82664">
        <ele>203</ele>
        <time>2011-06-02T07:15:37Z</time>
      </trkpt>
      <trkpt lat="45.87391" lon="4.82662">
        <ele>203</ele>
        <time>2011-06-02T07:15:38Z</time>
      </trkpt>
      <trkpt lat="45.87389" lon="4.8266">
        <ele>203</ele>
        <time>2011-06-02T07:15:39Z</time>
      </trkpt>
      <trkpt lat="45.87387" lon="4.82658">
        <ele>203</ele>
        <time>2011-06-02T07:15:40Z</time>
      </trkpt>
      <trkpt lat="45.87386" lon="4.82655">
        <ele>203</ele>
        <time>2011-06-02T07:15:41Z</time>
      </trkpt>
      <trkpt lat="45.87385" lon="4.82652">
        <ele>203</ele>
        <time>2011-06-02T07:15:42Z</time>
      </trkpt>
      <trkpt lat="45.87384" lon="4.82649">
        <ele>203</ele>
        <time>2011-06-02T07:15:43Z</time>
      </trkpt>
      <trkpt lat="45.87382" lon="4.82646">
        <ele>203</ele>
        <time>2011-06-02T07:15:44Z</time>
      </trkpt>
      <trkpt lat="45.8738" lon="4.82643">
        <ele>203</ele>
        <time>2011-06-02T07:15:45Z</time>
      </trkpt>
      <trkpt lat="45.87377" lon="4.8264">
        <ele>203</ele>
        <time>2011-06-02T07:15:46Z</time>
      </trkpt>
      <trkpt lat="45.87374" lon="4.82638">
        <ele>203</ele>
        <time>2011-06-02T07:15:47Z</time>
      </trkpt>
      <trkpt lat="45.87371" lon="4.82637">
        <ele>203</ele>
        <time>2011-06-02T07:15:48Z</time>
      </trkpt>
      <trkpt lat="45.87368" lon="4.82635">
        <ele>204</ele>
        <time>2011-06-02T07:15:49Z</time>
      </trkpt>
      <trkpt lat="45.87365" lon="4.82634">
        <ele>204</ele>
        <time>2011-06-02T07:15:50Z</time>
      </trkpt>
      <trkpt lat="45.87363" lon="4.82634">
        <ele>204</ele>
        <time>2011-06-02T07:15:51Z</time>
      </trkpt>
      <trkpt lat="45.8736" lon="4.82633">
        <ele>204</ele>
        <time>2011-06-02T07:15:52Z</time>
      </trkpt>
      <trkpt lat="45.87358" lon="4.82632">
        <ele>204</ele>
        <time>2011-06-02T07:15:53Z</time>
      </trkpt>
      <trkpt lat="45.87356" lon="4.82631">
        <ele>205</ele>
        <time>2011-06-02T07:15:54Z</time>
      </trkpt>
      <trkpt lat="45.87354" lon="4.82629">
        <ele>205</ele>
        <time>2011-06-02T07:15:55Z</time>
      </trkpt>
      <trkpt lat="45.87352" lon="4.82626">
        <ele>205</ele>
        <time>2011-06-02T07:15:56Z</time>
      </trkpt>
      <trkpt lat="45.87349" lon="4.82624">
        <ele>206</ele>
        <time>2011-06-02T07:15:57Z</time>
      </trkpt>
      <trkpt lat="45.87347" lon="4.82622">
        <ele>206</ele>
        <time>2011-06-02T07:15:58Z</time>
      </trkpt>
      <trkpt lat="45.87346" lon="4.82619">
        <ele>206</ele>
        <time>2011-06-02T07:15:59Z</time>
      </trkpt>
      <trkpt lat="45.87343" lon="4.82617">
        <ele>206</ele>
        <time>2011-06-02T07:16:00Z</time>
      </trkpt>
      <trkpt lat="45.87341" lon="4.82615">
        <ele>206</ele>
        <time>2011-06-02T07:16:01Z</time>
      </trkpt>
      <trkpt lat="45.87339" lon="4.82613">
        <ele>206</ele>
        <time>2011-06-02T07:16:02Z</time>
      </trkpt>
      <trkpt lat="45.87337" lon="4.8261">
        <ele>206</ele>
        <time>2011-06-02T07:16:03Z</time>
      </trkpt>
      <trkpt lat="45.87336" lon="4.82608">
        <ele>206</ele>
        <time>2011-06-02T07:16:03Z</time>
      </trkpt>
      <trkpt lat="45.87334" lon="4.82606">
        <ele>206</ele>
        <time>2011-06-02T07:16:05Z</time>
      </trkpt>
      <trkpt lat="45.87332" lon="4.82604">
        <ele>206</ele>
        <time>2011-06-02T07:16:06Z</time>
      </trkpt>
      <trkpt lat="45.8733" lon="4.82601">
        <ele>206</ele>
        <time>2011-06-02T07:16:07Z</time>
      </trkpt>
      <trkpt lat="45.87328" lon="4.82598">
        <ele>206</ele>
        <time>2011-06-02T07:16:08Z</time>
      </trkpt>
      <trkpt lat="45.87326" lon="4.82596">
        <ele>206</ele>
        <time>2011-06-02T07:16:09Z</time>
      </trkpt>
      <trkpt lat="45.87325" lon="4.82593">
        <ele>206</ele>
        <time>2011-06-02T07:16:10Z</time>
      </trkpt>
      <trkpt lat="45.87323" lon="4.82591">
        <ele>206</ele>
        <time>2011-06-02T07:16:11Z</time>
      </trkpt>
      <trkpt lat="45.87322" lon="4.82588">
        <ele>206</ele>
        <time>2011-06-02T07:16:12Z</time>
      </trkpt>
      <trkpt lat="45.8732" lon="4.82586">
        <ele>206</ele>
        <time>2011-06-02T07:16:13Z</time>
      </trkpt>
      <trkpt lat="45.87319" lon="4.82583">
        <ele>206</ele>
        <time>2011-06-02T07:16:14Z</time>
      </trkpt>
      <trkpt lat="45.87317" lon="4.82581">
        <ele>207</ele>
        <time>2011-06-02T07:16:15Z</time>
      </trkpt>
      <trkpt lat="45.87316" lon="4.82578">
        <ele>207</ele>
        <time>2011-06-02T07:16:16Z</time>
      </trkpt>
      <trkpt lat="45.87314" lon="4.82576">
        <ele>208</ele>
        <time>2011-06-02T07:16:17Z</time>
      </trkpt>
      <trkpt lat="45.87313" lon="4.82573">
        <ele>208</ele>
        <time>2011-06-02T07:16:18Z</time>
      </trkpt>
      <trkpt lat="45.87311" lon="4.82571">
        <ele>208</ele>
        <time>2011-06-02T07:16:19Z</time>
      </trkpt>
      <trkpt lat="45.8731" lon="4.82568">
        <ele>208</ele>
        <time>2011-06-02T07:16:20Z</time>
      </trkpt>
      <trkpt lat="45.87308" lon="4.82565">
        <ele>209</ele>
        <time>2011-06-02T07:16:21Z</time>
      </trkpt>
      <trkpt lat="45.87307" lon="4.82563">
        <ele>209</ele>
        <time>2011-06-02T07:16:22Z</time>
      </trkpt>
      <trkpt lat="45.87305" lon="4.82561">
        <ele>209</ele>
        <time>2011-06-02T07:16:23Z</time>
      </trkpt>
      <trkpt lat="45.87304" lon="4.82559">
        <ele>210</ele>
        <time>2011-06-02T07:16:24Z</time>
      </trkpt>
      <trkpt lat="45.87302" lon="4.82557">
        <ele>210</ele>
        <time>2011-06-02T07:16:25Z</time>
      </trkpt>
      <trkpt lat="45.87301" lon="4.82555">
        <ele>210</ele>
        <time>2011-06-02T07:16:26Z</time>
      </trkpt>
      <trkpt lat="45.87299" lon="4.82553">
        <ele>210</ele>
        <time>2011-06-02T07:16:27Z</time>
      </trkpt>
      <trkpt lat="45.87297" lon="4.82551">
        <ele>210</ele>
        <time>2011-06-02T07:16:28Z</time>
      </trkpt>
      <trkpt lat="45.87296" lon="4.82549">
        <ele>210</ele>
        <time>2011-06-02T07:16:29Z</time>
      </trkpt>
      <trkpt lat="45.87294" lon="4.82547">
        <ele>210</ele>
        <time>2011-06-02T07:16:30Z</time>
      </trkpt>
      <trkpt lat="45.87293" lon="4.82546">
        <ele>211</ele>
        <time>2011-06-02T07:16:31Z</time>
      </trkpt>
      <trkpt lat="45.87291" lon="4.82546">
        <ele>211</ele>
        <time>2011-06-02T07:16:31Z</time>
      </trkpt>
      <trkpt lat="45.8729" lon="4.82548">
        <ele>211</ele>
        <time>2011-06-02T07:16:33Z</time>
      </trkpt>
      <trkpt lat="45.87289" lon="4.8255">
        <ele>212</ele>
        <time>2011-06-02T07:16:33Z</time>
      </trkpt>
      <trkpt lat="45.87289" lon="4.82552">
        <ele>212</ele>
        <time>2011-06-02T07:16:35Z</time>
      </trkpt>
      <trkpt lat="45.87288" lon="4.82554">
        <ele>212</ele>
        <time>2011-06-02T07:16:36Z</time>
      </trkpt>
      <trkpt lat="45.87288" lon="4.82557">
        <ele>212</ele>
        <time>2011-06-02T07:16:37Z</time>
      </trkpt>
      <trkpt lat="45.87287" lon="4.82559">
        <ele>212</ele>
        <time>2011-06-02T07:16:38Z</time>
      </trkpt>
      <trkpt lat="45.87287" lon="4.82561">
        <ele>212</ele>
        <time>2011-06-02T07:16:39Z</time>
      </trkpt>
      <trkpt lat="45.87286" lon="4.82563">
        <ele>212</ele>
        <time>2011-06-02T07:16:40Z</time>
      </trkpt>
      <trkpt lat="45.87286" lon="4.82565">
        <ele>212</ele>
        <time>2011-06-02T07:16:40Z</time>
      </trkpt>
      <trkpt lat="45.87285" lon="4.82568">
        <ele>212</ele>
        <time>2011-06-02T07:16:42Z</time>
      </trkpt>
      <trkpt lat="45.87284" lon="4.8257">
        <ele>213</ele>
        <time>2011-06-02T07:16:43Z</time>
      </trkpt>
      <trkpt lat="45.87283" lon="4.82572">
        <ele>213</ele>
        <time>2011-06-02T07:16:44Z</time>
      </trkpt>
      <trkpt lat="45.87283" lon="4.82575">
        <ele>213</ele>
        <time>2011-06-02T07:16:44Z</time>
      </trkpt>
      <trkpt lat="45.87282" lon="4.82577">
        <ele>213</ele>
        <time>2011-06-02T07:16:46Z</time>
      </trkpt>
      <trkpt lat="45.87281" lon="4.82579">
        <ele>213</ele>
        <time>2011-06-02T07:16:47Z</time>
      </trkpt>
      <trkpt lat="45.8728" lon="4.82581">
        <ele>213</ele>
        <time>2011-06-02T07:16:48Z</time>
      </trkpt>
      <trkpt lat="45.8728" lon="4.82584">
        <ele>213</ele>
        <time>2011-06-02T07:16:49Z</time>
      </trkpt>
      <trkpt lat="45.87279" lon="4.82586">
        <ele>213</ele>
        <time>2011-06-02T07:16:50Z</time>
      </trkpt>
      <trkpt lat="45.87278" lon="4.82588">
        <ele>213</ele>
        <time>2011-06-02T07:16:51Z</time>
      </trkpt>
      <trkpt lat="45.87277" lon="4.8259">
        <ele>213</ele>
        <time>2011-06-02T07:16:51Z</time>
      </trkpt>
      <trkpt lat="45.87276" lon="4.82592">
        <ele>213</ele>
        <time>2011-06-02T07:16:53Z</time>
      </trkpt>
      <trkpt lat="45.87276" lon="4.82594">
        <ele>213</ele>
        <time>2011-06-02T07:16:54Z</time>
      </trkpt>
      <trkpt lat="45.87275" lon="4.82597">
        <ele>213</ele>
        <time>2011-06-02T07:16:55Z</time>
      </trkpt>
      <trkpt lat="45.87273" lon="4.82599">
        <ele>213</ele>
        <time>2011-06-02T07:16:56Z</time>
      </trkpt>
      <trkpt lat="45.87273" lon="4.82602">
        <ele>213</ele>
        <time>2011-06-02T07:16:57Z</time>
      </trkpt>
      <trkpt lat="45.87272" lon="4.82604">
        <ele>213</ele>
        <time>2011-06-02T07:16:58Z</time>
      </trkpt>
      <trkpt lat="45.87271" lon="4.82607">
        <ele>213</ele>
        <time>2011-06-02T07:16:59Z</time>
      </trkpt>
      <trkpt lat="45.87271" lon="4.82609">
        <ele>214</ele>
        <time>2011-06-02T07:17:00Z</time>
      </trkpt>
      <trkpt lat="45.8727" lon="4.82611">
        <ele>214</ele>
        <time>2011-06-02T07:17:01Z</time>
      </trkpt>
      <trkpt lat="45.87268" lon="4.82614">
        <ele>214</ele>
        <time>2011-06-02T07:17:02Z</time>
      </trkpt>
      <trkpt lat="45.87267" lon="4.82616">
        <ele>214</ele>
        <time>2011-06-02T07:17:03Z</time>
      </trkpt>
      <trkpt lat="45.87267" lon="4.82618">
        <ele>214</ele>
        <time>2011-06-02T07:17:04Z</time>
      </trkpt>
      <trkpt lat="45.87266" lon="4.8262">
        <ele>214</ele>
        <time>2011-06-02T07:17:05Z</time>
      </trkpt>
      <trkpt lat="45.87264" lon="4.82624">
        <ele>214</ele>
        <time>2011-06-02T07:17:07Z</time>
      </trkpt>
      <trkpt lat="45.87263" lon="4.82626">
        <ele>214</ele>
        <time>2011-06-02T07:17:08Z</time>
      </trkpt>
      <trkpt lat="45.87262" lon="4.82629">
        <ele>214</ele>
        <time>2011-06-02T07:17:09Z</time>
      </trkpt>
      <trkpt lat="45.87261" lon="4.82632">
        <ele>214</ele>
        <time>2011-06-02T07:17:10Z</time>
      </trkpt>
      <trkpt lat="45.8726" lon="4.82635">
        <ele>215</ele>
        <time>2011-06-02T07:17:11Z</time>
      </trkpt>
      <trkpt lat="45.87259" lon="4.82638">
        <ele>216</ele>
        <time>2011-06-02T07:17:12Z</time>
      </trkpt>
      <trkpt lat="45.87258" lon="4.82641">
        <ele>216</ele>
        <time>2011-06-02T07:17:13Z</time>
      </trkpt>
      <trkpt lat="45.87256" lon="4.82643">
        <ele>217</ele>
        <time>2011-06-02T07:17:14Z</time>
      </trkpt>
      <trkpt lat="45.87255" lon="4.82646">
        <ele>217</ele>
        <time>2011-06-02T07:17:14Z</time>
      </trkpt>
      <trkpt lat="45.87254" lon="4.82648">
        <ele>218</ele>
        <time>2011-06-02T07:17:16Z</time>
      </trkpt>
      <trkpt lat="45.87253" lon="4.8265">
        <ele>218</ele>
        <time>2011-06-02T07:17:17Z</time>
      </trkpt>
      <trkpt lat="45.87252" lon="4.82652">
        <ele>218</ele>
        <time>2011-06-02T07:17:18Z</time>
      </trkpt>
      <trkpt lat="45.87252" lon="4.82655">
        <ele>218</ele>
        <time>2011-06-02T07:17:19Z</time>
      </trkpt>
      <trkpt lat="45.87251" lon="4.82657">
        <ele>218</ele>
        <time>2011-06-02T07:17:20Z</time>
      </trkpt>
      <trkpt lat="45.8725" lon="4.82659">
        <ele>218</ele>
        <time>2011-06-02T07:17:21Z</time>
      </trkpt>
      <trkpt lat="45.87249" lon="4.82662">
        <ele>218</ele>
        <time>2011-06-02T07:17:22Z</time>
      </trkpt>
      <trkpt lat="45.87248" lon="4.82664">
        <ele>218</ele>
        <time>2011-06-02T07:17:23Z</time>
      </trkpt>
      <trkpt lat="45.87247" lon="4.82666">
        <ele>218</ele>
        <time>2011-06-02T07:17:24Z</time>
      </trkpt>
      <trkpt lat="45.87246" lon="4.82669">
        <ele>218</ele>
        <time>2011-06-02T07:17:25Z</time>
      </trkpt>
      <trkpt lat="45.87246" lon="4.82671">
        <ele>218</ele>
        <time>2011-06-02T07:17:26Z</time>
      </trkpt>
      <trkpt lat="45.87245" lon="4.82673">
        <ele>218</ele>
        <time>2011-06-02T07:17:27Z</time>
      </trkpt>
      <trkpt lat="45.87244" lon="4.82676">
        <ele>218</ele>
        <time>2011-06-02T07:17:28Z</time>
      </trkpt>
      <trkpt lat="45.87242" lon="4.82679">
        <ele>218</ele>
        <time>2011-06-02T07:17:29Z</time>
      </trkpt>
      <trkpt lat="45.87241" lon="4.82682">
        <ele>218</ele>
        <time>2011-06-02T07:17:30Z</time>
      </trkpt>
      <trkpt lat="45.87239" lon="4.82684">
        <ele>218</ele>
        <time>2011-06-02T07:17:31Z</time>
      </trkpt>
      <trkpt lat="45.87238" lon="4.82687">
        <ele>218</ele>
        <time>2011-06-02T07:17:32Z</time>
      </trkpt>
      <trkpt lat="45.87237" lon="4.82689">
        <ele>218</ele>
        <time>2011-06-02T07:17:33Z</time>
      </trkpt>
      <trkpt lat="45.87236" lon="4.82691">
        <ele>218</ele>
        <time>2011-06-02T07:17:34Z</time>
      </trkpt>
      <trkpt lat="45.87235" lon="4.82694">
        <ele>218</ele>
        <time>2011-06-02T07:17:35Z</time>
      </trkpt>
      <trkpt lat="45.87233" lon="4.82696">
        <ele>218</ele>
        <time>2011-06-02T07:17:36Z</time>
      </trkpt>
      <trkpt lat="45.87232" lon="4.82699">
        <ele>218</ele>
        <time>2011-06-02T07:17:37Z</time>
      </trkpt>
      <trkpt lat="45.87231" lon="4.82702">
        <ele>218</ele>
        <time>2011-06-02T07:17:38Z</time>
      </trkpt>
      <trkpt lat="45.87229" lon="4.82704">
        <ele>218</ele>
        <time>2011-06-02T07:17:39Z</time>
      </trkpt>
      <trkpt lat="45.87228" lon="4.82708">
        <ele>218</ele>
        <time>2011-06-02T07:17:40Z</time>
      </trkpt>
      <trkpt lat="45.87226" lon="4.82711">
        <ele>218</ele>
        <time>2011-06-02T07:17:41Z</time>
      </trkpt>
      <trkpt lat="45.87225" lon="4.82714">
        <ele>218</ele>
        <time>2011-06-02T07:17:42Z</time>
      </trkpt>
      <trkpt lat="45.87223" lon="4.82717">
        <ele>218</ele>
        <time>2011-06-02T07:17:43Z</time>
      </trkpt>
      <trkpt lat="45.87221" lon="4.8272">
        <ele>218</ele>
        <time>2011-06-02T07:17:44Z</time>
      </trkpt>
      <trkpt lat="45.8722" lon="4.82723">
        <ele>218</ele>
        <time>2011-06-02T07:17:45Z</time>
      </trkpt>
      <trkpt lat="45.87218" lon="4.82726">
        <ele>218</ele>
        <time>2011-06-02T07:17:46Z</time>
      </trkpt>
      <trkpt lat="45.87217" lon="4.82729">
        <ele>218</ele>
        <time>2011-06-02T07:17:47Z</time>
      </trkpt>
      <trkpt lat="45.87215" lon="4.82732">
        <ele>218</ele>
        <time>2011-06-02T07:17:48Z</time>
      </trkpt>
      <trkpt lat="45.87214" lon="4.82736">
        <ele>218</ele>
        <time>2011-06-02T07:17:49Z</time>
      </trkpt>
      <trkpt lat="45.87212" lon="4.8274">
        <ele>218</ele>
        <time>2011-06-02T07:17:50Z</time>
      </trkpt>
      <trkpt lat="45.8721" lon="4.82743">
        <ele>218</ele>
        <time>2011-06-02T07:17:51Z</time>
      </trkpt>
      <trkpt lat="45.87208" lon="4.82747">
        <ele>218</ele>
        <time>2011-06-02T07:17:52Z</time>
      </trkpt>
      <trkpt lat="45.87206" lon="4.82751">
        <ele>218</ele>
        <time>2011-06-02T07:17:53Z</time>
      </trkpt>
      <trkpt lat="45.87204" lon="4.82755">
        <ele>218</ele>
        <time>2011-06-02T07:17:54Z</time>
      </trkpt>
      <trkpt lat="45.87202" lon="4.82759">
        <ele>218</ele>
        <time>2011-06-02T07:17:55Z</time>
      </trkpt>
      <trkpt lat="45.872" lon="4.82763">
        <ele>218</ele>
        <time>2011-06-02T07:17:56Z</time>
      </trkpt>
      <trkpt lat="45.87198" lon="4.82766">
        <ele>218</ele>
        <time>2011-06-02T07:17:57Z</time>
      </trkpt>
      <trkpt lat="45.87196" lon="4.8277">
        <ele>218</ele>
        <time>2011-06-02T07:17:58Z</time>
      </trkpt>
      <trkpt lat="45.87194" lon="4.82774">
        <ele>218</ele>
        <time>2011-06-02T07:17:59Z</time>
      </trkpt>
      <trkpt lat="45.87192" lon="4.82778">
        <ele>218</ele>
        <time>2011-06-02T07:18:00Z</time>
      </trkpt>
      <trkpt lat="45.87191" lon="4.82781">
        <ele>218</ele>
        <time>2011-06-02T07:18:01Z</time>
      </trkpt>
      <trkpt lat="45.87188" lon="4.82785">
        <ele>218</ele>
        <time>2011-06-02T07:18:02Z</time>
      </trkpt>
      <trkpt lat="45.87187" lon="4.82789">
        <ele>218</ele>
        <time>2011-06-02T07:18:03Z</time>
      </trkpt>
      <trkpt lat="45.87185" lon="4.82792">
        <ele>218</ele>
        <time>2011-06-02T07:18:04Z</time>
      </trkpt>
      <trkpt lat="45.87183" lon="4.82796">
        <ele>218</ele>
        <time>2011-06-02T07:18:05Z</time>
      </trkpt>
      <trkpt lat="45.87181" lon="4.828">
        <ele>218</ele>
        <time>2011-06-02T07:18:06Z</time>
      </trkpt>
      <trkpt lat="45.87179" lon="4.82804">
        <ele>218</ele>
        <time>2011-06-02T07:18:07Z</time>
      </trkpt>
      <trkpt lat="45.87177" lon="4.82808">
        <ele>218</ele>
        <time>2011-06-02T07:18:07Z</time>
      </trkpt>
      <trkpt lat="45.87175" lon="4.82812">
        <ele>218</ele>
        <time>2011-06-02T07:18:09Z</time>
      </trkpt>
      <trkpt lat="45.87172" lon="4.82816">
        <ele>218</ele>
        <time>2011-06-02T07:18:10Z</time>
      </trkpt>
      <trkpt lat="45.8717" lon="4.82819">
        <ele>218</ele>
        <time>2011-06-02T07:18:11Z</time>
      </trkpt>
      <trkpt lat="45.87166" lon="4.82822">
        <ele>218</ele>
        <time>2011-06-02T07:18:12Z</time>
      </trkpt>
      <trkpt lat="45.87162" lon="4.82826">
        <ele>218</ele>
        <time>2011-06-02T07:18:13Z</time>
      </trkpt>
      <trkpt lat="45.87158" lon="4.82829">
        <ele>218</ele>
        <time>2011-06-02T07:18:14Z</time>
      </trkpt>
      <trkpt lat="45.87154" lon="4.82831">
        <ele>218</ele>
        <time>2011-06-02T07:18:15Z</time>
      </trkpt>
      <trkpt lat="45.87149" lon="4.82833">
        <ele>218</ele>
        <time>2011-06-02T07:18:16Z</time>
      </trkpt>
      <trkpt lat="45.87144" lon="4.82836">
        <ele>218</ele>
        <time>2011-06-02T07:18:17Z</time>
      </trkpt>
      <trkpt lat="45.8714" lon="4.82838">
        <ele>218</ele>
        <time>2011-06-02T07:18:18Z</time>
      </trkpt>
      <trkpt lat="45.87135" lon="4.8284">
        <ele>218</ele>
        <time>2011-06-02T07:18:19Z</time>
      </trkpt>
      <trkpt lat="45.8713" lon="4.82842">
        <ele>218</ele>
        <time>2011-06-02T07:18:20Z</time>
      </trkpt>
      <trkpt lat="45.87125" lon="4.82845">
        <ele>218</ele>
        <time>2011-06-02T07:18:21Z</time>
      </trkpt>
      <trkpt lat="45.8712" lon="4.82847">
        <ele>218</ele>
        <time>2011-06-02T07:18:22Z</time>
      </trkpt>
      <trkpt lat="45.87115" lon="4.82849">
        <ele>218</ele>
        <time>2011-06-02T07:18:23Z</time>
      </trkpt>
      <trkpt lat="45.8711" lon="4.82851">
        <ele>218</ele>
        <time>2011-06-02T07:18:24Z</time>
      </trkpt>
      <trkpt lat="45.87104" lon="4.82854">
        <ele>218</ele>
        <time>2011-06-02T07:18:25Z</time>
      </trkpt>
      <trkpt lat="45.87099" lon="4.82856">
        <ele>218</ele>
        <time>2011-06-02T07:18:26Z</time>
      </trkpt>
      <trkpt lat="45.87094" lon="4.82858">
        <ele>218</ele>
        <time>2011-06-02T07:18:27Z</time>
      </trkpt>
      <trkpt lat="45.87088" lon="4.82861">
        <ele>218</ele>
        <time>2011-06-02T07:18:28Z</time>
      </trkpt>
      <trkpt lat="45.87083" lon="4.82863">
        <ele>218</ele>
        <time>2011-06-02T07:18:29Z</time>
      </trkpt>
      <trkpt lat="45.87078" lon="4.82865">
        <ele>218</ele>
        <time>2011-06-02T07:18:30Z</time>
      </trkpt>
      <trkpt lat="45.87073" lon="4.82867">
        <ele>218</ele>
        <time>2011-06-02T07:18:31Z</time>
      </trkpt>
      <trkpt lat="45.87067" lon="4.82869">
        <ele>218</ele>
        <time>2011-06-02T07:18:31Z</time>
      </trkpt>
      <trkpt lat="45.87062" lon="4.82872">
        <ele>218</ele>
        <time>2011-06-02T07:18:33Z</time>
      </trkpt>
      <trkpt lat="45.87057" lon="4.82873">
        <ele>218</ele>
        <time>2011-06-02T07:18:34Z</time>
      </trkpt>
      <trkpt lat="45.87053" lon="4.82874">
        <ele>218</ele>
        <time>2011-06-02T07:18:35Z</time>
      </trkpt>
      <trkpt lat="45.87048" lon="4.82874">
        <ele>218</ele>
        <time>2011-06-02T07:18:36Z</time>
      </trkpt>
      <trkpt lat="45.87044" lon="4.82873">
        <ele>218</ele>
        <time>2011-06-02T07:18:37Z</time>
      </trkpt>
      <trkpt lat="45.8704" lon="4.82872">
        <ele>218</ele>
        <time>2011-06-02T07:18:38Z</time>
      </trkpt>
      <trkpt lat="45.87037" lon="4.82869">
        <ele>218</ele>
        <time>2011-06-02T07:18:39Z</time>
      </trkpt>
      <trkpt lat="45.87034" lon="4.82866">
        <ele>218</ele>
        <time>2011-06-02T07:18:40Z</time>
      </trkpt>
      <trkpt lat="45.8703" lon="4.82863">
        <ele>218</ele>
        <time>2011-06-02T07:18:40Z</time>
      </trkpt>
      <trkpt lat="45.87027" lon="4.82861">
        <ele>218</ele>
        <time>2011-06-02T07:18:42Z</time>
      </trkpt>
      <trkpt lat="45.87023" lon="4.82858">
        <ele>217</ele>
        <time>2011-06-02T07:18:43Z</time>
      </trkpt>
      <trkpt lat="45.8702" lon="4.82856">
        <ele>217</ele>
        <time>2011-06-02T07:18:44Z</time>
      </trkpt>
      <trkpt lat="45.87017" lon="4.82854">
        <ele>216</ele>
        <time>2011-06-02T07:18:45Z</time>
      </trkpt>
      <trkpt lat="45.87013" lon="4.82852">
        <ele>216</ele>
        <time>2011-06-02T07:18:46Z</time>
      </trkpt>
      <trkpt lat="45.8701" lon="4.8285">
        <ele>216</ele>
        <time>2011-06-02T07:18:47Z</time>
      </trkpt>
      <trkpt lat="45.87007" lon="4.82848">
        <ele>216</ele>
        <time>2011-06-02T07:18:48Z</time>
      </trkpt>
      <trkpt lat="45.87003" lon="4.82845">
        <ele>216</ele>
        <time>2011-06-02T07:18:49Z</time>
      </trkpt>
      <trkpt lat="45.87" lon="4.82843">
        <ele>216</ele>
        <time>2011-06-02T07:18:49Z</time>
      </trkpt>
      <trkpt lat="45.86997" lon="4.82841">
        <ele>216</ele>
        <time>2011-06-02T07:18:51Z</time>
      </trkpt>
      <trkpt lat="45.86993" lon="4.82839">
        <ele>216</ele>
        <time>2011-06-02T07:18:51Z</time>
      </trkpt>
      <trkpt lat="45.8699" lon="4.82839">
        <ele>216</ele>
        <time>2011-06-02T07:18:53Z</time>
      </trkpt>
      <trkpt lat="45.86986" lon="4.82838">
        <ele>216</ele>
        <time>2011-06-02T07:18:54Z</time>
      </trkpt>
      <trkpt lat="45.86982" lon="4.82838">
        <ele>216</ele>
        <time>2011-06-02T07:18:55Z</time>
      </trkpt>
      <trkpt lat="45.86978" lon="4.82839">
        <ele>216</ele>
        <time>2011-06-02T07:18:56Z</time>
      </trkpt>
      <trkpt lat="45.86975" lon="4.82839">
        <ele>216</ele>
        <time>2011-06-02T07:18:57Z</time>
      </trkpt>
      <trkpt lat="45.86971" lon="4.8284">
        <ele>216</ele>
        <time>2011-06-02T07:18:57Z</time>
      </trkpt>
      <trkpt lat="45.86967" lon="4.8284">
        <ele>216</ele>
        <time>2011-06-02T07:18:59Z</time>
      </trkpt>
      <trkpt lat="45.86964" lon="4.82841">
        <ele>216</ele>
        <time>2011-06-02T07:19:00Z</time>
      </trkpt>
      <trkpt lat="45.8696" lon="4.82842">
        <ele>216</ele>
        <time>2011-06-02T07:19:01Z</time>
      </trkpt>
      <trkpt lat="45.86956" lon="4.82842">
        <ele>216</ele>
        <time>2011-06-02T07:19:02Z</time>
      </trkpt>
      <trkpt lat="45.86952" lon="4.82843">
        <ele>216</ele>
        <time>2011-06-02T07:19:03Z</time>
      </trkpt>
      <trkpt lat="45.86948" lon="4.82843">
        <ele>216</ele>
        <time>2011-06-02T07:19:04Z</time>
      </trkpt>
      <trkpt lat="45.86945" lon="4.82844">
        <ele>216</ele>
        <time>2011-06-02T07:19:05Z</time>
      </trkpt>
      <trkpt lat="45.86941" lon="4.82845">
        <ele>216</ele>
        <time>2011-06-02T07:19:06Z</time>
      </trkpt>
      <trkpt lat="45.86937" lon="4.82845">
        <ele>216</ele>
        <time>2011-06-02T07:19:07Z</time>
      </trkpt>
      <trkpt lat="45.86933" lon="4.82846">
        <ele>216</ele>
        <time>2011-06-02T07:19:08Z</time>
      </trkpt>
      <trkpt lat="45.86929" lon="4.82846">
        <ele>216</ele>
        <time>2011-06-02T07:19:09Z</time>
      </trkpt>
      <trkpt lat="45.86925" lon="4.82847">
        <ele>216</ele>
        <time>2011-06-02T07:19:10Z</time>
      </trkpt>
      <trkpt lat="45.86921" lon="4.82847">
        <ele>216</ele>
        <time>2011-06-02T07:19:11Z</time>
      </trkpt>
      <trkpt lat="45.86917" lon="4.82848">
        <ele>216</ele>
        <time>2011-06-02T07:19:12Z</time>
      </trkpt>
      <trkpt lat="45.86912" lon="4.82848">
        <ele>216</ele>
        <time>2011-06-02T07:19:12Z</time>
      </trkpt>
      <trkpt lat="45.86908" lon="4.82848">
        <ele>216</ele>
        <time>2011-06-02T07:19:14Z</time>
      </trkpt>
      <trkpt lat="45.86903" lon="4.82849">
        <ele>216</ele>
        <time>2011-06-02T07:19:15Z</time>
      </trkpt>
      <trkpt lat="45.86898" lon="4.82849">
        <ele>216</ele>
        <time>2011-06-02T07:19:16Z</time>
      </trkpt>
      <trkpt lat="45.86893" lon="4.8285">
        <ele>216</ele>
        <time>2011-06-02T07:19:16Z</time>
      </trkpt>
      <trkpt lat="45.86889" lon="4.82851">
        <ele>216</ele>
        <time>2011-06-02T07:19:17Z</time>
      </trkpt>
      <trkpt lat="45.86884" lon="4.82852">
        <ele>216</ele>
        <time>2011-06-02T07:19:19Z</time>
      </trkpt>
      <trkpt lat="45.86879" lon="4.82853">
        <ele>216</ele>
        <time>2011-06-02T07:19:20Z</time>
      </trkpt>
      <trkpt lat="45.86874" lon="4.82853">
        <ele>216</ele>
        <time>2011-06-02T07:19:20Z</time>
      </trkpt>
      <trkpt lat="45.86868" lon="4.82854">
        <ele>216</ele>
        <time>2011-06-02T07:19:22Z</time>
      </trkpt>
      <trkpt lat="45.86863" lon="4.82855">
        <ele>216</ele>
        <time>2011-06-02T07:19:23Z</time>
      </trkpt>
      <trkpt lat="45.86858" lon="4.82856">
        <ele>216</ele>
        <time>2011-06-02T07:19:24Z</time>
      </trkpt>
      <trkpt lat="45.86852" lon="4.82857">
        <ele>216</ele>
        <time>2011-06-02T07:19:24Z</time>
      </trkpt>
      <trkpt lat="45.86847" lon="4.82858">
        <ele>216</ele>
        <time>2011-06-02T07:19:26Z</time>
      </trkpt>
      <trkpt lat="45.86841" lon="4.82859">
        <ele>216</ele>
        <time>2011-06-02T07:19:26Z</time>
      </trkpt>
      <trkpt lat="45.86835" lon="4.8286">
        <ele>216</ele>
        <time>2011-06-02T07:19:28Z</time>
      </trkpt>
      <trkpt lat="45.86829" lon="4.82861">
        <ele>216</ele>
        <time>2011-06-02T07:19:28Z</time>
      </trkpt>
      <trkpt lat="45.86823" lon="4.82861">
        <ele>216</ele>
        <time>2011-06-02T07:19:30Z</time>
      </trkpt>
      <trkpt lat="45.86816" lon="4.82862">
        <ele>216</ele>
        <time>2011-06-02T07:19:31Z</time>
      </trkpt>
      <trkpt lat="45.86809" lon="4.82864">
        <ele>216</ele>
        <time>2011-06-02T07:19:31Z</time>
      </trkpt>
      <trkpt lat="45.86803" lon="4.82864">
        <ele>216</ele>
        <time>2011-06-02T07:19:32Z</time>
      </trkpt>
      <trkpt lat="45.86798" lon="4.82865">
        <ele>216</ele>
        <time>2011-06-02T07:19:34Z</time>
      </trkpt>
      <trkpt lat="45.86794" lon="4.82865">
        <ele>216</ele>
        <time>2011-06-02T07:19:35Z</time>
      </trkpt>
      <trkpt lat="45.86791" lon="4.82865">
        <ele>216</ele>
        <time>2011-06-02T07:19:36Z</time>
      </trkpt>
      <trkpt lat="45.86788" lon="4.82866">
        <ele>216</ele>
        <time>2011-06-02T07:19:36Z</time>
      </trkpt>
      <trkpt lat="45.86785" lon="4.82866">
        <ele>216</ele>
        <time>2011-06-02T07:19:38Z</time>
      </trkpt>
      <trkpt lat="45.86782" lon="4.82869">
        <ele>216</ele>
        <time>2011-06-02T07:19:39Z</time>
      </trkpt>
      <trkpt lat="45.86779" lon="4.82872">
        <ele>216</ele>
        <time>2011-06-02T07:19:39Z</time>
      </trkpt>
      <trkpt lat="45.86776" lon="4.82875">
        <ele>216</ele>
        <time>2011-06-02T07:19:41Z</time>
      </trkpt>
      <trkpt lat="45.86771" lon="4.8288">
        <ele>216</ele>
        <time>2011-06-02T07:19:42Z</time>
      </trkpt>
      <trkpt lat="45.86767" lon="4.82885">
        <ele>216</ele>
        <time>2011-06-02T07:19:42Z</time>
      </trkpt>
      <trkpt lat="45.86762" lon="4.82889">
        <ele>216</ele>
        <time>2011-06-02T07:19:43Z</time>
      </trkpt>
      <trkpt lat="45.86757" lon="4.82892">
        <ele>216</ele>
        <time>2011-06-02T07:19:45Z</time>
      </trkpt>
      <trkpt lat="45.86752" lon="4.82895">
        <ele>216</ele>
        <time>2011-06-02T07:19:46Z</time>
      </trkpt>
      <trkpt lat="45.86748" lon="4.82896">
        <ele>216</ele>
        <time>2011-06-02T07:19:47Z</time>
      </trkpt>
      <trkpt lat="45.86745" lon="4.82898">
        <ele>216</ele>
        <time>2011-06-02T07:19:47Z</time>
      </trkpt>
      <trkpt lat="45.86741" lon="4.82898">
        <ele>216</ele>
        <time>2011-06-02T07:19:48Z</time>
      </trkpt>
      <trkpt lat="45.86739" lon="4.82896">
        <ele>216</ele>
        <time>2011-06-02T07:19:49Z</time>
      </trkpt>
      <trkpt lat="45.86736" lon="4.82892">
        <ele>216</ele>
        <time>2011-06-02T07:19:51Z</time>
      </trkpt>
      <trkpt lat="45.86735" lon="4.82888">
        <ele>216</ele>
        <time>2011-06-02T07:19:52Z</time>
      </trkpt>
      <trkpt lat="45.86734" lon="4.82884">
        <ele>216</ele>
        <time>2011-06-02T07:19:53Z</time>
      </trkpt>
      <trkpt lat="45.86734" lon="4.8288">
        <ele>215</ele>
        <time>2011-06-02T07:19:54Z</time>
      </trkpt>
      <trkpt lat="45.86735" lon="4.82876">
        <ele>214</ele>
        <time>2011-06-02T07:19:55Z</time>
      </trkpt>
      <trkpt lat="45.86734" lon="4.82873">
        <ele>214</ele>
        <time>2011-06-02T07:19:55Z</time>
      </trkpt>
      <trkpt lat="45.86734" lon="4.82868">
        <ele>213</ele>
        <time>2011-06-02T07:19:56Z</time>
      </trkpt>
      <trkpt lat="45.86734" lon="4.82864">
        <ele>213</ele>
        <time>2011-06-02T07:19:58Z</time>
      </trkpt>
      <trkpt lat="45.86734" lon="4.82859">
        <ele>213</ele>
        <time>2011-06-02T07:19:59Z</time>
      </trkpt>
      <trkpt lat="45.86734" lon="4.82854">
        <ele>213</ele>
        <time>2011-06-02T07:20:00Z</time>
      </trkpt>
      <trkpt lat="45.86734" lon="4.8285">
        <ele>212</ele>
        <time>2011-06-02T07:20:01Z</time>
      </trkpt>
      <trkpt lat="45.86734" lon="4.82845">
        <ele>212</ele>
        <time>2011-06-02T07:20:02Z</time>
      </trkpt>
      <trkpt lat="45.86734" lon="4.82841">
        <ele>212</ele>
        <time>2011-06-02T07:20:03Z</time>
      </trkpt>
      <trkpt lat="45.86734" lon="4.82837">
        <ele>211</ele>
        <time>2011-06-02T07:20:03Z</time>
      </trkpt>
      <trkpt lat="45.86734" lon="4.82832">
        <ele>210</ele>
        <time>2011-06-02T07:20:04Z</time>
      </trkpt>
      <trkpt lat="45.86734" lon="4.82827">
        <ele>209</ele>
        <time>2011-06-02T07:20:06Z</time>
      </trkpt>
      <trkpt lat="45.86734" lon="4.82822">
        <ele>208</ele>
        <time>2011-06-02T07:20:07Z</time>
      </trkpt>
      <trkpt lat="45.86734" lon="4.82817">
        <ele>207</ele>
        <time>2011-06-02T07:20:07Z</time>
      </trkpt>
      <trkpt lat="45.86734" lon="4.82813">
        <ele>206</ele>
        <time>2011-06-02T07:20:09Z</time>
      </trkpt>
      <trkpt lat="45.86733" lon="4.8281">
        <ele>205</ele>
        <time>2011-06-02T07:20:10Z</time>
      </trkpt>
      <trkpt lat="45.86732" lon="4.82806">
        <ele>204</ele>
        <time>2011-06-02T07:20:10Z</time>
      </trkpt>
      <trkpt lat="45.86732" lon="4.82802">
        <ele>203</ele>
        <time>2011-06-02T07:20:11Z</time>
      </trkpt>
      <trkpt lat="45.86731" lon="4.82798">
        <ele>202</ele>
        <time>2011-06-02T07:20:12Z</time>
      </trkpt>
      <trkpt lat="45.8673" lon="4.82794">
        <ele>202</ele>
        <time>2011-06-02T07:20:14Z</time>
      </trkpt>
      <trkpt lat="45.86729" lon="4.8279">
        <ele>202</ele>
        <time>2011-06-02T07:20:14Z</time>
      </trkpt>
      <trkpt lat="45.86727" lon="4.82787">
        <ele>202</ele>
        <time>2011-06-02T07:20:15Z</time>
      </trkpt>
      <trkpt lat="45.86726" lon="4.82783">
        <ele>202</ele>
        <time>2011-06-02T07:20:16Z</time>
      </trkpt>
      <trkpt lat="45.86725" lon="4.8278">
        <ele>202</ele>
        <time>2011-06-02T07:20:18Z</time>
      </trkpt>
      <trkpt lat="45.86723" lon="4.82778">
        <ele>202</ele>
        <time>2011-06-02T07:20:19Z</time>
      </trkpt>
      <trkpt lat="45.86721" lon="4.82775">
        <ele>202</ele>
        <time>2011-06-02T07:20:20Z</time>
      </trkpt>
      <trkpt lat="45.86718" lon="4.82774">
        <ele>202</ele>
        <time>2011-06-02T07:20:20Z</time>
      </trkpt>
      <trkpt lat="45.86715" lon="4.82772">
        <ele>202</ele>
        <time>2011-06-02T07:20:22Z</time>
      </trkpt>
      <trkpt lat="45.86713" lon="4.8277">
        <ele>202</ele>
        <time>2011-06-02T07:20:23Z</time>
      </trkpt>
      <trkpt lat="45.86711" lon="4.82767">
        <ele>202</ele>
        <time>2011-06-02T07:20:24Z</time>
      </trkpt>
      <trkpt lat="45.8671" lon="4.82764">
        <ele>202</ele>
        <time>2011-06-02T07:20:24Z</time>
      </trkpt>
      <trkpt lat="45.86708" lon="4.82761">
        <ele>202</ele>
        <time>2011-06-02T07:20:26Z</time>
      </trkpt>
      <trkpt lat="45.86706" lon="4.82758">
        <ele>202</ele>
        <time>2011-06-02T07:20:27Z</time>
      </trkpt>
      <trkpt lat="45.86704" lon="4.82756">
        <ele>202</ele>
        <time>2011-06-02T07:20:28Z</time>
      </trkpt>
      <trkpt lat="45.86702" lon="4.82753">
        <ele>202</ele>
        <time>2011-06-02T07:20:28Z</time>
      </trkpt>
      <trkpt lat="45.86701" lon="4.82751">
        <ele>202</ele>
        <time>2011-06-02T07:20:30Z</time>
      </trkpt>
      <trkpt lat="45.86699" lon="4.82748">
        <ele>203</ele>
        <time>2011-06-02T07:20:31Z</time>
      </trkpt>
      <trkpt lat="45.86697" lon="4.82746">
        <ele>203</ele>
        <time>2011-06-02T07:20:32Z</time>
      </trkpt>
      <trkpt lat="45.86696" lon="4.82744">
        <ele>203</ele>
        <time>2011-06-02T07:20:33Z</time>
      </trkpt>
      <trkpt lat="45.86695" lon="4.82741">
        <ele>204</ele>
        <time>2011-06-02T07:20:34Z</time>
      </trkpt>
      <trkpt lat="45.86694" lon="4.82739">
        <ele>204</ele>
        <time>2011-06-02T07:20:35Z</time>
      </trkpt>
      <trkpt lat="45.86693" lon="4.82736">
        <ele>204</ele>
        <time>2011-06-02T07:20:35Z</time>
      </trkpt>
      <trkpt lat="45.86692" lon="4.82734">
        <ele>204</ele>
        <time>2011-06-02T07:20:36Z</time>
      </trkpt>
      <trkpt lat="45.86691" lon="4.82732">
        <ele>205</ele>
        <time>2011-06-02T07:20:38Z</time>
      </trkpt>
      <trkpt lat="45.86689" lon="4.8273">
        <ele>205</ele>
        <time>2011-06-02T07:20:39Z</time>
      </trkpt>
      <trkpt lat="45.86688" lon="4.82728">
        <ele>205</ele>
        <time>2011-06-02T07:20:40Z</time>
      </trkpt>
      <trkpt lat="45.86687" lon="4.82725">
        <ele>205</ele>
        <time>2011-06-02T07:20:40Z</time>
      </trkpt>
      <trkpt lat="45.86686" lon="4.82723">
        <ele>205</ele>
        <time>2011-06-02T07:20:41Z</time>
      </trkpt>
      <trkpt lat="45.86684" lon="4.82721">
        <ele>205</ele>
        <time>2011-06-02T07:20:43Z</time>
      </trkpt>
      <trkpt lat="45.86683" lon="4.82719">
        <ele>205</ele>
        <time>2011-06-02T07:20:43Z</time>
      </trkpt>
      <trkpt lat="45.86682" lon="4.82717">
        <ele>205</ele>
        <time>2011-06-02T07:20:44Z</time>
      </trkpt>
      <trkpt lat="45.86681" lon="4.82715">
        <ele>205</ele>
        <time>2011-06-02T07:20:46Z</time>
      </trkpt>
      <trkpt lat="45.86679" lon="4.82712">
        <ele>205</ele>
        <time>2011-06-02T07:20:47Z</time>
      </trkpt>
      <trkpt lat="45.86678" lon="4.8271">
        <ele>205</ele>
        <time>2011-06-02T07:20:48Z</time>
      </trkpt>
      <trkpt lat="45.86677" lon="4.82708">
        <ele>206</ele>
        <time>2011-06-02T07:20:49Z</time>
      </trkpt>
      <trkpt lat="45.86675" lon="4.82706">
        <ele>206</ele>
        <time>2011-06-02T07:20:50Z</time>
      </trkpt>
      <trkpt lat="45.86674" lon="4.82704">
        <ele>206</ele>
        <time>2011-06-02T07:20:51Z</time>
      </trkpt>
      <trkpt lat="45.86673" lon="4.82702">
        <ele>206</ele>
        <time>2011-06-02T07:20:51Z</time>
      </trkpt>
      <trkpt lat="45.86672" lon="4.827">
        <ele>207</ele>
        <time>2011-06-02T07:20:52Z</time>
      </trkpt>
      <trkpt lat="45.86671" lon="4.82698">
        <ele>207</ele>
        <time>2011-06-02T07:20:53Z</time>
      </trkpt>
      <trkpt lat="45.8667" lon="4.82697">
        <ele>207</ele>
        <time>2011-06-02T07:20:55Z</time>
      </trkpt>
      <trkpt lat="45.86668" lon="4.82695">
        <ele>207</ele>
        <time>2011-06-02T07:20:56Z</time>
      </trkpt>
      <trkpt lat="45.86668" lon="4.82693">
        <ele>208</ele>
        <time>2011-06-02T07:20:57Z</time>
      </trkpt>
      <trkpt lat="45.86666" lon="4.82691">
        <ele>208</ele>
        <time>2011-06-02T07:20:57Z</time>
      </trkpt>
      <trkpt lat="45.86665" lon="4.8269">
        <ele>209</ele>
        <time>2011-06-02T07:20:59Z</time>
      </trkpt>
      <trkpt lat="45.86664" lon="4.82688">
        <ele>209</ele>
        <time>2011-06-02T07:21:00Z</time>
      </trkpt>
      <trkpt lat="45.86663" lon="4.82686">
        <ele>210</ele>
        <time>2011-06-02T07:21:00Z</time>
      </trkpt>
      <trkpt lat="45.86662" lon="4.82685">
        <ele>210</ele>
        <time>2011-06-02T07:21:02Z</time>
      </trkpt>
      <trkpt lat="45.8666" lon="4.82683">
        <ele>211</ele>
        <time>2011-06-02T07:21:03Z</time>
      </trkpt>
      <trkpt lat="45.86659" lon="4.82682">
        <ele>211</ele>
        <time>2011-06-02T07:21:03Z</time>
      </trkpt>
      <trkpt lat="45.86657" lon="4.8268">
        <ele>211</ele>
        <time>2011-06-02T07:21:04Z</time>
      </trkpt>
      <trkpt lat="45.86656" lon="4.8268">
        <ele>211</ele>
        <time>2011-06-02T07:21:06Z</time>
      </trkpt>
      <trkpt lat="45.86654" lon="4.82679">
        <ele>211</ele>
        <time>2011-06-02T07:21:07Z</time>
      </trkpt>
      <trkpt lat="45.86652" lon="4.82679">
        <ele>211</ele>
        <time>2011-06-02T07:21:08Z</time>
      </trkpt>
      <trkpt lat="45.86651" lon="4.8268">
        <ele>211</ele>
        <time>2011-06-02T07:21:10Z</time>
      </trkpt>
      <trkpt lat="45.86649" lon="4.8268">
        <ele>211</ele>
        <time>2011-06-02T07:21:11Z</time>
      </trkpt>
      <trkpt lat="45.86648" lon="4.82681">
        <ele>211</ele>
        <time>2011-06-02T07:21:12Z</time>
      </trkpt>
      <trkpt lat="45.86647" lon="4.82682">
        <ele>211</ele>
        <time>2011-06-02T07:21:12Z</time>
      </trkpt>
      <trkpt lat="45.86646" lon="4.82683">
        <ele>211</ele>
        <time>2011-06-02T07:21:14Z</time>
      </trkpt>
      <trkpt lat="45.86644" lon="4.82685">
        <ele>211</ele>
        <time>2011-06-02T07:21:15Z</time>
      </trkpt>
      <trkpt lat="45.86642" lon="4.82687">
        <ele>211</ele>
        <time>2011-06-02T07:21:18Z</time>
      </trkpt>
      <trkpt lat="45.86641" lon="4.82687">
        <ele>211</ele>
        <time>2011-06-02T07:21:19Z</time>
      </trkpt>
      <trkpt lat="45.8664" lon="4.82688">
        <ele>212</ele>
        <time>2011-06-02T07:21:20Z</time>
      </trkpt>
      <trkpt lat="45.86638" lon="4.82689">
        <ele>212</ele>
        <time>2011-06-02T07:21:20Z</time>
      </trkpt>
      <trkpt lat="45.86637" lon="4.8269">
        <ele>213</ele>
        <time>2011-06-02T07:21:22Z</time>
      </trkpt>
      <trkpt lat="45.86635" lon="4.82691">
        <ele>213</ele>
        <time>2011-06-02T07:21:23Z</time>
      </trkpt>
      <trkpt lat="45.86634" lon="4.82692">
        <ele>213</ele>
        <time>2011-06-02T07:21:23Z</time>
      </trkpt>
      <trkpt lat="45.86632" lon="4.82693">
        <ele>213</ele>
        <time>2011-06-02T07:21:24Z</time>
      </trkpt>
      <trkpt lat="45.86631" lon="4.82695">
        <ele>214</ele>
        <time>2011-06-02T07:21:26Z</time>
      </trkpt>
      <trkpt lat="45.86629" lon="4.82696">
        <ele>214</ele>
        <time>2011-06-02T07:21:27Z</time>
      </trkpt>
      <trkpt lat="45.86627" lon="4.82697">
        <ele>214</ele>
        <time>2011-06-02T07:21:27Z</time>
      </trkpt>
      <trkpt lat="45.86626" lon="4.82699">
        <ele>214</ele>
        <time>2011-06-02T07:21:28Z</time>
      </trkpt>
      <trkpt lat="45.86624" lon="4.827">
        <ele>214</ele>
        <time>2011-06-02T07:21:29Z</time>
      </trkpt>
      <trkpt lat="45.86622" lon="4.82701">
        <ele>214</ele>
        <time>2011-06-02T07:21:31Z</time>
      </trkpt>
      <trkpt lat="45.86621" lon="4.82702">
        <ele>214</ele>
        <time>2011-06-02T07:21:31Z</time>
      </trkpt>
      <trkpt lat="45.86619" lon="4.82703">
        <ele>215</ele>
        <time>2011-06-02T07:21:32Z</time>
      </trkpt>
      <trkpt lat="45.86618" lon="4.82705">
        <ele>215</ele>
        <time>2011-06-02T07:21:33Z</time>
      </trkpt>
      <trkpt lat="45.86616" lon="4.82706">
        <ele>216</ele>
        <time>2011-06-02T07:21:35Z</time>
      </trkpt>
      <trkpt lat="45.86614" lon="4.82706">
        <ele>216</ele>
        <time>2011-06-02T07:21:36Z</time>
      </trkpt>
      <trkpt lat="45.86612" lon="4.82706">
        <ele>217</ele>
        <time>2011-06-02T07:21:36Z</time>
      </trkpt>
      <trkpt lat="45.8661" lon="4.82706">
        <ele>217</ele>
        <time>2011-06-02T07:21:38Z</time>
      </trkpt>
      <trkpt lat="45.86608" lon="4.82706">
        <ele>218</ele>
        <time>2011-06-02T07:21:39Z</time>
      </trkpt>
      <trkpt lat="45.86606" lon="4.82707">
        <ele>218</ele>
        <time>2011-06-02T07:21:39Z</time>
      </trkpt>
      <trkpt lat="45.86604" lon="4.82707">
        <ele>218</ele>
        <time>2011-06-02T07:21:40Z</time>
      </trkpt>
      <trkpt lat="45.86602" lon="4.82707">
        <ele>218</ele>
        <time>2011-06-02T07:21:42Z</time>
      </trkpt>
      <trkpt lat="45.86601" lon="4.82706">
        <ele>218</ele>
        <time>2011-06-02T07:21:42Z</time>
      </trkpt>
      <trkpt lat="45.86599" lon="4.82706">
        <ele>218</ele>
        <time>2011-06-02T07:21:43Z</time>
      </trkpt>
      <trkpt lat="45.86597" lon="4.82706">
        <ele>218</ele>
        <time>2011-06-02T07:21:44Z</time>
      </trkpt>
      <trkpt lat="45.86596" lon="4.82705">
        <ele>218</ele>
        <time>2011-06-02T07:21:46Z</time>
      </trkpt>
      <trkpt lat="45.86594" lon="4.82705">
        <ele>218</ele>
        <time>2011-06-02T07:21:47Z</time>
      </trkpt>
      <trkpt lat="45.86592" lon="4.82705">
        <ele>218</ele>
        <time>2011-06-02T07:21:47Z</time>
      </trkpt>
      <trkpt lat="45.86591" lon="4.82704">
        <ele>218</ele>
        <time>2011-06-02T07:21:48Z</time>
      </trkpt>
      <trkpt lat="45.86589" lon="4.82704">
        <ele>218</ele>
        <time>2011-06-02T07:21:50Z</time>
      </trkpt>
      <trkpt lat="45.86587" lon="4.82705">
        <ele>218</ele>
        <time>2011-06-02T07:21:51Z</time>
      </trkpt>
      <trkpt lat="45.86585" lon="4.82704">
        <ele>218</ele>
        <time>2011-06-02T07:21:51Z</time>
      </trkpt>
      <trkpt lat="45.86584" lon="4.82704">
        <ele>218</ele>
        <time>2011-06-02T07:21:52Z</time>
      </trkpt>
      <trkpt lat="45.86582" lon="4.82704">
        <ele>218</ele>
        <time>2011-06-02T07:21:54Z</time>
      </trkpt>
      <trkpt lat="45.8658" lon="4.82704">
        <ele>218</ele>
        <time>2011-06-02T07:21:55Z</time>
      </trkpt>
      <trkpt lat="45.86578" lon="4.82704">
        <ele>218</ele>
        <time>2011-06-02T07:21:55Z</time>
      </trkpt>
      <trkpt lat="45.86577" lon="4.82704">
        <ele>218</ele>
        <time>2011-06-02T07:21:56Z</time>
      </trkpt>
      <trkpt lat="45.86575" lon="4.82704">
        <ele>218</ele>
        <time>2011-06-02T07:21:58Z</time>
      </trkpt>
      <trkpt lat="45.86572" lon="4.82704">
        <ele>218</ele>
        <time>2011-06-02T07:21:58Z</time>
      </trkpt>
      <trkpt lat="45.8657" lon="4.82704">
        <ele>218</ele>
        <time>2011-06-02T07:21:59Z</time>
      </trkpt>
      <trkpt lat="45.86568" lon="4.82704">
        <ele>218</ele>
        <time>2011-06-02T07:22:00Z</time>
      </trkpt>
      <trkpt lat="45.86565" lon="4.82703">
        <ele>218</ele>
        <time>2011-06-02T07:22:02Z</time>
      </trkpt>
      <trkpt lat="45.86563" lon="4.82703">
        <ele>218</ele>
        <time>2011-06-02T07:22:03Z</time>
      </trkpt>
      <trkpt lat="45.86561" lon="4.82702">
        <ele>218</ele>
        <time>2011-06-02T07:22:03Z</time>
      </trkpt>
      <trkpt lat="45.86559" lon="4.82702">
        <ele>218</ele>
        <time>2011-06-02T07:22:04Z</time>
      </trkpt>
      <trkpt lat="45.86557" lon="4.82702">
        <ele>218</ele>
        <time>2011-06-02T07:22:06Z</time>
      </trkpt>
      <trkpt lat="45.86555" lon="4.82702">
        <ele>218</ele>
        <time>2011-06-02T07:22:07Z</time>
      </trkpt>
      <trkpt lat="45.86554" lon="4.82701">
        <ele>218</ele>
        <time>2011-06-02T07:22:07Z</time>
      </trkpt>
      <trkpt lat="45.86553" lon="4.82702">
        <ele>218</ele>
        <time>2011-06-02T07:22:08Z</time>
      </trkpt>
      <trkpt lat="45.86551" lon="4.82702">
        <ele>218</ele>
        <time>2011-06-02T07:22:10Z</time>
      </trkpt>
      <trkpt lat="45.86549" lon="4.82702">
        <ele>218</ele>
        <time>2011-06-02T07:22:12Z</time>
      </trkpt>
      <trkpt lat="45.86546" lon="4.82702">
        <ele>218</ele>
        <time>2011-06-02T07:22:14Z</time>
      </trkpt>
      <trkpt lat="45.86545" lon="4.82702">
        <ele>218</ele>
        <time>2011-06-02T07:22:14Z</time>
      </trkpt>
      <trkpt lat="45.86544" lon="4.82702">
        <ele>218</ele>
        <time>2011-06-02T07:22:16Z</time>
      </trkpt>
      <trkpt lat="45.86542" lon="4.82702">
        <ele>218</ele>
        <time>2011-06-02T07:22:17Z</time>
      </trkpt>
      <trkpt lat="45.86541" lon="4.82702">
        <ele>218</ele>
        <time>2011-06-02T07:22:18Z</time>
      </trkpt>
      <trkpt lat="45.86539" lon="4.82703">
        <ele>218</ele>
        <time>2011-06-02T07:22:18Z</time>
      </trkpt>
      <trkpt lat="45.86538" lon="4.82703">
        <ele>218</ele>
        <time>2011-06-02T07:22:20Z</time>
      </trkpt>
      <trkpt lat="45.86536" lon="4.82703">
        <ele>218</ele>
        <time>2011-06-02T07:22:21Z</time>
      </trkpt>
      <trkpt lat="45.86535" lon="4.82703">
        <ele>218</ele>
        <time>2011-06-02T07:22:22Z</time>
      </trkpt>
      <trkpt lat="45.86533" lon="4.82704">
        <ele>218</ele>
        <time>2011-06-02T07:22:22Z</time>
      </trkpt>
      <trkpt lat="45.86532" lon="4.82704">
        <ele>218</ele>
        <time>2011-06-02T07:22:23Z</time>
      </trkpt>
      <trkpt lat="45.86531" lon="4.82704">
        <ele>218</ele>
        <time>2011-06-02T07:22:24Z</time>
      </trkpt>
      <trkpt lat="45.86529" lon="4.82705">
        <ele>218</ele>
        <time>2011-06-02T07:22:26Z</time>
      </trkpt>
      <trkpt lat="45.86528" lon="4.82705">
        <ele>218</ele>
        <time>2011-06-02T07:22:26Z</time>
      </trkpt>
      <trkpt lat="45.86526" lon="4.82706">
        <ele>218</ele>
        <time>2011-06-02T07:22:28Z</time>
      </trkpt>
      <trkpt lat="45.86525" lon="4.82705">
        <ele>218</ele>
        <time>2011-06-02T07:22:30Z</time>
      </trkpt>
      <trkpt lat="45.86523" lon="4.82705">
        <ele>218</ele>
        <time>2011-06-02T07:22:31Z</time>
      </trkpt>
      <trkpt lat="45.86522" lon="4.82706">
        <ele>218</ele>
        <time>2011-06-02T07:22:31Z</time>
      </trkpt>
      <trkpt lat="45.8652" lon="4.82706">
        <ele>218</ele>
        <time>2011-06-02T07:22:33Z</time>
      </trkpt>
      <trkpt lat="45.86519" lon="4.82705">
        <ele>218</ele>
        <time>2011-06-02T07:22:34Z</time>
      </trkpt>
      <trkpt lat="45.86517" lon="4.82705">
        <ele>218</ele>
        <time>2011-06-02T07:22:35Z</time>
      </trkpt>
      <trkpt lat="45.86516" lon="4.82705">
        <ele>219</ele>
        <time>2011-06-02T07:22:36Z</time>
      </trkpt>
      <trkpt lat="45.86515" lon="4.82706">
        <ele>219</ele>
        <time>2011-06-02T07:22:38Z</time>
      </trkpt>
      <trkpt lat="45.86513" lon="4.82706">
        <ele>219</ele>
        <time>2011-06-02T07:22:39Z</time>
      </trkpt>
      <trkpt lat="45.86512" lon="4.82706">
        <ele>220</ele>
        <time>2011-06-02T07:22:39Z</time>
      </trkpt>
      <trkpt lat="45.86511" lon="4.82706">
        <ele>220</ele>
        <time>2011-06-02T07:22:40Z</time>
      </trkpt>
      <trkpt lat="45.86509" lon="4.82706">
        <ele>220</ele>
        <time>2011-06-02T07:22:42Z</time>
      </trkpt>
      <trkpt lat="45.86508" lon="4.82706">
        <ele>221</ele>
        <time>2011-06-02T07:22:43Z</time>
      </trkpt>
      <trkpt lat="45.86506" lon="4.82706">
        <ele>221</ele>
        <time>2011-06-02T07:22:43Z</time>
      </trkpt>
      <trkpt lat="45.86505" lon="4.82706">
        <ele>221</ele>
        <time>2011-06-02T07:22:45Z</time>
      </trkpt>
      <trkpt lat="45.86504" lon="4.82706">
        <ele>222</ele>
        <time>2011-06-02T07:22:46Z</time>
      </trkpt>
      <trkpt lat="45.86502" lon="4.82707">
        <ele>222</ele>
        <time>2011-06-02T07:22:47Z</time>
      </trkpt>
      <trkpt lat="45.86501" lon="4.82707">
        <ele>222</ele>
        <time>2011-06-02T07:22:47Z</time>
      </trkpt>
      <trkpt lat="45.86499" lon="4.82708">
        <ele>222</ele>
        <time>2011-06-02T07:22:48Z</time>
      </trkpt>
      <trkpt lat="45.86498" lon="4.82708">
        <ele>222</ele>
        <time>2011-06-02T07:22:50Z</time>
      </trkpt>
      <trkpt lat="45.86496" lon="4.82708">
        <ele>223</ele>
        <time>2011-06-02T07:22:51Z</time>
      </trkpt>
      <trkpt lat="45.86495" lon="4.82708">
        <ele>223</ele>
        <time>2011-06-02T07:22:51Z</time>
      </trkpt>
      <trkpt lat="45.86494" lon="4.82708">
        <ele>223</ele>
        <time>2011-06-02T07:22:52Z</time>
      </trkpt>
      <trkpt lat="45.86492" lon="4.82708">
        <ele>223</ele>
        <time>2011-06-02T07:22:54Z</time>
      </trkpt>
      <trkpt lat="45.86491" lon="4.82708">
        <ele>223</ele>
        <time>2011-06-02T07:22:54Z</time>
      </trkpt>
      <trkpt lat="45.86489" lon="4.82708">
        <ele>223</ele>
        <time>2011-06-02T07:22:56Z</time>
      </trkpt>
      <trkpt lat="45.86488" lon="4.82708">
        <ele>223</ele>
        <time>2011-06-02T07:22:57Z</time>
      </trkpt>
      <trkpt lat="45.86487" lon="4.82708">
        <ele>223</ele>
        <time>2011-06-02T07:22:57Z</time>
      </trkpt>
      <trkpt lat="45.86486" lon="4.82708">
        <ele>223</ele>
        <time>2011-06-02T07:22:58Z</time>
      </trkpt>
      <trkpt lat="45.86484" lon="4.82708">
        <ele>223</ele>
        <time>2011-06-02T07:23:00Z</time>
      </trkpt>
      <trkpt lat="45.86483" lon="4.82708">
        <ele>223</ele>
        <time>2011-06-02T07:23:01Z</time>
      </trkpt>
      <trkpt lat="45.86481" lon="4.82708">
        <ele>223</ele>
        <time>2011-06-02T07:23:02Z</time>
      </trkpt>
      <trkpt lat="45.8648" lon="4.82709">
        <ele>223</ele>
        <time>2011-06-02T07:23:02Z</time>
      </trkpt>
      <trkpt lat="45.86478" lon="4.82709">
        <ele>223</ele>
        <time>2011-06-02T07:23:03Z</time>
      </trkpt>
      <trkpt lat="45.86477" lon="4.82709">
        <ele>223</ele>
        <time>2011-06-02T07:23:05Z</time>
      </trkpt>
      <trkpt lat="45.86476" lon="4.82709">
        <ele>223</ele>
        <time>2011-06-02T07:23:06Z</time>
      </trkpt>
      <trkpt lat="45.86474" lon="4.82709">
        <ele>223</ele>
        <time>2011-06-02T07:23:06Z</time>
      </trkpt>
      <trkpt lat="45.86473" lon="4.8271">
        <ele>223</ele>
        <time>2011-06-02T07:23:08Z</time>
      </trkpt>
      <trkpt lat="45.86472" lon="4.82709">
        <ele>223</ele>
        <time>2011-06-02T07:23:09Z</time>
      </trkpt>
      <trkpt lat="45.8647" lon="4.8271">
        <ele>224</ele>
        <time>2011-06-02T07:23:10Z</time>
      </trkpt>
      <trkpt lat="45.86469" lon="4.8271">
        <ele>224</ele>
        <time>2011-06-02T07:23:10Z</time>
      </trkpt>
      <trkpt lat="45.86467" lon="4.82711">
        <ele>224</ele>
        <time>2011-06-02T07:23:12Z</time>
      </trkpt>
      <trkpt lat="45.86465" lon="4.82711">
        <ele>224</ele>
        <time>2011-06-02T07:23:12Z</time>
      </trkpt>
      <trkpt lat="45.86464" lon="4.82711">
        <ele>224</ele>
        <time>2011-06-02T07:23:14Z</time>
      </trkpt>
      <trkpt lat="45.86462" lon="4.82711">
        <ele>224</ele>
        <time>2011-06-02T07:23:14Z</time>
      </trkpt>
      <trkpt lat="45.86461" lon="4.82712">
        <ele>224</ele>
        <time>2011-06-02T07:23:15Z</time>
      </trkpt>
      <trkpt lat="45.86459" lon="4.82713">
        <ele>224</ele>
        <time>2011-06-02T07:23:17Z</time>
      </trkpt>
      <trkpt lat="45.86457" lon="4.82713">
        <ele>224</ele>
        <time>2011-06-02T07:23:17Z</time>
      </trkpt>
      <trkpt lat="45.86456" lon="4.82713">
        <ele>224</ele>
        <time>2011-06-02T07:23:18Z</time>
      </trkpt>
      <trkpt lat="45.86454" lon="4.82713">
        <ele>224</ele>
        <time>2011-06-02T07:23:20Z</time>
      </trkpt>
      <trkpt lat="45.86452" lon="4.82713">
        <ele>224</ele>
        <time>2011-06-02T07:23:21Z</time>
      </trkpt>
      <trkpt lat="45.86451" lon="4.82713">
        <ele>224</ele>
        <time>2011-06-02T07:23:22Z</time>
      </trkpt>
      <trkpt lat="45.86449" lon="4.82713">
        <ele>224</ele>
        <time>2011-06-02T07:23:23Z</time>
      </trkpt>
      <trkpt lat="45.86448" lon="4.82713">
        <ele>224</ele>
        <time>2011-06-02T07:23:23Z</time>
      </trkpt>
      <trkpt lat="45.86446" lon="4.82713">
        <ele>224</ele>
        <time>2011-06-02T07:23:24Z</time>
      </trkpt>
      <trkpt lat="45.86445" lon="4.82713">
        <ele>224</ele>
        <time>2011-06-02T07:23:26Z</time>
      </trkpt>
      <trkpt lat="45.86444" lon="4.82713">
        <ele>224</ele>
        <time>2011-06-02T07:23:27Z</time>
      </trkpt>
      <trkpt lat="45.86442" lon="4.82713">
        <ele>224</ele>
        <time>2011-06-02T07:23:27Z</time>
      </trkpt>
      <trkpt lat="45.86441" lon="4.82713">
        <ele>225</ele>
        <time>2011-06-02T07:23:28Z</time>
      </trkpt>
      <trkpt lat="45.86439" lon="4.82713">
        <ele>225</ele>
        <time>2011-06-02T07:23:30Z</time>
      </trkpt>
      <trkpt lat="45.86438" lon="4.82713">
        <ele>225</ele>
        <time>2011-06-02T07:23:30Z</time>
      </trkpt>
      <trkpt lat="45.86436" lon="4.82713">
        <ele>225</ele>
        <time>2011-06-02T07:23:32Z</time>
      </trkpt>
      <trkpt lat="45.86435" lon="4.82714">
        <ele>225</ele>
        <time>2011-06-02T07:23:32Z</time>
      </trkpt>
      <trkpt lat="45.86433" lon="4.82714">
        <ele>225</ele>
        <time>2011-06-02T07:23:34Z</time>
      </trkpt>
      <trkpt lat="45.86432" lon="4.82714">
        <ele>225</ele>
        <time>2011-06-02T07:23:35Z</time>
      </trkpt>
      <trkpt lat="45.8643" lon="4.82715">
        <ele>225</ele>
        <time>2011-06-02T07:23:36Z</time>
      </trkpt>
      <trkpt lat="45.86429" lon="4.82715">
        <ele>226</ele>
        <time>2011-06-02T07:23:36Z</time>
      </trkpt>
      <trkpt lat="45.86428" lon="4.82715">
        <ele>226</ele>
        <time>2011-06-02T07:23:38Z</time>
      </trkpt>
      <trkpt lat="45.86426" lon="4.82716">
        <ele>226</ele>
        <time>2011-06-02T07:23:38Z</time>
      </trkpt>
      <trkpt lat="45.86425" lon="4.82716">
        <ele>226</ele>
        <time>2011-06-02T07:23:39Z</time>
      </trkpt>
      <trkpt lat="45.86423" lon="4.82716">
        <ele>226</ele>
        <time>2011-06-02T07:23:40Z</time>
      </trkpt>
      <trkpt lat="45.86422" lon="4.82716">
        <ele>227</ele>
        <time>2011-06-02T07:23:42Z</time>
      </trkpt>
      <trkpt lat="45.86421" lon="4.82716">
        <ele>227</ele>
        <time>2011-06-02T07:23:42Z</time>
      </trkpt>
      <trkpt lat="45.86419" lon="4.82716">
        <ele>227</ele>
        <time>2011-06-02T07:23:44Z</time>
      </trkpt>
      <trkpt lat="45.86418" lon="4.82716">
        <ele>227</ele>
        <time>2011-06-02T07:23:44Z</time>
      </trkpt>
      <trkpt lat="45.86416" lon="4.82717">
        <ele>228</ele>
        <time>2011-06-02T07:23:45Z</time>
      </trkpt>
      <trkpt lat="45.86415" lon="4.82717">
        <ele>228</ele>
        <time>2011-06-02T07:23:46Z</time>
      </trkpt>
      <trkpt lat="45.86413" lon="4.82717">
        <ele>228</ele>
        <time>2011-06-02T07:23:47Z</time>
      </trkpt>
      <trkpt lat="45.86412" lon="4.82718">
        <ele>228</ele>
        <time>2011-06-02T07:23:48Z</time>
      </trkpt>
      <trkpt lat="45.8641" lon="4.82718">
        <ele>229</ele>
        <time>2011-06-02T07:23:50Z</time>
      </trkpt>
      <trkpt lat="45.86409" lon="4.82719">
        <ele>229</ele>
        <time>2011-06-02T07:23:50Z</time>
      </trkpt>
      <trkpt lat="45.86407" lon="4.82719">
        <ele>229</ele>
        <time>2011-06-02T07:23:51Z</time>
      </trkpt>
      <trkpt lat="45.86406" lon="4.8272">
        <ele>229</ele>
        <time>2011-06-02T07:23:52Z</time>
      </trkpt>
      <trkpt lat="45.86405" lon="4.8272">
        <ele>230</ele>
        <time>2011-06-02T07:23:54Z</time>
      </trkpt>
      <trkpt lat="45.86403" lon="4.8272">
        <ele>230</ele>
        <time>2011-06-02T07:23:54Z</time>
      </trkpt>
      <trkpt lat="45.86402" lon="4.82721">
        <ele>230</ele>
        <time>2011-06-02T07:23:56Z</time>
      </trkpt>
      <trkpt lat="45.86401" lon="4.82721">
        <ele>230</ele>
        <time>2011-06-02T07:23:56Z</time>
      </trkpt>
      <trkpt lat="45.86399" lon="4.82721">
        <ele>231</ele>
        <time>2011-06-02T07:23:57Z</time>
      </trkpt>
      <trkpt lat="45.86398" lon="4.82721">
        <ele>231</ele>
        <time>2011-06-02T07:23:58Z</time>
      </trkpt>
      <trkpt lat="45.86396" lon="4.82722">
        <ele>231</ele>
        <time>2011-06-02T07:23:59Z</time>
      </trkpt>
      <trkpt lat="45.86394" lon="4.82722">
        <ele>231</ele>
        <time>2011-06-02T07:24:01Z</time>
      </trkpt>
      <trkpt lat="45.86393" lon="4.82722">
        <ele>232</ele>
        <time>2011-06-02T07:24:02Z</time>
      </trkpt>
      <trkpt lat="45.86391" lon="4.82722">
        <ele>232</ele>
        <time>2011-06-02T07:24:02Z</time>
      </trkpt>
      <trkpt lat="45.8639" lon="4.82723">
        <ele>232</ele>
        <time>2011-06-02T07:24:03Z</time>
      </trkpt>
      <trkpt lat="45.86389" lon="4.82723">
        <ele>232</ele>
        <time>2011-06-02T07:24:04Z</time>
      </trkpt>
      <trkpt lat="45.86387" lon="4.82723">
        <ele>233</ele>
        <time>2011-06-02T07:24:06Z</time>
      </trkpt>
      <trkpt lat="45.86386" lon="4.82724">
        <ele>233</ele>
        <time>2011-06-02T07:24:06Z</time>
      </trkpt>
      <trkpt lat="45.86384" lon="4.82724">
        <ele>233</ele>
        <time>2011-06-02T07:24:07Z</time>
      </trkpt>
      <trkpt lat="45.86382" lon="4.82725">
        <ele>233</ele>
        <time>2011-06-02T07:24:08Z</time>
      </trkpt>
      <trkpt lat="45.8638" lon="4.82725">
        <ele>233</ele>
        <time>2011-06-02T07:24:09Z</time>
      </trkpt>
      <trkpt lat="45.86378" lon="4.82725">
        <ele>233</ele>
        <time>2011-06-02T07:24:10Z</time>
      </trkpt>
      <trkpt lat="45.86376" lon="4.82725">
        <ele>233</ele>
        <time>2011-06-02T07:24:12Z</time>
      </trkpt>
      <trkpt lat="45.86375" lon="4.82725">
        <ele>233</ele>
        <time>2011-06-02T07:24:12Z</time>
      </trkpt>
      <trkpt lat="45.86373" lon="4.82725">
        <ele>233</ele>
        <time>2011-06-02T07:24:13Z</time>
      </trkpt>
      <trkpt lat="45.86372" lon="4.82726">
        <ele>233</ele>
        <time>2011-06-02T07:24:14Z</time>
      </trkpt>
      <trkpt lat="45.8637" lon="4.82726">
        <ele>233</ele>
        <time>2011-06-02T07:24:15Z</time>
      </trkpt>
      <trkpt lat="45.86369" lon="4.82727">
        <ele>233</ele>
        <time>2011-06-02T07:24:17Z</time>
      </trkpt>
      <trkpt lat="45.86367" lon="4.82727">
        <ele>233</ele>
        <time>2011-06-02T07:24:17Z</time>
      </trkpt>
      <trkpt lat="45.86366" lon="4.82728">
        <ele>233</ele>
        <time>2011-06-02T07:24:18Z</time>
      </trkpt>
      <trkpt lat="45.86364" lon="4.82728">
        <ele>233</ele>
        <time>2011-06-02T07:24:19Z</time>
      </trkpt>
      <trkpt lat="45.86363" lon="4.82728">
        <ele>233</ele>
        <time>2011-06-02T07:24:20Z</time>
      </trkpt>
      <trkpt lat="45.86361" lon="4.82729">
        <ele>233</ele>
        <time>2011-06-02T07:24:22Z</time>
      </trkpt>
      <trkpt lat="45.8636" lon="4.82729">
        <ele>233</ele>
        <time>2011-06-02T07:24:22Z</time>
      </trkpt>
      <trkpt lat="45.86358" lon="4.82729">
        <ele>233</ele>
        <time>2011-06-02T07:24:23Z</time>
      </trkpt>
      <trkpt lat="45.86357" lon="4.82729">
        <ele>233</ele>
        <time>2011-06-02T07:24:24Z</time>
      </trkpt>
      <trkpt lat="45.86356" lon="4.8273">
        <ele>233</ele>
        <time>2011-06-02T07:24:25Z</time>
      </trkpt>
      <trkpt lat="45.86354" lon="4.8273">
        <ele>233</ele>
        <time>2011-06-02T07:24:26Z</time>
      </trkpt>
      <trkpt lat="45.86353" lon="4.82729">
        <ele>233</ele>
        <time>2011-06-02T07:24:27Z</time>
      </trkpt>
      <trkpt lat="45.86351" lon="4.8273">
        <ele>233</ele>
        <time>2011-06-02T07:24:28Z</time>
      </trkpt>
      <trkpt lat="45.8635" lon="4.8273">
        <ele>233</ele>
        <time>2011-06-02T07:24:29Z</time>
      </trkpt>
      <trkpt lat="45.86349" lon="4.8273">
        <ele>233</ele>
        <time>2011-06-02T07:24:30Z</time>
      </trkpt>
      <trkpt lat="45.86347" lon="4.82731">
        <ele>233</ele>
        <time>2011-06-02T07:24:31Z</time>
      </trkpt>
      <trkpt lat="45.86346" lon="4.82731">
        <ele>233</ele>
        <time>2011-06-02T07:24:33Z</time>
      </trkpt>
      <trkpt lat="45.86344" lon="4.82731">
        <ele>233</ele>
        <time>2011-06-02T07:24:33Z</time>
      </trkpt>
      <trkpt lat="45.86343" lon="4.82732">
        <ele>233</ele>
        <time>2011-06-02T07:24:34Z</time>
      </trkpt>
      <trkpt lat="45.86341" lon="4.82732">
        <ele>233</ele>
        <time>2011-06-02T07:24:35Z</time>
      </trkpt>
      <trkpt lat="45.8634" lon="4.82733">
        <ele>233</ele>
        <time>2011-06-02T07:24:36Z</time>
      </trkpt>
      <trkpt lat="45.86338" lon="4.82733">
        <ele>233</ele>
        <time>2011-06-02T07:24:38Z</time>
      </trkpt>
      <trkpt lat="45.86337" lon="4.82733">
        <ele>233</ele>
        <time>2011-06-02T07:24:38Z</time>
      </trkpt>
      <trkpt lat="45.86336" lon="4.82734">
        <ele>234</ele>
        <time>2011-06-02T07:24:39Z</time>
      </trkpt>
      <trkpt lat="45.86334" lon="4.82734">
        <ele>234</ele>
        <time>2011-06-02T07:24:40Z</time>
      </trkpt>
      <trkpt lat="45.86333" lon="4.82734">
        <ele>234</ele>
        <time>2011-06-02T07:24:41Z</time>
      </trkpt>
      <trkpt lat="45.86332" lon="4.82735">
        <ele>235</ele>
        <time>2011-06-02T07:24:42Z</time>
      </trkpt>
      <trkpt lat="45.8633" lon="4.82735">
        <ele>235</ele>
        <time>2011-06-02T07:24:43Z</time>
      </trkpt>
      <trkpt lat="45.86329" lon="4.82736">
        <ele>235</ele>
        <time>2011-06-02T07:24:44Z</time>
      </trkpt>
      <trkpt lat="45.86327" lon="4.82736">
        <ele>236</ele>
        <time>2011-06-02T07:24:45Z</time>
      </trkpt>
      <trkpt lat="45.86326" lon="4.82737">
        <ele>236</ele>
        <time>2011-06-02T07:24:46Z</time>
      </trkpt>
      <trkpt lat="45.86324" lon="4.82737">
        <ele>237</ele>
        <time>2011-06-02T07:24:47Z</time>
      </trkpt>
      <trkpt lat="45.86323" lon="4.82737">
        <ele>237</ele>
        <time>2011-06-02T07:24:49Z</time>
      </trkpt>
      <trkpt lat="45.86322" lon="4.82738">
        <ele>237</ele>
        <time>2011-06-02T07:24:49Z</time>
      </trkpt>
      <trkpt lat="45.8632" lon="4.82738">
        <ele>238</ele>
        <time>2011-06-02T07:24:50Z</time>
      </trkpt>
      <trkpt lat="45.86319" lon="4.82738">
        <ele>238</ele>
        <time>2011-06-02T07:24:51Z</time>
      </trkpt>
      <trkpt lat="45.86317" lon="4.82738">
        <ele>238</ele>
        <time>2011-06-02T07:24:52Z</time>
      </trkpt>
      <trkpt lat="45.86316" lon="4.82738">
        <ele>239</ele>
        <time>2011-06-02T07:24:53Z</time>
      </trkpt>
      <trkpt lat="45.86315" lon="4.82739">
        <ele>239</ele>
        <time>2011-06-02T07:24:55Z</time>
      </trkpt>
      <trkpt lat="45.86313" lon="4.8274">
        <ele>239</ele>
        <time>2011-06-02T07:24:55Z</time>
      </trkpt>
      <trkpt lat="45.86312" lon="4.8274">
        <ele>239</ele>
        <time>2011-06-02T07:24:56Z</time>
      </trkpt>
      <trkpt lat="45.86311" lon="4.8274">
        <ele>239</ele>
        <time>2011-06-02T07:24:57Z</time>
      </trkpt>
      <trkpt lat="45.86309" lon="4.8274">
        <ele>239</ele>
        <time>2011-06-02T07:24:58Z</time>
      </trkpt>
      <trkpt lat="45.86308" lon="4.8274">
        <ele>239</ele>
        <time>2011-06-02T07:24:59Z</time>
      </trkpt>
      <trkpt lat="45.86307" lon="4.8274">
        <ele>239</ele>
        <time>2011-06-02T07:25:01Z</time>
      </trkpt>
      <trkpt lat="45.86306" lon="4.8274">
        <ele>239</ele>
        <time>2011-06-02T07:25:01Z</time>
      </trkpt>
      <trkpt lat="45.86304" lon="4.8274">
        <ele>239</ele>
        <time>2011-06-02T07:25:02Z</time>
      </trkpt>
      <trkpt lat="45.86303" lon="4.82741">
        <ele>239</ele>
        <time>2011-06-02T07:25:03Z</time>
      </trkpt>
      <trkpt lat="45.86301" lon="4.82741">
        <ele>239</ele>
        <time>2011-06-02T07:25:04Z</time>
      </trkpt>
      <trkpt lat="45.863" lon="4.82741">
        <ele>239</ele>
        <time>2011-06-02T07:25:06Z</time>
      </trkpt>
      <trkpt lat="45.86299" lon="4.82741">
        <ele>239</ele>
        <time>2011-06-02T07:25:06Z</time>
      </trkpt>
      <trkpt lat="45.86297" lon="4.82741">
        <ele>239</ele>
        <time>2011-06-02T07:25:07Z</time>
      </trkpt>
      <trkpt lat="45.86296" lon="4.82742">
        <ele>239</ele>
        <time>2011-06-02T07:25:08Z</time>
      </trkpt>
      <trkpt lat="45.86295" lon="4.82742">
        <ele>239</ele>
        <time>2011-06-02T07:25:09Z</time>
      </trkpt>
      <trkpt lat="45.86293" lon="4.82743">
        <ele>239</ele>
        <time>2011-06-02T07:25:11Z</time>
      </trkpt>
      <trkpt lat="45.86292" lon="4.82743">
        <ele>239</ele>
        <time>2011-06-02T07:25:11Z</time>
      </trkpt>
      <trkpt lat="45.86291" lon="4.82743">
        <ele>239</ele>
        <time>2011-06-02T07:25:12Z</time>
      </trkpt>
      <trkpt lat="45.86289" lon="4.82744">
        <ele>240</ele>
        <time>2011-06-02T07:25:13Z</time>
      </trkpt>
      <trkpt lat="45.86288" lon="4.82744">
        <ele>240</ele>
        <time>2011-06-02T07:25:14Z</time>
      </trkpt>
      <trkpt lat="45.86287" lon="4.82744">
        <ele>240</ele>
        <time>2011-06-02T07:25:15Z</time>
      </trkpt>
      <trkpt lat="45.86285" lon="4.82744">
        <ele>241</ele>
        <time>2011-06-02T07:25:18Z</time>
      </trkpt>
      <trkpt lat="45.86283" lon="4.82744">
        <ele>241</ele>
        <time>2011-06-02T07:25:18Z</time>
      </trkpt>
      <trkpt lat="45.86282" lon="4.82744">
        <ele>241</ele>
        <time>2011-06-02T07:25:19Z</time>
      </trkpt>
      <trkpt lat="45.8628" lon="4.82745">
        <ele>242</ele>
        <time>2011-06-02T07:25:20Z</time>
      </trkpt>
      <trkpt lat="45.86279" lon="4.82745">
        <ele>242</ele>
        <time>2011-06-02T07:25:21Z</time>
      </trkpt>
      <trkpt lat="45.86278" lon="4.82746">
        <ele>242</ele>
        <time>2011-06-02T07:25:23Z</time>
      </trkpt>
      <trkpt lat="45.86277" lon="4.82746">
        <ele>243</ele>
        <time>2011-06-02T07:25:23Z</time>
      </trkpt>
      <trkpt lat="45.86275" lon="4.82746">
        <ele>243</ele>
        <time>2011-06-02T07:25:24Z</time>
      </trkpt>
      <trkpt lat="45.86273" lon="4.82747">
        <ele>243</ele>
        <time>2011-06-02T07:25:25Z</time>
      </trkpt>
      <trkpt lat="45.86272" lon="4.82747">
        <ele>243</ele>
        <time>2011-06-02T07:25:26Z</time>
      </trkpt>
      <trkpt lat="45.8627" lon="4.82748">
        <ele>244</ele>
        <time>2011-06-02T07:25:28Z</time>
      </trkpt>
      <trkpt lat="45.86268" lon="4.82748">
        <ele>244</ele>
        <time>2011-06-02T07:25:28Z</time>
      </trkpt>
      <trkpt lat="45.86266" lon="4.82749">
        <ele>244</ele>
        <time>2011-06-02T07:25:29Z</time>
      </trkpt>
      <trkpt lat="45.86265" lon="4.82749">
        <ele>244</ele>
        <time>2011-06-02T07:25:30Z</time>
      </trkpt>
      <trkpt lat="45.86263" lon="4.82749">
        <ele>244</ele>
        <time>2011-06-02T07:25:31Z</time>
      </trkpt>
      <trkpt lat="45.86261" lon="4.82749">
        <ele>244</ele>
        <time>2011-06-02T07:25:33Z</time>
      </trkpt>
      <trkpt lat="45.8626" lon="4.82749">
        <ele>244</ele>
        <time>2011-06-02T07:25:33Z</time>
      </trkpt>
      <trkpt lat="45.86258" lon="4.82749">
        <ele>244</ele>
        <time>2011-06-02T07:25:34Z</time>
      </trkpt>
      <trkpt lat="45.86257" lon="4.82749">
        <ele>244</ele>
        <time>2011-06-02T07:25:35Z</time>
      </trkpt>
      <trkpt lat="45.86255" lon="4.8275">
        <ele>244</ele>
        <time>2011-06-02T07:25:36Z</time>
      </trkpt>
      <trkpt lat="45.86253" lon="4.8275">
        <ele>244</ele>
        <time>2011-06-02T07:25:38Z</time>
      </trkpt>
      <trkpt lat="45.86252" lon="4.8275">
        <ele>244</ele>
        <time>2011-06-02T07:25:38Z</time>
      </trkpt>
      <trkpt lat="45.8625" lon="4.8275">
        <ele>244</ele>
        <time>2011-06-02T07:25:39Z</time>
      </trkpt>
      <trkpt lat="45.86248" lon="4.82751">
        <ele>244</ele>
        <time>2011-06-02T07:25:40Z</time>
      </trkpt>
      <trkpt lat="45.86247" lon="4.82751">
        <ele>244</ele>
        <time>2011-06-02T07:25:41Z</time>
      </trkpt>
      <trkpt lat="45.86245" lon="4.82751">
        <ele>244</ele>
        <time>2011-06-02T07:25:42Z</time>
      </trkpt>
      <trkpt lat="45.86244" lon="4.82751">
        <ele>244</ele>
        <time>2011-06-02T07:25:43Z</time>
      </trkpt>
      <trkpt lat="45.86243" lon="4.82751">
        <ele>244</ele>
        <time>2011-06-02T07:25:44Z</time>
      </trkpt>
      <trkpt lat="45.86241" lon="4.82751">
        <ele>244</ele>
        <time>2011-06-02T07:25:45Z</time>
      </trkpt>
      <trkpt lat="45.8624" lon="4.82752">
        <ele>244</ele>
        <time>2011-06-02T07:25:46Z</time>
      </trkpt>
      <trkpt lat="45.86238" lon="4.82752">
        <ele>244</ele>
        <time>2011-06-02T07:25:47Z</time>
      </trkpt>
      <trkpt lat="45.86237" lon="4.82752">
        <ele>244</ele>
        <time>2011-06-02T07:25:48Z</time>
      </trkpt>
      <trkpt lat="45.86235" lon="4.82752">
        <ele>244</ele>
        <time>2011-06-02T07:25:49Z</time>
      </trkpt>
      <trkpt lat="45.86234" lon="4.82752">
        <ele>244</ele>
        <time>2011-06-02T07:25:50Z</time>
      </trkpt>
      <trkpt lat="45.86232" lon="4.82752">
        <ele>244</ele>
        <time>2011-06-02T07:25:51Z</time>
      </trkpt>
      <trkpt lat="45.86231" lon="4.82752">
        <ele>244</ele>
        <time>2011-06-02T07:25:52Z</time>
      </trkpt>
      <trkpt lat="45.8623" lon="4.82752">
        <ele>244</ele>
        <time>2011-06-02T07:25:54Z</time>
      </trkpt>
      <trkpt lat="45.86228" lon="4.82752">
        <ele>244</ele>
        <time>2011-06-02T07:25:54Z</time>
      </trkpt>
      <trkpt lat="45.86227" lon="4.82752">
        <ele>245</ele>
        <time>2011-06-02T07:25:55Z</time>
      </trkpt>
      <trkpt lat="45.86226" lon="4.82752">
        <ele>245</ele>
        <time>2011-06-02T07:25:56Z</time>
      </trkpt>
      <trkpt lat="45.86224" lon="4.82752">
        <ele>245</ele>
        <time>2011-06-02T07:25:57Z</time>
      </trkpt>
      <trkpt lat="45.86223" lon="4.82752">
        <ele>246</ele>
        <time>2011-06-02T07:25:59Z</time>
      </trkpt>
      <trkpt lat="45.86221" lon="4.82752">
        <ele>246</ele>
        <time>2011-06-02T07:25:59Z</time>
      </trkpt>
      <trkpt lat="45.8622" lon="4.82752">
        <ele>246</ele>
        <time>2011-06-02T07:26:00Z</time>
      </trkpt>
      <trkpt lat="45.86219" lon="4.82752">
        <ele>246</ele>
        <time>2011-06-02T07:26:01Z</time>
      </trkpt>
      <trkpt lat="45.86217" lon="4.82752">
        <ele>246</ele>
        <time>2011-06-02T07:26:02Z</time>
      </trkpt>
      <trkpt lat="45.86216" lon="4.82752">
        <ele>247</ele>
        <time>2011-06-02T07:26:03Z</time>
      </trkpt>
      <trkpt lat="45.86214" lon="4.82753">
        <ele>247</ele>
        <time>2011-06-02T07:26:04Z</time>
      </trkpt>
      <trkpt lat="45.86212" lon="4.82753">
        <ele>247</ele>
        <time>2011-06-02T07:26:05Z</time>
      </trkpt>
      <trkpt lat="45.86211" lon="4.82753">
        <ele>247</ele>
        <time>2011-06-02T07:26:06Z</time>
      </trkpt>
      <trkpt lat="45.86209" lon="4.82753">
        <ele>247</ele>
        <time>2011-06-02T07:26:07Z</time>
      </trkpt>
      <trkpt lat="45.86208" lon="4.82753">
        <ele>247</ele>
        <time>2011-06-02T07:26:08Z</time>
      </trkpt>
      <trkpt lat="45.86206" lon="4.82753">
        <ele>247</ele>
        <time>2011-06-02T07:26:10Z</time>
      </trkpt>
      <trkpt lat="45.86205" lon="4.82753">
        <ele>247</ele>
        <time>2011-06-02T07:26:10Z</time>
      </trkpt>
      <trkpt lat="45.86204" lon="4.82753">
        <ele>247</ele>
        <time>2011-06-02T07:26:11Z</time>
      </trkpt>
      <trkpt lat="45.86202" lon="4.82753">
        <ele>247</ele>
        <time>2011-06-02T07:26:12Z</time>
      </trkpt>
      <trkpt lat="45.86201" lon="4.82753">
        <ele>247</ele>
        <time>2011-06-02T07:26:13Z</time>
      </trkpt>
      <trkpt lat="45.86199" lon="4.82753">
        <ele>247</ele>
        <time>2011-06-02T07:26:15Z</time>
      </trkpt>
      <trkpt lat="45.86198" lon="4.82752">
        <ele>247</ele>
        <time>2011-06-02T07:26:15Z</time>
      </trkpt>
      <trkpt lat="45.86197" lon="4.82752">
        <ele>247</ele>
        <time>2011-06-02T07:26:16Z</time>
      </trkpt>
      <trkpt lat="45.86195" lon="4.82752">
        <ele>247</ele>
        <time>2011-06-02T07:26:17Z</time>
      </trkpt>
      <trkpt lat="45.86194" lon="4.82752">
        <ele>247</ele>
        <time>2011-06-02T07:26:18Z</time>
      </trkpt>
      <trkpt lat="45.86192" lon="4.82752">
        <ele>248</ele>
        <time>2011-06-02T07:26:19Z</time>
      </trkpt>
      <trkpt lat="45.86191" lon="4.82752">
        <ele>248</ele>
        <time>2011-06-02T07:26:20Z</time>
      </trkpt>
      <trkpt lat="45.8619" lon="4.82752">
        <ele>248</ele>
        <time>2011-06-02T07:26:21Z</time>
      </trkpt>
      <trkpt lat="45.86189" lon="4.82752">
        <ele>248</ele>
        <time>2011-06-02T07:26:22Z</time>
      </trkpt>
      <trkpt lat="45.86187" lon="4.82752">
        <ele>249</ele>
        <time>2011-06-02T07:26:23Z</time>
      </trkpt>
      <trkpt lat="45.86185" lon="4.82752">
        <ele>249</ele>
        <time>2011-06-02T07:26:24Z</time>
      </trkpt>
      <trkpt lat="45.86184" lon="4.82752">
        <ele>249</ele>
        <time>2011-06-02T07:26:25Z</time>
      </trkpt>
      <trkpt lat="45.86182" lon="4.82752">
        <ele>249</ele>
        <time>2011-06-02T07:26:26Z</time>
      </trkpt>
      <trkpt lat="45.86181" lon="4.82752">
        <ele>250</ele>
        <time>2011-06-02T07:26:27Z</time>
      </trkpt>
      <trkpt lat="45.86179" lon="4.82752">
        <ele>250</ele>
        <time>2011-06-02T07:26:28Z</time>
      </trkpt>
      <trkpt lat="45.86177" lon="4.82752">
        <ele>251</ele>
        <time>2011-06-02T07:26:29Z</time>
      </trkpt>
      <trkpt lat="45.86176" lon="4.82752">
        <ele>251</ele>
        <time>2011-06-02T07:26:30Z</time>
      </trkpt>
      <trkpt lat="45.86174" lon="4.82752">
        <ele>251</ele>
        <time>2011-06-02T07:26:31Z</time>
      </trkpt>
      <trkpt lat="45.86172" lon="4.82751">
        <ele>252</ele>
        <time>2011-06-02T07:26:32Z</time>
      </trkpt>
      <trkpt lat="45.8617" lon="4.82752">
        <ele>252</ele>
        <time>2011-06-02T07:26:33Z</time>
      </trkpt>
      <trkpt lat="45.86169" lon="4.82752">
        <ele>252</ele>
        <time>2011-06-02T07:26:34Z</time>
      </trkpt>
      <trkpt lat="45.86167" lon="4.82752">
        <ele>252</ele>
        <time>2011-06-02T07:26:36Z</time>
      </trkpt>
      <trkpt lat="45.86166" lon="4.82753">
        <ele>252</ele>
        <time>2011-06-02T07:26:36Z</time>
      </trkpt>
      <trkpt lat="45.86164" lon="4.82752">
        <ele>253</ele>
        <time>2011-06-02T07:26:37Z</time>
      </trkpt>
      <trkpt lat="45.86163" lon="4.82753">
        <ele>253</ele>
        <time>2011-06-02T07:26:38Z</time>
      </trkpt>
      <trkpt lat="45.86162" lon="4.82752">
        <ele>253</ele>
        <time>2011-06-02T07:26:39Z</time>
      </trkpt>
      <trkpt lat="45.8616" lon="4.82752">
        <ele>253</ele>
        <time>2011-06-02T07:26:40Z</time>
      </trkpt>
      <trkpt lat="45.86159" lon="4.82752">
        <ele>253</ele>
        <time>2011-06-02T07:26:41Z</time>
      </trkpt>
      <trkpt lat="45.86157" lon="4.82752">
        <ele>253</ele>
        <time>2011-06-02T07:26:42Z</time>
      </trkpt>
      <trkpt lat="45.86156" lon="4.82751">
        <ele>253</ele>
        <time>2011-06-02T07:26:43Z</time>
      </trkpt>
      <trkpt lat="45.86154" lon="4.82751">
        <ele>253</ele>
        <time>2011-06-02T07:26:44Z</time>
      </trkpt>
      <trkpt lat="45.86153" lon="4.8275">
        <ele>253</ele>
        <time>2011-06-02T07:26:45Z</time>
      </trkpt>
      <trkpt lat="45.86152" lon="4.8275">
        <ele>253</ele>
        <time>2011-06-02T07:26:46Z</time>
      </trkpt>
      <trkpt lat="45.8615" lon="4.8275">
        <ele>253</ele>
        <time>2011-06-02T07:26:47Z</time>
      </trkpt>
      <trkpt lat="45.86149" lon="4.8275">
        <ele>253</ele>
        <time>2011-06-02T07:26:48Z</time>
      </trkpt>
      <trkpt lat="45.86148" lon="4.8275">
        <ele>253</ele>
        <time>2011-06-02T07:26:49Z</time>
      </trkpt>
      <trkpt lat="45.86147" lon="4.8275">
        <ele>253</ele>
        <time>2011-06-02T07:26:50Z</time>
      </trkpt>
      <trkpt lat="45.86145" lon="4.8275">
        <ele>253</ele>
        <time>2011-06-02T07:26:51Z</time>
      </trkpt>
      <trkpt lat="45.86144" lon="4.82749">
        <ele>253</ele>
        <time>2011-06-02T07:26:52Z</time>
      </trkpt>
      <trkpt lat="45.86142" lon="4.82749">
        <ele>253</ele>
        <time>2011-06-02T07:26:53Z</time>
      </trkpt>
      <trkpt lat="45.86141" lon="4.82749">
        <ele>253</ele>
        <time>2011-06-02T07:26:54Z</time>
      </trkpt>
      <trkpt lat="45.86138" lon="4.82749">
        <ele>253</ele>
        <time>2011-06-02T07:26:56Z</time>
      </trkpt>
      <trkpt lat="45.86136" lon="4.82749">
        <ele>253</ele>
        <time>2011-06-02T07:26:58Z</time>
      </trkpt>
      <trkpt lat="45.86134" lon="4.82748">
        <ele>254</ele>
        <time>2011-06-02T07:26:59Z</time>
      </trkpt>
      <trkpt lat="45.86133" lon="4.82748">
        <ele>254</ele>
        <time>2011-06-02T07:27:00Z</time>
      </trkpt>
      <trkpt lat="45.86132" lon="4.82748">
        <ele>255</ele>
        <time>2011-06-02T07:27:01Z</time>
      </trkpt>
      <trkpt lat="45.86131" lon="4.82748">
        <ele>255</ele>
        <time>2011-06-02T07:27:02Z</time>
      </trkpt>
      <trkpt lat="45.86129" lon="4.82747">
        <ele>256</ele>
        <time>2011-06-02T07:27:03Z</time>
      </trkpt>
      <trkpt lat="45.86127" lon="4.82746">
        <ele>257</ele>
        <time>2011-06-02T07:27:05Z</time>
      </trkpt>
      <trkpt lat="45.86126" lon="4.82746">
        <ele>258</ele>
        <time>2011-06-02T07:27:06Z</time>
      </trkpt>
      <trkpt lat="45.86124" lon="4.82746">
        <ele>258</ele>
        <time>2011-06-02T07:27:07Z</time>
      </trkpt>
      <trkpt lat="45.86123" lon="4.82745">
        <ele>258</ele>
        <time>2011-06-02T07:27:08Z</time>
      </trkpt>
      <trkpt lat="45.86121" lon="4.82744">
        <ele>259</ele>
        <time>2011-06-02T07:27:10Z</time>
      </trkpt>
      <trkpt lat="45.86118" lon="4.82744">
        <ele>260</ele>
        <time>2011-06-02T07:27:12Z</time>
      </trkpt>
      <trkpt lat="45.86117" lon="4.82744">
        <ele>261</ele>
        <time>2011-06-02T07:27:13Z</time>
      </trkpt>
      <trkpt lat="45.86116" lon="4.82744">
        <ele>261</ele>
        <time>2011-06-02T07:27:14Z</time>
      </trkpt>
      <trkpt lat="45.86115" lon="4.82744">
        <ele>262</ele>
        <time>2011-06-02T07:27:15Z</time>
      </trkpt>
      <trkpt lat="45.86113" lon="4.82744">
        <ele>263</ele>
        <time>2011-06-02T07:27:16Z</time>
      </trkpt>
      <trkpt lat="45.86112" lon="4.82744">
        <ele>263</ele>
        <time>2011-06-02T07:27:17Z</time>
      </trkpt>
      <trkpt lat="45.86111" lon="4.82744">
        <ele>264</ele>
        <time>2011-06-02T07:27:18Z</time>
      </trkpt>
      <trkpt lat="45.86109" lon="4.82743">
        <ele>264</ele>
        <time>2011-06-02T07:27:19Z</time>
      </trkpt>
      <trkpt lat="45.86108" lon="4.82743">
        <ele>264</ele>
        <time>2011-06-02T07:27:20Z</time>
      </trkpt>
      <trkpt lat="45.86106" lon="4.82743">
        <ele>265</ele>
        <time>2011-06-02T07:27:21Z</time>
      </trkpt>
      <trkpt lat="45.86104" lon="4.82743">
        <ele>265</ele>
        <time>2011-06-02T07:27:22Z</time>
      </trkpt>
      <trkpt lat="45.86103" lon="4.82743">
        <ele>265</ele>
        <time>2011-06-02T07:27:23Z</time>
      </trkpt>
      <trkpt lat="45.86102" lon="4.82743">
        <ele>265</ele>
        <time>2011-06-02T07:27:24Z</time>
      </trkpt>
      <trkpt lat="45.861" lon="4.82742">
        <ele>265</ele>
        <time>2011-06-02T07:27:25Z</time>
      </trkpt>
      <trkpt lat="45.86099" lon="4.82741">
        <ele>265</ele>
        <time>2011-06-02T07:27:26Z</time>
      </trkpt>
      <trkpt lat="45.86097" lon="4.82741">
        <ele>265</ele>
        <time>2011-06-02T07:27:27Z</time>
      </trkpt>
      <trkpt lat="45.86095" lon="4.82741">
        <ele>265</ele>
        <time>2011-06-02T07:27:28Z</time>
      </trkpt>
      <trkpt lat="45.86094" lon="4.8274">
        <ele>265</ele>
        <time>2011-06-02T07:27:29Z</time>
      </trkpt>
      <trkpt lat="45.86092" lon="4.8274">
        <ele>265</ele>
        <time>2011-06-02T07:27:30Z</time>
      </trkpt>
      <trkpt lat="45.86091" lon="4.8274">
        <ele>265</ele>
        <time>2011-06-02T07:27:31Z</time>
      </trkpt>
      <trkpt lat="45.86089" lon="4.8274">
        <ele>265</ele>
        <time>2011-06-02T07:27:32Z</time>
      </trkpt>
      <trkpt lat="45.86087" lon="4.8274">
        <ele>265</ele>
        <time>2011-06-02T07:27:33Z</time>
      </trkpt>
      <trkpt lat="45.86085" lon="4.8274">
        <ele>265</ele>
        <time>2011-06-02T07:27:34Z</time>
      </trkpt>
      <trkpt lat="45.86084" lon="4.82741">
        <ele>265</ele>
        <time>2011-06-02T07:27:35Z</time>
      </trkpt>
      <trkpt lat="45.86082" lon="4.82741">
        <ele>265</ele>
        <time>2011-06-02T07:27:36Z</time>
      </trkpt>
      <trkpt lat="45.8608" lon="4.82741">
        <ele>265</ele>
        <time>2011-06-02T07:27:37Z</time>
      </trkpt>
      <trkpt lat="45.86079" lon="4.8274">
        <ele>265</ele>
        <time>2011-06-02T07:27:38Z</time>
      </trkpt>
      <trkpt lat="45.86077" lon="4.8274">
        <ele>265</ele>
        <time>2011-06-02T07:27:39Z</time>
      </trkpt>
      <trkpt lat="45.86076" lon="4.8274">
        <ele>265</ele>
        <time>2011-06-02T07:27:40Z</time>
      </trkpt>
      <trkpt lat="45.86074" lon="4.8274">
        <ele>265</ele>
        <time>2011-06-02T07:27:41Z</time>
      </trkpt>
      <trkpt lat="45.86073" lon="4.8274">
        <ele>265</ele>
        <time>2011-06-02T07:27:42Z</time>
      </trkpt>
      <trkpt lat="45.86071" lon="4.8274">
        <ele>265</ele>
        <time>2011-06-02T07:27:43Z</time>
      </trkpt>
      <trkpt lat="45.8607" lon="4.8274">
        <ele>265</ele>
        <time>2011-06-02T07:27:44Z</time>
      </trkpt>
      <trkpt lat="45.86068" lon="4.8274">
        <ele>265</ele>
        <time>2011-06-02T07:27:45Z</time>
      </trkpt>
      <trkpt lat="45.86066" lon="4.8274">
        <ele>266</ele>
        <time>2011-06-02T07:27:46Z</time>
      </trkpt>
      <trkpt lat="45.86065" lon="4.8274">
        <ele>266</ele>
        <time>2011-06-02T07:27:47Z</time>
      </trkpt>
      <trkpt lat="45.86063" lon="4.8274">
        <ele>266</ele>
        <time>2011-06-02T07:27:48Z</time>
      </trkpt>
      <trkpt lat="45.86061" lon="4.82739">
        <ele>267</ele>
        <time>2011-06-02T07:27:50Z</time>
      </trkpt>
      <trkpt lat="45.8606" lon="4.82739">
        <ele>267</ele>
        <time>2011-06-02T07:27:51Z</time>
      </trkpt>
      <trkpt lat="45.86059" lon="4.82739">
        <ele>268</ele>
        <time>2011-06-02T07:27:52Z</time>
      </trkpt>
      <trkpt lat="45.86057" lon="4.82739">
        <ele>268</ele>
        <time>2011-06-02T07:27:53Z</time>
      </trkpt>
      <trkpt lat="45.86056" lon="4.82739">
        <ele>268</ele>
        <time>2011-06-02T07:27:54Z</time>
      </trkpt>
      <trkpt lat="45.86054" lon="4.82739">
        <ele>268</ele>
        <time>2011-06-02T07:27:55Z</time>
      </trkpt>
      <trkpt lat="45.86053" lon="4.82739">
        <ele>269</ele>
        <time>2011-06-02T07:27:56Z</time>
      </trkpt>
      <trkpt lat="45.86051" lon="4.82739">
        <ele>269</ele>
        <time>2011-06-02T07:27:57Z</time>
      </trkpt>
      <trkpt lat="45.8605" lon="4.82738">
        <ele>269</ele>
        <time>2011-06-02T07:27:58Z</time>
      </trkpt>
      <trkpt lat="45.86049" lon="4.82738">
        <ele>269</ele>
        <time>2011-06-02T07:27:59Z</time>
      </trkpt>
      <trkpt lat="45.86047" lon="4.82738">
        <ele>270</ele>
        <time>2011-06-02T07:28:00Z</time>
      </trkpt>
      <trkpt lat="45.86046" lon="4.82738">
        <ele>270</ele>
        <time>2011-06-02T07:28:01Z</time>
      </trkpt>
      <trkpt lat="45.86044" lon="4.82738">
        <ele>270</ele>
        <time>2011-06-02T07:28:02Z</time>
      </trkpt>
      <trkpt lat="45.86043" lon="4.82738">
        <ele>271</ele>
        <time>2011-06-02T07:28:03Z</time>
      </trkpt>
      <trkpt lat="45.86042" lon="4.82738">
        <ele>271</ele>
        <time>2011-06-02T07:28:04Z</time>
      </trkpt>
      <trkpt lat="45.86041" lon="4.82738">
        <ele>271</ele>
        <time>2011-06-02T07:28:05Z</time>
      </trkpt>
      <trkpt lat="45.86039" lon="4.82737">
        <ele>271</ele>
        <time>2011-06-02T07:28:07Z</time>
      </trkpt>
      <trkpt lat="45.86037" lon="4.82737">
        <ele>271</ele>
        <time>2011-06-02T07:28:09Z</time>
      </trkpt>
      <trkpt lat="45.86035" lon="4.82737">
        <ele>271</ele>
        <time>2011-06-02T07:28:10Z</time>
      </trkpt>
      <trkpt lat="45.86034" lon="4.82737">
        <ele>271</ele>
        <time>2011-06-02T07:28:11Z</time>
      </trkpt>
      <trkpt lat="45.86032" lon="4.82736">
        <ele>271</ele>
        <time>2011-06-02T07:28:12Z</time>
      </trkpt>
      <trkpt lat="45.86031" lon="4.82736">
        <ele>271</ele>
        <time>2011-06-02T07:28:14Z</time>
      </trkpt>
      <trkpt lat="45.86029" lon="4.82736">
        <ele>271</ele>
        <time>2011-06-02T07:28:14Z</time>
      </trkpt>
      <trkpt lat="45.86028" lon="4.82736">
        <ele>271</ele>
        <time>2011-06-02T07:28:15Z</time>
      </trkpt>
      <trkpt lat="45.86026" lon="4.82736">
        <ele>271</ele>
        <time>2011-06-02T07:28:16Z</time>
      </trkpt>
      <trkpt lat="45.86025" lon="4.82736">
        <ele>271</ele>
        <time>2011-06-02T07:28:17Z</time>
      </trkpt>
      <trkpt lat="45.86024" lon="4.82735">
        <ele>271</ele>
        <time>2011-06-02T07:28:18Z</time>
      </trkpt>
      <trkpt lat="45.86023" lon="4.82735">
        <ele>271</ele>
        <time>2011-06-02T07:28:19Z</time>
      </trkpt>
      <trkpt lat="45.8602" lon="4.82733">
        <ele>271</ele>
        <time>2011-06-02T07:28:21Z</time>
      </trkpt>
      <trkpt lat="45.8602" lon="4.82732">
        <ele>271</ele>
        <time>2011-06-02T07:28:22Z</time>
      </trkpt>
      <trkpt lat="45.86019" lon="4.82729">
        <ele>271</ele>
        <time>2011-06-02T07:28:24Z</time>
      </trkpt>
      <trkpt lat="45.86018" lon="4.82728">
        <ele>271</ele>
        <time>2011-06-02T07:28:27Z</time>
      </trkpt>
      <trkpt lat="45.86017" lon="4.82726">
        <ele>271</ele>
        <time>2011-06-02T07:28:32Z</time>
      </trkpt>
      <trkpt lat="45.86016" lon="4.82724">
        <ele>271</ele>
        <time>2011-06-02T07:28:35Z</time>
      </trkpt>
      <trkpt lat="45.86015" lon="4.82723">
        <ele>274</ele>
        <time>2011-06-02T07:28:43Z</time>
      </trkpt>
      <trkpt lat="45.86015" lon="4.82721">
        <ele>278</ele>
        <time>2011-06-02T07:28:49Z</time>
      </trkpt>
      <trkpt lat="45.86014" lon="4.82722">
        <ele>281</ele>
        <time>2011-06-02T07:29:08Z</time>
      </trkpt>
      <trkpt lat="45.86014" lon="4.82723">
        <ele>282</ele>
        <time>2011-06-02T07:29:39Z</time>
      </trkpt>
      <trkpt lat="45.86013" lon="4.82725">
        <ele>282</ele>
        <time>2011-06-02T07:29:45Z</time>
      </trkpt>
      <trkpt lat="45.86013" lon="4.82726">
        <ele>282</ele>
        <time>2011-06-02T07:30:21Z</time>
      </trkpt>
      <trkpt lat="45.86014" lon="4.82725">
        <ele>282</ele>
        <time>2011-06-02T07:30:27Z</time>
      </trkpt>
      <trkpt lat="45.86016" lon="4.82723">
        <ele>282</ele>
        <time>2011-06-02T07:30:30Z</time>
      </trkpt>
      <trkpt lat="45.86016" lon="4.82721">
        <ele>282</ele>
        <time>2011-06-02T07:30:32Z</time>
      </trkpt>
      <trkpt lat="45.86017" lon="4.8272">
        <ele>282</ele>
        <time>2011-06-02T07:30:34Z</time>
      </trkpt>
      <trkpt lat="45.86016" lon="4.82718">
        <ele>282</ele>
        <time>2011-06-02T07:30:36Z</time>
      </trkpt>
      <trkpt lat="45.86016" lon="4.82717">
        <ele>282</ele>
        <time>2011-06-02T07:30:38Z</time>
      </trkpt>
      <trkpt lat="45.86016" lon="4.82715">
        <ele>282</ele>
        <time>2011-06-02T07:30:42Z</time>
      </trkpt>
      <trkpt lat="45.86017" lon="4.82714">
        <ele>282</ele>
        <time>2011-06-02T07:30:46Z</time>
      </trkpt>
      <trkpt lat="45.86017" lon="4.82712">
        <ele>282</ele>
        <time>2011-06-02T07:30:52Z</time>
      </trkpt>
      <trkpt lat="45.86016" lon="4.82713">
        <ele>282</ele>
        <time>2011-06-02T07:30:57Z</time>
      </trkpt>
      <trkpt lat="45.86015" lon="4.82715">
        <ele>282</ele>
        <time>2011-06-02T07:31:00Z</time>
      </trkpt>
      <trkpt lat="45.86015" lon="4.82716">
        <ele>281</ele>
        <time>2011-06-02T07:31:06Z</time>
      </trkpt>
      <trkpt lat="45.86015" lon="4.82718">
        <ele>280</ele>
        <time>2011-06-02T07:31:11Z</time>
      </trkpt>
      <trkpt lat="45.86016" lon="4.82719">
        <ele>280</ele>
        <time>2011-06-02T07:31:16Z</time>
      </trkpt>
      <trkpt lat="45.86015" lon="4.82721">
        <ele>280</ele>
        <time>2011-06-02T07:31:20Z</time>
      </trkpt>
      <trkpt lat="45.86015" lon="4.82723">
        <ele>280</ele>
        <time>2011-06-02T07:31:26Z</time>
      </trkpt>
      <trkpt lat="45.86015" lon="4.82725">
        <ele>280</ele>
        <time>2011-06-02T07:31:30Z</time>
      </trkpt>
      <trkpt lat="45.86014" lon="4.82726">
        <ele>280</ele>
        <time>2011-06-02T07:31:35Z</time>
      </trkpt>
      <trkpt lat="45.86015" lon="4.82728">
        <ele>280</ele>
        <time>2011-06-02T07:31:42Z</time>
      </trkpt>
      <trkpt lat="45.86016" lon="4.82728">
        <ele>280</ele>
        <time>2011-06-02T07:31:54Z</time>
      </trkpt>
      <trkpt lat="45.86017" lon="4.82726">
        <ele>280</ele>
        <time>2011-06-02T07:32:04Z</time>
      </trkpt>
      <trkpt lat="45.86018" lon="4.82725">
        <ele>280</ele>
        <time>2011-06-02T07:32:18Z</time>
      </trkpt>
      <trkpt lat="45.8602" lon="4.82725">
        <ele>280</ele>
        <time>2011-06-02T07:32:20Z</time>
      </trkpt>
      <trkpt lat="45.86021" lon="4.82724">
        <ele>280</ele>
        <time>2011-06-02T07:32:21Z</time>
      </trkpt>
      <trkpt lat="45.86023" lon="4.82723">
        <ele>280</ele>
        <time>2011-06-02T07:32:22Z</time>
      </trkpt>
      <trkpt lat="45.86024" lon="4.82722">
        <ele>280</ele>
        <time>2011-06-02T07:32:23Z</time>
      </trkpt>
      <trkpt lat="45.86025" lon="4.82721">
        <ele>280</ele>
        <time>2011-06-02T07:32:24Z</time>
      </trkpt>
      <trkpt lat="45.86027" lon="4.82721">
        <ele>280</ele>
        <time>2011-06-02T07:32:25Z</time>
      </trkpt>
      <trkpt lat="45.86029" lon="4.8272">
        <ele>280</ele>
        <time>2011-06-02T07:32:27Z</time>
      </trkpt>
      <trkpt lat="45.8603" lon="4.82719">
        <ele>280</ele>
        <time>2011-06-02T07:32:28Z</time>
      </trkpt>
      <trkpt lat="45.86031" lon="4.82717">
        <ele>280</ele>
        <time>2011-06-02T07:32:30Z</time>
      </trkpt>
      <trkpt lat="45.86033" lon="4.82716">
        <ele>280</ele>
        <time>2011-06-02T07:32:34Z</time>
      </trkpt>
      <trkpt lat="45.86034" lon="4.82715">
        <ele>280</ele>
        <time>2011-06-02T07:32:36Z</time>
      </trkpt>
      <trkpt lat="45.86036" lon="4.82714">
        <ele>280</ele>
        <time>2011-06-02T07:32:38Z</time>
      </trkpt>
      <trkpt lat="45.86036" lon="4.82713">
        <ele>281</ele>
        <time>2011-06-02T07:32:44Z</time>
      </trkpt>
      <trkpt lat="45.86038" lon="4.82712">
        <ele>282</ele>
        <time>2011-06-02T07:32:46Z</time>
      </trkpt>
      <trkpt lat="45.8604" lon="4.82711">
        <ele>282</ele>
        <time>2011-06-02T07:32:54Z</time>
      </trkpt>
      <trkpt lat="45.86041" lon="4.8271">
        <ele>282</ele>
        <time>2011-06-02T07:32:57Z</time>
      </trkpt>
      <trkpt lat="45.86043" lon="4.82707">
        <ele>282</ele>
        <time>2011-06-02T07:32:59Z</time>
      </trkpt>
      <trkpt lat="45.86044" lon="4.82706">
        <ele>282</ele>
        <time>2011-06-02T07:33:00Z</time>
      </trkpt>
      <trkpt lat="45.86045" lon="4.82704">
        <ele>282</ele>
        <time>2011-06-02T07:33:02Z</time>
      </trkpt>
      <trkpt lat="45.86047" lon="4.82703">
        <ele>282</ele>
        <time>2011-06-02T07:33:04Z</time>
      </trkpt>
      <trkpt lat="45.86049" lon="4.82701">
        <ele>282</ele>
        <time>2011-06-02T07:33:06Z</time>
      </trkpt>
      <trkpt lat="45.8605" lon="4.827">
        <ele>282</ele>
        <time>2011-06-02T07:33:07Z</time>
      </trkpt>
      <trkpt lat="45.86051" lon="4.82699">
        <ele>282</ele>
        <time>2011-06-02T07:33:08Z</time>
      </trkpt>
      <trkpt lat="45.86052" lon="4.82699">
        <ele>282</ele>
        <time>2011-06-02T07:33:09Z</time>
      </trkpt>
      <trkpt lat="45.86054" lon="4.82698">
        <ele>282</ele>
        <time>2011-06-02T07:33:11Z</time>
      </trkpt>
      <trkpt lat="45.86056" lon="4.82698">
        <ele>282</ele>
        <time>2011-06-02T07:33:13Z</time>
      </trkpt>
      <trkpt lat="45.86058" lon="4.82696">
        <ele>283</ele>
        <time>2011-06-02T07:33:15Z</time>
      </trkpt>
      <trkpt lat="45.8606" lon="4.82694">
        <ele>283</ele>
        <time>2011-06-02T07:33:17Z</time>
      </trkpt>
      <trkpt lat="45.86062" lon="4.82692">
        <ele>283</ele>
        <time>2011-06-02T07:33:19Z</time>
      </trkpt>
      <trkpt lat="45.86064" lon="4.8269">
        <ele>283</ele>
        <time>2011-06-02T07:33:21Z</time>
      </trkpt>
      <trkpt lat="45.86065" lon="4.82689">
        <ele>283</ele>
        <time>2011-06-02T07:33:22Z</time>
      </trkpt>
      <trkpt lat="45.86067" lon="4.82689">
        <ele>283</ele>
        <time>2011-06-02T07:33:23Z</time>
      </trkpt>
      <trkpt lat="45.86068" lon="4.82688">
        <ele>283</ele>
        <time>2011-06-02T07:33:24Z</time>
      </trkpt>
      <trkpt lat="45.8607" lon="4.82687">
        <ele>283</ele>
        <time>2011-06-02T07:33:25Z</time>
      </trkpt>
      <trkpt lat="45.86071" lon="4.82686">
        <ele>283</ele>
        <time>2011-06-02T07:33:26Z</time>
      </trkpt>
      <trkpt lat="45.86072" lon="4.82685">
        <ele>284</ele>
        <time>2011-06-02T07:33:27Z</time>
      </trkpt>
      <trkpt lat="45.86074" lon="4.82684">
        <ele>285</ele>
        <time>2011-06-02T07:33:29Z</time>
      </trkpt>
      <trkpt lat="45.86076" lon="4.82683">
        <ele>285</ele>
        <time>2011-06-02T07:33:30Z</time>
      </trkpt>
      <trkpt lat="45.86077" lon="4.82683">
        <ele>286</ele>
        <time>2011-06-02T07:33:31Z</time>
      </trkpt>
      <trkpt lat="45.86079" lon="4.82681">
        <ele>286</ele>
        <time>2011-06-02T07:33:33Z</time>
      </trkpt>
      <trkpt lat="45.86081" lon="4.8268">
        <ele>287</ele>
        <time>2011-06-02T07:33:34Z</time>
      </trkpt>
      <trkpt lat="45.86082" lon="4.82679">
        <ele>287</ele>
        <time>2011-06-02T07:33:35Z</time>
      </trkpt>
      <trkpt lat="45.86084" lon="4.82677">
        <ele>288</ele>
        <time>2011-06-02T07:33:37Z</time>
      </trkpt>
      <trkpt lat="45.86085" lon="4.82676">
        <ele>288</ele>
        <time>2011-06-02T07:33:38Z</time>
      </trkpt>
      <trkpt lat="45.86086" lon="4.82675">
        <ele>289</ele>
        <time>2011-06-02T07:33:39Z</time>
      </trkpt>
      <trkpt lat="45.86087" lon="4.82674">
        <ele>289</ele>
        <time>2011-06-02T07:33:40Z</time>
      </trkpt>
      <trkpt lat="45.86089" lon="4.82673">
        <ele>289</ele>
        <time>2011-06-02T07:33:41Z</time>
      </trkpt>
      <trkpt lat="45.8609" lon="4.82671">
        <ele>290</ele>
        <time>2011-06-02T07:33:43Z</time>
      </trkpt>
      <trkpt lat="45.86091" lon="4.8267">
        <ele>290</ele>
        <time>2011-06-02T07:33:44Z</time>
      </trkpt>
      <trkpt lat="45.86092" lon="4.82669">
        <ele>290</ele>
        <time>2011-06-02T07:33:45Z</time>
      </trkpt>
      <trkpt lat="45.86094" lon="4.82668">
        <ele>290</ele>
        <time>2011-06-02T07:33:46Z</time>
      </trkpt>
      <trkpt lat="45.86095" lon="4.82666">
        <ele>291</ele>
        <time>2011-06-02T07:33:48Z</time>
      </trkpt>
      <trkpt lat="45.86097" lon="4.82664">
        <ele>291</ele>
        <time>2011-06-02T07:33:49Z</time>
      </trkpt>
      <trkpt lat="45.86099" lon="4.82664">
        <ele>291</ele>
        <time>2011-06-02T07:33:51Z</time>
      </trkpt>
      <trkpt lat="45.861" lon="4.82663">
        <ele>291</ele>
        <time>2011-06-02T07:33:52Z</time>
      </trkpt>
      <trkpt lat="45.86101" lon="4.82662">
        <ele>291</ele>
        <time>2011-06-02T07:33:53Z</time>
      </trkpt>
      <trkpt lat="45.86103" lon="4.82662">
        <ele>291</ele>
        <time>2011-06-02T07:33:54Z</time>
      </trkpt>
      <trkpt lat="45.86105" lon="4.8266">
        <ele>291</ele>
        <time>2011-06-02T07:33:56Z</time>
      </trkpt>
      <trkpt lat="45.86107" lon="4.82658">
        <ele>291</ele>
        <time>2011-06-02T07:33:58Z</time>
      </trkpt>
      <trkpt lat="45.86108" lon="4.82657">
        <ele>291</ele>
        <time>2011-06-02T07:34:00Z</time>
      </trkpt>
      <trkpt lat="45.8611" lon="4.82657">
        <ele>291</ele>
        <time>2011-06-02T07:34:01Z</time>
      </trkpt>
      <trkpt lat="45.86112" lon="4.82656">
        <ele>291</ele>
        <time>2011-06-02T07:34:02Z</time>
      </trkpt>
      <trkpt lat="45.86115" lon="4.82655">
        <ele>291</ele>
        <time>2011-06-02T07:34:04Z</time>
      </trkpt>
      <trkpt lat="45.86116" lon="4.82655">
        <ele>291</ele>
        <time>2011-06-02T07:34:05Z</time>
      </trkpt>
      <trkpt lat="45.86118" lon="4.82654">
        <ele>293</ele>
        <time>2011-06-02T07:34:07Z</time>
      </trkpt>
      <trkpt lat="45.86119" lon="4.82654">
        <ele>294</ele>
        <time>2011-06-02T07:34:08Z</time>
      </trkpt>
      <trkpt lat="45.86121" lon="4.82653">
        <ele>295</ele>
        <time>2011-06-02T07:34:09Z</time>
      </trkpt>
      <trkpt lat="45.86123" lon="4.82651">
        <ele>296</ele>
        <time>2011-06-02T07:34:11Z</time>
      </trkpt>
      <trkpt lat="45.86124" lon="4.8265">
        <ele>296</ele>
        <time>2011-06-02T07:34:12Z</time>
      </trkpt>
      <trkpt lat="45.86125" lon="4.82649">
        <ele>296</ele>
        <time>2011-06-02T07:34:13Z</time>
      </trkpt>
      <trkpt lat="45.86126" lon="4.82648">
        <ele>296</ele>
        <time>2011-06-02T07:34:15Z</time>
      </trkpt>
      <trkpt lat="45.86127" lon="4.82648">
        <ele>296</ele>
        <time>2011-06-02T07:34:16Z</time>
      </trkpt>
      <trkpt lat="45.8613" lon="4.82646">
        <ele>297</ele>
        <time>2011-06-02T07:34:18Z</time>
      </trkpt>
      <trkpt lat="45.86131" lon="4.82645">
        <ele>298</ele>
        <time>2011-06-02T07:34:20Z</time>
      </trkpt>
      <trkpt lat="45.86133" lon="4.82643">
        <ele>298</ele>
        <time>2011-06-02T07:34:21Z</time>
      </trkpt>
      <trkpt lat="45.86134" lon="4.82642">
        <ele>299</ele>
        <time>2011-06-02T07:34:22Z</time>
      </trkpt>
      <trkpt lat="45.86136" lon="4.82641">
        <ele>300</ele>
        <time>2011-06-02T07:34:24Z</time>
      </trkpt>
      <trkpt lat="45.86137" lon="4.8264">
        <ele>300</ele>
        <time>2011-06-02T07:34:25Z</time>
      </trkpt>
      <trkpt lat="45.86138" lon="4.82639">
        <ele>300</ele>
        <time>2011-06-02T07:34:26Z</time>
      </trkpt>
      <trkpt lat="45.8614" lon="4.82637">
        <ele>300</ele>
        <time>2011-06-02T07:34:29Z</time>
      </trkpt>
      <trkpt lat="45.86142" lon="4.82635">
        <ele>300</ele>
        <time>2011-06-02T07:34:30Z</time>
      </trkpt>
      <trkpt lat="45.86143" lon="4.82634">
        <ele>300</ele>
        <time>2011-06-02T07:34:31Z</time>
      </trkpt>
      <trkpt lat="45.86144" lon="4.82633">
        <ele>300</ele>
        <time>2011-06-02T07:34:32Z</time>
      </trkpt>
      <trkpt lat="45.86145" lon="4.82632">
        <ele>300</ele>
        <time>2011-06-02T07:34:33Z</time>
      </trkpt>
      <trkpt lat="45.86147" lon="4.8263">
        <ele>300</ele>
        <time>2011-06-02T07:34:35Z</time>
      </trkpt>
      <trkpt lat="45.86148" lon="4.8263">
        <ele>300</ele>
        <time>2011-06-02T07:34:37Z</time>
      </trkpt>
      <trkpt lat="45.8615" lon="4.82629">
        <ele>300</ele>
        <time>2011-06-02T07:34:38Z</time>
      </trkpt>
      <trkpt lat="45.86152" lon="4.82628">
        <ele>300</ele>
        <time>2011-06-02T07:34:39Z</time>
      </trkpt>
      <trkpt lat="45.86153" lon="4.82627">
        <ele>300</ele>
        <time>2011-06-02T07:34:40Z</time>
      </trkpt>
      <trkpt lat="45.86155" lon="4.82626">
        <ele>301</ele>
        <time>2011-06-02T07:34:42Z</time>
      </trkpt>
      <trkpt lat="45.86157" lon="4.82626">
        <ele>301</ele>
        <time>2011-06-02T07:34:44Z</time>
      </trkpt>
      <trkpt lat="45.86159" lon="4.82624">
        <ele>301</ele>
        <time>2011-06-02T07:34:46Z</time>
      </trkpt>
      <trkpt lat="45.8616" lon="4.82623">
        <ele>301</ele>
        <time>2011-06-02T07:34:47Z</time>
      </trkpt>
      <trkpt lat="45.86161" lon="4.82622">
        <ele>301</ele>
        <time>2011-06-02T07:34:48Z</time>
      </trkpt>
      <trkpt lat="45.86163" lon="4.8262">
        <ele>301</ele>
        <time>2011-06-02T07:34:50Z</time>
      </trkpt>
      <trkpt lat="45.86165" lon="4.82619">
        <ele>301</ele>
        <time>2011-06-02T07:34:51Z</time>
      </trkpt>
      <trkpt lat="45.86167" lon="4.82617">
        <ele>301</ele>
        <time>2011-06-02T07:34:53Z</time>
      </trkpt>
      <trkpt lat="45.86168" lon="4.82617">
        <ele>301</ele>
        <time>2011-06-02T07:34:54Z</time>
      </trkpt>
      <trkpt lat="45.86171" lon="4.82614">
        <ele>301</ele>
        <time>2011-06-02T07:34:56Z</time>
      </trkpt>
      <trkpt lat="45.86172" lon="4.82612">
        <ele>301</ele>
        <time>2011-06-02T07:34:58Z</time>
      </trkpt>
      <trkpt lat="45.86173" lon="4.82611">
        <ele>301</ele>
        <time>2011-06-02T07:34:59Z</time>
      </trkpt>
      <trkpt lat="45.86175" lon="4.8261">
        <ele>301</ele>
        <time>2011-06-02T07:35:01Z</time>
      </trkpt>
      <trkpt lat="45.86177" lon="4.82609">
        <ele>301</ele>
        <time>2011-06-02T07:35:02Z</time>
      </trkpt>
      <trkpt lat="45.86179" lon="4.82607">
        <ele>301</ele>
        <time>2011-06-02T07:35:04Z</time>
      </trkpt>
      <trkpt lat="45.8618" lon="4.82605">
        <ele>301</ele>
        <time>2011-06-02T07:35:06Z</time>
      </trkpt>
      <trkpt lat="45.86182" lon="4.82603">
        <ele>301</ele>
        <time>2011-06-02T07:35:08Z</time>
      </trkpt>
      <trkpt lat="45.86183" lon="4.82601">
        <ele>301</ele>
        <time>2011-06-02T07:35:10Z</time>
      </trkpt>
      <trkpt lat="45.86185" lon="4.826">
        <ele>301</ele>
        <time>2011-06-02T07:35:12Z</time>
      </trkpt>
      <trkpt lat="45.86186" lon="4.82598">
        <ele>301</ele>
        <time>2011-06-02T07:35:14Z</time>
      </trkpt>
      <trkpt lat="45.86188" lon="4.82596">
        <ele>301</ele>
        <time>2011-06-02T07:35:16Z</time>
      </trkpt>
      <trkpt lat="45.8619" lon="4.82595">
        <ele>301</ele>
        <time>2011-06-02T07:35:17Z</time>
      </trkpt>
      <trkpt lat="45.86191" lon="4.82595">
        <ele>301</ele>
        <time>2011-06-02T07:35:18Z</time>
      </trkpt>
      <trkpt lat="45.86193" lon="4.82594">
        <ele>301</ele>
        <time>2011-06-02T07:35:19Z</time>
      </trkpt>
      <trkpt lat="45.86194" lon="4.82593">
        <ele>301</ele>
        <time>2011-06-02T07:35:21Z</time>
      </trkpt>
      <trkpt lat="45.86195" lon="4.82592">
        <ele>301</ele>
        <time>2011-06-02T07:35:23Z</time>
      </trkpt>
      <trkpt lat="45.86197" lon="4.82591">
        <ele>301</ele>
        <time>2011-06-02T07:35:25Z</time>
      </trkpt>
      <trkpt lat="45.86199" lon="4.82591">
        <ele>302</ele>
        <time>2011-06-02T07:35:27Z</time>
      </trkpt>
      <trkpt lat="45.862" lon="4.82589">
        <ele>302</ele>
        <time>2011-06-02T07:35:29Z</time>
      </trkpt>
      <trkpt lat="45.86202" lon="4.82587">
        <ele>303</ele>
        <time>2011-06-02T07:35:31Z</time>
      </trkpt>
      <trkpt lat="45.86204" lon="4.82587">
        <ele>303</ele>
        <time>2011-06-02T07:35:36Z</time>
      </trkpt>
      <trkpt lat="45.86206" lon="4.82584">
        <ele>303</ele>
        <time>2011-06-02T07:35:38Z</time>
      </trkpt>
      <trkpt lat="45.86207" lon="4.82583">
        <ele>303</ele>
        <time>2011-06-02T07:35:39Z</time>
      </trkpt>
      <trkpt lat="45.86209" lon="4.8258">
        <ele>303</ele>
        <time>2011-06-02T07:35:40Z</time>
      </trkpt>
      <trkpt lat="45.8621" lon="4.82579">
        <ele>303</ele>
        <time>2011-06-02T07:35:41Z</time>
      </trkpt>
      <trkpt lat="45.86211" lon="4.82578">
        <ele>303</ele>
        <time>2011-06-02T07:35:42Z</time>
      </trkpt>
      <trkpt lat="45.86213" lon="4.82576">
        <ele>303</ele>
        <time>2011-06-02T07:35:44Z</time>
      </trkpt>
      <trkpt lat="45.86215" lon="4.82575">
        <ele>305</ele>
        <time>2011-06-02T07:35:46Z</time>
      </trkpt>
      <trkpt lat="45.86216" lon="4.82574">
        <ele>305</ele>
        <time>2011-06-02T07:35:47Z</time>
      </trkpt>
      <trkpt lat="45.86218" lon="4.82574">
        <ele>306</ele>
        <time>2011-06-02T07:35:48Z</time>
      </trkpt>
      <trkpt lat="45.8622" lon="4.82574">
        <ele>308</ele>
        <time>2011-06-02T07:35:50Z</time>
      </trkpt>
      <trkpt lat="45.86222" lon="4.82571">
        <ele>309</ele>
        <time>2011-06-02T07:35:51Z</time>
      </trkpt>
      <trkpt lat="45.86223" lon="4.82569">
        <ele>310</ele>
        <time>2011-06-02T07:35:52Z</time>
      </trkpt>
      <trkpt lat="45.86225" lon="4.82567">
        <ele>311</ele>
        <time>2011-06-02T07:35:54Z</time>
      </trkpt>
      <trkpt lat="45.86227" lon="4.82564">
        <ele>312</ele>
        <time>2011-06-02T07:35:56Z</time>
      </trkpt>
      <trkpt lat="45.86228" lon="4.82561">
        <ele>312</ele>
        <time>2011-06-02T07:35:58Z</time>
      </trkpt>
      <trkpt lat="45.86229" lon="4.8256">
        <ele>312</ele>
        <time>2011-06-02T07:35:59Z</time>
      </trkpt>
      <trkpt lat="45.86229" lon="4.82558">
        <ele>312</ele>
        <time>2011-06-02T07:36:00Z</time>
      </trkpt>
      <trkpt lat="45.8623" lon="4.82557">
        <ele>312</ele>
        <time>2011-06-02T07:36:01Z</time>
      </trkpt>
      <trkpt lat="45.86232" lon="4.82555">
        <ele>312</ele>
        <time>2011-06-02T07:36:02Z</time>
      </trkpt>
      <trkpt lat="45.86232" lon="4.82554">
        <ele>312</ele>
        <time>2011-06-02T07:36:03Z</time>
      </trkpt>
      <trkpt lat="45.86234" lon="4.82552">
        <ele>312</ele>
        <time>2011-06-02T07:36:05Z</time>
      </trkpt>
      <trkpt lat="45.86235" lon="4.8255">
        <ele>312</ele>
        <time>2011-06-02T07:36:06Z</time>
      </trkpt>
      <trkpt lat="45.86235" lon="4.82549">
        <ele>312</ele>
        <time>2011-06-02T07:36:07Z</time>
      </trkpt>
      <trkpt lat="45.86238" lon="4.82546">
        <ele>312</ele>
        <time>2011-06-02T07:36:09Z</time>
      </trkpt>
      <trkpt lat="45.8624" lon="4.82543">
        <ele>312</ele>
        <time>2011-06-02T07:36:11Z</time>
      </trkpt>
      <trkpt lat="45.86242" lon="4.82542">
        <ele>312</ele>
        <time>2011-06-02T07:36:13Z</time>
      </trkpt>
      <trkpt lat="45.86243" lon="4.82539">
        <ele>312</ele>
        <time>2011-06-02T07:36:15Z</time>
      </trkpt>
      <trkpt lat="45.86245" lon="4.82536">
        <ele>312</ele>
        <time>2011-06-02T07:36:17Z</time>
      </trkpt>
      <trkpt lat="45.86246" lon="4.82534">
        <ele>312</ele>
        <time>2011-06-02T07:36:19Z</time>
      </trkpt>
      <trkpt lat="45.86247" lon="4.82533">
        <ele>312</ele>
        <time>2011-06-02T07:36:20Z</time>
      </trkpt>
      <trkpt lat="45.86248" lon="4.82531">
        <ele>312</ele>
        <time>2011-06-02T07:36:21Z</time>
      </trkpt>
      <trkpt lat="45.8625" lon="4.82529">
        <ele>312</ele>
        <time>2011-06-02T07:36:23Z</time>
      </trkpt>
      <trkpt lat="45.86251" lon="4.82527">
        <ele>312</ele>
        <time>2011-06-02T07:36:25Z</time>
      </trkpt>
      <trkpt lat="45.86252" lon="4.82524">
        <ele>312</ele>
        <time>2011-06-02T07:36:27Z</time>
      </trkpt>
      <trkpt lat="45.86254" lon="4.82522">
        <ele>312</ele>
        <time>2011-06-02T07:36:29Z</time>
      </trkpt>
      <trkpt lat="45.86255" lon="4.8252">
        <ele>312</ele>
        <time>2011-06-02T07:36:30Z</time>
      </trkpt>
      <trkpt lat="45.86257" lon="4.82518">
        <ele>312</ele>
        <time>2011-06-02T07:36:32Z</time>
      </trkpt>
      <trkpt lat="45.86258" lon="4.82516">
        <ele>312</ele>
        <time>2011-06-02T07:36:34Z</time>
      </trkpt>
      <trkpt lat="45.86259" lon="4.82514">
        <ele>312</ele>
        <time>2011-06-02T07:36:35Z</time>
      </trkpt>
      <trkpt lat="45.86261" lon="4.82512">
        <ele>312</ele>
        <time>2011-06-02T07:36:37Z</time>
      </trkpt>
      <trkpt lat="45.86262" lon="4.8251">
        <ele>312</ele>
        <time>2011-06-02T07:36:39Z</time>
      </trkpt>
      <trkpt lat="45.86263" lon="4.82508">
        <ele>312</ele>
        <time>2011-06-02T07:36:40Z</time>
      </trkpt>
      <trkpt lat="45.86264" lon="4.82506">
        <ele>312</ele>
        <time>2011-06-02T07:36:42Z</time>
      </trkpt>
      <trkpt lat="45.86266" lon="4.82504">
        <ele>312</ele>
        <time>2011-06-02T07:36:44Z</time>
      </trkpt>
      <trkpt lat="45.86267" lon="4.82501">
        <ele>312</ele>
        <time>2011-06-02T07:36:46Z</time>
      </trkpt>
      <trkpt lat="45.86268" lon="4.82498">
        <ele>312</ele>
        <time>2011-06-02T07:36:48Z</time>
      </trkpt>
      <trkpt lat="45.86269" lon="4.82496">
        <ele>312</ele>
        <time>2011-06-02T07:36:50Z</time>
      </trkpt>
      <trkpt lat="45.86271" lon="4.82493">
        <ele>312</ele>
        <time>2011-06-02T07:36:51Z</time>
      </trkpt>
      <trkpt lat="45.86273" lon="4.82491">
        <ele>312</ele>
        <time>2011-06-02T07:36:52Z</time>
      </trkpt>
      <trkpt lat="45.86274" lon="4.82489">
        <ele>312</ele>
        <time>2011-06-02T07:36:54Z</time>
      </trkpt>
      <trkpt lat="45.86275" lon="4.82488">
        <ele>312</ele>
        <time>2011-06-02T07:36:55Z</time>
      </trkpt>
      <trkpt lat="45.86276" lon="4.82486">
        <ele>312</ele>
        <time>2011-06-02T07:36:57Z</time>
      </trkpt>
      <trkpt lat="45.86277" lon="4.82485">
        <ele>312</ele>
        <time>2011-06-02T07:36:59Z</time>
      </trkpt>
      <trkpt lat="45.86278" lon="4.82482">
        <ele>312</ele>
        <time>2011-06-02T07:37:01Z</time>
      </trkpt>
      <trkpt lat="45.8628" lon="4.8248">
        <ele>312</ele>
        <time>2011-06-02T07:37:03Z</time>
      </trkpt>
      <trkpt lat="45.86281" lon="4.82478">
        <ele>312</ele>
        <time>2011-06-02T07:37:05Z</time>
      </trkpt>
      <trkpt lat="45.86282" lon="4.82477">
        <ele>312</ele>
        <time>2011-06-02T07:37:06Z</time>
      </trkpt>
      <trkpt lat="45.86283" lon="4.82475">
        <ele>313</ele>
        <time>2011-06-02T07:37:07Z</time>
      </trkpt>
      <trkpt lat="45.86284" lon="4.82474">
        <ele>313</ele>
        <time>2011-06-02T07:37:09Z</time>
      </trkpt>
      <trkpt lat="45.86285" lon="4.82471">
        <ele>313</ele>
        <time>2011-06-02T07:37:11Z</time>
      </trkpt>
      <trkpt lat="45.86286" lon="4.82469">
        <ele>314</ele>
        <time>2011-06-02T07:37:12Z</time>
      </trkpt>
      <trkpt lat="45.86286" lon="4.82467">
        <ele>314</ele>
        <time>2011-06-02T07:37:13Z</time>
      </trkpt>
      <trkpt lat="45.86286" lon="4.82466">
        <ele>314</ele>
        <time>2011-06-02T07:37:14Z</time>
      </trkpt>
      <trkpt lat="45.86288" lon="4.82464">
        <ele>314</ele>
        <time>2011-06-02T07:37:16Z</time>
      </trkpt>
      <trkpt lat="45.8629" lon="4.8246">
        <ele>314</ele>
        <time>2011-06-02T07:37:18Z</time>
      </trkpt>
      <trkpt lat="45.8629" lon="4.82459">
        <ele>314</ele>
        <time>2011-06-02T07:37:19Z</time>
      </trkpt>
      <trkpt lat="45.8629" lon="4.82457">
        <ele>314</ele>
        <time>2011-06-02T07:37:20Z</time>
      </trkpt>
      <trkpt lat="45.86291" lon="4.82455">
        <ele>314</ele>
        <time>2011-06-02T07:37:21Z</time>
      </trkpt>
      <trkpt lat="45.86292" lon="4.82453">
        <ele>314</ele>
        <time>2011-06-02T07:37:23Z</time>
      </trkpt>
      <trkpt lat="45.86293" lon="4.8245">
        <ele>314</ele>
        <time>2011-06-02T07:37:25Z</time>
      </trkpt>
      <trkpt lat="45.86294" lon="4.82449">
        <ele>314</ele>
        <time>2011-06-02T07:37:26Z</time>
      </trkpt>
      <trkpt lat="45.86294" lon="4.82447">
        <ele>314</ele>
        <time>2011-06-02T07:37:27Z</time>
      </trkpt>
      <trkpt lat="45.86294" lon="4.82445">
        <ele>314</ele>
        <time>2011-06-02T07:37:29Z</time>
      </trkpt>
      <trkpt lat="45.86295" lon="4.82443">
        <ele>314</ele>
        <time>2011-06-02T07:37:31Z</time>
      </trkpt>
      <trkpt lat="45.86295" lon="4.82441">
        <ele>314</ele>
        <time>2011-06-02T07:37:32Z</time>
      </trkpt>
      <trkpt lat="45.86296" lon="4.82439">
        <ele>314</ele>
        <time>2011-06-02T07:37:33Z</time>
      </trkpt>
      <trkpt lat="45.86296" lon="4.82437">
        <ele>314</ele>
        <time>2011-06-02T07:37:35Z</time>
      </trkpt>
      <trkpt lat="45.86296" lon="4.82435">
        <ele>314</ele>
        <time>2011-06-02T07:37:36Z</time>
      </trkpt>
      <trkpt lat="45.86297" lon="4.82433">
        <ele>314</ele>
        <time>2011-06-02T07:37:37Z</time>
      </trkpt>
      <trkpt lat="45.86297" lon="4.82431">
        <ele>314</ele>
        <time>2011-06-02T07:37:39Z</time>
      </trkpt>
      <trkpt lat="45.86298" lon="4.82428">
        <ele>314</ele>
        <time>2011-06-02T07:37:41Z</time>
      </trkpt>
      <trkpt lat="45.86298" lon="4.82427">
        <ele>314</ele>
        <time>2011-06-02T07:37:42Z</time>
      </trkpt>
      <trkpt lat="45.86299" lon="4.82424">
        <ele>314</ele>
        <time>2011-06-02T07:37:44Z</time>
      </trkpt>
      <trkpt lat="45.863" lon="4.82421">
        <ele>314</ele>
        <time>2011-06-02T07:37:46Z</time>
      </trkpt>
      <trkpt lat="45.863" lon="4.82419">
        <ele>314</ele>
        <time>2011-06-02T07:37:47Z</time>
      </trkpt>
      <trkpt lat="45.863" lon="4.82417">
        <ele>314</ele>
        <time>2011-06-02T07:37:50Z</time>
      </trkpt>
      <trkpt lat="45.863" lon="4.82416">
        <ele>314</ele>
        <time>2011-06-02T07:37:51Z</time>
      </trkpt>
      <trkpt lat="45.86301" lon="4.82413">
        <ele>314</ele>
        <time>2011-06-02T07:37:52Z</time>
      </trkpt>
      <trkpt lat="45.86301" lon="4.82412">
        <ele>314</ele>
        <time>2011-06-02T07:37:53Z</time>
      </trkpt>
      <trkpt lat="45.86301" lon="4.8241">
        <ele>314</ele>
        <time>2011-06-02T07:37:54Z</time>
      </trkpt>
      <trkpt lat="45.86301" lon="4.82408">
        <ele>314</ele>
        <time>2011-06-02T07:37:55Z</time>
      </trkpt>
      <trkpt lat="45.86301" lon="4.82405">
        <ele>314</ele>
        <time>2011-06-02T07:37:57Z</time>
      </trkpt>
      <trkpt lat="45.86301" lon="4.82403">
        <ele>314</ele>
        <time>2011-06-02T07:37:58Z</time>
      </trkpt>
      <trkpt lat="45.86301" lon="4.82401">
        <ele>314</ele>
        <time>2011-06-02T07:37:59Z</time>
      </trkpt>
      <trkpt lat="45.863" lon="4.82399">
        <ele>314</ele>
        <time>2011-06-02T07:38:00Z</time>
      </trkpt>
      <trkpt lat="45.863" lon="4.82398">
        <ele>314</ele>
        <time>2011-06-02T07:38:01Z</time>
      </trkpt>
      <trkpt lat="45.863" lon="4.82396">
        <ele>314</ele>
        <time>2011-06-02T07:38:02Z</time>
      </trkpt>
      <trkpt lat="45.86299" lon="4.82394">
        <ele>314</ele>
        <time>2011-06-02T07:38:04Z</time>
      </trkpt>
      <trkpt lat="45.86297" lon="4.82391">
        <ele>314</ele>
        <time>2011-06-02T07:38:06Z</time>
      </trkpt>
      <trkpt lat="45.86295" lon="4.82389">
        <ele>314</ele>
        <time>2011-06-02T07:38:08Z</time>
      </trkpt>
      <trkpt lat="45.86293" lon="4.82389">
        <ele>314</ele>
        <time>2011-06-02T07:38:09Z</time>
      </trkpt>
      <trkpt lat="45.86292" lon="4.82389">
        <ele>314</ele>
        <time>2011-06-02T07:38:11Z</time>
      </trkpt>
      <trkpt lat="45.8629" lon="4.82391">
        <ele>314</ele>
        <time>2011-06-02T07:38:13Z</time>
      </trkpt>
      <trkpt lat="45.8629" lon="4.82393">
        <ele>314</ele>
        <time>2011-06-02T07:38:14Z</time>
      </trkpt>
      <trkpt lat="45.86289" lon="4.82394">
        <ele>314</ele>
        <time>2011-06-02T07:38:15Z</time>
      </trkpt>
      <trkpt lat="45.86288" lon="4.82396">
        <ele>314</ele>
        <time>2011-06-02T07:38:16Z</time>
      </trkpt>
      <trkpt lat="45.86287" lon="4.82398">
        <ele>314</ele>
        <time>2011-06-02T07:38:18Z</time>
      </trkpt>
      <trkpt lat="45.86286" lon="4.824">
        <ele>314</ele>
        <time>2011-06-02T07:38:20Z</time>
      </trkpt>
      <trkpt lat="45.86284" lon="4.82403">
        <ele>315</ele>
        <time>2011-06-02T07:38:22Z</time>
      </trkpt>
      <trkpt lat="45.86282" lon="4.82405">
        <ele>316</ele>
        <time>2011-06-02T07:38:24Z</time>
      </trkpt>
      <trkpt lat="45.8628" lon="4.82406">
        <ele>317</ele>
        <time>2011-06-02T07:38:26Z</time>
      </trkpt>
      <trkpt lat="45.86279" lon="4.82407">
        <ele>318</ele>
        <time>2011-06-02T07:38:27Z</time>
      </trkpt>
      <trkpt lat="45.86277" lon="4.82408">
        <ele>318</ele>
        <time>2011-06-02T07:38:29Z</time>
      </trkpt>
      <trkpt lat="45.86275" lon="4.8241">
        <ele>318</ele>
        <time>2011-06-02T07:38:31Z</time>
      </trkpt>
      <trkpt lat="45.86273" lon="4.82413">
        <ele>318</ele>
        <time>2011-06-02T07:38:33Z</time>
      </trkpt>
      <trkpt lat="45.86272" lon="4.82414">
        <ele>319</ele>
        <time>2011-06-02T07:38:35Z</time>
      </trkpt>
      <trkpt lat="45.86269" lon="4.82417">
        <ele>320</ele>
        <time>2011-06-02T07:38:37Z</time>
      </trkpt>
      <trkpt lat="45.86268" lon="4.82418">
        <ele>321</ele>
        <time>2011-06-02T07:38:38Z</time>
      </trkpt>
      <trkpt lat="45.86266" lon="4.82419">
        <ele>322</ele>
        <time>2011-06-02T07:38:39Z</time>
      </trkpt>
      <trkpt lat="45.86264" lon="4.82419">
        <ele>322</ele>
        <time>2011-06-02T07:38:40Z</time>
      </trkpt>
      <trkpt lat="45.86263" lon="4.8242">
        <ele>322</ele>
        <time>2011-06-02T07:38:41Z</time>
      </trkpt>
      <trkpt lat="45.86261" lon="4.82421">
        <ele>323</ele>
        <time>2011-06-02T07:38:42Z</time>
      </trkpt>
      <trkpt lat="45.8626" lon="4.82421">
        <ele>323</ele>
        <time>2011-06-02T07:38:43Z</time>
      </trkpt>
      <trkpt lat="45.86258" lon="4.82422">
        <ele>323</ele>
        <time>2011-06-02T07:38:44Z</time>
      </trkpt>
      <trkpt lat="45.86256" lon="4.82425">
        <ele>323</ele>
        <time>2011-06-02T07:38:46Z</time>
      </trkpt>
      <trkpt lat="45.86254" lon="4.82425">
        <ele>323</ele>
        <time>2011-06-02T07:38:47Z</time>
      </trkpt>
      <trkpt lat="45.86253" lon="4.82426">
        <ele>323</ele>
        <time>2011-06-02T07:38:48Z</time>
      </trkpt>
      <trkpt lat="45.86251" lon="4.82426">
        <ele>324</ele>
        <time>2011-06-02T07:38:49Z</time>
      </trkpt>
      <trkpt lat="45.8625" lon="4.82427">
        <ele>324</ele>
        <time>2011-06-02T07:38:50Z</time>
      </trkpt>
      <trkpt lat="45.86248" lon="4.82427">
        <ele>324</ele>
        <time>2011-06-02T07:38:51Z</time>
      </trkpt>
      <trkpt lat="45.86246" lon="4.82427">
        <ele>324</ele>
        <time>2011-06-02T07:38:52Z</time>
      </trkpt>
      <trkpt lat="45.86245" lon="4.82428">
        <ele>324</ele>
        <time>2011-06-02T07:38:53Z</time>
      </trkpt>
      <trkpt lat="45.86244" lon="4.82429">
        <ele>324</ele>
        <time>2011-06-02T07:38:54Z</time>
      </trkpt>
      <trkpt lat="45.86242" lon="4.8243">
        <ele>324</ele>
        <time>2011-06-02T07:38:56Z</time>
      </trkpt>
      <trkpt lat="45.86241" lon="4.8243">
        <ele>324</ele>
        <time>2011-06-02T07:38:57Z</time>
      </trkpt>
      <trkpt lat="45.86239" lon="4.8243">
        <ele>324</ele>
        <time>2011-06-02T07:38:58Z</time>
      </trkpt>
      <trkpt lat="45.86237" lon="4.82431">
        <ele>324</ele>
        <time>2011-06-02T07:38:59Z</time>
      </trkpt>
      <trkpt lat="45.86236" lon="4.82431">
        <ele>325</ele>
        <time>2011-06-02T07:39:00Z</time>
      </trkpt>
      <trkpt lat="45.86234" lon="4.82432">
        <ele>325</ele>
        <time>2011-06-02T07:39:01Z</time>
      </trkpt>
      <trkpt lat="45.86233" lon="4.82432">
        <ele>325</ele>
        <time>2011-06-02T07:39:02Z</time>
      </trkpt>
      <trkpt lat="45.86231" lon="4.82432">
        <ele>325</ele>
        <time>2011-06-02T07:39:03Z</time>
      </trkpt>
      <trkpt lat="45.8623" lon="4.82432">
        <ele>325</ele>
        <time>2011-06-02T07:39:04Z</time>
      </trkpt>
      <trkpt lat="45.86229" lon="4.82432">
        <ele>326</ele>
        <time>2011-06-02T07:39:05Z</time>
      </trkpt>
      <trkpt lat="45.86227" lon="4.82433">
        <ele>326</ele>
        <time>2011-06-02T07:39:06Z</time>
      </trkpt>
      <trkpt lat="45.86225" lon="4.82432">
        <ele>327</ele>
        <time>2011-06-02T07:39:08Z</time>
      </trkpt>
      <trkpt lat="45.86223" lon="4.82433">
        <ele>327</ele>
        <time>2011-06-02T07:39:09Z</time>
      </trkpt>
      <trkpt lat="45.86221" lon="4.82433">
        <ele>327</ele>
        <time>2011-06-02T07:39:10Z</time>
      </trkpt>
      <trkpt lat="45.8622" lon="4.82433">
        <ele>328</ele>
        <time>2011-06-02T07:39:11Z</time>
      </trkpt>
      <trkpt lat="45.86218" lon="4.82434">
        <ele>329</ele>
        <time>2011-06-02T07:39:13Z</time>
      </trkpt>
      <trkpt lat="45.86216" lon="4.82434">
        <ele>330</ele>
        <time>2011-06-02T07:39:14Z</time>
      </trkpt>
      <trkpt lat="45.86215" lon="4.82434">
        <ele>330</ele>
        <time>2011-06-02T07:39:15Z</time>
      </trkpt>
      <trkpt lat="45.86213" lon="4.82434">
        <ele>331</ele>
        <time>2011-06-02T07:39:16Z</time>
      </trkpt>
      <trkpt lat="45.86212" lon="4.82435">
        <ele>331</ele>
        <time>2011-06-02T07:39:17Z</time>
      </trkpt>
      <trkpt lat="45.86211" lon="4.82435">
        <ele>331</ele>
        <time>2011-06-02T07:39:18Z</time>
      </trkpt>
      <trkpt lat="45.86209" lon="4.82435">
        <ele>331</ele>
        <time>2011-06-02T07:39:19Z</time>
      </trkpt>
      <trkpt lat="45.86208" lon="4.82436">
        <ele>331</ele>
        <time>2011-06-02T07:39:20Z</time>
      </trkpt>
      <trkpt lat="45.86207" lon="4.82436">
        <ele>332</ele>
        <time>2011-06-02T07:39:21Z</time>
      </trkpt>
      <trkpt lat="45.86204" lon="4.82436">
        <ele>333</ele>
        <time>2011-06-02T07:39:23Z</time>
      </trkpt>
      <trkpt lat="45.86202" lon="4.82435">
        <ele>333</ele>
        <time>2011-06-02T07:39:24Z</time>
      </trkpt>
      <trkpt lat="45.862" lon="4.82435">
        <ele>333</ele>
        <time>2011-06-02T07:39:25Z</time>
      </trkpt>
      <trkpt lat="45.86199" lon="4.82435">
        <ele>333</ele>
        <time>2011-06-02T07:39:26Z</time>
      </trkpt>
      <trkpt lat="45.86197" lon="4.82435">
        <ele>333</ele>
        <time>2011-06-02T07:39:28Z</time>
      </trkpt>
      <trkpt lat="45.86195" lon="4.82436">
        <ele>333</ele>
        <time>2011-06-02T07:39:29Z</time>
      </trkpt>
      <trkpt lat="45.86193" lon="4.82436">
        <ele>333</ele>
        <time>2011-06-02T07:39:30Z</time>
      </trkpt>
      <trkpt lat="45.86191" lon="4.82436">
        <ele>333</ele>
        <time>2011-06-02T07:39:31Z</time>
      </trkpt>
      <trkpt lat="45.86189" lon="4.82436">
        <ele>333</ele>
        <time>2011-06-02T07:39:32Z</time>
      </trkpt>
      <trkpt lat="45.86187" lon="4.82435">
        <ele>333</ele>
        <time>2011-06-02T07:39:33Z</time>
      </trkpt>
      <trkpt lat="45.86186" lon="4.82434">
        <ele>333</ele>
        <time>2011-06-02T07:39:34Z</time>
      </trkpt>
      <trkpt lat="45.86185" lon="4.82434">
        <ele>333</ele>
        <time>2011-06-02T07:39:35Z</time>
      </trkpt>
      <trkpt lat="45.86184" lon="4.82433">
        <ele>333</ele>
        <time>2011-06-02T07:39:36Z</time>
      </trkpt>
      <trkpt lat="45.86182" lon="4.82433">
        <ele>333</ele>
        <time>2011-06-02T07:39:37Z</time>
      </trkpt>
      <trkpt lat="45.8618" lon="4.82433">
        <ele>333</ele>
        <time>2011-06-02T07:39:38Z</time>
      </trkpt>
      <trkpt lat="45.86178" lon="4.82433">
        <ele>333</ele>
        <time>2011-06-02T07:39:39Z</time>
      </trkpt>
      <trkpt lat="45.86176" lon="4.82433">
        <ele>333</ele>
        <time>2011-06-02T07:39:40Z</time>
      </trkpt>
      <trkpt lat="45.86175" lon="4.82434">
        <ele>333</ele>
        <time>2011-06-02T07:39:41Z</time>
      </trkpt>
      <trkpt lat="45.86173" lon="4.82434">
        <ele>333</ele>
        <time>2011-06-02T07:39:42Z</time>
      </trkpt>
      <trkpt lat="45.86171" lon="4.82435">
        <ele>333</ele>
        <time>2011-06-02T07:39:43Z</time>
      </trkpt>
      <trkpt lat="45.86169" lon="4.82435">
        <ele>333</ele>
        <time>2011-06-02T07:39:44Z</time>
      </trkpt>
      <trkpt lat="45.86168" lon="4.82435">
        <ele>333</ele>
        <time>2011-06-02T07:39:45Z</time>
      </trkpt>
      <trkpt lat="45.86166" lon="4.82435">
        <ele>333</ele>
        <time>2011-06-02T07:39:46Z</time>
      </trkpt>
      <trkpt lat="45.86164" lon="4.82435">
        <ele>333</ele>
        <time>2011-06-02T07:39:47Z</time>
      </trkpt>
      <trkpt lat="45.86162" lon="4.82434">
        <ele>333</ele>
        <time>2011-06-02T07:39:48Z</time>
      </trkpt>
      <trkpt lat="45.8616" lon="4.82435">
        <ele>333</ele>
        <time>2011-06-02T07:39:49Z</time>
      </trkpt>
      <trkpt lat="45.86158" lon="4.82436">
        <ele>333</ele>
        <time>2011-06-02T07:39:50Z</time>
      </trkpt>
      <trkpt lat="45.86155" lon="4.82436">
        <ele>333</ele>
        <time>2011-06-02T07:39:51Z</time>
      </trkpt>
      <trkpt lat="45.86154" lon="4.82437">
        <ele>333</ele>
        <time>2011-06-02T07:39:52Z</time>
      </trkpt>
      <trkpt lat="45.86152" lon="4.82437">
        <ele>333</ele>
        <time>2011-06-02T07:39:53Z</time>
      </trkpt>
      <trkpt lat="45.8615" lon="4.82437">
        <ele>333</ele>
        <time>2011-06-02T07:39:54Z</time>
      </trkpt>
      <trkpt lat="45.86148" lon="4.82437">
        <ele>333</ele>
        <time>2011-06-02T07:39:55Z</time>
      </trkpt>
      <trkpt lat="45.86147" lon="4.82436">
        <ele>333</ele>
        <time>2011-06-02T07:39:56Z</time>
      </trkpt>
      <trkpt lat="45.86145" lon="4.82436">
        <ele>333</ele>
        <time>2011-06-02T07:39:57Z</time>
      </trkpt>
      <trkpt lat="45.86143" lon="4.82436">
        <ele>333</ele>
        <time>2011-06-02T07:39:58Z</time>
      </trkpt>
      <trkpt lat="45.86141" lon="4.82436">
        <ele>333</ele>
        <time>2011-06-02T07:39:59Z</time>
      </trkpt>
      <trkpt lat="45.86139" lon="4.82435">
        <ele>334</ele>
        <time>2011-06-02T07:40:00Z</time>
      </trkpt>
      <trkpt lat="45.86137" lon="4.82435">
        <ele>334</ele>
        <time>2011-06-02T07:40:01Z</time>
      </trkpt>
      <trkpt lat="45.86135" lon="4.82435">
        <ele>334</ele>
        <time>2011-06-02T07:40:02Z</time>
      </trkpt>
      <trkpt lat="45.86134" lon="4.82434">
        <ele>335</ele>
        <time>2011-06-02T07:40:03Z</time>
      </trkpt>
      <trkpt lat="45.86132" lon="4.82433">
        <ele>335</ele>
        <time>2011-06-02T07:40:04Z</time>
      </trkpt>
      <trkpt lat="45.8613" lon="4.82432">
        <ele>335</ele>
        <time>2011-06-02T07:40:05Z</time>
      </trkpt>
      <trkpt lat="45.86129" lon="4.82432">
        <ele>335</ele>
        <time>2011-06-02T07:40:06Z</time>
      </trkpt>
      <trkpt lat="45.86126" lon="4.82432">
        <ele>335</ele>
        <time>2011-06-02T07:40:07Z</time>
      </trkpt>
      <trkpt lat="45.86124" lon="4.82431">
        <ele>335</ele>
        <time>2011-06-02T07:40:08Z</time>
      </trkpt>
      <trkpt lat="45.86123" lon="4.82431">
        <ele>335</ele>
        <time>2011-06-02T07:40:09Z</time>
      </trkpt>
      <trkpt lat="45.86121" lon="4.8243">
        <ele>335</ele>
        <time>2011-06-02T07:40:10Z</time>
      </trkpt>
      <trkpt lat="45.8612" lon="4.82429">
        <ele>335</ele>
        <time>2011-06-02T07:40:11Z</time>
      </trkpt>
      <trkpt lat="45.86118" lon="4.82429">
        <ele>335</ele>
        <time>2011-06-02T07:40:12Z</time>
      </trkpt>
      <trkpt lat="45.86116" lon="4.82429">
        <ele>335</ele>
        <time>2011-06-02T07:40:13Z</time>
      </trkpt>
      <trkpt lat="45.86115" lon="4.82429">
        <ele>335</ele>
        <time>2011-06-02T07:40:14Z</time>
      </trkpt>
      <trkpt lat="45.86113" lon="4.82428">
        <ele>335</ele>
        <time>2011-06-02T07:40:15Z</time>
      </trkpt>
      <trkpt lat="45.86111" lon="4.82429">
        <ele>335</ele>
        <time>2011-06-02T07:40:16Z</time>
      </trkpt>
      <trkpt lat="45.8611" lon="4.82428">
        <ele>335</ele>
        <time>2011-06-02T07:40:17Z</time>
      </trkpt>
      <trkpt lat="45.86108" lon="4.82427">
        <ele>335</ele>
        <time>2011-06-02T07:40:19Z</time>
      </trkpt>
      <trkpt lat="45.86105" lon="4.82427">
        <ele>336</ele>
        <time>2011-06-02T07:40:21Z</time>
      </trkpt>
      <trkpt lat="45.86103" lon="4.82426">
        <ele>336</ele>
        <time>2011-06-02T07:40:22Z</time>
      </trkpt>
      <trkpt lat="45.86102" lon="4.82426">
        <ele>336</ele>
        <time>2011-06-02T07:40:23Z</time>
      </trkpt>
      <trkpt lat="45.861" lon="4.82426">
        <ele>336</ele>
        <time>2011-06-02T07:40:24Z</time>
      </trkpt>
      <trkpt lat="45.86098" lon="4.82427">
        <ele>336</ele>
        <time>2011-06-02T07:40:25Z</time>
      </trkpt>
      <trkpt lat="45.86097" lon="4.82427">
        <ele>336</ele>
        <time>2011-06-02T07:40:26Z</time>
      </trkpt>
      <trkpt lat="45.86095" lon="4.82428">
        <ele>336</ele>
        <time>2011-06-02T07:40:27Z</time>
      </trkpt>
      <trkpt lat="45.86092" lon="4.82428">
        <ele>336</ele>
        <time>2011-06-02T07:40:28Z</time>
      </trkpt>
      <trkpt lat="45.86091" lon="4.82428">
        <ele>336</ele>
        <time>2011-06-02T07:40:29Z</time>
      </trkpt>
      <trkpt lat="45.86089" lon="4.82429">
        <ele>336</ele>
        <time>2011-06-02T07:40:30Z</time>
      </trkpt>
      <trkpt lat="45.86087" lon="4.82429">
        <ele>336</ele>
        <time>2011-06-02T07:40:31Z</time>
      </trkpt>
      <trkpt lat="45.86085" lon="4.8243">
        <ele>336</ele>
        <time>2011-06-02T07:40:32Z</time>
      </trkpt>
      <trkpt lat="45.86083" lon="4.8243">
        <ele>336</ele>
        <time>2011-06-02T07:40:33Z</time>
      </trkpt>
      <trkpt lat="45.86081" lon="4.82431">
        <ele>336</ele>
        <time>2011-06-02T07:40:34Z</time>
      </trkpt>
      <trkpt lat="45.86079" lon="4.82431">
        <ele>336</ele>
        <time>2011-06-02T07:40:35Z</time>
      </trkpt>
      <trkpt lat="45.86078" lon="4.82432">
        <ele>336</ele>
        <time>2011-06-02T07:40:36Z</time>
      </trkpt>
      <trkpt lat="45.86076" lon="4.82432">
        <ele>336</ele>
        <time>2011-06-02T07:40:37Z</time>
      </trkpt>
      <trkpt lat="45.86074" lon="4.82432">
        <ele>337</ele>
        <time>2011-06-02T07:40:38Z</time>
      </trkpt>
      <trkpt lat="45.86072" lon="4.82433">
        <ele>338</ele>
        <time>2011-06-02T07:40:39Z</time>
      </trkpt>
      <trkpt lat="45.8607" lon="4.82433">
        <ele>339</ele>
        <time>2011-06-02T07:40:40Z</time>
      </trkpt>
      <trkpt lat="45.86068" lon="4.82433">
        <ele>340</ele>
        <time>2011-06-02T07:40:41Z</time>
      </trkpt>
      <trkpt lat="45.86066" lon="4.82433">
        <ele>341</ele>
        <time>2011-06-02T07:40:42Z</time>
      </trkpt>
      <trkpt lat="45.86064" lon="4.82433">
        <ele>341</ele>
        <time>2011-06-02T07:40:43Z</time>
      </trkpt>
      <trkpt lat="45.86062" lon="4.82433">
        <ele>341</ele>
        <time>2011-06-02T07:40:44Z</time>
      </trkpt>
      <trkpt lat="45.8606" lon="4.82433">
        <ele>342</ele>
        <time>2011-06-02T07:40:45Z</time>
      </trkpt>
      <trkpt lat="45.86058" lon="4.82432">
        <ele>342</ele>
        <time>2011-06-02T07:40:46Z</time>
      </trkpt>
      <trkpt lat="45.86055" lon="4.82432">
        <ele>343</ele>
        <time>2011-06-02T07:40:47Z</time>
      </trkpt>
      <trkpt lat="45.86053" lon="4.82431">
        <ele>344</ele>
        <time>2011-06-02T07:40:48Z</time>
      </trkpt>
      <trkpt lat="45.86051" lon="4.82431">
        <ele>344</ele>
        <time>2011-06-02T07:40:49Z</time>
      </trkpt>
      <trkpt lat="45.86049" lon="4.82431">
        <ele>345</ele>
        <time>2011-06-02T07:40:50Z</time>
      </trkpt>
      <trkpt lat="45.86047" lon="4.8243">
        <ele>345</ele>
        <time>2011-06-02T07:40:51Z</time>
      </trkpt>
      <trkpt lat="45.86045" lon="4.8243">
        <ele>346</ele>
        <time>2011-06-02T07:40:52Z</time>
      </trkpt>
      <trkpt lat="45.86043" lon="4.8243">
        <ele>346</ele>
        <time>2011-06-02T07:40:53Z</time>
      </trkpt>
      <trkpt lat="45.86041" lon="4.82429">
        <ele>346</ele>
        <time>2011-06-02T07:40:54Z</time>
      </trkpt>
      <trkpt lat="45.86039" lon="4.82429">
        <ele>347</ele>
        <time>2011-06-02T07:40:55Z</time>
      </trkpt>
      <trkpt lat="45.86037" lon="4.82428">
        <ele>347</ele>
        <time>2011-06-02T07:40:56Z</time>
      </trkpt>
      <trkpt lat="45.86034" lon="4.82428">
        <ele>347</ele>
        <time>2011-06-02T07:40:57Z</time>
      </trkpt>
      <trkpt lat="45.86032" lon="4.82428">
        <ele>347</ele>
        <time>2011-06-02T07:40:58Z</time>
      </trkpt>
      <trkpt lat="45.8603" lon="4.82427">
        <ele>348</ele>
        <time>2011-06-02T07:40:59Z</time>
      </trkpt>
      <trkpt lat="45.86028" lon="4.82426">
        <ele>348</ele>
        <time>2011-06-02T07:41:00Z</time>
      </trkpt>
      <trkpt lat="45.86026" lon="4.82425">
        <ele>348</ele>
        <time>2011-06-02T07:41:01Z</time>
      </trkpt>
      <trkpt lat="45.86025" lon="4.82425">
        <ele>349</ele>
        <time>2011-06-02T07:41:02Z</time>
      </trkpt>
      <trkpt lat="45.86022" lon="4.82426">
        <ele>349</ele>
        <time>2011-06-02T07:41:03Z</time>
      </trkpt>
      <trkpt lat="45.86019" lon="4.82426">
        <ele>350</ele>
        <time>2011-06-02T07:41:04Z</time>
      </trkpt>
      <trkpt lat="45.86017" lon="4.82425">
        <ele>351</ele>
        <time>2011-06-02T07:41:05Z</time>
      </trkpt>
      <trkpt lat="45.86014" lon="4.82425">
        <ele>352</ele>
        <time>2011-06-02T07:41:06Z</time>
      </trkpt>
      <trkpt lat="45.86012" lon="4.82424">
        <ele>353</ele>
        <time>2011-06-02T07:41:07Z</time>
      </trkpt>
      <trkpt lat="45.86009" lon="4.82423">
        <ele>354</ele>
        <time>2011-06-02T07:41:08Z</time>
      </trkpt>
      <trkpt lat="45.86007" lon="4.82423">
        <ele>354</ele>
        <time>2011-06-02T07:41:09Z</time>
      </trkpt>
      <trkpt lat="45.86005" lon="4.82423">
        <ele>354</ele>
        <time>2011-06-02T07:41:10Z</time>
      </trkpt>
      <trkpt lat="45.86003" lon="4.82423">
        <ele>355</ele>
        <time>2011-06-02T07:41:11Z</time>
      </trkpt>
      <trkpt lat="45.86002" lon="4.82424">
        <ele>356</ele>
        <time>2011-06-02T07:41:18Z</time>
      </trkpt>
      <trkpt lat="45.86001" lon="4.82424">
        <ele>356</ele>
        <time>2011-06-02T07:41:24Z</time>
      </trkpt>
      <trkpt lat="45.86" lon="4.82424">
        <ele>355</ele>
        <time>2011-06-02T07:41:34Z</time>
      </trkpt>
      <trkpt lat="45.85999" lon="4.82423">
        <ele>352</ele>
        <time>2011-06-02T07:42:04Z</time>
      </trkpt>
      <trkpt lat="45.85998" lon="4.82422">
        <ele>350</ele>
        <time>2011-06-02T07:42:19Z</time>
      </trkpt>
      <trkpt lat="45.85997" lon="4.82421">
        <ele>349</ele>
        <time>2011-06-02T07:42:48Z</time>
      </trkpt>
      <trkpt lat="45.85998" lon="4.82419">
        <ele>348</ele>
        <time>2011-06-02T07:43:10Z</time>
      </trkpt>
      <trkpt lat="45.85996" lon="4.82419">
        <ele>347</ele>
        <time>2011-06-02T07:43:23Z</time>
      </trkpt>
      <trkpt lat="45.85995" lon="4.82419">
        <ele>347</ele>
        <time>2011-06-02T07:43:26Z</time>
      </trkpt>
      <trkpt lat="45.85993" lon="4.82419">
        <ele>347</ele>
        <time>2011-06-02T07:43:29Z</time>
      </trkpt>
      <trkpt lat="45.85992" lon="4.8242">
        <ele>347</ele>
        <time>2011-06-02T07:43:31Z</time>
      </trkpt>
      <trkpt lat="45.85993" lon="4.8242">
        <ele>347</ele>
        <time>2011-06-02T07:43:37Z</time>
      </trkpt>
      <trkpt lat="45.85994" lon="4.8242">
        <ele>347</ele>
        <time>2011-06-02T07:43:42Z</time>
      </trkpt>
      <trkpt lat="45.85995" lon="4.8242">
        <ele>347</ele>
        <time>2011-06-02T07:43:47Z</time>
      </trkpt>
      <trkpt lat="45.85997" lon="4.82421">
        <ele>347</ele>
        <time>2011-06-02T07:44:03Z</time>
      </trkpt>
      <trkpt lat="45.85998" lon="4.82422">
        <ele>349</ele>
        <time>2011-06-02T07:44:13Z</time>
      </trkpt>
      <trkpt lat="45.85998" lon="4.8242">
        <ele>352</ele>
        <time>2011-06-02T07:44:35Z</time>
      </trkpt>
      <trkpt lat="45.85999" lon="4.8242">
        <ele>352</ele>
        <time>2011-06-02T07:44:42Z</time>
      </trkpt>
      <trkpt lat="45.86" lon="4.8242">
        <ele>352</ele>
        <time>2011-06-02T07:45:03Z</time>
      </trkpt>
      <trkpt lat="45.85999" lon="4.82419">
        <ele>352</ele>
        <time>2011-06-02T07:45:06Z</time>
      </trkpt>
      <trkpt lat="45.85998" lon="4.82418">
        <ele>352</ele>
        <time>2011-06-02T07:45:08Z</time>
      </trkpt>
      <trkpt lat="45.85997" lon="4.82419">
        <ele>352</ele>
        <time>2011-06-02T07:45:12Z</time>
      </trkpt>
      <trkpt lat="45.85995" lon="4.82419">
        <ele>352</ele>
        <time>2011-06-02T07:45:27Z</time>
      </trkpt>
      <trkpt lat="45.85993" lon="4.82418">
        <ele>352</ele>
        <time>2011-06-02T07:45:28Z</time>
      </trkpt>
      <trkpt lat="45.85992" lon="4.82418">
        <ele>352</ele>
        <time>2011-06-02T07:45:29Z</time>
      </trkpt>
      <trkpt lat="45.85991" lon="4.82417">
        <ele>352</ele>
        <time>2011-06-02T07:45:30Z</time>
      </trkpt>
      <trkpt lat="45.85989" lon="4.82417">
        <ele>352</ele>
        <time>2011-06-02T07:45:31Z</time>
      </trkpt>
      <trkpt lat="45.85988" lon="4.82417">
        <ele>352</ele>
        <time>2011-06-02T07:45:32Z</time>
      </trkpt>
      <trkpt lat="45.85986" lon="4.82417">
        <ele>352</ele>
        <time>2011-06-02T07:45:33Z</time>
      </trkpt>
      <trkpt lat="45.85985" lon="4.82417">
        <ele>352</ele>
        <time>2011-06-02T07:45:34Z</time>
      </trkpt>
      <trkpt lat="45.85983" lon="4.82417">
        <ele>352</ele>
        <time>2011-06-02T07:45:35Z</time>
      </trkpt>
      <trkpt lat="45.85982" lon="4.82416">
        <ele>352</ele>
        <time>2011-06-02T07:45:36Z</time>
      </trkpt>
      <trkpt lat="45.85981" lon="4.82415">
        <ele>352</ele>
        <time>2011-06-02T07:45:37Z</time>
      </trkpt>
      <trkpt lat="45.85979" lon="4.82415">
        <ele>352</ele>
        <time>2011-06-02T07:45:38Z</time>
      </trkpt>
      <trkpt lat="45.85978" lon="4.82415">
        <ele>352</ele>
        <time>2011-06-02T07:45:39Z</time>
      </trkpt>
      <trkpt lat="45.85976" lon="4.82414">
        <ele>352</ele>
        <time>2011-06-02T07:45:40Z</time>
      </trkpt>
      <trkpt lat="45.85974" lon="4.82413">
        <ele>353</ele>
        <time>2011-06-02T07:45:41Z</time>
      </trkpt>
      <trkpt lat="45.85973" lon="4.82413">
        <ele>354</ele>
        <time>2011-06-02T07:45:42Z</time>
      </trkpt>
      <trkpt lat="45.8597" lon="4.82413">
        <ele>354</ele>
        <time>2011-06-02T07:45:43Z</time>
      </trkpt>
      <trkpt lat="45.85968" lon="4.82412">
        <ele>354</ele>
        <time>2011-06-02T07:45:44Z</time>
      </trkpt>
      <trkpt lat="45.85966" lon="4.82412">
        <ele>355</ele>
        <time>2011-06-02T07:45:45Z</time>
      </trkpt>
      <trkpt lat="45.85964" lon="4.82411">
        <ele>355</ele>
        <time>2011-06-02T07:45:46Z</time>
      </trkpt>
      <trkpt lat="45.85962" lon="4.8241">
        <ele>355</ele>
        <time>2011-06-02T07:45:47Z</time>
      </trkpt>
      <trkpt lat="45.85961" lon="4.82409">
        <ele>355</ele>
        <time>2011-06-02T07:45:48Z</time>
      </trkpt>
      <trkpt lat="45.8596" lon="4.82409">
        <ele>356</ele>
        <time>2011-06-02T07:45:49Z</time>
      </trkpt>
      <trkpt lat="45.85957" lon="4.82408">
        <ele>356</ele>
        <time>2011-06-02T07:45:50Z</time>
      </trkpt>
      <trkpt lat="45.85956" lon="4.82408">
        <ele>356</ele>
        <time>2011-06-02T07:45:51Z</time>
      </trkpt>
      <trkpt lat="45.85954" lon="4.82407">
        <ele>357</ele>
        <time>2011-06-02T07:45:52Z</time>
      </trkpt>
      <trkpt lat="45.85951" lon="4.82406">
        <ele>357</ele>
        <time>2011-06-02T07:45:53Z</time>
      </trkpt>
      <trkpt lat="45.85949" lon="4.82405">
        <ele>357</ele>
        <time>2011-06-02T07:45:54Z</time>
      </trkpt>
      <trkpt lat="45.85947" lon="4.82404">
        <ele>357</ele>
        <time>2011-06-02T07:45:55Z</time>
      </trkpt>
      <trkpt lat="45.85945" lon="4.82403">
        <ele>358</ele>
        <time>2011-06-02T07:45:56Z</time>
      </trkpt>
      <trkpt lat="45.85943" lon="4.82402">
        <ele>358</ele>
        <time>2011-06-02T07:45:57Z</time>
      </trkpt>
      <trkpt lat="45.85942" lon="4.824">
        <ele>358</ele>
        <time>2011-06-02T07:45:58Z</time>
      </trkpt>
      <trkpt lat="45.8594" lon="4.82399">
        <ele>359</ele>
        <time>2011-06-02T07:45:59Z</time>
      </trkpt>
      <trkpt lat="45.85939" lon="4.82398">
        <ele>359</ele>
        <time>2011-06-02T07:46:00Z</time>
      </trkpt>
      <trkpt lat="45.85937" lon="4.82397">
        <ele>359</ele>
        <time>2011-06-02T07:46:01Z</time>
      </trkpt>
      <trkpt lat="45.85935" lon="4.82396">
        <ele>360</ele>
        <time>2011-06-02T07:46:02Z</time>
      </trkpt>
      <trkpt lat="45.85933" lon="4.82395">
        <ele>360</ele>
        <time>2011-06-02T07:46:03Z</time>
      </trkpt>
      <trkpt lat="45.85931" lon="4.82393">
        <ele>361</ele>
        <time>2011-06-02T07:46:04Z</time>
      </trkpt>
      <trkpt lat="45.85929" lon="4.82392">
        <ele>361</ele>
        <time>2011-06-02T07:46:05Z</time>
      </trkpt>
      <trkpt lat="45.85927" lon="4.82391">
        <ele>361</ele>
        <time>2011-06-02T07:46:06Z</time>
      </trkpt>
      <trkpt lat="45.85926" lon="4.82389">
        <ele>362</ele>
        <time>2011-06-02T07:46:07Z</time>
      </trkpt>
      <trkpt lat="45.85924" lon="4.82388">
        <ele>362</ele>
        <time>2011-06-02T07:46:08Z</time>
      </trkpt>
      <trkpt lat="45.85923" lon="4.82387">
        <ele>363</ele>
        <time>2011-06-02T07:46:09Z</time>
      </trkpt>
      <trkpt lat="45.85921" lon="4.82386">
        <ele>363</ele>
        <time>2011-06-02T07:46:10Z</time>
      </trkpt>
      <trkpt lat="45.8592" lon="4.82385">
        <ele>364</ele>
        <time>2011-06-02T07:46:11Z</time>
      </trkpt>
      <trkpt lat="45.85917" lon="4.82383">
        <ele>364</ele>
        <time>2011-06-02T07:46:12Z</time>
      </trkpt>
      <trkpt lat="45.85916" lon="4.82381">
        <ele>364</ele>
        <time>2011-06-02T07:46:13Z</time>
      </trkpt>
      <trkpt lat="45.85915" lon="4.8238">
        <ele>364</ele>
        <time>2011-06-02T07:46:14Z</time>
      </trkpt>
      <trkpt lat="45.85914" lon="4.82378">
        <ele>364</ele>
        <time>2011-06-02T07:46:15Z</time>
      </trkpt>
      <trkpt lat="45.85913" lon="4.82377">
        <ele>364</ele>
        <time>2011-06-02T07:46:16Z</time>
      </trkpt>
      <trkpt lat="45.85912" lon="4.82375">
        <ele>364</ele>
        <time>2011-06-02T07:46:17Z</time>
      </trkpt>
      <trkpt lat="45.8591" lon="4.82373">
        <ele>364</ele>
        <time>2011-06-02T07:46:18Z</time>
      </trkpt>
      <trkpt lat="45.85909" lon="4.82371">
        <ele>364</ele>
        <time>2011-06-02T07:46:19Z</time>
      </trkpt>
      <trkpt lat="45.85907" lon="4.82369">
        <ele>365</ele>
        <time>2011-06-02T07:46:20Z</time>
      </trkpt>
      <trkpt lat="45.85906" lon="4.82366">
        <ele>365</ele>
        <time>2011-06-02T07:46:21Z</time>
      </trkpt>
      <trkpt lat="45.85905" lon="4.82364">
        <ele>365</ele>
        <time>2011-06-02T07:46:22Z</time>
      </trkpt>
      <trkpt lat="45.85904" lon="4.82361">
        <ele>365</ele>
        <time>2011-06-02T07:46:23Z</time>
      </trkpt>
      <trkpt lat="45.85903" lon="4.82359">
        <ele>365</ele>
        <time>2011-06-02T07:46:24Z</time>
      </trkpt>
      <trkpt lat="45.85902" lon="4.82357">
        <ele>365</ele>
        <time>2011-06-02T07:46:25Z</time>
      </trkpt>
      <trkpt lat="45.85901" lon="4.82355">
        <ele>365</ele>
        <time>2011-06-02T07:46:26Z</time>
      </trkpt>
      <trkpt lat="45.859" lon="4.82353">
        <ele>365</ele>
        <time>2011-06-02T07:46:27Z</time>
      </trkpt>
      <trkpt lat="45.85899" lon="4.82351">
        <ele>365</ele>
        <time>2011-06-02T07:46:28Z</time>
      </trkpt>
      <trkpt lat="45.85899" lon="4.82348">
        <ele>365</ele>
        <time>2011-06-02T07:46:29Z</time>
      </trkpt>
      <trkpt lat="45.85898" lon="4.82346">
        <ele>365</ele>
        <time>2011-06-02T07:46:30Z</time>
      </trkpt>
      <trkpt lat="45.85897" lon="4.82345">
        <ele>365</ele>
        <time>2011-06-02T07:46:31Z</time>
      </trkpt>
      <trkpt lat="45.85896" lon="4.82343">
        <ele>365</ele>
        <time>2011-06-02T07:46:32Z</time>
      </trkpt>
      <trkpt lat="45.85895" lon="4.82341">
        <ele>365</ele>
        <time>2011-06-02T07:46:33Z</time>
      </trkpt>
      <trkpt lat="45.85894" lon="4.82339">
        <ele>365</ele>
        <time>2011-06-02T07:46:34Z</time>
      </trkpt>
      <trkpt lat="45.85893" lon="4.82337">
        <ele>366</ele>
        <time>2011-06-02T07:46:35Z</time>
      </trkpt>
      <trkpt lat="45.85892" lon="4.82335">
        <ele>366</ele>
        <time>2011-06-02T07:46:36Z</time>
      </trkpt>
      <trkpt lat="45.85892" lon="4.82333">
        <ele>366</ele>
        <time>2011-06-02T07:46:37Z</time>
      </trkpt>
      <trkpt lat="45.85891" lon="4.82331">
        <ele>367</ele>
        <time>2011-06-02T07:46:38Z</time>
      </trkpt>
      <trkpt lat="45.8589" lon="4.82328">
        <ele>367</ele>
        <time>2011-06-02T07:46:39Z</time>
      </trkpt>
      <trkpt lat="45.85889" lon="4.82326">
        <ele>367</ele>
        <time>2011-06-02T07:46:40Z</time>
      </trkpt>
      <trkpt lat="45.85889" lon="4.82324">
        <ele>367</ele>
        <time>2011-06-02T07:46:41Z</time>
      </trkpt>
      <trkpt lat="45.85888" lon="4.82322">
        <ele>368</ele>
        <time>2011-06-02T07:46:42Z</time>
      </trkpt>
      <trkpt lat="45.85887" lon="4.8232">
        <ele>368</ele>
        <time>2011-06-02T07:46:43Z</time>
      </trkpt>
      <trkpt lat="45.85886" lon="4.82318">
        <ele>368</ele>
        <time>2011-06-02T07:46:44Z</time>
      </trkpt>
      <trkpt lat="45.85885" lon="4.82316">
        <ele>368</ele>
        <time>2011-06-02T07:46:45Z</time>
      </trkpt>
      <trkpt lat="45.85884" lon="4.82314">
        <ele>368</ele>
        <time>2011-06-02T07:46:46Z</time>
      </trkpt>
      <trkpt lat="45.85883" lon="4.82312">
        <ele>368</ele>
        <time>2011-06-02T07:46:47Z</time>
      </trkpt>
      <trkpt lat="45.85882" lon="4.8231">
        <ele>368</ele>
        <time>2011-06-02T07:46:48Z</time>
      </trkpt>
      <trkpt lat="45.85881" lon="4.82308">
        <ele>368</ele>
        <time>2011-06-02T07:46:49Z</time>
      </trkpt>
      <trkpt lat="45.8588" lon="4.82305">
        <ele>368</ele>
        <time>2011-06-02T07:46:50Z</time>
      </trkpt>
      <trkpt lat="45.85879" lon="4.82303">
        <ele>368</ele>
        <time>2011-06-02T07:46:51Z</time>
      </trkpt>
      <trkpt lat="45.85878" lon="4.82302">
        <ele>368</ele>
        <time>2011-06-02T07:46:52Z</time>
      </trkpt>
      <trkpt lat="45.85877" lon="4.823">
        <ele>368</ele>
        <time>2011-06-02T07:46:53Z</time>
      </trkpt>
      <trkpt lat="45.85876" lon="4.82298">
        <ele>368</ele>
        <time>2011-06-02T07:46:54Z</time>
      </trkpt>
      <trkpt lat="45.85876" lon="4.82296">
        <ele>368</ele>
        <time>2011-06-02T07:46:55Z</time>
      </trkpt>
      <trkpt lat="45.85876" lon="4.82294">
        <ele>368</ele>
        <time>2011-06-02T07:46:56Z</time>
      </trkpt>
      <trkpt lat="45.85875" lon="4.82292">
        <ele>368</ele>
        <time>2011-06-02T07:46:57Z</time>
      </trkpt>
      <trkpt lat="45.85874" lon="4.8229">
        <ele>368</ele>
        <time>2011-06-02T07:46:58Z</time>
      </trkpt>
      <trkpt lat="45.85873" lon="4.82288">
        <ele>368</ele>
        <time>2011-06-02T07:46:59Z</time>
      </trkpt>
      <trkpt lat="45.85872" lon="4.82287">
        <ele>368</ele>
        <time>2011-06-02T07:47:00Z</time>
      </trkpt>
      <trkpt lat="45.85871" lon="4.82285">
        <ele>368</ele>
        <time>2011-06-02T07:47:01Z</time>
      </trkpt>
      <trkpt lat="45.85869" lon="4.82284">
        <ele>368</ele>
        <time>2011-06-02T07:47:02Z</time>
      </trkpt>
      <trkpt lat="45.85868" lon="4.82282">
        <ele>367</ele>
        <time>2011-06-02T07:47:03Z</time>
      </trkpt>
      <trkpt lat="45.85867" lon="4.8228">
        <ele>366</ele>
        <time>2011-06-02T07:47:04Z</time>
      </trkpt>
      <trkpt lat="45.85866" lon="4.82278">
        <ele>365</ele>
        <time>2011-06-02T07:47:05Z</time>
      </trkpt>
      <trkpt lat="45.85865" lon="4.82276">
        <ele>365</ele>
        <time>2011-06-02T07:47:06Z</time>
      </trkpt>
      <trkpt lat="45.85865" lon="4.82274">
        <ele>364</ele>
        <time>2011-06-02T07:47:07Z</time>
      </trkpt>
      <trkpt lat="45.85865" lon="4.82272">
        <ele>364</ele>
        <time>2011-06-02T07:47:08Z</time>
      </trkpt>
      <trkpt lat="45.85865" lon="4.8227">
        <ele>364</ele>
        <time>2011-06-02T07:47:09Z</time>
      </trkpt>
      <trkpt lat="45.85864" lon="4.82268">
        <ele>364</ele>
        <time>2011-06-02T07:47:10Z</time>
      </trkpt>
      <trkpt lat="45.85864" lon="4.82266">
        <ele>364</ele>
        <time>2011-06-02T07:47:11Z</time>
      </trkpt>
      <trkpt lat="45.85863" lon="4.82263">
        <ele>364</ele>
        <time>2011-06-02T07:47:13Z</time>
      </trkpt>
      <trkpt lat="45.85862" lon="4.82261">
        <ele>364</ele>
        <time>2011-06-02T07:47:14Z</time>
      </trkpt>
      <trkpt lat="45.85862" lon="4.82259">
        <ele>364</ele>
        <time>2011-06-02T07:47:15Z</time>
      </trkpt>
      <trkpt lat="45.85862" lon="4.82256">
        <ele>363</ele>
        <time>2011-06-02T07:47:16Z</time>
      </trkpt>
      <trkpt lat="45.85862" lon="4.82253">
        <ele>363</ele>
        <time>2011-06-02T07:47:17Z</time>
      </trkpt>
      <trkpt lat="45.85862" lon="4.82251">
        <ele>363</ele>
        <time>2011-06-02T07:47:18Z</time>
      </trkpt>
      <trkpt lat="45.85862" lon="4.82249">
        <ele>363</ele>
        <time>2011-06-02T07:47:19Z</time>
      </trkpt>
      <trkpt lat="45.85861" lon="4.82247">
        <ele>363</ele>
        <time>2011-06-02T07:47:20Z</time>
      </trkpt>
      <trkpt lat="45.8586" lon="4.82245">
        <ele>363</ele>
        <time>2011-06-02T07:47:21Z</time>
      </trkpt>
      <trkpt lat="45.8586" lon="4.82244">
        <ele>363</ele>
        <time>2011-06-02T07:47:22Z</time>
      </trkpt>
      <trkpt lat="45.85859" lon="4.82242">
        <ele>363</ele>
        <time>2011-06-02T07:47:23Z</time>
      </trkpt>
      <trkpt lat="45.85856" lon="4.8224">
        <ele>363</ele>
        <time>2011-06-02T07:47:25Z</time>
      </trkpt>
      <trkpt lat="45.85856" lon="4.82238">
        <ele>363</ele>
        <time>2011-06-02T07:47:26Z</time>
      </trkpt>
      <trkpt lat="45.85855" lon="4.82236">
        <ele>363</ele>
        <time>2011-06-02T07:47:27Z</time>
      </trkpt>
      <trkpt lat="45.85855" lon="4.82234">
        <ele>362</ele>
        <time>2011-06-02T07:47:28Z</time>
      </trkpt>
      <trkpt lat="45.85854" lon="4.82232">
        <ele>362</ele>
        <time>2011-06-02T07:47:29Z</time>
      </trkpt>
      <trkpt lat="45.85854" lon="4.8223">
        <ele>362</ele>
        <time>2011-06-02T07:47:30Z</time>
      </trkpt>
      <trkpt lat="45.85853" lon="4.82228">
        <ele>362</ele>
        <time>2011-06-02T07:47:32Z</time>
      </trkpt>
      <trkpt lat="45.85852" lon="4.82226">
        <ele>362</ele>
        <time>2011-06-02T07:47:33Z</time>
      </trkpt>
      <trkpt lat="45.85852" lon="4.82224">
        <ele>362</ele>
        <time>2011-06-02T07:47:34Z</time>
      </trkpt>
      <trkpt lat="45.85853" lon="4.82223">
        <ele>362</ele>
        <time>2011-06-02T07:47:35Z</time>
      </trkpt>
      <trkpt lat="45.85852" lon="4.8222">
        <ele>362</ele>
        <time>2011-06-02T07:47:37Z</time>
      </trkpt>
      <trkpt lat="45.85852" lon="4.82217">
        <ele>362</ele>
        <time>2011-06-02T07:47:39Z</time>
      </trkpt>
      <trkpt lat="45.85851" lon="4.82215">
        <ele>362</ele>
        <time>2011-06-02T07:47:40Z</time>
      </trkpt>
      <trkpt lat="45.85851" lon="4.82212">
        <ele>362</ele>
        <time>2011-06-02T07:47:42Z</time>
      </trkpt>
      <trkpt lat="45.8585" lon="4.8221">
        <ele>362</ele>
        <time>2011-06-02T07:47:44Z</time>
      </trkpt>
      <trkpt lat="45.85849" lon="4.82208">
        <ele>362</ele>
        <time>2011-06-02T07:47:46Z</time>
      </trkpt>
      <trkpt lat="45.85849" lon="4.82205">
        <ele>362</ele>
        <time>2011-06-02T07:47:48Z</time>
      </trkpt>
      <trkpt lat="45.85848" lon="4.82203">
        <ele>362</ele>
        <time>2011-06-02T07:47:50Z</time>
      </trkpt>
      <trkpt lat="45.85847" lon="4.82201">
        <ele>362</ele>
        <time>2011-06-02T07:47:52Z</time>
      </trkpt>
      <trkpt lat="45.85847" lon="4.82199">
        <ele>362</ele>
        <time>2011-06-02T07:47:53Z</time>
      </trkpt>
      <trkpt lat="45.85847" lon="4.82198">
        <ele>362</ele>
        <time>2011-06-02T07:47:54Z</time>
      </trkpt>
      <trkpt lat="45.85847" lon="4.82196">
        <ele>362</ele>
        <time>2011-06-02T07:47:55Z</time>
      </trkpt>
      <trkpt lat="45.85846" lon="4.82194">
        <ele>362</ele>
        <time>2011-06-02T07:47:56Z</time>
      </trkpt>
      <trkpt lat="45.85846" lon="4.82193">
        <ele>362</ele>
        <time>2011-06-02T07:47:57Z</time>
      </trkpt>
      <trkpt lat="45.85846" lon="4.82191">
        <ele>362</ele>
        <time>2011-06-02T07:47:58Z</time>
      </trkpt>
      <trkpt lat="45.85846" lon="4.82188">
        <ele>362</ele>
        <time>2011-06-02T07:47:59Z</time>
      </trkpt>
      <trkpt lat="45.85845" lon="4.82187">
        <ele>363</ele>
        <time>2011-06-02T07:48:00Z</time>
      </trkpt>
      <trkpt lat="45.85844" lon="4.82184">
        <ele>363</ele>
        <time>2011-06-02T07:48:02Z</time>
      </trkpt>
      <trkpt lat="45.85844" lon="4.82183">
        <ele>363</ele>
        <time>2011-06-02T07:48:03Z</time>
      </trkpt>
      <trkpt lat="45.85844" lon="4.82181">
        <ele>364</ele>
        <time>2011-06-02T07:48:04Z</time>
      </trkpt>
      <trkpt lat="45.85844" lon="4.82179">
        <ele>365</ele>
        <time>2011-06-02T07:48:05Z</time>
      </trkpt>
      <trkpt lat="45.85843" lon="4.82176">
        <ele>366</ele>
        <time>2011-06-02T07:48:07Z</time>
      </trkpt>
      <trkpt lat="45.85844" lon="4.82174">
        <ele>367</ele>
        <time>2011-06-02T07:48:08Z</time>
      </trkpt>
      <trkpt lat="45.85843" lon="4.82172">
        <ele>367</ele>
        <time>2011-06-02T07:48:09Z</time>
      </trkpt>
      <trkpt lat="45.85843" lon="4.82171">
        <ele>368</ele>
        <time>2011-06-02T07:48:10Z</time>
      </trkpt>
      <trkpt lat="45.85843" lon="4.82169">
        <ele>368</ele>
        <time>2011-06-02T07:48:11Z</time>
      </trkpt>
      <trkpt lat="45.85843" lon="4.82167">
        <ele>368</ele>
        <time>2011-06-02T07:48:12Z</time>
      </trkpt>
      <trkpt lat="45.85843" lon="4.82166">
        <ele>369</ele>
        <time>2011-06-02T07:48:13Z</time>
      </trkpt>
      <trkpt lat="45.85843" lon="4.82164">
        <ele>369</ele>
        <time>2011-06-02T07:48:14Z</time>
      </trkpt>
      <trkpt lat="45.85841" lon="4.82161">
        <ele>370</ele>
        <time>2011-06-02T07:48:16Z</time>
      </trkpt>
      <trkpt lat="45.85841" lon="4.8216">
        <ele>370</ele>
        <time>2011-06-02T07:48:17Z</time>
      </trkpt>
      <trkpt lat="45.8584" lon="4.82158">
        <ele>370</ele>
        <time>2011-06-02T07:48:18Z</time>
      </trkpt>
      <trkpt lat="45.8584" lon="4.82157">
        <ele>371</ele>
        <time>2011-06-02T07:48:19Z</time>
      </trkpt>
      <trkpt lat="45.8584" lon="4.82155">
        <ele>371</ele>
        <time>2011-06-02T07:48:20Z</time>
      </trkpt>
      <trkpt lat="45.8584" lon="4.82153">
        <ele>371</ele>
        <time>2011-06-02T07:48:21Z</time>
      </trkpt>
      <trkpt lat="45.85839" lon="4.82151">
        <ele>372</ele>
        <time>2011-06-02T07:48:23Z</time>
      </trkpt>
      <trkpt lat="45.85838" lon="4.82148">
        <ele>373</ele>
        <time>2011-06-02T07:48:25Z</time>
      </trkpt>
      <trkpt lat="45.85838" lon="4.82146">
        <ele>373</ele>
        <time>2011-06-02T07:48:27Z</time>
      </trkpt>
      <trkpt lat="45.85837" lon="4.82144">
        <ele>374</ele>
        <time>2011-06-02T07:48:28Z</time>
      </trkpt>
      <trkpt lat="45.85836" lon="4.82141">
        <ele>374</ele>
        <time>2011-06-02T07:48:30Z</time>
      </trkpt>
      <trkpt lat="45.85836" lon="4.8214">
        <ele>374</ele>
        <time>2011-06-02T07:48:31Z</time>
      </trkpt>
      <trkpt lat="45.85835" lon="4.82138">
        <ele>374</ele>
        <time>2011-06-02T07:48:32Z</time>
      </trkpt>
      <trkpt lat="45.85834" lon="4.82136">
        <ele>374</ele>
        <time>2011-06-02T07:48:34Z</time>
      </trkpt>
      <trkpt lat="45.85833" lon="4.82134">
        <ele>374</ele>
        <time>2011-06-02T07:48:36Z</time>
      </trkpt>
      <trkpt lat="45.85831" lon="4.82132">
        <ele>374</ele>
        <time>2011-06-02T07:48:38Z</time>
      </trkpt>
      <trkpt lat="45.85829" lon="4.82131">
        <ele>374</ele>
        <time>2011-06-02T07:48:40Z</time>
      </trkpt>
      <trkpt lat="45.85828" lon="4.8213">
        <ele>374</ele>
        <time>2011-06-02T07:48:42Z</time>
      </trkpt>
      <trkpt lat="45.85827" lon="4.82128">
        <ele>374</ele>
        <time>2011-06-02T07:48:44Z</time>
      </trkpt>
      <trkpt lat="45.85826" lon="4.82127">
        <ele>374</ele>
        <time>2011-06-02T07:48:46Z</time>
      </trkpt>
      <trkpt lat="45.85825" lon="4.82124">
        <ele>374</ele>
        <time>2011-06-02T07:48:48Z</time>
      </trkpt>
      <trkpt lat="45.85823" lon="4.82121">
        <ele>374</ele>
        <time>2011-06-02T07:48:50Z</time>
      </trkpt>
      <trkpt lat="45.85822" lon="4.82119">
        <ele>374</ele>
        <time>2011-06-02T07:48:52Z</time>
      </trkpt>
      <trkpt lat="45.8582" lon="4.82118">
        <ele>374</ele>
        <time>2011-06-02T07:48:54Z</time>
      </trkpt>
      <trkpt lat="45.85819" lon="4.82116">
        <ele>374</ele>
        <time>2011-06-02T07:48:56Z</time>
      </trkpt>
      <trkpt lat="45.85817" lon="4.82114">
        <ele>374</ele>
        <time>2011-06-02T07:48:58Z</time>
      </trkpt>
      <trkpt lat="45.85816" lon="4.82111">
        <ele>374</ele>
        <time>2011-06-02T07:49:00Z</time>
      </trkpt>
      <trkpt lat="45.85814" lon="4.82109">
        <ele>376</ele>
        <time>2011-06-02T07:49:02Z</time>
      </trkpt>
      <trkpt lat="45.85812" lon="4.82107">
        <ele>377</ele>
        <time>2011-06-02T07:49:04Z</time>
      </trkpt>
      <trkpt lat="45.85811" lon="4.82104">
        <ele>377</ele>
        <time>2011-06-02T07:49:06Z</time>
      </trkpt>
      <trkpt lat="45.85809" lon="4.82102">
        <ele>377</ele>
        <time>2011-06-02T07:49:08Z</time>
      </trkpt>
      <trkpt lat="45.85807" lon="4.82102">
        <ele>377</ele>
        <time>2011-06-02T07:49:09Z</time>
      </trkpt>
      <trkpt lat="45.85805" lon="4.82099">
        <ele>377</ele>
        <time>2011-06-02T07:49:11Z</time>
      </trkpt>
      <trkpt lat="45.85804" lon="4.82097">
        <ele>377</ele>
        <time>2011-06-02T07:49:13Z</time>
      </trkpt>
      <trkpt lat="45.85804" lon="4.82095">
        <ele>377</ele>
        <time>2011-06-02T07:49:14Z</time>
      </trkpt>
      <trkpt lat="45.85803" lon="4.82093">
        <ele>378</ele>
        <time>2011-06-02T07:49:16Z</time>
      </trkpt>
      <trkpt lat="45.85802" lon="4.82092">
        <ele>379</ele>
        <time>2011-06-02T07:49:17Z</time>
      </trkpt>
      <trkpt lat="45.858" lon="4.82089">
        <ele>379</ele>
        <time>2011-06-02T07:49:19Z</time>
      </trkpt>
      <trkpt lat="45.85799" lon="4.82088">
        <ele>379</ele>
        <time>2011-06-02T07:49:21Z</time>
      </trkpt>
      <trkpt lat="45.85796" lon="4.82086">
        <ele>379</ele>
        <time>2011-06-02T07:49:23Z</time>
      </trkpt>
      <trkpt lat="45.85795" lon="4.82086">
        <ele>379</ele>
        <time>2011-06-02T07:49:24Z</time>
      </trkpt>
      <trkpt lat="45.85793" lon="4.82084">
        <ele>379</ele>
        <time>2011-06-02T07:49:26Z</time>
      </trkpt>
      <trkpt lat="45.85791" lon="4.82084">
        <ele>379</ele>
        <time>2011-06-02T07:49:28Z</time>
      </trkpt>
      <trkpt lat="45.85789" lon="4.82085">
        <ele>380</ele>
        <time>2011-06-02T07:49:29Z</time>
      </trkpt>
      <trkpt lat="45.85788" lon="4.82084">
        <ele>381</ele>
        <time>2011-06-02T07:49:30Z</time>
      </trkpt>
      <trkpt lat="45.85786" lon="4.82084">
        <ele>382</ele>
        <time>2011-06-02T07:49:31Z</time>
      </trkpt>
      <trkpt lat="45.85785" lon="4.82083">
        <ele>383</ele>
        <time>2011-06-02T07:49:32Z</time>
      </trkpt>
      <trkpt lat="45.85783" lon="4.82083">
        <ele>383</ele>
        <time>2011-06-02T07:49:33Z</time>
      </trkpt>
      <trkpt lat="45.85782" lon="4.82082">
        <ele>383</ele>
        <time>2011-06-02T07:49:34Z</time>
      </trkpt>
      <trkpt lat="45.8578" lon="4.82082">
        <ele>384</ele>
        <time>2011-06-02T07:49:35Z</time>
      </trkpt>
      <trkpt lat="45.85778" lon="4.82081">
        <ele>384</ele>
        <time>2011-06-02T07:49:37Z</time>
      </trkpt>
      <trkpt lat="45.85776" lon="4.8208">
        <ele>385</ele>
        <time>2011-06-02T07:49:38Z</time>
      </trkpt>
      <trkpt lat="45.85775" lon="4.82079">
        <ele>386</ele>
        <time>2011-06-02T07:49:39Z</time>
      </trkpt>
      <trkpt lat="45.85773" lon="4.82079">
        <ele>386</ele>
        <time>2011-06-02T07:49:40Z</time>
      </trkpt>
      <trkpt lat="45.85772" lon="4.82078">
        <ele>387</ele>
        <time>2011-06-02T07:49:42Z</time>
      </trkpt>
      <trkpt lat="45.8577" lon="4.82079">
        <ele>387</ele>
        <time>2011-06-02T07:49:43Z</time>
      </trkpt>
      <trkpt lat="45.85769" lon="4.82079">
        <ele>387</ele>
        <time>2011-06-02T07:49:44Z</time>
      </trkpt>
      <trkpt lat="45.85767" lon="4.82079">
        <ele>387</ele>
        <time>2011-06-02T07:49:45Z</time>
      </trkpt>
      <trkpt lat="45.85765" lon="4.82078">
        <ele>387</ele>
        <time>2011-06-02T07:49:46Z</time>
      </trkpt>
      <trkpt lat="45.85764" lon="4.82078">
        <ele>387</ele>
        <time>2011-06-02T07:49:47Z</time>
      </trkpt>
      <trkpt lat="45.85762" lon="4.82079">
        <ele>387</ele>
        <time>2011-06-02T07:49:48Z</time>
      </trkpt>
      <trkpt lat="45.85761" lon="4.82079">
        <ele>387</ele>
        <time>2011-06-02T07:49:49Z</time>
      </trkpt>
      <trkpt lat="45.85759" lon="4.8208">
        <ele>387</ele>
        <time>2011-06-02T07:49:50Z</time>
      </trkpt>
      <trkpt lat="45.85757" lon="4.8208">
        <ele>387</ele>
        <time>2011-06-02T07:49:51Z</time>
      </trkpt>
      <trkpt lat="45.85756" lon="4.82079">
        <ele>387</ele>
        <time>2011-06-02T07:49:52Z</time>
      </trkpt>
      <trkpt lat="45.85755" lon="4.82079">
        <ele>387</ele>
        <time>2011-06-02T07:49:53Z</time>
      </trkpt>
      <trkpt lat="45.85753" lon="4.82079">
        <ele>387</ele>
        <time>2011-06-02T07:49:54Z</time>
      </trkpt>
      <trkpt lat="45.85752" lon="4.82079">
        <ele>387</ele>
        <time>2011-06-02T07:49:55Z</time>
      </trkpt>
      <trkpt lat="45.85751" lon="4.82079">
        <ele>387</ele>
        <time>2011-06-02T07:49:56Z</time>
      </trkpt>
      <trkpt lat="45.85749" lon="4.82079">
        <ele>387</ele>
        <time>2011-06-02T07:49:57Z</time>
      </trkpt>
      <trkpt lat="45.85747" lon="4.8208">
        <ele>387</ele>
        <time>2011-06-02T07:49:58Z</time>
      </trkpt>
      <trkpt lat="45.85745" lon="4.82081">
        <ele>387</ele>
        <time>2011-06-02T07:49:59Z</time>
      </trkpt>
      <trkpt lat="45.85744" lon="4.82081">
        <ele>387</ele>
        <time>2011-06-02T07:50:00Z</time>
      </trkpt>
      <trkpt lat="45.85742" lon="4.82082">
        <ele>387</ele>
        <time>2011-06-02T07:50:01Z</time>
      </trkpt>
      <trkpt lat="45.8574" lon="4.82083">
        <ele>387</ele>
        <time>2011-06-02T07:50:02Z</time>
      </trkpt>
      <trkpt lat="45.85739" lon="4.82084">
        <ele>387</ele>
        <time>2011-06-02T07:50:03Z</time>
      </trkpt>
      <trkpt lat="45.85737" lon="4.82085">
        <ele>387</ele>
        <time>2011-06-02T07:50:04Z</time>
      </trkpt>
      <trkpt lat="45.85736" lon="4.82086">
        <ele>387</ele>
        <time>2011-06-02T07:50:05Z</time>
      </trkpt>
      <trkpt lat="45.85735" lon="4.82087">
        <ele>387</ele>
        <time>2011-06-02T07:50:06Z</time>
      </trkpt>
      <trkpt lat="45.85733" lon="4.82088">
        <ele>387</ele>
        <time>2011-06-02T07:50:07Z</time>
      </trkpt>
      <trkpt lat="45.85731" lon="4.82089">
        <ele>387</ele>
        <time>2011-06-02T07:50:08Z</time>
      </trkpt>
      <trkpt lat="45.8573" lon="4.8209">
        <ele>387</ele>
        <time>2011-06-02T07:50:09Z</time>
      </trkpt>
      <trkpt lat="45.85728" lon="4.8209">
        <ele>387</ele>
        <time>2011-06-02T07:50:10Z</time>
      </trkpt>
      <trkpt lat="45.85727" lon="4.82091">
        <ele>387</ele>
        <time>2011-06-02T07:50:11Z</time>
      </trkpt>
      <trkpt lat="45.85725" lon="4.82092">
        <ele>387</ele>
        <time>2011-06-02T07:50:12Z</time>
      </trkpt>
      <trkpt lat="45.85724" lon="4.82093">
        <ele>387</ele>
        <time>2011-06-02T07:50:13Z</time>
      </trkpt>
      <trkpt lat="45.85722" lon="4.82093">
        <ele>387</ele>
        <time>2011-06-02T07:50:14Z</time>
      </trkpt>
      <trkpt lat="45.85721" lon="4.82093">
        <ele>387</ele>
        <time>2011-06-02T07:50:15Z</time>
      </trkpt>
      <trkpt lat="45.8572" lon="4.82094">
        <ele>387</ele>
        <time>2011-06-02T07:50:16Z</time>
      </trkpt>
      <trkpt lat="45.85718" lon="4.82096">
        <ele>387</ele>
        <time>2011-06-02T07:50:18Z</time>
      </trkpt>
      <trkpt lat="45.85717" lon="4.82097">
        <ele>387</ele>
        <time>2011-06-02T07:50:19Z</time>
      </trkpt>
      <trkpt lat="45.85716" lon="4.82098">
        <ele>387</ele>
        <time>2011-06-02T07:50:20Z</time>
      </trkpt>
      <trkpt lat="45.85714" lon="4.82099">
        <ele>387</ele>
        <time>2011-06-02T07:50:21Z</time>
      </trkpt>
      <trkpt lat="45.85713" lon="4.821">
        <ele>387</ele>
        <time>2011-06-02T07:50:22Z</time>
      </trkpt>
      <trkpt lat="45.85711" lon="4.82101">
        <ele>387</ele>
        <time>2011-06-02T07:50:23Z</time>
      </trkpt>
      <trkpt lat="45.85709" lon="4.82102">
        <ele>387</ele>
        <time>2011-06-02T07:50:24Z</time>
      </trkpt>
      <trkpt lat="45.85708" lon="4.82104">
        <ele>387</ele>
        <time>2011-06-02T07:50:25Z</time>
      </trkpt>
      <trkpt lat="45.85706" lon="4.82106">
        <ele>387</ele>
        <time>2011-06-02T07:50:27Z</time>
      </trkpt>
      <trkpt lat="45.85704" lon="4.82107">
        <ele>387</ele>
        <time>2011-06-02T07:50:28Z</time>
      </trkpt>
      <trkpt lat="45.85703" lon="4.82109">
        <ele>387</ele>
        <time>2011-06-02T07:50:29Z</time>
      </trkpt>
      <trkpt lat="45.85702" lon="4.8211">
        <ele>387</ele>
        <time>2011-06-02T07:50:30Z</time>
      </trkpt>
      <trkpt lat="45.85701" lon="4.82111">
        <ele>387</ele>
        <time>2011-06-02T07:50:31Z</time>
      </trkpt>
      <trkpt lat="45.85699" lon="4.82113">
        <ele>387</ele>
        <time>2011-06-02T07:50:32Z</time>
      </trkpt>
      <trkpt lat="45.85698" lon="4.82114">
        <ele>387</ele>
        <time>2011-06-02T07:50:33Z</time>
      </trkpt>
      <trkpt lat="45.85696" lon="4.82115">
        <ele>387</ele>
        <time>2011-06-02T07:50:34Z</time>
      </trkpt>
      <trkpt lat="45.85695" lon="4.82116">
        <ele>387</ele>
        <time>2011-06-02T07:50:35Z</time>
      </trkpt>
      <trkpt lat="45.85692" lon="4.82119">
        <ele>387</ele>
        <time>2011-06-02T07:50:37Z</time>
      </trkpt>
      <trkpt lat="45.85691" lon="4.8212">
        <ele>387</ele>
        <time>2011-06-02T07:50:38Z</time>
      </trkpt>
      <trkpt lat="45.85689" lon="4.82122">
        <ele>387</ele>
        <time>2011-06-02T07:50:39Z</time>
      </trkpt>
      <trkpt lat="45.85687" lon="4.82123">
        <ele>387</ele>
        <time>2011-06-02T07:50:40Z</time>
      </trkpt>
      <trkpt lat="45.85686" lon="4.82123">
        <ele>387</ele>
        <time>2011-06-02T07:50:41Z</time>
      </trkpt>
      <trkpt lat="45.85684" lon="4.82124">
        <ele>387</ele>
        <time>2011-06-02T07:50:42Z</time>
      </trkpt>
      <trkpt lat="45.85682" lon="4.82125">
        <ele>387</ele>
        <time>2011-06-02T07:50:43Z</time>
      </trkpt>
      <trkpt lat="45.8568" lon="4.82126">
        <ele>387</ele>
        <time>2011-06-02T07:50:44Z</time>
      </trkpt>
      <trkpt lat="45.85678" lon="4.82127">
        <ele>387</ele>
        <time>2011-06-02T07:50:45Z</time>
      </trkpt>
      <trkpt lat="45.85677" lon="4.82128">
        <ele>387</ele>
        <time>2011-06-02T07:50:46Z</time>
      </trkpt>
      <trkpt lat="45.85676" lon="4.82128">
        <ele>387</ele>
        <time>2011-06-02T07:50:47Z</time>
      </trkpt>
      <trkpt lat="45.85673" lon="4.82129">
        <ele>387</ele>
        <time>2011-06-02T07:50:49Z</time>
      </trkpt>
      <trkpt lat="45.85672" lon="4.82129">
        <ele>387</ele>
        <time>2011-06-02T07:50:50Z</time>
      </trkpt>
      <trkpt lat="45.8567" lon="4.8213">
        <ele>387</ele>
        <time>2011-06-02T07:50:51Z</time>
      </trkpt>
      <trkpt lat="45.85669" lon="4.8213">
        <ele>387</ele>
        <time>2011-06-02T07:50:52Z</time>
      </trkpt>
      <trkpt lat="45.85668" lon="4.8213">
        <ele>387</ele>
        <time>2011-06-02T07:50:53Z</time>
      </trkpt>
      <trkpt lat="45.85667" lon="4.8213">
        <ele>387</ele>
        <time>2011-06-02T07:50:54Z</time>
      </trkpt>
      <trkpt lat="45.85665" lon="4.8213">
        <ele>387</ele>
        <time>2011-06-02T07:50:56Z</time>
      </trkpt>
      <trkpt lat="45.85663" lon="4.8213">
        <ele>387</ele>
        <time>2011-06-02T07:50:58Z</time>
      </trkpt>
      <trkpt lat="45.85661" lon="4.82131">
        <ele>387</ele>
        <time>2011-06-02T07:50:59Z</time>
      </trkpt>
      <trkpt lat="45.85659" lon="4.82131">
        <ele>387</ele>
        <time>2011-06-02T07:51:00Z</time>
      </trkpt>
      <trkpt lat="45.85657" lon="4.82133">
        <ele>387</ele>
        <time>2011-06-02T07:51:02Z</time>
      </trkpt>
      <trkpt lat="45.85655" lon="4.82133">
        <ele>387</ele>
        <time>2011-06-02T07:51:03Z</time>
      </trkpt>
      <trkpt lat="45.85653" lon="4.82133">
        <ele>387</ele>
        <time>2011-06-02T07:51:04Z</time>
      </trkpt>
      <trkpt lat="45.85652" lon="4.82133">
        <ele>388</ele>
        <time>2011-06-02T07:51:05Z</time>
      </trkpt>
      <trkpt lat="45.85651" lon="4.82133">
        <ele>389</ele>
        <time>2011-06-02T07:51:06Z</time>
      </trkpt>
      <trkpt lat="45.85649" lon="4.82133">
        <ele>389</ele>
        <time>2011-06-02T07:51:07Z</time>
      </trkpt>
      <trkpt lat="45.85648" lon="4.82133">
        <ele>389</ele>
        <time>2011-06-02T07:51:08Z</time>
      </trkpt>
      <trkpt lat="45.85646" lon="4.82133">
        <ele>390</ele>
        <time>2011-06-02T07:51:09Z</time>
      </trkpt>
      <trkpt lat="45.85645" lon="4.82133">
        <ele>390</ele>
        <time>2011-06-02T07:51:10Z</time>
      </trkpt>
      <trkpt lat="45.85643" lon="4.82132">
        <ele>390</ele>
        <time>2011-06-02T07:51:12Z</time>
      </trkpt>
      <trkpt lat="45.85641" lon="4.82131">
        <ele>390</ele>
        <time>2011-06-02T07:51:14Z</time>
      </trkpt>
      <trkpt lat="45.85638" lon="4.82131">
        <ele>390</ele>
        <time>2011-06-02T07:51:16Z</time>
      </trkpt>
      <trkpt lat="45.85636" lon="4.8213">
        <ele>390</ele>
        <time>2011-06-02T07:51:17Z</time>
      </trkpt>
      <trkpt lat="45.85635" lon="4.82131">
        <ele>390</ele>
        <time>2011-06-02T07:51:18Z</time>
      </trkpt>
      <trkpt lat="45.85633" lon="4.8213">
        <ele>390</ele>
        <time>2011-06-02T07:51:20Z</time>
      </trkpt>
      <trkpt lat="45.8563" lon="4.82131">
        <ele>390</ele>
        <time>2011-06-02T07:51:22Z</time>
      </trkpt>
      <trkpt lat="45.85629" lon="4.82131">
        <ele>390</ele>
        <time>2011-06-02T07:51:23Z</time>
      </trkpt>
      <trkpt lat="45.85627" lon="4.82131">
        <ele>390</ele>
        <time>2011-06-02T07:51:24Z</time>
      </trkpt>
      <trkpt lat="45.85626" lon="4.82131">
        <ele>390</ele>
        <time>2011-06-02T07:51:25Z</time>
      </trkpt>
      <trkpt lat="45.85624" lon="4.82131">
        <ele>390</ele>
        <time>2011-06-02T07:51:26Z</time>
      </trkpt>
      <trkpt lat="45.85622" lon="4.82131">
        <ele>390</ele>
        <time>2011-06-02T07:51:27Z</time>
      </trkpt>
      <trkpt lat="45.85621" lon="4.82131">
        <ele>390</ele>
        <time>2011-06-02T07:51:28Z</time>
      </trkpt>
      <trkpt lat="45.8562" lon="4.82131">
        <ele>390</ele>
        <time>2011-06-02T07:51:29Z</time>
      </trkpt>
      <trkpt lat="45.85619" lon="4.82131">
        <ele>390</ele>
        <time>2011-06-02T07:51:30Z</time>
      </trkpt>
      <trkpt lat="45.85617" lon="4.82132">
        <ele>390</ele>
        <time>2011-06-02T07:51:31Z</time>
      </trkpt>
      <trkpt lat="45.85616" lon="4.82132">
        <ele>391</ele>
        <time>2011-06-02T07:51:32Z</time>
      </trkpt>
      <trkpt lat="45.85614" lon="4.82133">
        <ele>391</ele>
        <time>2011-06-02T07:51:33Z</time>
      </trkpt>
      <trkpt lat="45.85613" lon="4.82133">
        <ele>392</ele>
        <time>2011-06-02T07:51:34Z</time>
      </trkpt>
      <trkpt lat="45.85611" lon="4.82133">
        <ele>392</ele>
        <time>2011-06-02T07:51:35Z</time>
      </trkpt>
      <trkpt lat="45.85609" lon="4.82134">
        <ele>392</ele>
        <time>2011-06-02T07:51:36Z</time>
      </trkpt>
      <trkpt lat="45.85607" lon="4.82134">
        <ele>392</ele>
        <time>2011-06-02T07:51:37Z</time>
      </trkpt>
      <trkpt lat="45.85606" lon="4.82135">
        <ele>392</ele>
        <time>2011-06-02T07:51:38Z</time>
      </trkpt>
      <trkpt lat="45.85604" lon="4.82135">
        <ele>392</ele>
        <time>2011-06-02T07:51:39Z</time>
      </trkpt>
      <trkpt lat="45.85602" lon="4.82136">
        <ele>392</ele>
        <time>2011-06-02T07:51:40Z</time>
      </trkpt>
      <trkpt lat="45.85601" lon="4.82136">
        <ele>392</ele>
        <time>2011-06-02T07:51:41Z</time>
      </trkpt>
      <trkpt lat="45.85599" lon="4.82137">
        <ele>392</ele>
        <time>2011-06-02T07:51:42Z</time>
      </trkpt>
      <trkpt lat="45.85596" lon="4.82138">
        <ele>392</ele>
        <time>2011-06-02T07:51:44Z</time>
      </trkpt>
      <trkpt lat="45.85595" lon="4.82139">
        <ele>392</ele>
        <time>2011-06-02T07:51:45Z</time>
      </trkpt>
      <trkpt lat="45.85593" lon="4.8214">
        <ele>392</ele>
        <time>2011-06-02T07:51:46Z</time>
      </trkpt>
      <trkpt lat="45.85592" lon="4.8214">
        <ele>392</ele>
        <time>2011-06-02T07:51:47Z</time>
      </trkpt>
      <trkpt lat="45.8559" lon="4.82139">
        <ele>392</ele>
        <time>2011-06-02T07:51:48Z</time>
      </trkpt>
      <trkpt lat="45.85588" lon="4.82139">
        <ele>392</ele>
        <time>2011-06-02T07:51:50Z</time>
      </trkpt>
      <trkpt lat="45.85585" lon="4.8214">
        <ele>392</ele>
        <time>2011-06-02T07:51:52Z</time>
      </trkpt>
      <trkpt lat="45.85583" lon="4.8214">
        <ele>392</ele>
        <time>2011-06-02T07:51:53Z</time>
      </trkpt>
      <trkpt lat="45.85581" lon="4.82139">
        <ele>392</ele>
        <time>2011-06-02T07:51:54Z</time>
      </trkpt>
      <trkpt lat="45.85579" lon="4.82138">
        <ele>392</ele>
        <time>2011-06-02T07:51:56Z</time>
      </trkpt>
      <trkpt lat="45.85578" lon="4.82137">
        <ele>392</ele>
        <time>2011-06-02T07:51:57Z</time>
      </trkpt>
      <trkpt lat="45.85577" lon="4.82136">
        <ele>392</ele>
        <time>2011-06-02T07:51:58Z</time>
      </trkpt>
      <trkpt lat="45.85575" lon="4.82132">
        <ele>393</ele>
        <time>2011-06-02T07:52:00Z</time>
      </trkpt>
      <trkpt lat="45.85575" lon="4.8213">
        <ele>393</ele>
        <time>2011-06-02T07:52:01Z</time>
      </trkpt>
      <trkpt lat="45.85576" lon="4.82128">
        <ele>394</ele>
        <time>2011-06-02T07:52:02Z</time>
      </trkpt>
      <trkpt lat="45.85575" lon="4.82126">
        <ele>394</ele>
        <time>2011-06-02T07:52:03Z</time>
      </trkpt>
      <trkpt lat="45.85575" lon="4.82124">
        <ele>394</ele>
        <time>2011-06-02T07:52:04Z</time>
      </trkpt>
      <trkpt lat="45.85575" lon="4.82122">
        <ele>394</ele>
        <time>2011-06-02T07:52:05Z</time>
      </trkpt>
      <trkpt lat="45.85574" lon="4.8212">
        <ele>394</ele>
        <time>2011-06-02T07:52:06Z</time>
      </trkpt>
      <trkpt lat="45.85574" lon="4.82118">
        <ele>394</ele>
        <time>2011-06-02T07:52:07Z</time>
      </trkpt>
      <trkpt lat="45.85574" lon="4.82117">
        <ele>394</ele>
        <time>2011-06-02T07:52:08Z</time>
      </trkpt>
      <trkpt lat="45.85575" lon="4.82114">
        <ele>394</ele>
        <time>2011-06-02T07:52:10Z</time>
      </trkpt>
      <trkpt lat="45.85576" lon="4.82111">
        <ele>394</ele>
        <time>2011-06-02T07:52:12Z</time>
      </trkpt>
      <trkpt lat="45.85577" lon="4.82108">
        <ele>394</ele>
        <time>2011-06-02T07:52:14Z</time>
      </trkpt>
      <trkpt lat="45.85578" lon="4.82105">
        <ele>394</ele>
        <time>2011-06-02T07:52:16Z</time>
      </trkpt>
      <trkpt lat="45.8558" lon="4.82102">
        <ele>394</ele>
        <time>2011-06-02T07:52:18Z</time>
      </trkpt>
      <trkpt lat="45.8558" lon="4.821">
        <ele>394</ele>
        <time>2011-06-02T07:52:19Z</time>
      </trkpt>
      <trkpt lat="45.85581" lon="4.82098">
        <ele>394</ele>
        <time>2011-06-02T07:52:20Z</time>
      </trkpt>
      <trkpt lat="45.85582" lon="4.82096">
        <ele>394</ele>
        <time>2011-06-02T07:52:21Z</time>
      </trkpt>
      <trkpt lat="45.85582" lon="4.82094">
        <ele>394</ele>
        <time>2011-06-02T07:52:22Z</time>
      </trkpt>
      <trkpt lat="45.85583" lon="4.82091">
        <ele>394</ele>
        <time>2011-06-02T07:52:23Z</time>
      </trkpt>
      <trkpt lat="45.85583" lon="4.82089">
        <ele>394</ele>
        <time>2011-06-02T07:52:24Z</time>
      </trkpt>
      <trkpt lat="45.85583" lon="4.82087">
        <ele>394</ele>
        <time>2011-06-02T07:52:25Z</time>
      </trkpt>
      <trkpt lat="45.85583" lon="4.82085">
        <ele>394</ele>
        <time>2011-06-02T07:52:26Z</time>
      </trkpt>
      <trkpt lat="45.85583" lon="4.82083">
        <ele>394</ele>
        <time>2011-06-02T07:52:28Z</time>
      </trkpt>
      <trkpt lat="45.85583" lon="4.82082">
        <ele>394</ele>
        <time>2011-06-02T07:52:29Z</time>
      </trkpt>
      <trkpt lat="45.85582" lon="4.8208">
        <ele>394</ele>
        <time>2011-06-02T07:52:30Z</time>
      </trkpt>
      <trkpt lat="45.85582" lon="4.82078">
        <ele>394</ele>
        <time>2011-06-02T07:52:31Z</time>
      </trkpt>
      <trkpt lat="45.85582" lon="4.82076">
        <ele>394</ele>
        <time>2011-06-02T07:52:32Z</time>
      </trkpt>
      <trkpt lat="45.85582" lon="4.82073">
        <ele>394</ele>
        <time>2011-06-02T07:52:33Z</time>
      </trkpt>
      <trkpt lat="45.85582" lon="4.82071">
        <ele>394</ele>
        <time>2011-06-02T07:52:34Z</time>
      </trkpt>
      <trkpt lat="45.85583" lon="4.82069">
        <ele>394</ele>
        <time>2011-06-02T07:52:35Z</time>
      </trkpt>
      <trkpt lat="45.85584" lon="4.82066">
        <ele>394</ele>
        <time>2011-06-02T07:52:36Z</time>
      </trkpt>
      <trkpt lat="45.85585" lon="4.82064">
        <ele>394</ele>
        <time>2011-06-02T07:52:37Z</time>
      </trkpt>
      <trkpt lat="45.85586" lon="4.82063">
        <ele>394</ele>
        <time>2011-06-02T07:52:38Z</time>
      </trkpt>
      <trkpt lat="45.85587" lon="4.82061">
        <ele>394</ele>
        <time>2011-06-02T07:52:39Z</time>
      </trkpt>
      <trkpt lat="45.85588" lon="4.82059">
        <ele>394</ele>
        <time>2011-06-02T07:52:40Z</time>
      </trkpt>
      <trkpt lat="45.85589" lon="4.82057">
        <ele>394</ele>
        <time>2011-06-02T07:52:41Z</time>
      </trkpt>
      <trkpt lat="45.8559" lon="4.82054">
        <ele>394</ele>
        <time>2011-06-02T07:52:42Z</time>
      </trkpt>
      <trkpt lat="45.8559" lon="4.82052">
        <ele>395</ele>
        <time>2011-06-02T07:52:43Z</time>
      </trkpt>
      <trkpt lat="45.85591" lon="4.8205">
        <ele>395</ele>
        <time>2011-06-02T07:52:44Z</time>
      </trkpt>
      <trkpt lat="45.85592" lon="4.82048">
        <ele>395</ele>
        <time>2011-06-02T07:52:45Z</time>
      </trkpt>
      <trkpt lat="45.85593" lon="4.82046">
        <ele>396</ele>
        <time>2011-06-02T07:52:46Z</time>
      </trkpt>
      <trkpt lat="45.85594" lon="4.82044">
        <ele>396</ele>
        <time>2011-06-02T07:52:47Z</time>
      </trkpt>
      <trkpt lat="45.85595" lon="4.82042">
        <ele>397</ele>
        <time>2011-06-02T07:52:48Z</time>
      </trkpt>
      <trkpt lat="45.85595" lon="4.8204">
        <ele>397</ele>
        <time>2011-06-02T07:52:49Z</time>
      </trkpt>
      <trkpt lat="45.85596" lon="4.82038">
        <ele>398</ele>
        <time>2011-06-02T07:52:50Z</time>
      </trkpt>
      <trkpt lat="45.85598" lon="4.82036">
        <ele>398</ele>
        <time>2011-06-02T07:52:51Z</time>
      </trkpt>
      <trkpt lat="45.85599" lon="4.82034">
        <ele>398</ele>
        <time>2011-06-02T07:52:52Z</time>
      </trkpt>
      <trkpt lat="45.856" lon="4.82034">
        <ele>399</ele>
        <time>2011-06-02T07:52:53Z</time>
      </trkpt>
      <trkpt lat="45.85602" lon="4.82034">
        <ele>399</ele>
        <time>2011-06-02T07:52:54Z</time>
      </trkpt>
      <trkpt lat="45.85603" lon="4.82034">
        <ele>399</ele>
        <time>2011-06-02T07:52:55Z</time>
      </trkpt>
      <trkpt lat="45.85605" lon="4.82034">
        <ele>399</ele>
        <time>2011-06-02T07:52:56Z</time>
      </trkpt>
      <trkpt lat="45.85606" lon="4.82034">
        <ele>399</ele>
        <time>2011-06-02T07:52:57Z</time>
      </trkpt>
      <trkpt lat="45.85608" lon="4.82033">
        <ele>399</ele>
        <time>2011-06-02T07:52:58Z</time>
      </trkpt>
      <trkpt lat="45.8561" lon="4.82032">
        <ele>400</ele>
        <time>2011-06-02T07:52:59Z</time>
      </trkpt>
      <trkpt lat="45.85611" lon="4.82032">
        <ele>400</ele>
        <time>2011-06-02T07:53:00Z</time>
      </trkpt>
      <trkpt lat="45.85613" lon="4.82031">
        <ele>400</ele>
        <time>2011-06-02T07:53:01Z</time>
      </trkpt>
      <trkpt lat="45.85614" lon="4.82029">
        <ele>401</ele>
        <time>2011-06-02T07:53:02Z</time>
      </trkpt>
      <trkpt lat="45.85615" lon="4.82027">
        <ele>401</ele>
        <time>2011-06-02T07:53:03Z</time>
      </trkpt>
      <trkpt lat="45.85616" lon="4.82025">
        <ele>401</ele>
        <time>2011-06-02T07:53:05Z</time>
      </trkpt>
      <trkpt lat="45.85616" lon="4.82023">
        <ele>401</ele>
        <time>2011-06-02T07:53:06Z</time>
      </trkpt>
      <trkpt lat="45.85617" lon="4.82021">
        <ele>401</ele>
        <time>2011-06-02T07:53:07Z</time>
      </trkpt>
      <trkpt lat="45.85617" lon="4.82019">
        <ele>401</ele>
        <time>2011-06-02T07:53:08Z</time>
      </trkpt>
      <trkpt lat="45.85617" lon="4.82017">
        <ele>401</ele>
        <time>2011-06-02T07:53:09Z</time>
      </trkpt>
      <trkpt lat="45.85618" lon="4.82015">
        <ele>402</ele>
        <time>2011-06-02T07:53:10Z</time>
      </trkpt>
      <trkpt lat="45.85619" lon="4.82013">
        <ele>402</ele>
        <time>2011-06-02T07:53:11Z</time>
      </trkpt>
      <trkpt lat="45.85619" lon="4.82011">
        <ele>402</ele>
        <time>2011-06-02T07:53:12Z</time>
      </trkpt>
      <trkpt lat="45.85619" lon="4.8201">
        <ele>402</ele>
        <time>2011-06-02T07:53:14Z</time>
      </trkpt>
      <trkpt lat="45.85621" lon="4.82008">
        <ele>402</ele>
        <time>2011-06-02T07:53:21Z</time>
      </trkpt>
      <trkpt lat="45.85621" lon="4.82007">
        <ele>402</ele>
        <time>2011-06-02T07:53:22Z</time>
      </trkpt>
      <trkpt lat="45.85622" lon="4.82004">
        <ele>402</ele>
        <time>2011-06-02T07:53:24Z</time>
      </trkpt>
      <trkpt lat="45.85622" lon="4.82002">
        <ele>402</ele>
        <time>2011-06-02T07:53:25Z</time>
      </trkpt>
      <trkpt lat="45.85622" lon="4.82001">
        <ele>402</ele>
        <time>2011-06-02T07:53:26Z</time>
      </trkpt>
      <trkpt lat="45.85622" lon="4.81998">
        <ele>402</ele>
        <time>2011-06-02T07:53:28Z</time>
      </trkpt>
      <trkpt lat="45.85622" lon="4.81996">
        <ele>402</ele>
        <time>2011-06-02T07:53:30Z</time>
      </trkpt>
      <trkpt lat="45.85622" lon="4.81993">
        <ele>402</ele>
        <time>2011-06-02T07:53:32Z</time>
      </trkpt>
      <trkpt lat="45.85623" lon="4.81991">
        <ele>402</ele>
        <time>2011-06-02T07:53:33Z</time>
      </trkpt>
      <trkpt lat="45.85623" lon="4.8199">
        <ele>402</ele>
        <time>2011-06-02T07:53:34Z</time>
      </trkpt>
      <trkpt lat="45.85623" lon="4.81988">
        <ele>402</ele>
        <time>2011-06-02T07:53:35Z</time>
      </trkpt>
      <trkpt lat="45.85623" lon="4.81986">
        <ele>402</ele>
        <time>2011-06-02T07:53:36Z</time>
      </trkpt>
      <trkpt lat="45.85623" lon="4.81984">
        <ele>402</ele>
        <time>2011-06-02T07:53:37Z</time>
      </trkpt>
      <trkpt lat="45.85623" lon="4.81982">
        <ele>402</ele>
        <time>2011-06-02T07:53:38Z</time>
      </trkpt>
      <trkpt lat="45.85624" lon="4.81981">
        <ele>402</ele>
        <time>2011-06-02T07:53:39Z</time>
      </trkpt>
      <trkpt lat="45.85624" lon="4.81979">
        <ele>402</ele>
        <time>2011-06-02T07:53:40Z</time>
      </trkpt>
      <trkpt lat="45.85624" lon="4.81978">
        <ele>402</ele>
        <time>2011-06-02T07:53:41Z</time>
      </trkpt>
      <trkpt lat="45.85624" lon="4.81974">
        <ele>402</ele>
        <time>2011-06-02T07:53:43Z</time>
      </trkpt>
      <trkpt lat="45.85625" lon="4.81972">
        <ele>402</ele>
        <time>2011-06-02T07:53:44Z</time>
      </trkpt>
      <trkpt lat="45.85625" lon="4.8197">
        <ele>402</ele>
        <time>2011-06-02T07:53:46Z</time>
      </trkpt>
      <trkpt lat="45.85625" lon="4.81968">
        <ele>402</ele>
        <time>2011-06-02T07:53:47Z</time>
      </trkpt>
      <trkpt lat="45.85627" lon="4.81967">
        <ele>402</ele>
        <time>2011-06-02T07:53:48Z</time>
      </trkpt>
      <trkpt lat="45.85628" lon="4.81965">
        <ele>402</ele>
        <time>2011-06-02T07:53:49Z</time>
      </trkpt>
      <trkpt lat="45.85629" lon="4.81964">
        <ele>402</ele>
        <time>2011-06-02T07:53:50Z</time>
      </trkpt>
      <trkpt lat="45.85631" lon="4.81963">
        <ele>402</ele>
        <time>2011-06-02T07:53:52Z</time>
      </trkpt>
      <trkpt lat="45.85633" lon="4.8196">
        <ele>402</ele>
        <time>2011-06-02T07:53:54Z</time>
      </trkpt>
      <trkpt lat="45.85635" lon="4.81959">
        <ele>402</ele>
        <time>2011-06-02T07:53:55Z</time>
      </trkpt>
      <trkpt lat="45.85636" lon="4.81958">
        <ele>402</ele>
        <time>2011-06-02T07:53:56Z</time>
      </trkpt>
      <trkpt lat="45.85637" lon="4.81957">
        <ele>402</ele>
        <time>2011-06-02T07:53:57Z</time>
      </trkpt>
      <trkpt lat="45.85638" lon="4.81956">
        <ele>402</ele>
        <time>2011-06-02T07:53:58Z</time>
      </trkpt>
      <trkpt lat="45.8564" lon="4.81955">
        <ele>402</ele>
        <time>2011-06-02T07:53:59Z</time>
      </trkpt>
      <trkpt lat="45.85641" lon="4.81954">
        <ele>403</ele>
        <time>2011-06-02T07:54:00Z</time>
      </trkpt>
      <trkpt lat="45.85643" lon="4.81953">
        <ele>403</ele>
        <time>2011-06-02T07:54:01Z</time>
      </trkpt>
      <trkpt lat="45.85645" lon="4.81952">
        <ele>403</ele>
        <time>2011-06-02T07:54:02Z</time>
      </trkpt>
      <trkpt lat="45.85646" lon="4.81952">
        <ele>404</ele>
        <time>2011-06-02T07:54:03Z</time>
      </trkpt>
      <trkpt lat="45.85647" lon="4.81951">
        <ele>404</ele>
        <time>2011-06-02T07:54:04Z</time>
      </trkpt>
      <trkpt lat="45.85649" lon="4.8195">
        <ele>405</ele>
        <time>2011-06-02T07:54:05Z</time>
      </trkpt>
      <trkpt lat="45.8565" lon="4.8195">
        <ele>405</ele>
        <time>2011-06-02T07:54:06Z</time>
      </trkpt>
      <trkpt lat="45.85652" lon="4.81949">
        <ele>405</ele>
        <time>2011-06-02T07:54:07Z</time>
      </trkpt>
      <trkpt lat="45.85654" lon="4.81948">
        <ele>405</ele>
        <time>2011-06-02T07:54:08Z</time>
      </trkpt>
      <trkpt lat="45.85655" lon="4.81947">
        <ele>406</ele>
        <time>2011-06-02T07:54:09Z</time>
      </trkpt>
      <trkpt lat="45.85657" lon="4.81946">
        <ele>406</ele>
        <time>2011-06-02T07:54:10Z</time>
      </trkpt>
      <trkpt lat="45.85659" lon="4.81946">
        <ele>406</ele>
        <time>2011-06-02T07:54:11Z</time>
      </trkpt>
      <trkpt lat="45.85661" lon="4.81946">
        <ele>406</ele>
        <time>2011-06-02T07:54:12Z</time>
      </trkpt>
      <trkpt lat="45.85664" lon="4.81946">
        <ele>406</ele>
        <time>2011-06-02T07:54:13Z</time>
      </trkpt>
      <trkpt lat="45.85667" lon="4.81945">
        <ele>406</ele>
        <time>2011-06-02T07:54:14Z</time>
      </trkpt>
      <trkpt lat="45.85669" lon="4.81944">
        <ele>406</ele>
        <time>2011-06-02T07:54:15Z</time>
      </trkpt>
      <trkpt lat="45.85671" lon="4.81943">
        <ele>406</ele>
        <time>2011-06-02T07:54:16Z</time>
      </trkpt>
      <trkpt lat="45.85674" lon="4.81942">
        <ele>406</ele>
        <time>2011-06-02T07:54:17Z</time>
      </trkpt>
      <trkpt lat="45.85675" lon="4.8194">
        <ele>406</ele>
        <time>2011-06-02T07:54:18Z</time>
      </trkpt>
      <trkpt lat="45.85677" lon="4.81939">
        <ele>406</ele>
        <time>2011-06-02T07:54:19Z</time>
      </trkpt>
      <trkpt lat="45.85679" lon="4.81938">
        <ele>406</ele>
        <time>2011-06-02T07:54:20Z</time>
      </trkpt>
      <trkpt lat="45.85681" lon="4.81936">
        <ele>406</ele>
        <time>2011-06-02T07:54:21Z</time>
      </trkpt>
      <trkpt lat="45.85683" lon="4.81935">
        <ele>406</ele>
        <time>2011-06-02T07:54:22Z</time>
      </trkpt>
      <trkpt lat="45.85685" lon="4.81934">
        <ele>406</ele>
        <time>2011-06-02T07:54:23Z</time>
      </trkpt>
      <trkpt lat="45.85686" lon="4.81932">
        <ele>406</ele>
        <time>2011-06-02T07:54:24Z</time>
      </trkpt>
      <trkpt lat="45.85688" lon="4.8193">
        <ele>406</ele>
        <time>2011-06-02T07:54:25Z</time>
      </trkpt>
      <trkpt lat="45.8569" lon="4.81929">
        <ele>406</ele>
        <time>2011-06-02T07:54:26Z</time>
      </trkpt>
      <trkpt lat="45.85691" lon="4.81927">
        <ele>406</ele>
        <time>2011-06-02T07:54:27Z</time>
      </trkpt>
      <trkpt lat="45.85693" lon="4.81925">
        <ele>406</ele>
        <time>2011-06-02T07:54:28Z</time>
      </trkpt>
      <trkpt lat="45.85695" lon="4.81924">
        <ele>406</ele>
        <time>2011-06-02T07:54:29Z</time>
      </trkpt>
      <trkpt lat="45.85697" lon="4.81921">
        <ele>406</ele>
        <time>2011-06-02T07:54:30Z</time>
      </trkpt>
      <trkpt lat="45.85699" lon="4.8192">
        <ele>406</ele>
        <time>2011-06-02T07:54:31Z</time>
      </trkpt>
      <trkpt lat="45.85701" lon="4.81917">
        <ele>406</ele>
        <time>2011-06-02T07:54:32Z</time>
      </trkpt>
      <trkpt lat="45.85702" lon="4.81915">
        <ele>406</ele>
        <time>2011-06-02T07:54:33Z</time>
      </trkpt>
      <trkpt lat="45.85704" lon="4.81912">
        <ele>406</ele>
        <time>2011-06-02T07:54:34Z</time>
      </trkpt>
      <trkpt lat="45.85706" lon="4.81909">
        <ele>406</ele>
        <time>2011-06-02T07:54:35Z</time>
      </trkpt>
      <trkpt lat="45.85708" lon="4.81906">
        <ele>407</ele>
        <time>2011-06-02T07:54:36Z</time>
      </trkpt>
      <trkpt lat="45.85709" lon="4.81902">
        <ele>407</ele>
        <time>2011-06-02T07:54:37Z</time>
      </trkpt>
      <trkpt lat="45.85709" lon="4.81898">
        <ele>407</ele>
        <time>2011-06-02T07:54:38Z</time>
      </trkpt>
      <trkpt lat="45.85709" lon="4.81894">
        <ele>407</ele>
        <time>2011-06-02T07:54:39Z</time>
      </trkpt>
      <trkpt lat="45.85708" lon="4.81891">
        <ele>407</ele>
        <time>2011-06-02T07:54:40Z</time>
      </trkpt>
      <trkpt lat="45.85706" lon="4.81889">
        <ele>407</ele>
        <time>2011-06-02T07:54:41Z</time>
      </trkpt>
      <trkpt lat="45.85705" lon="4.81887">
        <ele>407</ele>
        <time>2011-06-02T07:54:42Z</time>
      </trkpt>
      <trkpt lat="45.85704" lon="4.81885">
        <ele>407</ele>
        <time>2011-06-02T07:54:44Z</time>
      </trkpt>
      <trkpt lat="45.85702" lon="4.81884">
        <ele>407</ele>
        <time>2011-06-02T07:54:45Z</time>
      </trkpt>
      <trkpt lat="45.85701" lon="4.81882">
        <ele>407</ele>
        <time>2011-06-02T07:54:46Z</time>
      </trkpt>
      <trkpt lat="45.857" lon="4.81882">
        <ele>408</ele>
        <time>2011-06-02T07:54:47Z</time>
      </trkpt>
      <trkpt lat="45.85698" lon="4.81882">
        <ele>408</ele>
        <time>2011-06-02T07:54:48Z</time>
      </trkpt>
      <trkpt lat="45.85697" lon="4.81881">
        <ele>408</ele>
        <time>2011-06-02T07:54:49Z</time>
      </trkpt>
      <trkpt lat="45.85696" lon="4.81879">
        <ele>409</ele>
        <time>2011-06-02T07:54:51Z</time>
      </trkpt>
      <trkpt lat="45.85694" lon="4.81878">
        <ele>410</ele>
        <time>2011-06-02T07:54:53Z</time>
      </trkpt>
      <trkpt lat="45.85692" lon="4.81878">
        <ele>410</ele>
        <time>2011-06-02T07:54:54Z</time>
      </trkpt>
      <trkpt lat="45.8569" lon="4.81878">
        <ele>411</ele>
        <time>2011-06-02T07:54:56Z</time>
      </trkpt>
      <trkpt lat="45.85688" lon="4.8188">
        <ele>411</ele>
        <time>2011-06-02T07:54:58Z</time>
      </trkpt>
      <trkpt lat="45.85686" lon="4.81881">
        <ele>411</ele>
        <time>2011-06-02T07:55:00Z</time>
      </trkpt>
      <trkpt lat="45.85684" lon="4.81882">
        <ele>411</ele>
        <time>2011-06-02T07:55:02Z</time>
      </trkpt>
      <trkpt lat="45.85683" lon="4.81884">
        <ele>411</ele>
        <time>2011-06-02T07:55:03Z</time>
      </trkpt>
      <trkpt lat="45.85681" lon="4.81885">
        <ele>411</ele>
        <time>2011-06-02T07:55:04Z</time>
      </trkpt>
      <trkpt lat="45.8568" lon="4.81887">
        <ele>411</ele>
        <time>2011-06-02T07:55:05Z</time>
      </trkpt>
      <trkpt lat="45.85678" lon="4.81888">
        <ele>411</ele>
        <time>2011-06-02T07:55:06Z</time>
      </trkpt>
      <trkpt lat="45.85676" lon="4.81889">
        <ele>411</ele>
        <time>2011-06-02T07:55:07Z</time>
      </trkpt>
      <trkpt lat="45.85674" lon="4.81889">
        <ele>411</ele>
        <time>2011-06-02T07:55:08Z</time>
      </trkpt>
      <trkpt lat="45.85672" lon="4.8189">
        <ele>412</ele>
        <time>2011-06-02T07:55:09Z</time>
      </trkpt>
      <trkpt lat="45.8567" lon="4.8189">
        <ele>412</ele>
        <time>2011-06-02T07:55:10Z</time>
      </trkpt>
      <trkpt lat="45.85669" lon="4.8189">
        <ele>413</ele>
        <time>2011-06-02T07:55:11Z</time>
      </trkpt>
      <trkpt lat="45.85667" lon="4.8189">
        <ele>414</ele>
        <time>2011-06-02T07:55:12Z</time>
      </trkpt>
      <trkpt lat="45.85664" lon="4.8189">
        <ele>415</ele>
        <time>2011-06-02T07:55:13Z</time>
      </trkpt>
      <trkpt lat="45.85662" lon="4.81891">
        <ele>415</ele>
        <time>2011-06-02T07:55:14Z</time>
      </trkpt>
      <trkpt lat="45.85661" lon="4.81891">
        <ele>416</ele>
        <time>2011-06-02T07:55:15Z</time>
      </trkpt>
      <trkpt lat="45.85658" lon="4.81891">
        <ele>416</ele>
        <time>2011-06-02T07:55:16Z</time>
      </trkpt>
      <trkpt lat="45.85656" lon="4.81891">
        <ele>416</ele>
        <time>2011-06-02T07:55:17Z</time>
      </trkpt>
      <trkpt lat="45.85654" lon="4.81891">
        <ele>416</ele>
        <time>2011-06-02T07:55:18Z</time>
      </trkpt>
      <trkpt lat="45.85653" lon="4.8189">
        <ele>417</ele>
        <time>2011-06-02T07:55:19Z</time>
      </trkpt>
      <trkpt lat="45.85651" lon="4.81891">
        <ele>417</ele>
        <time>2011-06-02T07:55:20Z</time>
      </trkpt>
      <trkpt lat="45.85649" lon="4.8189">
        <ele>417</ele>
        <time>2011-06-02T07:55:21Z</time>
      </trkpt>
      <trkpt lat="45.85648" lon="4.8189">
        <ele>417</ele>
        <time>2011-06-02T07:55:22Z</time>
      </trkpt>
      <trkpt lat="45.85646" lon="4.81889">
        <ele>417</ele>
        <time>2011-06-02T07:55:24Z</time>
      </trkpt>
      <trkpt lat="45.85645" lon="4.81889">
        <ele>417</ele>
        <time>2011-06-02T07:55:26Z</time>
      </trkpt>
      <trkpt lat="45.85645" lon="4.81887">
        <ele>417</ele>
        <time>2011-06-02T07:55:30Z</time>
      </trkpt>
      <trkpt lat="45.85643" lon="4.81886">
        <ele>417</ele>
        <time>2011-06-02T07:55:40Z</time>
      </trkpt>
      <trkpt lat="45.85642" lon="4.81885">
        <ele>417</ele>
        <time>2011-06-02T07:55:48Z</time>
      </trkpt>
      <trkpt lat="45.85641" lon="4.81883">
        <ele>417</ele>
        <time>2011-06-02T07:55:50Z</time>
      </trkpt>
      <trkpt lat="45.8564" lon="4.81882">
        <ele>417</ele>
        <time>2011-06-02T07:55:52Z</time>
      </trkpt>
      <trkpt lat="45.85639" lon="4.81882">
        <ele>417</ele>
        <time>2011-06-02T07:55:54Z</time>
      </trkpt>
      <trkpt lat="45.85637" lon="4.81882">
        <ele>417</ele>
        <time>2011-06-02T07:55:56Z</time>
      </trkpt>
      <trkpt lat="45.85636" lon="4.81883">
        <ele>416</ele>
        <time>2011-06-02T07:55:58Z</time>
      </trkpt>
      <trkpt lat="45.85635" lon="4.81883">
        <ele>414</ele>
        <time>2011-06-02T07:56:01Z</time>
      </trkpt>
      <trkpt lat="45.85634" lon="4.81884">
        <ele>413</ele>
        <time>2011-06-02T07:56:06Z</time>
      </trkpt>
      <trkpt lat="45.85632" lon="4.81884">
        <ele>413</ele>
        <time>2011-06-02T07:56:22Z</time>
      </trkpt>
      <trkpt lat="45.85631" lon="4.81884">
        <ele>413</ele>
        <time>2011-06-02T07:56:41Z</time>
      </trkpt>
      <trkpt lat="45.8563" lon="4.81883">
        <ele>413</ele>
        <time>2011-06-02T07:56:44Z</time>
      </trkpt>
      <trkpt lat="45.85629" lon="4.81881">
        <ele>413</ele>
        <time>2011-06-02T07:56:46Z</time>
      </trkpt>
      <trkpt lat="45.85629" lon="4.81879">
        <ele>413</ele>
        <time>2011-06-02T07:56:48Z</time>
      </trkpt>
      <trkpt lat="45.85629" lon="4.81877">
        <ele>412</ele>
        <time>2011-06-02T07:57:01Z</time>
      </trkpt>
      <trkpt lat="45.8563" lon="4.81877">
        <ele>412</ele>
        <time>2011-06-02T07:57:14Z</time>
      </trkpt>
      <trkpt lat="45.85629" lon="4.81875">
        <ele>412</ele>
        <time>2011-06-02T07:57:21Z</time>
      </trkpt>
      <trkpt lat="45.85626" lon="4.81873">
        <ele>411</ele>
        <time>2011-06-02T07:57:23Z</time>
      </trkpt>
      <trkpt lat="45.85625" lon="4.81871">
        <ele>411</ele>
        <time>2011-06-02T07:57:24Z</time>
      </trkpt>
      <trkpt lat="45.85624" lon="4.81869">
        <ele>411</ele>
        <time>2011-06-02T07:57:25Z</time>
      </trkpt>
      <trkpt lat="45.85622" lon="4.81868">
        <ele>411</ele>
        <time>2011-06-02T07:57:26Z</time>
      </trkpt>
      <trkpt lat="45.85621" lon="4.81866">
        <ele>411</ele>
        <time>2011-06-02T07:57:27Z</time>
      </trkpt>
      <trkpt lat="45.85619" lon="4.81863">
        <ele>411</ele>
        <time>2011-06-02T07:57:28Z</time>
      </trkpt>
      <trkpt lat="45.85618" lon="4.81861">
        <ele>411</ele>
        <time>2011-06-02T07:57:29Z</time>
      </trkpt>
      <trkpt lat="45.85616" lon="4.81859">
        <ele>411</ele>
        <time>2011-06-02T07:57:30Z</time>
      </trkpt>
      <trkpt lat="45.85614" lon="4.81857">
        <ele>411</ele>
        <time>2011-06-02T07:57:31Z</time>
      </trkpt>
      <trkpt lat="45.85613" lon="4.81855">
        <ele>411</ele>
        <time>2011-06-02T07:57:32Z</time>
      </trkpt>
      <trkpt lat="45.85611" lon="4.81853">
        <ele>411</ele>
        <time>2011-06-02T07:57:33Z</time>
      </trkpt>
      <trkpt lat="45.85609" lon="4.81851">
        <ele>411</ele>
        <time>2011-06-02T07:57:34Z</time>
      </trkpt>
      <trkpt lat="45.85608" lon="4.81849">
        <ele>411</ele>
        <time>2011-06-02T07:57:35Z</time>
      </trkpt>
      <trkpt lat="45.85607" lon="4.81846">
        <ele>411</ele>
        <time>2011-06-02T07:57:36Z</time>
      </trkpt>
      <trkpt lat="45.85606" lon="4.81844">
        <ele>411</ele>
        <time>2011-06-02T07:57:37Z</time>
      </trkpt>
      <trkpt lat="45.85604" lon="4.81842">
        <ele>411</ele>
        <time>2011-06-02T07:57:38Z</time>
      </trkpt>
      <trkpt lat="45.85602" lon="4.81839">
        <ele>411</ele>
        <time>2011-06-02T07:57:39Z</time>
      </trkpt>
      <trkpt lat="45.85601" lon="4.81837">
        <ele>411</ele>
        <time>2011-06-02T07:57:40Z</time>
      </trkpt>
      <trkpt lat="45.85599" lon="4.81834">
        <ele>411</ele>
        <time>2011-06-02T07:57:41Z</time>
      </trkpt>
      <trkpt lat="45.85597" lon="4.81831">
        <ele>411</ele>
        <time>2011-06-02T07:57:42Z</time>
      </trkpt>
      <trkpt lat="45.85595" lon="4.81828">
        <ele>411</ele>
        <time>2011-06-02T07:57:43Z</time>
      </trkpt>
      <trkpt lat="45.85593" lon="4.81826">
        <ele>411</ele>
        <time>2011-06-02T07:57:44Z</time>
      </trkpt>
      <trkpt lat="45.85591" lon="4.81824">
        <ele>411</ele>
        <time>2011-06-02T07:57:45Z</time>
      </trkpt>
      <trkpt lat="45.8559" lon="4.81822">
        <ele>411</ele>
        <time>2011-06-02T07:57:46Z</time>
      </trkpt>
      <trkpt lat="45.85588" lon="4.8182">
        <ele>411</ele>
        <time>2011-06-02T07:57:47Z</time>
      </trkpt>
      <trkpt lat="45.85587" lon="4.81818">
        <ele>411</ele>
        <time>2011-06-02T07:57:48Z</time>
      </trkpt>
      <trkpt lat="45.85585" lon="4.81816">
        <ele>411</ele>
        <time>2011-06-02T07:57:49Z</time>
      </trkpt>
      <trkpt lat="45.85583" lon="4.81815">
        <ele>411</ele>
        <time>2011-06-02T07:57:50Z</time>
      </trkpt>
      <trkpt lat="45.85581" lon="4.81812">
        <ele>411</ele>
        <time>2011-06-02T07:57:51Z</time>
      </trkpt>
      <trkpt lat="45.85579" lon="4.81809">
        <ele>411</ele>
        <time>2011-06-02T07:57:52Z</time>
      </trkpt>
      <trkpt lat="45.85577" lon="4.81807">
        <ele>411</ele>
        <time>2011-06-02T07:57:53Z</time>
      </trkpt>
      <trkpt lat="45.85575" lon="4.81805">
        <ele>411</ele>
        <time>2011-06-02T07:57:54Z</time>
      </trkpt>
      <trkpt lat="45.85575" lon="4.81802">
        <ele>411</ele>
        <time>2011-06-02T07:57:55Z</time>
      </trkpt>
      <trkpt lat="45.85574" lon="4.81799">
        <ele>411</ele>
        <time>2011-06-02T07:57:56Z</time>
      </trkpt>
      <trkpt lat="45.85575" lon="4.81797">
        <ele>411</ele>
        <time>2011-06-02T07:57:57Z</time>
      </trkpt>
      <trkpt lat="45.85575" lon="4.81794">
        <ele>411</ele>
        <time>2011-06-02T07:57:58Z</time>
      </trkpt>
      <trkpt lat="45.85576" lon="4.81791">
        <ele>410</ele>
        <time>2011-06-02T07:57:59Z</time>
      </trkpt>
      <trkpt lat="45.85577" lon="4.81789">
        <ele>409</ele>
        <time>2011-06-02T07:58:00Z</time>
      </trkpt>
      <trkpt lat="45.85579" lon="4.81788">
        <ele>408</ele>
        <time>2011-06-02T07:58:01Z</time>
      </trkpt>
      <trkpt lat="45.85581" lon="4.81786">
        <ele>407</ele>
        <time>2011-06-02T07:58:02Z</time>
      </trkpt>
      <trkpt lat="45.85581" lon="4.81784">
        <ele>406</ele>
        <time>2011-06-02T07:58:03Z</time>
      </trkpt>
      <trkpt lat="45.85581" lon="4.81782">
        <ele>406</ele>
        <time>2011-06-02T07:58:04Z</time>
      </trkpt>
      <trkpt lat="45.85582" lon="4.8178">
        <ele>406</ele>
        <time>2011-06-02T07:58:05Z</time>
      </trkpt>
      <trkpt lat="45.85583" lon="4.81778">
        <ele>405</ele>
        <time>2011-06-02T07:58:06Z</time>
      </trkpt>
      <trkpt lat="45.85583" lon="4.81776">
        <ele>405</ele>
        <time>2011-06-02T07:58:07Z</time>
      </trkpt>
      <trkpt lat="45.85585" lon="4.81773">
        <ele>405</ele>
        <time>2011-06-02T07:58:08Z</time>
      </trkpt>
      <trkpt lat="45.85586" lon="4.81771">
        <ele>405</ele>
        <time>2011-06-02T07:58:09Z</time>
      </trkpt>
      <trkpt lat="45.85587" lon="4.81769">
        <ele>405</ele>
        <time>2011-06-02T07:58:10Z</time>
      </trkpt>
      <trkpt lat="45.85587" lon="4.81767">
        <ele>404</ele>
        <time>2011-06-02T07:58:11Z</time>
      </trkpt>
      <trkpt lat="45.85588" lon="4.81765">
        <ele>404</ele>
        <time>2011-06-02T07:58:12Z</time>
      </trkpt>
      <trkpt lat="45.85588" lon="4.81763">
        <ele>404</ele>
        <time>2011-06-02T07:58:13Z</time>
      </trkpt>
      <trkpt lat="45.8559" lon="4.81762">
        <ele>404</ele>
        <time>2011-06-02T07:58:14Z</time>
      </trkpt>
      <trkpt lat="45.85592" lon="4.8176">
        <ele>404</ele>
        <time>2011-06-02T07:58:16Z</time>
      </trkpt>
      <trkpt lat="45.85594" lon="4.81758">
        <ele>404</ele>
        <time>2011-06-02T07:58:17Z</time>
      </trkpt>
      <trkpt lat="45.85596" lon="4.81756">
        <ele>404</ele>
        <time>2011-06-02T07:58:18Z</time>
      </trkpt>
      <trkpt lat="45.85597" lon="4.81754">
        <ele>404</ele>
        <time>2011-06-02T07:58:19Z</time>
      </trkpt>
      <trkpt lat="45.856" lon="4.81751">
        <ele>404</ele>
        <time>2011-06-02T07:58:20Z</time>
      </trkpt>
      <trkpt lat="45.85602" lon="4.81749">
        <ele>404</ele>
        <time>2011-06-02T07:58:21Z</time>
      </trkpt>
      <trkpt lat="45.85604" lon="4.81746">
        <ele>405</ele>
        <time>2011-06-02T07:58:22Z</time>
      </trkpt>
      <trkpt lat="45.85606" lon="4.81742">
        <ele>405</ele>
        <time>2011-06-02T07:58:23Z</time>
      </trkpt>
      <trkpt lat="45.85608" lon="4.81738">
        <ele>405</ele>
        <time>2011-06-02T07:58:24Z</time>
      </trkpt>
      <trkpt lat="45.85609" lon="4.81733">
        <ele>405</ele>
        <time>2011-06-02T07:58:25Z</time>
      </trkpt>
      <trkpt lat="45.85611" lon="4.81729">
        <ele>405</ele>
        <time>2011-06-02T07:58:26Z</time>
      </trkpt>
      <trkpt lat="45.85613" lon="4.81725">
        <ele>405</ele>
        <time>2011-06-02T07:58:27Z</time>
      </trkpt>
      <trkpt lat="45.85614" lon="4.81722">
        <ele>405</ele>
        <time>2011-06-02T07:58:28Z</time>
      </trkpt>
      <trkpt lat="45.85615" lon="4.81719">
        <ele>405</ele>
        <time>2011-06-02T07:58:29Z</time>
      </trkpt>
      <trkpt lat="45.85615" lon="4.81717">
        <ele>405</ele>
        <time>2011-06-02T07:58:30Z</time>
      </trkpt>
      <trkpt lat="45.85615" lon="4.81715">
        <ele>405</ele>
        <time>2011-06-02T07:58:31Z</time>
      </trkpt>
      <trkpt lat="45.85615" lon="4.81714">
        <ele>405</ele>
        <time>2011-06-02T07:58:32Z</time>
      </trkpt>
      <trkpt lat="45.85615" lon="4.81712">
        <ele>405</ele>
        <time>2011-06-02T07:58:33Z</time>
      </trkpt>
      <trkpt lat="45.85614" lon="4.81709">
        <ele>405</ele>
        <time>2011-06-02T07:58:35Z</time>
      </trkpt>
      <trkpt lat="45.85612" lon="4.81707">
        <ele>405</ele>
        <time>2011-06-02T07:58:36Z</time>
      </trkpt>
      <trkpt lat="45.8561" lon="4.81707">
        <ele>405</ele>
        <time>2011-06-02T07:58:37Z</time>
      </trkpt>
      <trkpt lat="45.85609" lon="4.81706">
        <ele>405</ele>
        <time>2011-06-02T07:58:38Z</time>
      </trkpt>
      <trkpt lat="45.85608" lon="4.81704">
        <ele>405</ele>
        <time>2011-06-02T07:58:39Z</time>
      </trkpt>
      <trkpt lat="45.85608" lon="4.81701">
        <ele>405</ele>
        <time>2011-06-02T07:58:40Z</time>
      </trkpt>
      <trkpt lat="45.85609" lon="4.81698">
        <ele>405</ele>
        <time>2011-06-02T07:58:41Z</time>
      </trkpt>
      <trkpt lat="45.8561" lon="4.81693">
        <ele>405</ele>
        <time>2011-06-02T07:58:42Z</time>
      </trkpt>
      <trkpt lat="45.85611" lon="4.8169">
        <ele>405</ele>
        <time>2011-06-02T07:58:43Z</time>
      </trkpt>
      <trkpt lat="45.85611" lon="4.81686">
        <ele>405</ele>
        <time>2011-06-02T07:58:44Z</time>
      </trkpt>
      <trkpt lat="45.85612" lon="4.81683">
        <ele>405</ele>
        <time>2011-06-02T07:58:45Z</time>
      </trkpt>
      <trkpt lat="45.85613" lon="4.81681">
        <ele>405</ele>
        <time>2011-06-02T07:58:46Z</time>
      </trkpt>
      <trkpt lat="45.85614" lon="4.81678">
        <ele>405</ele>
        <time>2011-06-02T07:58:47Z</time>
      </trkpt>
      <trkpt lat="45.85615" lon="4.81676">
        <ele>405</ele>
        <time>2011-06-02T07:58:48Z</time>
      </trkpt>
      <trkpt lat="45.85615" lon="4.81675">
        <ele>405</ele>
        <time>2011-06-02T07:58:49Z</time>
      </trkpt>
      <trkpt lat="45.85614" lon="4.81672">
        <ele>404</ele>
        <time>2011-06-02T07:58:51Z</time>
      </trkpt>
      <trkpt lat="45.85612" lon="4.81671">
        <ele>404</ele>
        <time>2011-06-02T07:58:53Z</time>
      </trkpt>
      <trkpt lat="45.85611" lon="4.81671">
        <ele>404</ele>
        <time>2011-06-02T07:58:54Z</time>
      </trkpt>
      <trkpt lat="45.85609" lon="4.81671">
        <ele>404</ele>
        <time>2011-06-02T07:58:55Z</time>
      </trkpt>
      <trkpt lat="45.85608" lon="4.8167">
        <ele>404</ele>
        <time>2011-06-02T07:58:56Z</time>
      </trkpt>
      <trkpt lat="45.85606" lon="4.81669">
        <ele>404</ele>
        <time>2011-06-02T07:58:57Z</time>
      </trkpt>
      <trkpt lat="45.85605" lon="4.81667">
        <ele>404</ele>
        <time>2011-06-02T07:58:58Z</time>
      </trkpt>
      <trkpt lat="45.85603" lon="4.81666">
        <ele>404</ele>
        <time>2011-06-02T07:58:59Z</time>
      </trkpt>
      <trkpt lat="45.85601" lon="4.81666">
        <ele>404</ele>
        <time>2011-06-02T07:59:00Z</time>
      </trkpt>
      <trkpt lat="45.856" lon="4.81665">
        <ele>404</ele>
        <time>2011-06-02T07:59:01Z</time>
      </trkpt>
      <trkpt lat="45.85598" lon="4.81662">
        <ele>404</ele>
        <time>2011-06-02T07:59:03Z</time>
      </trkpt>
      <trkpt lat="45.85597" lon="4.8166">
        <ele>404</ele>
        <time>2011-06-02T07:59:04Z</time>
      </trkpt>
      <trkpt lat="45.85596" lon="4.81659">
        <ele>404</ele>
        <time>2011-06-02T07:59:05Z</time>
      </trkpt>
      <trkpt lat="45.85596" lon="4.81657">
        <ele>404</ele>
        <time>2011-06-02T07:59:06Z</time>
      </trkpt>
      <trkpt lat="45.85595" lon="4.81655">
        <ele>404</ele>
        <time>2011-06-02T07:59:07Z</time>
      </trkpt>
      <trkpt lat="45.85595" lon="4.81653">
        <ele>404</ele>
        <time>2011-06-02T07:59:08Z</time>
      </trkpt>
      <trkpt lat="45.85594" lon="4.81651">
        <ele>404</ele>
        <time>2011-06-02T07:59:09Z</time>
      </trkpt>
      <trkpt lat="45.85593" lon="4.81649">
        <ele>404</ele>
        <time>2011-06-02T07:59:10Z</time>
      </trkpt>
      <trkpt lat="45.85592" lon="4.81647">
        <ele>404</ele>
        <time>2011-06-02T07:59:11Z</time>
      </trkpt>
      <trkpt lat="45.85591" lon="4.81646">
        <ele>404</ele>
        <time>2011-06-02T07:59:12Z</time>
      </trkpt>
      <trkpt lat="45.85589" lon="4.81645">
        <ele>404</ele>
        <time>2011-06-02T07:59:13Z</time>
      </trkpt>
      <trkpt lat="45.85588" lon="4.81643">
        <ele>404</ele>
        <time>2011-06-02T07:59:14Z</time>
      </trkpt>
      <trkpt lat="45.85587" lon="4.81642">
        <ele>404</ele>
        <time>2011-06-02T07:59:15Z</time>
      </trkpt>
      <trkpt lat="45.85585" lon="4.81641">
        <ele>404</ele>
        <time>2011-06-02T07:59:16Z</time>
      </trkpt>
      <trkpt lat="45.85584" lon="4.8164">
        <ele>404</ele>
        <time>2011-06-02T07:59:17Z</time>
      </trkpt>
      <trkpt lat="45.85583" lon="4.81638">
        <ele>404</ele>
        <time>2011-06-02T07:59:18Z</time>
      </trkpt>
      <trkpt lat="45.85582" lon="4.81637">
        <ele>404</ele>
        <time>2011-06-02T07:59:19Z</time>
      </trkpt>
      <trkpt lat="45.8558" lon="4.81635">
        <ele>404</ele>
        <time>2011-06-02T07:59:21Z</time>
      </trkpt>
      <trkpt lat="45.85578" lon="4.81634">
        <ele>404</ele>
        <time>2011-06-02T07:59:22Z</time>
      </trkpt>
      <trkpt lat="45.85577" lon="4.81633">
        <ele>404</ele>
        <time>2011-06-02T07:59:23Z</time>
      </trkpt>
      <trkpt lat="45.85577" lon="4.81631">
        <ele>404</ele>
        <time>2011-06-02T07:59:24Z</time>
      </trkpt>
      <trkpt lat="45.85576" lon="4.81629">
        <ele>404</ele>
        <time>2011-06-02T07:59:25Z</time>
      </trkpt>
      <trkpt lat="45.85575" lon="4.81627">
        <ele>404</ele>
        <time>2011-06-02T07:59:26Z</time>
      </trkpt>
      <trkpt lat="45.85575" lon="4.81625">
        <ele>404</ele>
        <time>2011-06-02T07:59:27Z</time>
      </trkpt>
      <trkpt lat="45.85574" lon="4.81624">
        <ele>404</ele>
        <time>2011-06-02T07:59:28Z</time>
      </trkpt>
      <trkpt lat="45.85573" lon="4.81621">
        <ele>404</ele>
        <time>2011-06-02T07:59:29Z</time>
      </trkpt>
      <trkpt lat="45.85572" lon="4.81618">
        <ele>404</ele>
        <time>2011-06-02T07:59:31Z</time>
      </trkpt>
      <trkpt lat="45.85571" lon="4.81616">
        <ele>404</ele>
        <time>2011-06-02T07:59:33Z</time>
      </trkpt>
      <trkpt lat="45.85569" lon="4.81613">
        <ele>404</ele>
        <time>2011-06-02T07:59:35Z</time>
      </trkpt>
      <trkpt lat="45.85569" lon="4.81611">
        <ele>405</ele>
        <time>2011-06-02T07:59:36Z</time>
      </trkpt>
      <trkpt lat="45.85567" lon="4.81609">
        <ele>406</ele>
        <time>2011-06-02T07:59:38Z</time>
      </trkpt>
      <trkpt lat="45.85566" lon="4.81607">
        <ele>406</ele>
        <time>2011-06-02T07:59:39Z</time>
      </trkpt>
      <trkpt lat="45.85566" lon="4.81605">
        <ele>406</ele>
        <time>2011-06-02T07:59:40Z</time>
      </trkpt>
      <trkpt lat="45.85565" lon="4.81603">
        <ele>406</ele>
        <time>2011-06-02T07:59:41Z</time>
      </trkpt>
      <trkpt lat="45.85564" lon="4.81602">
        <ele>406</ele>
        <time>2011-06-02T07:59:42Z</time>
      </trkpt>
      <trkpt lat="45.85563" lon="4.816">
        <ele>406</ele>
        <time>2011-06-02T07:59:43Z</time>
      </trkpt>
      <trkpt lat="45.85562" lon="4.81599">
        <ele>406</ele>
        <time>2011-06-02T07:59:44Z</time>
      </trkpt>
      <trkpt lat="45.8556" lon="4.81596">
        <ele>406</ele>
        <time>2011-06-02T07:59:46Z</time>
      </trkpt>
      <trkpt lat="45.85559" lon="4.81594">
        <ele>407</ele>
        <time>2011-06-02T07:59:48Z</time>
      </trkpt>
      <trkpt lat="45.85559" lon="4.81592">
        <ele>407</ele>
        <time>2011-06-02T07:59:49Z</time>
      </trkpt>
      <trkpt lat="45.85558" lon="4.8159">
        <ele>408</ele>
        <time>2011-06-02T07:59:51Z</time>
      </trkpt>
      <trkpt lat="45.85557" lon="4.81588">
        <ele>409</ele>
        <time>2011-06-02T07:59:52Z</time>
      </trkpt>
      <trkpt lat="45.85556" lon="4.81586">
        <ele>410</ele>
        <time>2011-06-02T07:59:53Z</time>
      </trkpt>
      <trkpt lat="45.85556" lon="4.81584">
        <ele>410</ele>
        <time>2011-06-02T07:59:54Z</time>
      </trkpt>
      <trkpt lat="45.85555" lon="4.81582">
        <ele>411</ele>
        <time>2011-06-02T07:59:55Z</time>
      </trkpt>
      <trkpt lat="45.85553" lon="4.81579">
        <ele>411</ele>
        <time>2011-06-02T07:59:57Z</time>
      </trkpt>
      <trkpt lat="45.85552" lon="4.81578">
        <ele>411</ele>
        <time>2011-06-02T07:59:58Z</time>
      </trkpt>
      <trkpt lat="45.85551" lon="4.81575">
        <ele>412</ele>
        <time>2011-06-02T08:00:00Z</time>
      </trkpt>
      <trkpt lat="45.85551" lon="4.81573">
        <ele>412</ele>
        <time>2011-06-02T08:00:01Z</time>
      </trkpt>
      <trkpt lat="45.8555" lon="4.81571">
        <ele>413</ele>
        <time>2011-06-02T08:00:02Z</time>
      </trkpt>
      <trkpt lat="45.85548" lon="4.81568">
        <ele>413</ele>
        <time>2011-06-02T08:00:04Z</time>
      </trkpt>
      <trkpt lat="45.85547" lon="4.81566">
        <ele>413</ele>
        <time>2011-06-02T08:00:05Z</time>
      </trkpt>
      <trkpt lat="45.85546" lon="4.81564">
        <ele>413</ele>
        <time>2011-06-02T08:00:07Z</time>
      </trkpt>
      <trkpt lat="45.85544" lon="4.81563">
        <ele>413</ele>
        <time>2011-06-02T08:00:08Z</time>
      </trkpt>
      <trkpt lat="45.85543" lon="4.8156">
        <ele>414</ele>
        <time>2011-06-02T08:00:10Z</time>
      </trkpt>
      <trkpt lat="45.85543" lon="4.81558">
        <ele>414</ele>
        <time>2011-06-02T08:00:11Z</time>
      </trkpt>
      <trkpt lat="45.85542" lon="4.81557">
        <ele>414</ele>
        <time>2011-06-02T08:00:12Z</time>
      </trkpt>
      <trkpt lat="45.8554" lon="4.81556">
        <ele>414</ele>
        <time>2011-06-02T08:00:13Z</time>
      </trkpt>
      <trkpt lat="45.85538" lon="4.81554">
        <ele>415</ele>
        <time>2011-06-02T08:00:15Z</time>
      </trkpt>
      <trkpt lat="45.85538" lon="4.81552">
        <ele>415</ele>
        <time>2011-06-02T08:00:16Z</time>
      </trkpt>
      <trkpt lat="45.85536" lon="4.81549">
        <ele>417</ele>
        <time>2011-06-02T08:00:18Z</time>
      </trkpt>
      <trkpt lat="45.85534" lon="4.81547">
        <ele>418</ele>
        <time>2011-06-02T08:00:19Z</time>
      </trkpt>
      <trkpt lat="45.85534" lon="4.81544">
        <ele>419</ele>
        <time>2011-06-02T08:00:20Z</time>
      </trkpt>
      <trkpt lat="45.85533" lon="4.81542">
        <ele>420</ele>
        <time>2011-06-02T08:00:21Z</time>
      </trkpt>
      <trkpt lat="45.85532" lon="4.81541">
        <ele>421</ele>
        <time>2011-06-02T08:00:22Z</time>
      </trkpt>
      <trkpt lat="45.85531" lon="4.81539">
        <ele>422</ele>
        <time>2011-06-02T08:00:23Z</time>
      </trkpt>
      <trkpt lat="45.85531" lon="4.81537">
        <ele>423</ele>
        <time>2011-06-02T08:00:24Z</time>
      </trkpt>
      <trkpt lat="45.8553" lon="4.81535">
        <ele>424</ele>
        <time>2011-06-02T08:00:25Z</time>
      </trkpt>
      <trkpt lat="45.85529" lon="4.81533">
        <ele>424</ele>
        <time>2011-06-02T08:00:26Z</time>
      </trkpt>
      <trkpt lat="45.85529" lon="4.81531">
        <ele>424</ele>
        <time>2011-06-02T08:00:27Z</time>
      </trkpt>
      <trkpt lat="45.85527" lon="4.81529">
        <ele>424</ele>
        <time>2011-06-02T08:00:29Z</time>
      </trkpt>
      <trkpt lat="45.85527" lon="4.81528">
        <ele>424</ele>
        <time>2011-06-02T08:00:31Z</time>
      </trkpt>
      <trkpt lat="45.85527" lon="4.81526">
        <ele>425</ele>
        <time>2011-06-02T08:00:32Z</time>
      </trkpt>
      <trkpt lat="45.85527" lon="4.81523">
        <ele>426</ele>
        <time>2011-06-02T08:00:33Z</time>
      </trkpt>
      <trkpt lat="45.85526" lon="4.81521">
        <ele>427</ele>
        <time>2011-06-02T08:00:34Z</time>
      </trkpt>
      <trkpt lat="45.85525" lon="4.81519">
        <ele>428</ele>
        <time>2011-06-02T08:00:35Z</time>
      </trkpt>
      <trkpt lat="45.85524" lon="4.81517">
        <ele>429</ele>
        <time>2011-06-02T08:00:36Z</time>
      </trkpt>
      <trkpt lat="45.85524" lon="4.81515">
        <ele>430</ele>
        <time>2011-06-02T08:00:37Z</time>
      </trkpt>
      <trkpt lat="45.85523" lon="4.81514">
        <ele>431</ele>
        <time>2011-06-02T08:00:38Z</time>
      </trkpt>
      <trkpt lat="45.85522" lon="4.81512">
        <ele>431</ele>
        <time>2011-06-02T08:00:39Z</time>
      </trkpt>
      <trkpt lat="45.85521" lon="4.8151">
        <ele>431</ele>
        <time>2011-06-02T08:00:40Z</time>
      </trkpt>
      <trkpt lat="45.85521" lon="4.81508">
        <ele>432</ele>
        <time>2011-06-02T08:00:41Z</time>
      </trkpt>
      <trkpt lat="45.85519" lon="4.81506">
        <ele>432</ele>
        <time>2011-06-02T08:00:42Z</time>
      </trkpt>
      <trkpt lat="45.85519" lon="4.81504">
        <ele>432</ele>
        <time>2011-06-02T08:00:43Z</time>
      </trkpt>
      <trkpt lat="45.85518" lon="4.81503">
        <ele>432</ele>
        <time>2011-06-02T08:00:44Z</time>
      </trkpt>
      <trkpt lat="45.85516" lon="4.81501">
        <ele>432</ele>
        <time>2011-06-02T08:00:46Z</time>
      </trkpt>
      <trkpt lat="45.85515" lon="4.81498">
        <ele>432</ele>
        <time>2011-06-02T08:00:47Z</time>
      </trkpt>
      <trkpt lat="45.85514" lon="4.81497">
        <ele>432</ele>
        <time>2011-06-02T08:00:48Z</time>
      </trkpt>
      <trkpt lat="45.85512" lon="4.81495">
        <ele>432</ele>
        <time>2011-06-02T08:00:49Z</time>
      </trkpt>
      <trkpt lat="45.85511" lon="4.81494">
        <ele>432</ele>
        <time>2011-06-02T08:00:50Z</time>
      </trkpt>
      <trkpt lat="45.8551" lon="4.81492">
        <ele>432</ele>
        <time>2011-06-02T08:00:51Z</time>
      </trkpt>
      <trkpt lat="45.85509" lon="4.8149">
        <ele>432</ele>
        <time>2011-06-02T08:00:52Z</time>
      </trkpt>
      <trkpt lat="45.85508" lon="4.81488">
        <ele>432</ele>
        <time>2011-06-02T08:00:53Z</time>
      </trkpt>
      <trkpt lat="45.85507" lon="4.81486">
        <ele>432</ele>
        <time>2011-06-02T08:00:54Z</time>
      </trkpt>
      <trkpt lat="45.85506" lon="4.81484">
        <ele>432</ele>
        <time>2011-06-02T08:00:55Z</time>
      </trkpt>
      <trkpt lat="45.85506" lon="4.81482">
        <ele>432</ele>
        <time>2011-06-02T08:00:56Z</time>
      </trkpt>
      <trkpt lat="45.85505" lon="4.8148">
        <ele>432</ele>
        <time>2011-06-02T08:00:57Z</time>
      </trkpt>
      <trkpt lat="45.85503" lon="4.81478">
        <ele>433</ele>
        <time>2011-06-02T08:00:59Z</time>
      </trkpt>
      <trkpt lat="45.85502" lon="4.81476">
        <ele>434</ele>
        <time>2011-06-02T08:01:00Z</time>
      </trkpt>
      <trkpt lat="45.85502" lon="4.81474">
        <ele>435</ele>
        <time>2011-06-02T08:01:01Z</time>
      </trkpt>
      <trkpt lat="45.85501" lon="4.81473">
        <ele>436</ele>
        <time>2011-06-02T08:01:02Z</time>
      </trkpt>
      <trkpt lat="45.85501" lon="4.81471">
        <ele>437</ele>
        <time>2011-06-02T08:01:03Z</time>
      </trkpt>
      <trkpt lat="45.85501" lon="4.81469">
        <ele>438</ele>
        <time>2011-06-02T08:01:04Z</time>
      </trkpt>
      <trkpt lat="45.855" lon="4.81468">
        <ele>439</ele>
        <time>2011-06-02T08:01:05Z</time>
      </trkpt>
      <trkpt lat="45.85498" lon="4.81465">
        <ele>439</ele>
        <time>2011-06-02T08:01:07Z</time>
      </trkpt>
      <trkpt lat="45.85497" lon="4.81462">
        <ele>439</ele>
        <time>2011-06-02T08:01:08Z</time>
      </trkpt>
      <trkpt lat="45.85496" lon="4.8146">
        <ele>439</ele>
        <time>2011-06-02T08:01:09Z</time>
      </trkpt>
      <trkpt lat="45.85494" lon="4.81457">
        <ele>439</ele>
        <time>2011-06-02T08:01:10Z</time>
      </trkpt>
      <trkpt lat="45.85492" lon="4.81455">
        <ele>439</ele>
        <time>2011-06-02T08:01:11Z</time>
      </trkpt>
      <trkpt lat="45.85491" lon="4.81453">
        <ele>438</ele>
        <time>2011-06-02T08:01:12Z</time>
      </trkpt>
      <trkpt lat="45.8549" lon="4.81451">
        <ele>437</ele>
        <time>2011-06-02T08:01:13Z</time>
      </trkpt>
      <trkpt lat="45.85488" lon="4.81449">
        <ele>436</ele>
        <time>2011-06-02T08:01:14Z</time>
      </trkpt>
      <trkpt lat="45.85487" lon="4.81448">
        <ele>435</ele>
        <time>2011-06-02T08:01:15Z</time>
      </trkpt>
      <trkpt lat="45.85485" lon="4.81446">
        <ele>434</ele>
        <time>2011-06-02T08:01:16Z</time>
      </trkpt>
      <trkpt lat="45.85484" lon="4.81444">
        <ele>433</ele>
        <time>2011-06-02T08:01:17Z</time>
      </trkpt>
      <trkpt lat="45.85483" lon="4.81442">
        <ele>432</ele>
        <time>2011-06-02T08:01:18Z</time>
      </trkpt>
      <trkpt lat="45.85482" lon="4.81441">
        <ele>432</ele>
        <time>2011-06-02T08:01:19Z</time>
      </trkpt>
      <trkpt lat="45.85481" lon="4.81439">
        <ele>432</ele>
        <time>2011-06-02T08:01:20Z</time>
      </trkpt>
      <trkpt lat="45.8548" lon="4.81436">
        <ele>432</ele>
        <time>2011-06-02T08:01:21Z</time>
      </trkpt>
      <trkpt lat="45.8548" lon="4.81434">
        <ele>432</ele>
        <time>2011-06-02T08:01:22Z</time>
      </trkpt>
      <trkpt lat="45.85479" lon="4.81433">
        <ele>432</ele>
        <time>2011-06-02T08:01:23Z</time>
      </trkpt>
      <trkpt lat="45.85479" lon="4.81431">
        <ele>432</ele>
        <time>2011-06-02T08:01:24Z</time>
      </trkpt>
      <trkpt lat="45.85478" lon="4.8143">
        <ele>432</ele>
        <time>2011-06-02T08:01:25Z</time>
      </trkpt>
      <trkpt lat="45.85476" lon="4.81428">
        <ele>432</ele>
        <time>2011-06-02T08:01:27Z</time>
      </trkpt>
      <trkpt lat="45.85474" lon="4.81426">
        <ele>432</ele>
        <time>2011-06-02T08:01:28Z</time>
      </trkpt>
      <trkpt lat="45.85472" lon="4.81424">
        <ele>432</ele>
        <time>2011-06-02T08:01:30Z</time>
      </trkpt>
      <trkpt lat="45.85471" lon="4.81423">
        <ele>432</ele>
        <time>2011-06-02T08:01:31Z</time>
      </trkpt>
      <trkpt lat="45.85469" lon="4.81422">
        <ele>432</ele>
        <time>2011-06-02T08:01:32Z</time>
      </trkpt>
      <trkpt lat="45.85467" lon="4.81421">
        <ele>432</ele>
        <time>2011-06-02T08:01:33Z</time>
      </trkpt>
      <trkpt lat="45.85466" lon="4.8142">
        <ele>432</ele>
        <time>2011-06-02T08:01:37Z</time>
      </trkpt>
      <trkpt lat="45.85464" lon="4.8142">
        <ele>432</ele>
        <time>2011-06-02T08:01:39Z</time>
      </trkpt>
      <trkpt lat="45.85463" lon="4.8142">
        <ele>431</ele>
        <time>2011-06-02T08:01:42Z</time>
      </trkpt>
      <trkpt lat="45.85462" lon="4.8142">
        <ele>431</ele>
        <time>2011-06-02T08:01:47Z</time>
      </trkpt>
      <trkpt lat="45.85461" lon="4.81419">
        <ele>424</ele>
        <time>2011-06-02T08:02:01Z</time>
      </trkpt>
      <trkpt lat="45.8546" lon="4.8142">
        <ele>424</ele>
        <time>2011-06-02T08:02:07Z</time>
      </trkpt>
      <trkpt lat="45.85458" lon="4.81421">
        <ele>427</ele>
        <time>2011-06-02T08:02:16Z</time>
      </trkpt>
      <trkpt lat="45.85457" lon="4.81422">
        <ele>430</ele>
        <time>2011-06-02T08:02:29Z</time>
      </trkpt>
      <trkpt lat="45.85456" lon="4.81422">
        <ele>434</ele>
        <time>2011-06-02T08:02:41Z</time>
      </trkpt>
      <trkpt lat="45.85456" lon="4.8142">
        <ele>436</ele>
        <time>2011-06-02T08:03:33Z</time>
      </trkpt>
      <trkpt lat="45.85456" lon="4.81419">
        <ele>436</ele>
        <time>2011-06-02T08:03:34Z</time>
      </trkpt>
      <trkpt lat="45.85455" lon="4.81417">
        <ele>436</ele>
        <time>2011-06-02T08:03:35Z</time>
      </trkpt>
      <trkpt lat="45.85455" lon="4.81415">
        <ele>436</ele>
        <time>2011-06-02T08:03:36Z</time>
      </trkpt>
      <trkpt lat="45.85455" lon="4.81413">
        <ele>436</ele>
        <time>2011-06-02T08:03:37Z</time>
      </trkpt>
      <trkpt lat="45.85455" lon="4.81411">
        <ele>436</ele>
        <time>2011-06-02T08:03:38Z</time>
      </trkpt>
      <trkpt lat="45.85455" lon="4.81409">
        <ele>436</ele>
        <time>2011-06-02T08:03:39Z</time>
      </trkpt>
      <trkpt lat="45.85455" lon="4.81406">
        <ele>436</ele>
        <time>2011-06-02T08:03:40Z</time>
      </trkpt>
      <trkpt lat="45.85455" lon="4.81403">
        <ele>436</ele>
        <time>2011-06-02T08:03:41Z</time>
      </trkpt>
      <trkpt lat="45.85455" lon="4.81401">
        <ele>436</ele>
        <time>2011-06-02T08:03:42Z</time>
      </trkpt>
      <trkpt lat="45.85455" lon="4.81398">
        <ele>436</ele>
        <time>2011-06-02T08:03:43Z</time>
      </trkpt>
      <trkpt lat="45.85454" lon="4.81396">
        <ele>436</ele>
        <time>2011-06-02T08:03:44Z</time>
      </trkpt>
      <trkpt lat="45.85454" lon="4.81394">
        <ele>436</ele>
        <time>2011-06-02T08:03:45Z</time>
      </trkpt>
      <trkpt lat="45.85454" lon="4.81391">
        <ele>436</ele>
        <time>2011-06-02T08:03:46Z</time>
      </trkpt>
      <trkpt lat="45.85454" lon="4.81389">
        <ele>436</ele>
        <time>2011-06-02T08:03:47Z</time>
      </trkpt>
      <trkpt lat="45.85454" lon="4.81386">
        <ele>436</ele>
        <time>2011-06-02T08:03:48Z</time>
      </trkpt>
      <trkpt lat="45.85454" lon="4.81383">
        <ele>436</ele>
        <time>2011-06-02T08:03:49Z</time>
      </trkpt>
      <trkpt lat="45.85454" lon="4.81381">
        <ele>436</ele>
        <time>2011-06-02T08:03:50Z</time>
      </trkpt>
      <trkpt lat="45.85454" lon="4.81378">
        <ele>436</ele>
        <time>2011-06-02T08:03:51Z</time>
      </trkpt>
      <trkpt lat="45.85454" lon="4.81375">
        <ele>436</ele>
        <time>2011-06-02T08:03:52Z</time>
      </trkpt>
      <trkpt lat="45.85454" lon="4.81372">
        <ele>436</ele>
        <time>2011-06-02T08:03:53Z</time>
      </trkpt>
      <trkpt lat="45.85455" lon="4.8137">
        <ele>436</ele>
        <time>2011-06-02T08:03:54Z</time>
      </trkpt>
      <trkpt lat="45.85455" lon="4.81367">
        <ele>436</ele>
        <time>2011-06-02T08:03:55Z</time>
      </trkpt>
      <trkpt lat="45.85455" lon="4.81365">
        <ele>436</ele>
        <time>2011-06-02T08:03:56Z</time>
      </trkpt>
      <trkpt lat="45.85456" lon="4.81363">
        <ele>436</ele>
        <time>2011-06-02T08:03:57Z</time>
      </trkpt>
      <trkpt lat="45.85457" lon="4.8136">
        <ele>436</ele>
        <time>2011-06-02T08:03:58Z</time>
      </trkpt>
      <trkpt lat="45.85457" lon="4.81357">
        <ele>436</ele>
        <time>2011-06-02T08:03:59Z</time>
      </trkpt>
      <trkpt lat="45.85457" lon="4.81354">
        <ele>436</ele>
        <time>2011-06-02T08:04:00Z</time>
      </trkpt>
      <trkpt lat="45.85458" lon="4.81352">
        <ele>436</ele>
        <time>2011-06-02T08:04:01Z</time>
      </trkpt>
      <trkpt lat="45.85458" lon="4.8135">
        <ele>436</ele>
        <time>2011-06-02T08:04:02Z</time>
      </trkpt>
      <trkpt lat="45.85459" lon="4.81347">
        <ele>436</ele>
        <time>2011-06-02T08:04:03Z</time>
      </trkpt>
      <trkpt lat="45.8546" lon="4.81345">
        <ele>436</ele>
        <time>2011-06-02T08:04:04Z</time>
      </trkpt>
      <trkpt lat="45.85461" lon="4.81343">
        <ele>436</ele>
        <time>2011-06-02T08:04:05Z</time>
      </trkpt>
      <trkpt lat="45.85462" lon="4.81341">
        <ele>436</ele>
        <time>2011-06-02T08:04:06Z</time>
      </trkpt>
      <trkpt lat="45.85463" lon="4.81339">
        <ele>436</ele>
        <time>2011-06-02T08:04:07Z</time>
      </trkpt>
      <trkpt lat="45.85464" lon="4.81335">
        <ele>436</ele>
        <time>2011-06-02T08:04:08Z</time>
      </trkpt>
      <trkpt lat="45.85465" lon="4.81333">
        <ele>436</ele>
        <time>2011-06-02T08:04:09Z</time>
      </trkpt>
      <trkpt lat="45.85466" lon="4.8133">
        <ele>436</ele>
        <time>2011-06-02T08:04:10Z</time>
      </trkpt>
      <trkpt lat="45.85468" lon="4.81328">
        <ele>436</ele>
        <time>2011-06-02T08:04:11Z</time>
      </trkpt>
      <trkpt lat="45.85469" lon="4.81326">
        <ele>436</ele>
        <time>2011-06-02T08:04:12Z</time>
      </trkpt>
      <trkpt lat="45.85471" lon="4.81324">
        <ele>436</ele>
        <time>2011-06-02T08:04:13Z</time>
      </trkpt>
      <trkpt lat="45.85471" lon="4.81322">
        <ele>436</ele>
        <time>2011-06-02T08:04:14Z</time>
      </trkpt>
      <trkpt lat="45.85472" lon="4.8132">
        <ele>436</ele>
        <time>2011-06-02T08:04:15Z</time>
      </trkpt>
      <trkpt lat="45.85474" lon="4.81317">
        <ele>436</ele>
        <time>2011-06-02T08:04:16Z</time>
      </trkpt>
      <trkpt lat="45.85475" lon="4.81315">
        <ele>436</ele>
        <time>2011-06-02T08:04:17Z</time>
      </trkpt>
      <trkpt lat="45.85476" lon="4.81313">
        <ele>436</ele>
        <time>2011-06-02T08:04:18Z</time>
      </trkpt>
      <trkpt lat="45.85477" lon="4.81311">
        <ele>436</ele>
        <time>2011-06-02T08:04:19Z</time>
      </trkpt>
      <trkpt lat="45.85479" lon="4.8131">
        <ele>436</ele>
        <time>2011-06-02T08:04:20Z</time>
      </trkpt>
      <trkpt lat="45.8548" lon="4.81307">
        <ele>436</ele>
        <time>2011-06-02T08:04:21Z</time>
      </trkpt>
      <trkpt lat="45.85481" lon="4.81306">
        <ele>436</ele>
        <time>2011-06-02T08:04:22Z</time>
      </trkpt>
      <trkpt lat="45.85483" lon="4.81303">
        <ele>436</ele>
        <time>2011-06-02T08:04:24Z</time>
      </trkpt>
      <trkpt lat="45.85483" lon="4.81302">
        <ele>436</ele>
        <time>2011-06-02T08:04:25Z</time>
      </trkpt>
      <trkpt lat="45.85484" lon="4.813">
        <ele>436</ele>
        <time>2011-06-02T08:04:26Z</time>
      </trkpt>
      <trkpt lat="45.85484" lon="4.81298">
        <ele>436</ele>
        <time>2011-06-02T08:04:27Z</time>
      </trkpt>
      <trkpt lat="45.85484" lon="4.81296">
        <ele>436</ele>
        <time>2011-06-02T08:04:28Z</time>
      </trkpt>
      <trkpt lat="45.85485" lon="4.81293">
        <ele>436</ele>
        <time>2011-06-02T08:04:30Z</time>
      </trkpt>
      <trkpt lat="45.85485" lon="4.81291">
        <ele>436</ele>
        <time>2011-06-02T08:04:31Z</time>
      </trkpt>
      <trkpt lat="45.85485" lon="4.81289">
        <ele>436</ele>
        <time>2011-06-02T08:04:32Z</time>
      </trkpt>
      <trkpt lat="45.85485" lon="4.81286">
        <ele>436</ele>
        <time>2011-06-02T08:04:34Z</time>
      </trkpt>
      <trkpt lat="45.85485" lon="4.81285">
        <ele>436</ele>
        <time>2011-06-02T08:04:35Z</time>
      </trkpt>
      <trkpt lat="45.85484" lon="4.81283">
        <ele>436</ele>
        <time>2011-06-02T08:04:36Z</time>
      </trkpt>
      <trkpt lat="45.85484" lon="4.81281">
        <ele>437</ele>
        <time>2011-06-02T08:04:38Z</time>
      </trkpt>
      <trkpt lat="45.85482" lon="4.81278">
        <ele>439</ele>
        <time>2011-06-02T08:04:40Z</time>
      </trkpt>
      <trkpt lat="45.85481" lon="4.81276">
        <ele>441</ele>
        <time>2011-06-02T08:04:42Z</time>
      </trkpt>
      <trkpt lat="45.8548" lon="4.81274">
        <ele>442</ele>
        <time>2011-06-02T08:04:43Z</time>
      </trkpt>
      <trkpt lat="45.85479" lon="4.81273">
        <ele>443</ele>
        <time>2011-06-02T08:04:44Z</time>
      </trkpt>
      <trkpt lat="45.85478" lon="4.81271">
        <ele>444</ele>
        <time>2011-06-02T08:04:45Z</time>
      </trkpt>
      <trkpt lat="45.85477" lon="4.8127">
        <ele>444</ele>
        <time>2011-06-02T08:04:46Z</time>
      </trkpt>
      <trkpt lat="45.85475" lon="4.81269">
        <ele>444</ele>
        <time>2011-06-02T08:04:47Z</time>
      </trkpt>
      <trkpt lat="45.85473" lon="4.81267">
        <ele>444</ele>
        <time>2011-06-02T08:04:49Z</time>
      </trkpt>
      <trkpt lat="45.85472" lon="4.81266">
        <ele>444</ele>
        <time>2011-06-02T08:04:50Z</time>
      </trkpt>
      <trkpt lat="45.85469" lon="4.81265">
        <ele>444</ele>
        <time>2011-06-02T08:04:52Z</time>
      </trkpt>
      <trkpt lat="45.85468" lon="4.81263">
        <ele>444</ele>
        <time>2011-06-02T08:04:53Z</time>
      </trkpt>
      <trkpt lat="45.85466" lon="4.81262">
        <ele>444</ele>
        <time>2011-06-02T08:04:54Z</time>
      </trkpt>
      <trkpt lat="45.85464" lon="4.81262">
        <ele>444</ele>
        <time>2011-06-02T08:04:55Z</time>
      </trkpt>
      <trkpt lat="45.85463" lon="4.81261">
        <ele>444</ele>
        <time>2011-06-02T08:04:56Z</time>
      </trkpt>
      <trkpt lat="45.85461" lon="4.8126">
        <ele>444</ele>
        <time>2011-06-02T08:04:57Z</time>
      </trkpt>
      <trkpt lat="45.8546" lon="4.81258">
        <ele>444</ele>
        <time>2011-06-02T08:04:59Z</time>
      </trkpt>
      <trkpt lat="45.85458" lon="4.81257">
        <ele>444</ele>
        <time>2011-06-02T08:05:01Z</time>
      </trkpt>
      <trkpt lat="45.85455" lon="4.81255">
        <ele>444</ele>
        <time>2011-06-02T08:05:03Z</time>
      </trkpt>
      <trkpt lat="45.85454" lon="4.81254">
        <ele>444</ele>
        <time>2011-06-02T08:05:05Z</time>
      </trkpt>
      <trkpt lat="45.85452" lon="4.81253">
        <ele>444</ele>
        <time>2011-06-02T08:05:06Z</time>
      </trkpt>
      <trkpt lat="45.85451" lon="4.81253">
        <ele>444</ele>
        <time>2011-06-02T08:05:07Z</time>
      </trkpt>
      <trkpt lat="45.85449" lon="4.81253">
        <ele>444</ele>
        <time>2011-06-02T08:05:08Z</time>
      </trkpt>
      <trkpt lat="45.85448" lon="4.81253">
        <ele>444</ele>
        <time>2011-06-02T08:05:09Z</time>
      </trkpt>
      <trkpt lat="45.85446" lon="4.81251">
        <ele>444</ele>
        <time>2011-06-02T08:05:11Z</time>
      </trkpt>
      <trkpt lat="45.85444" lon="4.81248">
        <ele>444</ele>
        <time>2011-06-02T08:05:13Z</time>
      </trkpt>
      <trkpt lat="45.85441" lon="4.81247">
        <ele>444</ele>
        <time>2011-06-02T08:05:15Z</time>
      </trkpt>
      <trkpt lat="45.85439" lon="4.81246">
        <ele>444</ele>
        <time>2011-06-02T08:05:16Z</time>
      </trkpt>
      <trkpt lat="45.85437" lon="4.81244">
        <ele>444</ele>
        <time>2011-06-02T08:05:18Z</time>
      </trkpt>
      <trkpt lat="45.85435" lon="4.81242">
        <ele>444</ele>
        <time>2011-06-02T08:05:20Z</time>
      </trkpt>
      <trkpt lat="45.85434" lon="4.81239">
        <ele>444</ele>
        <time>2011-06-02T08:05:22Z</time>
      </trkpt>
      <trkpt lat="45.85433" lon="4.81236">
        <ele>444</ele>
        <time>2011-06-02T08:05:24Z</time>
      </trkpt>
      <trkpt lat="45.85432" lon="4.81235">
        <ele>444</ele>
        <time>2011-06-02T08:05:25Z</time>
      </trkpt>
      <trkpt lat="45.85431" lon="4.81235">
        <ele>444</ele>
        <time>2011-06-02T08:05:26Z</time>
      </trkpt>
      <trkpt lat="45.85429" lon="4.81234">
        <ele>444</ele>
        <time>2011-06-02T08:05:28Z</time>
      </trkpt>
      <trkpt lat="45.85426" lon="4.81233">
        <ele>444</ele>
        <time>2011-06-02T08:05:30Z</time>
      </trkpt>
      <trkpt lat="45.85425" lon="4.81232">
        <ele>444</ele>
        <time>2011-06-02T08:05:31Z</time>
      </trkpt>
      <trkpt lat="45.85424" lon="4.81231">
        <ele>444</ele>
        <time>2011-06-02T08:05:32Z</time>
      </trkpt>
      <trkpt lat="45.85423" lon="4.8123">
        <ele>444</ele>
        <time>2011-06-02T08:05:33Z</time>
      </trkpt>
      <trkpt lat="45.85421" lon="4.8123">
        <ele>444</ele>
        <time>2011-06-02T08:05:34Z</time>
      </trkpt>
      <trkpt lat="45.8542" lon="4.8123">
        <ele>444</ele>
        <time>2011-06-02T08:05:35Z</time>
      </trkpt>
      <trkpt lat="45.85419" lon="4.81229">
        <ele>444</ele>
        <time>2011-06-02T08:05:36Z</time>
      </trkpt>
      <trkpt lat="45.85418" lon="4.81229">
        <ele>444</ele>
        <time>2011-06-02T08:05:37Z</time>
      </trkpt>
      <trkpt lat="45.85416" lon="4.81228">
        <ele>444</ele>
        <time>2011-06-02T08:05:38Z</time>
      </trkpt>
      <trkpt lat="45.85415" lon="4.81228">
        <ele>444</ele>
        <time>2011-06-02T08:05:39Z</time>
      </trkpt>
      <trkpt lat="45.85413" lon="4.81227">
        <ele>444</ele>
        <time>2011-06-02T08:05:41Z</time>
      </trkpt>
      <trkpt lat="45.85412" lon="4.81226">
        <ele>444</ele>
        <time>2011-06-02T08:05:42Z</time>
      </trkpt>
      <trkpt lat="45.8541" lon="4.81224">
        <ele>444</ele>
        <time>2011-06-02T08:05:44Z</time>
      </trkpt>
      <trkpt lat="45.85408" lon="4.81222">
        <ele>445</ele>
        <time>2011-06-02T08:05:46Z</time>
      </trkpt>
      <trkpt lat="45.85406" lon="4.81221">
        <ele>445</ele>
        <time>2011-06-02T08:05:48Z</time>
      </trkpt>
      <trkpt lat="45.85404" lon="4.81221">
        <ele>445</ele>
        <time>2011-06-02T08:05:49Z</time>
      </trkpt>
      <trkpt lat="45.85403" lon="4.81221">
        <ele>445</ele>
        <time>2011-06-02T08:05:50Z</time>
      </trkpt>
      <trkpt lat="45.85401" lon="4.81218">
        <ele>445</ele>
        <time>2011-06-02T08:05:52Z</time>
      </trkpt>
      <trkpt lat="45.85399" lon="4.81217">
        <ele>445</ele>
        <time>2011-06-02T08:05:53Z</time>
      </trkpt>
      <trkpt lat="45.85398" lon="4.81215">
        <ele>445</ele>
        <time>2011-06-02T08:05:54Z</time>
      </trkpt>
      <trkpt lat="45.85397" lon="4.81214">
        <ele>445</ele>
        <time>2011-06-02T08:05:55Z</time>
      </trkpt>
      <trkpt lat="45.85395" lon="4.81213">
        <ele>445</ele>
        <time>2011-06-02T08:05:56Z</time>
      </trkpt>
      <trkpt lat="45.85393" lon="4.81211">
        <ele>445</ele>
        <time>2011-06-02T08:05:58Z</time>
      </trkpt>
      <trkpt lat="45.85392" lon="4.8121">
        <ele>445</ele>
        <time>2011-06-02T08:06:00Z</time>
      </trkpt>
      <trkpt lat="45.8539" lon="4.81208">
        <ele>446</ele>
        <time>2011-06-02T08:06:02Z</time>
      </trkpt>
      <trkpt lat="45.85389" lon="4.81207">
        <ele>446</ele>
        <time>2011-06-02T08:06:03Z</time>
      </trkpt>
      <trkpt lat="45.85388" lon="4.81207">
        <ele>447</ele>
        <time>2011-06-02T08:06:04Z</time>
      </trkpt>
      <trkpt lat="45.85386" lon="4.81206">
        <ele>447</ele>
        <time>2011-06-02T08:06:06Z</time>
      </trkpt>
      <trkpt lat="45.85385" lon="4.81203">
        <ele>448</ele>
        <time>2011-06-02T08:06:08Z</time>
      </trkpt>
      <trkpt lat="45.85384" lon="4.81201">
        <ele>449</ele>
        <time>2011-06-02T08:06:10Z</time>
      </trkpt>
      <trkpt lat="45.85382" lon="4.812">
        <ele>449</ele>
        <time>2011-06-02T08:06:12Z</time>
      </trkpt>
      <trkpt lat="45.8538" lon="4.812">
        <ele>449</ele>
        <time>2011-06-02T08:06:13Z</time>
      </trkpt>
      <trkpt lat="45.85379" lon="4.812">
        <ele>449</ele>
        <time>2011-06-02T08:06:14Z</time>
      </trkpt>
      <trkpt lat="45.85377" lon="4.81197">
        <ele>450</ele>
        <time>2011-06-02T08:06:16Z</time>
      </trkpt>
      <trkpt lat="45.85376" lon="4.81196">
        <ele>450</ele>
        <time>2011-06-02T08:06:17Z</time>
      </trkpt>
      <trkpt lat="45.85374" lon="4.81195">
        <ele>450</ele>
        <time>2011-06-02T08:06:18Z</time>
      </trkpt>
      <trkpt lat="45.85373" lon="4.81194">
        <ele>450</ele>
        <time>2011-06-02T08:06:20Z</time>
      </trkpt>
      <trkpt lat="45.85371" lon="4.81193">
        <ele>450</ele>
        <time>2011-06-02T08:06:21Z</time>
      </trkpt>
      <trkpt lat="45.85368" lon="4.81191">
        <ele>450</ele>
        <time>2011-06-02T08:06:23Z</time>
      </trkpt>
      <trkpt lat="45.85367" lon="4.81192">
        <ele>450</ele>
        <time>2011-06-02T08:06:24Z</time>
      </trkpt>
      <trkpt lat="45.85366" lon="4.81191">
        <ele>450</ele>
        <time>2011-06-02T08:06:25Z</time>
      </trkpt>
      <trkpt lat="45.85364" lon="4.8119">
        <ele>450</ele>
        <time>2011-06-02T08:06:27Z</time>
      </trkpt>
      <trkpt lat="45.85363" lon="4.81188">
        <ele>450</ele>
        <time>2011-06-02T08:06:29Z</time>
      </trkpt>
      <trkpt lat="45.85361" lon="4.81187">
        <ele>450</ele>
        <time>2011-06-02T08:06:30Z</time>
      </trkpt>
      <trkpt lat="45.8536" lon="4.81185">
        <ele>450</ele>
        <time>2011-06-02T08:06:32Z</time>
      </trkpt>
      <trkpt lat="45.85357" lon="4.81183">
        <ele>450</ele>
        <time>2011-06-02T08:06:34Z</time>
      </trkpt>
      <trkpt lat="45.85355" lon="4.81182">
        <ele>450</ele>
        <time>2011-06-02T08:06:35Z</time>
      </trkpt>
      <trkpt lat="45.85353" lon="4.81182">
        <ele>450</ele>
        <time>2011-06-02T08:06:36Z</time>
      </trkpt>
      <trkpt lat="45.85352" lon="4.8118">
        <ele>450</ele>
        <time>2011-06-02T08:06:38Z</time>
      </trkpt>
      <trkpt lat="45.8535" lon="4.8118">
        <ele>450</ele>
        <time>2011-06-02T08:06:39Z</time>
      </trkpt>
      <trkpt lat="45.85348" lon="4.81178">
        <ele>450</ele>
        <time>2011-06-02T08:06:41Z</time>
      </trkpt>
      <trkpt lat="45.85347" lon="4.81177">
        <ele>450</ele>
        <time>2011-06-02T08:06:43Z</time>
      </trkpt>
      <trkpt lat="45.85345" lon="4.81177">
        <ele>450</ele>
        <time>2011-06-02T08:06:44Z</time>
      </trkpt>
      <trkpt lat="45.85344" lon="4.81174">
        <ele>450</ele>
        <time>2011-06-02T08:06:45Z</time>
      </trkpt>
      <trkpt lat="45.85343" lon="4.81171">
        <ele>450</ele>
        <time>2011-06-02T08:06:47Z</time>
      </trkpt>
      <trkpt lat="45.85342" lon="4.8117">
        <ele>451</ele>
        <time>2011-06-02T08:06:48Z</time>
      </trkpt>
      <trkpt lat="45.8534" lon="4.81169">
        <ele>452</ele>
        <time>2011-06-02T08:06:49Z</time>
      </trkpt>
      <trkpt lat="45.85338" lon="4.81167">
        <ele>453</ele>
        <time>2011-06-02T08:06:51Z</time>
      </trkpt>
      <trkpt lat="45.85335" lon="4.81166">
        <ele>453</ele>
        <time>2011-06-02T08:06:53Z</time>
      </trkpt>
      <trkpt lat="45.85334" lon="4.81165">
        <ele>453</ele>
        <time>2011-06-02T08:06:54Z</time>
      </trkpt>
      <trkpt lat="45.85331" lon="4.81163">
        <ele>453</ele>
        <time>2011-06-02T08:06:56Z</time>
      </trkpt>
      <trkpt lat="45.85329" lon="4.81162">
        <ele>453</ele>
        <time>2011-06-02T08:06:58Z</time>
      </trkpt>
      <trkpt lat="45.85328" lon="4.81161">
        <ele>453</ele>
        <time>2011-06-02T08:06:59Z</time>
      </trkpt>
      <trkpt lat="45.85327" lon="4.81161">
        <ele>453</ele>
        <time>2011-06-02T08:07:00Z</time>
      </trkpt>
      <trkpt lat="45.85326" lon="4.8116">
        <ele>453</ele>
        <time>2011-06-02T08:07:01Z</time>
      </trkpt>
      <trkpt lat="45.85325" lon="4.81158">
        <ele>453</ele>
        <time>2011-06-02T08:07:02Z</time>
      </trkpt>
      <trkpt lat="45.85324" lon="4.81157">
        <ele>453</ele>
        <time>2011-06-02T08:07:03Z</time>
      </trkpt>
      <trkpt lat="45.85323" lon="4.81155">
        <ele>453</ele>
        <time>2011-06-02T08:07:04Z</time>
      </trkpt>
      <trkpt lat="45.85322" lon="4.81154">
        <ele>453</ele>
        <time>2011-06-02T08:07:05Z</time>
      </trkpt>
      <trkpt lat="45.85321" lon="4.81152">
        <ele>453</ele>
        <time>2011-06-02T08:07:06Z</time>
      </trkpt>
      <trkpt lat="45.8532" lon="4.81149">
        <ele>453</ele>
        <time>2011-06-02T08:07:08Z</time>
      </trkpt>
      <trkpt lat="45.85318" lon="4.81147">
        <ele>453</ele>
        <time>2011-06-02T08:07:10Z</time>
      </trkpt>
      <trkpt lat="45.85316" lon="4.81145">
        <ele>453</ele>
        <time>2011-06-02T08:07:12Z</time>
      </trkpt>
      <trkpt lat="45.85314" lon="4.81144">
        <ele>453</ele>
        <time>2011-06-02T08:07:13Z</time>
      </trkpt>
      <trkpt lat="45.85312" lon="4.81143">
        <ele>453</ele>
        <time>2011-06-02T08:07:14Z</time>
      </trkpt>
      <trkpt lat="45.85311" lon="4.81142">
        <ele>453</ele>
        <time>2011-06-02T08:07:15Z</time>
      </trkpt>
      <trkpt lat="45.85309" lon="4.81141">
        <ele>453</ele>
        <time>2011-06-02T08:07:17Z</time>
      </trkpt>
      <trkpt lat="45.85307" lon="4.8114">
        <ele>453</ele>
        <time>2011-06-02T08:07:18Z</time>
      </trkpt>
      <trkpt lat="45.85306" lon="4.8114">
        <ele>453</ele>
        <time>2011-06-02T08:07:19Z</time>
      </trkpt>
      <trkpt lat="45.85304" lon="4.81137">
        <ele>453</ele>
        <time>2011-06-02T08:07:21Z</time>
      </trkpt>
      <trkpt lat="45.85303" lon="4.81136">
        <ele>453</ele>
        <time>2011-06-02T08:07:22Z</time>
      </trkpt>
      <trkpt lat="45.85301" lon="4.81135">
        <ele>453</ele>
        <time>2011-06-02T08:07:23Z</time>
      </trkpt>
      <trkpt lat="45.85299" lon="4.81133">
        <ele>453</ele>
        <time>2011-06-02T08:07:25Z</time>
      </trkpt>
      <trkpt lat="45.85297" lon="4.81131">
        <ele>453</ele>
        <time>2011-06-02T08:07:27Z</time>
      </trkpt>
      <trkpt lat="45.85296" lon="4.81129">
        <ele>453</ele>
        <time>2011-06-02T08:07:29Z</time>
      </trkpt>
      <trkpt lat="45.85295" lon="4.81127">
        <ele>453</ele>
        <time>2011-06-02T08:07:30Z</time>
      </trkpt>
      <trkpt lat="45.85294" lon="4.81125">
        <ele>453</ele>
        <time>2011-06-02T08:07:31Z</time>
      </trkpt>
      <trkpt lat="45.85292" lon="4.81123">
        <ele>455</ele>
        <time>2011-06-02T08:07:33Z</time>
      </trkpt>
      <trkpt lat="45.85292" lon="4.81121">
        <ele>457</ele>
        <time>2011-06-02T08:07:35Z</time>
      </trkpt>
      <trkpt lat="45.85289" lon="4.8112">
        <ele>459</ele>
        <time>2011-06-02T08:07:37Z</time>
      </trkpt>
      <trkpt lat="45.85287" lon="4.81118">
        <ele>460</ele>
        <time>2011-06-02T08:07:39Z</time>
      </trkpt>
      <trkpt lat="45.85286" lon="4.81117">
        <ele>460</ele>
        <time>2011-06-02T08:07:40Z</time>
      </trkpt>
      <trkpt lat="45.85285" lon="4.81115">
        <ele>460</ele>
        <time>2011-06-02T08:07:42Z</time>
      </trkpt>
      <trkpt lat="45.85283" lon="4.81113">
        <ele>460</ele>
        <time>2011-06-02T08:07:44Z</time>
      </trkpt>
      <trkpt lat="45.85281" lon="4.81112">
        <ele>460</ele>
        <time>2011-06-02T08:07:45Z</time>
      </trkpt>
      <trkpt lat="45.8528" lon="4.81111">
        <ele>460</ele>
        <time>2011-06-02T08:07:46Z</time>
      </trkpt>
      <trkpt lat="45.85279" lon="4.81107">
        <ele>460</ele>
        <time>2011-06-02T08:07:48Z</time>
      </trkpt>
      <trkpt lat="45.85278" lon="4.81106">
        <ele>460</ele>
        <time>2011-06-02T08:07:49Z</time>
      </trkpt>
      <trkpt lat="45.85277" lon="4.81105">
        <ele>460</ele>
        <time>2011-06-02T08:07:50Z</time>
      </trkpt>
      <trkpt lat="45.85276" lon="4.81104">
        <ele>460</ele>
        <time>2011-06-02T08:07:51Z</time>
      </trkpt>
      <trkpt lat="45.85275" lon="4.81103">
        <ele>460</ele>
        <time>2011-06-02T08:07:52Z</time>
      </trkpt>
      <trkpt lat="45.85272" lon="4.81101">
        <ele>461</ele>
        <time>2011-06-02T08:07:54Z</time>
      </trkpt>
      <trkpt lat="45.85272" lon="4.81099">
        <ele>462</ele>
        <time>2011-06-02T08:07:56Z</time>
      </trkpt>
      <trkpt lat="45.8527" lon="4.81096">
        <ele>462</ele>
        <time>2011-06-02T08:07:58Z</time>
      </trkpt>
      <trkpt lat="45.85269" lon="4.81093">
        <ele>462</ele>
        <time>2011-06-02T08:08:00Z</time>
      </trkpt>
      <trkpt lat="45.85268" lon="4.81092">
        <ele>462</ele>
        <time>2011-06-02T08:08:01Z</time>
      </trkpt>
      <trkpt lat="45.85266" lon="4.8109">
        <ele>462</ele>
        <time>2011-06-02T08:08:03Z</time>
      </trkpt>
      <trkpt lat="45.85265" lon="4.81088">
        <ele>463</ele>
        <time>2011-06-02T08:08:04Z</time>
      </trkpt>
      <trkpt lat="45.85265" lon="4.81087">
        <ele>464</ele>
        <time>2011-06-02T08:08:05Z</time>
      </trkpt>
      <trkpt lat="45.85264" lon="4.81085">
        <ele>465</ele>
        <time>2011-06-02T08:08:06Z</time>
      </trkpt>
      <trkpt lat="45.85263" lon="4.81084">
        <ele>466</ele>
        <time>2011-06-02T08:08:07Z</time>
      </trkpt>
      <trkpt lat="45.85261" lon="4.81081">
        <ele>468</ele>
        <time>2011-06-02T08:08:09Z</time>
      </trkpt>
      <trkpt lat="45.85258" lon="4.81079">
        <ele>470</ele>
        <time>2011-06-02T08:08:11Z</time>
      </trkpt>
      <trkpt lat="45.85257" lon="4.81077">
        <ele>471</ele>
        <time>2011-06-02T08:08:13Z</time>
      </trkpt>
      <trkpt lat="45.85255" lon="4.81075">
        <ele>471</ele>
        <time>2011-06-02T08:08:15Z</time>
      </trkpt>
      <trkpt lat="45.85254" lon="4.81073">
        <ele>471</ele>
        <time>2011-06-02T08:08:16Z</time>
      </trkpt>
      <trkpt lat="45.85253" lon="4.81072">
        <ele>471</ele>
        <time>2011-06-02T08:08:17Z</time>
      </trkpt>
      <trkpt lat="45.85252" lon="4.81071">
        <ele>472</ele>
        <time>2011-06-02T08:08:18Z</time>
      </trkpt>
      <trkpt lat="45.8525" lon="4.81069">
        <ele>472</ele>
        <time>2011-06-02T08:08:19Z</time>
      </trkpt>
      <trkpt lat="45.85249" lon="4.81068">
        <ele>472</ele>
        <time>2011-06-02T08:08:20Z</time>
      </trkpt>
      <trkpt lat="45.85246" lon="4.81067">
        <ele>472</ele>
        <time>2011-06-02T08:08:21Z</time>
      </trkpt>
      <trkpt lat="45.85245" lon="4.81065">
        <ele>472</ele>
        <time>2011-06-02T08:08:22Z</time>
      </trkpt>
      <trkpt lat="45.85244" lon="4.81062">
        <ele>472</ele>
        <time>2011-06-02T08:08:24Z</time>
      </trkpt>
      <trkpt lat="45.85242" lon="4.8106">
        <ele>472</ele>
        <time>2011-06-02T08:08:26Z</time>
      </trkpt>
      <trkpt lat="45.8524" lon="4.81059">
        <ele>472</ele>
        <time>2011-06-02T08:08:28Z</time>
      </trkpt>
      <trkpt lat="45.85239" lon="4.81057">
        <ele>472</ele>
        <time>2011-06-02T08:08:29Z</time>
      </trkpt>
      <trkpt lat="45.85237" lon="4.81055">
        <ele>472</ele>
        <time>2011-06-02T08:08:30Z</time>
      </trkpt>
      <trkpt lat="45.85236" lon="4.81053">
        <ele>472</ele>
        <time>2011-06-02T08:08:31Z</time>
      </trkpt>
      <trkpt lat="45.85234" lon="4.81051">
        <ele>472</ele>
        <time>2011-06-02T08:08:32Z</time>
      </trkpt>
      <trkpt lat="45.85233" lon="4.8105">
        <ele>472</ele>
        <time>2011-06-02T08:08:33Z</time>
      </trkpt>
      <trkpt lat="45.85232" lon="4.81049">
        <ele>472</ele>
        <time>2011-06-02T08:08:34Z</time>
      </trkpt>
      <trkpt lat="45.8523" lon="4.81046">
        <ele>472</ele>
        <time>2011-06-02T08:08:36Z</time>
      </trkpt>
      <trkpt lat="45.85228" lon="4.81046">
        <ele>472</ele>
        <time>2011-06-02T08:08:37Z</time>
      </trkpt>
      <trkpt lat="45.85227" lon="4.81046">
        <ele>471</ele>
        <time>2011-06-02T08:08:39Z</time>
      </trkpt>
      <trkpt lat="45.85226" lon="4.81044">
        <ele>471</ele>
        <time>2011-06-02T08:08:40Z</time>
      </trkpt>
      <trkpt lat="45.85226" lon="4.81042">
        <ele>471</ele>
        <time>2011-06-02T08:08:41Z</time>
      </trkpt>
      <trkpt lat="45.85224" lon="4.81041">
        <ele>471</ele>
        <time>2011-06-02T08:08:43Z</time>
      </trkpt>
      <trkpt lat="45.85223" lon="4.81038">
        <ele>471</ele>
        <time>2011-06-02T08:08:45Z</time>
      </trkpt>
      <trkpt lat="45.85221" lon="4.81036">
        <ele>471</ele>
        <time>2011-06-02T08:08:47Z</time>
      </trkpt>
      <trkpt lat="45.85219" lon="4.81036">
        <ele>471</ele>
        <time>2011-06-02T08:08:49Z</time>
      </trkpt>
      <trkpt lat="45.85218" lon="4.81033">
        <ele>471</ele>
        <time>2011-06-02T08:08:51Z</time>
      </trkpt>
      <trkpt lat="45.85218" lon="4.81031">
        <ele>471</ele>
        <time>2011-06-02T08:08:53Z</time>
      </trkpt>
      <trkpt lat="45.85217" lon="4.81029">
        <ele>471</ele>
        <time>2011-06-02T08:08:55Z</time>
      </trkpt>
      <trkpt lat="45.85214" lon="4.81027">
        <ele>471</ele>
        <time>2011-06-02T08:08:57Z</time>
      </trkpt>
      <trkpt lat="45.85213" lon="4.81026">
        <ele>471</ele>
        <time>2011-06-02T08:08:58Z</time>
      </trkpt>
      <trkpt lat="45.85211" lon="4.81024">
        <ele>471</ele>
        <time>2011-06-02T08:09:00Z</time>
      </trkpt>
      <trkpt lat="45.85209" lon="4.81023">
        <ele>471</ele>
        <time>2011-06-02T08:09:02Z</time>
      </trkpt>
      <trkpt lat="45.85207" lon="4.81021">
        <ele>471</ele>
        <time>2011-06-02T08:09:03Z</time>
      </trkpt>
      <trkpt lat="45.85207" lon="4.81019">
        <ele>471</ele>
        <time>2011-06-02T08:09:04Z</time>
      </trkpt>
      <trkpt lat="45.85204" lon="4.81018">
        <ele>471</ele>
        <time>2011-06-02T08:09:06Z</time>
      </trkpt>
      <trkpt lat="45.85203" lon="4.81017">
        <ele>471</ele>
        <time>2011-06-02T08:09:07Z</time>
      </trkpt>
      <trkpt lat="45.85202" lon="4.81015">
        <ele>471</ele>
        <time>2011-06-02T08:09:09Z</time>
      </trkpt>
      <trkpt lat="45.85201" lon="4.81013">
        <ele>471</ele>
        <time>2011-06-02T08:09:10Z</time>
      </trkpt>
      <trkpt lat="45.85199" lon="4.81012">
        <ele>471</ele>
        <time>2011-06-02T08:09:13Z</time>
      </trkpt>
      <trkpt lat="45.85197" lon="4.81011">
        <ele>471</ele>
        <time>2011-06-02T08:09:14Z</time>
      </trkpt>
      <trkpt lat="45.85195" lon="4.8101">
        <ele>471</ele>
        <time>2011-06-02T08:09:15Z</time>
      </trkpt>
      <trkpt lat="45.85193" lon="4.8101">
        <ele>471</ele>
        <time>2011-06-02T08:09:17Z</time>
      </trkpt>
      <trkpt lat="45.85192" lon="4.81007">
        <ele>471</ele>
        <time>2011-06-02T08:09:19Z</time>
      </trkpt>
      <trkpt lat="45.85191" lon="4.81005">
        <ele>471</ele>
        <time>2011-06-02T08:09:20Z</time>
      </trkpt>
      <trkpt lat="45.85189" lon="4.81003">
        <ele>471</ele>
        <time>2011-06-02T08:09:23Z</time>
      </trkpt>
      <trkpt lat="45.85188" lon="4.81">
        <ele>471</ele>
        <time>2011-06-02T08:09:25Z</time>
      </trkpt>
      <trkpt lat="45.85186" lon="4.80999">
        <ele>471</ele>
        <time>2011-06-02T08:09:26Z</time>
      </trkpt>
      <trkpt lat="45.85185" lon="4.80998">
        <ele>471</ele>
        <time>2011-06-02T08:09:28Z</time>
      </trkpt>
      <trkpt lat="45.85183" lon="4.80997">
        <ele>471</ele>
        <time>2011-06-02T08:09:29Z</time>
      </trkpt>
      <trkpt lat="45.85182" lon="4.80995">
        <ele>471</ele>
        <time>2011-06-02T08:09:31Z</time>
      </trkpt>
      <trkpt lat="45.85181" lon="4.80994">
        <ele>471</ele>
        <time>2011-06-02T08:09:32Z</time>
      </trkpt>
      <trkpt lat="45.85178" lon="4.80992">
        <ele>471</ele>
        <time>2011-06-02T08:09:34Z</time>
      </trkpt>
      <trkpt lat="45.85177" lon="4.80991">
        <ele>471</ele>
        <time>2011-06-02T08:09:35Z</time>
      </trkpt>
      <trkpt lat="45.85175" lon="4.80989">
        <ele>471</ele>
        <time>2011-06-02T08:09:37Z</time>
      </trkpt>
      <trkpt lat="45.85174" lon="4.80988">
        <ele>471</ele>
        <time>2011-06-02T08:09:38Z</time>
      </trkpt>
      <trkpt lat="45.85172" lon="4.80987">
        <ele>472</ele>
        <time>2011-06-02T08:09:39Z</time>
      </trkpt>
      <trkpt lat="45.85171" lon="4.80986">
        <ele>472</ele>
        <time>2011-06-02T08:09:40Z</time>
      </trkpt>
      <trkpt lat="45.85169" lon="4.80986">
        <ele>473</ele>
        <time>2011-06-02T08:09:41Z</time>
      </trkpt>
      <trkpt lat="45.85168" lon="4.80984">
        <ele>474</ele>
        <time>2011-06-02T08:09:42Z</time>
      </trkpt>
      <trkpt lat="45.85167" lon="4.80983">
        <ele>474</ele>
        <time>2011-06-02T08:09:43Z</time>
      </trkpt>
      <trkpt lat="45.85165" lon="4.80983">
        <ele>475</ele>
        <time>2011-06-02T08:09:44Z</time>
      </trkpt>
      <trkpt lat="45.85163" lon="4.80983">
        <ele>475</ele>
        <time>2011-06-02T08:09:45Z</time>
      </trkpt>
      <trkpt lat="45.85162" lon="4.80981">
        <ele>475</ele>
        <time>2011-06-02T08:09:47Z</time>
      </trkpt>
      <trkpt lat="45.8516" lon="4.8098">
        <ele>475</ele>
        <time>2011-06-02T08:09:48Z</time>
      </trkpt>
      <trkpt lat="45.85159" lon="4.80979">
        <ele>475</ele>
        <time>2011-06-02T08:09:50Z</time>
      </trkpt>
      <trkpt lat="45.85157" lon="4.80978">
        <ele>475</ele>
        <time>2011-06-02T08:09:52Z</time>
      </trkpt>
      <trkpt lat="45.85157" lon="4.80976">
        <ele>475</ele>
        <time>2011-06-02T08:09:53Z</time>
      </trkpt>
      <trkpt lat="45.85155" lon="4.80975">
        <ele>475</ele>
        <time>2011-06-02T08:09:55Z</time>
      </trkpt>
      <trkpt lat="45.85154" lon="4.80972">
        <ele>475</ele>
        <time>2011-06-02T08:09:57Z</time>
      </trkpt>
      <trkpt lat="45.85152" lon="4.8097">
        <ele>475</ele>
        <time>2011-06-02T08:09:59Z</time>
      </trkpt>
      <trkpt lat="45.8515" lon="4.80969">
        <ele>476</ele>
        <time>2011-06-02T08:10:00Z</time>
      </trkpt>
      <trkpt lat="45.85149" lon="4.80969">
        <ele>476</ele>
        <time>2011-06-02T08:10:01Z</time>
      </trkpt>
      <trkpt lat="45.85148" lon="4.80968">
        <ele>476</ele>
        <time>2011-06-02T08:10:02Z</time>
      </trkpt>
      <trkpt lat="45.85147" lon="4.80967">
        <ele>476</ele>
        <time>2011-06-02T08:10:03Z</time>
      </trkpt>
      <trkpt lat="45.85145" lon="4.80967">
        <ele>476</ele>
        <time>2011-06-02T08:10:04Z</time>
      </trkpt>
      <trkpt lat="45.85144" lon="4.80966">
        <ele>476</ele>
        <time>2011-06-02T08:10:05Z</time>
      </trkpt>
      <trkpt lat="45.85142" lon="4.80965">
        <ele>476</ele>
        <time>2011-06-02T08:10:07Z</time>
      </trkpt>
      <trkpt lat="45.8514" lon="4.80963">
        <ele>476</ele>
        <time>2011-06-02T08:10:09Z</time>
      </trkpt>
      <trkpt lat="45.85138" lon="4.80962">
        <ele>476</ele>
        <time>2011-06-02T08:10:11Z</time>
      </trkpt>
      <trkpt lat="45.85137" lon="4.80961">
        <ele>476</ele>
        <time>2011-06-02T08:10:12Z</time>
      </trkpt>
      <trkpt lat="45.85136" lon="4.80959">
        <ele>476</ele>
        <time>2011-06-02T08:10:14Z</time>
      </trkpt>
      <trkpt lat="45.85134" lon="4.80958">
        <ele>476</ele>
        <time>2011-06-02T08:10:15Z</time>
      </trkpt>
      <trkpt lat="45.85133" lon="4.80957">
        <ele>476</ele>
        <time>2011-06-02T08:10:16Z</time>
      </trkpt>
      <trkpt lat="45.85132" lon="4.80955">
        <ele>476</ele>
        <time>2011-06-02T08:10:17Z</time>
      </trkpt>
      <trkpt lat="45.85131" lon="4.80954">
        <ele>476</ele>
        <time>2011-06-02T08:10:18Z</time>
      </trkpt>
      <trkpt lat="45.8513" lon="4.80953">
        <ele>476</ele>
        <time>2011-06-02T08:10:20Z</time>
      </trkpt>
      <trkpt lat="45.85127" lon="4.80952">
        <ele>476</ele>
        <time>2011-06-02T08:10:22Z</time>
      </trkpt>
      <trkpt lat="45.85126" lon="4.8095">
        <ele>476</ele>
        <time>2011-06-02T08:10:23Z</time>
      </trkpt>
      <trkpt lat="45.85125" lon="4.80948">
        <ele>476</ele>
        <time>2011-06-02T08:10:25Z</time>
      </trkpt>
      <trkpt lat="45.85123" lon="4.80945">
        <ele>477</ele>
        <time>2011-06-02T08:10:27Z</time>
      </trkpt>
      <trkpt lat="45.85122" lon="4.80944">
        <ele>477</ele>
        <time>2011-06-02T08:10:28Z</time>
      </trkpt>
      <trkpt lat="45.8512" lon="4.80942">
        <ele>478</ele>
        <time>2011-06-02T08:10:29Z</time>
      </trkpt>
      <trkpt lat="45.8512" lon="4.8094">
        <ele>478</ele>
        <time>2011-06-02T08:10:30Z</time>
      </trkpt>
      <trkpt lat="45.85119" lon="4.80938">
        <ele>479</ele>
        <time>2011-06-02T08:10:31Z</time>
      </trkpt>
      <trkpt lat="45.85118" lon="4.80937">
        <ele>480</ele>
        <time>2011-06-02T08:10:32Z</time>
      </trkpt>
      <trkpt lat="45.85117" lon="4.80936">
        <ele>480</ele>
        <time>2011-06-02T08:10:33Z</time>
      </trkpt>
      <trkpt lat="45.85115" lon="4.80935">
        <ele>481</ele>
        <time>2011-06-02T08:10:34Z</time>
      </trkpt>
      <trkpt lat="45.85114" lon="4.80933">
        <ele>481</ele>
        <time>2011-06-02T08:10:35Z</time>
      </trkpt>
      <trkpt lat="45.85112" lon="4.80931">
        <ele>481</ele>
        <time>2011-06-02T08:10:36Z</time>
      </trkpt>
      <trkpt lat="45.85111" lon="4.80931">
        <ele>481</ele>
        <time>2011-06-02T08:10:37Z</time>
      </trkpt>
      <trkpt lat="45.85109" lon="4.8093">
        <ele>481</ele>
        <time>2011-06-02T08:10:38Z</time>
      </trkpt>
      <trkpt lat="45.85108" lon="4.80928">
        <ele>481</ele>
        <time>2011-06-02T08:10:39Z</time>
      </trkpt>
      <trkpt lat="45.85107" lon="4.80927">
        <ele>481</ele>
        <time>2011-06-02T08:10:40Z</time>
      </trkpt>
      <trkpt lat="45.85107" lon="4.80925">
        <ele>481</ele>
        <time>2011-06-02T08:10:41Z</time>
      </trkpt>
      <trkpt lat="45.85107" lon="4.80923">
        <ele>481</ele>
        <time>2011-06-02T08:10:42Z</time>
      </trkpt>
      <trkpt lat="45.85105" lon="4.80922">
        <ele>481</ele>
        <time>2011-06-02T08:10:44Z</time>
      </trkpt>
      <trkpt lat="45.85103" lon="4.80919">
        <ele>483</ele>
        <time>2011-06-02T08:10:46Z</time>
      </trkpt>
      <trkpt lat="45.85102" lon="4.80917">
        <ele>483</ele>
        <time>2011-06-02T08:10:47Z</time>
      </trkpt>
      <trkpt lat="45.851" lon="4.80915">
        <ele>484</ele>
        <time>2011-06-02T08:10:48Z</time>
      </trkpt>
      <trkpt lat="45.85098" lon="4.80914">
        <ele>484</ele>
        <time>2011-06-02T08:10:50Z</time>
      </trkpt>
      <trkpt lat="45.85098" lon="4.80912">
        <ele>485</ele>
        <time>2011-06-02T08:10:51Z</time>
      </trkpt>
      <trkpt lat="45.85096" lon="4.80909">
        <ele>485</ele>
        <time>2011-06-02T08:10:53Z</time>
      </trkpt>
      <trkpt lat="45.85095" lon="4.80906">
        <ele>485</ele>
        <time>2011-06-02T08:10:55Z</time>
      </trkpt>
      <trkpt lat="45.85094" lon="4.80905">
        <ele>485</ele>
        <time>2011-06-02T08:10:56Z</time>
      </trkpt>
      <trkpt lat="45.85091" lon="4.80903">
        <ele>486</ele>
        <time>2011-06-02T08:10:58Z</time>
      </trkpt>
      <trkpt lat="45.85091" lon="4.80901">
        <ele>486</ele>
        <time>2011-06-02T08:10:59Z</time>
      </trkpt>
      <trkpt lat="45.85089" lon="4.80899">
        <ele>486</ele>
        <time>2011-06-02T08:11:00Z</time>
      </trkpt>
      <trkpt lat="45.85088" lon="4.80896">
        <ele>487</ele>
        <time>2011-06-02T08:11:02Z</time>
      </trkpt>
      <trkpt lat="45.85087" lon="4.80895">
        <ele>487</ele>
        <time>2011-06-02T08:11:03Z</time>
      </trkpt>
      <trkpt lat="45.85085" lon="4.80893">
        <ele>487</ele>
        <time>2011-06-02T08:11:05Z</time>
      </trkpt>
      <trkpt lat="45.85085" lon="4.80891">
        <ele>487</ele>
        <time>2011-06-02T08:11:07Z</time>
      </trkpt>
      <trkpt lat="45.85085" lon="4.80889">
        <ele>487</ele>
        <time>2011-06-02T08:11:08Z</time>
      </trkpt>
      <trkpt lat="45.85083" lon="4.80888">
        <ele>487</ele>
        <time>2011-06-02T08:11:09Z</time>
      </trkpt>
      <trkpt lat="45.85081" lon="4.80887">
        <ele>487</ele>
        <time>2011-06-02T08:11:10Z</time>
      </trkpt>
      <trkpt lat="45.8508" lon="4.80886">
        <ele>487</ele>
        <time>2011-06-02T08:11:11Z</time>
      </trkpt>
      <trkpt lat="45.85078" lon="4.80885">
        <ele>487</ele>
        <time>2011-06-02T08:11:12Z</time>
      </trkpt>
      <trkpt lat="45.85077" lon="4.80884">
        <ele>487</ele>
        <time>2011-06-02T08:11:13Z</time>
      </trkpt>
      <trkpt lat="45.85075" lon="4.80882">
        <ele>487</ele>
        <time>2011-06-02T08:11:15Z</time>
      </trkpt>
      <trkpt lat="45.85073" lon="4.8088">
        <ele>487</ele>
        <time>2011-06-02T08:11:16Z</time>
      </trkpt>
      <trkpt lat="45.85073" lon="4.80879">
        <ele>488</ele>
        <time>2011-06-02T08:11:17Z</time>
      </trkpt>
      <trkpt lat="45.85072" lon="4.80878">
        <ele>488</ele>
        <time>2011-06-02T08:11:18Z</time>
      </trkpt>
      <trkpt lat="45.8507" lon="4.80875">
        <ele>488</ele>
        <time>2011-06-02T08:11:20Z</time>
      </trkpt>
      <trkpt lat="45.85069" lon="4.80874">
        <ele>488</ele>
        <time>2011-06-02T08:11:21Z</time>
      </trkpt>
      <trkpt lat="45.85067" lon="4.80872">
        <ele>488</ele>
        <time>2011-06-02T08:11:23Z</time>
      </trkpt>
      <trkpt lat="45.85066" lon="4.8087">
        <ele>488</ele>
        <time>2011-06-02T08:11:24Z</time>
      </trkpt>
      <trkpt lat="45.85066" lon="4.80867">
        <ele>488</ele>
        <time>2011-06-02T08:11:25Z</time>
      </trkpt>
      <trkpt lat="45.85065" lon="4.80865">
        <ele>488</ele>
        <time>2011-06-02T08:11:27Z</time>
      </trkpt>
      <trkpt lat="45.85065" lon="4.80864">
        <ele>488</ele>
        <time>2011-06-02T08:11:28Z</time>
      </trkpt>
      <trkpt lat="45.85062" lon="4.80861">
        <ele>488</ele>
        <time>2011-06-02T08:11:30Z</time>
      </trkpt>
      <trkpt lat="45.85062" lon="4.80859">
        <ele>488</ele>
        <time>2011-06-02T08:11:31Z</time>
      </trkpt>
      <trkpt lat="45.85061" lon="4.80856">
        <ele>488</ele>
        <time>2011-06-02T08:11:33Z</time>
      </trkpt>
      <trkpt lat="45.85059" lon="4.80853">
        <ele>488</ele>
        <time>2011-06-02T08:11:35Z</time>
      </trkpt>
      <trkpt lat="45.85058" lon="4.80852">
        <ele>488</ele>
        <time>2011-06-02T08:11:36Z</time>
      </trkpt>
      <trkpt lat="45.85057" lon="4.80851">
        <ele>488</ele>
        <time>2011-06-02T08:11:37Z</time>
      </trkpt>
      <trkpt lat="45.85056" lon="4.8085">
        <ele>488</ele>
        <time>2011-06-02T08:11:38Z</time>
      </trkpt>
      <trkpt lat="45.85054" lon="4.80848">
        <ele>488</ele>
        <time>2011-06-02T08:11:40Z</time>
      </trkpt>
      <trkpt lat="45.85054" lon="4.80846">
        <ele>488</ele>
        <time>2011-06-02T08:11:42Z</time>
      </trkpt>
      <trkpt lat="45.85054" lon="4.80843">
        <ele>488</ele>
        <time>2011-06-02T08:11:44Z</time>
      </trkpt>
      <trkpt lat="45.85052" lon="4.80842">
        <ele>488</ele>
        <time>2011-06-02T08:11:45Z</time>
      </trkpt>
      <trkpt lat="45.85051" lon="4.80842">
        <ele>488</ele>
        <time>2011-06-02T08:11:46Z</time>
      </trkpt>
      <trkpt lat="45.8505" lon="4.8084">
        <ele>488</ele>
        <time>2011-06-02T08:11:47Z</time>
      </trkpt>
      <trkpt lat="45.85049" lon="4.80839">
        <ele>488</ele>
        <time>2011-06-02T08:11:48Z</time>
      </trkpt>
      <trkpt lat="45.85047" lon="4.80836">
        <ele>488</ele>
        <time>2011-06-02T08:11:50Z</time>
      </trkpt>
      <trkpt lat="45.85045" lon="4.80834">
        <ele>488</ele>
        <time>2011-06-02T08:11:51Z</time>
      </trkpt>
      <trkpt lat="45.85044" lon="4.80832">
        <ele>488</ele>
        <time>2011-06-02T08:11:52Z</time>
      </trkpt>
      <trkpt lat="45.85042" lon="4.8083">
        <ele>488</ele>
        <time>2011-06-02T08:11:54Z</time>
      </trkpt>
      <trkpt lat="45.8504" lon="4.80828">
        <ele>488</ele>
        <time>2011-06-02T08:11:56Z</time>
      </trkpt>
      <trkpt lat="45.85038" lon="4.80825">
        <ele>489</ele>
        <time>2011-06-02T08:11:58Z</time>
      </trkpt>
      <trkpt lat="45.85038" lon="4.80823">
        <ele>490</ele>
        <time>2011-06-02T08:11:59Z</time>
      </trkpt>
      <trkpt lat="45.85036" lon="4.80821">
        <ele>492</ele>
        <time>2011-06-02T08:12:01Z</time>
      </trkpt>
      <trkpt lat="45.85033" lon="4.8082">
        <ele>494</ele>
        <time>2011-06-02T08:12:03Z</time>
      </trkpt>
      <trkpt lat="45.85031" lon="4.80817">
        <ele>495</ele>
        <time>2011-06-02T08:12:05Z</time>
      </trkpt>
      <trkpt lat="45.85029" lon="4.80815">
        <ele>495</ele>
        <time>2011-06-02T08:12:07Z</time>
      </trkpt>
      <trkpt lat="45.85028" lon="4.80813">
        <ele>495</ele>
        <time>2011-06-02T08:12:08Z</time>
      </trkpt>
      <trkpt lat="45.85026" lon="4.8081">
        <ele>495</ele>
        <time>2011-06-02T08:12:10Z</time>
      </trkpt>
      <trkpt lat="45.85025" lon="4.80808">
        <ele>495</ele>
        <time>2011-06-02T08:12:12Z</time>
      </trkpt>
      <trkpt lat="45.85023" lon="4.80807">
        <ele>495</ele>
        <time>2011-06-02T08:12:14Z</time>
      </trkpt>
      <trkpt lat="45.85021" lon="4.80805">
        <ele>495</ele>
        <time>2011-06-02T08:12:15Z</time>
      </trkpt>
      <trkpt lat="45.8502" lon="4.80803">
        <ele>495</ele>
        <time>2011-06-02T08:12:16Z</time>
      </trkpt>
      <trkpt lat="45.85019" lon="4.80801">
        <ele>495</ele>
        <time>2011-06-02T08:12:17Z</time>
      </trkpt>
      <trkpt lat="45.85018" lon="4.80799">
        <ele>495</ele>
        <time>2011-06-02T08:12:18Z</time>
      </trkpt>
      <trkpt lat="45.85017" lon="4.80798">
        <ele>495</ele>
        <time>2011-06-02T08:12:19Z</time>
      </trkpt>
      <trkpt lat="45.85015" lon="4.80797">
        <ele>495</ele>
        <time>2011-06-02T08:12:20Z</time>
      </trkpt>
      <trkpt lat="45.85015" lon="4.80795">
        <ele>495</ele>
        <time>2011-06-02T08:12:21Z</time>
      </trkpt>
      <trkpt lat="45.85012" lon="4.80793">
        <ele>495</ele>
        <time>2011-06-02T08:12:23Z</time>
      </trkpt>
      <trkpt lat="45.85012" lon="4.80791">
        <ele>495</ele>
        <time>2011-06-02T08:12:24Z</time>
      </trkpt>
      <trkpt lat="45.85011" lon="4.80789">
        <ele>495</ele>
        <time>2011-06-02T08:12:25Z</time>
      </trkpt>
      <trkpt lat="45.85009" lon="4.80789">
        <ele>495</ele>
        <time>2011-06-02T08:12:26Z</time>
      </trkpt>
      <trkpt lat="45.85009" lon="4.80787">
        <ele>495</ele>
        <time>2011-06-02T08:12:27Z</time>
      </trkpt>
      <trkpt lat="45.85007" lon="4.80785">
        <ele>495</ele>
        <time>2011-06-02T08:12:28Z</time>
      </trkpt>
      <trkpt lat="45.85006" lon="4.80783">
        <ele>495</ele>
        <time>2011-06-02T08:12:29Z</time>
      </trkpt>
      <trkpt lat="45.85005" lon="4.80781">
        <ele>495</ele>
        <time>2011-06-02T08:12:30Z</time>
      </trkpt>
      <trkpt lat="45.85004" lon="4.80781">
        <ele>495</ele>
        <time>2011-06-02T08:12:31Z</time>
      </trkpt>
      <trkpt lat="45.85002" lon="4.80779">
        <ele>495</ele>
        <time>2011-06-02T08:12:33Z</time>
      </trkpt>
      <trkpt lat="45.85001" lon="4.80777">
        <ele>495</ele>
        <time>2011-06-02T08:12:34Z</time>
      </trkpt>
      <trkpt lat="45.84999" lon="4.80775">
        <ele>495</ele>
        <time>2011-06-02T08:12:35Z</time>
      </trkpt>
      <trkpt lat="45.84998" lon="4.80773">
        <ele>495</ele>
        <time>2011-06-02T08:12:36Z</time>
      </trkpt>
      <trkpt lat="45.84996" lon="4.8077">
        <ele>495</ele>
        <time>2011-06-02T08:12:37Z</time>
      </trkpt>
      <trkpt lat="45.84994" lon="4.80768">
        <ele>495</ele>
        <time>2011-06-02T08:12:38Z</time>
      </trkpt>
      <trkpt lat="45.84993" lon="4.80767">
        <ele>495</ele>
        <time>2011-06-02T08:12:39Z</time>
      </trkpt>
      <trkpt lat="45.84991" lon="4.80766">
        <ele>495</ele>
        <time>2011-06-02T08:12:40Z</time>
      </trkpt>
      <trkpt lat="45.8499" lon="4.80763">
        <ele>495</ele>
        <time>2011-06-02T08:12:41Z</time>
      </trkpt>
      <trkpt lat="45.84989" lon="4.80762">
        <ele>495</ele>
        <time>2011-06-02T08:12:43Z</time>
      </trkpt>
      <trkpt lat="45.84988" lon="4.80761">
        <ele>491</ele>
        <time>2011-06-02T08:12:51Z</time>
      </trkpt>
      <trkpt lat="45.84987" lon="4.80759">
        <ele>491</ele>
        <time>2011-06-02T08:12:54Z</time>
      </trkpt>
      <trkpt lat="45.84987" lon="4.80758">
        <ele>491</ele>
        <time>2011-06-02T08:12:56Z</time>
      </trkpt>
      <trkpt lat="45.84987" lon="4.80755">
        <ele>490</ele>
        <time>2011-06-02T08:12:58Z</time>
      </trkpt>
      <trkpt lat="45.84986" lon="4.80753">
        <ele>489</ele>
        <time>2011-06-02T08:13:00Z</time>
      </trkpt>
      <trkpt lat="45.84984" lon="4.8075">
        <ele>489</ele>
        <time>2011-06-02T08:13:02Z</time>
      </trkpt>
      <trkpt lat="45.84982" lon="4.80747">
        <ele>489</ele>
        <time>2011-06-02T08:13:03Z</time>
      </trkpt>
      <trkpt lat="45.8498" lon="4.80742">
        <ele>489</ele>
        <time>2011-06-02T08:13:04Z</time>
      </trkpt>
      <trkpt lat="45.8498" lon="4.8074">
        <ele>489</ele>
        <time>2011-06-02T08:13:05Z</time>
      </trkpt>
      <trkpt lat="45.84978" lon="4.80736">
        <ele>489</ele>
        <time>2011-06-02T08:13:07Z</time>
      </trkpt>
      <trkpt lat="45.84977" lon="4.80735">
        <ele>489</ele>
        <time>2011-06-02T08:13:08Z</time>
      </trkpt>
      <trkpt lat="45.84975" lon="4.80733">
        <ele>489</ele>
        <time>2011-06-02T08:13:10Z</time>
      </trkpt>
      <trkpt lat="45.84975" lon="4.8073">
        <ele>489</ele>
        <time>2011-06-02T08:13:12Z</time>
      </trkpt>
      <trkpt lat="45.84977" lon="4.80727">
        <ele>487</ele>
        <time>2011-06-02T08:13:17Z</time>
      </trkpt>
      <trkpt lat="45.84977" lon="4.80725">
        <ele>486</ele>
        <time>2011-06-02T08:13:19Z</time>
      </trkpt>
      <trkpt lat="45.84978" lon="4.80726">
        <ele>486</ele>
        <time>2011-06-02T08:13:24Z</time>
      </trkpt>
      <trkpt lat="45.84979" lon="4.80727">
        <ele>485</ele>
        <time>2011-06-02T08:13:26Z</time>
      </trkpt>
      <trkpt lat="45.84978" lon="4.80729">
        <ele>478</ele>
        <time>2011-06-02T08:13:33Z</time>
      </trkpt>
      <trkpt lat="45.8498" lon="4.80728">
        <ele>477</ele>
        <time>2011-06-02T08:13:41Z</time>
      </trkpt>
      <trkpt lat="45.84981" lon="4.80727">
        <ele>477</ele>
        <time>2011-06-02T08:13:44Z</time>
      </trkpt>
      <trkpt lat="45.84982" lon="4.80726">
        <ele>477</ele>
        <time>2011-06-02T08:13:47Z</time>
      </trkpt>
      <trkpt lat="45.84983" lon="4.80724">
        <ele>477</ele>
        <time>2011-06-02T08:13:50Z</time>
      </trkpt>
      <trkpt lat="45.84981" lon="4.80724">
        <ele>477</ele>
        <time>2011-06-02T08:13:55Z</time>
      </trkpt>
      <trkpt lat="45.84979" lon="4.80725">
        <ele>478</ele>
        <time>2011-06-02T08:13:57Z</time>
      </trkpt>
      <trkpt lat="45.84977" lon="4.80725">
        <ele>479</ele>
        <time>2011-06-02T08:13:58Z</time>
      </trkpt>
      <trkpt lat="45.84976" lon="4.80726">
        <ele>480</ele>
        <time>2011-06-02T08:13:59Z</time>
      </trkpt>
      <trkpt lat="45.84975" lon="4.80726">
        <ele>481</ele>
        <time>2011-06-02T08:14:00Z</time>
      </trkpt>
      <trkpt lat="45.84973" lon="4.80726">
        <ele>483</ele>
        <time>2011-06-02T08:14:02Z</time>
      </trkpt>
      <trkpt lat="45.84972" lon="4.80726">
        <ele>485</ele>
        <time>2011-06-02T08:14:04Z</time>
      </trkpt>
      <trkpt lat="45.8497" lon="4.80727">
        <ele>489</ele>
        <time>2011-06-02T08:14:07Z</time>
      </trkpt>
      <trkpt lat="45.84969" lon="4.80727">
        <ele>492</ele>
        <time>2011-06-02T08:14:10Z</time>
      </trkpt>
      <trkpt lat="45.84968" lon="4.80728">
        <ele>496</ele>
        <time>2011-06-02T08:14:14Z</time>
      </trkpt>
      <trkpt lat="45.84969" lon="4.80726">
        <ele>501</ele>
        <time>2011-06-02T08:14:29Z</time>
      </trkpt>
      <trkpt lat="45.84971" lon="4.80726">
        <ele>501</ele>
        <time>2011-06-02T08:14:31Z</time>
      </trkpt>
      <trkpt lat="45.84972" lon="4.80726">
        <ele>501</ele>
        <time>2011-06-02T08:14:33Z</time>
      </trkpt>
      <trkpt lat="45.84974" lon="4.80726">
        <ele>499</ele>
        <time>2011-06-02T08:14:35Z</time>
      </trkpt>
      <trkpt lat="45.84975" lon="4.80726">
        <ele>496</ele>
        <time>2011-06-02T08:14:38Z</time>
      </trkpt>
      <trkpt lat="45.84976" lon="4.80727">
        <ele>494</ele>
        <time>2011-06-02T08:14:40Z</time>
      </trkpt>
      <trkpt lat="45.84978" lon="4.80729">
        <ele>491</ele>
        <time>2011-06-02T08:14:43Z</time>
      </trkpt>
      <trkpt lat="45.84979" lon="4.80731">
        <ele>488</ele>
        <time>2011-06-02T08:14:46Z</time>
      </trkpt>
      <trkpt lat="45.8498" lon="4.80732">
        <ele>484</ele>
        <time>2011-06-02T08:14:50Z</time>
      </trkpt>
      <trkpt lat="45.84979" lon="4.80731">
        <ele>483</ele>
        <time>2011-06-02T08:14:53Z</time>
      </trkpt>
      <trkpt lat="45.84979" lon="4.80729">
        <ele>483</ele>
        <time>2011-06-02T08:14:54Z</time>
      </trkpt>
      <trkpt lat="45.84977" lon="4.80728">
        <ele>483</ele>
        <time>2011-06-02T08:14:57Z</time>
      </trkpt>
      <trkpt lat="45.84975" lon="4.80727">
        <ele>483</ele>
        <time>2011-06-02T08:14:59Z</time>
      </trkpt>
      <trkpt lat="45.84973" lon="4.80725">
        <ele>483</ele>
        <time>2011-06-02T08:15:00Z</time>
      </trkpt>
      <trkpt lat="45.84972" lon="4.80723">
        <ele>483</ele>
        <time>2011-06-02T08:15:01Z</time>
      </trkpt>
      <trkpt lat="45.8497" lon="4.80722">
        <ele>483</ele>
        <time>2011-06-02T08:15:02Z</time>
      </trkpt>
      <trkpt lat="45.84969" lon="4.8072">
        <ele>483</ele>
        <time>2011-06-02T08:15:03Z</time>
      </trkpt>
      <trkpt lat="45.84967" lon="4.80719">
        <ele>483</ele>
        <time>2011-06-02T08:15:04Z</time>
      </trkpt>
      <trkpt lat="45.84966" lon="4.80717">
        <ele>483</ele>
        <time>2011-06-02T08:15:05Z</time>
      </trkpt>
      <trkpt lat="45.84965" lon="4.80716">
        <ele>483</ele>
        <time>2011-06-02T08:15:06Z</time>
      </trkpt>
      <trkpt lat="45.84964" lon="4.80715">
        <ele>483</ele>
        <time>2011-06-02T08:15:07Z</time>
      </trkpt>
      <trkpt lat="45.84963" lon="4.80713">
        <ele>483</ele>
        <time>2011-06-02T08:15:08Z</time>
      </trkpt>
      <trkpt lat="45.84962" lon="4.80712">
        <ele>484</ele>
        <time>2011-06-02T08:15:09Z</time>
      </trkpt>
      <trkpt lat="45.8496" lon="4.80708">
        <ele>484</ele>
        <time>2011-06-02T08:15:10Z</time>
      </trkpt>
      <trkpt lat="45.84961" lon="4.80706">
        <ele>485</ele>
        <time>2011-06-02T08:15:11Z</time>
      </trkpt>
      <trkpt lat="45.8496" lon="4.80703">
        <ele>485</ele>
        <time>2011-06-02T08:15:12Z</time>
      </trkpt>
      <trkpt lat="45.8496" lon="4.80701">
        <ele>485</ele>
        <time>2011-06-02T08:15:13Z</time>
      </trkpt>
      <trkpt lat="45.84959" lon="4.80698">
        <ele>485</ele>
        <time>2011-06-02T08:15:14Z</time>
      </trkpt>
      <trkpt lat="45.8496" lon="4.80696">
        <ele>485</ele>
        <time>2011-06-02T08:15:15Z</time>
      </trkpt>
      <trkpt lat="45.84959" lon="4.80694">
        <ele>485</ele>
        <time>2011-06-02T08:15:16Z</time>
      </trkpt>
      <trkpt lat="45.84958" lon="4.80691">
        <ele>485</ele>
        <time>2011-06-02T08:15:17Z</time>
      </trkpt>
      <trkpt lat="45.84956" lon="4.80689">
        <ele>485</ele>
        <time>2011-06-02T08:15:18Z</time>
      </trkpt>
      <trkpt lat="45.84955" lon="4.80687">
        <ele>485</ele>
        <time>2011-06-02T08:15:19Z</time>
      </trkpt>
      <trkpt lat="45.84954" lon="4.80684">
        <ele>485</ele>
        <time>2011-06-02T08:15:20Z</time>
      </trkpt>
      <trkpt lat="45.84953" lon="4.80682">
        <ele>485</ele>
        <time>2011-06-02T08:15:21Z</time>
      </trkpt>
      <trkpt lat="45.84952" lon="4.80681">
        <ele>485</ele>
        <time>2011-06-02T08:15:22Z</time>
      </trkpt>
      <trkpt lat="45.84951" lon="4.80679">
        <ele>485</ele>
        <time>2011-06-02T08:15:23Z</time>
      </trkpt>
      <trkpt lat="45.8495" lon="4.80678">
        <ele>486</ele>
        <time>2011-06-02T08:15:24Z</time>
      </trkpt>
      <trkpt lat="45.8495" lon="4.80675">
        <ele>486</ele>
        <time>2011-06-02T08:15:26Z</time>
      </trkpt>
      <trkpt lat="45.84948" lon="4.80674">
        <ele>486</ele>
        <time>2011-06-02T08:15:28Z</time>
      </trkpt>
      <trkpt lat="45.84947" lon="4.80673">
        <ele>486</ele>
        <time>2011-06-02T08:15:29Z</time>
      </trkpt>
      <trkpt lat="45.84946" lon="4.80673">
        <ele>486</ele>
        <time>2011-06-02T08:15:30Z</time>
      </trkpt>
      <trkpt lat="45.84944" lon="4.80673">
        <ele>486</ele>
        <time>2011-06-02T08:15:31Z</time>
      </trkpt>
      <trkpt lat="45.84942" lon="4.80672">
        <ele>487</ele>
        <time>2011-06-02T08:15:33Z</time>
      </trkpt>
      <trkpt lat="45.84941" lon="4.8067">
        <ele>487</ele>
        <time>2011-06-02T08:15:35Z</time>
      </trkpt>
      <trkpt lat="45.84939" lon="4.8067">
        <ele>487</ele>
        <time>2011-06-02T08:15:36Z</time>
      </trkpt>
      <trkpt lat="45.84937" lon="4.80669">
        <ele>487</ele>
        <time>2011-06-02T08:15:37Z</time>
      </trkpt>
      <trkpt lat="45.84935" lon="4.80669">
        <ele>487</ele>
        <time>2011-06-02T08:15:38Z</time>
      </trkpt>
      <trkpt lat="45.84933" lon="4.80668">
        <ele>487</ele>
        <time>2011-06-02T08:15:39Z</time>
      </trkpt>
      <trkpt lat="45.84931" lon="4.80667">
        <ele>487</ele>
        <time>2011-06-02T08:15:40Z</time>
      </trkpt>
      <trkpt lat="45.84929" lon="4.80667">
        <ele>487</ele>
        <time>2011-06-02T08:15:41Z</time>
      </trkpt>
      <trkpt lat="45.84926" lon="4.80667">
        <ele>487</ele>
        <time>2011-06-02T08:15:42Z</time>
      </trkpt>
      <trkpt lat="45.84925" lon="4.80666">
        <ele>487</ele>
        <time>2011-06-02T08:15:43Z</time>
      </trkpt>
      <trkpt lat="45.84922" lon="4.80666">
        <ele>487</ele>
        <time>2011-06-02T08:15:44Z</time>
      </trkpt>
      <trkpt lat="45.8492" lon="4.80665">
        <ele>487</ele>
        <time>2011-06-02T08:15:45Z</time>
      </trkpt>
      <trkpt lat="45.84917" lon="4.80664">
        <ele>487</ele>
        <time>2011-06-02T08:15:46Z</time>
      </trkpt>
      <trkpt lat="45.84915" lon="4.80664">
        <ele>487</ele>
        <time>2011-06-02T08:15:47Z</time>
      </trkpt>
      <trkpt lat="45.84913" lon="4.80663">
        <ele>487</ele>
        <time>2011-06-02T08:15:48Z</time>
      </trkpt>
      <trkpt lat="45.84911" lon="4.80663">
        <ele>487</ele>
        <time>2011-06-02T08:15:49Z</time>
      </trkpt>
      <trkpt lat="45.84909" lon="4.80663">
        <ele>487</ele>
        <time>2011-06-02T08:15:50Z</time>
      </trkpt>
      <trkpt lat="45.84907" lon="4.80662">
        <ele>487</ele>
        <time>2011-06-02T08:15:51Z</time>
      </trkpt>
      <trkpt lat="45.84905" lon="4.80661">
        <ele>487</ele>
        <time>2011-06-02T08:15:52Z</time>
      </trkpt>
      <trkpt lat="45.84903" lon="4.8066">
        <ele>487</ele>
        <time>2011-06-02T08:15:53Z</time>
      </trkpt>
      <trkpt lat="45.84901" lon="4.8066">
        <ele>487</ele>
        <time>2011-06-02T08:15:54Z</time>
      </trkpt>
      <trkpt lat="45.84899" lon="4.80659">
        <ele>487</ele>
        <time>2011-06-02T08:15:55Z</time>
      </trkpt>
      <trkpt lat="45.84898" lon="4.80658">
        <ele>487</ele>
        <time>2011-06-02T08:15:56Z</time>
      </trkpt>
      <trkpt lat="45.84896" lon="4.80658">
        <ele>488</ele>
        <time>2011-06-02T08:15:57Z</time>
      </trkpt>
      <trkpt lat="45.84894" lon="4.80657">
        <ele>488</ele>
        <time>2011-06-02T08:15:58Z</time>
      </trkpt>
      <trkpt lat="45.84892" lon="4.80656">
        <ele>488</ele>
        <time>2011-06-02T08:15:59Z</time>
      </trkpt>
      <trkpt lat="45.8489" lon="4.80655">
        <ele>489</ele>
        <time>2011-06-02T08:16:00Z</time>
      </trkpt>
      <trkpt lat="45.84887" lon="4.80655">
        <ele>489</ele>
        <time>2011-06-02T08:16:01Z</time>
      </trkpt>
      <trkpt lat="45.84885" lon="4.80655">
        <ele>490</ele>
        <time>2011-06-02T08:16:02Z</time>
      </trkpt>
      <trkpt lat="45.84882" lon="4.80655">
        <ele>491</ele>
        <time>2011-06-02T08:16:03Z</time>
      </trkpt>
      <trkpt lat="45.8488" lon="4.80654">
        <ele>491</ele>
        <time>2011-06-02T08:16:04Z</time>
      </trkpt>
      <trkpt lat="45.84878" lon="4.80653">
        <ele>492</ele>
        <time>2011-06-02T08:16:05Z</time>
      </trkpt>
      <trkpt lat="45.84876" lon="4.80652">
        <ele>492</ele>
        <time>2011-06-02T08:16:06Z</time>
      </trkpt>
      <trkpt lat="45.84873" lon="4.80652">
        <ele>493</ele>
        <time>2011-06-02T08:16:07Z</time>
      </trkpt>
      <trkpt lat="45.84871" lon="4.80652">
        <ele>493</ele>
        <time>2011-06-02T08:16:08Z</time>
      </trkpt>
      <trkpt lat="45.84869" lon="4.8065">
        <ele>493</ele>
        <time>2011-06-02T08:16:09Z</time>
      </trkpt>
      <trkpt lat="45.84867" lon="4.80649">
        <ele>493</ele>
        <time>2011-06-02T08:16:10Z</time>
      </trkpt>
      <trkpt lat="45.84866" lon="4.80649">
        <ele>493</ele>
        <time>2011-06-02T08:16:11Z</time>
      </trkpt>
      <trkpt lat="45.84864" lon="4.80648">
        <ele>494</ele>
        <time>2011-06-02T08:16:12Z</time>
      </trkpt>
      <trkpt lat="45.84862" lon="4.80647">
        <ele>494</ele>
        <time>2011-06-02T08:16:13Z</time>
      </trkpt>
      <trkpt lat="45.84861" lon="4.80647">
        <ele>494</ele>
        <time>2011-06-02T08:16:14Z</time>
      </trkpt>
      <trkpt lat="45.84859" lon="4.80646">
        <ele>494</ele>
        <time>2011-06-02T08:16:15Z</time>
      </trkpt>
      <trkpt lat="45.84857" lon="4.80644">
        <ele>494</ele>
        <time>2011-06-02T08:16:16Z</time>
      </trkpt>
      <trkpt lat="45.84856" lon="4.80644">
        <ele>494</ele>
        <time>2011-06-02T08:16:17Z</time>
      </trkpt>
      <trkpt lat="45.84854" lon="4.80644">
        <ele>494</ele>
        <time>2011-06-02T08:16:18Z</time>
      </trkpt>
      <trkpt lat="45.84852" lon="4.80644">
        <ele>494</ele>
        <time>2011-06-02T08:16:19Z</time>
      </trkpt>
      <trkpt lat="45.8485" lon="4.80643">
        <ele>494</ele>
        <time>2011-06-02T08:16:20Z</time>
      </trkpt>
      <trkpt lat="45.84848" lon="4.80644">
        <ele>494</ele>
        <time>2011-06-02T08:16:21Z</time>
      </trkpt>
      <trkpt lat="45.84846" lon="4.80642">
        <ele>494</ele>
        <time>2011-06-02T08:16:22Z</time>
      </trkpt>
      <trkpt lat="45.84844" lon="4.80641">
        <ele>494</ele>
        <time>2011-06-02T08:16:23Z</time>
      </trkpt>
      <trkpt lat="45.84842" lon="4.80641">
        <ele>494</ele>
        <time>2011-06-02T08:16:24Z</time>
      </trkpt>
      <trkpt lat="45.8484" lon="4.80641">
        <ele>494</ele>
        <time>2011-06-02T08:16:25Z</time>
      </trkpt>
      <trkpt lat="45.84838" lon="4.80641">
        <ele>494</ele>
        <time>2011-06-02T08:16:26Z</time>
      </trkpt>
      <trkpt lat="45.84836" lon="4.8064">
        <ele>494</ele>
        <time>2011-06-02T08:16:27Z</time>
      </trkpt>
      <trkpt lat="45.84835" lon="4.8064">
        <ele>494</ele>
        <time>2011-06-02T08:16:28Z</time>
      </trkpt>
      <trkpt lat="45.84833" lon="4.8064">
        <ele>494</ele>
        <time>2011-06-02T08:16:29Z</time>
      </trkpt>
      <trkpt lat="45.84832" lon="4.80639">
        <ele>494</ele>
        <time>2011-06-02T08:16:30Z</time>
      </trkpt>
      <trkpt lat="45.8483" lon="4.80638">
        <ele>494</ele>
        <time>2011-06-02T08:16:31Z</time>
      </trkpt>
      <trkpt lat="45.84829" lon="4.80638">
        <ele>494</ele>
        <time>2011-06-02T08:16:32Z</time>
      </trkpt>
      <trkpt lat="45.84827" lon="4.80637">
        <ele>494</ele>
        <time>2011-06-02T08:16:33Z</time>
      </trkpt>
      <trkpt lat="45.84826" lon="4.80636">
        <ele>494</ele>
        <time>2011-06-02T08:16:34Z</time>
      </trkpt>
      <trkpt lat="45.84823" lon="4.80636">
        <ele>494</ele>
        <time>2011-06-02T08:16:35Z</time>
      </trkpt>
      <trkpt lat="45.84821" lon="4.80636">
        <ele>494</ele>
        <time>2011-06-02T08:16:36Z</time>
      </trkpt>
      <trkpt lat="45.84818" lon="4.80637">
        <ele>494</ele>
        <time>2011-06-02T08:16:37Z</time>
      </trkpt>
      <trkpt lat="45.84815" lon="4.80637">
        <ele>494</ele>
        <time>2011-06-02T08:16:38Z</time>
      </trkpt>
      <trkpt lat="45.84812" lon="4.80637">
        <ele>494</ele>
        <time>2011-06-02T08:16:39Z</time>
      </trkpt>
      <trkpt lat="45.84811" lon="4.80637">
        <ele>494</ele>
        <time>2011-06-02T08:16:40Z</time>
      </trkpt>
      <trkpt lat="45.84808" lon="4.80636">
        <ele>494</ele>
        <time>2011-06-02T08:16:41Z</time>
      </trkpt>
      <trkpt lat="45.84807" lon="4.80635">
        <ele>494</ele>
        <time>2011-06-02T08:16:42Z</time>
      </trkpt>
      <trkpt lat="45.84806" lon="4.80633">
        <ele>493</ele>
        <time>2011-06-02T08:16:43Z</time>
      </trkpt>
      <trkpt lat="45.84804" lon="4.80632">
        <ele>492</ele>
        <time>2011-06-02T08:16:44Z</time>
      </trkpt>
      <trkpt lat="45.84803" lon="4.80632">
        <ele>492</ele>
        <time>2011-06-02T08:16:45Z</time>
      </trkpt>
      <trkpt lat="45.84801" lon="4.80631">
        <ele>491</ele>
        <time>2011-06-02T08:16:46Z</time>
      </trkpt>
      <trkpt lat="45.84798" lon="4.80631">
        <ele>491</ele>
        <time>2011-06-02T08:16:47Z</time>
      </trkpt>
      <trkpt lat="45.84795" lon="4.80631">
        <ele>490</ele>
        <time>2011-06-02T08:16:48Z</time>
      </trkpt>
      <trkpt lat="45.84792" lon="4.80632">
        <ele>490</ele>
        <time>2011-06-02T08:16:49Z</time>
      </trkpt>
      <trkpt lat="45.8479" lon="4.80633">
        <ele>490</ele>
        <time>2011-06-02T08:16:50Z</time>
      </trkpt>
      <trkpt lat="45.84787" lon="4.80632">
        <ele>490</ele>
        <time>2011-06-02T08:16:51Z</time>
      </trkpt>
      <trkpt lat="45.84785" lon="4.80633">
        <ele>490</ele>
        <time>2011-06-02T08:16:52Z</time>
      </trkpt>
      <trkpt lat="45.84782" lon="4.80634">
        <ele>490</ele>
        <time>2011-06-02T08:16:53Z</time>
      </trkpt>
      <trkpt lat="45.8478" lon="4.80634">
        <ele>490</ele>
        <time>2011-06-02T08:16:54Z</time>
      </trkpt>
      <trkpt lat="45.84778" lon="4.80634">
        <ele>490</ele>
        <time>2011-06-02T08:16:55Z</time>
      </trkpt>
      <trkpt lat="45.84776" lon="4.80635">
        <ele>490</ele>
        <time>2011-06-02T08:16:56Z</time>
      </trkpt>
      <trkpt lat="45.84774" lon="4.80635">
        <ele>490</ele>
        <time>2011-06-02T08:16:57Z</time>
      </trkpt>
      <trkpt lat="45.84773" lon="4.80635">
        <ele>490</ele>
        <time>2011-06-02T08:16:58Z</time>
      </trkpt>
      <trkpt lat="45.84771" lon="4.80635">
        <ele>490</ele>
        <time>2011-06-02T08:16:59Z</time>
      </trkpt>
      <trkpt lat="45.84768" lon="4.80635">
        <ele>490</ele>
        <time>2011-06-02T08:17:00Z</time>
      </trkpt>
      <trkpt lat="45.84766" lon="4.80636">
        <ele>490</ele>
        <time>2011-06-02T08:17:01Z</time>
      </trkpt>
      <trkpt lat="45.84764" lon="4.80636">
        <ele>490</ele>
        <time>2011-06-02T08:17:02Z</time>
      </trkpt>
      <trkpt lat="45.84762" lon="4.80637">
        <ele>490</ele>
        <time>2011-06-02T08:17:03Z</time>
      </trkpt>
      <trkpt lat="45.8476" lon="4.80638">
        <ele>490</ele>
        <time>2011-06-02T08:17:04Z</time>
      </trkpt>
      <trkpt lat="45.84758" lon="4.80638">
        <ele>490</ele>
        <time>2011-06-02T08:17:05Z</time>
      </trkpt>
      <trkpt lat="45.84756" lon="4.80639">
        <ele>490</ele>
        <time>2011-06-02T08:17:06Z</time>
      </trkpt>
      <trkpt lat="45.84755" lon="4.80639">
        <ele>490</ele>
        <time>2011-06-02T08:17:07Z</time>
      </trkpt>
      <trkpt lat="45.84752" lon="4.80641">
        <ele>490</ele>
        <time>2011-06-02T08:17:09Z</time>
      </trkpt>
      <trkpt lat="45.8475" lon="4.80642">
        <ele>490</ele>
        <time>2011-06-02T08:17:10Z</time>
      </trkpt>
      <trkpt lat="45.84748" lon="4.80643">
        <ele>490</ele>
        <time>2011-06-02T08:17:11Z</time>
      </trkpt>
      <trkpt lat="45.84746" lon="4.80644">
        <ele>490</ele>
        <time>2011-06-02T08:17:12Z</time>
      </trkpt>
      <trkpt lat="45.84744" lon="4.80644">
        <ele>490</ele>
        <time>2011-06-02T08:17:14Z</time>
      </trkpt>
      <trkpt lat="45.84742" lon="4.80644">
        <ele>490</ele>
        <time>2011-06-02T08:17:15Z</time>
      </trkpt>
      <trkpt lat="45.8474" lon="4.80643">
        <ele>490</ele>
        <time>2011-06-02T08:17:16Z</time>
      </trkpt>
      <trkpt lat="45.84737" lon="4.80643">
        <ele>490</ele>
        <time>2011-06-02T08:17:18Z</time>
      </trkpt>
      <trkpt lat="45.84735" lon="4.80644">
        <ele>490</ele>
        <time>2011-06-02T08:17:19Z</time>
      </trkpt>
      <trkpt lat="45.84732" lon="4.80644">
        <ele>490</ele>
        <time>2011-06-02T08:17:20Z</time>
      </trkpt>
      <trkpt lat="45.84729" lon="4.80644">
        <ele>490</ele>
        <time>2011-06-02T08:17:21Z</time>
      </trkpt>
      <trkpt lat="45.84726" lon="4.80645">
        <ele>490</ele>
        <time>2011-06-02T08:17:22Z</time>
      </trkpt>
      <trkpt lat="45.84722" lon="4.80646">
        <ele>490</ele>
        <time>2011-06-02T08:17:23Z</time>
      </trkpt>
      <trkpt lat="45.84719" lon="4.80646">
        <ele>490</ele>
        <time>2011-06-02T08:17:24Z</time>
      </trkpt>
      <trkpt lat="45.84716" lon="4.80646">
        <ele>490</ele>
        <time>2011-06-02T08:17:25Z</time>
      </trkpt>
      <trkpt lat="45.84714" lon="4.80646">
        <ele>490</ele>
        <time>2011-06-02T08:17:26Z</time>
      </trkpt>
      <trkpt lat="45.84712" lon="4.80645">
        <ele>490</ele>
        <time>2011-06-02T08:17:27Z</time>
      </trkpt>
      <trkpt lat="45.8471" lon="4.80645">
        <ele>490</ele>
        <time>2011-06-02T08:17:28Z</time>
      </trkpt>
      <trkpt lat="45.84708" lon="4.80646">
        <ele>490</ele>
        <time>2011-06-02T08:17:29Z</time>
      </trkpt>
      <trkpt lat="45.84706" lon="4.80646">
        <ele>490</ele>
        <time>2011-06-02T08:17:30Z</time>
      </trkpt>
      <trkpt lat="45.84704" lon="4.80646">
        <ele>490</ele>
        <time>2011-06-02T08:17:31Z</time>
      </trkpt>
      <trkpt lat="45.84703" lon="4.80647">
        <ele>490</ele>
        <time>2011-06-02T08:17:32Z</time>
      </trkpt>
      <trkpt lat="45.84701" lon="4.80648">
        <ele>490</ele>
        <time>2011-06-02T08:17:33Z</time>
      </trkpt>
      <trkpt lat="45.84699" lon="4.80648">
        <ele>490</ele>
        <time>2011-06-02T08:17:35Z</time>
      </trkpt>
      <trkpt lat="45.84697" lon="4.80648">
        <ele>490</ele>
        <time>2011-06-02T08:17:38Z</time>
      </trkpt>
      <trkpt lat="45.84696" lon="4.80648">
        <ele>490</ele>
        <time>2011-06-02T08:17:42Z</time>
      </trkpt>
      <trkpt lat="45.84695" lon="4.80648">
        <ele>490</ele>
        <time>2011-06-02T08:17:43Z</time>
      </trkpt>
      <trkpt lat="45.84693" lon="4.80648">
        <ele>490</ele>
        <time>2011-06-02T08:17:44Z</time>
      </trkpt>
      <trkpt lat="45.84692" lon="4.80648">
        <ele>490</ele>
        <time>2011-06-02T08:17:46Z</time>
      </trkpt>
      <trkpt lat="45.8469" lon="4.80647">
        <ele>490</ele>
        <time>2011-06-02T08:17:47Z</time>
      </trkpt>
      <trkpt lat="45.84689" lon="4.80647">
        <ele>490</ele>
        <time>2011-06-02T08:17:48Z</time>
      </trkpt>
      <trkpt lat="45.84687" lon="4.80646">
        <ele>490</ele>
        <time>2011-06-02T08:17:49Z</time>
      </trkpt>
      <trkpt lat="45.84684" lon="4.80645">
        <ele>490</ele>
        <time>2011-06-02T08:17:51Z</time>
      </trkpt>
      <trkpt lat="45.84683" lon="4.80645">
        <ele>490</ele>
        <time>2011-06-02T08:17:52Z</time>
      </trkpt>
      <trkpt lat="45.84681" lon="4.80644">
        <ele>490</ele>
        <time>2011-06-02T08:17:53Z</time>
      </trkpt>
      <trkpt lat="45.84679" lon="4.80644">
        <ele>490</ele>
        <time>2011-06-02T08:17:54Z</time>
      </trkpt>
      <trkpt lat="45.84676" lon="4.80642">
        <ele>490</ele>
        <time>2011-06-02T08:17:56Z</time>
      </trkpt>
      <trkpt lat="45.84674" lon="4.80642">
        <ele>490</ele>
        <time>2011-06-02T08:17:57Z</time>
      </trkpt>
      <trkpt lat="45.84672" lon="4.80641">
        <ele>490</ele>
        <time>2011-06-02T08:17:58Z</time>
      </trkpt>
      <trkpt lat="45.84669" lon="4.8064">
        <ele>490</ele>
        <time>2011-06-02T08:17:59Z</time>
      </trkpt>
      <trkpt lat="45.84666" lon="4.8064">
        <ele>490</ele>
        <time>2011-06-02T08:18:00Z</time>
      </trkpt>
      <trkpt lat="45.84665" lon="4.80639">
        <ele>490</ele>
        <time>2011-06-02T08:18:01Z</time>
      </trkpt>
      <trkpt lat="45.84662" lon="4.80638">
        <ele>490</ele>
        <time>2011-06-02T08:18:02Z</time>
      </trkpt>
      <trkpt lat="45.8466" lon="4.80638">
        <ele>490</ele>
        <time>2011-06-02T08:18:03Z</time>
      </trkpt>
      <trkpt lat="45.84658" lon="4.80637">
        <ele>490</ele>
        <time>2011-06-02T08:18:04Z</time>
      </trkpt>
      <trkpt lat="45.84656" lon="4.80637">
        <ele>490</ele>
        <time>2011-06-02T08:18:05Z</time>
      </trkpt>
      <trkpt lat="45.84654" lon="4.80637">
        <ele>490</ele>
        <time>2011-06-02T08:18:06Z</time>
      </trkpt>
      <trkpt lat="45.84651" lon="4.80637">
        <ele>490</ele>
        <time>2011-06-02T08:18:07Z</time>
      </trkpt>
      <trkpt lat="45.84647" lon="4.80637">
        <ele>490</ele>
        <time>2011-06-02T08:18:08Z</time>
      </trkpt>
      <trkpt lat="45.84644" lon="4.80637">
        <ele>490</ele>
        <time>2011-06-02T08:18:09Z</time>
      </trkpt>
      <trkpt lat="45.84641" lon="4.80636">
        <ele>490</ele>
        <time>2011-06-02T08:18:10Z</time>
      </trkpt>
      <trkpt lat="45.84637" lon="4.80636">
        <ele>490</ele>
        <time>2011-06-02T08:18:11Z</time>
      </trkpt>
      <trkpt lat="45.84634" lon="4.80636">
        <ele>490</ele>
        <time>2011-06-02T08:18:12Z</time>
      </trkpt>
      <trkpt lat="45.8463" lon="4.80635">
        <ele>490</ele>
        <time>2011-06-02T08:18:13Z</time>
      </trkpt>
      <trkpt lat="45.84626" lon="4.80634">
        <ele>490</ele>
        <time>2011-06-02T08:18:14Z</time>
      </trkpt>
      <trkpt lat="45.84621" lon="4.80633">
        <ele>490</ele>
        <time>2011-06-02T08:18:15Z</time>
      </trkpt>
      <trkpt lat="45.84615" lon="4.80632">
        <ele>490</ele>
        <time>2011-06-02T08:18:16Z</time>
      </trkpt>
      <trkpt lat="45.84611" lon="4.8063">
        <ele>490</ele>
        <time>2011-06-02T08:18:17Z</time>
      </trkpt>
      <trkpt lat="45.84607" lon="4.80628">
        <ele>490</ele>
        <time>2011-06-02T08:18:18Z</time>
      </trkpt>
      <trkpt lat="45.84604" lon="4.80625">
        <ele>490</ele>
        <time>2011-06-02T08:18:19Z</time>
      </trkpt>
      <trkpt lat="45.84602" lon="4.80623">
        <ele>491</ele>
        <time>2011-06-02T08:18:20Z</time>
      </trkpt>
      <trkpt lat="45.84598" lon="4.8062">
        <ele>491</ele>
        <time>2011-06-02T08:18:21Z</time>
      </trkpt>
      <trkpt lat="45.84596" lon="4.80617">
        <ele>491</ele>
        <time>2011-06-02T08:18:22Z</time>
      </trkpt>
      <trkpt lat="45.84594" lon="4.80614">
        <ele>491</ele>
        <time>2011-06-02T08:18:23Z</time>
      </trkpt>
      <trkpt lat="45.84592" lon="4.8061">
        <ele>491</ele>
        <time>2011-06-02T08:18:24Z</time>
      </trkpt>
      <trkpt lat="45.84589" lon="4.80606">
        <ele>492</ele>
        <time>2011-06-02T08:18:25Z</time>
      </trkpt>
      <trkpt lat="45.84586" lon="4.806">
        <ele>492</ele>
        <time>2011-06-02T08:18:26Z</time>
      </trkpt>
      <trkpt lat="45.84584" lon="4.80595">
        <ele>493</ele>
        <time>2011-06-02T08:18:27Z</time>
      </trkpt>
      <trkpt lat="45.84581" lon="4.80589">
        <ele>493</ele>
        <time>2011-06-02T08:18:28Z</time>
      </trkpt>
      <trkpt lat="45.84577" lon="4.80583">
        <ele>493</ele>
        <time>2011-06-02T08:18:29Z</time>
      </trkpt>
      <trkpt lat="45.84573" lon="4.80576">
        <ele>493</ele>
        <time>2011-06-02T08:18:30Z</time>
      </trkpt>
      <trkpt lat="45.8457" lon="4.80569">
        <ele>493</ele>
        <time>2011-06-02T08:18:31Z</time>
      </trkpt>
      <trkpt lat="45.84567" lon="4.80562">
        <ele>493</ele>
        <time>2011-06-02T08:18:32Z</time>
      </trkpt>
      <trkpt lat="45.84566" lon="4.80558">
        <ele>493</ele>
        <time>2011-06-02T08:18:33Z</time>
      </trkpt>
      <trkpt lat="45.84565" lon="4.80555">
        <ele>493</ele>
        <time>2011-06-02T08:18:34Z</time>
      </trkpt>
      <trkpt lat="45.84563" lon="4.80555">
        <ele>493</ele>
        <time>2011-06-02T08:18:35Z</time>
      </trkpt>
      <trkpt lat="45.84558" lon="4.80556">
        <ele>493</ele>
        <time>2011-06-02T08:18:36Z</time>
      </trkpt>
      <trkpt lat="45.84555" lon="4.80559">
        <ele>493</ele>
        <time>2011-06-02T08:18:37Z</time>
      </trkpt>
      <trkpt lat="45.84552" lon="4.80562">
        <ele>493</ele>
        <time>2011-06-02T08:18:38Z</time>
      </trkpt>
      <trkpt lat="45.84549" lon="4.80566">
        <ele>493</ele>
        <time>2011-06-02T08:18:39Z</time>
      </trkpt>
      <trkpt lat="45.84548" lon="4.80568">
        <ele>493</ele>
        <time>2011-06-02T08:18:40Z</time>
      </trkpt>
      <trkpt lat="45.84545" lon="4.8057">
        <ele>493</ele>
        <time>2011-06-02T08:18:41Z</time>
      </trkpt>
      <trkpt lat="45.84542" lon="4.80571">
        <ele>493</ele>
        <time>2011-06-02T08:18:43Z</time>
      </trkpt>
      <trkpt lat="45.84541" lon="4.80573">
        <ele>493</ele>
        <time>2011-06-02T08:18:44Z</time>
      </trkpt>
      <trkpt lat="45.84539" lon="4.80573">
        <ele>493</ele>
        <time>2011-06-02T08:18:45Z</time>
      </trkpt>
      <trkpt lat="45.84538" lon="4.80573">
        <ele>493</ele>
        <time>2011-06-02T08:18:46Z</time>
      </trkpt>
      <trkpt lat="45.84535" lon="4.80574">
        <ele>493</ele>
        <time>2011-06-02T08:18:47Z</time>
      </trkpt>
      <trkpt lat="45.84532" lon="4.80576">
        <ele>493</ele>
        <time>2011-06-02T08:18:48Z</time>
      </trkpt>
      <trkpt lat="45.84529" lon="4.80578">
        <ele>493</ele>
        <time>2011-06-02T08:18:49Z</time>
      </trkpt>
      <trkpt lat="45.84527" lon="4.80579">
        <ele>493</ele>
        <time>2011-06-02T08:18:50Z</time>
      </trkpt>
      <trkpt lat="45.84524" lon="4.80581">
        <ele>493</ele>
        <time>2011-06-02T08:18:51Z</time>
      </trkpt>
      <trkpt lat="45.84522" lon="4.80582">
        <ele>492</ele>
        <time>2011-06-02T08:18:52Z</time>
      </trkpt>
      <trkpt lat="45.8452" lon="4.80583">
        <ele>492</ele>
        <time>2011-06-02T08:18:53Z</time>
      </trkpt>
      <trkpt lat="45.84518" lon="4.80585">
        <ele>492</ele>
        <time>2011-06-02T08:18:54Z</time>
      </trkpt>
      <trkpt lat="45.84516" lon="4.80585">
        <ele>492</ele>
        <time>2011-06-02T08:18:55Z</time>
      </trkpt>
      <trkpt lat="45.84515" lon="4.80586">
        <ele>492</ele>
        <time>2011-06-02T08:18:56Z</time>
      </trkpt>
      <trkpt lat="45.84512" lon="4.80587">
        <ele>492</ele>
        <time>2011-06-02T08:18:58Z</time>
      </trkpt>
      <trkpt lat="45.8451" lon="4.80588">
        <ele>492</ele>
        <time>2011-06-02T08:18:59Z</time>
      </trkpt>
      <trkpt lat="45.84509" lon="4.80588">
        <ele>492</ele>
        <time>2011-06-02T08:19:00Z</time>
      </trkpt>
      <trkpt lat="45.84507" lon="4.80589">
        <ele>492</ele>
        <time>2011-06-02T08:19:01Z</time>
      </trkpt>
      <trkpt lat="45.84504" lon="4.8059">
        <ele>492</ele>
        <time>2011-06-02T08:19:02Z</time>
      </trkpt>
      <trkpt lat="45.84502" lon="4.8059">
        <ele>492</ele>
        <time>2011-06-02T08:19:03Z</time>
      </trkpt>
      <trkpt lat="45.84501" lon="4.8059">
        <ele>492</ele>
        <time>2011-06-02T08:19:04Z</time>
      </trkpt>
      <trkpt lat="45.84499" lon="4.80591">
        <ele>492</ele>
        <time>2011-06-02T08:19:05Z</time>
      </trkpt>
      <trkpt lat="45.84497" lon="4.80592">
        <ele>492</ele>
        <time>2011-06-02T08:19:06Z</time>
      </trkpt>
      <trkpt lat="45.84495" lon="4.80592">
        <ele>492</ele>
        <time>2011-06-02T08:19:07Z</time>
      </trkpt>
      <trkpt lat="45.84493" lon="4.80592">
        <ele>492</ele>
        <time>2011-06-02T08:19:08Z</time>
      </trkpt>
      <trkpt lat="45.84491" lon="4.80592">
        <ele>492</ele>
        <time>2011-06-02T08:19:09Z</time>
      </trkpt>
      <trkpt lat="45.84489" lon="4.80591">
        <ele>492</ele>
        <time>2011-06-02T08:19:10Z</time>
      </trkpt>
      <trkpt lat="45.84487" lon="4.80591">
        <ele>492</ele>
        <time>2011-06-02T08:19:12Z</time>
      </trkpt>
      <trkpt lat="45.84486" lon="4.80591">
        <ele>492</ele>
        <time>2011-06-02T08:19:13Z</time>
      </trkpt>
      <trkpt lat="45.84485" lon="4.80591">
        <ele>492</ele>
        <time>2011-06-02T08:19:14Z</time>
      </trkpt>
      <trkpt lat="45.84482" lon="4.80591">
        <ele>492</ele>
        <time>2011-06-02T08:19:15Z</time>
      </trkpt>
      <trkpt lat="45.84479" lon="4.80592">
        <ele>492</ele>
        <time>2011-06-02T08:19:16Z</time>
      </trkpt>
      <trkpt lat="45.84477" lon="4.80593">
        <ele>492</ele>
        <time>2011-06-02T08:19:17Z</time>
      </trkpt>
      <trkpt lat="45.84474" lon="4.80593">
        <ele>492</ele>
        <time>2011-06-02T08:19:18Z</time>
      </trkpt>
      <trkpt lat="45.84473" lon="4.80593">
        <ele>492</ele>
        <time>2011-06-02T08:19:19Z</time>
      </trkpt>
      <trkpt lat="45.8447" lon="4.80592">
        <ele>492</ele>
        <time>2011-06-02T08:19:20Z</time>
      </trkpt>
      <trkpt lat="45.84467" lon="4.80592">
        <ele>492</ele>
        <time>2011-06-02T08:19:21Z</time>
      </trkpt>
      <trkpt lat="45.84465" lon="4.80592">
        <ele>492</ele>
        <time>2011-06-02T08:19:22Z</time>
      </trkpt>
      <trkpt lat="45.84462" lon="4.80592">
        <ele>492</ele>
        <time>2011-06-02T08:19:23Z</time>
      </trkpt>
      <trkpt lat="45.84461" lon="4.80592">
        <ele>492</ele>
        <time>2011-06-02T08:19:24Z</time>
      </trkpt>
      <trkpt lat="45.84459" lon="4.80591">
        <ele>492</ele>
        <time>2011-06-02T08:19:25Z</time>
      </trkpt>
      <trkpt lat="45.84457" lon="4.80591">
        <ele>492</ele>
        <time>2011-06-02T08:19:26Z</time>
      </trkpt>
      <trkpt lat="45.84454" lon="4.8059">
        <ele>492</ele>
        <time>2011-06-02T08:19:27Z</time>
      </trkpt>
      <trkpt lat="45.84452" lon="4.8059">
        <ele>492</ele>
        <time>2011-06-02T08:19:28Z</time>
      </trkpt>
      <trkpt lat="45.8445" lon="4.8059">
        <ele>492</ele>
        <time>2011-06-02T08:19:29Z</time>
      </trkpt>
      <trkpt lat="45.84448" lon="4.8059">
        <ele>492</ele>
        <time>2011-06-02T08:19:30Z</time>
      </trkpt>
      <trkpt lat="45.84446" lon="4.8059">
        <ele>492</ele>
        <time>2011-06-02T08:19:31Z</time>
      </trkpt>
      <trkpt lat="45.84443" lon="4.8059">
        <ele>492</ele>
        <time>2011-06-02T08:19:32Z</time>
      </trkpt>
      <trkpt lat="45.84441" lon="4.80589">
        <ele>492</ele>
        <time>2011-06-02T08:19:33Z</time>
      </trkpt>
      <trkpt lat="45.84439" lon="4.80587">
        <ele>492</ele>
        <time>2011-06-02T08:19:34Z</time>
      </trkpt>
      <trkpt lat="45.84438" lon="4.80587">
        <ele>492</ele>
        <time>2011-06-02T08:19:35Z</time>
      </trkpt>
      <trkpt lat="45.84436" lon="4.80586">
        <ele>492</ele>
        <time>2011-06-02T08:19:36Z</time>
      </trkpt>
      <trkpt lat="45.84434" lon="4.80586">
        <ele>492</ele>
        <time>2011-06-02T08:19:37Z</time>
      </trkpt>
      <trkpt lat="45.84432" lon="4.80585">
        <ele>492</ele>
        <time>2011-06-02T08:19:38Z</time>
      </trkpt>
      <trkpt lat="45.8443" lon="4.80585">
        <ele>492</ele>
        <time>2011-06-02T08:19:39Z</time>
      </trkpt>
      <trkpt lat="45.84428" lon="4.80585">
        <ele>492</ele>
        <time>2011-06-02T08:19:40Z</time>
      </trkpt>
      <trkpt lat="45.84426" lon="4.80584">
        <ele>492</ele>
        <time>2011-06-02T08:19:41Z</time>
      </trkpt>
      <trkpt lat="45.84424" lon="4.80584">
        <ele>492</ele>
        <time>2011-06-02T08:19:42Z</time>
      </trkpt>
      <trkpt lat="45.84422" lon="4.80583">
        <ele>492</ele>
        <time>2011-06-02T08:19:43Z</time>
      </trkpt>
      <trkpt lat="45.8442" lon="4.80583">
        <ele>492</ele>
        <time>2011-06-02T08:19:44Z</time>
      </trkpt>
      <trkpt lat="45.84418" lon="4.80583">
        <ele>492</ele>
        <time>2011-06-02T08:19:45Z</time>
      </trkpt>
      <trkpt lat="45.84417" lon="4.80582">
        <ele>492</ele>
        <time>2011-06-02T08:19:46Z</time>
      </trkpt>
      <trkpt lat="45.84415" lon="4.80581">
        <ele>492</ele>
        <time>2011-06-02T08:19:47Z</time>
      </trkpt>
      <trkpt lat="45.84413" lon="4.8058">
        <ele>492</ele>
        <time>2011-06-02T08:19:48Z</time>
      </trkpt>
      <trkpt lat="45.84411" lon="4.80579">
        <ele>492</ele>
        <time>2011-06-02T08:19:49Z</time>
      </trkpt>
      <trkpt lat="45.8441" lon="4.80578">
        <ele>492</ele>
        <time>2011-06-02T08:19:50Z</time>
      </trkpt>
      <trkpt lat="45.84409" lon="4.80577">
        <ele>492</ele>
        <time>2011-06-02T08:19:51Z</time>
      </trkpt>
      <trkpt lat="45.84407" lon="4.80576">
        <ele>492</ele>
        <time>2011-06-02T08:19:52Z</time>
      </trkpt>
      <trkpt lat="45.84405" lon="4.80576">
        <ele>492</ele>
        <time>2011-06-02T08:19:53Z</time>
      </trkpt>
      <trkpt lat="45.84403" lon="4.80575">
        <ele>492</ele>
        <time>2011-06-02T08:19:54Z</time>
      </trkpt>
      <trkpt lat="45.844" lon="4.80574">
        <ele>492</ele>
        <time>2011-06-02T08:19:55Z</time>
      </trkpt>
      <trkpt lat="45.84399" lon="4.80573">
        <ele>492</ele>
        <time>2011-06-02T08:19:56Z</time>
      </trkpt>
      <trkpt lat="45.84397" lon="4.80572">
        <ele>492</ele>
        <time>2011-06-02T08:19:57Z</time>
      </trkpt>
      <trkpt lat="45.84395" lon="4.80571">
        <ele>492</ele>
        <time>2011-06-02T08:19:58Z</time>
      </trkpt>
      <trkpt lat="45.84393" lon="4.8057">
        <ele>492</ele>
        <time>2011-06-02T08:19:59Z</time>
      </trkpt>
      <trkpt lat="45.84391" lon="4.80568">
        <ele>492</ele>
        <time>2011-06-02T08:20:00Z</time>
      </trkpt>
      <trkpt lat="45.84389" lon="4.80567">
        <ele>492</ele>
        <time>2011-06-02T08:20:01Z</time>
      </trkpt>
      <trkpt lat="45.84386" lon="4.80566">
        <ele>492</ele>
        <time>2011-06-02T08:20:02Z</time>
      </trkpt>
      <trkpt lat="45.84384" lon="4.80566">
        <ele>492</ele>
        <time>2011-06-02T08:20:03Z</time>
      </trkpt>
      <trkpt lat="45.84382" lon="4.80565">
        <ele>493</ele>
        <time>2011-06-02T08:20:04Z</time>
      </trkpt>
      <trkpt lat="45.8438" lon="4.80564">
        <ele>493</ele>
        <time>2011-06-02T08:20:05Z</time>
      </trkpt>
      <trkpt lat="45.84377" lon="4.80562">
        <ele>493</ele>
        <time>2011-06-02T08:20:06Z</time>
      </trkpt>
      <trkpt lat="45.84374" lon="4.8056">
        <ele>493</ele>
        <time>2011-06-02T08:20:07Z</time>
      </trkpt>
      <trkpt lat="45.8437" lon="4.8056">
        <ele>493</ele>
        <time>2011-06-02T08:20:08Z</time>
      </trkpt>
      <trkpt lat="45.84367" lon="4.80561">
        <ele>493</ele>
        <time>2011-06-02T08:20:09Z</time>
      </trkpt>
      <trkpt lat="45.84364" lon="4.80562">
        <ele>493</ele>
        <time>2011-06-02T08:20:10Z</time>
      </trkpt>
      <trkpt lat="45.8436" lon="4.80564">
        <ele>493</ele>
        <time>2011-06-02T08:20:11Z</time>
      </trkpt>
      <trkpt lat="45.84355" lon="4.80566">
        <ele>493</ele>
        <time>2011-06-02T08:20:12Z</time>
      </trkpt>
      <trkpt lat="45.8435" lon="4.80568">
        <ele>493</ele>
        <time>2011-06-02T08:20:13Z</time>
      </trkpt>
      <trkpt lat="45.84345" lon="4.8057">
        <ele>493</ele>
        <time>2011-06-02T08:20:14Z</time>
      </trkpt>
      <trkpt lat="45.84339" lon="4.80572">
        <ele>493</ele>
        <time>2011-06-02T08:20:15Z</time>
      </trkpt>
      <trkpt lat="45.84334" lon="4.80575">
        <ele>493</ele>
        <time>2011-06-02T08:20:16Z</time>
      </trkpt>
      <trkpt lat="45.84329" lon="4.80577">
        <ele>493</ele>
        <time>2011-06-02T08:20:17Z</time>
      </trkpt>
      <trkpt lat="45.84324" lon="4.80579">
        <ele>493</ele>
        <time>2011-06-02T08:20:18Z</time>
      </trkpt>
      <trkpt lat="45.8432" lon="4.80581">
        <ele>493</ele>
        <time>2011-06-02T08:20:19Z</time>
      </trkpt>
      <trkpt lat="45.84316" lon="4.80582">
        <ele>493</ele>
        <time>2011-06-02T08:20:20Z</time>
      </trkpt>
      <trkpt lat="45.84312" lon="4.80584">
        <ele>493</ele>
        <time>2011-06-02T08:20:21Z</time>
      </trkpt>
      <trkpt lat="45.8431" lon="4.80586">
        <ele>493</ele>
        <time>2011-06-02T08:20:22Z</time>
      </trkpt>
      <trkpt lat="45.84306" lon="4.80588">
        <ele>493</ele>
        <time>2011-06-02T08:20:23Z</time>
      </trkpt>
      <trkpt lat="45.84304" lon="4.80588">
        <ele>493</ele>
        <time>2011-06-02T08:20:24Z</time>
      </trkpt>
      <trkpt lat="45.84301" lon="4.8059">
        <ele>493</ele>
        <time>2011-06-02T08:20:25Z</time>
      </trkpt>
      <trkpt lat="45.84298" lon="4.80591">
        <ele>493</ele>
        <time>2011-06-02T08:20:26Z</time>
      </trkpt>
      <trkpt lat="45.84296" lon="4.80592">
        <ele>493</ele>
        <time>2011-06-02T08:20:27Z</time>
      </trkpt>
      <trkpt lat="45.84293" lon="4.80593">
        <ele>493</ele>
        <time>2011-06-02T08:20:28Z</time>
      </trkpt>
      <trkpt lat="45.8429" lon="4.80594">
        <ele>492</ele>
        <time>2011-06-02T08:20:29Z</time>
      </trkpt>
      <trkpt lat="45.84286" lon="4.80593">
        <ele>491</ele>
        <time>2011-06-02T08:20:30Z</time>
      </trkpt>
      <trkpt lat="45.84283" lon="4.80593">
        <ele>490</ele>
        <time>2011-06-02T08:20:31Z</time>
      </trkpt>
      <trkpt lat="45.8428" lon="4.80592">
        <ele>489</ele>
        <time>2011-06-02T08:20:32Z</time>
      </trkpt>
      <trkpt lat="45.84277" lon="4.8059">
        <ele>488</ele>
        <time>2011-06-02T08:20:33Z</time>
      </trkpt>
      <trkpt lat="45.84274" lon="4.80588">
        <ele>487</ele>
        <time>2011-06-02T08:20:34Z</time>
      </trkpt>
      <trkpt lat="45.84272" lon="4.80586">
        <ele>486</ele>
        <time>2011-06-02T08:20:35Z</time>
      </trkpt>
      <trkpt lat="45.84269" lon="4.80585">
        <ele>485</ele>
        <time>2011-06-02T08:20:36Z</time>
      </trkpt>
      <trkpt lat="45.84267" lon="4.80583">
        <ele>485</ele>
        <time>2011-06-02T08:20:37Z</time>
      </trkpt>
      <trkpt lat="45.84265" lon="4.80582">
        <ele>485</ele>
        <time>2011-06-02T08:20:38Z</time>
      </trkpt>
      <trkpt lat="45.84262" lon="4.8058">
        <ele>485</ele>
        <time>2011-06-02T08:20:39Z</time>
      </trkpt>
      <trkpt lat="45.8426" lon="4.80579">
        <ele>485</ele>
        <time>2011-06-02T08:20:40Z</time>
      </trkpt>
      <trkpt lat="45.84257" lon="4.80577">
        <ele>485</ele>
        <time>2011-06-02T08:20:41Z</time>
      </trkpt>
      <trkpt lat="45.84256" lon="4.80575">
        <ele>485</ele>
        <time>2011-06-02T08:20:42Z</time>
      </trkpt>
      <trkpt lat="45.84254" lon="4.80573">
        <ele>485</ele>
        <time>2011-06-02T08:20:43Z</time>
      </trkpt>
      <trkpt lat="45.84252" lon="4.80571">
        <ele>485</ele>
        <time>2011-06-02T08:20:44Z</time>
      </trkpt>
      <trkpt lat="45.8425" lon="4.80569">
        <ele>485</ele>
        <time>2011-06-02T08:20:45Z</time>
      </trkpt>
      <trkpt lat="45.84248" lon="4.80568">
        <ele>485</ele>
        <time>2011-06-02T08:20:46Z</time>
      </trkpt>
      <trkpt lat="45.84246" lon="4.80566">
        <ele>485</ele>
        <time>2011-06-02T08:20:47Z</time>
      </trkpt>
      <trkpt lat="45.84243" lon="4.80564">
        <ele>485</ele>
        <time>2011-06-02T08:20:48Z</time>
      </trkpt>
      <trkpt lat="45.84242" lon="4.80562">
        <ele>485</ele>
        <time>2011-06-02T08:20:49Z</time>
      </trkpt>
      <trkpt lat="45.8424" lon="4.8056">
        <ele>485</ele>
        <time>2011-06-02T08:20:50Z</time>
      </trkpt>
      <trkpt lat="45.84238" lon="4.80559">
        <ele>485</ele>
        <time>2011-06-02T08:20:51Z</time>
      </trkpt>
      <trkpt lat="45.84237" lon="4.80557">
        <ele>485</ele>
        <time>2011-06-02T08:20:52Z</time>
      </trkpt>
      <trkpt lat="45.84235" lon="4.80555">
        <ele>485</ele>
        <time>2011-06-02T08:20:53Z</time>
      </trkpt>
      <trkpt lat="45.84233" lon="4.80554">
        <ele>485</ele>
        <time>2011-06-02T08:20:54Z</time>
      </trkpt>
      <trkpt lat="45.84231" lon="4.80553">
        <ele>485</ele>
        <time>2011-06-02T08:20:55Z</time>
      </trkpt>
      <trkpt lat="45.84229" lon="4.80551">
        <ele>485</ele>
        <time>2011-06-02T08:20:56Z</time>
      </trkpt>
      <trkpt lat="45.84228" lon="4.80549">
        <ele>485</ele>
        <time>2011-06-02T08:20:57Z</time>
      </trkpt>
      <trkpt lat="45.84227" lon="4.80548">
        <ele>485</ele>
        <time>2011-06-02T08:20:58Z</time>
      </trkpt>
      <trkpt lat="45.84226" lon="4.80546">
        <ele>485</ele>
        <time>2011-06-02T08:20:59Z</time>
      </trkpt>
      <trkpt lat="45.84224" lon="4.80544">
        <ele>485</ele>
        <time>2011-06-02T08:21:01Z</time>
      </trkpt>
      <trkpt lat="45.84222" lon="4.80541">
        <ele>485</ele>
        <time>2011-06-02T08:21:03Z</time>
      </trkpt>
      <trkpt lat="45.84221" lon="4.80539">
        <ele>485</ele>
        <time>2011-06-02T08:21:04Z</time>
      </trkpt>
      <trkpt lat="45.84219" lon="4.80538">
        <ele>485</ele>
        <time>2011-06-02T08:21:05Z</time>
      </trkpt>
      <trkpt lat="45.84218" lon="4.80535">
        <ele>485</ele>
        <time>2011-06-02T08:21:06Z</time>
      </trkpt>
      <trkpt lat="45.84216" lon="4.80533">
        <ele>485</ele>
        <time>2011-06-02T08:21:07Z</time>
      </trkpt>
      <trkpt lat="45.84214" lon="4.80531">
        <ele>485</ele>
        <time>2011-06-02T08:21:08Z</time>
      </trkpt>
      <trkpt lat="45.84213" lon="4.80529">
        <ele>485</ele>
        <time>2011-06-02T08:21:09Z</time>
      </trkpt>
      <trkpt lat="45.84211" lon="4.80527">
        <ele>485</ele>
        <time>2011-06-02T08:21:10Z</time>
      </trkpt>
      <trkpt lat="45.8421" lon="4.80525">
        <ele>485</ele>
        <time>2011-06-02T08:21:11Z</time>
      </trkpt>
      <trkpt lat="45.84209" lon="4.80523">
        <ele>485</ele>
        <time>2011-06-02T08:21:12Z</time>
      </trkpt>
      <trkpt lat="45.84207" lon="4.80521">
        <ele>485</ele>
        <time>2011-06-02T08:21:13Z</time>
      </trkpt>
      <trkpt lat="45.84205" lon="4.80519">
        <ele>485</ele>
        <time>2011-06-02T08:21:14Z</time>
      </trkpt>
      <trkpt lat="45.84204" lon="4.80516">
        <ele>485</ele>
        <time>2011-06-02T08:21:15Z</time>
      </trkpt>
      <trkpt lat="45.84202" lon="4.80514">
        <ele>485</ele>
        <time>2011-06-02T08:21:16Z</time>
      </trkpt>
      <trkpt lat="45.842" lon="4.80511">
        <ele>485</ele>
        <time>2011-06-02T08:21:17Z</time>
      </trkpt>
      <trkpt lat="45.84198" lon="4.80507">
        <ele>485</ele>
        <time>2011-06-02T08:21:18Z</time>
      </trkpt>
      <trkpt lat="45.84197" lon="4.80504">
        <ele>486</ele>
        <time>2011-06-02T08:21:19Z</time>
      </trkpt>
      <trkpt lat="45.84197" lon="4.80501">
        <ele>486</ele>
        <time>2011-06-02T08:21:20Z</time>
      </trkpt>
      <trkpt lat="45.84196" lon="4.80499">
        <ele>487</ele>
        <time>2011-06-02T08:21:21Z</time>
      </trkpt>
      <trkpt lat="45.84195" lon="4.80495">
        <ele>487</ele>
        <time>2011-06-02T08:21:22Z</time>
      </trkpt>
      <trkpt lat="45.84194" lon="4.80492">
        <ele>487</ele>
        <time>2011-06-02T08:21:23Z</time>
      </trkpt>
      <trkpt lat="45.84193" lon="4.80489">
        <ele>487</ele>
        <time>2011-06-02T08:21:24Z</time>
      </trkpt>
      <trkpt lat="45.84193" lon="4.80486">
        <ele>488</ele>
        <time>2011-06-02T08:21:25Z</time>
      </trkpt>
      <trkpt lat="45.84192" lon="4.80483">
        <ele>488</ele>
        <time>2011-06-02T08:21:26Z</time>
      </trkpt>
      <trkpt lat="45.84191" lon="4.8048">
        <ele>488</ele>
        <time>2011-06-02T08:21:27Z</time>
      </trkpt>
      <trkpt lat="45.84191" lon="4.80478">
        <ele>489</ele>
        <time>2011-06-02T08:21:28Z</time>
      </trkpt>
      <trkpt lat="45.8419" lon="4.80475">
        <ele>491</ele>
        <time>2011-06-02T08:21:30Z</time>
      </trkpt>
      <trkpt lat="45.8419" lon="4.80472">
        <ele>492</ele>
        <time>2011-06-02T08:21:31Z</time>
      </trkpt>
      <trkpt lat="45.84189" lon="4.80468">
        <ele>493</ele>
        <time>2011-06-02T08:21:32Z</time>
      </trkpt>
      <trkpt lat="45.8419" lon="4.80465">
        <ele>494</ele>
        <time>2011-06-02T08:21:33Z</time>
      </trkpt>
      <trkpt lat="45.84189" lon="4.80463">
        <ele>495</ele>
        <time>2011-06-02T08:21:34Z</time>
      </trkpt>
      <trkpt lat="45.84188" lon="4.80459">
        <ele>496</ele>
        <time>2011-06-02T08:21:35Z</time>
      </trkpt>
      <trkpt lat="45.84188" lon="4.80456">
        <ele>497</ele>
        <time>2011-06-02T08:21:36Z</time>
      </trkpt>
      <trkpt lat="45.84188" lon="4.80454">
        <ele>498</ele>
        <time>2011-06-02T08:21:37Z</time>
      </trkpt>
      <trkpt lat="45.84188" lon="4.80451">
        <ele>499</ele>
        <time>2011-06-02T08:21:38Z</time>
      </trkpt>
      <trkpt lat="45.84187" lon="4.80448">
        <ele>500</ele>
        <time>2011-06-02T08:21:39Z</time>
      </trkpt>
      <trkpt lat="45.84186" lon="4.80444">
        <ele>501</ele>
        <time>2011-06-02T08:21:40Z</time>
      </trkpt>
      <trkpt lat="45.84186" lon="4.80441">
        <ele>502</ele>
        <time>2011-06-02T08:21:41Z</time>
      </trkpt>
      <trkpt lat="45.84186" lon="4.80438">
        <ele>503</ele>
        <time>2011-06-02T08:21:42Z</time>
      </trkpt>
      <trkpt lat="45.84185" lon="4.80436">
        <ele>504</ele>
        <time>2011-06-02T08:21:43Z</time>
      </trkpt>
      <trkpt lat="45.84185" lon="4.80433">
        <ele>506</ele>
        <time>2011-06-02T08:21:45Z</time>
      </trkpt>
      <trkpt lat="45.84185" lon="4.80431">
        <ele>507</ele>
        <time>2011-06-02T08:21:46Z</time>
      </trkpt>
      <trkpt lat="45.84185" lon="4.80429">
        <ele>508</ele>
        <time>2011-06-02T08:21:47Z</time>
      </trkpt>
      <trkpt lat="45.84184" lon="4.80427">
        <ele>509</ele>
        <time>2011-06-02T08:21:48Z</time>
      </trkpt>
      <trkpt lat="45.84184" lon="4.80425">
        <ele>509</ele>
        <time>2011-06-02T08:21:49Z</time>
      </trkpt>
      <trkpt lat="45.84183" lon="4.80423">
        <ele>509</ele>
        <time>2011-06-02T08:21:50Z</time>
      </trkpt>
      <trkpt lat="45.84182" lon="4.80422">
        <ele>509</ele>
        <time>2011-06-02T08:21:51Z</time>
      </trkpt>
      <trkpt lat="45.84182" lon="4.8042">
        <ele>509</ele>
        <time>2011-06-02T08:21:52Z</time>
      </trkpt>
      <trkpt lat="45.84182" lon="4.80418">
        <ele>509</ele>
        <time>2011-06-02T08:21:54Z</time>
      </trkpt>
      <trkpt lat="45.8418" lon="4.80417">
        <ele>509</ele>
        <time>2011-06-02T08:21:56Z</time>
      </trkpt>
      <trkpt lat="45.84178" lon="4.80417">
        <ele>509</ele>
        <time>2011-06-02T08:21:57Z</time>
      </trkpt>
      <trkpt lat="45.84177" lon="4.80416">
        <ele>509</ele>
        <time>2011-06-02T08:22:00Z</time>
      </trkpt>
      <trkpt lat="45.84175" lon="4.80416">
        <ele>508</ele>
        <time>2011-06-02T08:22:02Z</time>
      </trkpt>
      <trkpt lat="45.84174" lon="4.80417">
        <ele>508</ele>
        <time>2011-06-02T08:22:03Z</time>
      </trkpt>
      <trkpt lat="45.84172" lon="4.80417">
        <ele>508</ele>
        <time>2011-06-02T08:22:04Z</time>
      </trkpt>
      <trkpt lat="45.8417" lon="4.80418">
        <ele>507</ele>
        <time>2011-06-02T08:22:06Z</time>
      </trkpt>
      <trkpt lat="45.84168" lon="4.80418">
        <ele>506</ele>
        <time>2011-06-02T08:22:08Z</time>
      </trkpt>
      <trkpt lat="45.84167" lon="4.80419">
        <ele>505</ele>
        <time>2011-06-02T08:22:09Z</time>
      </trkpt>
      <trkpt lat="45.84166" lon="4.8042">
        <ele>504</ele>
        <time>2011-06-02T08:22:10Z</time>
      </trkpt>
      <trkpt lat="45.84164" lon="4.80421">
        <ele>504</ele>
        <time>2011-06-02T08:22:11Z</time>
      </trkpt>
      <trkpt lat="45.84162" lon="4.80422">
        <ele>503</ele>
        <time>2011-06-02T08:22:13Z</time>
      </trkpt>
      <trkpt lat="45.84161" lon="4.80423">
        <ele>502</ele>
        <time>2011-06-02T08:22:14Z</time>
      </trkpt>
      <trkpt lat="45.84159" lon="4.80424">
        <ele>500</ele>
        <time>2011-06-02T08:22:16Z</time>
      </trkpt>
      <trkpt lat="45.84158" lon="4.80425">
        <ele>500</ele>
        <time>2011-06-02T08:22:17Z</time>
      </trkpt>
      <trkpt lat="45.84157" lon="4.80426">
        <ele>499</ele>
        <time>2011-06-02T08:22:18Z</time>
      </trkpt>
      <trkpt lat="45.84156" lon="4.80426">
        <ele>498</ele>
        <time>2011-06-02T08:22:19Z</time>
      </trkpt>
      <trkpt lat="45.84154" lon="4.80427">
        <ele>498</ele>
        <time>2011-06-02T08:22:20Z</time>
      </trkpt>
      <trkpt lat="45.84152" lon="4.80429">
        <ele>497</ele>
        <time>2011-06-02T08:22:21Z</time>
      </trkpt>
      <trkpt lat="45.8415" lon="4.8043">
        <ele>496</ele>
        <time>2011-06-02T08:22:22Z</time>
      </trkpt>
      <trkpt lat="45.84149" lon="4.80431">
        <ele>496</ele>
        <time>2011-06-02T08:22:23Z</time>
      </trkpt>
      <trkpt lat="45.84147" lon="4.80433">
        <ele>496</ele>
        <time>2011-06-02T08:22:24Z</time>
      </trkpt>
      <trkpt lat="45.84145" lon="4.80435">
        <ele>495</ele>
        <time>2011-06-02T08:22:25Z</time>
      </trkpt>
      <trkpt lat="45.84143" lon="4.80435">
        <ele>494</ele>
        <time>2011-06-02T08:22:27Z</time>
      </trkpt>
      <trkpt lat="45.8414" lon="4.80436">
        <ele>494</ele>
        <time>2011-06-02T08:22:28Z</time>
      </trkpt>
      <trkpt lat="45.84139" lon="4.80438">
        <ele>494</ele>
        <time>2011-06-02T08:22:29Z</time>
      </trkpt>
      <trkpt lat="45.84137" lon="4.80439">
        <ele>494</ele>
        <time>2011-06-02T08:22:30Z</time>
      </trkpt>
      <trkpt lat="45.84135" lon="4.8044">
        <ele>494</ele>
        <time>2011-06-02T08:22:31Z</time>
      </trkpt>
      <trkpt lat="45.84133" lon="4.80441">
        <ele>494</ele>
        <time>2011-06-02T08:22:32Z</time>
      </trkpt>
      <trkpt lat="45.84131" lon="4.80442">
        <ele>494</ele>
        <time>2011-06-02T08:22:33Z</time>
      </trkpt>
      <trkpt lat="45.84129" lon="4.80442">
        <ele>494</ele>
        <time>2011-06-02T08:22:34Z</time>
      </trkpt>
      <trkpt lat="45.84127" lon="4.80442">
        <ele>494</ele>
        <time>2011-06-02T08:22:35Z</time>
      </trkpt>
      <trkpt lat="45.84125" lon="4.80443">
        <ele>494</ele>
        <time>2011-06-02T08:22:36Z</time>
      </trkpt>
      <trkpt lat="45.84123" lon="4.80443">
        <ele>494</ele>
        <time>2011-06-02T08:22:37Z</time>
      </trkpt>
      <trkpt lat="45.8412" lon="4.80443">
        <ele>494</ele>
        <time>2011-06-02T08:22:38Z</time>
      </trkpt>
      <trkpt lat="45.84117" lon="4.80444">
        <ele>494</ele>
        <time>2011-06-02T08:22:39Z</time>
      </trkpt>
      <trkpt lat="45.84115" lon="4.80445">
        <ele>494</ele>
        <time>2011-06-02T08:22:40Z</time>
      </trkpt>
      <trkpt lat="45.84113" lon="4.80445">
        <ele>494</ele>
        <time>2011-06-02T08:22:41Z</time>
      </trkpt>
      <trkpt lat="45.84111" lon="4.80446">
        <ele>494</ele>
        <time>2011-06-02T08:22:42Z</time>
      </trkpt>
      <trkpt lat="45.84109" lon="4.80446">
        <ele>494</ele>
        <time>2011-06-02T08:22:43Z</time>
      </trkpt>
      <trkpt lat="45.84106" lon="4.80446">
        <ele>494</ele>
        <time>2011-06-02T08:22:44Z</time>
      </trkpt>
      <trkpt lat="45.84104" lon="4.80446">
        <ele>494</ele>
        <time>2011-06-02T08:22:45Z</time>
      </trkpt>
      <trkpt lat="45.84102" lon="4.80446">
        <ele>495</ele>
        <time>2011-06-02T08:22:46Z</time>
      </trkpt>
      <trkpt lat="45.84099" lon="4.80445">
        <ele>495</ele>
        <time>2011-06-02T08:22:47Z</time>
      </trkpt>
      <trkpt lat="45.84097" lon="4.80445">
        <ele>495</ele>
        <time>2011-06-02T08:22:48Z</time>
      </trkpt>
      <trkpt lat="45.84094" lon="4.80445">
        <ele>495</ele>
        <time>2011-06-02T08:22:49Z</time>
      </trkpt>
      <trkpt lat="45.84091" lon="4.80445">
        <ele>495</ele>
        <time>2011-06-02T08:22:50Z</time>
      </trkpt>
      <trkpt lat="45.84089" lon="4.80444">
        <ele>495</ele>
        <time>2011-06-02T08:22:51Z</time>
      </trkpt>
      <trkpt lat="45.84086" lon="4.80444">
        <ele>496</ele>
        <time>2011-06-02T08:22:52Z</time>
      </trkpt>
      <trkpt lat="45.84084" lon="4.80443">
        <ele>496</ele>
        <time>2011-06-02T08:22:53Z</time>
      </trkpt>
      <trkpt lat="45.84082" lon="4.80442">
        <ele>496</ele>
        <time>2011-06-02T08:22:54Z</time>
      </trkpt>
      <trkpt lat="45.84079" lon="4.80442">
        <ele>496</ele>
        <time>2011-06-02T08:22:55Z</time>
      </trkpt>
      <trkpt lat="45.84077" lon="4.80442">
        <ele>496</ele>
        <time>2011-06-02T08:22:56Z</time>
      </trkpt>
      <trkpt lat="45.84074" lon="4.80441">
        <ele>496</ele>
        <time>2011-06-02T08:22:57Z</time>
      </trkpt>
      <trkpt lat="45.84072" lon="4.80441">
        <ele>496</ele>
        <time>2011-06-02T08:22:58Z</time>
      </trkpt>
      <trkpt lat="45.8407" lon="4.8044">
        <ele>496</ele>
        <time>2011-06-02T08:22:59Z</time>
      </trkpt>
      <trkpt lat="45.84068" lon="4.8044">
        <ele>496</ele>
        <time>2011-06-02T08:23:00Z</time>
      </trkpt>
      <trkpt lat="45.84066" lon="4.80439">
        <ele>496</ele>
        <time>2011-06-02T08:23:01Z</time>
      </trkpt>
      <trkpt lat="45.84064" lon="4.80439">
        <ele>496</ele>
        <time>2011-06-02T08:23:02Z</time>
      </trkpt>
      <trkpt lat="45.84061" lon="4.80438">
        <ele>496</ele>
        <time>2011-06-02T08:23:03Z</time>
      </trkpt>
      <trkpt lat="45.84059" lon="4.80437">
        <ele>496</ele>
        <time>2011-06-02T08:23:04Z</time>
      </trkpt>
      <trkpt lat="45.84056" lon="4.80436">
        <ele>496</ele>
        <time>2011-06-02T08:23:05Z</time>
      </trkpt>
      <trkpt lat="45.84054" lon="4.80436">
        <ele>496</ele>
        <time>2011-06-02T08:23:06Z</time>
      </trkpt>
      <trkpt lat="45.84052" lon="4.80435">
        <ele>496</ele>
        <time>2011-06-02T08:23:07Z</time>
      </trkpt>
      <trkpt lat="45.84049" lon="4.80434">
        <ele>496</ele>
        <time>2011-06-02T08:23:08Z</time>
      </trkpt>
      <trkpt lat="45.84047" lon="4.80434">
        <ele>496</ele>
        <time>2011-06-02T08:23:09Z</time>
      </trkpt>
      <trkpt lat="45.84045" lon="4.80433">
        <ele>496</ele>
        <time>2011-06-02T08:23:10Z</time>
      </trkpt>
      <trkpt lat="45.84042" lon="4.80432">
        <ele>496</ele>
        <time>2011-06-02T08:23:11Z</time>
      </trkpt>
      <trkpt lat="45.8404" lon="4.80432">
        <ele>496</ele>
        <time>2011-06-02T08:23:12Z</time>
      </trkpt>
      <trkpt lat="45.84038" lon="4.80431">
        <ele>496</ele>
        <time>2011-06-02T08:23:13Z</time>
      </trkpt>
      <trkpt lat="45.84035" lon="4.80431">
        <ele>496</ele>
        <time>2011-06-02T08:23:14Z</time>
      </trkpt>
      <trkpt lat="45.84033" lon="4.8043">
        <ele>496</ele>
        <time>2011-06-02T08:23:15Z</time>
      </trkpt>
      <trkpt lat="45.84031" lon="4.80429">
        <ele>496</ele>
        <time>2011-06-02T08:23:16Z</time>
      </trkpt>
      <trkpt lat="45.84029" lon="4.80428">
        <ele>496</ele>
        <time>2011-06-02T08:23:17Z</time>
      </trkpt>
      <trkpt lat="45.84026" lon="4.80427">
        <ele>496</ele>
        <time>2011-06-02T08:23:18Z</time>
      </trkpt>
      <trkpt lat="45.84024" lon="4.80426">
        <ele>496</ele>
        <time>2011-06-02T08:23:19Z</time>
      </trkpt>
      <trkpt lat="45.84022" lon="4.80426">
        <ele>496</ele>
        <time>2011-06-02T08:23:20Z</time>
      </trkpt>
      <trkpt lat="45.8402" lon="4.80425">
        <ele>496</ele>
        <time>2011-06-02T08:23:21Z</time>
      </trkpt>
      <trkpt lat="45.84018" lon="4.80424">
        <ele>496</ele>
        <time>2011-06-02T08:23:22Z</time>
      </trkpt>
      <trkpt lat="45.84016" lon="4.80423">
        <ele>496</ele>
        <time>2011-06-02T08:23:23Z</time>
      </trkpt>
      <trkpt lat="45.84014" lon="4.80422">
        <ele>496</ele>
        <time>2011-06-02T08:23:24Z</time>
      </trkpt>
      <trkpt lat="45.84013" lon="4.80422">
        <ele>496</ele>
        <time>2011-06-02T08:23:25Z</time>
      </trkpt>
      <trkpt lat="45.8401" lon="4.80421">
        <ele>496</ele>
        <time>2011-06-02T08:23:26Z</time>
      </trkpt>
      <trkpt lat="45.84009" lon="4.8042">
        <ele>496</ele>
        <time>2011-06-02T08:23:27Z</time>
      </trkpt>
      <trkpt lat="45.84007" lon="4.80419">
        <ele>496</ele>
        <time>2011-06-02T08:23:28Z</time>
      </trkpt>
      <trkpt lat="45.84005" lon="4.80418">
        <ele>496</ele>
        <time>2011-06-02T08:23:29Z</time>
      </trkpt>
      <trkpt lat="45.84003" lon="4.80417">
        <ele>496</ele>
        <time>2011-06-02T08:23:30Z</time>
      </trkpt>
      <trkpt lat="45.84001" lon="4.80416">
        <ele>496</ele>
        <time>2011-06-02T08:23:31Z</time>
      </trkpt>
      <trkpt lat="45.83999" lon="4.80415">
        <ele>496</ele>
        <time>2011-06-02T08:23:32Z</time>
      </trkpt>
      <trkpt lat="45.83997" lon="4.80414">
        <ele>496</ele>
        <time>2011-06-02T08:23:33Z</time>
      </trkpt>
      <trkpt lat="45.83995" lon="4.80413">
        <ele>496</ele>
        <time>2011-06-02T08:23:34Z</time>
      </trkpt>
      <trkpt lat="45.83994" lon="4.80412">
        <ele>496</ele>
        <time>2011-06-02T08:23:35Z</time>
      </trkpt>
      <trkpt lat="45.83992" lon="4.80411">
        <ele>496</ele>
        <time>2011-06-02T08:23:36Z</time>
      </trkpt>
      <trkpt lat="45.8399" lon="4.80409">
        <ele>496</ele>
        <time>2011-06-02T08:23:37Z</time>
      </trkpt>
      <trkpt lat="45.83988" lon="4.80408">
        <ele>496</ele>
        <time>2011-06-02T08:23:38Z</time>
      </trkpt>
      <trkpt lat="45.83986" lon="4.80407">
        <ele>496</ele>
        <time>2011-06-02T08:23:39Z</time>
      </trkpt>
      <trkpt lat="45.83984" lon="4.80406">
        <ele>496</ele>
        <time>2011-06-02T08:23:40Z</time>
      </trkpt>
      <trkpt lat="45.83983" lon="4.80405">
        <ele>496</ele>
        <time>2011-06-02T08:23:41Z</time>
      </trkpt>
      <trkpt lat="45.83981" lon="4.80404">
        <ele>496</ele>
        <time>2011-06-02T08:23:42Z</time>
      </trkpt>
      <trkpt lat="45.83979" lon="4.80403">
        <ele>496</ele>
        <time>2011-06-02T08:23:43Z</time>
      </trkpt>
      <trkpt lat="45.83977" lon="4.80402">
        <ele>496</ele>
        <time>2011-06-02T08:23:44Z</time>
      </trkpt>
      <trkpt lat="45.83975" lon="4.80401">
        <ele>496</ele>
        <time>2011-06-02T08:23:45Z</time>
      </trkpt>
      <trkpt lat="45.83973" lon="4.804">
        <ele>496</ele>
        <time>2011-06-02T08:23:46Z</time>
      </trkpt>
      <trkpt lat="45.83971" lon="4.80399">
        <ele>496</ele>
        <time>2011-06-02T08:23:47Z</time>
      </trkpt>
      <trkpt lat="45.83969" lon="4.80398">
        <ele>496</ele>
        <time>2011-06-02T08:23:48Z</time>
      </trkpt>
      <trkpt lat="45.83967" lon="4.80396">
        <ele>496</ele>
        <time>2011-06-02T08:23:49Z</time>
      </trkpt>
      <trkpt lat="45.83966" lon="4.80395">
        <ele>496</ele>
        <time>2011-06-02T08:23:50Z</time>
      </trkpt>
      <trkpt lat="45.83964" lon="4.80394">
        <ele>496</ele>
        <time>2011-06-02T08:23:51Z</time>
      </trkpt>
      <trkpt lat="45.83963" lon="4.80392">
        <ele>496</ele>
        <time>2011-06-02T08:23:52Z</time>
      </trkpt>
      <trkpt lat="45.83961" lon="4.80391">
        <ele>496</ele>
        <time>2011-06-02T08:23:53Z</time>
      </trkpt>
      <trkpt lat="45.8396" lon="4.8039">
        <ele>496</ele>
        <time>2011-06-02T08:23:54Z</time>
      </trkpt>
      <trkpt lat="45.83959" lon="4.80389">
        <ele>496</ele>
        <time>2011-06-02T08:23:55Z</time>
      </trkpt>
      <trkpt lat="45.83957" lon="4.80388">
        <ele>496</ele>
        <time>2011-06-02T08:23:56Z</time>
      </trkpt>
      <trkpt lat="45.83956" lon="4.80387">
        <ele>496</ele>
        <time>2011-06-02T08:23:57Z</time>
      </trkpt>
      <trkpt lat="45.83955" lon="4.80386">
        <ele>496</ele>
        <time>2011-06-02T08:23:58Z</time>
      </trkpt>
      <trkpt lat="45.83953" lon="4.80385">
        <ele>496</ele>
        <time>2011-06-02T08:23:59Z</time>
      </trkpt>
      <trkpt lat="45.83951" lon="4.80384">
        <ele>496</ele>
        <time>2011-06-02T08:24:00Z</time>
      </trkpt>
      <trkpt lat="45.8395" lon="4.80383">
        <ele>497</ele>
        <time>2011-06-02T08:24:01Z</time>
      </trkpt>
      <trkpt lat="45.83949" lon="4.80382">
        <ele>497</ele>
        <time>2011-06-02T08:24:02Z</time>
      </trkpt>
      <trkpt lat="45.83947" lon="4.80381">
        <ele>497</ele>
        <time>2011-06-02T08:24:03Z</time>
      </trkpt>
      <trkpt lat="45.83946" lon="4.8038">
        <ele>497</ele>
        <time>2011-06-02T08:24:04Z</time>
      </trkpt>
      <trkpt lat="45.83945" lon="4.80379">
        <ele>498</ele>
        <time>2011-06-02T08:24:05Z</time>
      </trkpt>
      <trkpt lat="45.83944" lon="4.80378">
        <ele>498</ele>
        <time>2011-06-02T08:24:06Z</time>
      </trkpt>
      <trkpt lat="45.83942" lon="4.80378">
        <ele>498</ele>
        <time>2011-06-02T08:24:07Z</time>
      </trkpt>
      <trkpt lat="45.83941" lon="4.80377">
        <ele>498</ele>
        <time>2011-06-02T08:24:08Z</time>
      </trkpt>
      <trkpt lat="45.8394" lon="4.80377">
        <ele>498</ele>
        <time>2011-06-02T08:24:09Z</time>
      </trkpt>
      <trkpt lat="45.83939" lon="4.80376">
        <ele>498</ele>
        <time>2011-06-02T08:24:11Z</time>
      </trkpt>
      <trkpt lat="45.83937" lon="4.80376">
        <ele>498</ele>
        <time>2011-06-02T08:24:14Z</time>
      </trkpt>
      <trkpt lat="45.83936" lon="4.80374">
        <ele>498</ele>
        <time>2011-06-02T08:24:21Z</time>
      </trkpt>
      <trkpt lat="45.83935" lon="4.80374">
        <ele>498</ele>
        <time>2011-06-02T08:24:28Z</time>
      </trkpt>
      <trkpt lat="45.83937" lon="4.80372">
        <ele>498</ele>
        <time>2011-06-02T08:24:34Z</time>
      </trkpt>
      <trkpt lat="45.83939" lon="4.80372">
        <ele>496</ele>
        <time>2011-06-02T08:24:36Z</time>
      </trkpt>
      <trkpt lat="45.8394" lon="4.80371">
        <ele>492</ele>
        <time>2011-06-02T08:24:40Z</time>
      </trkpt>
      <trkpt lat="45.83941" lon="4.80369">
        <ele>487</ele>
        <time>2011-06-02T08:24:50Z</time>
      </trkpt>
      <trkpt lat="45.83941" lon="4.80368">
        <ele>485</ele>
        <time>2011-06-02T08:25:11Z</time>
      </trkpt>
      <trkpt lat="45.83942" lon="4.80369">
        <ele>485</ele>
        <time>2011-06-02T08:25:26Z</time>
      </trkpt>
      <trkpt lat="45.83944" lon="4.8037">
        <ele>487</ele>
        <time>2011-06-02T08:25:40Z</time>
      </trkpt>
      <trkpt lat="45.83945" lon="4.8037">
        <ele>487</ele>
        <time>2011-06-02T08:25:41Z</time>
      </trkpt>
      <trkpt lat="45.83947" lon="4.80373">
        <ele>489</ele>
        <time>2011-06-02T08:25:43Z</time>
      </trkpt>
      <trkpt lat="45.83946" lon="4.80375">
        <ele>489</ele>
        <time>2011-06-02T08:25:44Z</time>
      </trkpt>
      <trkpt lat="45.83944" lon="4.80376">
        <ele>491</ele>
        <time>2011-06-02T08:25:46Z</time>
      </trkpt>
      <trkpt lat="45.83943" lon="4.80377">
        <ele>491</ele>
        <time>2011-06-02T08:25:47Z</time>
      </trkpt>
      <trkpt lat="45.83941" lon="4.80379">
        <ele>491</ele>
        <time>2011-06-02T08:25:48Z</time>
      </trkpt>
      <trkpt lat="45.83939" lon="4.80381">
        <ele>491</ele>
        <time>2011-06-02T08:25:49Z</time>
      </trkpt>
      <trkpt lat="45.83937" lon="4.80384">
        <ele>491</ele>
        <time>2011-06-02T08:25:50Z</time>
      </trkpt>
      <trkpt lat="45.83934" lon="4.80386">
        <ele>491</ele>
        <time>2011-06-02T08:25:51Z</time>
      </trkpt>
      <trkpt lat="45.83931" lon="4.80389">
        <ele>491</ele>
        <time>2011-06-02T08:25:52Z</time>
      </trkpt>
      <trkpt lat="45.83929" lon="4.80394">
        <ele>491</ele>
        <time>2011-06-02T08:25:53Z</time>
      </trkpt>
      <trkpt lat="45.83927" lon="4.80398">
        <ele>491</ele>
        <time>2011-06-02T08:25:54Z</time>
      </trkpt>
      <trkpt lat="45.83925" lon="4.80402">
        <ele>491</ele>
        <time>2011-06-02T08:25:55Z</time>
      </trkpt>
      <trkpt lat="45.83923" lon="4.80406">
        <ele>491</ele>
        <time>2011-06-02T08:25:56Z</time>
      </trkpt>
      <trkpt lat="45.83922" lon="4.80409">
        <ele>491</ele>
        <time>2011-06-02T08:25:57Z</time>
      </trkpt>
      <trkpt lat="45.8392" lon="4.80414">
        <ele>491</ele>
        <time>2011-06-02T08:25:58Z</time>
      </trkpt>
      <trkpt lat="45.83919" lon="4.80418">
        <ele>491</ele>
        <time>2011-06-02T08:25:59Z</time>
      </trkpt>
      <trkpt lat="45.83918" lon="4.80422">
        <ele>491</ele>
        <time>2011-06-02T08:26:00Z</time>
      </trkpt>
      <trkpt lat="45.83916" lon="4.80426">
        <ele>491</ele>
        <time>2011-06-02T08:26:01Z</time>
      </trkpt>
      <trkpt lat="45.83915" lon="4.80429">
        <ele>491</ele>
        <time>2011-06-02T08:26:02Z</time>
      </trkpt>
      <trkpt lat="45.83913" lon="4.80433">
        <ele>491</ele>
        <time>2011-06-02T08:26:03Z</time>
      </trkpt>
      <trkpt lat="45.83912" lon="4.80436">
        <ele>491</ele>
        <time>2011-06-02T08:26:04Z</time>
      </trkpt>
      <trkpt lat="45.83911" lon="4.80439">
        <ele>490</ele>
        <time>2011-06-02T08:26:05Z</time>
      </trkpt>
      <trkpt lat="45.8391" lon="4.80443">
        <ele>489</ele>
        <time>2011-06-02T08:26:06Z</time>
      </trkpt>
      <trkpt lat="45.83909" lon="4.80448">
        <ele>489</ele>
        <time>2011-06-02T08:26:07Z</time>
      </trkpt>
      <trkpt lat="45.83908" lon="4.80451">
        <ele>489</ele>
        <time>2011-06-02T08:26:08Z</time>
      </trkpt>
      <trkpt lat="45.83907" lon="4.80454">
        <ele>488</ele>
        <time>2011-06-02T08:26:09Z</time>
      </trkpt>
      <trkpt lat="45.83905" lon="4.80457">
        <ele>488</ele>
        <time>2011-06-02T08:26:10Z</time>
      </trkpt>
      <trkpt lat="45.83901" lon="4.80458">
        <ele>488</ele>
        <time>2011-06-02T08:26:11Z</time>
      </trkpt>
      <trkpt lat="45.83897" lon="4.80456">
        <ele>488</ele>
        <time>2011-06-02T08:26:12Z</time>
      </trkpt>
      <trkpt lat="45.83894" lon="4.80453">
        <ele>488</ele>
        <time>2011-06-02T08:26:13Z</time>
      </trkpt>
      <trkpt lat="45.8389" lon="4.80449">
        <ele>488</ele>
        <time>2011-06-02T08:26:14Z</time>
      </trkpt>
      <trkpt lat="45.83886" lon="4.80445">
        <ele>488</ele>
        <time>2011-06-02T08:26:15Z</time>
      </trkpt>
      <trkpt lat="45.83882" lon="4.80443">
        <ele>488</ele>
        <time>2011-06-02T08:26:16Z</time>
      </trkpt>
      <trkpt lat="45.83878" lon="4.80441">
        <ele>488</ele>
        <time>2011-06-02T08:26:17Z</time>
      </trkpt>
      <trkpt lat="45.83875" lon="4.80438">
        <ele>488</ele>
        <time>2011-06-02T08:26:18Z</time>
      </trkpt>
      <trkpt lat="45.83873" lon="4.80436">
        <ele>488</ele>
        <time>2011-06-02T08:26:19Z</time>
      </trkpt>
      <trkpt lat="45.83871" lon="4.80435">
        <ele>487</ele>
        <time>2011-06-02T08:26:20Z</time>
      </trkpt>
      <trkpt lat="45.83868" lon="4.80433">
        <ele>487</ele>
        <time>2011-06-02T08:26:21Z</time>
      </trkpt>
      <trkpt lat="45.83867" lon="4.80432">
        <ele>486</ele>
        <time>2011-06-02T08:26:22Z</time>
      </trkpt>
      <trkpt lat="45.83865" lon="4.80432">
        <ele>485</ele>
        <time>2011-06-02T08:26:23Z</time>
      </trkpt>
      <trkpt lat="45.83863" lon="4.80432">
        <ele>484</ele>
        <time>2011-06-02T08:26:24Z</time>
      </trkpt>
      <trkpt lat="45.8386" lon="4.80434">
        <ele>483</ele>
        <time>2011-06-02T08:26:25Z</time>
      </trkpt>
      <trkpt lat="45.83859" lon="4.80436">
        <ele>482</ele>
        <time>2011-06-02T08:26:26Z</time>
      </trkpt>
      <trkpt lat="45.83858" lon="4.8044">
        <ele>481</ele>
        <time>2011-06-02T08:26:27Z</time>
      </trkpt>
      <trkpt lat="45.83857" lon="4.80444">
        <ele>480</ele>
        <time>2011-06-02T08:26:28Z</time>
      </trkpt>
      <trkpt lat="45.83856" lon="4.80449">
        <ele>479</ele>
        <time>2011-06-02T08:26:29Z</time>
      </trkpt>
      <trkpt lat="45.83855" lon="4.80453">
        <ele>478</ele>
        <time>2011-06-02T08:26:30Z</time>
      </trkpt>
      <trkpt lat="45.83854" lon="4.80457">
        <ele>477</ele>
        <time>2011-06-02T08:26:31Z</time>
      </trkpt>
      <trkpt lat="45.83853" lon="4.80461">
        <ele>476</ele>
        <time>2011-06-02T08:26:32Z</time>
      </trkpt>
      <trkpt lat="45.83852" lon="4.80465">
        <ele>475</ele>
        <time>2011-06-02T08:26:33Z</time>
      </trkpt>
      <trkpt lat="45.83851" lon="4.80469">
        <ele>474</ele>
        <time>2011-06-02T08:26:34Z</time>
      </trkpt>
      <trkpt lat="45.8385" lon="4.80474">
        <ele>473</ele>
        <time>2011-06-02T08:26:35Z</time>
      </trkpt>
      <trkpt lat="45.83849" lon="4.80478">
        <ele>472</ele>
        <time>2011-06-02T08:26:36Z</time>
      </trkpt>
      <trkpt lat="45.83847" lon="4.80483">
        <ele>471</ele>
        <time>2011-06-02T08:26:37Z</time>
      </trkpt>
      <trkpt lat="45.83846" lon="4.80488">
        <ele>471</ele>
        <time>2011-06-02T08:26:38Z</time>
      </trkpt>
      <trkpt lat="45.83845" lon="4.80495">
        <ele>470</ele>
        <time>2011-06-02T08:26:39Z</time>
      </trkpt>
      <trkpt lat="45.83844" lon="4.80502">
        <ele>469</ele>
        <time>2011-06-02T08:26:40Z</time>
      </trkpt>
      <trkpt lat="45.83843" lon="4.80508">
        <ele>469</ele>
        <time>2011-06-02T08:26:41Z</time>
      </trkpt>
      <trkpt lat="45.83842" lon="4.80515">
        <ele>468</ele>
        <time>2011-06-02T08:26:42Z</time>
      </trkpt>
      <trkpt lat="45.83841" lon="4.8052">
        <ele>467</ele>
        <time>2011-06-02T08:26:43Z</time>
      </trkpt>
      <trkpt lat="45.8384" lon="4.80526">
        <ele>466</ele>
        <time>2011-06-02T08:26:44Z</time>
      </trkpt>
      <trkpt lat="45.83839" lon="4.80532">
        <ele>466</ele>
        <time>2011-06-02T08:26:45Z</time>
      </trkpt>
      <trkpt lat="45.83838" lon="4.80538">
        <ele>465</ele>
        <time>2011-06-02T08:26:46Z</time>
      </trkpt>
      <trkpt lat="45.83838" lon="4.80544">
        <ele>465</ele>
        <time>2011-06-02T08:26:47Z</time>
      </trkpt>
      <trkpt lat="45.83837" lon="4.8055">
        <ele>464</ele>
        <time>2011-06-02T08:26:48Z</time>
      </trkpt>
      <trkpt lat="45.83837" lon="4.80555">
        <ele>464</ele>
        <time>2011-06-02T08:26:49Z</time>
      </trkpt>
      <trkpt lat="45.83837" lon="4.80559">
        <ele>463</ele>
        <time>2011-06-02T08:26:50Z</time>
      </trkpt>
      <trkpt lat="45.83837" lon="4.80562">
        <ele>462</ele>
        <time>2011-06-02T08:26:51Z</time>
      </trkpt>
      <trkpt lat="45.83838" lon="4.80566">
        <ele>462</ele>
        <time>2011-06-02T08:26:52Z</time>
      </trkpt>
      <trkpt lat="45.83838" lon="4.80569">
        <ele>461</ele>
        <time>2011-06-02T08:26:53Z</time>
      </trkpt>
      <trkpt lat="45.83837" lon="4.80572">
        <ele>461</ele>
        <time>2011-06-02T08:26:54Z</time>
      </trkpt>
      <trkpt lat="45.83837" lon="4.80575">
        <ele>460</ele>
        <time>2011-06-02T08:26:55Z</time>
      </trkpt>
      <trkpt lat="45.83836" lon="4.80577">
        <ele>460</ele>
        <time>2011-06-02T08:26:56Z</time>
      </trkpt>
      <trkpt lat="45.83834" lon="4.80578">
        <ele>459</ele>
        <time>2011-06-02T08:26:58Z</time>
      </trkpt>
      <trkpt lat="45.83833" lon="4.80577">
        <ele>459</ele>
        <time>2011-06-02T08:26:59Z</time>
      </trkpt>
      <trkpt lat="45.83831" lon="4.80575">
        <ele>459</ele>
        <time>2011-06-02T08:27:00Z</time>
      </trkpt>
      <trkpt lat="45.83829" lon="4.80573">
        <ele>458</ele>
        <time>2011-06-02T08:27:01Z</time>
      </trkpt>
      <trkpt lat="45.83827" lon="4.80571">
        <ele>458</ele>
        <time>2011-06-02T08:27:03Z</time>
      </trkpt>
      <trkpt lat="45.83826" lon="4.8057">
        <ele>458</ele>
        <time>2011-06-02T08:27:05Z</time>
      </trkpt>
      <trkpt lat="45.83825" lon="4.80569">
        <ele>457</ele>
        <time>2011-06-02T08:27:09Z</time>
      </trkpt>
      <trkpt lat="45.83824" lon="4.8057">
        <ele>454</ele>
        <time>2011-06-02T08:27:13Z</time>
      </trkpt>
      <trkpt lat="45.83826" lon="4.80571">
        <ele>453</ele>
        <time>2011-06-02T08:27:17Z</time>
      </trkpt>
      <trkpt lat="45.83824" lon="4.80571">
        <ele>452</ele>
        <time>2011-06-02T08:27:24Z</time>
      </trkpt>
      <trkpt lat="45.83823" lon="4.80571">
        <ele>451</ele>
        <time>2011-06-02T08:27:27Z</time>
      </trkpt>
      <trkpt lat="45.83822" lon="4.80571">
        <ele>451</ele>
        <time>2011-06-02T08:27:32Z</time>
      </trkpt>
      <trkpt lat="45.8382" lon="4.80569">
        <ele>448</ele>
        <time>2011-06-02T08:27:41Z</time>
      </trkpt>
      <trkpt lat="45.83818" lon="4.80568">
        <ele>447</ele>
        <time>2011-06-02T08:27:43Z</time>
      </trkpt>
      <trkpt lat="45.83819" lon="4.80566">
        <ele>447</ele>
        <time>2011-06-02T08:27:49Z</time>
      </trkpt>
      <trkpt lat="45.83817" lon="4.80567">
        <ele>447</ele>
        <time>2011-06-02T08:27:56Z</time>
      </trkpt>
      <trkpt lat="45.83816" lon="4.80567">
        <ele>447</ele>
        <time>2011-06-02T08:28:00Z</time>
      </trkpt>
      <trkpt lat="45.83814" lon="4.80565">
        <ele>448</ele>
        <time>2011-06-02T08:28:02Z</time>
      </trkpt>
      <trkpt lat="45.83812" lon="4.80563">
        <ele>448</ele>
        <time>2011-06-02T08:28:03Z</time>
      </trkpt>
      <trkpt lat="45.8381" lon="4.8056">
        <ele>448</ele>
        <time>2011-06-02T08:28:04Z</time>
      </trkpt>
      <trkpt lat="45.83808" lon="4.80557">
        <ele>448</ele>
        <time>2011-06-02T08:28:05Z</time>
      </trkpt>
      <trkpt lat="45.83806" lon="4.80553">
        <ele>448</ele>
        <time>2011-06-02T08:28:06Z</time>
      </trkpt>
      <trkpt lat="45.83803" lon="4.80549">
        <ele>448</ele>
        <time>2011-06-02T08:28:07Z</time>
      </trkpt>
      <trkpt lat="45.83801" lon="4.80547">
        <ele>448</ele>
        <time>2011-06-02T08:28:08Z</time>
      </trkpt>
      <trkpt lat="45.83798" lon="4.80544">
        <ele>448</ele>
        <time>2011-06-02T08:28:09Z</time>
      </trkpt>
      <trkpt lat="45.83795" lon="4.80542">
        <ele>448</ele>
        <time>2011-06-02T08:28:10Z</time>
      </trkpt>
      <trkpt lat="45.83792" lon="4.80539">
        <ele>448</ele>
        <time>2011-06-02T08:28:11Z</time>
      </trkpt>
      <trkpt lat="45.83789" lon="4.80537">
        <ele>448</ele>
        <time>2011-06-02T08:28:12Z</time>
      </trkpt>
      <trkpt lat="45.83786" lon="4.80536">
        <ele>448</ele>
        <time>2011-06-02T08:28:13Z</time>
      </trkpt>
      <trkpt lat="45.83782" lon="4.80534">
        <ele>448</ele>
        <time>2011-06-02T08:28:14Z</time>
      </trkpt>
      <trkpt lat="45.8378" lon="4.80532">
        <ele>448</ele>
        <time>2011-06-02T08:28:15Z</time>
      </trkpt>
      <trkpt lat="45.83776" lon="4.8053">
        <ele>448</ele>
        <time>2011-06-02T08:28:16Z</time>
      </trkpt>
      <trkpt lat="45.83773" lon="4.80529">
        <ele>448</ele>
        <time>2011-06-02T08:28:17Z</time>
      </trkpt>
      <trkpt lat="45.8377" lon="4.8053">
        <ele>448</ele>
        <time>2011-06-02T08:28:18Z</time>
      </trkpt>
      <trkpt lat="45.83768" lon="4.80532">
        <ele>448</ele>
        <time>2011-06-02T08:28:19Z</time>
      </trkpt>
      <trkpt lat="45.83767" lon="4.80533">
        <ele>448</ele>
        <time>2011-06-02T08:28:20Z</time>
      </trkpt>
      <trkpt lat="45.83765" lon="4.80534">
        <ele>448</ele>
        <time>2011-06-02T08:28:21Z</time>
      </trkpt>
      <trkpt lat="45.83763" lon="4.80534">
        <ele>448</ele>
        <time>2011-06-02T08:28:22Z</time>
      </trkpt>
      <trkpt lat="45.83761" lon="4.80535">
        <ele>448</ele>
        <time>2011-06-02T08:28:23Z</time>
      </trkpt>
      <trkpt lat="45.83759" lon="4.80536">
        <ele>447</ele>
        <time>2011-06-02T08:28:24Z</time>
      </trkpt>
      <trkpt lat="45.83757" lon="4.80537">
        <ele>446</ele>
        <time>2011-06-02T08:28:25Z</time>
      </trkpt>
      <trkpt lat="45.83756" lon="4.80538">
        <ele>445</ele>
        <time>2011-06-02T08:28:26Z</time>
      </trkpt>
      <trkpt lat="45.83754" lon="4.80538">
        <ele>444</ele>
        <time>2011-06-02T08:28:27Z</time>
      </trkpt>
      <trkpt lat="45.83752" lon="4.8054">
        <ele>442</ele>
        <time>2011-06-02T08:28:29Z</time>
      </trkpt>
      <trkpt lat="45.83751" lon="4.80541">
        <ele>441</ele>
        <time>2011-06-02T08:28:30Z</time>
      </trkpt>
      <trkpt lat="45.83749" lon="4.80544">
        <ele>439</ele>
        <time>2011-06-02T08:28:32Z</time>
      </trkpt>
      <trkpt lat="45.83747" lon="4.80544">
        <ele>438</ele>
        <time>2011-06-02T08:28:33Z</time>
      </trkpt>
      <trkpt lat="45.83745" lon="4.80544">
        <ele>437</ele>
        <time>2011-06-02T08:28:34Z</time>
      </trkpt>
      <trkpt lat="45.83744" lon="4.80544">
        <ele>436</ele>
        <time>2011-06-02T08:28:35Z</time>
      </trkpt>
      <trkpt lat="45.83741" lon="4.80544">
        <ele>435</ele>
        <time>2011-06-02T08:28:36Z</time>
      </trkpt>
      <trkpt lat="45.83739" lon="4.80544">
        <ele>434</ele>
        <time>2011-06-02T08:28:37Z</time>
      </trkpt>
      <trkpt lat="45.83736" lon="4.80544">
        <ele>433</ele>
        <time>2011-06-02T08:28:38Z</time>
      </trkpt>
      <trkpt lat="45.83733" lon="4.80543">
        <ele>432</ele>
        <time>2011-06-02T08:28:39Z</time>
      </trkpt>
      <trkpt lat="45.83731" lon="4.80543">
        <ele>431</ele>
        <time>2011-06-02T08:28:40Z</time>
      </trkpt>
      <trkpt lat="45.83728" lon="4.80543">
        <ele>430</ele>
        <time>2011-06-02T08:28:41Z</time>
      </trkpt>
      <trkpt lat="45.83725" lon="4.80543">
        <ele>429</ele>
        <time>2011-06-02T08:28:42Z</time>
      </trkpt>
      <trkpt lat="45.83722" lon="4.80543">
        <ele>428</ele>
        <time>2011-06-02T08:28:43Z</time>
      </trkpt>
      <trkpt lat="45.83718" lon="4.80542">
        <ele>428</ele>
        <time>2011-06-02T08:28:44Z</time>
      </trkpt>
      <trkpt lat="45.83714" lon="4.80542">
        <ele>428</ele>
        <time>2011-06-02T08:28:45Z</time>
      </trkpt>
      <trkpt lat="45.83711" lon="4.80542">
        <ele>428</ele>
        <time>2011-06-02T08:28:46Z</time>
      </trkpt>
      <trkpt lat="45.83707" lon="4.80539">
        <ele>428</ele>
        <time>2011-06-02T08:28:47Z</time>
      </trkpt>
      <trkpt lat="45.83704" lon="4.80537">
        <ele>428</ele>
        <time>2011-06-02T08:28:48Z</time>
      </trkpt>
      <trkpt lat="45.83703" lon="4.80534">
        <ele>428</ele>
        <time>2011-06-02T08:28:49Z</time>
      </trkpt>
      <trkpt lat="45.837" lon="4.80532">
        <ele>429</ele>
        <time>2011-06-02T08:28:51Z</time>
      </trkpt>
      <trkpt lat="45.83699" lon="4.80531">
        <ele>430</ele>
        <time>2011-06-02T08:28:52Z</time>
      </trkpt>
      <trkpt lat="45.83697" lon="4.80529">
        <ele>431</ele>
        <time>2011-06-02T08:28:53Z</time>
      </trkpt>
      <trkpt lat="45.83696" lon="4.80527">
        <ele>432</ele>
        <time>2011-06-02T08:28:54Z</time>
      </trkpt>
      <trkpt lat="45.83696" lon="4.80525">
        <ele>433</ele>
        <time>2011-06-02T08:28:55Z</time>
      </trkpt>
      <trkpt lat="45.83696" lon="4.80523">
        <ele>434</ele>
        <time>2011-06-02T08:28:56Z</time>
      </trkpt>
      <trkpt lat="45.83696" lon="4.8052">
        <ele>435</ele>
        <time>2011-06-02T08:28:57Z</time>
      </trkpt>
      <trkpt lat="45.83695" lon="4.80518">
        <ele>437</ele>
        <time>2011-06-02T08:28:58Z</time>
      </trkpt>
      <trkpt lat="45.83695" lon="4.80516">
        <ele>439</ele>
        <time>2011-06-02T08:28:59Z</time>
      </trkpt>
      <trkpt lat="45.83695" lon="4.80514">
        <ele>440</ele>
        <time>2011-06-02T08:29:00Z</time>
      </trkpt>
      <trkpt lat="45.83694" lon="4.80512">
        <ele>442</ele>
        <time>2011-06-02T08:29:01Z</time>
      </trkpt>
      <trkpt lat="45.83693" lon="4.80509">
        <ele>443</ele>
        <time>2011-06-02T08:29:02Z</time>
      </trkpt>
      <trkpt lat="45.83694" lon="4.80506">
        <ele>444</ele>
        <time>2011-06-02T08:29:03Z</time>
      </trkpt>
      <trkpt lat="45.83694" lon="4.80503">
        <ele>445</ele>
        <time>2011-06-02T08:29:04Z</time>
      </trkpt>
      <trkpt lat="45.83694" lon="4.80501">
        <ele>446</ele>
        <time>2011-06-02T08:29:05Z</time>
      </trkpt>
      <trkpt lat="45.83693" lon="4.80498">
        <ele>448</ele>
        <time>2011-06-02T08:29:07Z</time>
      </trkpt>
      <trkpt lat="45.83693" lon="4.80497">
        <ele>449</ele>
        <time>2011-06-02T08:29:08Z</time>
      </trkpt>
      <trkpt lat="45.83693" lon="4.80495">
        <ele>450</ele>
        <time>2011-06-02T08:29:09Z</time>
      </trkpt>
      <trkpt lat="45.83693" lon="4.80493">
        <ele>451</ele>
        <time>2011-06-02T08:29:10Z</time>
      </trkpt>
      <trkpt lat="45.83694" lon="4.80491">
        <ele>454</ele>
        <time>2011-06-02T08:29:13Z</time>
      </trkpt>
      <trkpt lat="45.83694" lon="4.80488">
        <ele>456</ele>
        <time>2011-06-02T08:29:15Z</time>
      </trkpt>
      <trkpt lat="45.83693" lon="4.80487">
        <ele>457</ele>
        <time>2011-06-02T08:29:16Z</time>
      </trkpt>
      <trkpt lat="45.83693" lon="4.80485">
        <ele>458</ele>
        <time>2011-06-02T08:29:18Z</time>
      </trkpt>
      <trkpt lat="45.83691" lon="4.80484">
        <ele>458</ele>
        <time>2011-06-02T08:29:19Z</time>
      </trkpt>
      <trkpt lat="45.83689" lon="4.80482">
        <ele>458</ele>
        <time>2011-06-02T08:29:20Z</time>
      </trkpt>
      <trkpt lat="45.83689" lon="4.80481">
        <ele>458</ele>
        <time>2011-06-02T08:29:22Z</time>
      </trkpt>
      <trkpt lat="45.83691" lon="4.80481">
        <ele>458</ele>
        <time>2011-06-02T08:29:24Z</time>
      </trkpt>
      <trkpt lat="45.83693" lon="4.80481">
        <ele>458</ele>
        <time>2011-06-02T08:29:26Z</time>
      </trkpt>
      <trkpt lat="45.83692" lon="4.80479">
        <ele>458</ele>
        <time>2011-06-02T08:29:28Z</time>
      </trkpt>
      <trkpt lat="45.83692" lon="4.80478">
        <ele>458</ele>
        <time>2011-06-02T08:29:30Z</time>
      </trkpt>
      <trkpt lat="45.83691" lon="4.80476">
        <ele>458</ele>
        <time>2011-06-02T08:29:32Z</time>
      </trkpt>
      <trkpt lat="45.83692" lon="4.80473">
        <ele>458</ele>
        <time>2011-06-02T08:29:34Z</time>
      </trkpt>
      <trkpt lat="45.83693" lon="4.80473">
        <ele>458</ele>
        <time>2011-06-02T08:29:36Z</time>
      </trkpt>
      <trkpt lat="45.83695" lon="4.8047">
        <ele>458</ele>
        <time>2011-06-02T08:29:39Z</time>
      </trkpt>
      <trkpt lat="45.83695" lon="4.80469">
        <ele>458</ele>
        <time>2011-06-02T08:29:41Z</time>
      </trkpt>
      <trkpt lat="45.83695" lon="4.80467">
        <ele>458</ele>
        <time>2011-06-02T08:29:43Z</time>
      </trkpt>
      <trkpt lat="45.83694" lon="4.80466">
        <ele>458</ele>
        <time>2011-06-02T08:29:48Z</time>
      </trkpt>
      <trkpt lat="45.83695" lon="4.80464">
        <ele>458</ele>
        <time>2011-06-02T08:29:50Z</time>
      </trkpt>
      <trkpt lat="45.83696" lon="4.80462">
        <ele>458</ele>
        <time>2011-06-02T08:29:51Z</time>
      </trkpt>
      <trkpt lat="45.83697" lon="4.8046">
        <ele>458</ele>
        <time>2011-06-02T08:29:53Z</time>
      </trkpt>
      <trkpt lat="45.83697" lon="4.80457">
        <ele>458</ele>
        <time>2011-06-02T08:29:55Z</time>
      </trkpt>
      <trkpt lat="45.83697" lon="4.80455">
        <ele>458</ele>
        <time>2011-06-02T08:29:58Z</time>
      </trkpt>
      <trkpt lat="45.83698" lon="4.80453">
        <ele>458</ele>
        <time>2011-06-02T08:30:00Z</time>
      </trkpt>
      <trkpt lat="45.83698" lon="4.80451">
        <ele>457</ele>
        <time>2011-06-02T08:30:01Z</time>
      </trkpt>
      <trkpt lat="45.83697" lon="4.80448">
        <ele>456</ele>
        <time>2011-06-02T08:30:03Z</time>
      </trkpt>
      <trkpt lat="45.83696" lon="4.80447">
        <ele>454</ele>
        <time>2011-06-02T08:30:05Z</time>
      </trkpt>
      <trkpt lat="45.83696" lon="4.80445">
        <ele>453</ele>
        <time>2011-06-02T08:30:07Z</time>
      </trkpt>
      <trkpt lat="45.83696" lon="4.80442">
        <ele>452</ele>
        <time>2011-06-02T08:30:09Z</time>
      </trkpt>
      <trkpt lat="45.83696" lon="4.8044">
        <ele>452</ele>
        <time>2011-06-02T08:30:11Z</time>
      </trkpt>
      <trkpt lat="45.83697" lon="4.80439">
        <ele>452</ele>
        <time>2011-06-02T08:30:12Z</time>
      </trkpt>
      <trkpt lat="45.83696" lon="4.80437">
        <ele>452</ele>
        <time>2011-06-02T08:30:13Z</time>
      </trkpt>
      <trkpt lat="45.83697" lon="4.80435">
        <ele>452</ele>
        <time>2011-06-02T08:30:15Z</time>
      </trkpt>
      <trkpt lat="45.83697" lon="4.80433">
        <ele>452</ele>
        <time>2011-06-02T08:30:17Z</time>
      </trkpt>
      <trkpt lat="45.83696" lon="4.8043">
        <ele>452</ele>
        <time>2011-06-02T08:30:20Z</time>
      </trkpt>
      <trkpt lat="45.83696" lon="4.80428">
        <ele>452</ele>
        <time>2011-06-02T08:30:22Z</time>
      </trkpt>
      <trkpt lat="45.83695" lon="4.80425">
        <ele>452</ele>
        <time>2011-06-02T08:30:24Z</time>
      </trkpt>
      <trkpt lat="45.83695" lon="4.80423">
        <ele>452</ele>
        <time>2011-06-02T08:30:26Z</time>
      </trkpt>
      <trkpt lat="45.83694" lon="4.80421">
        <ele>452</ele>
        <time>2011-06-02T08:30:28Z</time>
      </trkpt>
      <trkpt lat="45.83694" lon="4.80418">
        <ele>452</ele>
        <time>2011-06-02T08:30:30Z</time>
      </trkpt>
      <trkpt lat="45.83694" lon="4.80417">
        <ele>452</ele>
        <time>2011-06-02T08:30:31Z</time>
      </trkpt>
      <trkpt lat="45.83694" lon="4.80415">
        <ele>452</ele>
        <time>2011-06-02T08:30:32Z</time>
      </trkpt>
      <trkpt lat="45.83694" lon="4.80413">
        <ele>452</ele>
        <time>2011-06-02T08:30:34Z</time>
      </trkpt>
      <trkpt lat="45.83695" lon="4.80411">
        <ele>452</ele>
        <time>2011-06-02T08:30:36Z</time>
      </trkpt>
      <trkpt lat="45.83696" lon="4.8041">
        <ele>452</ele>
        <time>2011-06-02T08:30:37Z</time>
      </trkpt>
      <trkpt lat="45.83699" lon="4.80408">
        <ele>452</ele>
        <time>2011-06-02T08:30:39Z</time>
      </trkpt>
      <trkpt lat="45.83698" lon="4.80407">
        <ele>452</ele>
        <time>2011-06-02T08:30:41Z</time>
      </trkpt>
      <trkpt lat="45.83697" lon="4.80405">
        <ele>452</ele>
        <time>2011-06-02T08:30:43Z</time>
      </trkpt>
      <trkpt lat="45.83694" lon="4.80403">
        <ele>452</ele>
        <time>2011-06-02T08:30:45Z</time>
      </trkpt>
      <trkpt lat="45.83693" lon="4.80401">
        <ele>452</ele>
        <time>2011-06-02T08:30:46Z</time>
      </trkpt>
      <trkpt lat="45.83692" lon="4.80399">
        <ele>452</ele>
        <time>2011-06-02T08:30:48Z</time>
      </trkpt>
      <trkpt lat="45.83692" lon="4.80397">
        <ele>452</ele>
        <time>2011-06-02T08:30:50Z</time>
      </trkpt>
      <trkpt lat="45.83693" lon="4.80395">
        <ele>453</ele>
        <time>2011-06-02T08:30:52Z</time>
      </trkpt>
      <trkpt lat="45.83693" lon="4.80393">
        <ele>453</ele>
        <time>2011-06-02T08:30:53Z</time>
      </trkpt>
      <trkpt lat="45.83691" lon="4.80391">
        <ele>454</ele>
        <time>2011-06-02T08:30:56Z</time>
      </trkpt>
      <trkpt lat="45.8369" lon="4.80389">
        <ele>454</ele>
        <time>2011-06-02T08:30:58Z</time>
      </trkpt>
      <trkpt lat="45.83691" lon="4.80387">
        <ele>454</ele>
        <time>2011-06-02T08:31:00Z</time>
      </trkpt>
      <trkpt lat="45.83691" lon="4.80385">
        <ele>454</ele>
        <time>2011-06-02T08:31:02Z</time>
      </trkpt>
      <trkpt lat="45.83689" lon="4.80384">
        <ele>454</ele>
        <time>2011-06-02T08:31:05Z</time>
      </trkpt>
      <trkpt lat="45.83688" lon="4.80384">
        <ele>454</ele>
        <time>2011-06-02T08:31:07Z</time>
      </trkpt>
      <trkpt lat="45.83686" lon="4.80384">
        <ele>454</ele>
        <time>2011-06-02T08:31:10Z</time>
      </trkpt>
      <trkpt lat="45.83684" lon="4.80384">
        <ele>454</ele>
        <time>2011-06-02T08:31:12Z</time>
      </trkpt>
      <trkpt lat="45.83683" lon="4.80384">
        <ele>454</ele>
        <time>2011-06-02T08:31:15Z</time>
      </trkpt>
      <trkpt lat="45.83681" lon="4.80384">
        <ele>454</ele>
        <time>2011-06-02T08:31:16Z</time>
      </trkpt>
      <trkpt lat="45.8368" lon="4.80384">
        <ele>454</ele>
        <time>2011-06-02T08:31:18Z</time>
      </trkpt>
      <trkpt lat="45.83679" lon="4.80383">
        <ele>454</ele>
        <time>2011-06-02T08:31:19Z</time>
      </trkpt>
      <trkpt lat="45.83677" lon="4.80383">
        <ele>454</ele>
        <time>2011-06-02T08:31:21Z</time>
      </trkpt>
      <trkpt lat="45.83676" lon="4.80385">
        <ele>454</ele>
        <time>2011-06-02T08:31:28Z</time>
      </trkpt>
      <trkpt lat="45.83675" lon="4.80385">
        <ele>454</ele>
        <time>2011-06-02T08:31:30Z</time>
      </trkpt>
      <trkpt lat="45.83674" lon="4.80386">
        <ele>454</ele>
        <time>2011-06-02T08:31:34Z</time>
      </trkpt>
      <trkpt lat="45.83673" lon="4.80387">
        <ele>454</ele>
        <time>2011-06-02T08:31:36Z</time>
      </trkpt>
      <trkpt lat="45.83671" lon="4.80389">
        <ele>454</ele>
        <time>2011-06-02T08:31:38Z</time>
      </trkpt>
      <trkpt lat="45.83669" lon="4.8039">
        <ele>454</ele>
        <time>2011-06-02T08:31:40Z</time>
      </trkpt>
      <trkpt lat="45.83668" lon="4.80392">
        <ele>454</ele>
        <time>2011-06-02T08:31:44Z</time>
      </trkpt>
      <trkpt lat="45.83668" lon="4.80393">
        <ele>454</ele>
        <time>2011-06-02T08:31:47Z</time>
      </trkpt>
      <trkpt lat="45.83669" lon="4.80394">
        <ele>454</ele>
        <time>2011-06-02T08:31:50Z</time>
      </trkpt>
      <trkpt lat="45.83669" lon="4.80393">
        <ele>454</ele>
        <time>2011-06-02T08:31:55Z</time>
      </trkpt>
      <trkpt lat="45.83668" lon="4.80393">
        <ele>454</ele>
        <time>2011-06-02T08:32:01Z</time>
      </trkpt>
      <trkpt lat="45.8367" lon="4.80391">
        <ele>455</ele>
        <time>2011-06-02T08:32:06Z</time>
      </trkpt>
      <trkpt lat="45.83671" lon="4.80391">
        <ele>457</ele>
        <time>2011-06-02T08:32:08Z</time>
      </trkpt>
      <trkpt lat="45.83672" lon="4.8039">
        <ele>458</ele>
        <time>2011-06-02T08:32:12Z</time>
      </trkpt>
      <trkpt lat="45.83671" lon="4.80388">
        <ele>458</ele>
        <time>2011-06-02T08:32:21Z</time>
      </trkpt>
      <trkpt lat="45.8367" lon="4.80388">
        <ele>458</ele>
        <time>2011-06-02T08:32:24Z</time>
      </trkpt>
      <trkpt lat="45.83669" lon="4.8039">
        <ele>458</ele>
        <time>2011-06-02T08:32:29Z</time>
      </trkpt>
      <trkpt lat="45.83668" lon="4.80389">
        <ele>458</ele>
        <time>2011-06-02T08:32:34Z</time>
      </trkpt>
      <trkpt lat="45.83667" lon="4.80388">
        <ele>458</ele>
        <time>2011-06-02T08:32:35Z</time>
      </trkpt>
      <trkpt lat="45.83665" lon="4.80389">
        <ele>458</ele>
        <time>2011-06-02T08:32:38Z</time>
      </trkpt>
      <trkpt lat="45.83664" lon="4.80391">
        <ele>458</ele>
        <time>2011-06-02T08:32:40Z</time>
      </trkpt>
      <trkpt lat="45.83663" lon="4.80393">
        <ele>458</ele>
        <time>2011-06-02T08:32:41Z</time>
      </trkpt>
      <trkpt lat="45.83661" lon="4.80395">
        <ele>458</ele>
        <time>2011-06-02T08:32:43Z</time>
      </trkpt>
      <trkpt lat="45.83659" lon="4.80395">
        <ele>458</ele>
        <time>2011-06-02T08:32:45Z</time>
      </trkpt>
      <trkpt lat="45.83657" lon="4.80396">
        <ele>458</ele>
        <time>2011-06-02T08:32:46Z</time>
      </trkpt>
      <trkpt lat="45.83656" lon="4.80399">
        <ele>459</ele>
        <time>2011-06-02T08:32:48Z</time>
      </trkpt>
      <trkpt lat="45.83655" lon="4.80401">
        <ele>460</ele>
        <time>2011-06-02T08:32:50Z</time>
      </trkpt>
      <trkpt lat="45.83654" lon="4.80402">
        <ele>460</ele>
        <time>2011-06-02T08:32:52Z</time>
      </trkpt>
      <trkpt lat="45.83655" lon="4.80404">
        <ele>460</ele>
        <time>2011-06-02T08:32:56Z</time>
      </trkpt>
      <trkpt lat="45.83653" lon="4.80403">
        <ele>460</ele>
        <time>2011-06-02T08:33:01Z</time>
      </trkpt>
      <trkpt lat="45.83652" lon="4.80403">
        <ele>460</ele>
        <time>2011-06-02T08:33:02Z</time>
      </trkpt>
      <trkpt lat="45.83651" lon="4.80403">
        <ele>460</ele>
        <time>2011-06-02T08:33:04Z</time>
      </trkpt>
      <trkpt lat="45.83649" lon="4.80404">
        <ele>460</ele>
        <time>2011-06-02T08:33:07Z</time>
      </trkpt>
      <trkpt lat="45.83648" lon="4.80404">
        <ele>460</ele>
        <time>2011-06-02T08:33:09Z</time>
      </trkpt>
      <trkpt lat="45.83646" lon="4.80402">
        <ele>462</ele>
        <time>2011-06-02T08:33:12Z</time>
      </trkpt>
      <trkpt lat="45.83646" lon="4.80404">
        <ele>465</ele>
        <time>2011-06-02T08:33:16Z</time>
      </trkpt>
      <trkpt lat="45.83644" lon="4.80402">
        <ele>465</ele>
        <time>2011-06-02T08:33:19Z</time>
      </trkpt>
      <trkpt lat="45.83645" lon="4.804">
        <ele>465</ele>
        <time>2011-06-02T08:33:20Z</time>
      </trkpt>
      <trkpt lat="45.83644" lon="4.80398">
        <ele>465</ele>
        <time>2011-06-02T08:33:22Z</time>
      </trkpt>
      <trkpt lat="45.83644" lon="4.80396">
        <ele>465</ele>
        <time>2011-06-02T08:33:24Z</time>
      </trkpt>
      <trkpt lat="45.83643" lon="4.80394">
        <ele>465</ele>
        <time>2011-06-02T08:33:31Z</time>
      </trkpt>
      <trkpt lat="45.83642" lon="4.80392">
        <ele>465</ele>
        <time>2011-06-02T08:33:33Z</time>
      </trkpt>
      <trkpt lat="45.83642" lon="4.80391">
        <ele>465</ele>
        <time>2011-06-02T08:33:35Z</time>
      </trkpt>
      <trkpt lat="45.83641" lon="4.80389">
        <ele>465</ele>
        <time>2011-06-02T08:33:36Z</time>
      </trkpt>
      <trkpt lat="45.83639" lon="4.80388">
        <ele>465</ele>
        <time>2011-06-02T08:33:37Z</time>
      </trkpt>
      <trkpt lat="45.83637" lon="4.80388">
        <ele>465</ele>
        <time>2011-06-02T08:33:38Z</time>
      </trkpt>
      <trkpt lat="45.83635" lon="4.80386">
        <ele>465</ele>
        <time>2011-06-02T08:33:39Z</time>
      </trkpt>
      <trkpt lat="45.83634" lon="4.80384">
        <ele>466</ele>
        <time>2011-06-02T08:33:40Z</time>
      </trkpt>
      <trkpt lat="45.83632" lon="4.80382">
        <ele>467</ele>
        <time>2011-06-02T08:33:42Z</time>
      </trkpt>
      <trkpt lat="45.83631" lon="4.80381">
        <ele>468</ele>
        <time>2011-06-02T08:33:43Z</time>
      </trkpt>
      <trkpt lat="45.83629" lon="4.80379">
        <ele>468</ele>
        <time>2011-06-02T08:33:45Z</time>
      </trkpt>
      <trkpt lat="45.83627" lon="4.80378">
        <ele>468</ele>
        <time>2011-06-02T08:33:46Z</time>
      </trkpt>
      <trkpt lat="45.83626" lon="4.80377">
        <ele>468</ele>
        <time>2011-06-02T08:33:47Z</time>
      </trkpt>
      <trkpt lat="45.83625" lon="4.80375">
        <ele>468</ele>
        <time>2011-06-02T08:33:48Z</time>
      </trkpt>
      <trkpt lat="45.83623" lon="4.80374">
        <ele>468</ele>
        <time>2011-06-02T08:33:50Z</time>
      </trkpt>
      <trkpt lat="45.83621" lon="4.80372">
        <ele>468</ele>
        <time>2011-06-02T08:33:53Z</time>
      </trkpt>
      <trkpt lat="45.8362" lon="4.8037">
        <ele>468</ele>
        <time>2011-06-02T08:33:55Z</time>
      </trkpt>
      <trkpt lat="45.83619" lon="4.80369">
        <ele>468</ele>
        <time>2011-06-02T08:33:58Z</time>
      </trkpt>
      <trkpt lat="45.83617" lon="4.80369">
        <ele>468</ele>
        <time>2011-06-02T08:34:00Z</time>
      </trkpt>
      <trkpt lat="45.83615" lon="4.80368">
        <ele>468</ele>
        <time>2011-06-02T08:34:02Z</time>
      </trkpt>
      <trkpt lat="45.83614" lon="4.80367">
        <ele>468</ele>
        <time>2011-06-02T08:34:04Z</time>
      </trkpt>
      <trkpt lat="45.83612" lon="4.80369">
        <ele>468</ele>
        <time>2011-06-02T08:34:06Z</time>
      </trkpt>
      <trkpt lat="45.83611" lon="4.80372">
        <ele>468</ele>
        <time>2011-06-02T08:34:07Z</time>
      </trkpt>
      <trkpt lat="45.83611" lon="4.80374">
        <ele>468</ele>
        <time>2011-06-02T08:34:08Z</time>
      </trkpt>
      <trkpt lat="45.83609" lon="4.80376">
        <ele>468</ele>
        <time>2011-06-02T08:34:09Z</time>
      </trkpt>
      <trkpt lat="45.83608" lon="4.80378">
        <ele>468</ele>
        <time>2011-06-02T08:34:10Z</time>
      </trkpt>
      <trkpt lat="45.83607" lon="4.8038">
        <ele>468</ele>
        <time>2011-06-02T08:34:11Z</time>
      </trkpt>
      <trkpt lat="45.83605" lon="4.80381">
        <ele>468</ele>
        <time>2011-06-02T08:34:12Z</time>
      </trkpt>
      <trkpt lat="45.83604" lon="4.80381">
        <ele>468</ele>
        <time>2011-06-02T08:34:13Z</time>
      </trkpt>
      <trkpt lat="45.83602" lon="4.80382">
        <ele>468</ele>
        <time>2011-06-02T08:34:16Z</time>
      </trkpt>
      <trkpt lat="45.83601" lon="4.80382">
        <ele>467</ele>
        <time>2011-06-02T08:34:19Z</time>
      </trkpt>
      <trkpt lat="45.836" lon="4.80383">
        <ele>466</ele>
        <time>2011-06-02T08:34:20Z</time>
      </trkpt>
      <trkpt lat="45.83598" lon="4.80384">
        <ele>465</ele>
        <time>2011-06-02T08:34:22Z</time>
      </trkpt>
      <trkpt lat="45.83597" lon="4.80386">
        <ele>465</ele>
        <time>2011-06-02T08:34:25Z</time>
      </trkpt>
      <trkpt lat="45.83596" lon="4.80386">
        <ele>465</ele>
        <time>2011-06-02T08:34:29Z</time>
      </trkpt>
      <trkpt lat="45.83595" lon="4.80385">
        <ele>465</ele>
        <time>2011-06-02T08:34:36Z</time>
      </trkpt>
      <trkpt lat="45.83593" lon="4.80384">
        <ele>465</ele>
        <time>2011-06-02T08:34:37Z</time>
      </trkpt>
      <trkpt lat="45.83593" lon="4.80382">
        <ele>465</ele>
        <time>2011-06-02T08:34:40Z</time>
      </trkpt>
      <trkpt lat="45.83595" lon="4.8038">
        <ele>465</ele>
        <time>2011-06-02T08:34:43Z</time>
      </trkpt>
      <trkpt lat="45.83595" lon="4.80379">
        <ele>465</ele>
        <time>2011-06-02T08:34:46Z</time>
      </trkpt>
      <trkpt lat="45.83596" lon="4.80377">
        <ele>465</ele>
        <time>2011-06-02T08:34:49Z</time>
      </trkpt>
      <trkpt lat="45.83594" lon="4.80376">
        <ele>465</ele>
        <time>2011-06-02T08:34:51Z</time>
      </trkpt>
      <trkpt lat="45.83596" lon="4.80377">
        <ele>465</ele>
        <time>2011-06-02T08:34:53Z</time>
      </trkpt>
      <trkpt lat="45.83594" lon="4.80376">
        <ele>466</ele>
        <time>2011-06-02T08:34:58Z</time>
      </trkpt>
      <trkpt lat="45.83593" lon="4.80375">
        <ele>467</ele>
        <time>2011-06-02T08:35:02Z</time>
      </trkpt>
      <trkpt lat="45.83592" lon="4.80375">
        <ele>472</ele>
        <time>2011-06-02T08:35:09Z</time>
      </trkpt>
      <trkpt lat="45.83591" lon="4.80376">
        <ele>473</ele>
        <time>2011-06-02T08:35:10Z</time>
      </trkpt>
      <trkpt lat="45.83592" lon="4.80377">
        <ele>477</ele>
        <time>2011-06-02T08:35:14Z</time>
      </trkpt>
      <trkpt lat="45.83593" lon="4.80376">
        <ele>477</ele>
        <time>2011-06-02T08:35:16Z</time>
      </trkpt>
      <trkpt lat="45.83595" lon="4.80377">
        <ele>477</ele>
        <time>2011-06-02T08:35:21Z</time>
      </trkpt>
      <trkpt lat="45.83596" lon="4.80379">
        <ele>477</ele>
        <time>2011-06-02T08:35:24Z</time>
      </trkpt>
      <trkpt lat="45.83597" lon="4.8038">
        <ele>477</ele>
        <time>2011-06-02T08:35:27Z</time>
      </trkpt>
      <trkpt lat="45.83598" lon="4.80382">
        <ele>477</ele>
        <time>2011-06-02T08:35:30Z</time>
      </trkpt>
      <trkpt lat="45.83599" lon="4.80382">
        <ele>477</ele>
        <time>2011-06-02T08:35:44Z</time>
      </trkpt>
      <trkpt lat="45.83601" lon="4.80382">
        <ele>477</ele>
        <time>2011-06-02T08:35:47Z</time>
      </trkpt>
      <trkpt lat="45.83602" lon="4.80381">
        <ele>477</ele>
        <time>2011-06-02T08:35:49Z</time>
      </trkpt>
      <trkpt lat="45.83603" lon="4.8038">
        <ele>477</ele>
        <time>2011-06-02T08:35:52Z</time>
      </trkpt>
      <trkpt lat="45.83604" lon="4.80378">
        <ele>477</ele>
        <time>2011-06-02T08:35:57Z</time>
      </trkpt>
      <trkpt lat="45.83605" lon="4.80377">
        <ele>476</ele>
        <time>2011-06-02T08:36:04Z</time>
      </trkpt>
      <trkpt lat="45.83604" lon="4.80376">
        <ele>476</ele>
        <time>2011-06-02T08:36:15Z</time>
      </trkpt>
      <trkpt lat="45.83603" lon="4.80376">
        <ele>476</ele>
        <time>2011-06-02T08:36:18Z</time>
      </trkpt>
      <trkpt lat="45.83601" lon="4.80375">
        <ele>476</ele>
        <time>2011-06-02T08:36:21Z</time>
      </trkpt>
      <trkpt lat="45.83599" lon="4.80374">
        <ele>478</ele>
        <time>2011-06-02T08:36:24Z</time>
      </trkpt>
      <trkpt lat="45.83598" lon="4.80375">
        <ele>480</ele>
        <time>2011-06-02T08:36:26Z</time>
      </trkpt>
      <trkpt lat="45.83596" lon="4.80375">
        <ele>483</ele>
        <time>2011-06-02T08:36:29Z</time>
      </trkpt>
      <trkpt lat="45.83595" lon="4.80376">
        <ele>485</ele>
        <time>2011-06-02T08:36:31Z</time>
      </trkpt>
      <trkpt lat="45.83593" lon="4.80376">
        <ele>488</ele>
        <time>2011-06-02T08:36:34Z</time>
      </trkpt>
      <trkpt lat="45.83595" lon="4.80377">
        <ele>490</ele>
        <time>2011-06-02T08:36:38Z</time>
      </trkpt>
      <trkpt lat="45.83596" lon="4.80377">
        <ele>493</ele>
        <time>2011-06-02T08:36:47Z</time>
      </trkpt>
      <trkpt lat="45.83598" lon="4.80377">
        <ele>493</ele>
        <time>2011-06-02T08:36:51Z</time>
      </trkpt>
      <trkpt lat="45.83599" lon="4.80377">
        <ele>493</ele>
        <time>2011-06-02T08:36:53Z</time>
      </trkpt>
      <trkpt lat="45.83601" lon="4.80377">
        <ele>493</ele>
        <time>2011-06-02T08:36:55Z</time>
      </trkpt>
      <trkpt lat="45.83601" lon="4.80375">
        <ele>493</ele>
        <time>2011-06-02T08:36:59Z</time>
      </trkpt>
      <trkpt lat="45.83599" lon="4.80374">
        <ele>493</ele>
        <time>2011-06-02T08:37:02Z</time>
      </trkpt>
      <trkpt lat="45.83598" lon="4.80373">
        <ele>493</ele>
        <time>2011-06-02T08:37:05Z</time>
      </trkpt>
      <trkpt lat="45.83599" lon="4.80373">
        <ele>495</ele>
        <time>2011-06-02T08:37:16Z</time>
      </trkpt>
      <trkpt lat="45.83601" lon="4.80373">
        <ele>495</ele>
        <time>2011-06-02T08:37:19Z</time>
      </trkpt>
      <trkpt lat="45.83603" lon="4.80373">
        <ele>494</ele>
        <time>2011-06-02T08:37:22Z</time>
      </trkpt>
      <trkpt lat="45.83601" lon="4.80373">
        <ele>491</ele>
        <time>2011-06-02T08:37:28Z</time>
      </trkpt>
      <trkpt lat="45.83603" lon="4.80373">
        <ele>489</ele>
        <time>2011-06-02T08:37:31Z</time>
      </trkpt>
      <trkpt lat="45.83605" lon="4.80373">
        <ele>488</ele>
        <time>2011-06-02T08:37:40Z</time>
      </trkpt>
      <trkpt lat="45.83606" lon="4.80374">
        <ele>488</ele>
        <time>2011-06-02T08:37:42Z</time>
      </trkpt>
      <trkpt lat="45.83607" lon="4.80373">
        <ele>488</ele>
        <time>2011-06-02T08:37:44Z</time>
      </trkpt>
      <trkpt lat="45.83609" lon="4.80373">
        <ele>488</ele>
        <time>2011-06-02T08:37:46Z</time>
      </trkpt>
      <trkpt lat="45.8361" lon="4.80373">
        <ele>488</ele>
        <time>2011-06-02T08:37:52Z</time>
      </trkpt>
      <trkpt lat="45.83609" lon="4.80374">
        <ele>488</ele>
        <time>2011-06-02T08:37:53Z</time>
      </trkpt>
      <trkpt lat="45.83611" lon="4.80373">
        <ele>488</ele>
        <time>2011-06-02T08:37:57Z</time>
      </trkpt>
      <trkpt lat="45.83613" lon="4.80373">
        <ele>487</ele>
        <time>2011-06-02T08:37:59Z</time>
      </trkpt>
      <trkpt lat="45.83615" lon="4.80373">
        <ele>484</ele>
        <time>2011-06-02T08:38:02Z</time>
      </trkpt>
      <trkpt lat="45.83613" lon="4.80373">
        <ele>482</ele>
        <time>2011-06-02T08:38:08Z</time>
      </trkpt>
      <trkpt lat="45.83612" lon="4.80374">
        <ele>482</ele>
        <time>2011-06-02T08:38:10Z</time>
      </trkpt>
      <trkpt lat="45.8361" lon="4.80373">
        <ele>482</ele>
        <time>2011-06-02T08:38:12Z</time>
      </trkpt>
      <trkpt lat="45.83609" lon="4.80373">
        <ele>482</ele>
        <time>2011-06-02T08:38:14Z</time>
      </trkpt>
      <trkpt lat="45.83608" lon="4.80374">
        <ele>481</ele>
        <time>2011-06-02T08:38:15Z</time>
      </trkpt>
      <trkpt lat="45.83606" lon="4.80376">
        <ele>480</ele>
        <time>2011-06-02T08:38:18Z</time>
      </trkpt>
      <trkpt lat="45.83604" lon="4.80377">
        <ele>479</ele>
        <time>2011-06-02T08:38:20Z</time>
      </trkpt>
      <trkpt lat="45.83606" lon="4.80377">
        <ele>478</ele>
        <time>2011-06-02T08:38:22Z</time>
      </trkpt>
      <trkpt lat="45.83607" lon="4.80378">
        <ele>477</ele>
        <time>2011-06-02T08:38:25Z</time>
      </trkpt>
      <trkpt lat="45.83606" lon="4.80379">
        <ele>476</ele>
        <time>2011-06-02T08:38:29Z</time>
      </trkpt>
      <trkpt lat="45.83605" lon="4.80379">
        <ele>476</ele>
        <time>2011-06-02T08:38:31Z</time>
      </trkpt>
      <trkpt lat="45.83604" lon="4.80378">
        <ele>476</ele>
        <time>2011-06-02T08:38:39Z</time>
      </trkpt>
      <trkpt lat="45.83605" lon="4.80378">
        <ele>476</ele>
        <time>2011-06-02T08:38:41Z</time>
      </trkpt>
      <trkpt lat="45.83606" lon="4.80378">
        <ele>476</ele>
        <time>2011-06-02T08:38:44Z</time>
      </trkpt>
      <trkpt lat="45.83605" lon="4.80378">
        <ele>476</ele>
        <time>2011-06-02T08:38:47Z</time>
      </trkpt>
      <trkpt lat="45.83604" lon="4.80377">
        <ele>476</ele>
        <time>2011-06-02T08:38:52Z</time>
      </trkpt>
      <trkpt lat="45.83603" lon="4.80377">
        <ele>475</ele>
        <time>2011-06-02T08:38:56Z</time>
      </trkpt>
      <trkpt lat="45.83601" lon="4.80377">
        <ele>474</ele>
        <time>2011-06-02T08:38:59Z</time>
      </trkpt>
      <trkpt lat="45.83599" lon="4.80378">
        <ele>470</ele>
        <time>2011-06-02T08:39:04Z</time>
      </trkpt>
      <trkpt lat="45.83598" lon="4.80379">
        <ele>469</ele>
        <time>2011-06-02T08:39:05Z</time>
      </trkpt>
      <trkpt lat="45.83597" lon="4.8038">
        <ele>469</ele>
        <time>2011-06-02T08:39:06Z</time>
      </trkpt>
      <trkpt lat="45.83595" lon="4.80379">
        <ele>469</ele>
        <time>2011-06-02T08:39:08Z</time>
      </trkpt>
      <trkpt lat="45.83593" lon="4.80378">
        <ele>469</ele>
        <time>2011-06-02T08:39:10Z</time>
      </trkpt>
      <trkpt lat="45.83594" lon="4.80381">
        <ele>469</ele>
        <time>2011-06-02T08:39:13Z</time>
      </trkpt>
      <trkpt lat="45.83595" lon="4.80383">
        <ele>469</ele>
        <time>2011-06-02T08:39:14Z</time>
      </trkpt>
      <trkpt lat="45.83595" lon="4.80385">
        <ele>469</ele>
        <time>2011-06-02T08:39:15Z</time>
      </trkpt>
      <trkpt lat="45.83596" lon="4.80387">
        <ele>469</ele>
        <time>2011-06-02T08:39:16Z</time>
      </trkpt>
      <trkpt lat="45.83596" lon="4.80389">
        <ele>469</ele>
        <time>2011-06-02T08:39:17Z</time>
      </trkpt>
      <trkpt lat="45.83598" lon="4.80392">
        <ele>469</ele>
        <time>2011-06-02T08:39:19Z</time>
      </trkpt>
      <trkpt lat="45.83598" lon="4.80395">
        <ele>469</ele>
        <time>2011-06-02T08:39:20Z</time>
      </trkpt>
      <trkpt lat="45.83599" lon="4.80397">
        <ele>469</ele>
        <time>2011-06-02T08:39:21Z</time>
      </trkpt>
      <trkpt lat="45.836" lon="4.80399">
        <ele>469</ele>
        <time>2011-06-02T08:39:22Z</time>
      </trkpt>
      <trkpt lat="45.83601" lon="4.80402">
        <ele>469</ele>
        <time>2011-06-02T08:39:23Z</time>
      </trkpt>
      <trkpt lat="45.83602" lon="4.80404">
        <ele>468</ele>
        <time>2011-06-02T08:39:24Z</time>
      </trkpt>
      <trkpt lat="45.83603" lon="4.80406">
        <ele>468</ele>
        <time>2011-06-02T08:39:25Z</time>
      </trkpt>
      <trkpt lat="45.83603" lon="4.80407">
        <ele>467</ele>
        <time>2011-06-02T08:39:26Z</time>
      </trkpt>
      <trkpt lat="45.83604" lon="4.80409">
        <ele>467</ele>
        <time>2011-06-02T08:39:27Z</time>
      </trkpt>
      <trkpt lat="45.83605" lon="4.80413">
        <ele>466</ele>
        <time>2011-06-02T08:39:29Z</time>
      </trkpt>
      <trkpt lat="45.83606" lon="4.80414">
        <ele>466</ele>
        <time>2011-06-02T08:39:30Z</time>
      </trkpt>
      <trkpt lat="45.83608" lon="4.80416">
        <ele>466</ele>
        <time>2011-06-02T08:39:31Z</time>
      </trkpt>
      <trkpt lat="45.83609" lon="4.80416">
        <ele>466</ele>
        <time>2011-06-02T08:39:32Z</time>
      </trkpt>
      <trkpt lat="45.83611" lon="4.80416">
        <ele>466</ele>
        <time>2011-06-02T08:39:33Z</time>
      </trkpt>
      <trkpt lat="45.83612" lon="4.80416">
        <ele>466</ele>
        <time>2011-06-02T08:39:34Z</time>
      </trkpt>
      <trkpt lat="45.83613" lon="4.80417">
        <ele>466</ele>
        <time>2011-06-02T08:39:36Z</time>
      </trkpt>
      <trkpt lat="45.83615" lon="4.80416">
        <ele>466</ele>
        <time>2011-06-02T08:39:38Z</time>
      </trkpt>
      <trkpt lat="45.83617" lon="4.80416">
        <ele>466</ele>
        <time>2011-06-02T08:39:40Z</time>
      </trkpt>
      <trkpt lat="45.83619" lon="4.80416">
        <ele>466</ele>
        <time>2011-06-02T08:39:42Z</time>
      </trkpt>
      <trkpt lat="45.8362" lon="4.80416">
        <ele>466</ele>
        <time>2011-06-02T08:39:43Z</time>
      </trkpt>
      <trkpt lat="45.83623" lon="4.80415">
        <ele>466</ele>
        <time>2011-06-02T08:39:45Z</time>
      </trkpt>
      <trkpt lat="45.83625" lon="4.80414">
        <ele>465</ele>
        <time>2011-06-02T08:39:46Z</time>
      </trkpt>
      <trkpt lat="45.83627" lon="4.80412">
        <ele>463</ele>
        <time>2011-06-02T08:39:48Z</time>
      </trkpt>
      <trkpt lat="45.83629" lon="4.80411">
        <ele>463</ele>
        <time>2011-06-02T08:39:50Z</time>
      </trkpt>
      <trkpt lat="45.8363" lon="4.8041">
        <ele>463</ele>
        <time>2011-06-02T08:39:51Z</time>
      </trkpt>
      <trkpt lat="45.83632" lon="4.80409">
        <ele>463</ele>
        <time>2011-06-02T08:39:52Z</time>
      </trkpt>
      <trkpt lat="45.83633" lon="4.80408">
        <ele>462</ele>
        <time>2011-06-02T08:39:53Z</time>
      </trkpt>
      <trkpt lat="45.83635" lon="4.80408">
        <ele>461</ele>
        <time>2011-06-02T08:39:54Z</time>
      </trkpt>
      <trkpt lat="45.83637" lon="4.80407">
        <ele>461</ele>
        <time>2011-06-02T08:39:55Z</time>
      </trkpt>
      <trkpt lat="45.83638" lon="4.80407">
        <ele>460</ele>
        <time>2011-06-02T08:39:56Z</time>
      </trkpt>
      <trkpt lat="45.8364" lon="4.80404">
        <ele>458</ele>
        <time>2011-06-02T08:39:58Z</time>
      </trkpt>
      <trkpt lat="45.83641" lon="4.80402">
        <ele>458</ele>
        <time>2011-06-02T08:39:59Z</time>
      </trkpt>
      <trkpt lat="45.83644" lon="4.804">
        <ele>457</ele>
        <time>2011-06-02T08:40:01Z</time>
      </trkpt>
      <trkpt lat="45.83644" lon="4.80397">
        <ele>456</ele>
        <time>2011-06-02T08:40:02Z</time>
      </trkpt>
      <trkpt lat="45.83646" lon="4.80394">
        <ele>456</ele>
        <time>2011-06-02T08:40:03Z</time>
      </trkpt>
      <trkpt lat="45.83647" lon="4.80391">
        <ele>456</ele>
        <time>2011-06-02T08:40:04Z</time>
      </trkpt>
      <trkpt lat="45.8365" lon="4.80388">
        <ele>456</ele>
        <time>2011-06-02T08:40:05Z</time>
      </trkpt>
      <trkpt lat="45.83654" lon="4.80386">
        <ele>456</ele>
        <time>2011-06-02T08:40:06Z</time>
      </trkpt>
      <trkpt lat="45.83657" lon="4.80383">
        <ele>456</ele>
        <time>2011-06-02T08:40:07Z</time>
      </trkpt>
      <trkpt lat="45.83659" lon="4.80381">
        <ele>455</ele>
        <time>2011-06-02T08:40:08Z</time>
      </trkpt>
      <trkpt lat="45.83661" lon="4.8038">
        <ele>455</ele>
        <time>2011-06-02T08:40:09Z</time>
      </trkpt>
      <trkpt lat="45.83664" lon="4.80379">
        <ele>455</ele>
        <time>2011-06-02T08:40:10Z</time>
      </trkpt>
      <trkpt lat="45.83666" lon="4.80379">
        <ele>455</ele>
        <time>2011-06-02T08:40:11Z</time>
      </trkpt>
      <trkpt lat="45.83667" lon="4.80378">
        <ele>455</ele>
        <time>2011-06-02T08:40:12Z</time>
      </trkpt>
      <trkpt lat="45.8367" lon="4.80377">
        <ele>455</ele>
        <time>2011-06-02T08:40:13Z</time>
      </trkpt>
      <trkpt lat="45.83672" lon="4.80377">
        <ele>455</ele>
        <time>2011-06-02T08:40:14Z</time>
      </trkpt>
      <trkpt lat="45.83675" lon="4.80378">
        <ele>455</ele>
        <time>2011-06-02T08:40:16Z</time>
      </trkpt>
      <trkpt lat="45.83677" lon="4.80378">
        <ele>455</ele>
        <time>2011-06-02T08:40:17Z</time>
      </trkpt>
      <trkpt lat="45.83679" lon="4.80379">
        <ele>455</ele>
        <time>2011-06-02T08:40:18Z</time>
      </trkpt>
      <trkpt lat="45.8368" lon="4.80381">
        <ele>455</ele>
        <time>2011-06-02T08:40:19Z</time>
      </trkpt>
      <trkpt lat="45.83681" lon="4.80383">
        <ele>455</ele>
        <time>2011-06-02T08:40:20Z</time>
      </trkpt>
      <trkpt lat="45.83683" lon="4.80386">
        <ele>455</ele>
        <time>2011-06-02T08:40:21Z</time>
      </trkpt>
      <trkpt lat="45.83684" lon="4.80388">
        <ele>455</ele>
        <time>2011-06-02T08:40:22Z</time>
      </trkpt>
      <trkpt lat="45.83686" lon="4.80391">
        <ele>455</ele>
        <time>2011-06-02T08:40:23Z</time>
      </trkpt>
      <trkpt lat="45.83687" lon="4.80393">
        <ele>455</ele>
        <time>2011-06-02T08:40:24Z</time>
      </trkpt>
      <trkpt lat="45.83687" lon="4.80397">
        <ele>455</ele>
        <time>2011-06-02T08:40:25Z</time>
      </trkpt>
      <trkpt lat="45.83687" lon="4.804">
        <ele>455</ele>
        <time>2011-06-02T08:40:26Z</time>
      </trkpt>
      <trkpt lat="45.83687" lon="4.80403">
        <ele>455</ele>
        <time>2011-06-02T08:40:27Z</time>
      </trkpt>
      <trkpt lat="45.83687" lon="4.80407">
        <ele>455</ele>
        <time>2011-06-02T08:40:28Z</time>
      </trkpt>
      <trkpt lat="45.83688" lon="4.80412">
        <ele>455</ele>
        <time>2011-06-02T08:40:29Z</time>
      </trkpt>
      <trkpt lat="45.8369" lon="4.8042">
        <ele>455</ele>
        <time>2011-06-02T08:40:30Z</time>
      </trkpt>
      <trkpt lat="45.83691" lon="4.80426">
        <ele>455</ele>
        <time>2011-06-02T08:40:31Z</time>
      </trkpt>
      <trkpt lat="45.83692" lon="4.80431">
        <ele>455</ele>
        <time>2011-06-02T08:40:32Z</time>
      </trkpt>
      <trkpt lat="45.83693" lon="4.80435">
        <ele>454</ele>
        <time>2011-06-02T08:40:33Z</time>
      </trkpt>
      <trkpt lat="45.83693" lon="4.80439">
        <ele>453</ele>
        <time>2011-06-02T08:40:34Z</time>
      </trkpt>
      <trkpt lat="45.83693" lon="4.80443">
        <ele>453</ele>
        <time>2011-06-02T08:40:35Z</time>
      </trkpt>
      <trkpt lat="45.83694" lon="4.80448">
        <ele>452</ele>
        <time>2011-06-02T08:40:36Z</time>
      </trkpt>
      <trkpt lat="45.83696" lon="4.80452">
        <ele>452</ele>
        <time>2011-06-02T08:40:37Z</time>
      </trkpt>
      <trkpt lat="45.83696" lon="4.80455">
        <ele>451</ele>
        <time>2011-06-02T08:40:38Z</time>
      </trkpt>
      <trkpt lat="45.83696" lon="4.80457">
        <ele>451</ele>
        <time>2011-06-02T08:40:39Z</time>
      </trkpt>
      <trkpt lat="45.83698" lon="4.80459">
        <ele>451</ele>
        <time>2011-06-02T08:40:40Z</time>
      </trkpt>
      <trkpt lat="45.83699" lon="4.80462">
        <ele>450</ele>
        <time>2011-06-02T08:40:41Z</time>
      </trkpt>
      <trkpt lat="45.83699" lon="4.80465">
        <ele>450</ele>
        <time>2011-06-02T08:40:42Z</time>
      </trkpt>
      <trkpt lat="45.83699" lon="4.80469">
        <ele>449</ele>
        <time>2011-06-02T08:40:43Z</time>
      </trkpt>
      <trkpt lat="45.83698" lon="4.80472">
        <ele>449</ele>
        <time>2011-06-02T08:40:44Z</time>
      </trkpt>
      <trkpt lat="45.83697" lon="4.80476">
        <ele>448</ele>
        <time>2011-06-02T08:40:45Z</time>
      </trkpt>
      <trkpt lat="45.83698" lon="4.80479">
        <ele>448</ele>
        <time>2011-06-02T08:40:46Z</time>
      </trkpt>
      <trkpt lat="45.83698" lon="4.80483">
        <ele>447</ele>
        <time>2011-06-02T08:40:47Z</time>
      </trkpt>
      <trkpt lat="45.837" lon="4.80488">
        <ele>446</ele>
        <time>2011-06-02T08:40:48Z</time>
      </trkpt>
      <trkpt lat="45.83701" lon="4.80492">
        <ele>445</ele>
        <time>2011-06-02T08:40:49Z</time>
      </trkpt>
      <trkpt lat="45.83701" lon="4.80497">
        <ele>444</ele>
        <time>2011-06-02T08:40:50Z</time>
      </trkpt>
      <trkpt lat="45.83701" lon="4.805">
        <ele>443</ele>
        <time>2011-06-02T08:40:51Z</time>
      </trkpt>
      <trkpt lat="45.83701" lon="4.80503">
        <ele>442</ele>
        <time>2011-06-02T08:40:52Z</time>
      </trkpt>
      <trkpt lat="45.83702" lon="4.80505">
        <ele>441</ele>
        <time>2011-06-02T08:40:53Z</time>
      </trkpt>
      <trkpt lat="45.83702" lon="4.80508">
        <ele>438</ele>
        <time>2011-06-02T08:40:55Z</time>
      </trkpt>
      <trkpt lat="45.83703" lon="4.8051">
        <ele>435</ele>
        <time>2011-06-02T08:40:57Z</time>
      </trkpt>
      <trkpt lat="45.83704" lon="4.80512">
        <ele>433</ele>
        <time>2011-06-02T08:40:59Z</time>
      </trkpt>
      <trkpt lat="45.83704" lon="4.80513">
        <ele>429</ele>
        <time>2011-06-02T08:41:03Z</time>
      </trkpt>
      <trkpt lat="45.83702" lon="4.80516">
        <ele>427</ele>
        <time>2011-06-02T08:41:05Z</time>
      </trkpt>
      <trkpt lat="45.83701" lon="4.80519">
        <ele>426</ele>
        <time>2011-06-02T08:41:07Z</time>
      </trkpt>
      <trkpt lat="45.83701" lon="4.8052">
        <ele>426</ele>
        <time>2011-06-02T08:41:09Z</time>
      </trkpt>
      <trkpt lat="45.837" lon="4.80522">
        <ele>426</ele>
        <time>2011-06-02T08:41:12Z</time>
      </trkpt>
      <trkpt lat="45.83699" lon="4.80525">
        <ele>427</ele>
        <time>2011-06-02T08:41:16Z</time>
      </trkpt>
      <trkpt lat="45.83698" lon="4.80526">
        <ele>429</ele>
        <time>2011-06-02T08:41:18Z</time>
      </trkpt>
      <trkpt lat="45.83698" lon="4.80528">
        <ele>431</ele>
        <time>2011-06-02T08:41:20Z</time>
      </trkpt>
      <trkpt lat="45.83699" lon="4.80532">
        <ele>432</ele>
        <time>2011-06-02T08:41:22Z</time>
      </trkpt>
      <trkpt lat="45.83701" lon="4.80532">
        <ele>432</ele>
        <time>2011-06-02T08:41:24Z</time>
      </trkpt>
      <trkpt lat="45.83699" lon="4.80534">
        <ele>432</ele>
        <time>2011-06-02T08:41:26Z</time>
      </trkpt>
      <trkpt lat="45.83699" lon="4.80535">
        <ele>432</ele>
        <time>2011-06-02T08:41:30Z</time>
      </trkpt>
      <trkpt lat="45.83698" lon="4.80536">
        <ele>432</ele>
        <time>2011-06-02T08:41:34Z</time>
      </trkpt>
      <trkpt lat="45.83699" lon="4.80536">
        <ele>432</ele>
        <time>2011-06-02T08:41:38Z</time>
      </trkpt>
      <trkpt lat="45.83701" lon="4.80536">
        <ele>432</ele>
        <time>2011-06-02T08:41:41Z</time>
      </trkpt>
      <trkpt lat="45.83699" lon="4.80535">
        <ele>430</ele>
        <time>2011-06-02T08:41:48Z</time>
      </trkpt>
      <trkpt lat="45.83698" lon="4.80533">
        <ele>430</ele>
        <time>2011-06-02T08:41:50Z</time>
      </trkpt>
      <trkpt lat="45.83698" lon="4.80531">
        <ele>430</ele>
        <time>2011-06-02T08:41:52Z</time>
      </trkpt>
      <trkpt lat="45.83696" lon="4.80529">
        <ele>432</ele>
        <time>2011-06-02T08:41:55Z</time>
      </trkpt>
      <trkpt lat="45.83696" lon="4.80526">
        <ele>435</ele>
        <time>2011-06-02T08:41:58Z</time>
      </trkpt>
      <trkpt lat="45.83696" lon="4.80525">
        <ele>436</ele>
        <time>2011-06-02T08:41:59Z</time>
      </trkpt>
      <trkpt lat="45.83696" lon="4.80523">
        <ele>438</ele>
        <time>2011-06-02T08:42:01Z</time>
      </trkpt>
      <trkpt lat="45.83696" lon="4.80521">
        <ele>438</ele>
        <time>2011-06-02T08:42:02Z</time>
      </trkpt>
      <trkpt lat="45.83696" lon="4.80519">
        <ele>439</ele>
        <time>2011-06-02T08:42:03Z</time>
      </trkpt>
      <trkpt lat="45.83695" lon="4.80517">
        <ele>440</ele>
        <time>2011-06-02T08:42:05Z</time>
      </trkpt>
      <trkpt lat="45.83695" lon="4.80515">
        <ele>441</ele>
        <time>2011-06-02T08:42:07Z</time>
      </trkpt>
      <trkpt lat="45.83696" lon="4.80513">
        <ele>441</ele>
        <time>2011-06-02T08:42:08Z</time>
      </trkpt>
      <trkpt lat="45.83697" lon="4.80511">
        <ele>441</ele>
        <time>2011-06-02T08:42:10Z</time>
      </trkpt>
      <trkpt lat="45.83697" lon="4.80509">
        <ele>441</ele>
        <time>2011-06-02T08:42:11Z</time>
      </trkpt>
      <trkpt lat="45.83697" lon="4.80508">
        <ele>441</ele>
        <time>2011-06-02T08:42:12Z</time>
      </trkpt>
      <trkpt lat="45.83696" lon="4.80506">
        <ele>442</ele>
        <time>2011-06-02T08:42:14Z</time>
      </trkpt>
      <trkpt lat="45.83696" lon="4.80504">
        <ele>443</ele>
        <time>2011-06-02T08:42:15Z</time>
      </trkpt>
      <trkpt lat="45.83694" lon="4.80501">
        <ele>445</ele>
        <time>2011-06-02T08:42:17Z</time>
      </trkpt>
      <trkpt lat="45.83693" lon="4.80497">
        <ele>447</ele>
        <time>2011-06-02T08:42:21Z</time>
      </trkpt>
      <trkpt lat="45.83693" lon="4.80493">
        <ele>448</ele>
        <time>2011-06-02T08:42:22Z</time>
      </trkpt>
      <trkpt lat="45.83692" lon="4.8049">
        <ele>449</ele>
        <time>2011-06-02T08:42:23Z</time>
      </trkpt>
      <trkpt lat="45.83693" lon="4.80488">
        <ele>451</ele>
        <time>2011-06-02T08:42:25Z</time>
      </trkpt>
      <trkpt lat="45.83693" lon="4.80487">
        <ele>453</ele>
        <time>2011-06-02T08:42:27Z</time>
      </trkpt>
      <trkpt lat="45.83692" lon="4.80485">
        <ele>454</ele>
        <time>2011-06-02T08:42:28Z</time>
      </trkpt>
      <trkpt lat="45.83693" lon="4.80483">
        <ele>458</ele>
        <time>2011-06-02T08:42:32Z</time>
      </trkpt>
      <trkpt lat="45.83694" lon="4.80481">
        <ele>458</ele>
        <time>2011-06-02T08:42:35Z</time>
      </trkpt>
      <trkpt lat="45.83695" lon="4.80479">
        <ele>458</ele>
        <time>2011-06-02T08:42:37Z</time>
      </trkpt>
      <trkpt lat="45.83697" lon="4.80478">
        <ele>458</ele>
        <time>2011-06-02T08:42:39Z</time>
      </trkpt>
      <trkpt lat="45.83698" lon="4.80476">
        <ele>458</ele>
        <time>2011-06-02T08:42:43Z</time>
      </trkpt>
      <trkpt lat="45.83698" lon="4.80475">
        <ele>458</ele>
        <time>2011-06-02T08:42:45Z</time>
      </trkpt>
      <trkpt lat="45.83699" lon="4.80473">
        <ele>458</ele>
        <time>2011-06-02T08:42:47Z</time>
      </trkpt>
      <trkpt lat="45.83699" lon="4.80471">
        <ele>456</ele>
        <time>2011-06-02T08:42:50Z</time>
      </trkpt>
      <trkpt lat="45.83699" lon="4.80469">
        <ele>454</ele>
        <time>2011-06-02T08:42:55Z</time>
      </trkpt>
      <trkpt lat="45.83699" lon="4.80468">
        <ele>454</ele>
        <time>2011-06-02T08:42:57Z</time>
      </trkpt>
      <trkpt lat="45.83698" lon="4.80466">
        <ele>454</ele>
        <time>2011-06-02T08:42:58Z</time>
      </trkpt>
      <trkpt lat="45.83698" lon="4.80464">
        <ele>454</ele>
        <time>2011-06-02T08:43:00Z</time>
      </trkpt>
      <trkpt lat="45.83698" lon="4.80461">
        <ele>454</ele>
        <time>2011-06-02T08:43:02Z</time>
      </trkpt>
      <trkpt lat="45.83696" lon="4.80459">
        <ele>454</ele>
        <time>2011-06-02T08:43:04Z</time>
      </trkpt>
      <trkpt lat="45.83695" lon="4.80455">
        <ele>454</ele>
        <time>2011-06-02T08:43:07Z</time>
      </trkpt>
      <trkpt lat="45.83695" lon="4.80451">
        <ele>454</ele>
        <time>2011-06-02T08:43:08Z</time>
      </trkpt>
      <trkpt lat="45.83694" lon="4.80449">
        <ele>454</ele>
        <time>2011-06-02T08:43:09Z</time>
      </trkpt>
      <trkpt lat="45.83693" lon="4.80446">
        <ele>454</ele>
        <time>2011-06-02T08:43:11Z</time>
      </trkpt>
      <trkpt lat="45.83693" lon="4.80443">
        <ele>454</ele>
        <time>2011-06-02T08:43:13Z</time>
      </trkpt>
      <trkpt lat="45.83691" lon="4.8044">
        <ele>454</ele>
        <time>2011-06-02T08:43:15Z</time>
      </trkpt>
      <trkpt lat="45.83691" lon="4.80439">
        <ele>454</ele>
        <time>2011-06-02T08:43:16Z</time>
      </trkpt>
      <trkpt lat="45.83691" lon="4.80437">
        <ele>454</ele>
        <time>2011-06-02T08:43:17Z</time>
      </trkpt>
      <trkpt lat="45.83691" lon="4.80435">
        <ele>454</ele>
        <time>2011-06-02T08:43:18Z</time>
      </trkpt>
      <trkpt lat="45.83689" lon="4.80432">
        <ele>454</ele>
        <time>2011-06-02T08:43:20Z</time>
      </trkpt>
      <trkpt lat="45.83689" lon="4.80431">
        <ele>454</ele>
        <time>2011-06-02T08:43:21Z</time>
      </trkpt>
      <trkpt lat="45.83688" lon="4.80429">
        <ele>454</ele>
        <time>2011-06-02T08:43:23Z</time>
      </trkpt>
      <trkpt lat="45.83689" lon="4.80425">
        <ele>454</ele>
        <time>2011-06-02T08:43:24Z</time>
      </trkpt>
      <trkpt lat="45.83689" lon="4.80422">
        <ele>453</ele>
        <time>2011-06-02T08:43:26Z</time>
      </trkpt>
      <trkpt lat="45.83688" lon="4.8042">
        <ele>451</ele>
        <time>2011-06-02T08:43:28Z</time>
      </trkpt>
      <trkpt lat="45.83689" lon="4.80418">
        <ele>450</ele>
        <time>2011-06-02T08:43:30Z</time>
      </trkpt>
      <trkpt lat="45.83689" lon="4.80417">
        <ele>449</ele>
        <time>2011-06-02T08:43:31Z</time>
      </trkpt>
      <trkpt lat="45.8369" lon="4.80415">
        <ele>448</ele>
        <time>2011-06-02T08:43:33Z</time>
      </trkpt>
      <trkpt lat="45.8369" lon="4.80413">
        <ele>448</ele>
        <time>2011-06-02T08:43:34Z</time>
      </trkpt>
      <trkpt lat="45.8369" lon="4.80412">
        <ele>447</ele>
        <time>2011-06-02T08:43:35Z</time>
      </trkpt>
      <trkpt lat="45.8369" lon="4.8041">
        <ele>447</ele>
        <time>2011-06-02T08:43:37Z</time>
      </trkpt>
      <trkpt lat="45.83688" lon="4.80408">
        <ele>447</ele>
        <time>2011-06-02T08:43:39Z</time>
      </trkpt>
      <trkpt lat="45.83688" lon="4.80406">
        <ele>447</ele>
        <time>2011-06-02T08:43:41Z</time>
      </trkpt>
      <trkpt lat="45.83687" lon="4.80404">
        <ele>447</ele>
        <time>2011-06-02T08:43:43Z</time>
      </trkpt>
      <trkpt lat="45.83686" lon="4.80403">
        <ele>447</ele>
        <time>2011-06-02T08:43:45Z</time>
      </trkpt>
      <trkpt lat="45.83687" lon="4.804">
        <ele>447</ele>
        <time>2011-06-02T08:43:47Z</time>
      </trkpt>
      <trkpt lat="45.83688" lon="4.80397">
        <ele>447</ele>
        <time>2011-06-02T08:43:49Z</time>
      </trkpt>
      <trkpt lat="45.83689" lon="4.80395">
        <ele>447</ele>
        <time>2011-06-02T08:43:51Z</time>
      </trkpt>
      <trkpt lat="45.83688" lon="4.80393">
        <ele>447</ele>
        <time>2011-06-02T08:43:52Z</time>
      </trkpt>
      <trkpt lat="45.83688" lon="4.80392">
        <ele>447</ele>
        <time>2011-06-02T08:43:53Z</time>
      </trkpt>
      <trkpt lat="45.83688" lon="4.8039">
        <ele>448</ele>
        <time>2011-06-02T08:43:54Z</time>
      </trkpt>
      <trkpt lat="45.83686" lon="4.80389">
        <ele>450</ele>
        <time>2011-06-02T08:43:56Z</time>
      </trkpt>
      <trkpt lat="45.83686" lon="4.80387">
        <ele>453</ele>
        <time>2011-06-02T08:43:59Z</time>
      </trkpt>
      <trkpt lat="45.83684" lon="4.80386">
        <ele>454</ele>
        <time>2011-06-02T08:44:02Z</time>
      </trkpt>
      <trkpt lat="45.83682" lon="4.80385">
        <ele>454</ele>
        <time>2011-06-02T08:44:06Z</time>
      </trkpt>
      <trkpt lat="45.8368" lon="4.80385">
        <ele>454</ele>
        <time>2011-06-02T08:44:08Z</time>
      </trkpt>
      <trkpt lat="45.83679" lon="4.80384">
        <ele>454</ele>
        <time>2011-06-02T08:44:10Z</time>
      </trkpt>
      <trkpt lat="45.83677" lon="4.80386">
        <ele>454</ele>
        <time>2011-06-02T08:44:12Z</time>
      </trkpt>
      <trkpt lat="45.83676" lon="4.80387">
        <ele>454</ele>
        <time>2011-06-02T08:44:15Z</time>
      </trkpt>
      <trkpt lat="45.83675" lon="4.80387">
        <ele>454</ele>
        <time>2011-06-02T08:44:18Z</time>
      </trkpt>
      <trkpt lat="45.83674" lon="4.80389">
        <ele>454</ele>
        <time>2011-06-02T08:44:21Z</time>
      </trkpt>
      <trkpt lat="45.83672" lon="4.80391">
        <ele>454</ele>
        <time>2011-06-02T08:44:23Z</time>
      </trkpt>
      <trkpt lat="45.83672" lon="4.80392">
        <ele>454</ele>
        <time>2011-06-02T08:44:25Z</time>
      </trkpt>
      <trkpt lat="45.8367" lon="4.80394">
        <ele>454</ele>
        <time>2011-06-02T08:44:27Z</time>
      </trkpt>
      <trkpt lat="45.83669" lon="4.80396">
        <ele>454</ele>
        <time>2011-06-02T08:44:28Z</time>
      </trkpt>
      <trkpt lat="45.83667" lon="4.80396">
        <ele>454</ele>
        <time>2011-06-02T08:44:30Z</time>
      </trkpt>
      <trkpt lat="45.83665" lon="4.80397">
        <ele>454</ele>
        <time>2011-06-02T08:44:31Z</time>
      </trkpt>
      <trkpt lat="45.83664" lon="4.80398">
        <ele>454</ele>
        <time>2011-06-02T08:44:32Z</time>
      </trkpt>
      <trkpt lat="45.83663" lon="4.804">
        <ele>454</ele>
        <time>2011-06-02T08:44:33Z</time>
      </trkpt>
      <trkpt lat="45.83661" lon="4.80402">
        <ele>454</ele>
        <time>2011-06-02T08:44:35Z</time>
      </trkpt>
      <trkpt lat="45.83659" lon="4.80404">
        <ele>454</ele>
        <time>2011-06-02T08:44:37Z</time>
      </trkpt>
      <trkpt lat="45.83657" lon="4.80406">
        <ele>454</ele>
        <time>2011-06-02T08:44:39Z</time>
      </trkpt>
      <trkpt lat="45.83656" lon="4.80408">
        <ele>454</ele>
        <time>2011-06-02T08:44:41Z</time>
      </trkpt>
      <trkpt lat="45.83653" lon="4.80408">
        <ele>454</ele>
        <time>2011-06-02T08:44:43Z</time>
      </trkpt>
      <trkpt lat="45.83651" lon="4.80409">
        <ele>454</ele>
        <time>2011-06-02T08:44:44Z</time>
      </trkpt>
      <trkpt lat="45.8365" lon="4.8041">
        <ele>454</ele>
        <time>2011-06-02T08:44:45Z</time>
      </trkpt>
      <trkpt lat="45.83648" lon="4.8041">
        <ele>454</ele>
        <time>2011-06-02T08:44:46Z</time>
      </trkpt>
      <trkpt lat="45.83647" lon="4.80411">
        <ele>454</ele>
        <time>2011-06-02T08:44:47Z</time>
      </trkpt>
      <trkpt lat="45.83644" lon="4.80413">
        <ele>454</ele>
        <time>2011-06-02T08:44:49Z</time>
      </trkpt>
      <trkpt lat="45.83643" lon="4.80415">
        <ele>454</ele>
        <time>2011-06-02T08:44:50Z</time>
      </trkpt>
      <trkpt lat="45.83642" lon="4.80416">
        <ele>455</ele>
        <time>2011-06-02T08:44:51Z</time>
      </trkpt>
      <trkpt lat="45.8364" lon="4.80417">
        <ele>456</ele>
        <time>2011-06-02T08:44:52Z</time>
      </trkpt>
      <trkpt lat="45.83638" lon="4.80419">
        <ele>457</ele>
        <time>2011-06-02T08:44:53Z</time>
      </trkpt>
      <trkpt lat="45.83636" lon="4.80421">
        <ele>458</ele>
        <time>2011-06-02T08:44:54Z</time>
      </trkpt>
      <trkpt lat="45.83634" lon="4.80423">
        <ele>460</ele>
        <time>2011-06-02T08:44:56Z</time>
      </trkpt>
      <trkpt lat="45.83633" lon="4.80425">
        <ele>460</ele>
        <time>2011-06-02T08:44:58Z</time>
      </trkpt>
      <trkpt lat="45.83631" lon="4.80426">
        <ele>460</ele>
        <time>2011-06-02T08:44:59Z</time>
      </trkpt>
      <trkpt lat="45.8363" lon="4.80428">
        <ele>460</ele>
        <time>2011-06-02T08:45:00Z</time>
      </trkpt>
      <trkpt lat="45.83627" lon="4.80429">
        <ele>461</ele>
        <time>2011-06-02T08:45:01Z</time>
      </trkpt>
      <trkpt lat="45.83623" lon="4.80431">
        <ele>462</ele>
        <time>2011-06-02T08:45:02Z</time>
      </trkpt>
      <trkpt lat="45.8362" lon="4.80433">
        <ele>463</ele>
        <time>2011-06-02T08:45:03Z</time>
      </trkpt>
      <trkpt lat="45.83617" lon="4.80435">
        <ele>464</ele>
        <time>2011-06-02T08:45:04Z</time>
      </trkpt>
      <trkpt lat="45.83614" lon="4.80436">
        <ele>464</ele>
        <time>2011-06-02T08:45:05Z</time>
      </trkpt>
      <trkpt lat="45.83609" lon="4.80437">
        <ele>464</ele>
        <time>2011-06-02T08:45:06Z</time>
      </trkpt>
      <trkpt lat="45.83605" lon="4.80438">
        <ele>464</ele>
        <time>2011-06-02T08:45:07Z</time>
      </trkpt>
      <trkpt lat="45.836" lon="4.8044">
        <ele>464</ele>
        <time>2011-06-02T08:45:08Z</time>
      </trkpt>
      <trkpt lat="45.83595" lon="4.80441">
        <ele>464</ele>
        <time>2011-06-02T08:45:09Z</time>
      </trkpt>
      <trkpt lat="45.83591" lon="4.80443">
        <ele>464</ele>
        <time>2011-06-02T08:45:10Z</time>
      </trkpt>
      <trkpt lat="45.83588" lon="4.80444">
        <ele>465</ele>
        <time>2011-06-02T08:45:11Z</time>
      </trkpt>
      <trkpt lat="45.83584" lon="4.80445">
        <ele>466</ele>
        <time>2011-06-02T08:45:12Z</time>
      </trkpt>
      <trkpt lat="45.83581" lon="4.80446">
        <ele>467</ele>
        <time>2011-06-02T08:45:13Z</time>
      </trkpt>
      <trkpt lat="45.83577" lon="4.80449">
        <ele>468</ele>
        <time>2011-06-02T08:45:14Z</time>
      </trkpt>
      <trkpt lat="45.83574" lon="4.80453">
        <ele>468</ele>
        <time>2011-06-02T08:45:15Z</time>
      </trkpt>
      <trkpt lat="45.8357" lon="4.80456">
        <ele>469</ele>
        <time>2011-06-02T08:45:16Z</time>
      </trkpt>
      <trkpt lat="45.83566" lon="4.80459">
        <ele>469</ele>
        <time>2011-06-02T08:45:17Z</time>
      </trkpt>
      <trkpt lat="45.83561" lon="4.80462">
        <ele>470</ele>
        <time>2011-06-02T08:45:18Z</time>
      </trkpt>
      <trkpt lat="45.83557" lon="4.80465">
        <ele>470</ele>
        <time>2011-06-02T08:45:19Z</time>
      </trkpt>
      <trkpt lat="45.83552" lon="4.80467">
        <ele>470</ele>
        <time>2011-06-02T08:45:20Z</time>
      </trkpt>
      <trkpt lat="45.83548" lon="4.80469">
        <ele>470</ele>
        <time>2011-06-02T08:45:21Z</time>
      </trkpt>
      <trkpt lat="45.83545" lon="4.8047">
        <ele>470</ele>
        <time>2011-06-02T08:45:22Z</time>
      </trkpt>
      <trkpt lat="45.83542" lon="4.80473">
        <ele>470</ele>
        <time>2011-06-02T08:45:23Z</time>
      </trkpt>
      <trkpt lat="45.8354" lon="4.80477">
        <ele>470</ele>
        <time>2011-06-02T08:45:24Z</time>
      </trkpt>
      <trkpt lat="45.83536" lon="4.8048">
        <ele>470</ele>
        <time>2011-06-02T08:45:25Z</time>
      </trkpt>
      <trkpt lat="45.83531" lon="4.80483">
        <ele>470</ele>
        <time>2011-06-02T08:45:26Z</time>
      </trkpt>
      <trkpt lat="45.83526" lon="4.80486">
        <ele>470</ele>
        <time>2011-06-02T08:45:27Z</time>
      </trkpt>
      <trkpt lat="45.83521" lon="4.80489">
        <ele>470</ele>
        <time>2011-06-02T08:45:28Z</time>
      </trkpt>
      <trkpt lat="45.83517" lon="4.80492">
        <ele>469</ele>
        <time>2011-06-02T08:45:29Z</time>
      </trkpt>
      <trkpt lat="45.83513" lon="4.80496">
        <ele>468</ele>
        <time>2011-06-02T08:45:30Z</time>
      </trkpt>
      <trkpt lat="45.83509" lon="4.805">
        <ele>467</ele>
        <time>2011-06-02T08:45:31Z</time>
      </trkpt>
      <trkpt lat="45.83503" lon="4.80504">
        <ele>466</ele>
        <time>2011-06-02T08:45:32Z</time>
      </trkpt>
      <trkpt lat="45.83499" lon="4.80508">
        <ele>465</ele>
        <time>2011-06-02T08:45:33Z</time>
      </trkpt>
      <trkpt lat="45.83495" lon="4.80511">
        <ele>464</ele>
        <time>2011-06-02T08:45:34Z</time>
      </trkpt>
      <trkpt lat="45.83492" lon="4.80515">
        <ele>463</ele>
        <time>2011-06-02T08:45:35Z</time>
      </trkpt>
      <trkpt lat="45.83489" lon="4.80519">
        <ele>461</ele>
        <time>2011-06-02T08:45:36Z</time>
      </trkpt>
      <trkpt lat="45.83485" lon="4.80522">
        <ele>459</ele>
        <time>2011-06-02T08:45:37Z</time>
      </trkpt>
      <trkpt lat="45.83482" lon="4.80523">
        <ele>457</ele>
        <time>2011-06-02T08:45:38Z</time>
      </trkpt>
      <trkpt lat="45.83477" lon="4.80524">
        <ele>456</ele>
        <time>2011-06-02T08:45:39Z</time>
      </trkpt>
      <trkpt lat="45.83471" lon="4.80526">
        <ele>455</ele>
        <time>2011-06-02T08:45:40Z</time>
      </trkpt>
      <trkpt lat="45.83465" lon="4.80526">
        <ele>454</ele>
        <time>2011-06-02T08:45:41Z</time>
      </trkpt>
      <trkpt lat="45.83459" lon="4.80528">
        <ele>453</ele>
        <time>2011-06-02T08:45:42Z</time>
      </trkpt>
      <trkpt lat="45.83454" lon="4.80529">
        <ele>452</ele>
        <time>2011-06-02T08:45:43Z</time>
      </trkpt>
      <trkpt lat="45.83449" lon="4.80531">
        <ele>451</ele>
        <time>2011-06-02T08:45:44Z</time>
      </trkpt>
      <trkpt lat="45.83444" lon="4.80535">
        <ele>450</ele>
        <time>2011-06-02T08:45:45Z</time>
      </trkpt>
      <trkpt lat="45.8344" lon="4.80539">
        <ele>449</ele>
        <time>2011-06-02T08:45:46Z</time>
      </trkpt>
      <trkpt lat="45.83435" lon="4.80543">
        <ele>448</ele>
        <time>2011-06-02T08:45:47Z</time>
      </trkpt>
      <trkpt lat="45.83431" lon="4.80547">
        <ele>447</ele>
        <time>2011-06-02T08:45:48Z</time>
      </trkpt>
      <trkpt lat="45.83426" lon="4.8055">
        <ele>446</ele>
        <time>2011-06-02T08:45:49Z</time>
      </trkpt>
      <trkpt lat="45.8342" lon="4.80551">
        <ele>445</ele>
        <time>2011-06-02T08:45:50Z</time>
      </trkpt>
      <trkpt lat="45.83416" lon="4.80553">
        <ele>444</ele>
        <time>2011-06-02T08:45:51Z</time>
      </trkpt>
      <trkpt lat="45.8341" lon="4.80554">
        <ele>443</ele>
        <time>2011-06-02T08:45:52Z</time>
      </trkpt>
      <trkpt lat="45.83405" lon="4.80554">
        <ele>443</ele>
        <time>2011-06-02T08:45:53Z</time>
      </trkpt>
      <trkpt lat="45.834" lon="4.80555">
        <ele>443</ele>
        <time>2011-06-02T08:45:54Z</time>
      </trkpt>
      <trkpt lat="45.83396" lon="4.80557">
        <ele>442</ele>
        <time>2011-06-02T08:45:55Z</time>
      </trkpt>
      <trkpt lat="45.83392" lon="4.80558">
        <ele>442</ele>
        <time>2011-06-02T08:45:56Z</time>
      </trkpt>
      <trkpt lat="45.83387" lon="4.8056">
        <ele>442</ele>
        <time>2011-06-02T08:45:57Z</time>
      </trkpt>
      <trkpt lat="45.83385" lon="4.80561">
        <ele>442</ele>
        <time>2011-06-02T08:45:58Z</time>
      </trkpt>
      <trkpt lat="45.83383" lon="4.80563">
        <ele>442</ele>
        <time>2011-06-02T08:45:59Z</time>
      </trkpt>
      <trkpt lat="45.83382" lon="4.80564">
        <ele>441</ele>
        <time>2011-06-02T08:46:00Z</time>
      </trkpt>
      <trkpt lat="45.8338" lon="4.80565">
        <ele>440</ele>
        <time>2011-06-02T08:46:02Z</time>
      </trkpt>
      <trkpt lat="45.83381" lon="4.80566">
        <ele>440</ele>
        <time>2011-06-02T08:46:08Z</time>
      </trkpt>
      <trkpt lat="45.83382" lon="4.80568">
        <ele>439</ele>
        <time>2011-06-02T08:46:14Z</time>
      </trkpt>
      <trkpt lat="45.83384" lon="4.80569">
        <ele>437</ele>
        <time>2011-06-02T08:46:22Z</time>
      </trkpt>
      <trkpt lat="45.83382" lon="4.8057">
        <ele>437</ele>
        <time>2011-06-02T08:46:24Z</time>
      </trkpt>
      <trkpt lat="45.83381" lon="4.8057">
        <ele>436</ele>
        <time>2011-06-02T08:46:27Z</time>
      </trkpt>
      <trkpt lat="45.83382" lon="4.8057">
        <ele>435</ele>
        <time>2011-06-02T08:46:29Z</time>
      </trkpt>
      <trkpt lat="45.83381" lon="4.8057">
        <ele>434</ele>
        <time>2011-06-02T08:46:32Z</time>
      </trkpt>
      <trkpt lat="45.83383" lon="4.80569">
        <ele>434</ele>
        <time>2011-06-02T08:46:37Z</time>
      </trkpt>
      <trkpt lat="45.83385" lon="4.80569">
        <ele>434</ele>
        <time>2011-06-02T08:46:39Z</time>
      </trkpt>
      <trkpt lat="45.83386" lon="4.80569">
        <ele>431</ele>
        <time>2011-06-02T08:46:42Z</time>
      </trkpt>
      <trkpt lat="45.83387" lon="4.80569">
        <ele>430</ele>
        <time>2011-06-02T08:46:45Z</time>
      </trkpt>
      <trkpt lat="45.83386" lon="4.80569">
        <ele>427</ele>
        <time>2011-06-02T08:46:53Z</time>
      </trkpt>
      <trkpt lat="45.83384" lon="4.80568">
        <ele>427</ele>
        <time>2011-06-02T08:46:55Z</time>
      </trkpt>
      <trkpt lat="45.83383" lon="4.80566">
        <ele>427</ele>
        <time>2011-06-02T08:46:58Z</time>
      </trkpt>
      <trkpt lat="45.83382" lon="4.80564">
        <ele>427</ele>
        <time>2011-06-02T08:47:02Z</time>
      </trkpt>
      <trkpt lat="45.83381" lon="4.80563">
        <ele>427</ele>
        <time>2011-06-02T08:47:07Z</time>
      </trkpt>
      <trkpt lat="45.83379" lon="4.80562">
        <ele>427</ele>
        <time>2011-06-02T08:47:12Z</time>
      </trkpt>
      <trkpt lat="45.83378" lon="4.80561">
        <ele>428</ele>
        <time>2011-06-02T08:47:19Z</time>
      </trkpt>
      <trkpt lat="45.83377" lon="4.80559">
        <ele>430</ele>
        <time>2011-06-02T08:47:27Z</time>
      </trkpt>
      <trkpt lat="45.83376" lon="4.80558">
        <ele>431</ele>
        <time>2011-06-02T08:47:35Z</time>
      </trkpt>
      <trkpt lat="45.83375" lon="4.80558">
        <ele>432</ele>
        <time>2011-06-02T08:47:38Z</time>
      </trkpt>
      <trkpt lat="45.83373" lon="4.80558">
        <ele>433</ele>
        <time>2011-06-02T08:47:43Z</time>
      </trkpt>
      <trkpt lat="45.83372" lon="4.80557">
        <ele>432</ele>
        <time>2011-06-02T08:47:54Z</time>
      </trkpt>
      <trkpt lat="45.83372" lon="4.80558">
        <ele>432</ele>
        <time>2011-06-02T08:48:00Z</time>
      </trkpt>
      <trkpt lat="45.83371" lon="4.8056">
        <ele>432</ele>
        <time>2011-06-02T08:48:02Z</time>
      </trkpt>
      <trkpt lat="45.8337" lon="4.80561">
        <ele>432</ele>
        <time>2011-06-02T08:48:04Z</time>
      </trkpt>
      <trkpt lat="45.83368" lon="4.80563">
        <ele>432</ele>
        <time>2011-06-02T08:48:06Z</time>
      </trkpt>
      <trkpt lat="45.83366" lon="4.80564">
        <ele>432</ele>
        <time>2011-06-02T08:48:08Z</time>
      </trkpt>
      <trkpt lat="45.83365" lon="4.80563">
        <ele>432</ele>
        <time>2011-06-02T08:48:10Z</time>
      </trkpt>
      <trkpt lat="45.83364" lon="4.80562">
        <ele>433</ele>
        <time>2011-06-02T08:48:12Z</time>
      </trkpt>
      <trkpt lat="45.83363" lon="4.80561">
        <ele>435</ele>
        <time>2011-06-02T08:48:14Z</time>
      </trkpt>
      <trkpt lat="45.83364" lon="4.80562">
        <ele>438</ele>
        <time>2011-06-02T08:48:18Z</time>
      </trkpt>
      <trkpt lat="45.83364" lon="4.80564">
        <ele>438</ele>
        <time>2011-06-02T08:48:29Z</time>
      </trkpt>
      <trkpt lat="45.83364" lon="4.80566">
        <ele>438</ele>
        <time>2011-06-02T08:48:34Z</time>
      </trkpt>
      <trkpt lat="45.83365" lon="4.80567">
        <ele>438</ele>
        <time>2011-06-02T08:48:36Z</time>
      </trkpt>
      <trkpt lat="45.83367" lon="4.80569">
        <ele>438</ele>
        <time>2011-06-02T08:48:38Z</time>
      </trkpt>
      <trkpt lat="45.83368" lon="4.80571">
        <ele>438</ele>
        <time>2011-06-02T08:48:39Z</time>
      </trkpt>
      <trkpt lat="45.83369" lon="4.80572">
        <ele>438</ele>
        <time>2011-06-02T08:48:40Z</time>
      </trkpt>
      <trkpt lat="45.8337" lon="4.80575">
        <ele>438</ele>
        <time>2011-06-02T08:48:41Z</time>
      </trkpt>
      <trkpt lat="45.8337" lon="4.80577">
        <ele>438</ele>
        <time>2011-06-02T08:48:42Z</time>
      </trkpt>
      <trkpt lat="45.8337" lon="4.80579">
        <ele>438</ele>
        <time>2011-06-02T08:48:43Z</time>
      </trkpt>
      <trkpt lat="45.83371" lon="4.80581">
        <ele>438</ele>
        <time>2011-06-02T08:48:44Z</time>
      </trkpt>
      <trkpt lat="45.83372" lon="4.80582">
        <ele>438</ele>
        <time>2011-06-02T08:48:45Z</time>
      </trkpt>
      <trkpt lat="45.83373" lon="4.80584">
        <ele>438</ele>
        <time>2011-06-02T08:48:46Z</time>
      </trkpt>
      <trkpt lat="45.83374" lon="4.80586">
        <ele>438</ele>
        <time>2011-06-02T08:48:47Z</time>
      </trkpt>
      <trkpt lat="45.83374" lon="4.80589">
        <ele>438</ele>
        <time>2011-06-02T08:48:48Z</time>
      </trkpt>
      <trkpt lat="45.83375" lon="4.80592">
        <ele>438</ele>
        <time>2011-06-02T08:48:49Z</time>
      </trkpt>
      <trkpt lat="45.83376" lon="4.80596">
        <ele>438</ele>
        <time>2011-06-02T08:48:50Z</time>
      </trkpt>
      <trkpt lat="45.83375" lon="4.80598">
        <ele>438</ele>
        <time>2011-06-02T08:48:51Z</time>
      </trkpt>
      <trkpt lat="45.83375" lon="4.806">
        <ele>438</ele>
        <time>2011-06-02T08:48:52Z</time>
      </trkpt>
      <trkpt lat="45.83374" lon="4.80603">
        <ele>438</ele>
        <time>2011-06-02T08:48:53Z</time>
      </trkpt>
      <trkpt lat="45.83374" lon="4.80606">
        <ele>438</ele>
        <time>2011-06-02T08:48:54Z</time>
      </trkpt>
      <trkpt lat="45.83375" lon="4.80609">
        <ele>438</ele>
        <time>2011-06-02T08:48:55Z</time>
      </trkpt>
      <trkpt lat="45.83375" lon="4.80611">
        <ele>438</ele>
        <time>2011-06-02T08:48:56Z</time>
      </trkpt>
      <trkpt lat="45.83376" lon="4.80613">
        <ele>437</ele>
        <time>2011-06-02T08:48:57Z</time>
      </trkpt>
      <trkpt lat="45.83376" lon="4.80615">
        <ele>437</ele>
        <time>2011-06-02T08:48:58Z</time>
      </trkpt>
      <trkpt lat="45.83377" lon="4.80618">
        <ele>437</ele>
        <time>2011-06-02T08:48:59Z</time>
      </trkpt>
      <trkpt lat="45.83377" lon="4.8062">
        <ele>436</ele>
        <time>2011-06-02T08:49:00Z</time>
      </trkpt>
      <trkpt lat="45.83378" lon="4.80622">
        <ele>435</ele>
        <time>2011-06-02T08:49:01Z</time>
      </trkpt>
      <trkpt lat="45.83379" lon="4.80625">
        <ele>434</ele>
        <time>2011-06-02T08:49:02Z</time>
      </trkpt>
      <trkpt lat="45.83379" lon="4.80627">
        <ele>434</ele>
        <time>2011-06-02T08:49:03Z</time>
      </trkpt>
      <trkpt lat="45.8338" lon="4.80629">
        <ele>433</ele>
        <time>2011-06-02T08:49:04Z</time>
      </trkpt>
      <trkpt lat="45.8338" lon="4.80631">
        <ele>433</ele>
        <time>2011-06-02T08:49:05Z</time>
      </trkpt>
      <trkpt lat="45.83381" lon="4.80634">
        <ele>433</ele>
        <time>2011-06-02T08:49:06Z</time>
      </trkpt>
      <trkpt lat="45.83381" lon="4.80636">
        <ele>433</ele>
        <time>2011-06-02T08:49:07Z</time>
      </trkpt>
      <trkpt lat="45.83381" lon="4.80639">
        <ele>433</ele>
        <time>2011-06-02T08:49:08Z</time>
      </trkpt>
      <trkpt lat="45.83381" lon="4.80642">
        <ele>433</ele>
        <time>2011-06-02T08:49:09Z</time>
      </trkpt>
      <trkpt lat="45.83382" lon="4.80644">
        <ele>433</ele>
        <time>2011-06-02T08:49:10Z</time>
      </trkpt>
      <trkpt lat="45.83382" lon="4.80646">
        <ele>433</ele>
        <time>2011-06-02T08:49:11Z</time>
      </trkpt>
      <trkpt lat="45.83383" lon="4.80648">
        <ele>433</ele>
        <time>2011-06-02T08:49:12Z</time>
      </trkpt>
      <trkpt lat="45.83384" lon="4.8065">
        <ele>433</ele>
        <time>2011-06-02T08:49:13Z</time>
      </trkpt>
      <trkpt lat="45.83385" lon="4.80653">
        <ele>433</ele>
        <time>2011-06-02T08:49:14Z</time>
      </trkpt>
      <trkpt lat="45.83386" lon="4.80656">
        <ele>433</ele>
        <time>2011-06-02T08:49:15Z</time>
      </trkpt>
      <trkpt lat="45.83387" lon="4.80659">
        <ele>433</ele>
        <time>2011-06-02T08:49:16Z</time>
      </trkpt>
      <trkpt lat="45.83388" lon="4.80662">
        <ele>432</ele>
        <time>2011-06-02T08:49:17Z</time>
      </trkpt>
      <trkpt lat="45.8339" lon="4.80666">
        <ele>432</ele>
        <time>2011-06-02T08:49:18Z</time>
      </trkpt>
      <trkpt lat="45.83392" lon="4.80669">
        <ele>431</ele>
        <time>2011-06-02T08:49:19Z</time>
      </trkpt>
      <trkpt lat="45.83393" lon="4.80674">
        <ele>431</ele>
        <time>2011-06-02T08:49:20Z</time>
      </trkpt>
      <trkpt lat="45.83395" lon="4.80678">
        <ele>430</ele>
        <time>2011-06-02T08:49:21Z</time>
      </trkpt>
      <trkpt lat="45.83396" lon="4.80684">
        <ele>430</ele>
        <time>2011-06-02T08:49:22Z</time>
      </trkpt>
      <trkpt lat="45.83398" lon="4.80688">
        <ele>430</ele>
        <time>2011-06-02T08:49:23Z</time>
      </trkpt>
      <trkpt lat="45.83401" lon="4.80693">
        <ele>430</ele>
        <time>2011-06-02T08:49:24Z</time>
      </trkpt>
      <trkpt lat="45.83403" lon="4.80698">
        <ele>430</ele>
        <time>2011-06-02T08:49:25Z</time>
      </trkpt>
      <trkpt lat="45.83406" lon="4.80702">
        <ele>430</ele>
        <time>2011-06-02T08:49:26Z</time>
      </trkpt>
      <trkpt lat="45.83408" lon="4.80706">
        <ele>430</ele>
        <time>2011-06-02T08:49:27Z</time>
      </trkpt>
      <trkpt lat="45.83409" lon="4.80709">
        <ele>430</ele>
        <time>2011-06-02T08:49:28Z</time>
      </trkpt>
      <trkpt lat="45.83411" lon="4.80712">
        <ele>430</ele>
        <time>2011-06-02T08:49:29Z</time>
      </trkpt>
      <trkpt lat="45.83412" lon="4.80713">
        <ele>430</ele>
        <time>2011-06-02T08:49:30Z</time>
      </trkpt>
      <trkpt lat="45.83414" lon="4.80715">
        <ele>428</ele>
        <time>2011-06-02T08:49:34Z</time>
      </trkpt>
      <trkpt lat="45.83416" lon="4.80717">
        <ele>427</ele>
        <time>2011-06-02T08:49:36Z</time>
      </trkpt>
      <trkpt lat="45.83418" lon="4.80718">
        <ele>427</ele>
        <time>2011-06-02T08:49:37Z</time>
      </trkpt>
      <trkpt lat="45.8342" lon="4.80718">
        <ele>426</ele>
        <time>2011-06-02T08:49:38Z</time>
      </trkpt>
      <trkpt lat="45.83422" lon="4.80719">
        <ele>426</ele>
        <time>2011-06-02T08:49:39Z</time>
      </trkpt>
      <trkpt lat="45.83424" lon="4.80719">
        <ele>426</ele>
        <time>2011-06-02T08:49:40Z</time>
      </trkpt>
      <trkpt lat="45.83426" lon="4.80718">
        <ele>426</ele>
        <time>2011-06-02T08:49:41Z</time>
      </trkpt>
      <trkpt lat="45.83428" lon="4.80717">
        <ele>425</ele>
        <time>2011-06-02T08:49:42Z</time>
      </trkpt>
      <trkpt lat="45.83429" lon="4.80716">
        <ele>425</ele>
        <time>2011-06-02T08:49:43Z</time>
      </trkpt>
      <trkpt lat="45.83431" lon="4.80713">
        <ele>425</ele>
        <time>2011-06-02T08:49:44Z</time>
      </trkpt>
      <trkpt lat="45.83432" lon="4.80711">
        <ele>425</ele>
        <time>2011-06-02T08:49:45Z</time>
      </trkpt>
      <trkpt lat="45.8343" lon="4.80711">
        <ele>424</ele>
        <time>2011-06-02T08:49:46Z</time>
      </trkpt>
      <trkpt lat="45.83429" lon="4.80712">
        <ele>424</ele>
        <time>2011-06-02T08:49:47Z</time>
      </trkpt>
      <trkpt lat="45.83427" lon="4.80713">
        <ele>423</ele>
        <time>2011-06-02T08:49:48Z</time>
      </trkpt>
      <trkpt lat="45.83426" lon="4.80714">
        <ele>423</ele>
        <time>2011-06-02T08:49:49Z</time>
      </trkpt>
      <trkpt lat="45.83425" lon="4.80715">
        <ele>418</ele>
        <time>2011-06-02T08:49:55Z</time>
      </trkpt>
      <trkpt lat="45.83423" lon="4.80716">
        <ele>416</ele>
        <time>2011-06-02T08:49:57Z</time>
      </trkpt>
      <trkpt lat="45.83422" lon="4.80716">
        <ele>416</ele>
        <time>2011-06-02T08:49:58Z</time>
      </trkpt>
      <trkpt lat="45.8342" lon="4.80716">
        <ele>415</ele>
        <time>2011-06-02T08:50:00Z</time>
      </trkpt>
      <trkpt lat="45.83419" lon="4.80718">
        <ele>415</ele>
        <time>2011-06-02T08:50:05Z</time>
      </trkpt>
      <trkpt lat="45.8342" lon="4.80719">
        <ele>415</ele>
        <time>2011-06-02T08:50:08Z</time>
      </trkpt>
      <trkpt lat="45.83421" lon="4.80719">
        <ele>415</ele>
        <time>2011-06-02T08:50:10Z</time>
      </trkpt>
      <trkpt lat="45.83422" lon="4.8072">
        <ele>415</ele>
        <time>2011-06-02T08:50:13Z</time>
      </trkpt>
      <trkpt lat="45.83422" lon="4.80721">
        <ele>416</ele>
        <time>2011-06-02T08:50:22Z</time>
      </trkpt>
      <trkpt lat="45.83421" lon="4.80722">
        <ele>417</ele>
        <time>2011-06-02T08:50:30Z</time>
      </trkpt>
      <trkpt lat="45.83422" lon="4.80721">
        <ele>419</ele>
        <time>2011-06-02T08:50:43Z</time>
      </trkpt>
      <trkpt lat="45.83424" lon="4.80721">
        <ele>419</ele>
        <time>2011-06-02T08:50:48Z</time>
      </trkpt>
      <trkpt lat="45.83425" lon="4.80722">
        <ele>417</ele>
        <time>2011-06-02T08:50:54Z</time>
      </trkpt>
      <trkpt lat="45.83426" lon="4.80722">
        <ele>413</ele>
        <time>2011-06-02T08:51:06Z</time>
      </trkpt>
      <trkpt lat="45.83425" lon="4.80723">
        <ele>413</ele>
        <time>2011-06-02T08:51:25Z</time>
      </trkpt>
      <trkpt lat="45.83424" lon="4.80724">
        <ele>413</ele>
        <time>2011-06-02T08:51:28Z</time>
      </trkpt>
      <trkpt lat="45.83423" lon="4.80725">
        <ele>413</ele>
        <time>2011-06-02T08:51:31Z</time>
      </trkpt>
      <trkpt lat="45.83424" lon="4.80726">
        <ele>413</ele>
        <time>2011-06-02T08:51:35Z</time>
      </trkpt>
      <trkpt lat="45.83427" lon="4.80725">
        <ele>413</ele>
        <time>2011-06-02T08:51:37Z</time>
      </trkpt>
      <trkpt lat="45.83428" lon="4.80725">
        <ele>413</ele>
        <time>2011-06-02T08:51:38Z</time>
      </trkpt>
      <trkpt lat="45.83429" lon="4.80724">
        <ele>413</ele>
        <time>2011-06-02T08:51:39Z</time>
      </trkpt>
      <trkpt lat="45.83431" lon="4.80722">
        <ele>413</ele>
        <time>2011-06-02T08:51:40Z</time>
      </trkpt>
      <trkpt lat="45.83433" lon="4.80721">
        <ele>413</ele>
        <time>2011-06-02T08:51:41Z</time>
      </trkpt>
      <trkpt lat="45.83436" lon="4.8072">
        <ele>413</ele>
        <time>2011-06-02T08:51:42Z</time>
      </trkpt>
      <trkpt lat="45.83438" lon="4.80719">
        <ele>414</ele>
        <time>2011-06-02T08:51:43Z</time>
      </trkpt>
      <trkpt lat="45.83441" lon="4.80717">
        <ele>414</ele>
        <time>2011-06-02T08:51:44Z</time>
      </trkpt>
      <trkpt lat="45.83443" lon="4.80715">
        <ele>415</ele>
        <time>2011-06-02T08:51:45Z</time>
      </trkpt>
      <trkpt lat="45.83446" lon="4.80713">
        <ele>416</ele>
        <time>2011-06-02T08:51:46Z</time>
      </trkpt>
      <trkpt lat="45.83448" lon="4.80711">
        <ele>417</ele>
        <time>2011-06-02T08:51:47Z</time>
      </trkpt>
      <trkpt lat="45.8345" lon="4.8071">
        <ele>417</ele>
        <time>2011-06-02T08:51:48Z</time>
      </trkpt>
      <trkpt lat="45.83453" lon="4.80708">
        <ele>418</ele>
        <time>2011-06-02T08:51:49Z</time>
      </trkpt>
      <trkpt lat="45.83455" lon="4.80706">
        <ele>418</ele>
        <time>2011-06-02T08:51:50Z</time>
      </trkpt>
      <trkpt lat="45.83458" lon="4.80705">
        <ele>419</ele>
        <time>2011-06-02T08:51:51Z</time>
      </trkpt>
      <trkpt lat="45.8346" lon="4.80703">
        <ele>419</ele>
        <time>2011-06-02T08:51:52Z</time>
      </trkpt>
      <trkpt lat="45.83462" lon="4.80702">
        <ele>419</ele>
        <time>2011-06-02T08:51:53Z</time>
      </trkpt>
      <trkpt lat="45.83464" lon="4.807">
        <ele>419</ele>
        <time>2011-06-02T08:51:54Z</time>
      </trkpt>
      <trkpt lat="45.83466" lon="4.80699">
        <ele>420</ele>
        <time>2011-06-02T08:51:55Z</time>
      </trkpt>
      <trkpt lat="45.83468" lon="4.80698">
        <ele>420</ele>
        <time>2011-06-02T08:51:56Z</time>
      </trkpt>
      <trkpt lat="45.8347" lon="4.80696">
        <ele>420</ele>
        <time>2011-06-02T08:51:57Z</time>
      </trkpt>
      <trkpt lat="45.83472" lon="4.80695">
        <ele>420</ele>
        <time>2011-06-02T08:51:58Z</time>
      </trkpt>
      <trkpt lat="45.83474" lon="4.80694">
        <ele>420</ele>
        <time>2011-06-02T08:51:59Z</time>
      </trkpt>
      <trkpt lat="45.83476" lon="4.80692">
        <ele>420</ele>
        <time>2011-06-02T08:52:00Z</time>
      </trkpt>
      <trkpt lat="45.83478" lon="4.8069">
        <ele>420</ele>
        <time>2011-06-02T08:52:01Z</time>
      </trkpt>
      <trkpt lat="45.8348" lon="4.80689">
        <ele>420</ele>
        <time>2011-06-02T08:52:02Z</time>
      </trkpt>
      <trkpt lat="45.83482" lon="4.80687">
        <ele>420</ele>
        <time>2011-06-02T08:52:03Z</time>
      </trkpt>
      <trkpt lat="45.83484" lon="4.80686">
        <ele>420</ele>
        <time>2011-06-02T08:52:04Z</time>
      </trkpt>
      <trkpt lat="45.83486" lon="4.80684">
        <ele>420</ele>
        <time>2011-06-02T08:52:05Z</time>
      </trkpt>
      <trkpt lat="45.83488" lon="4.80682">
        <ele>420</ele>
        <time>2011-06-02T08:52:06Z</time>
      </trkpt>
      <trkpt lat="45.8349" lon="4.8068">
        <ele>420</ele>
        <time>2011-06-02T08:52:07Z</time>
      </trkpt>
      <trkpt lat="45.83492" lon="4.80678">
        <ele>420</ele>
        <time>2011-06-02T08:52:08Z</time>
      </trkpt>
      <trkpt lat="45.83495" lon="4.80677">
        <ele>420</ele>
        <time>2011-06-02T08:52:09Z</time>
      </trkpt>
      <trkpt lat="45.83497" lon="4.80675">
        <ele>420</ele>
        <time>2011-06-02T08:52:10Z</time>
      </trkpt>
      <trkpt lat="45.83499" lon="4.80674">
        <ele>420</ele>
        <time>2011-06-02T08:52:11Z</time>
      </trkpt>
      <trkpt lat="45.83501" lon="4.80672">
        <ele>420</ele>
        <time>2011-06-02T08:52:12Z</time>
      </trkpt>
      <trkpt lat="45.83503" lon="4.8067">
        <ele>420</ele>
        <time>2011-06-02T08:52:13Z</time>
      </trkpt>
      <trkpt lat="45.83505" lon="4.80668">
        <ele>420</ele>
        <time>2011-06-02T08:52:14Z</time>
      </trkpt>
      <trkpt lat="45.83507" lon="4.80666">
        <ele>419</ele>
        <time>2011-06-02T08:52:15Z</time>
      </trkpt>
      <trkpt lat="45.83509" lon="4.80664">
        <ele>419</ele>
        <time>2011-06-02T08:52:16Z</time>
      </trkpt>
      <trkpt lat="45.83511" lon="4.80663">
        <ele>418</ele>
        <time>2011-06-02T08:52:17Z</time>
      </trkpt>
      <trkpt lat="45.83513" lon="4.80661">
        <ele>418</ele>
        <time>2011-06-02T08:52:18Z</time>
      </trkpt>
      <trkpt lat="45.83515" lon="4.8066">
        <ele>418</ele>
        <time>2011-06-02T08:52:19Z</time>
      </trkpt>
      <trkpt lat="45.83517" lon="4.80658">
        <ele>418</ele>
        <time>2011-06-02T08:52:20Z</time>
      </trkpt>
      <trkpt lat="45.83519" lon="4.80658">
        <ele>418</ele>
        <time>2011-06-02T08:52:21Z</time>
      </trkpt>
      <trkpt lat="45.83521" lon="4.80657">
        <ele>418</ele>
        <time>2011-06-02T08:52:22Z</time>
      </trkpt>
      <trkpt lat="45.83522" lon="4.80656">
        <ele>418</ele>
        <time>2011-06-02T08:52:23Z</time>
      </trkpt>
      <trkpt lat="45.83524" lon="4.80655">
        <ele>418</ele>
        <time>2011-06-02T08:52:24Z</time>
      </trkpt>
      <trkpt lat="45.83526" lon="4.80654">
        <ele>418</ele>
        <time>2011-06-02T08:52:25Z</time>
      </trkpt>
      <trkpt lat="45.83527" lon="4.80653">
        <ele>418</ele>
        <time>2011-06-02T08:52:26Z</time>
      </trkpt>
      <trkpt lat="45.83528" lon="4.80652">
        <ele>418</ele>
        <time>2011-06-02T08:52:27Z</time>
      </trkpt>
      <trkpt lat="45.8353" lon="4.80651">
        <ele>418</ele>
        <time>2011-06-02T08:52:29Z</time>
      </trkpt>
      <trkpt lat="45.83531" lon="4.8065">
        <ele>418</ele>
        <time>2011-06-02T08:52:30Z</time>
      </trkpt>
      <trkpt lat="45.83532" lon="4.80649">
        <ele>419</ele>
        <time>2011-06-02T08:52:31Z</time>
      </trkpt>
      <trkpt lat="45.83534" lon="4.80648">
        <ele>419</ele>
        <time>2011-06-02T08:52:32Z</time>
      </trkpt>
      <trkpt lat="45.83535" lon="4.80648">
        <ele>419</ele>
        <time>2011-06-02T08:52:33Z</time>
      </trkpt>
      <trkpt lat="45.83537" lon="4.80647">
        <ele>420</ele>
        <time>2011-06-02T08:52:34Z</time>
      </trkpt>
      <trkpt lat="45.83538" lon="4.80646">
        <ele>420</ele>
        <time>2011-06-02T08:52:35Z</time>
      </trkpt>
      <trkpt lat="45.8354" lon="4.80645">
        <ele>421</ele>
        <time>2011-06-02T08:52:36Z</time>
      </trkpt>
      <trkpt lat="45.83542" lon="4.80644">
        <ele>421</ele>
        <time>2011-06-02T08:52:37Z</time>
      </trkpt>
      <trkpt lat="45.83543" lon="4.80642">
        <ele>421</ele>
        <time>2011-06-02T08:52:38Z</time>
      </trkpt>
      <trkpt lat="45.83545" lon="4.80641">
        <ele>422</ele>
        <time>2011-06-02T08:52:39Z</time>
      </trkpt>
      <trkpt lat="45.83546" lon="4.8064">
        <ele>422</ele>
        <time>2011-06-02T08:52:40Z</time>
      </trkpt>
      <trkpt lat="45.83548" lon="4.80638">
        <ele>422</ele>
        <time>2011-06-02T08:52:41Z</time>
      </trkpt>
      <trkpt lat="45.8355" lon="4.80637">
        <ele>423</ele>
        <time>2011-06-02T08:52:42Z</time>
      </trkpt>
      <trkpt lat="45.83553" lon="4.80635">
        <ele>423</ele>
        <time>2011-06-02T08:52:43Z</time>
      </trkpt>
      <trkpt lat="45.83554" lon="4.80634">
        <ele>423</ele>
        <time>2011-06-02T08:52:44Z</time>
      </trkpt>
      <trkpt lat="45.83556" lon="4.80634">
        <ele>424</ele>
        <time>2011-06-02T08:52:45Z</time>
      </trkpt>
      <trkpt lat="45.83558" lon="4.80633">
        <ele>424</ele>
        <time>2011-06-02T08:52:46Z</time>
      </trkpt>
      <trkpt lat="45.83559" lon="4.80632">
        <ele>424</ele>
        <time>2011-06-02T08:52:47Z</time>
      </trkpt>
      <trkpt lat="45.83561" lon="4.80631">
        <ele>424</ele>
        <time>2011-06-02T08:52:48Z</time>
      </trkpt>
      <trkpt lat="45.83562" lon="4.8063">
        <ele>425</ele>
        <time>2011-06-02T08:52:49Z</time>
      </trkpt>
      <trkpt lat="45.83564" lon="4.80629">
        <ele>425</ele>
        <time>2011-06-02T08:52:50Z</time>
      </trkpt>
      <trkpt lat="45.83565" lon="4.80627">
        <ele>425</ele>
        <time>2011-06-02T08:52:51Z</time>
      </trkpt>
      <trkpt lat="45.83567" lon="4.80625">
        <ele>425</ele>
        <time>2011-06-02T08:52:52Z</time>
      </trkpt>
      <trkpt lat="45.83568" lon="4.80625">
        <ele>425</ele>
        <time>2011-06-02T08:52:53Z</time>
      </trkpt>
      <trkpt lat="45.8357" lon="4.80625">
        <ele>425</ele>
        <time>2011-06-02T08:52:55Z</time>
      </trkpt>
      <trkpt lat="45.83573" lon="4.80624">
        <ele>425</ele>
        <time>2011-06-02T08:52:56Z</time>
      </trkpt>
      <trkpt lat="45.83574" lon="4.80622">
        <ele>425</ele>
        <time>2011-06-02T08:52:57Z</time>
      </trkpt>
      <trkpt lat="45.83575" lon="4.80621">
        <ele>426</ele>
        <time>2011-06-02T08:52:58Z</time>
      </trkpt>
      <trkpt lat="45.83577" lon="4.8062">
        <ele>426</ele>
        <time>2011-06-02T08:52:59Z</time>
      </trkpt>
      <trkpt lat="45.83578" lon="4.80617">
        <ele>426</ele>
        <time>2011-06-02T08:53:01Z</time>
      </trkpt>
      <trkpt lat="45.8358" lon="4.80616">
        <ele>426</ele>
        <time>2011-06-02T08:53:02Z</time>
      </trkpt>
      <trkpt lat="45.83581" lon="4.80615">
        <ele>426</ele>
        <time>2011-06-02T08:53:03Z</time>
      </trkpt>
      <trkpt lat="45.83582" lon="4.80614">
        <ele>426</ele>
        <time>2011-06-02T08:53:04Z</time>
      </trkpt>
      <trkpt lat="45.83583" lon="4.80613">
        <ele>426</ele>
        <time>2011-06-02T08:53:05Z</time>
      </trkpt>
      <trkpt lat="45.83585" lon="4.80612">
        <ele>426</ele>
        <time>2011-06-02T08:53:06Z</time>
      </trkpt>
      <trkpt lat="45.83587" lon="4.80611">
        <ele>427</ele>
        <time>2011-06-02T08:53:07Z</time>
      </trkpt>
      <trkpt lat="45.83588" lon="4.80609">
        <ele>427</ele>
        <time>2011-06-02T08:53:08Z</time>
      </trkpt>
      <trkpt lat="45.8359" lon="4.80608">
        <ele>428</ele>
        <time>2011-06-02T08:53:09Z</time>
      </trkpt>
      <trkpt lat="45.83592" lon="4.80607">
        <ele>428</ele>
        <time>2011-06-02T08:53:10Z</time>
      </trkpt>
      <trkpt lat="45.83593" lon="4.80606">
        <ele>428</ele>
        <time>2011-06-02T08:53:11Z</time>
      </trkpt>
      <trkpt lat="45.83595" lon="4.80605">
        <ele>428</ele>
        <time>2011-06-02T08:53:12Z</time>
      </trkpt>
      <trkpt lat="45.83597" lon="4.80604">
        <ele>429</ele>
        <time>2011-06-02T08:53:13Z</time>
      </trkpt>
      <trkpt lat="45.83599" lon="4.80604">
        <ele>429</ele>
        <time>2011-06-02T08:53:14Z</time>
      </trkpt>
      <trkpt lat="45.83602" lon="4.80603">
        <ele>429</ele>
        <time>2011-06-02T08:53:15Z</time>
      </trkpt>
      <trkpt lat="45.83604" lon="4.80602">
        <ele>429</ele>
        <time>2011-06-02T08:53:16Z</time>
      </trkpt>
      <trkpt lat="45.83606" lon="4.80601">
        <ele>430</ele>
        <time>2011-06-02T08:53:17Z</time>
      </trkpt>
      <trkpt lat="45.83608" lon="4.806">
        <ele>430</ele>
        <time>2011-06-02T08:53:18Z</time>
      </trkpt>
      <trkpt lat="45.83611" lon="4.80599">
        <ele>430</ele>
        <time>2011-06-02T08:53:19Z</time>
      </trkpt>
      <trkpt lat="45.83612" lon="4.80598">
        <ele>430</ele>
        <time>2011-06-02T08:53:20Z</time>
      </trkpt>
      <trkpt lat="45.83614" lon="4.80597">
        <ele>430</ele>
        <time>2011-06-02T08:53:21Z</time>
      </trkpt>
      <trkpt lat="45.83615" lon="4.80596">
        <ele>430</ele>
        <time>2011-06-02T08:53:22Z</time>
      </trkpt>
      <trkpt lat="45.83617" lon="4.80595">
        <ele>430</ele>
        <time>2011-06-02T08:53:23Z</time>
      </trkpt>
      <trkpt lat="45.8362" lon="4.80594">
        <ele>430</ele>
        <time>2011-06-02T08:53:24Z</time>
      </trkpt>
      <trkpt lat="45.83622" lon="4.80593">
        <ele>430</ele>
        <time>2011-06-02T08:53:25Z</time>
      </trkpt>
      <trkpt lat="45.83625" lon="4.80591">
        <ele>430</ele>
        <time>2011-06-02T08:53:26Z</time>
      </trkpt>
      <trkpt lat="45.83627" lon="4.80589">
        <ele>430</ele>
        <time>2011-06-02T08:53:27Z</time>
      </trkpt>
      <trkpt lat="45.83629" lon="4.80588">
        <ele>430</ele>
        <time>2011-06-02T08:53:28Z</time>
      </trkpt>
      <trkpt lat="45.83631" lon="4.80588">
        <ele>430</ele>
        <time>2011-06-02T08:53:29Z</time>
      </trkpt>
      <trkpt lat="45.83633" lon="4.80587">
        <ele>430</ele>
        <time>2011-06-02T08:53:30Z</time>
      </trkpt>
      <trkpt lat="45.83635" lon="4.80586">
        <ele>430</ele>
        <time>2011-06-02T08:53:31Z</time>
      </trkpt>
      <trkpt lat="45.83637" lon="4.80585">
        <ele>430</ele>
        <time>2011-06-02T08:53:32Z</time>
      </trkpt>
      <trkpt lat="45.83639" lon="4.80583">
        <ele>430</ele>
        <time>2011-06-02T08:53:33Z</time>
      </trkpt>
      <trkpt lat="45.83641" lon="4.80582">
        <ele>430</ele>
        <time>2011-06-02T08:53:34Z</time>
      </trkpt>
      <trkpt lat="45.83642" lon="4.8058">
        <ele>430</ele>
        <time>2011-06-02T08:53:35Z</time>
      </trkpt>
      <trkpt lat="45.83643" lon="4.80579">
        <ele>430</ele>
        <time>2011-06-02T08:53:36Z</time>
      </trkpt>
      <trkpt lat="45.83645" lon="4.80577">
        <ele>430</ele>
        <time>2011-06-02T08:53:37Z</time>
      </trkpt>
      <trkpt lat="45.83647" lon="4.80576">
        <ele>430</ele>
        <time>2011-06-02T08:53:38Z</time>
      </trkpt>
      <trkpt lat="45.8365" lon="4.80574">
        <ele>430</ele>
        <time>2011-06-02T08:53:39Z</time>
      </trkpt>
      <trkpt lat="45.83653" lon="4.80572">
        <ele>430</ele>
        <time>2011-06-02T08:53:40Z</time>
      </trkpt>
      <trkpt lat="45.83657" lon="4.8057">
        <ele>430</ele>
        <time>2011-06-02T08:53:41Z</time>
      </trkpt>
      <trkpt lat="45.83661" lon="4.80569">
        <ele>430</ele>
        <time>2011-06-02T08:53:42Z</time>
      </trkpt>
      <trkpt lat="45.83665" lon="4.80567">
        <ele>430</ele>
        <time>2011-06-02T08:53:43Z</time>
      </trkpt>
      <trkpt lat="45.83669" lon="4.80564">
        <ele>430</ele>
        <time>2011-06-02T08:53:44Z</time>
      </trkpt>
      <trkpt lat="45.83673" lon="4.80562">
        <ele>430</ele>
        <time>2011-06-02T08:53:45Z</time>
      </trkpt>
      <trkpt lat="45.83677" lon="4.80559">
        <ele>430</ele>
        <time>2011-06-02T08:53:46Z</time>
      </trkpt>
      <trkpt lat="45.83681" lon="4.80556">
        <ele>430</ele>
        <time>2011-06-02T08:53:47Z</time>
      </trkpt>
      <trkpt lat="45.83685" lon="4.80555">
        <ele>430</ele>
        <time>2011-06-02T08:53:48Z</time>
      </trkpt>
      <trkpt lat="45.83689" lon="4.80554">
        <ele>430</ele>
        <time>2011-06-02T08:53:49Z</time>
      </trkpt>
      <trkpt lat="45.83692" lon="4.80553">
        <ele>430</ele>
        <time>2011-06-02T08:53:50Z</time>
      </trkpt>
      <trkpt lat="45.83694" lon="4.80551">
        <ele>430</ele>
        <time>2011-06-02T08:53:51Z</time>
      </trkpt>
      <trkpt lat="45.83697" lon="4.8055">
        <ele>430</ele>
        <time>2011-06-02T08:53:52Z</time>
      </trkpt>
      <trkpt lat="45.83699" lon="4.8055">
        <ele>430</ele>
        <time>2011-06-02T08:53:53Z</time>
      </trkpt>
      <trkpt lat="45.83701" lon="4.80551">
        <ele>430</ele>
        <time>2011-06-02T08:53:54Z</time>
      </trkpt>
      <trkpt lat="45.83703" lon="4.80553">
        <ele>430</ele>
        <time>2011-06-02T08:53:55Z</time>
      </trkpt>
      <trkpt lat="45.83704" lon="4.80556">
        <ele>430</ele>
        <time>2011-06-02T08:53:56Z</time>
      </trkpt>
      <trkpt lat="45.83707" lon="4.80561">
        <ele>430</ele>
        <time>2011-06-02T08:53:57Z</time>
      </trkpt>
      <trkpt lat="45.83709" lon="4.80568">
        <ele>430</ele>
        <time>2011-06-02T08:53:58Z</time>
      </trkpt>
      <trkpt lat="45.83711" lon="4.80576">
        <ele>430</ele>
        <time>2011-06-02T08:53:59Z</time>
      </trkpt>
      <trkpt lat="45.83713" lon="4.80585">
        <ele>430</ele>
        <time>2011-06-02T08:54:00Z</time>
      </trkpt>
      <trkpt lat="45.83714" lon="4.80597">
        <ele>430</ele>
        <time>2011-06-02T08:54:01Z</time>
      </trkpt>
      <trkpt lat="45.83716" lon="4.80608">
        <ele>430</ele>
        <time>2011-06-02T08:54:02Z</time>
      </trkpt>
      <trkpt lat="45.83717" lon="4.8062">
        <ele>430</ele>
        <time>2011-06-02T08:54:03Z</time>
      </trkpt>
      <trkpt lat="45.83719" lon="4.80632">
        <ele>430</ele>
        <time>2011-06-02T08:54:04Z</time>
      </trkpt>
      <trkpt lat="45.83721" lon="4.80643">
        <ele>429</ele>
        <time>2011-06-02T08:54:05Z</time>
      </trkpt>
      <trkpt lat="45.83723" lon="4.80654">
        <ele>428</ele>
        <time>2011-06-02T08:54:06Z</time>
      </trkpt>
      <trkpt lat="45.83724" lon="4.80664">
        <ele>427</ele>
        <time>2011-06-02T08:54:07Z</time>
      </trkpt>
      <trkpt lat="45.83725" lon="4.80673">
        <ele>426</ele>
        <time>2011-06-02T08:54:08Z</time>
      </trkpt>
      <trkpt lat="45.83726" lon="4.80682">
        <ele>424</ele>
        <time>2011-06-02T08:54:09Z</time>
      </trkpt>
      <trkpt lat="45.83727" lon="4.80688">
        <ele>422</ele>
        <time>2011-06-02T08:54:10Z</time>
      </trkpt>
      <trkpt lat="45.83728" lon="4.80692">
        <ele>420</ele>
        <time>2011-06-02T08:54:11Z</time>
      </trkpt>
      <trkpt lat="45.83728" lon="4.80696">
        <ele>419</ele>
        <time>2011-06-02T08:54:12Z</time>
      </trkpt>
      <trkpt lat="45.83729" lon="4.80698">
        <ele>418</ele>
        <time>2011-06-02T08:54:13Z</time>
      </trkpt>
      <trkpt lat="45.8373" lon="4.80698">
        <ele>417</ele>
        <time>2011-06-02T08:54:14Z</time>
      </trkpt>
      <trkpt lat="45.8373" lon="4.807">
        <ele>413</ele>
        <time>2011-06-02T08:54:18Z</time>
      </trkpt>
      <trkpt lat="45.83729" lon="4.80698">
        <ele>410</ele>
        <time>2011-06-02T08:54:22Z</time>
      </trkpt>
      <trkpt lat="45.83731" lon="4.80698">
        <ele>409</ele>
        <time>2011-06-02T08:54:24Z</time>
      </trkpt>
      <trkpt lat="45.83732" lon="4.80697">
        <ele>409</ele>
        <time>2011-06-02T08:54:25Z</time>
      </trkpt>
      <trkpt lat="45.83733" lon="4.80697">
        <ele>409</ele>
        <time>2011-06-02T08:54:26Z</time>
      </trkpt>
      <trkpt lat="45.83735" lon="4.80696">
        <ele>409</ele>
        <time>2011-06-02T08:54:28Z</time>
      </trkpt>
      <trkpt lat="45.83736" lon="4.80695">
        <ele>409</ele>
        <time>2011-06-02T08:54:29Z</time>
      </trkpt>
      <trkpt lat="45.83738" lon="4.80695">
        <ele>409</ele>
        <time>2011-06-02T08:54:30Z</time>
      </trkpt>
      <trkpt lat="45.83739" lon="4.80695">
        <ele>409</ele>
        <time>2011-06-02T08:54:31Z</time>
      </trkpt>
      <trkpt lat="45.83741" lon="4.80694">
        <ele>409</ele>
        <time>2011-06-02T08:54:33Z</time>
      </trkpt>
      <trkpt lat="45.83742" lon="4.80694">
        <ele>409</ele>
        <time>2011-06-02T08:54:34Z</time>
      </trkpt>
      <trkpt lat="45.83743" lon="4.80694">
        <ele>409</ele>
        <time>2011-06-02T08:54:35Z</time>
      </trkpt>
      <trkpt lat="45.83744" lon="4.80694">
        <ele>409</ele>
        <time>2011-06-02T08:54:36Z</time>
      </trkpt>
      <trkpt lat="45.83746" lon="4.80696">
        <ele>409</ele>
        <time>2011-06-02T08:54:38Z</time>
      </trkpt>
      <trkpt lat="45.83748" lon="4.807">
        <ele>409</ele>
        <time>2011-06-02T08:54:40Z</time>
      </trkpt>
      <trkpt lat="45.8375" lon="4.80702">
        <ele>409</ele>
        <time>2011-06-02T08:54:41Z</time>
      </trkpt>
      <trkpt lat="45.83751" lon="4.80704">
        <ele>409</ele>
        <time>2011-06-02T08:54:42Z</time>
      </trkpt>
      <trkpt lat="45.83753" lon="4.80706">
        <ele>409</ele>
        <time>2011-06-02T08:54:43Z</time>
      </trkpt>
      <trkpt lat="45.83754" lon="4.80708">
        <ele>409</ele>
        <time>2011-06-02T08:54:44Z</time>
      </trkpt>
      <trkpt lat="45.83756" lon="4.8071">
        <ele>409</ele>
        <time>2011-06-02T08:54:45Z</time>
      </trkpt>
      <trkpt lat="45.83757" lon="4.80713">
        <ele>409</ele>
        <time>2011-06-02T08:54:46Z</time>
      </trkpt>
      <trkpt lat="45.83758" lon="4.80716">
        <ele>409</ele>
        <time>2011-06-02T08:54:47Z</time>
      </trkpt>
      <trkpt lat="45.8376" lon="4.80718">
        <ele>409</ele>
        <time>2011-06-02T08:54:48Z</time>
      </trkpt>
      <trkpt lat="45.83762" lon="4.8072">
        <ele>409</ele>
        <time>2011-06-02T08:54:49Z</time>
      </trkpt>
      <trkpt lat="45.83764" lon="4.80722">
        <ele>409</ele>
        <time>2011-06-02T08:54:50Z</time>
      </trkpt>
      <trkpt lat="45.83766" lon="4.80725">
        <ele>409</ele>
        <time>2011-06-02T08:54:51Z</time>
      </trkpt>
      <trkpt lat="45.83767" lon="4.80727">
        <ele>409</ele>
        <time>2011-06-02T08:54:52Z</time>
      </trkpt>
      <trkpt lat="45.83769" lon="4.80728">
        <ele>409</ele>
        <time>2011-06-02T08:54:53Z</time>
      </trkpt>
      <trkpt lat="45.83771" lon="4.8073">
        <ele>409</ele>
        <time>2011-06-02T08:54:54Z</time>
      </trkpt>
      <trkpt lat="45.83773" lon="4.80732">
        <ele>409</ele>
        <time>2011-06-02T08:54:55Z</time>
      </trkpt>
      <trkpt lat="45.83775" lon="4.80734">
        <ele>409</ele>
        <time>2011-06-02T08:54:56Z</time>
      </trkpt>
      <trkpt lat="45.83776" lon="4.80736">
        <ele>409</ele>
        <time>2011-06-02T08:54:57Z</time>
      </trkpt>
      <trkpt lat="45.83778" lon="4.80738">
        <ele>409</ele>
        <time>2011-06-02T08:54:58Z</time>
      </trkpt>
      <trkpt lat="45.83779" lon="4.8074">
        <ele>409</ele>
        <time>2011-06-02T08:54:59Z</time>
      </trkpt>
      <trkpt lat="45.83781" lon="4.80742">
        <ele>409</ele>
        <time>2011-06-02T08:55:00Z</time>
      </trkpt>
      <trkpt lat="45.83782" lon="4.80743">
        <ele>409</ele>
        <time>2011-06-02T08:55:01Z</time>
      </trkpt>
      <trkpt lat="45.83784" lon="4.80746">
        <ele>409</ele>
        <time>2011-06-02T08:55:02Z</time>
      </trkpt>
      <trkpt lat="45.83786" lon="4.80748">
        <ele>409</ele>
        <time>2011-06-02T08:55:03Z</time>
      </trkpt>
      <trkpt lat="45.83787" lon="4.8075">
        <ele>409</ele>
        <time>2011-06-02T08:55:04Z</time>
      </trkpt>
      <trkpt lat="45.83789" lon="4.80752">
        <ele>409</ele>
        <time>2011-06-02T08:55:05Z</time>
      </trkpt>
      <trkpt lat="45.8379" lon="4.80754">
        <ele>409</ele>
        <time>2011-06-02T08:55:06Z</time>
      </trkpt>
      <trkpt lat="45.83792" lon="4.80755">
        <ele>409</ele>
        <time>2011-06-02T08:55:07Z</time>
      </trkpt>
      <trkpt lat="45.83794" lon="4.80757">
        <ele>409</ele>
        <time>2011-06-02T08:55:08Z</time>
      </trkpt>
      <trkpt lat="45.83795" lon="4.80759">
        <ele>409</ele>
        <time>2011-06-02T08:55:09Z</time>
      </trkpt>
      <trkpt lat="45.83796" lon="4.80761">
        <ele>409</ele>
        <time>2011-06-02T08:55:10Z</time>
      </trkpt>
      <trkpt lat="45.83797" lon="4.80763">
        <ele>409</ele>
        <time>2011-06-02T08:55:11Z</time>
      </trkpt>
      <trkpt lat="45.83799" lon="4.80765">
        <ele>410</ele>
        <time>2011-06-02T08:55:12Z</time>
      </trkpt>
      <trkpt lat="45.838" lon="4.80767">
        <ele>410</ele>
        <time>2011-06-02T08:55:13Z</time>
      </trkpt>
      <trkpt lat="45.83802" lon="4.8077">
        <ele>411</ele>
        <time>2011-06-02T08:55:14Z</time>
      </trkpt>
      <trkpt lat="45.83803" lon="4.80774">
        <ele>411</ele>
        <time>2011-06-02T08:55:15Z</time>
      </trkpt>
      <trkpt lat="45.83804" lon="4.80777">
        <ele>412</ele>
        <time>2011-06-02T08:55:16Z</time>
      </trkpt>
      <trkpt lat="45.83806" lon="4.8078">
        <ele>412</ele>
        <time>2011-06-02T08:55:17Z</time>
      </trkpt>
      <trkpt lat="45.83807" lon="4.80783">
        <ele>412</ele>
        <time>2011-06-02T08:55:18Z</time>
      </trkpt>
      <trkpt lat="45.83808" lon="4.80786">
        <ele>412</ele>
        <time>2011-06-02T08:55:19Z</time>
      </trkpt>
      <trkpt lat="45.83809" lon="4.80789">
        <ele>412</ele>
        <time>2011-06-02T08:55:20Z</time>
      </trkpt>
      <trkpt lat="45.83811" lon="4.80791">
        <ele>412</ele>
        <time>2011-06-02T08:55:21Z</time>
      </trkpt>
      <trkpt lat="45.83812" lon="4.80794">
        <ele>412</ele>
        <time>2011-06-02T08:55:22Z</time>
      </trkpt>
      <trkpt lat="45.83814" lon="4.80797">
        <ele>412</ele>
        <time>2011-06-02T08:55:23Z</time>
      </trkpt>
      <trkpt lat="45.83816" lon="4.80799">
        <ele>412</ele>
        <time>2011-06-02T08:55:24Z</time>
      </trkpt>
      <trkpt lat="45.83817" lon="4.80802">
        <ele>412</ele>
        <time>2011-06-02T08:55:25Z</time>
      </trkpt>
      <trkpt lat="45.83818" lon="4.80805">
        <ele>412</ele>
        <time>2011-06-02T08:55:26Z</time>
      </trkpt>
      <trkpt lat="45.83818" lon="4.80807">
        <ele>412</ele>
        <time>2011-06-02T08:55:27Z</time>
      </trkpt>
      <trkpt lat="45.83818" lon="4.8081">
        <ele>412</ele>
        <time>2011-06-02T08:55:28Z</time>
      </trkpt>
      <trkpt lat="45.83818" lon="4.80812">
        <ele>413</ele>
        <time>2011-06-02T08:55:29Z</time>
      </trkpt>
      <trkpt lat="45.83819" lon="4.80814">
        <ele>414</ele>
        <time>2011-06-02T08:55:30Z</time>
      </trkpt>
      <trkpt lat="45.83821" lon="4.80816">
        <ele>414</ele>
        <time>2011-06-02T08:55:31Z</time>
      </trkpt>
      <trkpt lat="45.83823" lon="4.80817">
        <ele>415</ele>
        <time>2011-06-02T08:55:32Z</time>
      </trkpt>
      <trkpt lat="45.83825" lon="4.80818">
        <ele>415</ele>
        <time>2011-06-02T08:55:33Z</time>
      </trkpt>
      <trkpt lat="45.83826" lon="4.8082">
        <ele>415</ele>
        <time>2011-06-02T08:55:34Z</time>
      </trkpt>
      <trkpt lat="45.83829" lon="4.8082">
        <ele>415</ele>
        <time>2011-06-02T08:55:35Z</time>
      </trkpt>
      <trkpt lat="45.83831" lon="4.80821">
        <ele>415</ele>
        <time>2011-06-02T08:55:36Z</time>
      </trkpt>
      <trkpt lat="45.83833" lon="4.80822">
        <ele>415</ele>
        <time>2011-06-02T08:55:37Z</time>
      </trkpt>
      <trkpt lat="45.83836" lon="4.80823">
        <ele>415</ele>
        <time>2011-06-02T08:55:38Z</time>
      </trkpt>
      <trkpt lat="45.83838" lon="4.80823">
        <ele>415</ele>
        <time>2011-06-02T08:55:39Z</time>
      </trkpt>
      <trkpt lat="45.83841" lon="4.80824">
        <ele>415</ele>
        <time>2011-06-02T08:55:40Z</time>
      </trkpt>
      <trkpt lat="45.83843" lon="4.80823">
        <ele>415</ele>
        <time>2011-06-02T08:55:41Z</time>
      </trkpt>
      <trkpt lat="45.83846" lon="4.80824">
        <ele>415</ele>
        <time>2011-06-02T08:55:42Z</time>
      </trkpt>
      <trkpt lat="45.83847" lon="4.80825">
        <ele>415</ele>
        <time>2011-06-02T08:55:43Z</time>
      </trkpt>
      <trkpt lat="45.83849" lon="4.80825">
        <ele>415</ele>
        <time>2011-06-02T08:55:44Z</time>
      </trkpt>
      <trkpt lat="45.83851" lon="4.80825">
        <ele>415</ele>
        <time>2011-06-02T08:55:45Z</time>
      </trkpt>
      <trkpt lat="45.83853" lon="4.80825">
        <ele>415</ele>
        <time>2011-06-02T08:55:46Z</time>
      </trkpt>
      <trkpt lat="45.83855" lon="4.80826">
        <ele>415</ele>
        <time>2011-06-02T08:55:47Z</time>
      </trkpt>
      <trkpt lat="45.83857" lon="4.80827">
        <ele>415</ele>
        <time>2011-06-02T08:55:48Z</time>
      </trkpt>
      <trkpt lat="45.83859" lon="4.80828">
        <ele>415</ele>
        <time>2011-06-02T08:55:49Z</time>
      </trkpt>
      <trkpt lat="45.83861" lon="4.80828">
        <ele>415</ele>
        <time>2011-06-02T08:55:50Z</time>
      </trkpt>
      <trkpt lat="45.83864" lon="4.80828">
        <ele>415</ele>
        <time>2011-06-02T08:55:51Z</time>
      </trkpt>
      <trkpt lat="45.83867" lon="4.80828">
        <ele>415</ele>
        <time>2011-06-02T08:55:52Z</time>
      </trkpt>
      <trkpt lat="45.83869" lon="4.80827">
        <ele>415</ele>
        <time>2011-06-02T08:55:53Z</time>
      </trkpt>
      <trkpt lat="45.83871" lon="4.80827">
        <ele>415</ele>
        <time>2011-06-02T08:55:54Z</time>
      </trkpt>
      <trkpt lat="45.83873" lon="4.80826">
        <ele>414</ele>
        <time>2011-06-02T08:55:55Z</time>
      </trkpt>
      <trkpt lat="45.83875" lon="4.80826">
        <ele>413</ele>
        <time>2011-06-02T08:55:56Z</time>
      </trkpt>
      <trkpt lat="45.83877" lon="4.80826">
        <ele>413</ele>
        <time>2011-06-02T08:55:57Z</time>
      </trkpt>
      <trkpt lat="45.83879" lon="4.80825">
        <ele>413</ele>
        <time>2011-06-02T08:55:58Z</time>
      </trkpt>
      <trkpt lat="45.83881" lon="4.80825">
        <ele>413</ele>
        <time>2011-06-02T08:55:59Z</time>
      </trkpt>
      <trkpt lat="45.83884" lon="4.80824">
        <ele>413</ele>
        <time>2011-06-02T08:56:00Z</time>
      </trkpt>
      <trkpt lat="45.83886" lon="4.80824">
        <ele>412</ele>
        <time>2011-06-02T08:56:01Z</time>
      </trkpt>
      <trkpt lat="45.83887" lon="4.80823">
        <ele>412</ele>
        <time>2011-06-02T08:56:02Z</time>
      </trkpt>
      <trkpt lat="45.8389" lon="4.80823">
        <ele>412</ele>
        <time>2011-06-02T08:56:03Z</time>
      </trkpt>
      <trkpt lat="45.83892" lon="4.80823">
        <ele>411</ele>
        <time>2011-06-02T08:56:04Z</time>
      </trkpt>
      <trkpt lat="45.83894" lon="4.80823">
        <ele>411</ele>
        <time>2011-06-02T08:56:05Z</time>
      </trkpt>
      <trkpt lat="45.83896" lon="4.80823">
        <ele>411</ele>
        <time>2011-06-02T08:56:06Z</time>
      </trkpt>
      <trkpt lat="45.83898" lon="4.80823">
        <ele>410</ele>
        <time>2011-06-02T08:56:08Z</time>
      </trkpt>
      <trkpt lat="45.839" lon="4.80823">
        <ele>409</ele>
        <time>2011-06-02T08:56:09Z</time>
      </trkpt>
      <trkpt lat="45.83902" lon="4.80822">
        <ele>408</ele>
        <time>2011-06-02T08:56:10Z</time>
      </trkpt>
      <trkpt lat="45.83905" lon="4.80822">
        <ele>408</ele>
        <time>2011-06-02T08:56:11Z</time>
      </trkpt>
      <trkpt lat="45.83907" lon="4.80822">
        <ele>408</ele>
        <time>2011-06-02T08:56:12Z</time>
      </trkpt>
      <trkpt lat="45.83909" lon="4.80822">
        <ele>408</ele>
        <time>2011-06-02T08:56:13Z</time>
      </trkpt>
      <trkpt lat="45.83911" lon="4.80821">
        <ele>408</ele>
        <time>2011-06-02T08:56:14Z</time>
      </trkpt>
      <trkpt lat="45.83912" lon="4.80823">
        <ele>408</ele>
        <time>2011-06-02T08:56:15Z</time>
      </trkpt>
      <trkpt lat="45.83914" lon="4.80824">
        <ele>408</ele>
        <time>2011-06-02T08:56:16Z</time>
      </trkpt>
      <trkpt lat="45.83916" lon="4.80825">
        <ele>408</ele>
        <time>2011-06-02T08:56:17Z</time>
      </trkpt>
      <trkpt lat="45.83919" lon="4.80825">
        <ele>408</ele>
        <time>2011-06-02T08:56:18Z</time>
      </trkpt>
      <trkpt lat="45.8392" lon="4.80825">
        <ele>408</ele>
        <time>2011-06-02T08:56:19Z</time>
      </trkpt>
      <trkpt lat="45.83922" lon="4.80825">
        <ele>408</ele>
        <time>2011-06-02T08:56:20Z</time>
      </trkpt>
      <trkpt lat="45.83925" lon="4.80826">
        <ele>408</ele>
        <time>2011-06-02T08:56:21Z</time>
      </trkpt>
      <trkpt lat="45.83927" lon="4.80826">
        <ele>408</ele>
        <time>2011-06-02T08:56:22Z</time>
      </trkpt>
      <trkpt lat="45.83928" lon="4.80826">
        <ele>408</ele>
        <time>2011-06-02T08:56:23Z</time>
      </trkpt>
      <trkpt lat="45.8393" lon="4.80826">
        <ele>408</ele>
        <time>2011-06-02T08:56:24Z</time>
      </trkpt>
      <trkpt lat="45.83933" lon="4.80826">
        <ele>408</ele>
        <time>2011-06-02T08:56:25Z</time>
      </trkpt>
      <trkpt lat="45.83935" lon="4.80826">
        <ele>408</ele>
        <time>2011-06-02T08:56:26Z</time>
      </trkpt>
      <trkpt lat="45.83937" lon="4.80826">
        <ele>408</ele>
        <time>2011-06-02T08:56:27Z</time>
      </trkpt>
      <trkpt lat="45.83939" lon="4.80826">
        <ele>408</ele>
        <time>2011-06-02T08:56:28Z</time>
      </trkpt>
      <trkpt lat="45.83942" lon="4.80826">
        <ele>408</ele>
        <time>2011-06-02T08:56:29Z</time>
      </trkpt>
      <trkpt lat="45.83944" lon="4.80827">
        <ele>408</ele>
        <time>2011-06-02T08:56:30Z</time>
      </trkpt>
      <trkpt lat="45.83945" lon="4.80827">
        <ele>408</ele>
        <time>2011-06-02T08:56:31Z</time>
      </trkpt>
      <trkpt lat="45.83947" lon="4.80828">
        <ele>408</ele>
        <time>2011-06-02T08:56:32Z</time>
      </trkpt>
      <trkpt lat="45.83949" lon="4.80828">
        <ele>408</ele>
        <time>2011-06-02T08:56:33Z</time>
      </trkpt>
      <trkpt lat="45.83951" lon="4.80829">
        <ele>408</ele>
        <time>2011-06-02T08:56:34Z</time>
      </trkpt>
      <trkpt lat="45.83953" lon="4.80828">
        <ele>408</ele>
        <time>2011-06-02T08:56:35Z</time>
      </trkpt>
      <trkpt lat="45.83955" lon="4.80828">
        <ele>408</ele>
        <time>2011-06-02T08:56:36Z</time>
      </trkpt>
      <trkpt lat="45.83957" lon="4.8083">
        <ele>408</ele>
        <time>2011-06-02T08:56:37Z</time>
      </trkpt>
      <trkpt lat="45.83958" lon="4.80834">
        <ele>408</ele>
        <time>2011-06-02T08:56:38Z</time>
      </trkpt>
      <trkpt lat="45.83959" lon="4.80838">
        <ele>408</ele>
        <time>2011-06-02T08:56:39Z</time>
      </trkpt>
      <trkpt lat="45.8396" lon="4.8084">
        <ele>408</ele>
        <time>2011-06-02T08:56:40Z</time>
      </trkpt>
      <trkpt lat="45.8396" lon="4.80843">
        <ele>408</ele>
        <time>2011-06-02T08:56:41Z</time>
      </trkpt>
      <trkpt lat="45.8396" lon="4.80847">
        <ele>409</ele>
        <time>2011-06-02T08:56:42Z</time>
      </trkpt>
      <trkpt lat="45.8396" lon="4.80851">
        <ele>410</ele>
        <time>2011-06-02T08:56:43Z</time>
      </trkpt>
      <trkpt lat="45.8396" lon="4.80853">
        <ele>410</ele>
        <time>2011-06-02T08:56:44Z</time>
      </trkpt>
      <trkpt lat="45.83961" lon="4.80857">
        <ele>411</ele>
        <time>2011-06-02T08:56:45Z</time>
      </trkpt>
      <trkpt lat="45.83962" lon="4.8086">
        <ele>412</ele>
        <time>2011-06-02T08:56:46Z</time>
      </trkpt>
      <trkpt lat="45.83962" lon="4.80862">
        <ele>413</ele>
        <time>2011-06-02T08:56:47Z</time>
      </trkpt>
      <trkpt lat="45.83963" lon="4.80866">
        <ele>413</ele>
        <time>2011-06-02T08:56:48Z</time>
      </trkpt>
      <trkpt lat="45.83963" lon="4.80869">
        <ele>414</ele>
        <time>2011-06-02T08:56:49Z</time>
      </trkpt>
      <trkpt lat="45.83963" lon="4.80872">
        <ele>414</ele>
        <time>2011-06-02T08:56:50Z</time>
      </trkpt>
      <trkpt lat="45.83963" lon="4.80875">
        <ele>415</ele>
        <time>2011-06-02T08:56:51Z</time>
      </trkpt>
      <trkpt lat="45.83963" lon="4.80878">
        <ele>415</ele>
        <time>2011-06-02T08:56:52Z</time>
      </trkpt>
      <trkpt lat="45.83961" lon="4.80883">
        <ele>416</ele>
        <time>2011-06-02T08:56:53Z</time>
      </trkpt>
      <trkpt lat="45.83961" lon="4.80886">
        <ele>417</ele>
        <time>2011-06-02T08:56:54Z</time>
      </trkpt>
      <trkpt lat="45.8396" lon="4.80891">
        <ele>418</ele>
        <time>2011-06-02T08:56:55Z</time>
      </trkpt>
      <trkpt lat="45.83959" lon="4.80895">
        <ele>419</ele>
        <time>2011-06-02T08:56:56Z</time>
      </trkpt>
      <trkpt lat="45.83958" lon="4.80899">
        <ele>420</ele>
        <time>2011-06-02T08:56:57Z</time>
      </trkpt>
      <trkpt lat="45.83958" lon="4.80903">
        <ele>421</ele>
        <time>2011-06-02T08:56:58Z</time>
      </trkpt>
      <trkpt lat="45.83957" lon="4.80907">
        <ele>422</ele>
        <time>2011-06-02T08:56:59Z</time>
      </trkpt>
      <trkpt lat="45.83957" lon="4.80911">
        <ele>423</ele>
        <time>2011-06-02T08:57:00Z</time>
      </trkpt>
      <trkpt lat="45.83956" lon="4.80914">
        <ele>424</ele>
        <time>2011-06-02T08:57:01Z</time>
      </trkpt>
      <trkpt lat="45.83955" lon="4.80917">
        <ele>425</ele>
        <time>2011-06-02T08:57:02Z</time>
      </trkpt>
      <trkpt lat="45.83955" lon="4.80921">
        <ele>426</ele>
        <time>2011-06-02T08:57:03Z</time>
      </trkpt>
      <trkpt lat="45.83954" lon="4.80924">
        <ele>427</ele>
        <time>2011-06-02T08:57:04Z</time>
      </trkpt>
      <trkpt lat="45.83954" lon="4.80927">
        <ele>428</ele>
        <time>2011-06-02T08:57:05Z</time>
      </trkpt>
      <trkpt lat="45.83954" lon="4.8093">
        <ele>429</ele>
        <time>2011-06-02T08:57:06Z</time>
      </trkpt>
      <trkpt lat="45.83953" lon="4.80933">
        <ele>430</ele>
        <time>2011-06-02T08:57:07Z</time>
      </trkpt>
      <trkpt lat="45.83953" lon="4.80936">
        <ele>431</ele>
        <time>2011-06-02T08:57:08Z</time>
      </trkpt>
      <trkpt lat="45.83952" lon="4.80939">
        <ele>431</ele>
        <time>2011-06-02T08:57:09Z</time>
      </trkpt>
      <trkpt lat="45.83952" lon="4.80942">
        <ele>431</ele>
        <time>2011-06-02T08:57:10Z</time>
      </trkpt>
      <trkpt lat="45.83952" lon="4.80944">
        <ele>431</ele>
        <time>2011-06-02T08:57:11Z</time>
      </trkpt>
      <trkpt lat="45.83952" lon="4.80947">
        <ele>431</ele>
        <time>2011-06-02T08:57:12Z</time>
      </trkpt>
      <trkpt lat="45.83952" lon="4.8095">
        <ele>431</ele>
        <time>2011-06-02T08:57:13Z</time>
      </trkpt>
      <trkpt lat="45.83951" lon="4.80951">
        <ele>431</ele>
        <time>2011-06-02T08:57:14Z</time>
      </trkpt>
      <trkpt lat="45.8395" lon="4.80952">
        <ele>431</ele>
        <time>2011-06-02T08:57:16Z</time>
      </trkpt>
      <trkpt lat="45.8395" lon="4.80954">
        <ele>431</ele>
        <time>2011-06-02T08:57:19Z</time>
      </trkpt>
      <trkpt lat="45.83951" lon="4.80956">
        <ele>431</ele>
        <time>2011-06-02T08:57:22Z</time>
      </trkpt>
      <trkpt lat="45.83952" lon="4.80957">
        <ele>431</ele>
        <time>2011-06-02T08:57:26Z</time>
      </trkpt>
      <trkpt lat="45.8395" lon="4.80958">
        <ele>431</ele>
        <time>2011-06-02T08:57:36Z</time>
      </trkpt>
      <trkpt lat="45.83949" lon="4.80958">
        <ele>431</ele>
        <time>2011-06-02T08:57:37Z</time>
      </trkpt>
      <trkpt lat="45.83948" lon="4.80957">
        <ele>431</ele>
        <time>2011-06-02T08:57:40Z</time>
      </trkpt>
      <trkpt lat="45.83947" lon="4.80958">
        <ele>429</ele>
        <time>2011-06-02T08:57:46Z</time>
      </trkpt>
      <trkpt lat="45.83945" lon="4.80958">
        <ele>429</ele>
        <time>2011-06-02T08:57:53Z</time>
      </trkpt>
      <trkpt lat="45.83944" lon="4.80958">
        <ele>429</ele>
        <time>2011-06-02T08:57:55Z</time>
      </trkpt>
      <trkpt lat="45.83942" lon="4.80956">
        <ele>429</ele>
        <time>2011-06-02T08:57:57Z</time>
      </trkpt>
      <trkpt lat="45.83941" lon="4.80955">
        <ele>429</ele>
        <time>2011-06-02T08:58:01Z</time>
      </trkpt>
      <trkpt lat="45.83939" lon="4.80953">
        <ele>429</ele>
        <time>2011-06-02T08:58:02Z</time>
      </trkpt>
      <trkpt lat="45.83938" lon="4.80951">
        <ele>429</ele>
        <time>2011-06-02T08:58:04Z</time>
      </trkpt>
      <trkpt lat="45.83936" lon="4.8095">
        <ele>430</ele>
        <time>2011-06-02T08:58:07Z</time>
      </trkpt>
      <trkpt lat="45.83937" lon="4.80953">
        <ele>430</ele>
        <time>2011-06-02T08:58:09Z</time>
      </trkpt>
      <trkpt lat="45.83938" lon="4.80956">
        <ele>430</ele>
        <time>2011-06-02T08:58:11Z</time>
      </trkpt>
      <trkpt lat="45.83939" lon="4.80958">
        <ele>430</ele>
        <time>2011-06-02T08:58:12Z</time>
      </trkpt>
      <trkpt lat="45.83939" lon="4.8096">
        <ele>430</ele>
        <time>2011-06-02T08:58:13Z</time>
      </trkpt>
      <trkpt lat="45.83939" lon="4.80962">
        <ele>430</ele>
        <time>2011-06-02T08:58:14Z</time>
      </trkpt>
      <trkpt lat="45.83939" lon="4.80965">
        <ele>430</ele>
        <time>2011-06-02T08:58:15Z</time>
      </trkpt>
      <trkpt lat="45.8394" lon="4.80968">
        <ele>430</ele>
        <time>2011-06-02T08:58:16Z</time>
      </trkpt>
      <trkpt lat="45.83941" lon="4.8097">
        <ele>430</ele>
        <time>2011-06-02T08:58:17Z</time>
      </trkpt>
      <trkpt lat="45.83941" lon="4.80973">
        <ele>430</ele>
        <time>2011-06-02T08:58:18Z</time>
      </trkpt>
      <trkpt lat="45.83942" lon="4.80976">
        <ele>430</ele>
        <time>2011-06-02T08:58:19Z</time>
      </trkpt>
      <trkpt lat="45.83942" lon="4.80979">
        <ele>430</ele>
        <time>2011-06-02T08:58:20Z</time>
      </trkpt>
      <trkpt lat="45.83943" lon="4.80982">
        <ele>430</ele>
        <time>2011-06-02T08:58:21Z</time>
      </trkpt>
      <trkpt lat="45.83944" lon="4.80984">
        <ele>430</ele>
        <time>2011-06-02T08:58:22Z</time>
      </trkpt>
      <trkpt lat="45.83944" lon="4.80987">
        <ele>430</ele>
        <time>2011-06-02T08:58:23Z</time>
      </trkpt>
      <trkpt lat="45.83944" lon="4.8099">
        <ele>430</ele>
        <time>2011-06-02T08:58:24Z</time>
      </trkpt>
      <trkpt lat="45.83944" lon="4.80992">
        <ele>430</ele>
        <time>2011-06-02T08:58:25Z</time>
      </trkpt>
      <trkpt lat="45.83943" lon="4.80996">
        <ele>430</ele>
        <time>2011-06-02T08:58:26Z</time>
      </trkpt>
      <trkpt lat="45.83942" lon="4.80999">
        <ele>430</ele>
        <time>2011-06-02T08:58:27Z</time>
      </trkpt>
      <trkpt lat="45.83942" lon="4.81002">
        <ele>430</ele>
        <time>2011-06-02T08:58:28Z</time>
      </trkpt>
      <trkpt lat="45.83943" lon="4.81006">
        <ele>430</ele>
        <time>2011-06-02T08:58:29Z</time>
      </trkpt>
      <trkpt lat="45.83943" lon="4.8101">
        <ele>430</ele>
        <time>2011-06-02T08:58:30Z</time>
      </trkpt>
      <trkpt lat="45.83945" lon="4.81013">
        <ele>430</ele>
        <time>2011-06-02T08:58:31Z</time>
      </trkpt>
      <trkpt lat="45.83945" lon="4.81016">
        <ele>430</ele>
        <time>2011-06-02T08:58:32Z</time>
      </trkpt>
      <trkpt lat="45.83945" lon="4.81019">
        <ele>429</ele>
        <time>2011-06-02T08:58:33Z</time>
      </trkpt>
      <trkpt lat="45.83946" lon="4.81022">
        <ele>428</ele>
        <time>2011-06-02T08:58:34Z</time>
      </trkpt>
      <trkpt lat="45.83946" lon="4.81025">
        <ele>427</ele>
        <time>2011-06-02T08:58:35Z</time>
      </trkpt>
      <trkpt lat="45.83945" lon="4.81028">
        <ele>426</ele>
        <time>2011-06-02T08:58:36Z</time>
      </trkpt>
      <trkpt lat="45.83946" lon="4.81032">
        <ele>426</ele>
        <time>2011-06-02T08:58:37Z</time>
      </trkpt>
      <trkpt lat="45.83947" lon="4.81035">
        <ele>426</ele>
        <time>2011-06-02T08:58:38Z</time>
      </trkpt>
      <trkpt lat="45.83948" lon="4.81037">
        <ele>426</ele>
        <time>2011-06-02T08:58:39Z</time>
      </trkpt>
      <trkpt lat="45.83948" lon="4.8104">
        <ele>426</ele>
        <time>2011-06-02T08:58:40Z</time>
      </trkpt>
      <trkpt lat="45.83947" lon="4.81044">
        <ele>426</ele>
        <time>2011-06-02T08:58:41Z</time>
      </trkpt>
      <trkpt lat="45.83946" lon="4.81048">
        <ele>426</ele>
        <time>2011-06-02T08:58:42Z</time>
      </trkpt>
      <trkpt lat="45.83948" lon="4.81051">
        <ele>426</ele>
        <time>2011-06-02T08:58:43Z</time>
      </trkpt>
      <trkpt lat="45.83949" lon="4.81053">
        <ele>426</ele>
        <time>2011-06-02T08:58:44Z</time>
      </trkpt>
      <trkpt lat="45.83949" lon="4.81057">
        <ele>426</ele>
        <time>2011-06-02T08:58:45Z</time>
      </trkpt>
      <trkpt lat="45.83948" lon="4.81061">
        <ele>426</ele>
        <time>2011-06-02T08:58:46Z</time>
      </trkpt>
      <trkpt lat="45.83949" lon="4.81066">
        <ele>426</ele>
        <time>2011-06-02T08:58:47Z</time>
      </trkpt>
      <trkpt lat="45.83951" lon="4.8107">
        <ele>426</ele>
        <time>2011-06-02T08:58:48Z</time>
      </trkpt>
      <trkpt lat="45.83952" lon="4.81073">
        <ele>426</ele>
        <time>2011-06-02T08:58:49Z</time>
      </trkpt>
      <trkpt lat="45.83955" lon="4.81077">
        <ele>426</ele>
        <time>2011-06-02T08:58:50Z</time>
      </trkpt>
      <trkpt lat="45.83956" lon="4.8108">
        <ele>426</ele>
        <time>2011-06-02T08:58:51Z</time>
      </trkpt>
      <trkpt lat="45.83958" lon="4.81084">
        <ele>426</ele>
        <time>2011-06-02T08:58:52Z</time>
      </trkpt>
      <trkpt lat="45.83958" lon="4.81087">
        <ele>426</ele>
        <time>2011-06-02T08:58:53Z</time>
      </trkpt>
      <trkpt lat="45.83958" lon="4.81091">
        <ele>426</ele>
        <time>2011-06-02T08:58:54Z</time>
      </trkpt>
      <trkpt lat="45.83958" lon="4.81094">
        <ele>426</ele>
        <time>2011-06-02T08:58:55Z</time>
      </trkpt>
      <trkpt lat="45.8396" lon="4.81097">
        <ele>426</ele>
        <time>2011-06-02T08:58:56Z</time>
      </trkpt>
      <trkpt lat="45.83961" lon="4.81102">
        <ele>426</ele>
        <time>2011-06-02T08:58:57Z</time>
      </trkpt>
      <trkpt lat="45.83962" lon="4.81106">
        <ele>426</ele>
        <time>2011-06-02T08:58:58Z</time>
      </trkpt>
      <trkpt lat="45.83963" lon="4.81109">
        <ele>426</ele>
        <time>2011-06-02T08:58:59Z</time>
      </trkpt>
      <trkpt lat="45.83965" lon="4.81114">
        <ele>427</ele>
        <time>2011-06-02T08:59:00Z</time>
      </trkpt>
      <trkpt lat="45.83966" lon="4.81118">
        <ele>428</ele>
        <time>2011-06-02T08:59:01Z</time>
      </trkpt>
      <trkpt lat="45.83968" lon="4.81122">
        <ele>428</ele>
        <time>2011-06-02T08:59:02Z</time>
      </trkpt>
      <trkpt lat="45.83969" lon="4.81127">
        <ele>429</ele>
        <time>2011-06-02T08:59:03Z</time>
      </trkpt>
      <trkpt lat="45.83971" lon="4.81131">
        <ele>429</ele>
        <time>2011-06-02T08:59:04Z</time>
      </trkpt>
      <trkpt lat="45.83971" lon="4.81134">
        <ele>429</ele>
        <time>2011-06-02T08:59:05Z</time>
      </trkpt>
      <trkpt lat="45.83971" lon="4.81138">
        <ele>430</ele>
        <time>2011-06-02T08:59:06Z</time>
      </trkpt>
      <trkpt lat="45.83973" lon="4.81141">
        <ele>430</ele>
        <time>2011-06-02T08:59:07Z</time>
      </trkpt>
      <trkpt lat="45.83973" lon="4.81144">
        <ele>430</ele>
        <time>2011-06-02T08:59:08Z</time>
      </trkpt>
      <trkpt lat="45.83973" lon="4.81147">
        <ele>430</ele>
        <time>2011-06-02T08:59:09Z</time>
      </trkpt>
      <trkpt lat="45.83975" lon="4.81151">
        <ele>431</ele>
        <time>2011-06-02T08:59:10Z</time>
      </trkpt>
      <trkpt lat="45.83977" lon="4.81155">
        <ele>431</ele>
        <time>2011-06-02T08:59:11Z</time>
      </trkpt>
      <trkpt lat="45.83979" lon="4.81159">
        <ele>431</ele>
        <time>2011-06-02T08:59:12Z</time>
      </trkpt>
      <trkpt lat="45.83981" lon="4.81163">
        <ele>431</ele>
        <time>2011-06-02T08:59:13Z</time>
      </trkpt>
      <trkpt lat="45.83982" lon="4.81166">
        <ele>431</ele>
        <time>2011-06-02T08:59:14Z</time>
      </trkpt>
      <trkpt lat="45.83984" lon="4.8117">
        <ele>431</ele>
        <time>2011-06-02T08:59:15Z</time>
      </trkpt>
      <trkpt lat="45.83985" lon="4.81173">
        <ele>431</ele>
        <time>2011-06-02T08:59:16Z</time>
      </trkpt>
      <trkpt lat="45.83987" lon="4.81176">
        <ele>431</ele>
        <time>2011-06-02T08:59:17Z</time>
      </trkpt>
      <trkpt lat="45.83988" lon="4.81179">
        <ele>431</ele>
        <time>2011-06-02T08:59:18Z</time>
      </trkpt>
      <trkpt lat="45.8399" lon="4.81182">
        <ele>431</ele>
        <time>2011-06-02T08:59:19Z</time>
      </trkpt>
      <trkpt lat="45.8399" lon="4.81184">
        <ele>431</ele>
        <time>2011-06-02T08:59:20Z</time>
      </trkpt>
      <trkpt lat="45.83992" lon="4.81187">
        <ele>431</ele>
        <time>2011-06-02T08:59:21Z</time>
      </trkpt>
      <trkpt lat="45.83994" lon="4.81191">
        <ele>431</ele>
        <time>2011-06-02T08:59:22Z</time>
      </trkpt>
      <trkpt lat="45.83996" lon="4.81194">
        <ele>431</ele>
        <time>2011-06-02T08:59:23Z</time>
      </trkpt>
      <trkpt lat="45.83997" lon="4.81196">
        <ele>431</ele>
        <time>2011-06-02T08:59:24Z</time>
      </trkpt>
      <trkpt lat="45.83998" lon="4.81198">
        <ele>431</ele>
        <time>2011-06-02T08:59:25Z</time>
      </trkpt>
      <trkpt lat="45.84" lon="4.812">
        <ele>431</ele>
        <time>2011-06-02T08:59:26Z</time>
      </trkpt>
      <trkpt lat="45.84001" lon="4.81203">
        <ele>431</ele>
        <time>2011-06-02T08:59:27Z</time>
      </trkpt>
      <trkpt lat="45.84003" lon="4.81206">
        <ele>431</ele>
        <time>2011-06-02T08:59:28Z</time>
      </trkpt>
      <trkpt lat="45.84005" lon="4.81209">
        <ele>431</ele>
        <time>2011-06-02T08:59:29Z</time>
      </trkpt>
      <trkpt lat="45.84007" lon="4.8121">
        <ele>432</ele>
        <time>2011-06-02T08:59:30Z</time>
      </trkpt>
      <trkpt lat="45.84008" lon="4.81212">
        <ele>432</ele>
        <time>2011-06-02T08:59:31Z</time>
      </trkpt>
      <trkpt lat="45.84011" lon="4.81214">
        <ele>432</ele>
        <time>2011-06-02T08:59:32Z</time>
      </trkpt>
      <trkpt lat="45.84012" lon="4.81216">
        <ele>433</ele>
        <time>2011-06-02T08:59:33Z</time>
      </trkpt>
      <trkpt lat="45.84014" lon="4.81218">
        <ele>433</ele>
        <time>2011-06-02T08:59:34Z</time>
      </trkpt>
      <trkpt lat="45.84016" lon="4.81219">
        <ele>433</ele>
        <time>2011-06-02T08:59:35Z</time>
      </trkpt>
      <trkpt lat="45.84018" lon="4.81221">
        <ele>433</ele>
        <time>2011-06-02T08:59:36Z</time>
      </trkpt>
      <trkpt lat="45.8402" lon="4.81222">
        <ele>433</ele>
        <time>2011-06-02T08:59:37Z</time>
      </trkpt>
      <trkpt lat="45.84022" lon="4.81223">
        <ele>433</ele>
        <time>2011-06-02T08:59:38Z</time>
      </trkpt>
      <trkpt lat="45.84025" lon="4.81224">
        <ele>433</ele>
        <time>2011-06-02T08:59:39Z</time>
      </trkpt>
      <trkpt lat="45.84029" lon="4.81226">
        <ele>433</ele>
        <time>2011-06-02T08:59:40Z</time>
      </trkpt>
      <trkpt lat="45.84031" lon="4.81227">
        <ele>433</ele>
        <time>2011-06-02T08:59:41Z</time>
      </trkpt>
      <trkpt lat="45.84033" lon="4.81228">
        <ele>433</ele>
        <time>2011-06-02T08:59:42Z</time>
      </trkpt>
      <trkpt lat="45.84035" lon="4.81229">
        <ele>433</ele>
        <time>2011-06-02T08:59:43Z</time>
      </trkpt>
      <trkpt lat="45.84039" lon="4.8123">
        <ele>433</ele>
        <time>2011-06-02T08:59:44Z</time>
      </trkpt>
      <trkpt lat="45.84043" lon="4.81231">
        <ele>433</ele>
        <time>2011-06-02T08:59:45Z</time>
      </trkpt>
      <trkpt lat="45.84046" lon="4.81231">
        <ele>432</ele>
        <time>2011-06-02T08:59:46Z</time>
      </trkpt>
      <trkpt lat="45.84049" lon="4.81231">
        <ele>432</ele>
        <time>2011-06-02T08:59:47Z</time>
      </trkpt>
      <trkpt lat="45.84052" lon="4.81232">
        <ele>431</ele>
        <time>2011-06-02T08:59:48Z</time>
      </trkpt>
      <trkpt lat="45.84055" lon="4.81232">
        <ele>430</ele>
        <time>2011-06-02T08:59:49Z</time>
      </trkpt>
      <trkpt lat="45.84058" lon="4.81232">
        <ele>430</ele>
        <time>2011-06-02T08:59:50Z</time>
      </trkpt>
      <trkpt lat="45.84061" lon="4.81232">
        <ele>430</ele>
        <time>2011-06-02T08:59:51Z</time>
      </trkpt>
      <trkpt lat="45.84064" lon="4.81232">
        <ele>429</ele>
        <time>2011-06-02T08:59:52Z</time>
      </trkpt>
      <trkpt lat="45.84066" lon="4.81233">
        <ele>429</ele>
        <time>2011-06-02T08:59:53Z</time>
      </trkpt>
      <trkpt lat="45.84068" lon="4.81233">
        <ele>429</ele>
        <time>2011-06-02T08:59:54Z</time>
      </trkpt>
      <trkpt lat="45.8407" lon="4.81233">
        <ele>429</ele>
        <time>2011-06-02T08:59:55Z</time>
      </trkpt>
      <trkpt lat="45.8407" lon="4.81235">
        <ele>428</ele>
        <time>2011-06-02T08:59:57Z</time>
      </trkpt>
      <trkpt lat="45.84071" lon="4.81237">
        <ele>428</ele>
        <time>2011-06-02T08:59:59Z</time>
      </trkpt>
      <trkpt lat="45.84071" lon="4.81238">
        <ele>428</ele>
        <time>2011-06-02T09:00:01Z</time>
      </trkpt>
      <trkpt lat="45.84071" lon="4.8124">
        <ele>428</ele>
        <time>2011-06-02T09:00:04Z</time>
      </trkpt>
      <trkpt lat="45.84071" lon="4.81242">
        <ele>428</ele>
        <time>2011-06-02T09:00:08Z</time>
      </trkpt>
      <trkpt lat="45.84073" lon="4.81243">
        <ele>428</ele>
        <time>2011-06-02T09:00:10Z</time>
      </trkpt>
      <trkpt lat="45.84075" lon="4.81242">
        <ele>428</ele>
        <time>2011-06-02T09:00:12Z</time>
      </trkpt>
      <trkpt lat="45.84077" lon="4.81242">
        <ele>428</ele>
        <time>2011-06-02T09:00:13Z</time>
      </trkpt>
      <trkpt lat="45.8408" lon="4.81242">
        <ele>428</ele>
        <time>2011-06-02T09:00:14Z</time>
      </trkpt>
      <trkpt lat="45.84083" lon="4.81242">
        <ele>428</ele>
        <time>2011-06-02T09:00:15Z</time>
      </trkpt>
      <trkpt lat="45.84086" lon="4.81243">
        <ele>428</ele>
        <time>2011-06-02T09:00:16Z</time>
      </trkpt>
      <trkpt lat="45.84088" lon="4.81242">
        <ele>428</ele>
        <time>2011-06-02T09:00:17Z</time>
      </trkpt>
      <trkpt lat="45.84092" lon="4.81242">
        <ele>427</ele>
        <time>2011-06-02T09:00:18Z</time>
      </trkpt>
      <trkpt lat="45.84095" lon="4.81242">
        <ele>426</ele>
        <time>2011-06-02T09:00:19Z</time>
      </trkpt>
      <trkpt lat="45.84099" lon="4.81242">
        <ele>426</ele>
        <time>2011-06-02T09:00:20Z</time>
      </trkpt>
      <trkpt lat="45.84103" lon="4.81244">
        <ele>425</ele>
        <time>2011-06-02T09:00:21Z</time>
      </trkpt>
      <trkpt lat="45.84107" lon="4.81246">
        <ele>425</ele>
        <time>2011-06-02T09:00:22Z</time>
      </trkpt>
      <trkpt lat="45.84112" lon="4.81246">
        <ele>425</ele>
        <time>2011-06-02T09:00:23Z</time>
      </trkpt>
      <trkpt lat="45.84116" lon="4.81246">
        <ele>425</ele>
        <time>2011-06-02T09:00:24Z</time>
      </trkpt>
      <trkpt lat="45.8412" lon="4.81245">
        <ele>425</ele>
        <time>2011-06-02T09:00:25Z</time>
      </trkpt>
      <trkpt lat="45.84124" lon="4.81243">
        <ele>425</ele>
        <time>2011-06-02T09:00:26Z</time>
      </trkpt>
      <trkpt lat="45.84129" lon="4.81243">
        <ele>425</ele>
        <time>2011-06-02T09:00:27Z</time>
      </trkpt>
      <trkpt lat="45.84133" lon="4.81243">
        <ele>425</ele>
        <time>2011-06-02T09:00:28Z</time>
      </trkpt>
      <trkpt lat="45.84138" lon="4.81242">
        <ele>425</ele>
        <time>2011-06-02T09:00:29Z</time>
      </trkpt>
      <trkpt lat="45.84143" lon="4.81242">
        <ele>425</ele>
        <time>2011-06-02T09:00:30Z</time>
      </trkpt>
      <trkpt lat="45.84148" lon="4.81241">
        <ele>425</ele>
        <time>2011-06-02T09:00:31Z</time>
      </trkpt>
      <trkpt lat="45.84153" lon="4.8124">
        <ele>425</ele>
        <time>2011-06-02T09:00:32Z</time>
      </trkpt>
      <trkpt lat="45.84156" lon="4.81238">
        <ele>424</ele>
        <time>2011-06-02T09:00:33Z</time>
      </trkpt>
      <trkpt lat="45.84159" lon="4.81237">
        <ele>424</ele>
        <time>2011-06-02T09:00:34Z</time>
      </trkpt>
      <trkpt lat="45.84162" lon="4.81237">
        <ele>424</ele>
        <time>2011-06-02T09:00:35Z</time>
      </trkpt>
      <trkpt lat="45.84164" lon="4.81236">
        <ele>424</ele>
        <time>2011-06-02T09:00:36Z</time>
      </trkpt>
      <trkpt lat="45.84167" lon="4.81236">
        <ele>424</ele>
        <time>2011-06-02T09:00:37Z</time>
      </trkpt>
      <trkpt lat="45.84171" lon="4.81235">
        <ele>424</ele>
        <time>2011-06-02T09:00:38Z</time>
      </trkpt>
      <trkpt lat="45.84176" lon="4.81235">
        <ele>424</ele>
        <time>2011-06-02T09:00:39Z</time>
      </trkpt>
      <trkpt lat="45.84181" lon="4.81234">
        <ele>424</ele>
        <time>2011-06-02T09:00:40Z</time>
      </trkpt>
      <trkpt lat="45.84186" lon="4.81234">
        <ele>424</ele>
        <time>2011-06-02T09:00:41Z</time>
      </trkpt>
      <trkpt lat="45.84192" lon="4.81233">
        <ele>423</ele>
        <time>2011-06-02T09:00:42Z</time>
      </trkpt>
      <trkpt lat="45.84197" lon="4.81231">
        <ele>422</ele>
        <time>2011-06-02T09:00:43Z</time>
      </trkpt>
      <trkpt lat="45.84203" lon="4.8123">
        <ele>421</ele>
        <time>2011-06-02T09:00:44Z</time>
      </trkpt>
      <trkpt lat="45.84209" lon="4.81228">
        <ele>420</ele>
        <time>2011-06-02T09:00:45Z</time>
      </trkpt>
      <trkpt lat="45.84215" lon="4.81227">
        <ele>419</ele>
        <time>2011-06-02T09:00:46Z</time>
      </trkpt>
      <trkpt lat="45.84221" lon="4.81226">
        <ele>418</ele>
        <time>2011-06-02T09:00:47Z</time>
      </trkpt>
      <trkpt lat="45.84226" lon="4.81225">
        <ele>417</ele>
        <time>2011-06-02T09:00:48Z</time>
      </trkpt>
      <trkpt lat="45.8423" lon="4.81226">
        <ele>417</ele>
        <time>2011-06-02T09:00:49Z</time>
      </trkpt>
      <trkpt lat="45.84234" lon="4.81228">
        <ele>417</ele>
        <time>2011-06-02T09:00:50Z</time>
      </trkpt>
      <trkpt lat="45.84236" lon="4.81231">
        <ele>417</ele>
        <time>2011-06-02T09:00:51Z</time>
      </trkpt>
      <trkpt lat="45.84238" lon="4.81232">
        <ele>417</ele>
        <time>2011-06-02T09:00:52Z</time>
      </trkpt>
      <trkpt lat="45.8424" lon="4.81234">
        <ele>417</ele>
        <time>2011-06-02T09:00:53Z</time>
      </trkpt>
      <trkpt lat="45.84242" lon="4.81235">
        <ele>417</ele>
        <time>2011-06-02T09:00:54Z</time>
      </trkpt>
      <trkpt lat="45.84244" lon="4.81235">
        <ele>417</ele>
        <time>2011-06-02T09:00:55Z</time>
      </trkpt>
      <trkpt lat="45.84246" lon="4.81236">
        <ele>417</ele>
        <time>2011-06-02T09:00:56Z</time>
      </trkpt>
      <trkpt lat="45.84248" lon="4.81236">
        <ele>417</ele>
        <time>2011-06-02T09:00:57Z</time>
      </trkpt>
      <trkpt lat="45.84251" lon="4.81237">
        <ele>417</ele>
        <time>2011-06-02T09:00:58Z</time>
      </trkpt>
      <trkpt lat="45.84253" lon="4.81237">
        <ele>417</ele>
        <time>2011-06-02T09:00:59Z</time>
      </trkpt>
      <trkpt lat="45.84255" lon="4.81238">
        <ele>417</ele>
        <time>2011-06-02T09:01:00Z</time>
      </trkpt>
      <trkpt lat="45.84257" lon="4.81239">
        <ele>417</ele>
        <time>2011-06-02T09:01:01Z</time>
      </trkpt>
      <trkpt lat="45.84259" lon="4.81241">
        <ele>417</ele>
        <time>2011-06-02T09:01:02Z</time>
      </trkpt>
      <trkpt lat="45.84261" lon="4.81242">
        <ele>417</ele>
        <time>2011-06-02T09:01:03Z</time>
      </trkpt>
      <trkpt lat="45.84264" lon="4.81243">
        <ele>417</ele>
        <time>2011-06-02T09:01:04Z</time>
      </trkpt>
      <trkpt lat="45.84267" lon="4.81245">
        <ele>417</ele>
        <time>2011-06-02T09:01:05Z</time>
      </trkpt>
      <trkpt lat="45.8427" lon="4.81246">
        <ele>417</ele>
        <time>2011-06-02T09:01:06Z</time>
      </trkpt>
      <trkpt lat="45.84273" lon="4.81247">
        <ele>417</ele>
        <time>2011-06-02T09:01:07Z</time>
      </trkpt>
      <trkpt lat="45.84276" lon="4.81249">
        <ele>417</ele>
        <time>2011-06-02T09:01:08Z</time>
      </trkpt>
      <trkpt lat="45.84279" lon="4.81251">
        <ele>417</ele>
        <time>2011-06-02T09:01:09Z</time>
      </trkpt>
      <trkpt lat="45.84282" lon="4.81252">
        <ele>417</ele>
        <time>2011-06-02T09:01:10Z</time>
      </trkpt>
      <trkpt lat="45.84285" lon="4.81254">
        <ele>417</ele>
        <time>2011-06-02T09:01:11Z</time>
      </trkpt>
      <trkpt lat="45.84288" lon="4.81257">
        <ele>417</ele>
        <time>2011-06-02T09:01:12Z</time>
      </trkpt>
      <trkpt lat="45.84291" lon="4.81258">
        <ele>417</ele>
        <time>2011-06-02T09:01:13Z</time>
      </trkpt>
      <trkpt lat="45.84294" lon="4.8126">
        <ele>418</ele>
        <time>2011-06-02T09:01:14Z</time>
      </trkpt>
      <trkpt lat="45.84296" lon="4.81262">
        <ele>419</ele>
        <time>2011-06-02T09:01:15Z</time>
      </trkpt>
      <trkpt lat="45.84298" lon="4.81263">
        <ele>420</ele>
        <time>2011-06-02T09:01:16Z</time>
      </trkpt>
      <trkpt lat="45.843" lon="4.81263">
        <ele>421</ele>
        <time>2011-06-02T09:01:17Z</time>
      </trkpt>
      <trkpt lat="45.84302" lon="4.81264">
        <ele>421</ele>
        <time>2011-06-02T09:01:18Z</time>
      </trkpt>
      <trkpt lat="45.84304" lon="4.81264">
        <ele>421</ele>
        <time>2011-06-02T09:01:19Z</time>
      </trkpt>
      <trkpt lat="45.84305" lon="4.81265">
        <ele>423</ele>
        <time>2011-06-02T09:01:27Z</time>
      </trkpt>
      <trkpt lat="45.84306" lon="4.81265">
        <ele>424</ele>
        <time>2011-06-02T09:01:30Z</time>
      </trkpt>
      <trkpt lat="45.84308" lon="4.81266">
        <ele>424</ele>
        <time>2011-06-02T09:01:31Z</time>
      </trkpt>
      <trkpt lat="45.84309" lon="4.81265">
        <ele>424</ele>
        <time>2011-06-02T09:01:32Z</time>
      </trkpt>
      <trkpt lat="45.84311" lon="4.81265">
        <ele>424</ele>
        <time>2011-06-02T09:01:33Z</time>
      </trkpt>
      <trkpt lat="45.84312" lon="4.81264">
        <ele>424</ele>
        <time>2011-06-02T09:01:34Z</time>
      </trkpt>
      <trkpt lat="45.84314" lon="4.81263">
        <ele>424</ele>
        <time>2011-06-02T09:01:36Z</time>
      </trkpt>
      <trkpt lat="45.84317" lon="4.81262">
        <ele>424</ele>
        <time>2011-06-02T09:01:38Z</time>
      </trkpt>
      <trkpt lat="45.84318" lon="4.81262">
        <ele>424</ele>
        <time>2011-06-02T09:01:39Z</time>
      </trkpt>
      <trkpt lat="45.84319" lon="4.81262">
        <ele>423</ele>
        <time>2011-06-02T09:01:42Z</time>
      </trkpt>
      <trkpt lat="45.8432" lon="4.81261">
        <ele>422</ele>
        <time>2011-06-02T09:01:50Z</time>
      </trkpt>
      <trkpt lat="45.84319" lon="4.8126">
        <ele>422</ele>
        <time>2011-06-02T09:01:52Z</time>
      </trkpt>
      <trkpt lat="45.84317" lon="4.81259">
        <ele>422</ele>
        <time>2011-06-02T09:01:54Z</time>
      </trkpt>
      <trkpt lat="45.84317" lon="4.81258">
        <ele>424</ele>
        <time>2011-06-02T09:01:56Z</time>
      </trkpt>
      <trkpt lat="45.84318" lon="4.81255">
        <ele>425</ele>
        <time>2011-06-02T09:01:58Z</time>
      </trkpt>
      <trkpt lat="45.84319" lon="4.81253">
        <ele>425</ele>
        <time>2011-06-02T09:02:00Z</time>
      </trkpt>
      <trkpt lat="45.84319" lon="4.81251">
        <ele>425</ele>
        <time>2011-06-02T09:02:02Z</time>
      </trkpt>
      <trkpt lat="45.84319" lon="4.8125">
        <ele>427</ele>
        <time>2011-06-02T09:02:05Z</time>
      </trkpt>
      <trkpt lat="45.84317" lon="4.81252">
        <ele>428</ele>
        <time>2011-06-02T09:02:11Z</time>
      </trkpt>
      <trkpt lat="45.84318" lon="4.81254">
        <ele>428</ele>
        <time>2011-06-02T09:02:13Z</time>
      </trkpt>
      <trkpt lat="45.84319" lon="4.81256">
        <ele>428</ele>
        <time>2011-06-02T09:02:15Z</time>
      </trkpt>
      <trkpt lat="45.8432" lon="4.81258">
        <ele>425</ele>
        <time>2011-06-02T09:02:18Z</time>
      </trkpt>
      <trkpt lat="45.8432" lon="4.8126">
        <ele>423</ele>
        <time>2011-06-02T09:02:20Z</time>
      </trkpt>
      <trkpt lat="45.8432" lon="4.81262">
        <ele>422</ele>
        <time>2011-06-02T09:02:22Z</time>
      </trkpt>
      <trkpt lat="45.84319" lon="4.81264">
        <ele>421</ele>
        <time>2011-06-02T09:02:24Z</time>
      </trkpt>
      <trkpt lat="45.84319" lon="4.81266">
        <ele>420</ele>
        <time>2011-06-02T09:02:25Z</time>
      </trkpt>
      <trkpt lat="45.84318" lon="4.81268">
        <ele>419</ele>
        <time>2011-06-02T09:02:26Z</time>
      </trkpt>
      <trkpt lat="45.84317" lon="4.8127">
        <ele>419</ele>
        <time>2011-06-02T09:02:27Z</time>
      </trkpt>
      <trkpt lat="45.84317" lon="4.81273">
        <ele>419</ele>
        <time>2011-06-02T09:02:28Z</time>
      </trkpt>
      <trkpt lat="45.84316" lon="4.81275">
        <ele>419</ele>
        <time>2011-06-02T09:02:29Z</time>
      </trkpt>
      <trkpt lat="45.84316" lon="4.81277">
        <ele>419</ele>
        <time>2011-06-02T09:02:30Z</time>
      </trkpt>
      <trkpt lat="45.84316" lon="4.81278">
        <ele>418</ele>
        <time>2011-06-02T09:02:31Z</time>
      </trkpt>
      <trkpt lat="45.84317" lon="4.8128">
        <ele>418</ele>
        <time>2011-06-02T09:02:32Z</time>
      </trkpt>
      <trkpt lat="45.84317" lon="4.81282">
        <ele>418</ele>
        <time>2011-06-02T09:02:33Z</time>
      </trkpt>
      <trkpt lat="45.84317" lon="4.81285">
        <ele>418</ele>
        <time>2011-06-02T09:02:34Z</time>
      </trkpt>
      <trkpt lat="45.84318" lon="4.81288">
        <ele>418</ele>
        <time>2011-06-02T09:02:35Z</time>
      </trkpt>
      <trkpt lat="45.84318" lon="4.81292">
        <ele>418</ele>
        <time>2011-06-02T09:02:36Z</time>
      </trkpt>
      <trkpt lat="45.84318" lon="4.81296">
        <ele>418</ele>
        <time>2011-06-02T09:02:37Z</time>
      </trkpt>
      <trkpt lat="45.84317" lon="4.813">
        <ele>418</ele>
        <time>2011-06-02T09:02:38Z</time>
      </trkpt>
      <trkpt lat="45.84315" lon="4.81305">
        <ele>418</ele>
        <time>2011-06-02T09:02:39Z</time>
      </trkpt>
      <trkpt lat="45.84314" lon="4.81311">
        <ele>418</ele>
        <time>2011-06-02T09:02:40Z</time>
      </trkpt>
      <trkpt lat="45.84314" lon="4.81317">
        <ele>418</ele>
        <time>2011-06-02T09:02:41Z</time>
      </trkpt>
      <trkpt lat="45.84313" lon="4.81324">
        <ele>418</ele>
        <time>2011-06-02T09:02:42Z</time>
      </trkpt>
      <trkpt lat="45.84313" lon="4.8133">
        <ele>418</ele>
        <time>2011-06-02T09:02:43Z</time>
      </trkpt>
      <trkpt lat="45.84312" lon="4.81336">
        <ele>418</ele>
        <time>2011-06-02T09:02:44Z</time>
      </trkpt>
      <trkpt lat="45.84309" lon="4.81343">
        <ele>418</ele>
        <time>2011-06-02T09:02:45Z</time>
      </trkpt>
      <trkpt lat="45.84308" lon="4.81348">
        <ele>418</ele>
        <time>2011-06-02T09:02:46Z</time>
      </trkpt>
      <trkpt lat="45.84307" lon="4.81352">
        <ele>418</ele>
        <time>2011-06-02T09:02:47Z</time>
      </trkpt>
      <trkpt lat="45.84306" lon="4.81356">
        <ele>418</ele>
        <time>2011-06-02T09:02:48Z</time>
      </trkpt>
      <trkpt lat="45.84305" lon="4.8136">
        <ele>418</ele>
        <time>2011-06-02T09:02:49Z</time>
      </trkpt>
      <trkpt lat="45.84303" lon="4.81367">
        <ele>418</ele>
        <time>2011-06-02T09:02:50Z</time>
      </trkpt>
      <trkpt lat="45.84303" lon="4.81371">
        <ele>417</ele>
        <time>2011-06-02T09:02:51Z</time>
      </trkpt>
      <trkpt lat="45.84303" lon="4.81374">
        <ele>417</ele>
        <time>2011-06-02T09:02:52Z</time>
      </trkpt>
      <trkpt lat="45.84302" lon="4.81376">
        <ele>417</ele>
        <time>2011-06-02T09:02:53Z</time>
      </trkpt>
      <trkpt lat="45.843" lon="4.8138">
        <ele>417</ele>
        <time>2011-06-02T09:02:55Z</time>
      </trkpt>
      <trkpt lat="45.84299" lon="4.81381">
        <ele>417</ele>
        <time>2011-06-02T09:02:56Z</time>
      </trkpt>
      <trkpt lat="45.84297" lon="4.81383">
        <ele>417</ele>
        <time>2011-06-02T09:02:58Z</time>
      </trkpt>
      <trkpt lat="45.84299" lon="4.81383">
        <ele>416</ele>
        <time>2011-06-02T09:03:02Z</time>
      </trkpt>
      <trkpt lat="45.84299" lon="4.81385">
        <ele>415</ele>
        <time>2011-06-02T09:03:04Z</time>
      </trkpt>
      <trkpt lat="45.84298" lon="4.81387">
        <ele>413</ele>
        <time>2011-06-02T09:03:06Z</time>
      </trkpt>
      <trkpt lat="45.84298" lon="4.81389">
        <ele>412</ele>
        <time>2011-06-02T09:03:07Z</time>
      </trkpt>
      <trkpt lat="45.84297" lon="4.81392">
        <ele>412</ele>
        <time>2011-06-02T09:03:08Z</time>
      </trkpt>
      <trkpt lat="45.84297" lon="4.81396">
        <ele>412</ele>
        <time>2011-06-02T09:03:09Z</time>
      </trkpt>
      <trkpt lat="45.84297" lon="4.81399">
        <ele>412</ele>
        <time>2011-06-02T09:03:10Z</time>
      </trkpt>
      <trkpt lat="45.84295" lon="4.81404">
        <ele>412</ele>
        <time>2011-06-02T09:03:11Z</time>
      </trkpt>
      <trkpt lat="45.84294" lon="4.8141">
        <ele>412</ele>
        <time>2011-06-02T09:03:12Z</time>
      </trkpt>
      <trkpt lat="45.84291" lon="4.81415">
        <ele>412</ele>
        <time>2011-06-02T09:03:13Z</time>
      </trkpt>
      <trkpt lat="45.84289" lon="4.81419">
        <ele>412</ele>
        <time>2011-06-02T09:03:14Z</time>
      </trkpt>
      <trkpt lat="45.84288" lon="4.81422">
        <ele>412</ele>
        <time>2011-06-02T09:03:15Z</time>
      </trkpt>
      <trkpt lat="45.84288" lon="4.81426">
        <ele>412</ele>
        <time>2011-06-02T09:03:16Z</time>
      </trkpt>
      <trkpt lat="45.84287" lon="4.8143">
        <ele>412</ele>
        <time>2011-06-02T09:03:17Z</time>
      </trkpt>
      <trkpt lat="45.84285" lon="4.81433">
        <ele>412</ele>
        <time>2011-06-02T09:03:18Z</time>
      </trkpt>
      <trkpt lat="45.84284" lon="4.81438">
        <ele>412</ele>
        <time>2011-06-02T09:03:19Z</time>
      </trkpt>
      <trkpt lat="45.84283" lon="4.81442">
        <ele>412</ele>
        <time>2011-06-02T09:03:20Z</time>
      </trkpt>
      <trkpt lat="45.84282" lon="4.81446">
        <ele>412</ele>
        <time>2011-06-02T09:03:21Z</time>
      </trkpt>
      <trkpt lat="45.84281" lon="4.81451">
        <ele>412</ele>
        <time>2011-06-02T09:03:22Z</time>
      </trkpt>
      <trkpt lat="45.8428" lon="4.81455">
        <ele>412</ele>
        <time>2011-06-02T09:03:23Z</time>
      </trkpt>
      <trkpt lat="45.84277" lon="4.81461">
        <ele>412</ele>
        <time>2011-06-02T09:03:24Z</time>
      </trkpt>
      <trkpt lat="45.84275" lon="4.81466">
        <ele>412</ele>
        <time>2011-06-02T09:03:25Z</time>
      </trkpt>
      <trkpt lat="45.84272" lon="4.8147">
        <ele>412</ele>
        <time>2011-06-02T09:03:26Z</time>
      </trkpt>
      <trkpt lat="45.84269" lon="4.81476">
        <ele>412</ele>
        <time>2011-06-02T09:03:27Z</time>
      </trkpt>
      <trkpt lat="45.84265" lon="4.81483">
        <ele>412</ele>
        <time>2011-06-02T09:03:28Z</time>
      </trkpt>
      <trkpt lat="45.84262" lon="4.81489">
        <ele>413</ele>
        <time>2011-06-02T09:03:29Z</time>
      </trkpt>
      <trkpt lat="45.84258" lon="4.81495">
        <ele>414</ele>
        <time>2011-06-02T09:03:30Z</time>
      </trkpt>
      <trkpt lat="45.84256" lon="4.815">
        <ele>414</ele>
        <time>2011-06-02T09:03:31Z</time>
      </trkpt>
      <trkpt lat="45.84253" lon="4.81505">
        <ele>414</ele>
        <time>2011-06-02T09:03:32Z</time>
      </trkpt>
      <trkpt lat="45.84251" lon="4.81509">
        <ele>414</ele>
        <time>2011-06-02T09:03:33Z</time>
      </trkpt>
      <trkpt lat="45.8425" lon="4.81513">
        <ele>414</ele>
        <time>2011-06-02T09:03:34Z</time>
      </trkpt>
      <trkpt lat="45.84249" lon="4.81516">
        <ele>414</ele>
        <time>2011-06-02T09:03:35Z</time>
      </trkpt>
      <trkpt lat="45.84248" lon="4.81519">
        <ele>414</ele>
        <time>2011-06-02T09:03:36Z</time>
      </trkpt>
      <trkpt lat="45.84245" lon="4.81524">
        <ele>414</ele>
        <time>2011-06-02T09:03:37Z</time>
      </trkpt>
      <trkpt lat="45.84242" lon="4.81528">
        <ele>414</ele>
        <time>2011-06-02T09:03:38Z</time>
      </trkpt>
      <trkpt lat="45.84238" lon="4.81531">
        <ele>414</ele>
        <time>2011-06-02T09:03:39Z</time>
      </trkpt>
      <trkpt lat="45.84235" lon="4.81533">
        <ele>414</ele>
        <time>2011-06-02T09:03:40Z</time>
      </trkpt>
      <trkpt lat="45.84232" lon="4.81535">
        <ele>414</ele>
        <time>2011-06-02T09:03:41Z</time>
      </trkpt>
      <trkpt lat="45.8423" lon="4.81537">
        <ele>414</ele>
        <time>2011-06-02T09:03:42Z</time>
      </trkpt>
      <trkpt lat="45.84227" lon="4.81539">
        <ele>414</ele>
        <time>2011-06-02T09:03:43Z</time>
      </trkpt>
      <trkpt lat="45.84227" lon="4.81542">
        <ele>414</ele>
        <time>2011-06-02T09:03:44Z</time>
      </trkpt>
      <trkpt lat="45.84228" lon="4.81545">
        <ele>414</ele>
        <time>2011-06-02T09:03:45Z</time>
      </trkpt>
      <trkpt lat="45.84228" lon="4.81548">
        <ele>413</ele>
        <time>2011-06-02T09:03:46Z</time>
      </trkpt>
      <trkpt lat="45.84228" lon="4.81553">
        <ele>412</ele>
        <time>2011-06-02T09:03:47Z</time>
      </trkpt>
      <trkpt lat="45.84228" lon="4.81558">
        <ele>411</ele>
        <time>2011-06-02T09:03:48Z</time>
      </trkpt>
      <trkpt lat="45.84228" lon="4.81564">
        <ele>410</ele>
        <time>2011-06-02T09:03:49Z</time>
      </trkpt>
      <trkpt lat="45.84227" lon="4.81569">
        <ele>409</ele>
        <time>2011-06-02T09:03:50Z</time>
      </trkpt>
      <trkpt lat="45.84226" lon="4.81574">
        <ele>407</ele>
        <time>2011-06-02T09:03:51Z</time>
      </trkpt>
      <trkpt lat="45.84225" lon="4.81579">
        <ele>405</ele>
        <time>2011-06-02T09:03:52Z</time>
      </trkpt>
      <trkpt lat="45.84225" lon="4.81584">
        <ele>404</ele>
        <time>2011-06-02T09:03:53Z</time>
      </trkpt>
      <trkpt lat="45.84225" lon="4.8159">
        <ele>403</ele>
        <time>2011-06-02T09:03:54Z</time>
      </trkpt>
      <trkpt lat="45.84225" lon="4.81595">
        <ele>402</ele>
        <time>2011-06-02T09:03:55Z</time>
      </trkpt>
      <trkpt lat="45.84226" lon="4.81599">
        <ele>401</ele>
        <time>2011-06-02T09:03:56Z</time>
      </trkpt>
      <trkpt lat="45.84225" lon="4.81601">
        <ele>400</ele>
        <time>2011-06-02T09:03:57Z</time>
      </trkpt>
      <trkpt lat="45.84224" lon="4.81606">
        <ele>400</ele>
        <time>2011-06-02T09:03:58Z</time>
      </trkpt>
      <trkpt lat="45.84224" lon="4.8161">
        <ele>400</ele>
        <time>2011-06-02T09:03:59Z</time>
      </trkpt>
      <trkpt lat="45.84224" lon="4.81613">
        <ele>399</ele>
        <time>2011-06-02T09:04:00Z</time>
      </trkpt>
      <trkpt lat="45.84225" lon="4.81615">
        <ele>398</ele>
        <time>2011-06-02T09:04:01Z</time>
      </trkpt>
      <trkpt lat="45.84225" lon="4.81617">
        <ele>397</ele>
        <time>2011-06-02T09:04:02Z</time>
      </trkpt>
      <trkpt lat="45.84225" lon="4.81621">
        <ele>396</ele>
        <time>2011-06-02T09:04:03Z</time>
      </trkpt>
      <trkpt lat="45.84225" lon="4.81625">
        <ele>395</ele>
        <time>2011-06-02T09:04:04Z</time>
      </trkpt>
      <trkpt lat="45.84225" lon="4.8163">
        <ele>394</ele>
        <time>2011-06-02T09:04:05Z</time>
      </trkpt>
      <trkpt lat="45.84224" lon="4.81636">
        <ele>393</ele>
        <time>2011-06-02T09:04:06Z</time>
      </trkpt>
      <trkpt lat="45.84224" lon="4.81641">
        <ele>392</ele>
        <time>2011-06-02T09:04:07Z</time>
      </trkpt>
      <trkpt lat="45.84225" lon="4.81647">
        <ele>391</ele>
        <time>2011-06-02T09:04:08Z</time>
      </trkpt>
      <trkpt lat="45.84225" lon="4.81651">
        <ele>390</ele>
        <time>2011-06-02T09:04:09Z</time>
      </trkpt>
      <trkpt lat="45.84225" lon="4.81658">
        <ele>389</ele>
        <time>2011-06-02T09:04:10Z</time>
      </trkpt>
      <trkpt lat="45.84226" lon="4.81662">
        <ele>388</ele>
        <time>2011-06-02T09:04:11Z</time>
      </trkpt>
      <trkpt lat="45.84225" lon="4.81667">
        <ele>387</ele>
        <time>2011-06-02T09:04:12Z</time>
      </trkpt>
      <trkpt lat="45.84225" lon="4.81671">
        <ele>386</ele>
        <time>2011-06-02T09:04:13Z</time>
      </trkpt>
      <trkpt lat="45.84224" lon="4.81676">
        <ele>385</ele>
        <time>2011-06-02T09:04:14Z</time>
      </trkpt>
      <trkpt lat="45.84224" lon="4.81681">
        <ele>384</ele>
        <time>2011-06-02T09:04:15Z</time>
      </trkpt>
      <trkpt lat="45.84222" lon="4.81688">
        <ele>383</ele>
        <time>2011-06-02T09:04:16Z</time>
      </trkpt>
      <trkpt lat="45.84221" lon="4.81692">
        <ele>382</ele>
        <time>2011-06-02T09:04:17Z</time>
      </trkpt>
      <trkpt lat="45.84221" lon="4.81695">
        <ele>381</ele>
        <time>2011-06-02T09:04:18Z</time>
      </trkpt>
      <trkpt lat="45.8422" lon="4.81698">
        <ele>380</ele>
        <time>2011-06-02T09:04:19Z</time>
      </trkpt>
      <trkpt lat="45.84219" lon="4.81701">
        <ele>379</ele>
        <time>2011-06-02T09:04:20Z</time>
      </trkpt>
      <trkpt lat="45.84218" lon="4.81705">
        <ele>377</ele>
        <time>2011-06-02T09:04:21Z</time>
      </trkpt>
      <trkpt lat="45.84217" lon="4.81709">
        <ele>375</ele>
        <time>2011-06-02T09:04:22Z</time>
      </trkpt>
      <trkpt lat="45.84216" lon="4.81716">
        <ele>373</ele>
        <time>2011-06-02T09:04:23Z</time>
      </trkpt>
      <trkpt lat="45.84213" lon="4.81722">
        <ele>372</ele>
        <time>2011-06-02T09:04:24Z</time>
      </trkpt>
      <trkpt lat="45.84212" lon="4.81726">
        <ele>371</ele>
        <time>2011-06-02T09:04:25Z</time>
      </trkpt>
      <trkpt lat="45.84211" lon="4.8173">
        <ele>370</ele>
        <time>2011-06-02T09:04:26Z</time>
      </trkpt>
      <trkpt lat="45.8421" lon="4.81733">
        <ele>369</ele>
        <time>2011-06-02T09:04:27Z</time>
      </trkpt>
      <trkpt lat="45.84209" lon="4.81739">
        <ele>368</ele>
        <time>2011-06-02T09:04:28Z</time>
      </trkpt>
      <trkpt lat="45.84208" lon="4.81745">
        <ele>366</ele>
        <time>2011-06-02T09:04:29Z</time>
      </trkpt>
      <trkpt lat="45.84205" lon="4.81751">
        <ele>364</ele>
        <time>2011-06-02T09:04:30Z</time>
      </trkpt>
      <trkpt lat="45.84203" lon="4.81756">
        <ele>362</ele>
        <time>2011-06-02T09:04:31Z</time>
      </trkpt>
      <trkpt lat="45.84201" lon="4.81761">
        <ele>361</ele>
        <time>2011-06-02T09:04:32Z</time>
      </trkpt>
      <trkpt lat="45.842" lon="4.81764">
        <ele>359</ele>
        <time>2011-06-02T09:04:33Z</time>
      </trkpt>
      <trkpt lat="45.84198" lon="4.8177">
        <ele>358</ele>
        <time>2011-06-02T09:04:34Z</time>
      </trkpt>
      <trkpt lat="45.84197" lon="4.81773">
        <ele>357</ele>
        <time>2011-06-02T09:04:35Z</time>
      </trkpt>
      <trkpt lat="45.84194" lon="4.81775">
        <ele>356</ele>
        <time>2011-06-02T09:04:36Z</time>
      </trkpt>
      <trkpt lat="45.84192" lon="4.81775">
        <ele>355</ele>
        <time>2011-06-02T09:04:37Z</time>
      </trkpt>
      <trkpt lat="45.8419" lon="4.81776">
        <ele>354</ele>
        <time>2011-06-02T09:04:38Z</time>
      </trkpt>
      <trkpt lat="45.84188" lon="4.81779">
        <ele>353</ele>
        <time>2011-06-02T09:04:39Z</time>
      </trkpt>
      <trkpt lat="45.84186" lon="4.8178">
        <ele>352</ele>
        <time>2011-06-02T09:04:40Z</time>
      </trkpt>
      <trkpt lat="45.84184" lon="4.81783">
        <ele>351</ele>
        <time>2011-06-02T09:04:41Z</time>
      </trkpt>
      <trkpt lat="45.84182" lon="4.81787">
        <ele>350</ele>
        <time>2011-06-02T09:04:42Z</time>
      </trkpt>
      <trkpt lat="45.8418" lon="4.8179">
        <ele>349</ele>
        <time>2011-06-02T09:04:43Z</time>
      </trkpt>
      <trkpt lat="45.84179" lon="4.81793">
        <ele>348</ele>
        <time>2011-06-02T09:04:44Z</time>
      </trkpt>
      <trkpt lat="45.84177" lon="4.81798">
        <ele>347</ele>
        <time>2011-06-02T09:04:45Z</time>
      </trkpt>
      <trkpt lat="45.84177" lon="4.818">
        <ele>345</ele>
        <time>2011-06-02T09:04:46Z</time>
      </trkpt>
      <trkpt lat="45.84176" lon="4.81802">
        <ele>344</ele>
        <time>2011-06-02T09:04:47Z</time>
      </trkpt>
      <trkpt lat="45.84174" lon="4.81805">
        <ele>343</ele>
        <time>2011-06-02T09:04:48Z</time>
      </trkpt>
      <trkpt lat="45.84172" lon="4.81808">
        <ele>342</ele>
        <time>2011-06-02T09:04:49Z</time>
      </trkpt>
      <trkpt lat="45.8417" lon="4.81813">
        <ele>340</ele>
        <time>2011-06-02T09:04:50Z</time>
      </trkpt>
      <trkpt lat="45.84168" lon="4.81818">
        <ele>339</ele>
        <time>2011-06-02T09:04:51Z</time>
      </trkpt>
      <trkpt lat="45.84167" lon="4.81822">
        <ele>338</ele>
        <time>2011-06-02T09:04:52Z</time>
      </trkpt>
      <trkpt lat="45.84165" lon="4.81826">
        <ele>337</ele>
        <time>2011-06-02T09:04:53Z</time>
      </trkpt>
      <trkpt lat="45.84163" lon="4.8183">
        <ele>336</ele>
        <time>2011-06-02T09:04:54Z</time>
      </trkpt>
      <trkpt lat="45.84162" lon="4.81835">
        <ele>335</ele>
        <time>2011-06-02T09:04:55Z</time>
      </trkpt>
      <trkpt lat="45.8416" lon="4.81838">
        <ele>334</ele>
        <time>2011-06-02T09:04:56Z</time>
      </trkpt>
      <trkpt lat="45.84158" lon="4.81842">
        <ele>333</ele>
        <time>2011-06-02T09:04:57Z</time>
      </trkpt>
      <trkpt lat="45.84156" lon="4.81845">
        <ele>332</ele>
        <time>2011-06-02T09:04:58Z</time>
      </trkpt>
      <trkpt lat="45.84155" lon="4.81848">
        <ele>331</ele>
        <time>2011-06-02T09:04:59Z</time>
      </trkpt>
      <trkpt lat="45.84153" lon="4.81853">
        <ele>330</ele>
        <time>2011-06-02T09:05:00Z</time>
      </trkpt>
      <trkpt lat="45.84152" lon="4.81855">
        <ele>330</ele>
        <time>2011-06-02T09:05:01Z</time>
      </trkpt>
      <trkpt lat="45.84151" lon="4.81858">
        <ele>330</ele>
        <time>2011-06-02T09:05:02Z</time>
      </trkpt>
      <trkpt lat="45.84148" lon="4.81862">
        <ele>330</ele>
        <time>2011-06-02T09:05:03Z</time>
      </trkpt>
      <trkpt lat="45.84146" lon="4.81867">
        <ele>330</ele>
        <time>2011-06-02T09:05:04Z</time>
      </trkpt>
      <trkpt lat="45.84144" lon="4.81869">
        <ele>330</ele>
        <time>2011-06-02T09:05:05Z</time>
      </trkpt>
      <trkpt lat="45.84143" lon="4.81874">
        <ele>330</ele>
        <time>2011-06-02T09:05:06Z</time>
      </trkpt>
      <trkpt lat="45.84143" lon="4.8188">
        <ele>330</ele>
        <time>2011-06-02T09:05:07Z</time>
      </trkpt>
      <trkpt lat="45.84142" lon="4.81884">
        <ele>330</ele>
        <time>2011-06-02T09:05:08Z</time>
      </trkpt>
      <trkpt lat="45.84141" lon="4.81887">
        <ele>330</ele>
        <time>2011-06-02T09:05:09Z</time>
      </trkpt>
      <trkpt lat="45.84141" lon="4.81889">
        <ele>330</ele>
        <time>2011-06-02T09:05:10Z</time>
      </trkpt>
      <trkpt lat="45.84142" lon="4.81892">
        <ele>330</ele>
        <time>2011-06-02T09:05:11Z</time>
      </trkpt>
      <trkpt lat="45.84142" lon="4.81893">
        <ele>330</ele>
        <time>2011-06-02T09:05:12Z</time>
      </trkpt>
      <trkpt lat="45.8414" lon="4.81896">
        <ele>330</ele>
        <time>2011-06-02T09:05:14Z</time>
      </trkpt>
      <trkpt lat="45.84139" lon="4.81896">
        <ele>330</ele>
        <time>2011-06-02T09:05:15Z</time>
      </trkpt>
      <trkpt lat="45.84138" lon="4.81898">
        <ele>330</ele>
        <time>2011-06-02T09:05:17Z</time>
      </trkpt>
      <trkpt lat="45.84137" lon="4.81899">
        <ele>330</ele>
        <time>2011-06-02T09:05:19Z</time>
      </trkpt>
      <trkpt lat="45.84138" lon="4.81901">
        <ele>331</ele>
        <time>2011-06-02T09:05:23Z</time>
      </trkpt>
      <trkpt lat="45.84139" lon="4.81901">
        <ele>334</ele>
        <time>2011-06-02T09:05:40Z</time>
      </trkpt>
      <trkpt lat="45.8414" lon="4.81901">
        <ele>338</ele>
        <time>2011-06-02T09:05:55Z</time>
      </trkpt>
      <trkpt lat="45.8414" lon="4.81903">
        <ele>340</ele>
        <time>2011-06-02T09:06:24Z</time>
      </trkpt>
      <trkpt lat="45.84139" lon="4.81902">
        <ele>338</ele>
        <time>2011-06-02T09:06:55Z</time>
      </trkpt>
      <trkpt lat="45.84138" lon="4.81901">
        <ele>337</ele>
        <time>2011-06-02T09:07:03Z</time>
      </trkpt>
      <trkpt lat="45.84139" lon="4.81903">
        <ele>336</ele>
        <time>2011-06-02T09:07:16Z</time>
      </trkpt>
      <trkpt lat="45.84138" lon="4.81901">
        <ele>333</ele>
        <time>2011-06-02T09:07:24Z</time>
      </trkpt>
      <trkpt lat="45.84137" lon="4.819">
        <ele>329</ele>
        <time>2011-06-02T09:07:30Z</time>
      </trkpt>
      <trkpt lat="45.84135" lon="4.81898">
        <ele>329</ele>
        <time>2011-06-02T09:07:33Z</time>
      </trkpt>
      <trkpt lat="45.84134" lon="4.81898">
        <ele>328</ele>
        <time>2011-06-02T09:07:37Z</time>
      </trkpt>
      <trkpt lat="45.84133" lon="4.81897">
        <ele>328</ele>
        <time>2011-06-02T09:07:40Z</time>
      </trkpt>
      <trkpt lat="45.84134" lon="4.81898">
        <ele>326</ele>
        <time>2011-06-02T09:07:47Z</time>
      </trkpt>
      <trkpt lat="45.84133" lon="4.81898">
        <ele>325</ele>
        <time>2011-06-02T09:07:53Z</time>
      </trkpt>
      <trkpt lat="45.84132" lon="4.81896">
        <ele>324</ele>
        <time>2011-06-02T09:08:01Z</time>
      </trkpt>
      <trkpt lat="45.8413" lon="4.81895">
        <ele>324</ele>
        <time>2011-06-02T09:08:11Z</time>
      </trkpt>
      <trkpt lat="45.8413" lon="4.81893">
        <ele>324</ele>
        <time>2011-06-02T09:08:17Z</time>
      </trkpt>
      <trkpt lat="45.84129" lon="4.81892">
        <ele>324</ele>
        <time>2011-06-02T09:08:24Z</time>
      </trkpt>
      <trkpt lat="45.8413" lon="4.81893">
        <ele>324</ele>
        <time>2011-06-02T09:08:26Z</time>
      </trkpt>
      <trkpt lat="45.84132" lon="4.81894">
        <ele>324</ele>
        <time>2011-06-02T09:08:27Z</time>
      </trkpt>
      <trkpt lat="45.8413" lon="4.81893">
        <ele>324</ele>
        <time>2011-06-02T09:08:34Z</time>
      </trkpt>
      <trkpt lat="45.84132" lon="4.81893">
        <ele>325</ele>
        <time>2011-06-02T09:08:41Z</time>
      </trkpt>
      <trkpt lat="45.84133" lon="4.81894">
        <ele>325</ele>
        <time>2011-06-02T09:08:56Z</time>
      </trkpt>
      <trkpt lat="45.84134" lon="4.81895">
        <ele>326</ele>
        <time>2011-06-02T09:09:00Z</time>
      </trkpt>
      <trkpt lat="45.84135" lon="4.81896">
        <ele>329</ele>
        <time>2011-06-02T09:09:13Z</time>
      </trkpt>
      <trkpt lat="45.84136" lon="4.81895">
        <ele>329</ele>
        <time>2011-06-02T09:09:15Z</time>
      </trkpt>
      <trkpt lat="45.84138" lon="4.81895">
        <ele>329</ele>
        <time>2011-06-02T09:09:16Z</time>
      </trkpt>
      <trkpt lat="45.84139" lon="4.81895">
        <ele>329</ele>
        <time>2011-06-02T09:09:17Z</time>
      </trkpt>
      <trkpt lat="45.8414" lon="4.81894">
        <ele>329</ele>
        <time>2011-06-02T09:09:18Z</time>
      </trkpt>
      <trkpt lat="45.84142" lon="4.81894">
        <ele>329</ele>
        <time>2011-06-02T09:09:20Z</time>
      </trkpt>
      <trkpt lat="45.84144" lon="4.81893">
        <ele>329</ele>
        <time>2011-06-02T09:09:21Z</time>
      </trkpt>
      <trkpt lat="45.84145" lon="4.81893">
        <ele>329</ele>
        <time>2011-06-02T09:09:22Z</time>
      </trkpt>
      <trkpt lat="45.84146" lon="4.81893">
        <ele>330</ele>
        <time>2011-06-02T09:09:23Z</time>
      </trkpt>
      <trkpt lat="45.84148" lon="4.81893">
        <ele>330</ele>
        <time>2011-06-02T09:09:24Z</time>
      </trkpt>
      <trkpt lat="45.84149" lon="4.81893">
        <ele>331</ele>
        <time>2011-06-02T09:09:25Z</time>
      </trkpt>
      <trkpt lat="45.8415" lon="4.81893">
        <ele>332</ele>
        <time>2011-06-02T09:09:26Z</time>
      </trkpt>
      <trkpt lat="45.84152" lon="4.81892">
        <ele>333</ele>
        <time>2011-06-02T09:09:28Z</time>
      </trkpt>
      <trkpt lat="45.84153" lon="4.81891">
        <ele>333</ele>
        <time>2011-06-02T09:09:29Z</time>
      </trkpt>
      <trkpt lat="45.84154" lon="4.81891">
        <ele>333</ele>
        <time>2011-06-02T09:09:30Z</time>
      </trkpt>
      <trkpt lat="45.84156" lon="4.8189">
        <ele>333</ele>
        <time>2011-06-02T09:09:31Z</time>
      </trkpt>
      <trkpt lat="45.84157" lon="4.81889">
        <ele>333</ele>
        <time>2011-06-02T09:09:33Z</time>
      </trkpt>
      <trkpt lat="45.84159" lon="4.81888">
        <ele>333</ele>
        <time>2011-06-02T09:09:34Z</time>
      </trkpt>
      <trkpt lat="45.84161" lon="4.81888">
        <ele>333</ele>
        <time>2011-06-02T09:09:35Z</time>
      </trkpt>
      <trkpt lat="45.84163" lon="4.81888">
        <ele>333</ele>
        <time>2011-06-02T09:09:36Z</time>
      </trkpt>
      <trkpt lat="45.84166" lon="4.81888">
        <ele>333</ele>
        <time>2011-06-02T09:09:38Z</time>
      </trkpt>
      <trkpt lat="45.84168" lon="4.81888">
        <ele>333</ele>
        <time>2011-06-02T09:09:39Z</time>
      </trkpt>
      <trkpt lat="45.84169" lon="4.81888">
        <ele>333</ele>
        <time>2011-06-02T09:09:40Z</time>
      </trkpt>
      <trkpt lat="45.84171" lon="4.81887">
        <ele>333</ele>
        <time>2011-06-02T09:09:41Z</time>
      </trkpt>
      <trkpt lat="45.84173" lon="4.81886">
        <ele>332</ele>
        <time>2011-06-02T09:09:42Z</time>
      </trkpt>
      <trkpt lat="45.84174" lon="4.81885">
        <ele>332</ele>
        <time>2011-06-02T09:09:43Z</time>
      </trkpt>
      <trkpt lat="45.84176" lon="4.81884">
        <ele>332</ele>
        <time>2011-06-02T09:09:44Z</time>
      </trkpt>
      <trkpt lat="45.84179" lon="4.81884">
        <ele>332</ele>
        <time>2011-06-02T09:09:45Z</time>
      </trkpt>
      <trkpt lat="45.84181" lon="4.81885">
        <ele>332</ele>
        <time>2011-06-02T09:09:46Z</time>
      </trkpt>
      <trkpt lat="45.84184" lon="4.81885">
        <ele>332</ele>
        <time>2011-06-02T09:09:47Z</time>
      </trkpt>
      <trkpt lat="45.84187" lon="4.81884">
        <ele>332</ele>
        <time>2011-06-02T09:09:48Z</time>
      </trkpt>
      <trkpt lat="45.8419" lon="4.81884">
        <ele>332</ele>
        <time>2011-06-02T09:09:49Z</time>
      </trkpt>
      <trkpt lat="45.84194" lon="4.81883">
        <ele>332</ele>
        <time>2011-06-02T09:09:50Z</time>
      </trkpt>
      <trkpt lat="45.84197" lon="4.81882">
        <ele>332</ele>
        <time>2011-06-02T09:09:51Z</time>
      </trkpt>
      <trkpt lat="45.84201" lon="4.81882">
        <ele>332</ele>
        <time>2011-06-02T09:09:52Z</time>
      </trkpt>
      <trkpt lat="45.84204" lon="4.81882">
        <ele>332</ele>
        <time>2011-06-02T09:09:53Z</time>
      </trkpt>
      <trkpt lat="45.84208" lon="4.81881">
        <ele>332</ele>
        <time>2011-06-02T09:09:54Z</time>
      </trkpt>
      <trkpt lat="45.84211" lon="4.8188">
        <ele>332</ele>
        <time>2011-06-02T09:09:55Z</time>
      </trkpt>
      <trkpt lat="45.84215" lon="4.81878">
        <ele>332</ele>
        <time>2011-06-02T09:09:56Z</time>
      </trkpt>
      <trkpt lat="45.84219" lon="4.81877">
        <ele>332</ele>
        <time>2011-06-02T09:09:57Z</time>
      </trkpt>
      <trkpt lat="45.84222" lon="4.81875">
        <ele>331</ele>
        <time>2011-06-02T09:09:58Z</time>
      </trkpt>
      <trkpt lat="45.84225" lon="4.81872">
        <ele>331</ele>
        <time>2011-06-02T09:09:59Z</time>
      </trkpt>
      <trkpt lat="45.84227" lon="4.8187">
        <ele>330</ele>
        <time>2011-06-02T09:10:00Z</time>
      </trkpt>
      <trkpt lat="45.84229" lon="4.81869">
        <ele>330</ele>
        <time>2011-06-02T09:10:01Z</time>
      </trkpt>
      <trkpt lat="45.84232" lon="4.8187">
        <ele>330</ele>
        <time>2011-06-02T09:10:02Z</time>
      </trkpt>
      <trkpt lat="45.84233" lon="4.81871">
        <ele>330</ele>
        <time>2011-06-02T09:10:03Z</time>
      </trkpt>
      <trkpt lat="45.84236" lon="4.81874">
        <ele>330</ele>
        <time>2011-06-02T09:10:04Z</time>
      </trkpt>
      <trkpt lat="45.84239" lon="4.81877">
        <ele>330</ele>
        <time>2011-06-02T09:10:05Z</time>
      </trkpt>
      <trkpt lat="45.84243" lon="4.81881">
        <ele>329</ele>
        <time>2011-06-02T09:10:06Z</time>
      </trkpt>
      <trkpt lat="45.84246" lon="4.81884">
        <ele>329</ele>
        <time>2011-06-02T09:10:07Z</time>
      </trkpt>
      <trkpt lat="45.84248" lon="4.81888">
        <ele>328</ele>
        <time>2011-06-02T09:10:08Z</time>
      </trkpt>
      <trkpt lat="45.8425" lon="4.81891">
        <ele>327</ele>
        <time>2011-06-02T09:10:09Z</time>
      </trkpt>
      <trkpt lat="45.84251" lon="4.81895">
        <ele>327</ele>
        <time>2011-06-02T09:10:10Z</time>
      </trkpt>
      <trkpt lat="45.84251" lon="4.81899">
        <ele>327</ele>
        <time>2011-06-02T09:10:11Z</time>
      </trkpt>
      <trkpt lat="45.84252" lon="4.81903">
        <ele>327</ele>
        <time>2011-06-02T09:10:12Z</time>
      </trkpt>
      <trkpt lat="45.84252" lon="4.81906">
        <ele>327</ele>
        <time>2011-06-02T09:10:13Z</time>
      </trkpt>
      <trkpt lat="45.84253" lon="4.8191">
        <ele>327</ele>
        <time>2011-06-02T09:10:14Z</time>
      </trkpt>
      <trkpt lat="45.84253" lon="4.81914">
        <ele>327</ele>
        <time>2011-06-02T09:10:15Z</time>
      </trkpt>
      <trkpt lat="45.84253" lon="4.81918">
        <ele>326</ele>
        <time>2011-06-02T09:10:16Z</time>
      </trkpt>
      <trkpt lat="45.84252" lon="4.81923">
        <ele>325</ele>
        <time>2011-06-02T09:10:17Z</time>
      </trkpt>
      <trkpt lat="45.84249" lon="4.81928">
        <ele>325</ele>
        <time>2011-06-02T09:10:18Z</time>
      </trkpt>
      <trkpt lat="45.84246" lon="4.81934">
        <ele>325</ele>
        <time>2011-06-02T09:10:19Z</time>
      </trkpt>
      <trkpt lat="45.84242" lon="4.8194">
        <ele>325</ele>
        <time>2011-06-02T09:10:20Z</time>
      </trkpt>
      <trkpt lat="45.84237" lon="4.81945">
        <ele>325</ele>
        <time>2011-06-02T09:10:21Z</time>
      </trkpt>
      <trkpt lat="45.84233" lon="4.8195">
        <ele>325</ele>
        <time>2011-06-02T09:10:22Z</time>
      </trkpt>
      <trkpt lat="45.84229" lon="4.81954">
        <ele>325</ele>
        <time>2011-06-02T09:10:23Z</time>
      </trkpt>
      <trkpt lat="45.84225" lon="4.81958">
        <ele>325</ele>
        <time>2011-06-02T09:10:24Z</time>
      </trkpt>
      <trkpt lat="45.84222" lon="4.81962">
        <ele>325</ele>
        <time>2011-06-02T09:10:25Z</time>
      </trkpt>
      <trkpt lat="45.84218" lon="4.81967">
        <ele>325</ele>
        <time>2011-06-02T09:10:26Z</time>
      </trkpt>
      <trkpt lat="45.84214" lon="4.81971">
        <ele>325</ele>
        <time>2011-06-02T09:10:27Z</time>
      </trkpt>
      <trkpt lat="45.84211" lon="4.81975">
        <ele>325</ele>
        <time>2011-06-02T09:10:28Z</time>
      </trkpt>
      <trkpt lat="45.84207" lon="4.8198">
        <ele>325</ele>
        <time>2011-06-02T09:10:29Z</time>
      </trkpt>
      <trkpt lat="45.84204" lon="4.81985">
        <ele>325</ele>
        <time>2011-06-02T09:10:30Z</time>
      </trkpt>
      <trkpt lat="45.84201" lon="4.8199">
        <ele>325</ele>
        <time>2011-06-02T09:10:31Z</time>
      </trkpt>
      <trkpt lat="45.84197" lon="4.81995">
        <ele>325</ele>
        <time>2011-06-02T09:10:32Z</time>
      </trkpt>
      <trkpt lat="45.84193" lon="4.82">
        <ele>325</ele>
        <time>2011-06-02T09:10:33Z</time>
      </trkpt>
      <trkpt lat="45.8419" lon="4.82005">
        <ele>325</ele>
        <time>2011-06-02T09:10:34Z</time>
      </trkpt>
      <trkpt lat="45.84186" lon="4.82009">
        <ele>324</ele>
        <time>2011-06-02T09:10:35Z</time>
      </trkpt>
      <trkpt lat="45.84182" lon="4.82014">
        <ele>323</ele>
        <time>2011-06-02T09:10:36Z</time>
      </trkpt>
      <trkpt lat="45.84178" lon="4.82019">
        <ele>323</ele>
        <time>2011-06-02T09:10:37Z</time>
      </trkpt>
      <trkpt lat="45.84174" lon="4.82024">
        <ele>322</ele>
        <time>2011-06-02T09:10:38Z</time>
      </trkpt>
      <trkpt lat="45.8417" lon="4.82029">
        <ele>321</ele>
        <time>2011-06-02T09:10:39Z</time>
      </trkpt>
      <trkpt lat="45.84166" lon="4.82034">
        <ele>320</ele>
        <time>2011-06-02T09:10:40Z</time>
      </trkpt>
      <trkpt lat="45.84162" lon="4.82039">
        <ele>319</ele>
        <time>2011-06-02T09:10:41Z</time>
      </trkpt>
      <trkpt lat="45.84158" lon="4.82043">
        <ele>318</ele>
        <time>2011-06-02T09:10:42Z</time>
      </trkpt>
      <trkpt lat="45.84153" lon="4.82048">
        <ele>317</ele>
        <time>2011-06-02T09:10:43Z</time>
      </trkpt>
      <trkpt lat="45.84149" lon="4.82052">
        <ele>316</ele>
        <time>2011-06-02T09:10:44Z</time>
      </trkpt>
      <trkpt lat="45.84145" lon="4.82055">
        <ele>315</ele>
        <time>2011-06-02T09:10:45Z</time>
      </trkpt>
      <trkpt lat="45.84141" lon="4.82058">
        <ele>314</ele>
        <time>2011-06-02T09:10:46Z</time>
      </trkpt>
      <trkpt lat="45.84137" lon="4.82062">
        <ele>313</ele>
        <time>2011-06-02T09:10:47Z</time>
      </trkpt>
      <trkpt lat="45.84133" lon="4.82064">
        <ele>312</ele>
        <time>2011-06-02T09:10:48Z</time>
      </trkpt>
      <trkpt lat="45.8413" lon="4.82065">
        <ele>311</ele>
        <time>2011-06-02T09:10:49Z</time>
      </trkpt>
      <trkpt lat="45.84128" lon="4.82066">
        <ele>310</ele>
        <time>2011-06-02T09:10:50Z</time>
      </trkpt>
      <trkpt lat="45.84126" lon="4.82068">
        <ele>309</ele>
        <time>2011-06-02T09:10:51Z</time>
      </trkpt>
      <trkpt lat="45.84125" lon="4.82069">
        <ele>308</ele>
        <time>2011-06-02T09:10:52Z</time>
      </trkpt>
      <trkpt lat="45.84123" lon="4.82072">
        <ele>307</ele>
        <time>2011-06-02T09:10:53Z</time>
      </trkpt>
      <trkpt lat="45.84122" lon="4.82075">
        <ele>306</ele>
        <time>2011-06-02T09:10:54Z</time>
      </trkpt>
      <trkpt lat="45.84122" lon="4.82077">
        <ele>305</ele>
        <time>2011-06-02T09:10:55Z</time>
      </trkpt>
      <trkpt lat="45.84122" lon="4.82078">
        <ele>304</ele>
        <time>2011-06-02T09:10:56Z</time>
      </trkpt>
      <trkpt lat="45.84123" lon="4.8208">
        <ele>299</ele>
        <time>2011-06-02T09:11:01Z</time>
      </trkpt>
      <trkpt lat="45.84125" lon="4.82081">
        <ele>298</ele>
        <time>2011-06-02T09:11:02Z</time>
      </trkpt>
      <trkpt lat="45.84127" lon="4.82082">
        <ele>297</ele>
        <time>2011-06-02T09:11:03Z</time>
      </trkpt>
      <trkpt lat="45.84129" lon="4.82083">
        <ele>297</ele>
        <time>2011-06-02T09:11:04Z</time>
      </trkpt>
      <trkpt lat="45.84132" lon="4.82083">
        <ele>296</ele>
        <time>2011-06-02T09:11:05Z</time>
      </trkpt>
      <trkpt lat="45.84134" lon="4.82084">
        <ele>296</ele>
        <time>2011-06-02T09:11:06Z</time>
      </trkpt>
      <trkpt lat="45.84135" lon="4.82084">
        <ele>296</ele>
        <time>2011-06-02T09:11:07Z</time>
      </trkpt>
      <trkpt lat="45.84137" lon="4.82085">
        <ele>296</ele>
        <time>2011-06-02T09:11:08Z</time>
      </trkpt>
      <trkpt lat="45.8414" lon="4.82085">
        <ele>296</ele>
        <time>2011-06-02T09:11:09Z</time>
      </trkpt>
      <trkpt lat="45.84143" lon="4.82087">
        <ele>296</ele>
        <time>2011-06-02T09:11:10Z</time>
      </trkpt>
      <trkpt lat="45.84146" lon="4.82088">
        <ele>295</ele>
        <time>2011-06-02T09:11:11Z</time>
      </trkpt>
      <trkpt lat="45.8415" lon="4.82089">
        <ele>295</ele>
        <time>2011-06-02T09:11:12Z</time>
      </trkpt>
      <trkpt lat="45.84153" lon="4.82091">
        <ele>295</ele>
        <time>2011-06-02T09:11:13Z</time>
      </trkpt>
      <trkpt lat="45.84156" lon="4.82091">
        <ele>295</ele>
        <time>2011-06-02T09:11:14Z</time>
      </trkpt>
      <trkpt lat="45.8416" lon="4.82092">
        <ele>295</ele>
        <time>2011-06-02T09:11:15Z</time>
      </trkpt>
      <trkpt lat="45.84165" lon="4.82094">
        <ele>294</ele>
        <time>2011-06-02T09:11:16Z</time>
      </trkpt>
      <trkpt lat="45.84169" lon="4.82095">
        <ele>293</ele>
        <time>2011-06-02T09:11:17Z</time>
      </trkpt>
      <trkpt lat="45.84174" lon="4.82097">
        <ele>292</ele>
        <time>2011-06-02T09:11:18Z</time>
      </trkpt>
      <trkpt lat="45.84178" lon="4.82099">
        <ele>291</ele>
        <time>2011-06-02T09:11:19Z</time>
      </trkpt>
      <trkpt lat="45.84182" lon="4.821">
        <ele>290</ele>
        <time>2011-06-02T09:11:20Z</time>
      </trkpt>
      <trkpt lat="45.84186" lon="4.82102">
        <ele>289</ele>
        <time>2011-06-02T09:11:21Z</time>
      </trkpt>
      <trkpt lat="45.8419" lon="4.82103">
        <ele>288</ele>
        <time>2011-06-02T09:11:22Z</time>
      </trkpt>
      <trkpt lat="45.84194" lon="4.82105">
        <ele>288</ele>
        <time>2011-06-02T09:11:23Z</time>
      </trkpt>
      <trkpt lat="45.84199" lon="4.82107">
        <ele>287</ele>
        <time>2011-06-02T09:11:24Z</time>
      </trkpt>
      <trkpt lat="45.84204" lon="4.82109">
        <ele>287</ele>
        <time>2011-06-02T09:11:25Z</time>
      </trkpt>
      <trkpt lat="45.84209" lon="4.82111">
        <ele>286</ele>
        <time>2011-06-02T09:11:26Z</time>
      </trkpt>
      <trkpt lat="45.84214" lon="4.82112">
        <ele>286</ele>
        <time>2011-06-02T09:11:27Z</time>
      </trkpt>
      <trkpt lat="45.84219" lon="4.82113">
        <ele>285</ele>
        <time>2011-06-02T09:11:28Z</time>
      </trkpt>
      <trkpt lat="45.84225" lon="4.82114">
        <ele>285</ele>
        <time>2011-06-02T09:11:29Z</time>
      </trkpt>
      <trkpt lat="45.84231" lon="4.82114">
        <ele>284</ele>
        <time>2011-06-02T09:11:30Z</time>
      </trkpt>
      <trkpt lat="45.84238" lon="4.82112">
        <ele>283</ele>
        <time>2011-06-02T09:11:31Z</time>
      </trkpt>
      <trkpt lat="45.84245" lon="4.8211">
        <ele>282</ele>
        <time>2011-06-02T09:11:32Z</time>
      </trkpt>
      <trkpt lat="45.84251" lon="4.82108">
        <ele>281</ele>
        <time>2011-06-02T09:11:33Z</time>
      </trkpt>
      <trkpt lat="45.84258" lon="4.82106">
        <ele>280</ele>
        <time>2011-06-02T09:11:34Z</time>
      </trkpt>
      <trkpt lat="45.84264" lon="4.82104">
        <ele>279</ele>
        <time>2011-06-02T09:11:35Z</time>
      </trkpt>
      <trkpt lat="45.84271" lon="4.82102">
        <ele>278</ele>
        <time>2011-06-02T09:11:36Z</time>
      </trkpt>
      <trkpt lat="45.84278" lon="4.821">
        <ele>278</ele>
        <time>2011-06-02T09:11:37Z</time>
      </trkpt>
      <trkpt lat="45.84284" lon="4.82098">
        <ele>277</ele>
        <time>2011-06-02T09:11:38Z</time>
      </trkpt>
      <trkpt lat="45.8429" lon="4.82094">
        <ele>276</ele>
        <time>2011-06-02T09:11:39Z</time>
      </trkpt>
      <trkpt lat="45.84295" lon="4.82091">
        <ele>276</ele>
        <time>2011-06-02T09:11:40Z</time>
      </trkpt>
      <trkpt lat="45.84301" lon="4.82086">
        <ele>275</ele>
        <time>2011-06-02T09:11:41Z</time>
      </trkpt>
      <trkpt lat="45.84308" lon="4.8208">
        <ele>275</ele>
        <time>2011-06-02T09:11:42Z</time>
      </trkpt>
      <trkpt lat="45.84315" lon="4.82073">
        <ele>274</ele>
        <time>2011-06-02T09:11:43Z</time>
      </trkpt>
      <trkpt lat="45.84322" lon="4.82066">
        <ele>274</ele>
        <time>2011-06-02T09:11:44Z</time>
      </trkpt>
      <trkpt lat="45.8433" lon="4.82059">
        <ele>274</ele>
        <time>2011-06-02T09:11:45Z</time>
      </trkpt>
      <trkpt lat="45.84337" lon="4.82052">
        <ele>273</ele>
        <time>2011-06-02T09:11:46Z</time>
      </trkpt>
      <trkpt lat="45.84344" lon="4.82045">
        <ele>273</ele>
        <time>2011-06-02T09:11:47Z</time>
      </trkpt>
      <trkpt lat="45.84351" lon="4.82038">
        <ele>272</ele>
        <time>2011-06-02T09:11:48Z</time>
      </trkpt>
      <trkpt lat="45.84359" lon="4.82031">
        <ele>272</ele>
        <time>2011-06-02T09:11:49Z</time>
      </trkpt>
      <trkpt lat="45.84366" lon="4.82024">
        <ele>271</ele>
        <time>2011-06-02T09:11:50Z</time>
      </trkpt>
      <trkpt lat="45.84373" lon="4.82017">
        <ele>271</ele>
        <time>2011-06-02T09:11:51Z</time>
      </trkpt>
      <trkpt lat="45.8438" lon="4.8201">
        <ele>270</ele>
        <time>2011-06-02T09:11:52Z</time>
      </trkpt>
      <trkpt lat="45.84386" lon="4.82003">
        <ele>269</ele>
        <time>2011-06-02T09:11:53Z</time>
      </trkpt>
      <trkpt lat="45.84391" lon="4.81996">
        <ele>269</ele>
        <time>2011-06-02T09:11:54Z</time>
      </trkpt>
      <trkpt lat="45.84394" lon="4.8199">
        <ele>268</ele>
        <time>2011-06-02T09:11:55Z</time>
      </trkpt>
      <trkpt lat="45.84397" lon="4.81985">
        <ele>267</ele>
        <time>2011-06-02T09:11:56Z</time>
      </trkpt>
      <trkpt lat="45.84398" lon="4.81981">
        <ele>267</ele>
        <time>2011-06-02T09:11:57Z</time>
      </trkpt>
      <trkpt lat="45.84399" lon="4.81977">
        <ele>266</ele>
        <time>2011-06-02T09:11:58Z</time>
      </trkpt>
      <trkpt lat="45.84401" lon="4.81975">
        <ele>266</ele>
        <time>2011-06-02T09:11:59Z</time>
      </trkpt>
      <trkpt lat="45.84403" lon="4.81973">
        <ele>266</ele>
        <time>2011-06-02T09:12:00Z</time>
      </trkpt>
      <trkpt lat="45.84406" lon="4.8197">
        <ele>265</ele>
        <time>2011-06-02T09:12:01Z</time>
      </trkpt>
      <trkpt lat="45.84407" lon="4.81968">
        <ele>265</ele>
        <time>2011-06-02T09:12:02Z</time>
      </trkpt>
      <trkpt lat="45.84409" lon="4.81964">
        <ele>265</ele>
        <time>2011-06-02T09:12:03Z</time>
      </trkpt>
      <trkpt lat="45.84409" lon="4.81959">
        <ele>265</ele>
        <time>2011-06-02T09:12:04Z</time>
      </trkpt>
      <trkpt lat="45.84411" lon="4.81952">
        <ele>265</ele>
        <time>2011-06-02T09:12:05Z</time>
      </trkpt>
      <trkpt lat="45.84413" lon="4.81944">
        <ele>265</ele>
        <time>2011-06-02T09:12:06Z</time>
      </trkpt>
      <trkpt lat="45.84415" lon="4.81936">
        <ele>265</ele>
        <time>2011-06-02T09:12:07Z</time>
      </trkpt>
      <trkpt lat="45.84418" lon="4.81927">
        <ele>265</ele>
        <time>2011-06-02T09:12:08Z</time>
      </trkpt>
      <trkpt lat="45.84422" lon="4.81918">
        <ele>265</ele>
        <time>2011-06-02T09:12:09Z</time>
      </trkpt>
      <trkpt lat="45.84425" lon="4.81909">
        <ele>264</ele>
        <time>2011-06-02T09:12:10Z</time>
      </trkpt>
      <trkpt lat="45.84429" lon="4.81901">
        <ele>264</ele>
        <time>2011-06-02T09:12:11Z</time>
      </trkpt>
      <trkpt lat="45.84432" lon="4.81894">
        <ele>263</ele>
        <time>2011-06-02T09:12:12Z</time>
      </trkpt>
      <trkpt lat="45.84436" lon="4.81888">
        <ele>263</ele>
        <time>2011-06-02T09:12:13Z</time>
      </trkpt>
      <trkpt lat="45.84439" lon="4.81884">
        <ele>262</ele>
        <time>2011-06-02T09:12:14Z</time>
      </trkpt>
      <trkpt lat="45.84441" lon="4.8188">
        <ele>261</ele>
        <time>2011-06-02T09:12:15Z</time>
      </trkpt>
      <trkpt lat="45.84444" lon="4.81878">
        <ele>260</ele>
        <time>2011-06-02T09:12:16Z</time>
      </trkpt>
      <trkpt lat="45.84447" lon="4.81877">
        <ele>259</ele>
        <time>2011-06-02T09:12:17Z</time>
      </trkpt>
      <trkpt lat="45.84451" lon="4.81876">
        <ele>259</ele>
        <time>2011-06-02T09:12:18Z</time>
      </trkpt>
      <trkpt lat="45.84454" lon="4.81875">
        <ele>259</ele>
        <time>2011-06-02T09:12:19Z</time>
      </trkpt>
      <trkpt lat="45.84459" lon="4.81876">
        <ele>259</ele>
        <time>2011-06-02T09:12:20Z</time>
      </trkpt>
      <trkpt lat="45.84463" lon="4.81877">
        <ele>259</ele>
        <time>2011-06-02T09:12:21Z</time>
      </trkpt>
      <trkpt lat="45.84467" lon="4.81879">
        <ele>259</ele>
        <time>2011-06-02T09:12:22Z</time>
      </trkpt>
      <trkpt lat="45.84471" lon="4.81882">
        <ele>258</ele>
        <time>2011-06-02T09:12:23Z</time>
      </trkpt>
      <trkpt lat="45.84475" lon="4.81886">
        <ele>258</ele>
        <time>2011-06-02T09:12:24Z</time>
      </trkpt>
      <trkpt lat="45.84478" lon="4.8189">
        <ele>258</ele>
        <time>2011-06-02T09:12:25Z</time>
      </trkpt>
      <trkpt lat="45.84481" lon="4.81894">
        <ele>258</ele>
        <time>2011-06-02T09:12:26Z</time>
      </trkpt>
      <trkpt lat="45.84484" lon="4.819">
        <ele>258</ele>
        <time>2011-06-02T09:12:27Z</time>
      </trkpt>
      <trkpt lat="45.84486" lon="4.81906">
        <ele>257</ele>
        <time>2011-06-02T09:12:28Z</time>
      </trkpt>
      <trkpt lat="45.84487" lon="4.81913">
        <ele>256</ele>
        <time>2011-06-02T09:12:29Z</time>
      </trkpt>
      <trkpt lat="45.84488" lon="4.81921">
        <ele>255</ele>
        <time>2011-06-02T09:12:30Z</time>
      </trkpt>
      <trkpt lat="45.84488" lon="4.81928">
        <ele>254</ele>
        <time>2011-06-02T09:12:31Z</time>
      </trkpt>
      <trkpt lat="45.84488" lon="4.81938">
        <ele>253</ele>
        <time>2011-06-02T09:12:32Z</time>
      </trkpt>
      <trkpt lat="45.84487" lon="4.81948">
        <ele>252</ele>
        <time>2011-06-02T09:12:33Z</time>
      </trkpt>
      <trkpt lat="45.84486" lon="4.81958">
        <ele>251</ele>
        <time>2011-06-02T09:12:34Z</time>
      </trkpt>
      <trkpt lat="45.84486" lon="4.81969">
        <ele>250</ele>
        <time>2011-06-02T09:12:35Z</time>
      </trkpt>
      <trkpt lat="45.84485" lon="4.8198">
        <ele>250</ele>
        <time>2011-06-02T09:12:36Z</time>
      </trkpt>
      <trkpt lat="45.84484" lon="4.8199">
        <ele>250</ele>
        <time>2011-06-02T09:12:37Z</time>
      </trkpt>
      <trkpt lat="45.84484" lon="4.82">
        <ele>250</ele>
        <time>2011-06-02T09:12:38Z</time>
      </trkpt>
      <trkpt lat="45.84483" lon="4.82011">
        <ele>250</ele>
        <time>2011-06-02T09:12:39Z</time>
      </trkpt>
      <trkpt lat="45.84483" lon="4.8202">
        <ele>250</ele>
        <time>2011-06-02T09:12:40Z</time>
      </trkpt>
      <trkpt lat="45.84483" lon="4.82028">
        <ele>250</ele>
        <time>2011-06-02T09:12:41Z</time>
      </trkpt>
      <trkpt lat="45.84482" lon="4.82035">
        <ele>250</ele>
        <time>2011-06-02T09:12:42Z</time>
      </trkpt>
      <trkpt lat="45.84483" lon="4.82042">
        <ele>249</ele>
        <time>2011-06-02T09:12:43Z</time>
      </trkpt>
      <trkpt lat="45.84485" lon="4.82048">
        <ele>248</ele>
        <time>2011-06-02T09:12:44Z</time>
      </trkpt>
      <trkpt lat="45.84488" lon="4.82056">
        <ele>247</ele>
        <time>2011-06-02T09:12:45Z</time>
      </trkpt>
      <trkpt lat="45.84493" lon="4.82065">
        <ele>246</ele>
        <time>2011-06-02T09:12:46Z</time>
      </trkpt>
      <trkpt lat="45.84499" lon="4.82075">
        <ele>244</ele>
        <time>2011-06-02T09:12:47Z</time>
      </trkpt>
      <trkpt lat="45.84504" lon="4.82084">
        <ele>242</ele>
        <time>2011-06-02T09:12:48Z</time>
      </trkpt>
      <trkpt lat="45.84508" lon="4.82094">
        <ele>240</ele>
        <time>2011-06-02T09:12:49Z</time>
      </trkpt>
      <trkpt lat="45.84513" lon="4.82106">
        <ele>238</ele>
        <time>2011-06-02T09:12:50Z</time>
      </trkpt>
      <trkpt lat="45.84517" lon="4.82118">
        <ele>236</ele>
        <time>2011-06-02T09:12:51Z</time>
      </trkpt>
      <trkpt lat="45.84519" lon="4.82127">
        <ele>234</ele>
        <time>2011-06-02T09:12:52Z</time>
      </trkpt>
      <trkpt lat="45.8452" lon="4.82136">
        <ele>233</ele>
        <time>2011-06-02T09:12:53Z</time>
      </trkpt>
      <trkpt lat="45.84519" lon="4.82143">
        <ele>232</ele>
        <time>2011-06-02T09:12:54Z</time>
      </trkpt>
      <trkpt lat="45.84518" lon="4.82152">
        <ele>231</ele>
        <time>2011-06-02T09:12:55Z</time>
      </trkpt>
      <trkpt lat="45.84518" lon="4.82163">
        <ele>230</ele>
        <time>2011-06-02T09:12:56Z</time>
      </trkpt>
      <trkpt lat="45.84515" lon="4.82172">
        <ele>229</ele>
        <time>2011-06-02T09:12:57Z</time>
      </trkpt>
      <trkpt lat="45.84512" lon="4.82183">
        <ele>228</ele>
        <time>2011-06-02T09:12:58Z</time>
      </trkpt>
      <trkpt lat="45.8451" lon="4.82195">
        <ele>228</ele>
        <time>2011-06-02T09:12:59Z</time>
      </trkpt>
      <trkpt lat="45.8451" lon="4.82207">
        <ele>228</ele>
        <time>2011-06-02T09:13:00Z</time>
      </trkpt>
      <trkpt lat="45.84509" lon="4.8222">
        <ele>227</ele>
        <time>2011-06-02T09:13:01Z</time>
      </trkpt>
      <trkpt lat="45.84508" lon="4.82232">
        <ele>227</ele>
        <time>2011-06-02T09:13:02Z</time>
      </trkpt>
      <trkpt lat="45.84506" lon="4.82245">
        <ele>227</ele>
        <time>2011-06-02T09:13:03Z</time>
      </trkpt>
      <trkpt lat="45.84504" lon="4.82257">
        <ele>226</ele>
        <time>2011-06-02T09:13:04Z</time>
      </trkpt>
      <trkpt lat="45.84503" lon="4.82269">
        <ele>225</ele>
        <time>2011-06-02T09:13:05Z</time>
      </trkpt>
      <trkpt lat="45.84502" lon="4.82281">
        <ele>225</ele>
        <time>2011-06-02T09:13:06Z</time>
      </trkpt>
      <trkpt lat="45.845" lon="4.82291">
        <ele>224</ele>
        <time>2011-06-02T09:13:07Z</time>
      </trkpt>
      <trkpt lat="45.84499" lon="4.82302">
        <ele>224</ele>
        <time>2011-06-02T09:13:08Z</time>
      </trkpt>
      <trkpt lat="45.84498" lon="4.82312">
        <ele>224</ele>
        <time>2011-06-02T09:13:09Z</time>
      </trkpt>
      <trkpt lat="45.84497" lon="4.82324">
        <ele>224</ele>
        <time>2011-06-02T09:13:10Z</time>
      </trkpt>
      <trkpt lat="45.84495" lon="4.82335">
        <ele>224</ele>
        <time>2011-06-02T09:13:11Z</time>
      </trkpt>
      <trkpt lat="45.84494" lon="4.82347">
        <ele>223</ele>
        <time>2011-06-02T09:13:12Z</time>
      </trkpt>
      <trkpt lat="45.84492" lon="4.82359">
        <ele>222</ele>
        <time>2011-06-02T09:13:13Z</time>
      </trkpt>
      <trkpt lat="45.84491" lon="4.82372">
        <ele>221</ele>
        <time>2011-06-02T09:13:14Z</time>
      </trkpt>
      <trkpt lat="45.84489" lon="4.82386">
        <ele>220</ele>
        <time>2011-06-02T09:13:15Z</time>
      </trkpt>
      <trkpt lat="45.84488" lon="4.824">
        <ele>219</ele>
        <time>2011-06-02T09:13:16Z</time>
      </trkpt>
      <trkpt lat="45.84486" lon="4.82414">
        <ele>218</ele>
        <time>2011-06-02T09:13:17Z</time>
      </trkpt>
      <trkpt lat="45.84485" lon="4.82428">
        <ele>217</ele>
        <time>2011-06-02T09:13:18Z</time>
      </trkpt>
      <trkpt lat="45.84483" lon="4.82441">
        <ele>216</ele>
        <time>2011-06-02T09:13:19Z</time>
      </trkpt>
      <trkpt lat="45.84483" lon="4.82454">
        <ele>215</ele>
        <time>2011-06-02T09:13:20Z</time>
      </trkpt>
      <trkpt lat="45.84481" lon="4.82466">
        <ele>214</ele>
        <time>2011-06-02T09:13:21Z</time>
      </trkpt>
      <trkpt lat="45.84481" lon="4.82477">
        <ele>213</ele>
        <time>2011-06-02T09:13:22Z</time>
      </trkpt>
      <trkpt lat="45.84481" lon="4.82488">
        <ele>212</ele>
        <time>2011-06-02T09:13:23Z</time>
      </trkpt>
      <trkpt lat="45.8448" lon="4.825">
        <ele>211</ele>
        <time>2011-06-02T09:13:24Z</time>
      </trkpt>
      <trkpt lat="45.8448" lon="4.8251">
        <ele>210</ele>
        <time>2011-06-02T09:13:25Z</time>
      </trkpt>
      <trkpt lat="45.84479" lon="4.82519">
        <ele>209</ele>
        <time>2011-06-02T09:13:26Z</time>
      </trkpt>
      <trkpt lat="45.84479" lon="4.82527">
        <ele>208</ele>
        <time>2011-06-02T09:13:27Z</time>
      </trkpt>
      <trkpt lat="45.84479" lon="4.82535">
        <ele>207</ele>
        <time>2011-06-02T09:13:28Z</time>
      </trkpt>
      <trkpt lat="45.8448" lon="4.82544">
        <ele>205</ele>
        <time>2011-06-02T09:13:29Z</time>
      </trkpt>
      <trkpt lat="45.8448" lon="4.8255">
        <ele>203</ele>
        <time>2011-06-02T09:13:30Z</time>
      </trkpt>
      <trkpt lat="45.8448" lon="4.82557">
        <ele>201</ele>
        <time>2011-06-02T09:13:31Z</time>
      </trkpt>
      <trkpt lat="45.8448" lon="4.82565">
        <ele>199</ele>
        <time>2011-06-02T09:13:32Z</time>
      </trkpt>
      <trkpt lat="45.84478" lon="4.82573">
        <ele>198</ele>
        <time>2011-06-02T09:13:33Z</time>
      </trkpt>
      <trkpt lat="45.84477" lon="4.8258">
        <ele>196</ele>
        <time>2011-06-02T09:13:34Z</time>
      </trkpt>
      <trkpt lat="45.84476" lon="4.82587">
        <ele>195</ele>
        <time>2011-06-02T09:13:35Z</time>
      </trkpt>
      <trkpt lat="45.84474" lon="4.82594">
        <ele>194</ele>
        <time>2011-06-02T09:13:36Z</time>
      </trkpt>
      <trkpt lat="45.84472" lon="4.82601">
        <ele>193</ele>
        <time>2011-06-02T09:13:37Z</time>
      </trkpt>
      <trkpt lat="45.84469" lon="4.82608">
        <ele>192</ele>
        <time>2011-06-02T09:13:38Z</time>
      </trkpt>
      <trkpt lat="45.84467" lon="4.82614">
        <ele>191</ele>
        <time>2011-06-02T09:13:39Z</time>
      </trkpt>
      <trkpt lat="45.84465" lon="4.82622">
        <ele>190</ele>
        <time>2011-06-02T09:13:40Z</time>
      </trkpt>
      <trkpt lat="45.84464" lon="4.8263">
        <ele>189</ele>
        <time>2011-06-02T09:13:41Z</time>
      </trkpt>
      <trkpt lat="45.84464" lon="4.8264">
        <ele>188</ele>
        <time>2011-06-02T09:13:42Z</time>
      </trkpt>
      <trkpt lat="45.84465" lon="4.82649">
        <ele>187</ele>
        <time>2011-06-02T09:13:43Z</time>
      </trkpt>
      <trkpt lat="45.84465" lon="4.82659">
        <ele>186</ele>
        <time>2011-06-02T09:13:44Z</time>
      </trkpt>
      <trkpt lat="45.84465" lon="4.82669">
        <ele>185</ele>
        <time>2011-06-02T09:13:45Z</time>
      </trkpt>
      <trkpt lat="45.84464" lon="4.82679">
        <ele>184</ele>
        <time>2011-06-02T09:13:46Z</time>
      </trkpt>
      <trkpt lat="45.84464" lon="4.82687">
        <ele>183</ele>
        <time>2011-06-02T09:13:47Z</time>
      </trkpt>
      <trkpt lat="45.84462" lon="4.82695">
        <ele>182</ele>
        <time>2011-06-02T09:13:48Z</time>
      </trkpt>
      <trkpt lat="45.84461" lon="4.82702">
        <ele>182</ele>
        <time>2011-06-02T09:13:49Z</time>
      </trkpt>
      <trkpt lat="45.8446" lon="4.82708">
        <ele>182</ele>
        <time>2011-06-02T09:13:50Z</time>
      </trkpt>
      <trkpt lat="45.84459" lon="4.82714">
        <ele>182</ele>
        <time>2011-06-02T09:13:51Z</time>
      </trkpt>
      <trkpt lat="45.84458" lon="4.82719">
        <ele>182</ele>
        <time>2011-06-02T09:13:52Z</time>
      </trkpt>
      <trkpt lat="45.84457" lon="4.82722">
        <ele>182</ele>
        <time>2011-06-02T09:13:53Z</time>
      </trkpt>
      <trkpt lat="45.84457" lon="4.82725">
        <ele>182</ele>
        <time>2011-06-02T09:13:54Z</time>
      </trkpt>
      <trkpt lat="45.84457" lon="4.82729">
        <ele>182</ele>
        <time>2011-06-02T09:13:55Z</time>
      </trkpt>
      <trkpt lat="45.84457" lon="4.82734">
        <ele>181</ele>
        <time>2011-06-02T09:13:56Z</time>
      </trkpt>
      <trkpt lat="45.84459" lon="4.8274">
        <ele>180</ele>
        <time>2011-06-02T09:13:57Z</time>
      </trkpt>
      <trkpt lat="45.8446" lon="4.82747">
        <ele>179</ele>
        <time>2011-06-02T09:13:58Z</time>
      </trkpt>
      <trkpt lat="45.84463" lon="4.82753">
        <ele>178</ele>
        <time>2011-06-02T09:13:59Z</time>
      </trkpt>
      <trkpt lat="45.84465" lon="4.82759">
        <ele>177</ele>
        <time>2011-06-02T09:14:00Z</time>
      </trkpt>
      <trkpt lat="45.84468" lon="4.82767">
        <ele>176</ele>
        <time>2011-06-02T09:14:01Z</time>
      </trkpt>
      <trkpt lat="45.8447" lon="4.82774">
        <ele>175</ele>
        <time>2011-06-02T09:14:02Z</time>
      </trkpt>
      <trkpt lat="45.84473" lon="4.8278">
        <ele>174</ele>
        <time>2011-06-02T09:14:03Z</time>
      </trkpt>
      <trkpt lat="45.84476" lon="4.82786">
        <ele>173</ele>
        <time>2011-06-02T09:14:04Z</time>
      </trkpt>
      <trkpt lat="45.84478" lon="4.82792">
        <ele>172</ele>
        <time>2011-06-02T09:14:05Z</time>
      </trkpt>
      <trkpt lat="45.84481" lon="4.82796">
        <ele>171</ele>
        <time>2011-06-02T09:14:06Z</time>
      </trkpt>
      <trkpt lat="45.84484" lon="4.828">
        <ele>170</ele>
        <time>2011-06-02T09:14:07Z</time>
      </trkpt>
      <trkpt lat="45.84487" lon="4.82804">
        <ele>168</ele>
        <time>2011-06-02T09:14:08Z</time>
      </trkpt>
      <trkpt lat="45.8449" lon="4.82808">
        <ele>167</ele>
        <time>2011-06-02T09:14:09Z</time>
      </trkpt>
      <trkpt lat="45.84492" lon="4.82813">
        <ele>166</ele>
        <time>2011-06-02T09:14:10Z</time>
      </trkpt>
      <trkpt lat="45.84495" lon="4.82816">
        <ele>165</ele>
        <time>2011-06-02T09:14:11Z</time>
      </trkpt>
      <trkpt lat="45.84496" lon="4.82822">
        <ele>164</ele>
        <time>2011-06-02T09:14:12Z</time>
      </trkpt>
      <trkpt lat="45.84497" lon="4.82827">
        <ele>163</ele>
        <time>2011-06-02T09:14:13Z</time>
      </trkpt>
      <trkpt lat="45.84498" lon="4.82833">
        <ele>162</ele>
        <time>2011-06-02T09:14:14Z</time>
      </trkpt>
      <trkpt lat="45.84498" lon="4.8284">
        <ele>161</ele>
        <time>2011-06-02T09:14:15Z</time>
      </trkpt>
      <trkpt lat="45.84498" lon="4.82848">
        <ele>161</ele>
        <time>2011-06-02T09:14:16Z</time>
      </trkpt>
      <trkpt lat="45.84497" lon="4.82855">
        <ele>160</ele>
        <time>2011-06-02T09:14:17Z</time>
      </trkpt>
      <trkpt lat="45.84496" lon="4.82861">
        <ele>160</ele>
        <time>2011-06-02T09:14:18Z</time>
      </trkpt>
      <trkpt lat="45.84495" lon="4.82869">
        <ele>160</ele>
        <time>2011-06-02T09:14:19Z</time>
      </trkpt>
      <trkpt lat="45.84495" lon="4.82876">
        <ele>160</ele>
        <time>2011-06-02T09:14:20Z</time>
      </trkpt>
      <trkpt lat="45.84494" lon="4.82882">
        <ele>160</ele>
        <time>2011-06-02T09:14:21Z</time>
      </trkpt>
      <trkpt lat="45.84492" lon="4.82887">
        <ele>160</ele>
        <time>2011-06-02T09:14:22Z</time>
      </trkpt>
      <trkpt lat="45.84489" lon="4.82891">
        <ele>160</ele>
        <time>2011-06-02T09:14:23Z</time>
      </trkpt>
      <trkpt lat="45.84486" lon="4.82892">
        <ele>160</ele>
        <time>2011-06-02T09:14:24Z</time>
      </trkpt>
      <trkpt lat="45.84486" lon="4.82898">
        <ele>160</ele>
        <time>2011-06-02T09:14:25Z</time>
      </trkpt>
      <trkpt lat="45.84486" lon="4.829">
        <ele>160</ele>
        <time>2011-06-02T09:14:26Z</time>
      </trkpt>
      <trkpt lat="45.84486" lon="4.82906">
        <ele>160</ele>
        <time>2011-06-02T09:14:28Z</time>
      </trkpt>
      <trkpt lat="45.84485" lon="4.82909">
        <ele>160</ele>
        <time>2011-06-02T09:14:29Z</time>
      </trkpt>
      <trkpt lat="45.84485" lon="4.82915">
        <ele>160</ele>
        <time>2011-06-02T09:14:30Z</time>
      </trkpt>
      <trkpt lat="45.84486" lon="4.82922">
        <ele>160</ele>
        <time>2011-06-02T09:14:31Z</time>
      </trkpt>
      <trkpt lat="45.84489" lon="4.82931">
        <ele>161</ele>
        <time>2011-06-02T09:14:32Z</time>
      </trkpt>
      <trkpt lat="45.84492" lon="4.82939">
        <ele>162</ele>
        <time>2011-06-02T09:14:33Z</time>
      </trkpt>
      <trkpt lat="45.84495" lon="4.82947">
        <ele>163</ele>
        <time>2011-06-02T09:14:34Z</time>
      </trkpt>
      <trkpt lat="45.84496" lon="4.82956">
        <ele>163</ele>
        <time>2011-06-02T09:14:35Z</time>
      </trkpt>
      <trkpt lat="45.84497" lon="4.82965">
        <ele>163</ele>
        <time>2011-06-02T09:14:36Z</time>
      </trkpt>
      <trkpt lat="45.84501" lon="4.82976">
        <ele>163</ele>
        <time>2011-06-02T09:14:37Z</time>
      </trkpt>
      <trkpt lat="45.84502" lon="4.82986">
        <ele>163</ele>
        <time>2011-06-02T09:14:38Z</time>
      </trkpt>
      <trkpt lat="45.84504" lon="4.82996">
        <ele>163</ele>
        <time>2011-06-02T09:14:39Z</time>
      </trkpt>
      <trkpt lat="45.84508" lon="4.83006">
        <ele>163</ele>
        <time>2011-06-02T09:14:40Z</time>
      </trkpt>
      <trkpt lat="45.84511" lon="4.83014">
        <ele>163</ele>
        <time>2011-06-02T09:14:41Z</time>
      </trkpt>
      <trkpt lat="45.84515" lon="4.83024">
        <ele>163</ele>
        <time>2011-06-02T09:14:42Z</time>
      </trkpt>
      <trkpt lat="45.84519" lon="4.83033">
        <ele>163</ele>
        <time>2011-06-02T09:14:43Z</time>
      </trkpt>
      <trkpt lat="45.84522" lon="4.83042">
        <ele>163</ele>
        <time>2011-06-02T09:14:44Z</time>
      </trkpt>
      <trkpt lat="45.84525" lon="4.83053">
        <ele>162</ele>
        <time>2011-06-02T09:14:45Z</time>
      </trkpt>
      <trkpt lat="45.84527" lon="4.83063">
        <ele>161</ele>
        <time>2011-06-02T09:14:46Z</time>
      </trkpt>
      <trkpt lat="45.84529" lon="4.83072">
        <ele>161</ele>
        <time>2011-06-02T09:14:47Z</time>
      </trkpt>
      <trkpt lat="45.84531" lon="4.83082">
        <ele>161</ele>
        <time>2011-06-02T09:14:48Z</time>
      </trkpt>
      <trkpt lat="45.84536" lon="4.83092">
        <ele>161</ele>
        <time>2011-06-02T09:14:49Z</time>
      </trkpt>
      <trkpt lat="45.84538" lon="4.831">
        <ele>161</ele>
        <time>2011-06-02T09:14:50Z</time>
      </trkpt>
      <trkpt lat="45.84539" lon="4.83106">
        <ele>161</ele>
        <time>2011-06-02T09:14:51Z</time>
      </trkpt>
      <trkpt lat="45.8454" lon="4.83113">
        <ele>161</ele>
        <time>2011-06-02T09:14:52Z</time>
      </trkpt>
      <trkpt lat="45.84542" lon="4.8312">
        <ele>161</ele>
        <time>2011-06-02T09:14:53Z</time>
      </trkpt>
      <trkpt lat="45.84547" lon="4.83128">
        <ele>161</ele>
        <time>2011-06-02T09:14:54Z</time>
      </trkpt>
      <trkpt lat="45.8455" lon="4.83136">
        <ele>161</ele>
        <time>2011-06-02T09:14:55Z</time>
      </trkpt>
      <trkpt lat="45.8455" lon="4.83143">
        <ele>161</ele>
        <time>2011-06-02T09:14:56Z</time>
      </trkpt>
      <trkpt lat="45.84549" lon="4.83147">
        <ele>161</ele>
        <time>2011-06-02T09:14:57Z</time>
      </trkpt>
      <trkpt lat="45.84546" lon="4.8315">
        <ele>161</ele>
        <time>2011-06-02T09:14:58Z</time>
      </trkpt>
      <trkpt lat="45.84543" lon="4.83151">
        <ele>161</ele>
        <time>2011-06-02T09:14:59Z</time>
      </trkpt>
      <trkpt lat="45.84539" lon="4.83153">
        <ele>161</ele>
        <time>2011-06-02T09:15:00Z</time>
      </trkpt>
      <trkpt lat="45.84537" lon="4.83156">
        <ele>162</ele>
        <time>2011-06-02T09:15:01Z</time>
      </trkpt>
      <trkpt lat="45.84535" lon="4.83161">
        <ele>163</ele>
        <time>2011-06-02T09:15:02Z</time>
      </trkpt>
      <trkpt lat="45.84534" lon="4.83166">
        <ele>164</ele>
        <time>2011-06-02T09:15:03Z</time>
      </trkpt>
      <trkpt lat="45.84532" lon="4.83171">
        <ele>165</ele>
        <time>2011-06-02T09:15:04Z</time>
      </trkpt>
      <trkpt lat="45.84531" lon="4.83176">
        <ele>165</ele>
        <time>2011-06-02T09:15:05Z</time>
      </trkpt>
      <trkpt lat="45.84531" lon="4.83182">
        <ele>165</ele>
        <time>2011-06-02T09:15:06Z</time>
      </trkpt>
      <trkpt lat="45.8453" lon="4.83187">
        <ele>165</ele>
        <time>2011-06-02T09:15:07Z</time>
      </trkpt>
      <trkpt lat="45.84529" lon="4.83192">
        <ele>165</ele>
        <time>2011-06-02T09:15:08Z</time>
      </trkpt>
      <trkpt lat="45.84529" lon="4.83197">
        <ele>166</ele>
        <time>2011-06-02T09:15:09Z</time>
      </trkpt>
      <trkpt lat="45.84529" lon="4.83203">
        <ele>167</ele>
        <time>2011-06-02T09:15:10Z</time>
      </trkpt>
      <trkpt lat="45.84529" lon="4.83206">
        <ele>167</ele>
        <time>2011-06-02T09:15:11Z</time>
      </trkpt>
      <trkpt lat="45.84528" lon="4.83209">
        <ele>168</ele>
        <time>2011-06-02T09:15:12Z</time>
      </trkpt>
      <trkpt lat="45.84528" lon="4.83213">
        <ele>169</ele>
        <time>2011-06-02T09:15:13Z</time>
      </trkpt>
      <trkpt lat="45.84528" lon="4.83216">
        <ele>169</ele>
        <time>2011-06-02T09:15:14Z</time>
      </trkpt>
      <trkpt lat="45.84528" lon="4.83218">
        <ele>169</ele>
        <time>2011-06-02T09:15:15Z</time>
      </trkpt>
      <trkpt lat="45.84528" lon="4.8322">
        <ele>170</ele>
        <time>2011-06-02T09:15:17Z</time>
      </trkpt>
      <trkpt lat="45.84527" lon="4.83222">
        <ele>171</ele>
        <time>2011-06-02T09:15:19Z</time>
      </trkpt>
      <trkpt lat="45.84526" lon="4.83224">
        <ele>173</ele>
        <time>2011-06-02T09:15:22Z</time>
      </trkpt>
      <trkpt lat="45.84525" lon="4.83224">
        <ele>174</ele>
        <time>2011-06-02T09:15:27Z</time>
      </trkpt>
      <trkpt lat="45.84524" lon="4.83223">
        <ele>174</ele>
        <time>2011-06-02T09:15:31Z</time>
      </trkpt>
      <trkpt lat="45.84523" lon="4.83222">
        <ele>174</ele>
        <time>2011-06-02T09:15:35Z</time>
      </trkpt>
      <trkpt lat="45.84521" lon="4.83221">
        <ele>174</ele>
        <time>2011-06-02T09:15:41Z</time>
      </trkpt>
      <trkpt lat="45.84521" lon="4.83224">
        <ele>173</ele>
        <time>2011-06-02T09:15:44Z</time>
      </trkpt>
      <trkpt lat="45.84521" lon="4.83226">
        <ele>173</ele>
        <time>2011-06-02T09:15:45Z</time>
      </trkpt>
      <trkpt lat="45.84521" lon="4.83229">
        <ele>173</ele>
        <time>2011-06-02T09:15:46Z</time>
      </trkpt>
      <trkpt lat="45.84521" lon="4.83233">
        <ele>173</ele>
        <time>2011-06-02T09:15:47Z</time>
      </trkpt>
      <trkpt lat="45.84521" lon="4.83237">
        <ele>173</ele>
        <time>2011-06-02T09:15:48Z</time>
      </trkpt>
      <trkpt lat="45.8452" lon="4.83241">
        <ele>173</ele>
        <time>2011-06-02T09:15:49Z</time>
      </trkpt>
      <trkpt lat="45.8452" lon="4.83244">
        <ele>173</ele>
        <time>2011-06-02T09:15:50Z</time>
      </trkpt>
      <trkpt lat="45.84519" lon="4.83247">
        <ele>173</ele>
        <time>2011-06-02T09:15:51Z</time>
      </trkpt>
      <trkpt lat="45.84519" lon="4.83252">
        <ele>173</ele>
        <time>2011-06-02T09:15:52Z</time>
      </trkpt>
      <trkpt lat="45.84518" lon="4.83256">
        <ele>173</ele>
        <time>2011-06-02T09:15:53Z</time>
      </trkpt>
      <trkpt lat="45.84518" lon="4.83261">
        <ele>173</ele>
        <time>2011-06-02T09:15:54Z</time>
      </trkpt>
      <trkpt lat="45.84517" lon="4.83265">
        <ele>173</ele>
        <time>2011-06-02T09:15:55Z</time>
      </trkpt>
      <trkpt lat="45.84518" lon="4.83269">
        <ele>173</ele>
        <time>2011-06-02T09:15:56Z</time>
      </trkpt>
      <trkpt lat="45.84517" lon="4.83273">
        <ele>173</ele>
        <time>2011-06-02T09:15:57Z</time>
      </trkpt>
      <trkpt lat="45.84517" lon="4.83278">
        <ele>173</ele>
        <time>2011-06-02T09:15:58Z</time>
      </trkpt>
      <trkpt lat="45.84516" lon="4.83282">
        <ele>173</ele>
        <time>2011-06-02T09:15:59Z</time>
      </trkpt>
      <trkpt lat="45.84516" lon="4.83286">
        <ele>173</ele>
        <time>2011-06-02T09:16:00Z</time>
      </trkpt>
      <trkpt lat="45.84515" lon="4.8329">
        <ele>173</ele>
        <time>2011-06-02T09:16:01Z</time>
      </trkpt>
      <trkpt lat="45.84515" lon="4.83295">
        <ele>173</ele>
        <time>2011-06-02T09:16:02Z</time>
      </trkpt>
      <trkpt lat="45.84515" lon="4.83299">
        <ele>173</ele>
        <time>2011-06-02T09:16:03Z</time>
      </trkpt>
      <trkpt lat="45.84514" lon="4.83303">
        <ele>173</ele>
        <time>2011-06-02T09:16:04Z</time>
      </trkpt>
      <trkpt lat="45.84513" lon="4.83308">
        <ele>173</ele>
        <time>2011-06-02T09:16:05Z</time>
      </trkpt>
      <trkpt lat="45.84513" lon="4.83312">
        <ele>173</ele>
        <time>2011-06-02T09:16:06Z</time>
      </trkpt>
      <trkpt lat="45.84512" lon="4.83317">
        <ele>173</ele>
        <time>2011-06-02T09:16:07Z</time>
      </trkpt>
      <trkpt lat="45.84512" lon="4.83322">
        <ele>173</ele>
        <time>2011-06-02T09:16:08Z</time>
      </trkpt>
      <trkpt lat="45.84512" lon="4.83326">
        <ele>173</ele>
        <time>2011-06-02T09:16:09Z</time>
      </trkpt>
      <trkpt lat="45.84511" lon="4.8333">
        <ele>173</ele>
        <time>2011-06-02T09:16:10Z</time>
      </trkpt>
      <trkpt lat="45.84511" lon="4.83335">
        <ele>174</ele>
        <time>2011-06-02T09:16:11Z</time>
      </trkpt>
      <trkpt lat="45.8451" lon="4.8334">
        <ele>174</ele>
        <time>2011-06-02T09:16:12Z</time>
      </trkpt>
      <trkpt lat="45.8451" lon="4.83344">
        <ele>174</ele>
        <time>2011-06-02T09:16:13Z</time>
      </trkpt>
      <trkpt lat="45.84509" lon="4.83347">
        <ele>174</ele>
        <time>2011-06-02T09:16:14Z</time>
      </trkpt>
      <trkpt lat="45.84509" lon="4.8335">
        <ele>174</ele>
        <time>2011-06-02T09:16:15Z</time>
      </trkpt>
      <trkpt lat="45.84509" lon="4.83354">
        <ele>174</ele>
        <time>2011-06-02T09:16:16Z</time>
      </trkpt>
      <trkpt lat="45.84509" lon="4.83358">
        <ele>174</ele>
        <time>2011-06-02T09:16:17Z</time>
      </trkpt>
      <trkpt lat="45.84509" lon="4.83363">
        <ele>174</ele>
        <time>2011-06-02T09:16:18Z</time>
      </trkpt>
      <trkpt lat="45.84508" lon="4.83368">
        <ele>173</ele>
        <time>2011-06-02T09:16:19Z</time>
      </trkpt>
      <trkpt lat="45.84507" lon="4.83373">
        <ele>172</ele>
        <time>2011-06-02T09:16:20Z</time>
      </trkpt>
      <trkpt lat="45.84507" lon="4.83379">
        <ele>171</ele>
        <time>2011-06-02T09:16:21Z</time>
      </trkpt>
      <trkpt lat="45.84506" lon="4.83384">
        <ele>171</ele>
        <time>2011-06-02T09:16:22Z</time>
      </trkpt>
      <trkpt lat="45.84505" lon="4.8339">
        <ele>170</ele>
        <time>2011-06-02T09:16:23Z</time>
      </trkpt>
      <trkpt lat="45.84505" lon="4.83395">
        <ele>170</ele>
        <time>2011-06-02T09:16:24Z</time>
      </trkpt>
      <trkpt lat="45.84505" lon="4.834">
        <ele>170</ele>
        <time>2011-06-02T09:16:25Z</time>
      </trkpt>
      <trkpt lat="45.84504" lon="4.83405">
        <ele>170</ele>
        <time>2011-06-02T09:16:26Z</time>
      </trkpt>
      <trkpt lat="45.84503" lon="4.8341">
        <ele>170</ele>
        <time>2011-06-02T09:16:27Z</time>
      </trkpt>
      <trkpt lat="45.84502" lon="4.83415">
        <ele>169</ele>
        <time>2011-06-02T09:16:28Z</time>
      </trkpt>
      <trkpt lat="45.84501" lon="4.8342">
        <ele>169</ele>
        <time>2011-06-02T09:16:29Z</time>
      </trkpt>
      <trkpt lat="45.84501" lon="4.83425">
        <ele>169</ele>
        <time>2011-06-02T09:16:30Z</time>
      </trkpt>
      <trkpt lat="45.845" lon="4.8343">
        <ele>168</ele>
        <time>2011-06-02T09:16:31Z</time>
      </trkpt>
      <trkpt lat="45.84499" lon="4.83435">
        <ele>167</ele>
        <time>2011-06-02T09:16:32Z</time>
      </trkpt>
      <trkpt lat="45.84499" lon="4.83441">
        <ele>167</ele>
        <time>2011-06-02T09:16:33Z</time>
      </trkpt>
      <trkpt lat="45.84498" lon="4.83446">
        <ele>166</ele>
        <time>2011-06-02T09:16:34Z</time>
      </trkpt>
      <trkpt lat="45.84497" lon="4.83451">
        <ele>166</ele>
        <time>2011-06-02T09:16:35Z</time>
      </trkpt>
      <trkpt lat="45.84496" lon="4.83455">
        <ele>165</ele>
        <time>2011-06-02T09:16:36Z</time>
      </trkpt>
      <trkpt lat="45.84496" lon="4.83459">
        <ele>165</ele>
        <time>2011-06-02T09:16:38Z</time>
      </trkpt>
      <trkpt lat="45.84495" lon="4.83462">
        <ele>165</ele>
        <time>2011-06-02T09:16:38Z</time>
      </trkpt>
      <trkpt lat="45.84494" lon="4.83466">
        <ele>165</ele>
        <time>2011-06-02T09:16:39Z</time>
      </trkpt>
      <trkpt lat="45.84493" lon="4.83469">
        <ele>164</ele>
        <time>2011-06-02T09:16:40Z</time>
      </trkpt>
      <trkpt lat="45.84492" lon="4.83473">
        <ele>164</ele>
        <time>2011-06-02T09:16:41Z</time>
      </trkpt>
      <trkpt lat="45.84492" lon="4.83476">
        <ele>163</ele>
        <time>2011-06-02T09:16:42Z</time>
      </trkpt>
      <trkpt lat="45.84492" lon="4.83478">
        <ele>162</ele>
        <time>2011-06-02T09:16:43Z</time>
      </trkpt>
      <trkpt lat="45.84492" lon="4.8348">
        <ele>161</ele>
        <time>2011-06-02T09:16:44Z</time>
      </trkpt>
      <trkpt lat="45.84491" lon="4.83482">
        <ele>161</ele>
        <time>2011-06-02T09:16:45Z</time>
      </trkpt>
      <trkpt lat="45.8449" lon="4.83483">
        <ele>161</ele>
        <time>2011-06-02T09:16:46Z</time>
      </trkpt>
      <trkpt lat="45.84489" lon="4.83483">
        <ele>161</ele>
        <time>2011-06-02T09:16:47Z</time>
      </trkpt>
      <trkpt lat="45.84486" lon="4.83481">
        <ele>161</ele>
        <time>2011-06-02T09:16:49Z</time>
      </trkpt>
      <trkpt lat="45.84485" lon="4.83478">
        <ele>161</ele>
        <time>2011-06-02T09:16:50Z</time>
      </trkpt>
      <trkpt lat="45.84484" lon="4.83474">
        <ele>161</ele>
        <time>2011-06-02T09:16:51Z</time>
      </trkpt>
      <trkpt lat="45.84483" lon="4.83471">
        <ele>161</ele>
        <time>2011-06-02T09:16:52Z</time>
      </trkpt>
      <trkpt lat="45.84483" lon="4.83468">
        <ele>161</ele>
        <time>2011-06-02T09:16:53Z</time>
      </trkpt>
      <trkpt lat="45.84483" lon="4.83465">
        <ele>160</ele>
        <time>2011-06-02T09:16:54Z</time>
      </trkpt>
      <trkpt lat="45.84484" lon="4.83462">
        <ele>160</ele>
        <time>2011-06-02T09:16:55Z</time>
      </trkpt>
      <trkpt lat="45.84485" lon="4.8346">
        <ele>160</ele>
        <time>2011-06-02T09:16:56Z</time>
      </trkpt>
      <trkpt lat="45.84487" lon="4.83459">
        <ele>160</ele>
        <time>2011-06-02T09:16:57Z</time>
      </trkpt>
      <trkpt lat="45.8449" lon="4.83459">
        <ele>160</ele>
        <time>2011-06-02T09:16:58Z</time>
      </trkpt>
      <trkpt lat="45.84492" lon="4.8346">
        <ele>160</ele>
        <time>2011-06-02T09:16:59Z</time>
      </trkpt>
      <trkpt lat="45.84494" lon="4.83461">
        <ele>160</ele>
        <time>2011-06-02T09:17:00Z</time>
      </trkpt>
      <trkpt lat="45.84497" lon="4.83461">
        <ele>160</ele>
        <time>2011-06-02T09:17:01Z</time>
      </trkpt>
      <trkpt lat="45.84499" lon="4.83462">
        <ele>160</ele>
        <time>2011-06-02T09:17:02Z</time>
      </trkpt>
      <trkpt lat="45.84501" lon="4.83463">
        <ele>160</ele>
        <time>2011-06-02T09:17:03Z</time>
      </trkpt>
      <trkpt lat="45.84504" lon="4.83465">
        <ele>160</ele>
        <time>2011-06-02T09:17:04Z</time>
      </trkpt>
      <trkpt lat="45.84506" lon="4.83466">
        <ele>160</ele>
        <time>2011-06-02T09:17:05Z</time>
      </trkpt>
      <trkpt lat="45.84509" lon="4.83467">
        <ele>160</ele>
        <time>2011-06-02T09:17:06Z</time>
      </trkpt>
      <trkpt lat="45.84511" lon="4.83468">
        <ele>160</ele>
        <time>2011-06-02T09:17:07Z</time>
      </trkpt>
      <trkpt lat="45.84514" lon="4.8347">
        <ele>161</ele>
        <time>2011-06-02T09:17:08Z</time>
      </trkpt>
      <trkpt lat="45.84517" lon="4.83471">
        <ele>162</ele>
        <time>2011-06-02T09:17:09Z</time>
      </trkpt>
      <trkpt lat="45.8452" lon="4.83472">
        <ele>162</ele>
        <time>2011-06-02T09:17:10Z</time>
      </trkpt>
      <trkpt lat="45.84523" lon="4.83473">
        <ele>162</ele>
        <time>2011-06-02T09:17:11Z</time>
      </trkpt>
      <trkpt lat="45.84525" lon="4.83474">
        <ele>163</ele>
        <time>2011-06-02T09:17:12Z</time>
      </trkpt>
      <trkpt lat="45.84528" lon="4.83475">
        <ele>163</ele>
        <time>2011-06-02T09:17:13Z</time>
      </trkpt>
      <trkpt lat="45.84531" lon="4.83476">
        <ele>163</ele>
        <time>2011-06-02T09:17:14Z</time>
      </trkpt>
      <trkpt lat="45.84534" lon="4.83477">
        <ele>163</ele>
        <time>2011-06-02T09:17:15Z</time>
      </trkpt>
      <trkpt lat="45.84537" lon="4.83479">
        <ele>164</ele>
        <time>2011-06-02T09:17:16Z</time>
      </trkpt>
      <trkpt lat="45.8454" lon="4.8348">
        <ele>164</ele>
        <time>2011-06-02T09:17:17Z</time>
      </trkpt>
      <trkpt lat="45.84544" lon="4.83481">
        <ele>164</ele>
        <time>2011-06-02T09:17:18Z</time>
      </trkpt>
      <trkpt lat="45.84546" lon="4.83483">
        <ele>164</ele>
        <time>2011-06-02T09:17:19Z</time>
      </trkpt>
      <trkpt lat="45.84549" lon="4.83484">
        <ele>164</ele>
        <time>2011-06-02T09:17:20Z</time>
      </trkpt>
      <trkpt lat="45.84552" lon="4.83486">
        <ele>164</ele>
        <time>2011-06-02T09:17:21Z</time>
      </trkpt>
      <trkpt lat="45.84555" lon="4.83487">
        <ele>164</ele>
        <time>2011-06-02T09:17:22Z</time>
      </trkpt>
      <trkpt lat="45.84558" lon="4.83488">
        <ele>164</ele>
        <time>2011-06-02T09:17:23Z</time>
      </trkpt>
      <trkpt lat="45.84561" lon="4.83489">
        <ele>164</ele>
        <time>2011-06-02T09:17:24Z</time>
      </trkpt>
      <trkpt lat="45.84564" lon="4.83491">
        <ele>164</ele>
        <time>2011-06-02T09:17:25Z</time>
      </trkpt>
      <trkpt lat="45.84567" lon="4.83492">
        <ele>164</ele>
        <time>2011-06-02T09:17:26Z</time>
      </trkpt>
      <trkpt lat="45.8457" lon="4.83493">
        <ele>164</ele>
        <time>2011-06-02T09:17:27Z</time>
      </trkpt>
      <trkpt lat="45.84573" lon="4.83495">
        <ele>165</ele>
        <time>2011-06-02T09:17:28Z</time>
      </trkpt>
      <trkpt lat="45.84576" lon="4.83496">
        <ele>165</ele>
        <time>2011-06-02T09:17:29Z</time>
      </trkpt>
      <trkpt lat="45.84578" lon="4.83497">
        <ele>165</ele>
        <time>2011-06-02T09:17:30Z</time>
      </trkpt>
      <trkpt lat="45.84581" lon="4.83499">
        <ele>165</ele>
        <time>2011-06-02T09:17:31Z</time>
      </trkpt>
      <trkpt lat="45.84584" lon="4.835">
        <ele>165</ele>
        <time>2011-06-02T09:17:32Z</time>
      </trkpt>
      <trkpt lat="45.84586" lon="4.83501">
        <ele>165</ele>
        <time>2011-06-02T09:17:33Z</time>
      </trkpt>
      <trkpt lat="45.84589" lon="4.83502">
        <ele>165</ele>
        <time>2011-06-02T09:17:34Z</time>
      </trkpt>
      <trkpt lat="45.84591" lon="4.83504">
        <ele>165</ele>
        <time>2011-06-02T09:17:35Z</time>
      </trkpt>
      <trkpt lat="45.84594" lon="4.83506">
        <ele>165</ele>
        <time>2011-06-02T09:17:36Z</time>
      </trkpt>
      <trkpt lat="45.84596" lon="4.8351">
        <ele>165</ele>
        <time>2011-06-02T09:17:37Z</time>
      </trkpt>
      <trkpt lat="45.84597" lon="4.83514">
        <ele>165</ele>
        <time>2011-06-02T09:17:38Z</time>
      </trkpt>
      <trkpt lat="45.84599" lon="4.83518">
        <ele>165</ele>
        <time>2011-06-02T09:17:39Z</time>
      </trkpt>
      <trkpt lat="45.846" lon="4.83522">
        <ele>165</ele>
        <time>2011-06-02T09:17:40Z</time>
      </trkpt>
      <trkpt lat="45.84601" lon="4.83526">
        <ele>165</ele>
        <time>2011-06-02T09:17:41Z</time>
      </trkpt>
      <trkpt lat="45.84603" lon="4.83529">
        <ele>165</ele>
        <time>2011-06-02T09:17:42Z</time>
      </trkpt>
      <trkpt lat="45.84605" lon="4.83532">
        <ele>165</ele>
        <time>2011-06-02T09:17:43Z</time>
      </trkpt>
      <trkpt lat="45.84606" lon="4.83535">
        <ele>165</ele>
        <time>2011-06-02T09:17:44Z</time>
      </trkpt>
      <trkpt lat="45.84607" lon="4.83538">
        <ele>165</ele>
        <time>2011-06-02T09:17:45Z</time>
      </trkpt>
      <trkpt lat="45.84608" lon="4.83542">
        <ele>165</ele>
        <time>2011-06-02T09:17:46Z</time>
      </trkpt>
      <trkpt lat="45.84609" lon="4.83546">
        <ele>165</ele>
        <time>2011-06-02T09:17:47Z</time>
      </trkpt>
      <trkpt lat="45.8461" lon="4.83549">
        <ele>165</ele>
        <time>2011-06-02T09:17:48Z</time>
      </trkpt>
      <trkpt lat="45.84612" lon="4.83552">
        <ele>165</ele>
        <time>2011-06-02T09:17:49Z</time>
      </trkpt>
      <trkpt lat="45.84613" lon="4.83554">
        <ele>165</ele>
        <time>2011-06-02T09:17:50Z</time>
      </trkpt>
      <trkpt lat="45.84615" lon="4.83555">
        <ele>165</ele>
        <time>2011-06-02T09:17:51Z</time>
      </trkpt>
      <trkpt lat="45.84618" lon="4.83557">
        <ele>165</ele>
        <time>2011-06-02T09:17:52Z</time>
      </trkpt>
      <trkpt lat="45.8462" lon="4.83558">
        <ele>165</ele>
        <time>2011-06-02T09:17:53Z</time>
      </trkpt>
      <trkpt lat="45.84622" lon="4.83559">
        <ele>165</ele>
        <time>2011-06-02T09:17:54Z</time>
      </trkpt>
      <trkpt lat="45.84624" lon="4.8356">
        <ele>165</ele>
        <time>2011-06-02T09:17:55Z</time>
      </trkpt>
      <trkpt lat="45.84627" lon="4.83562">
        <ele>165</ele>
        <time>2011-06-02T09:17:56Z</time>
      </trkpt>
      <trkpt lat="45.84629" lon="4.83563">
        <ele>165</ele>
        <time>2011-06-02T09:17:57Z</time>
      </trkpt>
      <trkpt lat="45.84632" lon="4.83564">
        <ele>165</ele>
        <time>2011-06-02T09:17:58Z</time>
      </trkpt>
      <trkpt lat="45.84635" lon="4.83566">
        <ele>165</ele>
        <time>2011-06-02T09:17:59Z</time>
      </trkpt>
      <trkpt lat="45.84638" lon="4.83567">
        <ele>165</ele>
        <time>2011-06-02T09:18:00Z</time>
      </trkpt>
      <trkpt lat="45.84641" lon="4.83569">
        <ele>165</ele>
        <time>2011-06-02T09:18:01Z</time>
      </trkpt>
      <trkpt lat="45.84645" lon="4.8357">
        <ele>165</ele>
        <time>2011-06-02T09:18:02Z</time>
      </trkpt>
      <trkpt lat="45.84648" lon="4.83571">
        <ele>165</ele>
        <time>2011-06-02T09:18:03Z</time>
      </trkpt>
      <trkpt lat="45.84651" lon="4.83573">
        <ele>165</ele>
        <time>2011-06-02T09:18:04Z</time>
      </trkpt>
      <trkpt lat="45.84655" lon="4.83574">
        <ele>165</ele>
        <time>2011-06-02T09:18:05Z</time>
      </trkpt>
      <trkpt lat="45.84658" lon="4.83576">
        <ele>165</ele>
        <time>2011-06-02T09:18:06Z</time>
      </trkpt>
      <trkpt lat="45.84661" lon="4.83578">
        <ele>165</ele>
        <time>2011-06-02T09:18:07Z</time>
      </trkpt>
      <trkpt lat="45.84665" lon="4.83579">
        <ele>165</ele>
        <time>2011-06-02T09:18:08Z</time>
      </trkpt>
      <trkpt lat="45.84668" lon="4.83581">
        <ele>165</ele>
        <time>2011-06-02T09:18:09Z</time>
      </trkpt>
      <trkpt lat="45.84672" lon="4.83583">
        <ele>165</ele>
        <time>2011-06-02T09:18:10Z</time>
      </trkpt>
      <trkpt lat="45.84675" lon="4.83584">
        <ele>165</ele>
        <time>2011-06-02T09:18:11Z</time>
      </trkpt>
      <trkpt lat="45.84678" lon="4.83586">
        <ele>165</ele>
        <time>2011-06-02T09:18:12Z</time>
      </trkpt>
      <trkpt lat="45.84682" lon="4.83588">
        <ele>166</ele>
        <time>2011-06-02T09:18:13Z</time>
      </trkpt>
      <trkpt lat="45.84685" lon="4.8359">
        <ele>166</ele>
        <time>2011-06-02T09:18:14Z</time>
      </trkpt>
      <trkpt lat="45.84689" lon="4.83591">
        <ele>166</ele>
        <time>2011-06-02T09:18:15Z</time>
      </trkpt>
      <trkpt lat="45.84692" lon="4.83593">
        <ele>166</ele>
        <time>2011-06-02T09:18:16Z</time>
      </trkpt>
      <trkpt lat="45.84696" lon="4.83595">
        <ele>166</ele>
        <time>2011-06-02T09:18:17Z</time>
      </trkpt>
      <trkpt lat="45.84699" lon="4.83597">
        <ele>166</ele>
        <time>2011-06-02T09:18:18Z</time>
      </trkpt>
      <trkpt lat="45.84703" lon="4.83599">
        <ele>166</ele>
        <time>2011-06-02T09:18:19Z</time>
      </trkpt>
      <trkpt lat="45.84707" lon="4.836">
        <ele>167</ele>
        <time>2011-06-02T09:18:20Z</time>
      </trkpt>
      <trkpt lat="45.8471" lon="4.83602">
        <ele>167</ele>
        <time>2011-06-02T09:18:21Z</time>
      </trkpt>
      <trkpt lat="45.84713" lon="4.83603">
        <ele>167</ele>
        <time>2011-06-02T09:18:22Z</time>
      </trkpt>
      <trkpt lat="45.84716" lon="4.83605">
        <ele>167</ele>
        <time>2011-06-02T09:18:23Z</time>
      </trkpt>
      <trkpt lat="45.8472" lon="4.83606">
        <ele>167</ele>
        <time>2011-06-02T09:18:24Z</time>
      </trkpt>
      <trkpt lat="45.84723" lon="4.83608">
        <ele>167</ele>
        <time>2011-06-02T09:18:25Z</time>
      </trkpt>
      <trkpt lat="45.84727" lon="4.8361">
        <ele>167</ele>
        <time>2011-06-02T09:18:26Z</time>
      </trkpt>
      <trkpt lat="45.8473" lon="4.83611">
        <ele>167</ele>
        <time>2011-06-02T09:18:27Z</time>
      </trkpt>
      <trkpt lat="45.84734" lon="4.83613">
        <ele>167</ele>
        <time>2011-06-02T09:18:28Z</time>
      </trkpt>
      <trkpt lat="45.84737" lon="4.83615">
        <ele>168</ele>
        <time>2011-06-02T09:18:29Z</time>
      </trkpt>
      <trkpt lat="45.84741" lon="4.83617">
        <ele>168</ele>
        <time>2011-06-02T09:18:30Z</time>
      </trkpt>
      <trkpt lat="45.84745" lon="4.83619">
        <ele>168</ele>
        <time>2011-06-02T09:18:31Z</time>
      </trkpt>
      <trkpt lat="45.84748" lon="4.83621">
        <ele>168</ele>
        <time>2011-06-02T09:18:32Z</time>
      </trkpt>
      <trkpt lat="45.84752" lon="4.83623">
        <ele>168</ele>
        <time>2011-06-02T09:18:33Z</time>
      </trkpt>
      <trkpt lat="45.84755" lon="4.83625">
        <ele>168</ele>
        <time>2011-06-02T09:18:34Z</time>
      </trkpt>
      <trkpt lat="45.84759" lon="4.83627">
        <ele>168</ele>
        <time>2011-06-02T09:18:35Z</time>
      </trkpt>
      <trkpt lat="45.84762" lon="4.83628">
        <ele>168</ele>
        <time>2011-06-02T09:18:36Z</time>
      </trkpt>
      <trkpt lat="45.84766" lon="4.8363">
        <ele>168</ele>
        <time>2011-06-02T09:18:37Z</time>
      </trkpt>
      <trkpt lat="45.8477" lon="4.83632">
        <ele>168</ele>
        <time>2011-06-02T09:18:38Z</time>
      </trkpt>
      <trkpt lat="45.84774" lon="4.83634">
        <ele>168</ele>
        <time>2011-06-02T09:18:39Z</time>
      </trkpt>
      <trkpt lat="45.84777" lon="4.83636">
        <ele>168</ele>
        <time>2011-06-02T09:18:40Z</time>
      </trkpt>
      <trkpt lat="45.84781" lon="4.83637">
        <ele>168</ele>
        <time>2011-06-02T09:18:41Z</time>
      </trkpt>
      <trkpt lat="45.84784" lon="4.83639">
        <ele>168</ele>
        <time>2011-06-02T09:18:42Z</time>
      </trkpt>
      <trkpt lat="45.84787" lon="4.8364">
        <ele>168</ele>
        <time>2011-06-02T09:18:43Z</time>
      </trkpt>
      <trkpt lat="45.84791" lon="4.83642">
        <ele>168</ele>
        <time>2011-06-02T09:18:44Z</time>
      </trkpt>
      <trkpt lat="45.84795" lon="4.83644">
        <ele>168</ele>
        <time>2011-06-02T09:18:45Z</time>
      </trkpt>
      <trkpt lat="45.84798" lon="4.83646">
        <ele>168</ele>
        <time>2011-06-02T09:18:46Z</time>
      </trkpt>
      <trkpt lat="45.84801" lon="4.83648">
        <ele>168</ele>
        <time>2011-06-02T09:18:47Z</time>
      </trkpt>
      <trkpt lat="45.84805" lon="4.8365">
        <ele>168</ele>
        <time>2011-06-02T09:18:48Z</time>
      </trkpt>
      <trkpt lat="45.84809" lon="4.83652">
        <ele>168</ele>
        <time>2011-06-02T09:18:49Z</time>
      </trkpt>
      <trkpt lat="45.84813" lon="4.83654">
        <ele>168</ele>
        <time>2011-06-02T09:18:50Z</time>
      </trkpt>
      <trkpt lat="45.84817" lon="4.83656">
        <ele>168</ele>
        <time>2011-06-02T09:18:51Z</time>
      </trkpt>
      <trkpt lat="45.84821" lon="4.83658">
        <ele>168</ele>
        <time>2011-06-02T09:18:52Z</time>
      </trkpt>
      <trkpt lat="45.84824" lon="4.83661">
        <ele>168</ele>
        <time>2011-06-02T09:18:53Z</time>
      </trkpt>
      <trkpt lat="45.84828" lon="4.83663">
        <ele>168</ele>
        <time>2011-06-02T09:18:54Z</time>
      </trkpt>
      <trkpt lat="45.84832" lon="4.83665">
        <ele>168</ele>
        <time>2011-06-02T09:18:55Z</time>
      </trkpt>
      <trkpt lat="45.84835" lon="4.83667">
        <ele>168</ele>
        <time>2011-06-02T09:18:56Z</time>
      </trkpt>
      <trkpt lat="45.84839" lon="4.83669">
        <ele>168</ele>
        <time>2011-06-02T09:18:57Z</time>
      </trkpt>
      <trkpt lat="45.84842" lon="4.83671">
        <ele>168</ele>
        <time>2011-06-02T09:18:58Z</time>
      </trkpt>
      <trkpt lat="45.84846" lon="4.83673">
        <ele>168</ele>
        <time>2011-06-02T09:18:59Z</time>
      </trkpt>
      <trkpt lat="45.84849" lon="4.83675">
        <ele>168</ele>
        <time>2011-06-02T09:19:00Z</time>
      </trkpt>
      <trkpt lat="45.84853" lon="4.83676">
        <ele>168</ele>
        <time>2011-06-02T09:19:01Z</time>
      </trkpt>
      <trkpt lat="45.84856" lon="4.83678">
        <ele>168</ele>
        <time>2011-06-02T09:19:02Z</time>
      </trkpt>
      <trkpt lat="45.8486" lon="4.8368">
        <ele>168</ele>
        <time>2011-06-02T09:19:03Z</time>
      </trkpt>
      <trkpt lat="45.84864" lon="4.83683">
        <ele>168</ele>
        <time>2011-06-02T09:19:04Z</time>
      </trkpt>
      <trkpt lat="45.84867" lon="4.83685">
        <ele>168</ele>
        <time>2011-06-02T09:19:05Z</time>
      </trkpt>
      <trkpt lat="45.84871" lon="4.83687">
        <ele>168</ele>
        <time>2011-06-02T09:19:06Z</time>
      </trkpt>
      <trkpt lat="45.84874" lon="4.83689">
        <ele>168</ele>
        <time>2011-06-02T09:19:07Z</time>
      </trkpt>
      <trkpt lat="45.84878" lon="4.83691">
        <ele>168</ele>
        <time>2011-06-02T09:19:08Z</time>
      </trkpt>
      <trkpt lat="45.84882" lon="4.83693">
        <ele>168</ele>
        <time>2011-06-02T09:19:09Z</time>
      </trkpt>
      <trkpt lat="45.84885" lon="4.83695">
        <ele>168</ele>
        <time>2011-06-02T09:19:10Z</time>
      </trkpt>
      <trkpt lat="45.84889" lon="4.83697">
        <ele>168</ele>
        <time>2011-06-02T09:19:11Z</time>
      </trkpt>
      <trkpt lat="45.84892" lon="4.83699">
        <ele>168</ele>
        <time>2011-06-02T09:19:12Z</time>
      </trkpt>
      <trkpt lat="45.84896" lon="4.83701">
        <ele>168</ele>
        <time>2011-06-02T09:19:13Z</time>
      </trkpt>
      <trkpt lat="45.849" lon="4.83702">
        <ele>168</ele>
        <time>2011-06-02T09:19:14Z</time>
      </trkpt>
      <trkpt lat="45.84903" lon="4.83704">
        <ele>168</ele>
        <time>2011-06-02T09:19:15Z</time>
      </trkpt>
      <trkpt lat="45.84907" lon="4.83706">
        <ele>168</ele>
        <time>2011-06-02T09:19:16Z</time>
      </trkpt>
      <trkpt lat="45.84911" lon="4.83708">
        <ele>168</ele>
        <time>2011-06-02T09:19:17Z</time>
      </trkpt>
      <trkpt lat="45.84914" lon="4.8371">
        <ele>168</ele>
        <time>2011-06-02T09:19:18Z</time>
      </trkpt>
      <trkpt lat="45.84918" lon="4.83711">
        <ele>168</ele>
        <time>2011-06-02T09:19:19Z</time>
      </trkpt>
      <trkpt lat="45.84922" lon="4.83713">
        <ele>168</ele>
        <time>2011-06-02T09:19:20Z</time>
      </trkpt>
      <trkpt lat="45.84925" lon="4.83715">
        <ele>168</ele>
        <time>2011-06-02T09:19:21Z</time>
      </trkpt>
      <trkpt lat="45.84929" lon="4.83717">
        <ele>168</ele>
        <time>2011-06-02T09:19:22Z</time>
      </trkpt>
      <trkpt lat="45.84932" lon="4.83718">
        <ele>168</ele>
        <time>2011-06-02T09:19:23Z</time>
      </trkpt>
      <trkpt lat="45.84935" lon="4.8372">
        <ele>168</ele>
        <time>2011-06-02T09:19:24Z</time>
      </trkpt>
      <trkpt lat="45.84939" lon="4.83721">
        <ele>168</ele>
        <time>2011-06-02T09:19:25Z</time>
      </trkpt>
      <trkpt lat="45.84943" lon="4.83723">
        <ele>168</ele>
        <time>2011-06-02T09:19:26Z</time>
      </trkpt>
      <trkpt lat="45.84946" lon="4.83724">
        <ele>168</ele>
        <time>2011-06-02T09:19:27Z</time>
      </trkpt>
      <trkpt lat="45.8495" lon="4.83724">
        <ele>168</ele>
        <time>2011-06-02T09:19:28Z</time>
      </trkpt>
      <trkpt lat="45.84954" lon="4.83723">
        <ele>168</ele>
        <time>2011-06-02T09:19:29Z</time>
      </trkpt>
      <trkpt lat="45.84957" lon="4.83721">
        <ele>168</ele>
        <time>2011-06-02T09:19:30Z</time>
      </trkpt>
      <trkpt lat="45.84961" lon="4.83719">
        <ele>168</ele>
        <time>2011-06-02T09:19:31Z</time>
      </trkpt>
      <trkpt lat="45.84964" lon="4.83719">
        <ele>168</ele>
        <time>2011-06-02T09:19:32Z</time>
      </trkpt>
      <trkpt lat="45.84968" lon="4.8372">
        <ele>168</ele>
        <time>2011-06-02T09:19:33Z</time>
      </trkpt>
      <trkpt lat="45.84972" lon="4.83722">
        <ele>168</ele>
        <time>2011-06-02T09:19:34Z</time>
      </trkpt>
      <trkpt lat="45.84975" lon="4.83724">
        <ele>168</ele>
        <time>2011-06-02T09:19:35Z</time>
      </trkpt>
      <trkpt lat="45.84978" lon="4.83727">
        <ele>168</ele>
        <time>2011-06-02T09:19:36Z</time>
      </trkpt>
      <trkpt lat="45.8498" lon="4.83732">
        <ele>168</ele>
        <time>2011-06-02T09:19:37Z</time>
      </trkpt>
      <trkpt lat="45.84983" lon="4.83736">
        <ele>168</ele>
        <time>2011-06-02T09:19:38Z</time>
      </trkpt>
      <trkpt lat="45.84985" lon="4.83738">
        <ele>168</ele>
        <time>2011-06-02T09:19:39Z</time>
      </trkpt>
      <trkpt lat="45.84988" lon="4.83741">
        <ele>168</ele>
        <time>2011-06-02T09:19:40Z</time>
      </trkpt>
      <trkpt lat="45.84992" lon="4.83742">
        <ele>168</ele>
        <time>2011-06-02T09:19:41Z</time>
      </trkpt>
      <trkpt lat="45.84995" lon="4.83743">
        <ele>168</ele>
        <time>2011-06-02T09:19:42Z</time>
      </trkpt>
      <trkpt lat="45.84998" lon="4.83745">
        <ele>168</ele>
        <time>2011-06-02T09:19:43Z</time>
      </trkpt>
      <trkpt lat="45.85001" lon="4.83747">
        <ele>168</ele>
        <time>2011-06-02T09:19:44Z</time>
      </trkpt>
      <trkpt lat="45.85004" lon="4.83748">
        <ele>168</ele>
        <time>2011-06-02T09:19:45Z</time>
      </trkpt>
      <trkpt lat="45.85008" lon="4.8375">
        <ele>168</ele>
        <time>2011-06-02T09:19:46Z</time>
      </trkpt>
      <trkpt lat="45.85011" lon="4.83752">
        <ele>168</ele>
        <time>2011-06-02T09:19:47Z</time>
      </trkpt>
      <trkpt lat="45.85015" lon="4.83754">
        <ele>168</ele>
        <time>2011-06-02T09:19:48Z</time>
      </trkpt>
      <trkpt lat="45.85019" lon="4.83755">
        <ele>168</ele>
        <time>2011-06-02T09:19:49Z</time>
      </trkpt>
      <trkpt lat="45.85022" lon="4.83756">
        <ele>168</ele>
        <time>2011-06-02T09:19:50Z</time>
      </trkpt>
      <trkpt lat="45.85026" lon="4.83758">
        <ele>168</ele>
        <time>2011-06-02T09:19:51Z</time>
      </trkpt>
      <trkpt lat="45.8503" lon="4.83759">
        <ele>168</ele>
        <time>2011-06-02T09:19:52Z</time>
      </trkpt>
      <trkpt lat="45.85034" lon="4.83761">
        <ele>168</ele>
        <time>2011-06-02T09:19:53Z</time>
      </trkpt>
      <trkpt lat="45.85038" lon="4.83763">
        <ele>168</ele>
        <time>2011-06-02T09:19:54Z</time>
      </trkpt>
      <trkpt lat="45.85042" lon="4.83764">
        <ele>168</ele>
        <time>2011-06-02T09:19:55Z</time>
      </trkpt>
      <trkpt lat="45.85046" lon="4.83765">
        <ele>168</ele>
        <time>2011-06-02T09:19:56Z</time>
      </trkpt>
      <trkpt lat="45.85049" lon="4.83767">
        <ele>168</ele>
        <time>2011-06-02T09:19:57Z</time>
      </trkpt>
      <trkpt lat="45.85053" lon="4.83768">
        <ele>168</ele>
        <time>2011-06-02T09:19:58Z</time>
      </trkpt>
      <trkpt lat="45.85057" lon="4.83769">
        <ele>168</ele>
        <time>2011-06-02T09:19:59Z</time>
      </trkpt>
      <trkpt lat="45.85061" lon="4.83771">
        <ele>168</ele>
        <time>2011-06-02T09:20:00Z</time>
      </trkpt>
      <trkpt lat="45.85064" lon="4.83772">
        <ele>168</ele>
        <time>2011-06-02T09:20:01Z</time>
      </trkpt>
      <trkpt lat="45.85068" lon="4.83773">
        <ele>168</ele>
        <time>2011-06-02T09:20:02Z</time>
      </trkpt>
      <trkpt lat="45.85072" lon="4.83774">
        <ele>168</ele>
        <time>2011-06-02T09:20:03Z</time>
      </trkpt>
      <trkpt lat="45.85076" lon="4.83776">
        <ele>168</ele>
        <time>2011-06-02T09:20:04Z</time>
      </trkpt>
      <trkpt lat="45.8508" lon="4.83777">
        <ele>168</ele>
        <time>2011-06-02T09:20:05Z</time>
      </trkpt>
      <trkpt lat="45.85084" lon="4.83778">
        <ele>168</ele>
        <time>2011-06-02T09:20:06Z</time>
      </trkpt>
      <trkpt lat="45.85088" lon="4.83778">
        <ele>168</ele>
        <time>2011-06-02T09:20:07Z</time>
      </trkpt>
      <trkpt lat="45.85092" lon="4.8378">
        <ele>168</ele>
        <time>2011-06-02T09:20:08Z</time>
      </trkpt>
      <trkpt lat="45.85096" lon="4.83781">
        <ele>168</ele>
        <time>2011-06-02T09:20:09Z</time>
      </trkpt>
      <trkpt lat="45.851" lon="4.83782">
        <ele>168</ele>
        <time>2011-06-02T09:20:10Z</time>
      </trkpt>
      <trkpt lat="45.85104" lon="4.83784">
        <ele>168</ele>
        <time>2011-06-02T09:20:11Z</time>
      </trkpt>
      <trkpt lat="45.85107" lon="4.83785">
        <ele>168</ele>
        <time>2011-06-02T09:20:12Z</time>
      </trkpt>
      <trkpt lat="45.85111" lon="4.83786">
        <ele>168</ele>
        <time>2011-06-02T09:20:13Z</time>
      </trkpt>
      <trkpt lat="45.85115" lon="4.83787">
        <ele>168</ele>
        <time>2011-06-02T09:20:14Z</time>
      </trkpt>
      <trkpt lat="45.85119" lon="4.83788">
        <ele>168</ele>
        <time>2011-06-02T09:20:15Z</time>
      </trkpt>
      <trkpt lat="45.85123" lon="4.83789">
        <ele>168</ele>
        <time>2011-06-02T09:20:16Z</time>
      </trkpt>
      <trkpt lat="45.85126" lon="4.8379">
        <ele>168</ele>
        <time>2011-06-02T09:20:17Z</time>
      </trkpt>
      <trkpt lat="45.8513" lon="4.83791">
        <ele>168</ele>
        <time>2011-06-02T09:20:18Z</time>
      </trkpt>
      <trkpt lat="45.85134" lon="4.83792">
        <ele>168</ele>
        <time>2011-06-02T09:20:19Z</time>
      </trkpt>
      <trkpt lat="45.85138" lon="4.83793">
        <ele>167</ele>
        <time>2011-06-02T09:20:20Z</time>
      </trkpt>
      <trkpt lat="45.85141" lon="4.83794">
        <ele>166</ele>
        <time>2011-06-02T09:20:21Z</time>
      </trkpt>
      <trkpt lat="45.85145" lon="4.83795">
        <ele>166</ele>
        <time>2011-06-02T09:20:22Z</time>
      </trkpt>
      <trkpt lat="45.85149" lon="4.83797">
        <ele>165</ele>
        <time>2011-06-02T09:20:23Z</time>
      </trkpt>
      <trkpt lat="45.85153" lon="4.83798">
        <ele>165</ele>
        <time>2011-06-02T09:20:24Z</time>
      </trkpt>
      <trkpt lat="45.85157" lon="4.838">
        <ele>165</ele>
        <time>2011-06-02T09:20:25Z</time>
      </trkpt>
      <trkpt lat="45.85161" lon="4.83801">
        <ele>165</ele>
        <time>2011-06-02T09:20:26Z</time>
      </trkpt>
      <trkpt lat="45.85165" lon="4.83802">
        <ele>165</ele>
        <time>2011-06-02T09:20:27Z</time>
      </trkpt>
      <trkpt lat="45.85168" lon="4.83803">
        <ele>165</ele>
        <time>2011-06-02T09:20:28Z</time>
      </trkpt>
      <trkpt lat="45.85172" lon="4.83804">
        <ele>165</ele>
        <time>2011-06-02T09:20:29Z</time>
      </trkpt>
      <trkpt lat="45.85176" lon="4.83804">
        <ele>164</ele>
        <time>2011-06-02T09:20:30Z</time>
      </trkpt>
      <trkpt lat="45.8518" lon="4.83805">
        <ele>163</ele>
        <time>2011-06-02T09:20:31Z</time>
      </trkpt>
      <trkpt lat="45.85183" lon="4.83805">
        <ele>162</ele>
        <time>2011-06-02T09:20:32Z</time>
      </trkpt>
      <trkpt lat="45.85186" lon="4.83805">
        <ele>162</ele>
        <time>2011-06-02T09:20:33Z</time>
      </trkpt>
      <trkpt lat="45.8519" lon="4.83806">
        <ele>161</ele>
        <time>2011-06-02T09:20:34Z</time>
      </trkpt>
      <trkpt lat="45.85194" lon="4.83808">
        <ele>161</ele>
        <time>2011-06-02T09:20:35Z</time>
      </trkpt>
      <trkpt lat="45.85198" lon="4.83809">
        <ele>161</ele>
        <time>2011-06-02T09:20:36Z</time>
      </trkpt>
      <trkpt lat="45.85202" lon="4.83809">
        <ele>160</ele>
        <time>2011-06-02T09:20:37Z</time>
      </trkpt>
      <trkpt lat="45.85206" lon="4.83811">
        <ele>160</ele>
        <time>2011-06-02T09:20:38Z</time>
      </trkpt>
      <trkpt lat="45.8521" lon="4.83812">
        <ele>160</ele>
        <time>2011-06-02T09:20:39Z</time>
      </trkpt>
      <trkpt lat="45.85214" lon="4.83814">
        <ele>159</ele>
        <time>2011-06-02T09:20:40Z</time>
      </trkpt>
      <trkpt lat="45.85217" lon="4.83815">
        <ele>159</ele>
        <time>2011-06-02T09:20:41Z</time>
      </trkpt>
      <trkpt lat="45.85221" lon="4.83815">
        <ele>159</ele>
        <time>2011-06-02T09:20:42Z</time>
      </trkpt>
      <trkpt lat="45.85225" lon="4.83816">
        <ele>159</ele>
        <time>2011-06-02T09:20:43Z</time>
      </trkpt>
      <trkpt lat="45.85228" lon="4.83817">
        <ele>158</ele>
        <time>2011-06-02T09:20:44Z</time>
      </trkpt>
      <trkpt lat="45.85231" lon="4.83817">
        <ele>158</ele>
        <time>2011-06-02T09:20:45Z</time>
      </trkpt>
      <trkpt lat="45.85235" lon="4.83818">
        <ele>158</ele>
        <time>2011-06-02T09:20:46Z</time>
      </trkpt>
      <trkpt lat="45.85238" lon="4.83819">
        <ele>158</ele>
        <time>2011-06-02T09:20:47Z</time>
      </trkpt>
      <trkpt lat="45.8524" lon="4.8382">
        <ele>158</ele>
        <time>2011-06-02T09:20:48Z</time>
      </trkpt>
      <trkpt lat="45.85244" lon="4.8382">
        <ele>158</ele>
        <time>2011-06-02T09:20:49Z</time>
      </trkpt>
      <trkpt lat="45.85248" lon="4.83821">
        <ele>157</ele>
        <time>2011-06-02T09:20:50Z</time>
      </trkpt>
      <trkpt lat="45.85252" lon="4.83822">
        <ele>157</ele>
        <time>2011-06-02T09:20:51Z</time>
      </trkpt>
      <trkpt lat="45.85257" lon="4.83824">
        <ele>157</ele>
        <time>2011-06-02T09:20:52Z</time>
      </trkpt>
      <trkpt lat="45.85261" lon="4.83825">
        <ele>156</ele>
        <time>2011-06-02T09:20:53Z</time>
      </trkpt>
      <trkpt lat="45.85265" lon="4.83826">
        <ele>156</ele>
        <time>2011-06-02T09:20:54Z</time>
      </trkpt>
      <trkpt lat="45.8527" lon="4.83828">
        <ele>156</ele>
        <time>2011-06-02T09:20:55Z</time>
      </trkpt>
      <trkpt lat="45.85274" lon="4.83829">
        <ele>156</ele>
        <time>2011-06-02T09:20:56Z</time>
      </trkpt>
      <trkpt lat="45.85277" lon="4.8383">
        <ele>156</ele>
        <time>2011-06-02T09:20:57Z</time>
      </trkpt>
      <trkpt lat="45.85281" lon="4.83832">
        <ele>156</ele>
        <time>2011-06-02T09:20:58Z</time>
      </trkpt>
      <trkpt lat="45.85286" lon="4.83834">
        <ele>156</ele>
        <time>2011-06-02T09:20:59Z</time>
      </trkpt>
      <trkpt lat="45.85289" lon="4.83835">
        <ele>156</ele>
        <time>2011-06-02T09:21:00Z</time>
      </trkpt>
      <trkpt lat="45.85294" lon="4.83836">
        <ele>156</ele>
        <time>2011-06-02T09:21:01Z</time>
      </trkpt>
      <trkpt lat="45.85298" lon="4.83838">
        <ele>156</ele>
        <time>2011-06-02T09:21:02Z</time>
      </trkpt>
      <trkpt lat="45.85302" lon="4.8384">
        <ele>156</ele>
        <time>2011-06-02T09:21:03Z</time>
      </trkpt>
      <trkpt lat="45.85306" lon="4.83842">
        <ele>156</ele>
        <time>2011-06-02T09:21:04Z</time>
      </trkpt>
      <trkpt lat="45.8531" lon="4.83844">
        <ele>156</ele>
        <time>2011-06-02T09:21:05Z</time>
      </trkpt>
      <trkpt lat="45.85315" lon="4.83847">
        <ele>156</ele>
        <time>2011-06-02T09:21:06Z</time>
      </trkpt>
      <trkpt lat="45.85319" lon="4.83849">
        <ele>156</ele>
        <time>2011-06-02T09:21:07Z</time>
      </trkpt>
      <trkpt lat="45.85323" lon="4.83851">
        <ele>156</ele>
        <time>2011-06-02T09:21:08Z</time>
      </trkpt>
      <trkpt lat="45.85327" lon="4.83853">
        <ele>156</ele>
        <time>2011-06-02T09:21:09Z</time>
      </trkpt>
      <trkpt lat="45.85331" lon="4.83854">
        <ele>156</ele>
        <time>2011-06-02T09:21:10Z</time>
      </trkpt>
      <trkpt lat="45.85334" lon="4.83856">
        <ele>156</ele>
        <time>2011-06-02T09:21:11Z</time>
      </trkpt>
      <trkpt lat="45.85338" lon="4.83858">
        <ele>156</ele>
        <time>2011-06-02T09:21:12Z</time>
      </trkpt>
      <trkpt lat="45.85342" lon="4.83859">
        <ele>156</ele>
        <time>2011-06-02T09:21:13Z</time>
      </trkpt>
      <trkpt lat="45.85345" lon="4.83861">
        <ele>156</ele>
        <time>2011-06-02T09:21:14Z</time>
      </trkpt>
      <trkpt lat="45.85349" lon="4.83862">
        <ele>156</ele>
        <time>2011-06-02T09:21:15Z</time>
      </trkpt>
      <trkpt lat="45.85353" lon="4.83864">
        <ele>156</ele>
        <time>2011-06-02T09:21:16Z</time>
      </trkpt>
      <trkpt lat="45.85357" lon="4.83865">
        <ele>156</ele>
        <time>2011-06-02T09:21:17Z</time>
      </trkpt>
      <trkpt lat="45.8536" lon="4.83867">
        <ele>156</ele>
        <time>2011-06-02T09:21:18Z</time>
      </trkpt>
      <trkpt lat="45.85364" lon="4.83868">
        <ele>156</ele>
        <time>2011-06-02T09:21:19Z</time>
      </trkpt>
      <trkpt lat="45.85368" lon="4.8387">
        <ele>156</ele>
        <time>2011-06-02T09:21:20Z</time>
      </trkpt>
      <trkpt lat="45.85372" lon="4.83873">
        <ele>156</ele>
        <time>2011-06-02T09:21:21Z</time>
      </trkpt>
      <trkpt lat="45.85376" lon="4.83875">
        <ele>156</ele>
        <time>2011-06-02T09:21:22Z</time>
      </trkpt>
      <trkpt lat="45.85379" lon="4.83877">
        <ele>156</ele>
        <time>2011-06-02T09:21:23Z</time>
      </trkpt>
      <trkpt lat="45.85384" lon="4.83878">
        <ele>156</ele>
        <time>2011-06-02T09:21:24Z</time>
      </trkpt>
      <trkpt lat="45.85387" lon="4.8388">
        <ele>156</ele>
        <time>2011-06-02T09:21:25Z</time>
      </trkpt>
      <trkpt lat="45.85391" lon="4.83882">
        <ele>156</ele>
        <time>2011-06-02T09:21:26Z</time>
      </trkpt>
      <trkpt lat="45.85395" lon="4.83883">
        <ele>156</ele>
        <time>2011-06-02T09:21:27Z</time>
      </trkpt>
      <trkpt lat="45.85398" lon="4.83885">
        <ele>156</ele>
        <time>2011-06-02T09:21:28Z</time>
      </trkpt>
      <trkpt lat="45.85402" lon="4.83887">
        <ele>156</ele>
        <time>2011-06-02T09:21:29Z</time>
      </trkpt>
      <trkpt lat="45.85406" lon="4.83889">
        <ele>156</ele>
        <time>2011-06-02T09:21:30Z</time>
      </trkpt>
      <trkpt lat="45.8541" lon="4.83891">
        <ele>156</ele>
        <time>2011-06-02T09:21:31Z</time>
      </trkpt>
      <trkpt lat="45.85414" lon="4.83893">
        <ele>156</ele>
        <time>2011-06-02T09:21:32Z</time>
      </trkpt>
      <trkpt lat="45.85418" lon="4.83894">
        <ele>156</ele>
        <time>2011-06-02T09:21:33Z</time>
      </trkpt>
      <trkpt lat="45.85421" lon="4.83896">
        <ele>156</ele>
        <time>2011-06-02T09:21:34Z</time>
      </trkpt>
      <trkpt lat="45.85425" lon="4.83898">
        <ele>156</ele>
        <time>2011-06-02T09:21:35Z</time>
      </trkpt>
      <trkpt lat="45.85429" lon="4.839">
        <ele>156</ele>
        <time>2011-06-02T09:21:36Z</time>
      </trkpt>
      <trkpt lat="45.85433" lon="4.83902">
        <ele>156</ele>
        <time>2011-06-02T09:21:37Z</time>
      </trkpt>
      <trkpt lat="45.85437" lon="4.83904">
        <ele>156</ele>
        <time>2011-06-02T09:21:38Z</time>
      </trkpt>
      <trkpt lat="45.85441" lon="4.83907">
        <ele>156</ele>
        <time>2011-06-02T09:21:39Z</time>
      </trkpt>
      <trkpt lat="45.85445" lon="4.83909">
        <ele>156</ele>
        <time>2011-06-02T09:21:40Z</time>
      </trkpt>
      <trkpt lat="45.85449" lon="4.8391">
        <ele>156</ele>
        <time>2011-06-02T09:21:41Z</time>
      </trkpt>
      <trkpt lat="45.85453" lon="4.83912">
        <ele>156</ele>
        <time>2011-06-02T09:21:42Z</time>
      </trkpt>
      <trkpt lat="45.85456" lon="4.83913">
        <ele>156</ele>
        <time>2011-06-02T09:21:43Z</time>
      </trkpt>
      <trkpt lat="45.8546" lon="4.83914">
        <ele>156</ele>
        <time>2011-06-02T09:21:44Z</time>
      </trkpt>
      <trkpt lat="45.85464" lon="4.83917">
        <ele>156</ele>
        <time>2011-06-02T09:21:45Z</time>
      </trkpt>
      <trkpt lat="45.85467" lon="4.83918">
        <ele>156</ele>
        <time>2011-06-02T09:21:46Z</time>
      </trkpt>
      <trkpt lat="45.85471" lon="4.8392">
        <ele>156</ele>
        <time>2011-06-02T09:21:47Z</time>
      </trkpt>
      <trkpt lat="45.85475" lon="4.83922">
        <ele>156</ele>
        <time>2011-06-02T09:21:48Z</time>
      </trkpt>
      <trkpt lat="45.85479" lon="4.83924">
        <ele>156</ele>
        <time>2011-06-02T09:21:49Z</time>
      </trkpt>
      <trkpt lat="45.85482" lon="4.83925">
        <ele>156</ele>
        <time>2011-06-02T09:21:50Z</time>
      </trkpt>
      <trkpt lat="45.85486" lon="4.83927">
        <ele>156</ele>
        <time>2011-06-02T09:21:51Z</time>
      </trkpt>
      <trkpt lat="45.8549" lon="4.83929">
        <ele>156</ele>
        <time>2011-06-02T09:21:52Z</time>
      </trkpt>
      <trkpt lat="45.85494" lon="4.83931">
        <ele>156</ele>
        <time>2011-06-02T09:21:53Z</time>
      </trkpt>
      <trkpt lat="45.85497" lon="4.83933">
        <ele>156</ele>
        <time>2011-06-02T09:21:54Z</time>
      </trkpt>
      <trkpt lat="45.85501" lon="4.83935">
        <ele>156</ele>
        <time>2011-06-02T09:21:55Z</time>
      </trkpt>
      <trkpt lat="45.85505" lon="4.83937">
        <ele>156</ele>
        <time>2011-06-02T09:21:56Z</time>
      </trkpt>
      <trkpt lat="45.85509" lon="4.83939">
        <ele>156</ele>
        <time>2011-06-02T09:21:57Z</time>
      </trkpt>
      <trkpt lat="45.85513" lon="4.83941">
        <ele>156</ele>
        <time>2011-06-02T09:21:58Z</time>
      </trkpt>
      <trkpt lat="45.85516" lon="4.83943">
        <ele>156</ele>
        <time>2011-06-02T09:21:59Z</time>
      </trkpt>
      <trkpt lat="45.8552" lon="4.83945">
        <ele>156</ele>
        <time>2011-06-02T09:22:00Z</time>
      </trkpt>
      <trkpt lat="45.85524" lon="4.83947">
        <ele>156</ele>
        <time>2011-06-02T09:22:01Z</time>
      </trkpt>
      <trkpt lat="45.85528" lon="4.83949">
        <ele>156</ele>
        <time>2011-06-02T09:22:02Z</time>
      </trkpt>
      <trkpt lat="45.85531" lon="4.83951">
        <ele>156</ele>
        <time>2011-06-02T09:22:03Z</time>
      </trkpt>
      <trkpt lat="45.85535" lon="4.83953">
        <ele>156</ele>
        <time>2011-06-02T09:22:04Z</time>
      </trkpt>
      <trkpt lat="45.85538" lon="4.83955">
        <ele>156</ele>
        <time>2011-06-02T09:22:05Z</time>
      </trkpt>
      <trkpt lat="45.85542" lon="4.83957">
        <ele>156</ele>
        <time>2011-06-02T09:22:06Z</time>
      </trkpt>
      <trkpt lat="45.85545" lon="4.83958">
        <ele>156</ele>
        <time>2011-06-02T09:22:07Z</time>
      </trkpt>
      <trkpt lat="45.85549" lon="4.8396">
        <ele>156</ele>
        <time>2011-06-02T09:22:08Z</time>
      </trkpt>
      <trkpt lat="45.85553" lon="4.83962">
        <ele>156</ele>
        <time>2011-06-02T09:22:09Z</time>
      </trkpt>
      <trkpt lat="45.85556" lon="4.83964">
        <ele>156</ele>
        <time>2011-06-02T09:22:10Z</time>
      </trkpt>
      <trkpt lat="45.8556" lon="4.83966">
        <ele>156</ele>
        <time>2011-06-02T09:22:11Z</time>
      </trkpt>
      <trkpt lat="45.85564" lon="4.83968">
        <ele>156</ele>
        <time>2011-06-02T09:22:12Z</time>
      </trkpt>
      <trkpt lat="45.85567" lon="4.8397">
        <ele>156</ele>
        <time>2011-06-02T09:22:13Z</time>
      </trkpt>
      <trkpt lat="45.85571" lon="4.83972">
        <ele>156</ele>
        <time>2011-06-02T09:22:14Z</time>
      </trkpt>
      <trkpt lat="45.85575" lon="4.83974">
        <ele>156</ele>
        <time>2011-06-02T09:22:15Z</time>
      </trkpt>
      <trkpt lat="45.85579" lon="4.83976">
        <ele>156</ele>
        <time>2011-06-02T09:22:16Z</time>
      </trkpt>
      <trkpt lat="45.85583" lon="4.83978">
        <ele>156</ele>
        <time>2011-06-02T09:22:17Z</time>
      </trkpt>
      <trkpt lat="45.85586" lon="4.8398">
        <ele>156</ele>
        <time>2011-06-02T09:22:18Z</time>
      </trkpt>
      <trkpt lat="45.8559" lon="4.83982">
        <ele>156</ele>
        <time>2011-06-02T09:22:19Z</time>
      </trkpt>
      <trkpt lat="45.85593" lon="4.83984">
        <ele>156</ele>
        <time>2011-06-02T09:22:20Z</time>
      </trkpt>
      <trkpt lat="45.85597" lon="4.83986">
        <ele>156</ele>
        <time>2011-06-02T09:22:21Z</time>
      </trkpt>
      <trkpt lat="45.85601" lon="4.83988">
        <ele>156</ele>
        <time>2011-06-02T09:22:22Z</time>
      </trkpt>
      <trkpt lat="45.85604" lon="4.8399">
        <ele>156</ele>
        <time>2011-06-02T09:22:23Z</time>
      </trkpt>
      <trkpt lat="45.85608" lon="4.83992">
        <ele>157</ele>
        <time>2011-06-02T09:22:24Z</time>
      </trkpt>
      <trkpt lat="45.85612" lon="4.83994">
        <ele>157</ele>
        <time>2011-06-02T09:22:25Z</time>
      </trkpt>
      <trkpt lat="45.85615" lon="4.83995">
        <ele>157</ele>
        <time>2011-06-02T09:22:26Z</time>
      </trkpt>
      <trkpt lat="45.85619" lon="4.83997">
        <ele>158</ele>
        <time>2011-06-02T09:22:27Z</time>
      </trkpt>
      <trkpt lat="45.85623" lon="4.83999">
        <ele>158</ele>
        <time>2011-06-02T09:22:28Z</time>
      </trkpt>
      <trkpt lat="45.85627" lon="4.84001">
        <ele>158</ele>
        <time>2011-06-02T09:22:29Z</time>
      </trkpt>
      <trkpt lat="45.8563" lon="4.84003">
        <ele>158</ele>
        <time>2011-06-02T09:22:30Z</time>
      </trkpt>
      <trkpt lat="45.85634" lon="4.84005">
        <ele>159</ele>
        <time>2011-06-02T09:22:31Z</time>
      </trkpt>
      <trkpt lat="45.85638" lon="4.84007">
        <ele>159</ele>
        <time>2011-06-02T09:22:32Z</time>
      </trkpt>
      <trkpt lat="45.85642" lon="4.84008">
        <ele>159</ele>
        <time>2011-06-02T09:22:33Z</time>
      </trkpt>
      <trkpt lat="45.85645" lon="4.8401">
        <ele>159</ele>
        <time>2011-06-02T09:22:34Z</time>
      </trkpt>
      <trkpt lat="45.85649" lon="4.84012">
        <ele>159</ele>
        <time>2011-06-02T09:22:35Z</time>
      </trkpt>
      <trkpt lat="45.85653" lon="4.84015">
        <ele>159</ele>
        <time>2011-06-02T09:22:36Z</time>
      </trkpt>
      <trkpt lat="45.85657" lon="4.84016">
        <ele>160</ele>
        <time>2011-06-02T09:22:37Z</time>
      </trkpt>
      <trkpt lat="45.85661" lon="4.84018">
        <ele>160</ele>
        <time>2011-06-02T09:22:38Z</time>
      </trkpt>
      <trkpt lat="45.85665" lon="4.8402">
        <ele>160</ele>
        <time>2011-06-02T09:22:39Z</time>
      </trkpt>
      <trkpt lat="45.85669" lon="4.84022">
        <ele>160</ele>
        <time>2011-06-02T09:22:40Z</time>
      </trkpt>
      <trkpt lat="45.85672" lon="4.84024">
        <ele>160</ele>
        <time>2011-06-02T09:22:41Z</time>
      </trkpt>
      <trkpt lat="45.85676" lon="4.84026">
        <ele>160</ele>
        <time>2011-06-02T09:22:42Z</time>
      </trkpt>
      <trkpt lat="45.8568" lon="4.84028">
        <ele>161</ele>
        <time>2011-06-02T09:22:43Z</time>
      </trkpt>
      <trkpt lat="45.85684" lon="4.8403">
        <ele>161</ele>
        <time>2011-06-02T09:22:44Z</time>
      </trkpt>
      <trkpt lat="45.85688" lon="4.84032">
        <ele>161</ele>
        <time>2011-06-02T09:22:45Z</time>
      </trkpt>
      <trkpt lat="45.85692" lon="4.84034">
        <ele>161</ele>
        <time>2011-06-02T09:22:46Z</time>
      </trkpt>
      <trkpt lat="45.85695" lon="4.84035">
        <ele>161</ele>
        <time>2011-06-02T09:22:47Z</time>
      </trkpt>
      <trkpt lat="45.85699" lon="4.84037">
        <ele>162</ele>
        <time>2011-06-02T09:22:48Z</time>
      </trkpt>
      <trkpt lat="45.85703" lon="4.84039">
        <ele>162</ele>
        <time>2011-06-02T09:22:49Z</time>
      </trkpt>
      <trkpt lat="45.85706" lon="4.8404">
        <ele>162</ele>
        <time>2011-06-02T09:22:50Z</time>
      </trkpt>
      <trkpt lat="45.8571" lon="4.84042">
        <ele>162</ele>
        <time>2011-06-02T09:22:51Z</time>
      </trkpt>
      <trkpt lat="45.85714" lon="4.84044">
        <ele>163</ele>
        <time>2011-06-02T09:22:52Z</time>
      </trkpt>
      <trkpt lat="45.85717" lon="4.84046">
        <ele>163</ele>
        <time>2011-06-02T09:22:53Z</time>
      </trkpt>
      <trkpt lat="45.85721" lon="4.84048">
        <ele>163</ele>
        <time>2011-06-02T09:22:54Z</time>
      </trkpt>
      <trkpt lat="45.85725" lon="4.8405">
        <ele>163</ele>
        <time>2011-06-02T09:22:55Z</time>
      </trkpt>
      <trkpt lat="45.85729" lon="4.84051">
        <ele>163</ele>
        <time>2011-06-02T09:22:56Z</time>
      </trkpt>
      <trkpt lat="45.85733" lon="4.84053">
        <ele>164</ele>
        <time>2011-06-02T09:22:57Z</time>
      </trkpt>
      <trkpt lat="45.85736" lon="4.84055">
        <ele>164</ele>
        <time>2011-06-02T09:22:58Z</time>
      </trkpt>
      <trkpt lat="45.8574" lon="4.84057">
        <ele>164</ele>
        <time>2011-06-02T09:22:59Z</time>
      </trkpt>
      <trkpt lat="45.85744" lon="4.84059">
        <ele>164</ele>
        <time>2011-06-02T09:23:00Z</time>
      </trkpt>
      <trkpt lat="45.85748" lon="4.84061">
        <ele>164</ele>
        <time>2011-06-02T09:23:01Z</time>
      </trkpt>
      <trkpt lat="45.85752" lon="4.84063">
        <ele>164</ele>
        <time>2011-06-02T09:23:02Z</time>
      </trkpt>
      <trkpt lat="45.85756" lon="4.84065">
        <ele>164</ele>
        <time>2011-06-02T09:23:03Z</time>
      </trkpt>
      <trkpt lat="45.85759" lon="4.84067">
        <ele>164</ele>
        <time>2011-06-02T09:23:04Z</time>
      </trkpt>
      <trkpt lat="45.85763" lon="4.84069">
        <ele>164</ele>
        <time>2011-06-02T09:23:05Z</time>
      </trkpt>
      <trkpt lat="45.85767" lon="4.8407">
        <ele>164</ele>
        <time>2011-06-02T09:23:06Z</time>
      </trkpt>
      <trkpt lat="45.85771" lon="4.84072">
        <ele>164</ele>
        <time>2011-06-02T09:23:07Z</time>
      </trkpt>
      <trkpt lat="45.85774" lon="4.84074">
        <ele>164</ele>
        <time>2011-06-02T09:23:08Z</time>
      </trkpt>
      <trkpt lat="45.85778" lon="4.84076">
        <ele>164</ele>
        <time>2011-06-02T09:23:09Z</time>
      </trkpt>
      <trkpt lat="45.85781" lon="4.84078">
        <ele>164</ele>
        <time>2011-06-02T09:23:10Z</time>
      </trkpt>
      <trkpt lat="45.85785" lon="4.84079">
        <ele>164</ele>
        <time>2011-06-02T09:23:11Z</time>
      </trkpt>
      <trkpt lat="45.85788" lon="4.84081">
        <ele>164</ele>
        <time>2011-06-02T09:23:12Z</time>
      </trkpt>
      <trkpt lat="45.85791" lon="4.84082">
        <ele>164</ele>
        <time>2011-06-02T09:23:13Z</time>
      </trkpt>
      <trkpt lat="45.85794" lon="4.84084">
        <ele>164</ele>
        <time>2011-06-02T09:23:14Z</time>
      </trkpt>
      <trkpt lat="45.85797" lon="4.84086">
        <ele>164</ele>
        <time>2011-06-02T09:23:15Z</time>
      </trkpt>
      <trkpt lat="45.85799" lon="4.84089">
        <ele>164</ele>
        <time>2011-06-02T09:23:16Z</time>
      </trkpt>
      <trkpt lat="45.85799" lon="4.84093">
        <ele>164</ele>
        <time>2011-06-02T09:23:17Z</time>
      </trkpt>
      <trkpt lat="45.85799" lon="4.84095">
        <ele>164</ele>
        <time>2011-06-02T09:23:18Z</time>
      </trkpt>
      <trkpt lat="45.85799" lon="4.84098">
        <ele>164</ele>
        <time>2011-06-02T09:23:19Z</time>
      </trkpt>
      <trkpt lat="45.85799" lon="4.84101">
        <ele>164</ele>
        <time>2011-06-02T09:23:20Z</time>
      </trkpt>
      <trkpt lat="45.85798" lon="4.84105">
        <ele>164</ele>
        <time>2011-06-02T09:23:21Z</time>
      </trkpt>
      <trkpt lat="45.85798" lon="4.8411">
        <ele>164</ele>
        <time>2011-06-02T09:23:22Z</time>
      </trkpt>
      <trkpt lat="45.85797" lon="4.84115">
        <ele>164</ele>
        <time>2011-06-02T09:23:23Z</time>
      </trkpt>
      <trkpt lat="45.85797" lon="4.84119">
        <ele>164</ele>
        <time>2011-06-02T09:23:24Z</time>
      </trkpt>
      <trkpt lat="45.85798" lon="4.84124">
        <ele>163</ele>
        <time>2011-06-02T09:23:25Z</time>
      </trkpt>
      <trkpt lat="45.85799" lon="4.84129">
        <ele>163</ele>
        <time>2011-06-02T09:23:26Z</time>
      </trkpt>
      <trkpt lat="45.858" lon="4.84134">
        <ele>162</ele>
        <time>2011-06-02T09:23:27Z</time>
      </trkpt>
      <trkpt lat="45.85801" lon="4.84139">
        <ele>162</ele>
        <time>2011-06-02T09:23:28Z</time>
      </trkpt>
      <trkpt lat="45.85802" lon="4.84143">
        <ele>162</ele>
        <time>2011-06-02T09:23:29Z</time>
      </trkpt>
      <trkpt lat="45.85804" lon="4.84148">
        <ele>162</ele>
        <time>2011-06-02T09:23:30Z</time>
      </trkpt>
      <trkpt lat="45.85806" lon="4.84151">
        <ele>162</ele>
        <time>2011-06-02T09:23:31Z</time>
      </trkpt>
      <trkpt lat="45.85807" lon="4.84155">
        <ele>162</ele>
        <time>2011-06-02T09:23:32Z</time>
      </trkpt>
      <trkpt lat="45.85807" lon="4.8416">
        <ele>162</ele>
        <time>2011-06-02T09:23:33Z</time>
      </trkpt>
      <trkpt lat="45.85808" lon="4.84164">
        <ele>162</ele>
        <time>2011-06-02T09:23:34Z</time>
      </trkpt>
      <trkpt lat="45.85809" lon="4.84169">
        <ele>162</ele>
        <time>2011-06-02T09:23:35Z</time>
      </trkpt>
      <trkpt lat="45.85809" lon="4.84175">
        <ele>162</ele>
        <time>2011-06-02T09:23:36Z</time>
      </trkpt>
      <trkpt lat="45.85808" lon="4.8418">
        <ele>162</ele>
        <time>2011-06-02T09:23:37Z</time>
      </trkpt>
      <trkpt lat="45.85807" lon="4.84186">
        <ele>162</ele>
        <time>2011-06-02T09:23:38Z</time>
      </trkpt>
      <trkpt lat="45.85807" lon="4.84192">
        <ele>162</ele>
        <time>2011-06-02T09:23:39Z</time>
      </trkpt>
      <trkpt lat="45.85806" lon="4.84198">
        <ele>162</ele>
        <time>2011-06-02T09:23:40Z</time>
      </trkpt>
      <trkpt lat="45.85805" lon="4.84203">
        <ele>162</ele>
        <time>2011-06-02T09:23:41Z</time>
      </trkpt>
      <trkpt lat="45.85804" lon="4.84209">
        <ele>162</ele>
        <time>2011-06-02T09:23:42Z</time>
      </trkpt>
      <trkpt lat="45.85803" lon="4.84215">
        <ele>162</ele>
        <time>2011-06-02T09:23:43Z</time>
      </trkpt>
      <trkpt lat="45.85801" lon="4.84221">
        <ele>162</ele>
        <time>2011-06-02T09:23:44Z</time>
      </trkpt>
      <trkpt lat="45.858" lon="4.84227">
        <ele>162</ele>
        <time>2011-06-02T09:23:45Z</time>
      </trkpt>
      <trkpt lat="45.85799" lon="4.84233">
        <ele>162</ele>
        <time>2011-06-02T09:23:46Z</time>
      </trkpt>
      <trkpt lat="45.85797" lon="4.84238">
        <ele>162</ele>
        <time>2011-06-02T09:23:47Z</time>
      </trkpt>
      <trkpt lat="45.85796" lon="4.84244">
        <ele>162</ele>
        <time>2011-06-02T09:23:48Z</time>
      </trkpt>
      <trkpt lat="45.85794" lon="4.8425">
        <ele>162</ele>
        <time>2011-06-02T09:23:49Z</time>
      </trkpt>
      <trkpt lat="45.85793" lon="4.84256">
        <ele>162</ele>
        <time>2011-06-02T09:23:50Z</time>
      </trkpt>
      <trkpt lat="45.85792" lon="4.84261">
        <ele>162</ele>
        <time>2011-06-02T09:23:51Z</time>
      </trkpt>
      <trkpt lat="45.85791" lon="4.84267">
        <ele>162</ele>
        <time>2011-06-02T09:23:52Z</time>
      </trkpt>
      <trkpt lat="45.85791" lon="4.84272">
        <ele>162</ele>
        <time>2011-06-02T09:23:53Z</time>
      </trkpt>
      <trkpt lat="45.85791" lon="4.84277">
        <ele>162</ele>
        <time>2011-06-02T09:23:54Z</time>
      </trkpt>
      <trkpt lat="45.85792" lon="4.84283">
        <ele>162</ele>
        <time>2011-06-02T09:23:55Z</time>
      </trkpt>
      <trkpt lat="45.85794" lon="4.84288">
        <ele>162</ele>
        <time>2011-06-02T09:23:56Z</time>
      </trkpt>
      <trkpt lat="45.85796" lon="4.84293">
        <ele>162</ele>
        <time>2011-06-02T09:23:57Z</time>
      </trkpt>
      <trkpt lat="45.85797" lon="4.84297">
        <ele>162</ele>
        <time>2011-06-02T09:23:58Z</time>
      </trkpt>
      <trkpt lat="45.858" lon="4.84302">
        <ele>162</ele>
        <time>2011-06-02T09:23:59Z</time>
      </trkpt>
      <trkpt lat="45.85802" lon="4.84306">
        <ele>162</ele>
        <time>2011-06-02T09:24:00Z</time>
      </trkpt>
      <trkpt lat="45.85804" lon="4.84311">
        <ele>162</ele>
        <time>2011-06-02T09:24:01Z</time>
      </trkpt>
      <trkpt lat="45.85806" lon="4.84316">
        <ele>162</ele>
        <time>2011-06-02T09:24:02Z</time>
      </trkpt>
      <trkpt lat="45.85807" lon="4.8432">
        <ele>162</ele>
        <time>2011-06-02T09:24:03Z</time>
      </trkpt>
      <trkpt lat="45.85807" lon="4.84325">
        <ele>162</ele>
        <time>2011-06-02T09:24:04Z</time>
      </trkpt>
      <trkpt lat="45.85809" lon="4.84329">
        <ele>162</ele>
        <time>2011-06-02T09:24:05Z</time>
      </trkpt>
      <trkpt lat="45.85809" lon="4.84333">
        <ele>162</ele>
        <time>2011-06-02T09:24:06Z</time>
      </trkpt>
      <trkpt lat="45.8581" lon="4.84337">
        <ele>162</ele>
        <time>2011-06-02T09:24:07Z</time>
      </trkpt>
      <trkpt lat="45.85811" lon="4.84341">
        <ele>162</ele>
        <time>2011-06-02T09:24:08Z</time>
      </trkpt>
      <trkpt lat="45.85812" lon="4.84345">
        <ele>162</ele>
        <time>2011-06-02T09:24:09Z</time>
      </trkpt>
      <trkpt lat="45.85813" lon="4.84349">
        <ele>162</ele>
        <time>2011-06-02T09:24:10Z</time>
      </trkpt>
      <trkpt lat="45.85815" lon="4.84354">
        <ele>162</ele>
        <time>2011-06-02T09:24:11Z</time>
      </trkpt>
      <trkpt lat="45.85815" lon="4.84357">
        <ele>162</ele>
        <time>2011-06-02T09:24:12Z</time>
      </trkpt>
      <trkpt lat="45.85816" lon="4.8436">
        <ele>162</ele>
        <time>2011-06-02T09:24:13Z</time>
      </trkpt>
      <trkpt lat="45.85817" lon="4.84362">
        <ele>162</ele>
        <time>2011-06-02T09:24:14Z</time>
      </trkpt>
      <trkpt lat="45.85817" lon="4.84365">
        <ele>162</ele>
        <time>2011-06-02T09:24:16Z</time>
      </trkpt>
      <trkpt lat="45.85818" lon="4.84366">
        <ele>164</ele>
        <time>2011-06-02T09:24:29Z</time>
      </trkpt>
      <trkpt lat="45.85819" lon="4.84366">
        <ele>164</ele>
        <time>2011-06-02T09:24:36Z</time>
      </trkpt>
      <trkpt lat="45.85819" lon="4.84368">
        <ele>164</ele>
        <time>2011-06-02T09:24:42Z</time>
      </trkpt>
      <trkpt lat="45.85819" lon="4.8437">
        <ele>164</ele>
        <time>2011-06-02T09:24:57Z</time>
      </trkpt>
      <trkpt lat="45.85818" lon="4.84368">
        <ele>165</ele>
        <time>2011-06-02T09:25:18Z</time>
      </trkpt>
      <trkpt lat="45.85818" lon="4.84366">
        <ele>167</ele>
        <time>2011-06-02T09:25:24Z</time>
      </trkpt>
      <trkpt lat="45.85817" lon="4.84368">
        <ele>167</ele>
        <time>2011-06-02T09:25:40Z</time>
      </trkpt>
      <trkpt lat="45.85817" lon="4.84369">
        <ele>167</ele>
        <time>2011-06-02T09:25:42Z</time>
      </trkpt>
      <trkpt lat="45.85816" lon="4.84371">
        <ele>167</ele>
        <time>2011-06-02T09:26:10Z</time>
      </trkpt>
      <trkpt lat="45.85815" lon="4.84372">
        <ele>167</ele>
        <time>2011-06-02T09:26:40Z</time>
      </trkpt>
      <trkpt lat="45.85816" lon="4.84371">
        <ele>168</ele>
        <time>2011-06-02T09:26:59Z</time>
      </trkpt>
      <trkpt lat="45.85817" lon="4.84369">
        <ele>169</ele>
        <time>2011-06-02T09:27:02Z</time>
      </trkpt>
      <trkpt lat="45.85817" lon="4.84368">
        <ele>169</ele>
        <time>2011-06-02T09:27:05Z</time>
      </trkpt>
      <trkpt lat="45.85817" lon="4.84371">
        <ele>169</ele>
        <time>2011-06-02T09:27:13Z</time>
      </trkpt>
      <trkpt lat="45.85818" lon="4.84372">
        <ele>169</ele>
        <time>2011-06-02T09:27:14Z</time>
      </trkpt>
      <trkpt lat="45.8582" lon="4.84375">
        <ele>169</ele>
        <time>2011-06-02T09:27:15Z</time>
      </trkpt>
      <trkpt lat="45.85821" lon="4.84378">
        <ele>169</ele>
        <time>2011-06-02T09:27:16Z</time>
      </trkpt>
      <trkpt lat="45.85822" lon="4.84382">
        <ele>169</ele>
        <time>2011-06-02T09:27:17Z</time>
      </trkpt>
      <trkpt lat="45.85823" lon="4.84386">
        <ele>169</ele>
        <time>2011-06-02T09:27:18Z</time>
      </trkpt>
      <trkpt lat="45.85824" lon="4.8439">
        <ele>169</ele>
        <time>2011-06-02T09:27:19Z</time>
      </trkpt>
      <trkpt lat="45.85825" lon="4.84394">
        <ele>169</ele>
        <time>2011-06-02T09:27:20Z</time>
      </trkpt>
      <trkpt lat="45.85826" lon="4.84398">
        <ele>169</ele>
        <time>2011-06-02T09:27:21Z</time>
      </trkpt>
      <trkpt lat="45.85828" lon="4.84402">
        <ele>169</ele>
        <time>2011-06-02T09:27:22Z</time>
      </trkpt>
      <trkpt lat="45.85828" lon="4.84406">
        <ele>169</ele>
        <time>2011-06-02T09:27:23Z</time>
      </trkpt>
      <trkpt lat="45.85829" lon="4.84409">
        <ele>169</ele>
        <time>2011-06-02T09:27:24Z</time>
      </trkpt>
      <trkpt lat="45.8583" lon="4.84412">
        <ele>169</ele>
        <time>2011-06-02T09:27:25Z</time>
      </trkpt>
      <trkpt lat="45.8583" lon="4.84416">
        <ele>169</ele>
        <time>2011-06-02T09:27:26Z</time>
      </trkpt>
      <trkpt lat="45.85831" lon="4.84419">
        <ele>168</ele>
        <time>2011-06-02T09:27:27Z</time>
      </trkpt>
      <trkpt lat="45.85831" lon="4.84421">
        <ele>168</ele>
        <time>2011-06-02T09:27:28Z</time>
      </trkpt>
      <trkpt lat="45.85832" lon="4.84423">
        <ele>168</ele>
        <time>2011-06-02T09:27:29Z</time>
      </trkpt>
      <trkpt lat="45.85832" lon="4.84425">
        <ele>168</ele>
        <time>2011-06-02T09:27:30Z</time>
      </trkpt>
      <trkpt lat="45.85832" lon="4.84427">
        <ele>168</ele>
        <time>2011-06-02T09:27:31Z</time>
      </trkpt>
      <trkpt lat="45.85833" lon="4.8443">
        <ele>168</ele>
        <time>2011-06-02T09:27:32Z</time>
      </trkpt>
      <trkpt lat="45.85832" lon="4.84432">
        <ele>168</ele>
        <time>2011-06-02T09:27:33Z</time>
      </trkpt>
      <trkpt lat="45.85831" lon="4.84434">
        <ele>168</ele>
        <time>2011-06-02T09:27:34Z</time>
      </trkpt>
      <trkpt lat="45.85831" lon="4.84437">
        <ele>168</ele>
        <time>2011-06-02T09:27:35Z</time>
      </trkpt>
      <trkpt lat="45.85831" lon="4.84442">
        <ele>168</ele>
        <time>2011-06-02T09:27:37Z</time>
      </trkpt>
      <trkpt lat="45.85831" lon="4.84445">
        <ele>168</ele>
        <time>2011-06-02T09:27:38Z</time>
      </trkpt>
      <trkpt lat="45.85832" lon="4.84448">
        <ele>168</ele>
        <time>2011-06-02T09:27:39Z</time>
      </trkpt>
      <trkpt lat="45.85832" lon="4.8445">
        <ele>168</ele>
        <time>2011-06-02T09:27:40Z</time>
      </trkpt>
      <trkpt lat="45.85832" lon="4.84453">
        <ele>168</ele>
        <time>2011-06-02T09:27:41Z</time>
      </trkpt>
      <trkpt lat="45.85833" lon="4.84456">
        <ele>168</ele>
        <time>2011-06-02T09:27:42Z</time>
      </trkpt>
      <trkpt lat="45.85833" lon="4.84459">
        <ele>168</ele>
        <time>2011-06-02T09:27:43Z</time>
      </trkpt>
      <trkpt lat="45.85835" lon="4.84462">
        <ele>168</ele>
        <time>2011-06-02T09:27:44Z</time>
      </trkpt>
      <trkpt lat="45.85836" lon="4.84465">
        <ele>168</ele>
        <time>2011-06-02T09:27:45Z</time>
      </trkpt>
      <trkpt lat="45.85836" lon="4.84468">
        <ele>168</ele>
        <time>2011-06-02T09:27:46Z</time>
      </trkpt>
      <trkpt lat="45.85836" lon="4.8447">
        <ele>168</ele>
        <time>2011-06-02T09:27:47Z</time>
      </trkpt>
      <trkpt lat="45.85836" lon="4.84472">
        <ele>168</ele>
        <time>2011-06-02T09:27:48Z</time>
      </trkpt>
      <trkpt lat="45.85837" lon="4.84474">
        <ele>167</ele>
        <time>2011-06-02T09:27:49Z</time>
      </trkpt>
      <trkpt lat="45.85837" lon="4.84476">
        <ele>167</ele>
        <time>2011-06-02T09:27:50Z</time>
      </trkpt>
      <trkpt lat="45.85837" lon="4.84479">
        <ele>166</ele>
        <time>2011-06-02T09:27:51Z</time>
      </trkpt>
      <trkpt lat="45.85837" lon="4.84481">
        <ele>166</ele>
        <time>2011-06-02T09:27:52Z</time>
      </trkpt>
      <trkpt lat="45.85837" lon="4.84483">
        <ele>165</ele>
        <time>2011-06-02T09:27:53Z</time>
      </trkpt>
      <trkpt lat="45.85836" lon="4.84486">
        <ele>165</ele>
        <time>2011-06-02T09:27:54Z</time>
      </trkpt>
      <trkpt lat="45.85836" lon="4.84488">
        <ele>164</ele>
        <time>2011-06-02T09:27:55Z</time>
      </trkpt>
      <trkpt lat="45.85836" lon="4.84491">
        <ele>164</ele>
        <time>2011-06-02T09:27:56Z</time>
      </trkpt>
      <trkpt lat="45.85835" lon="4.84493">
        <ele>164</ele>
        <time>2011-06-02T09:27:57Z</time>
      </trkpt>
      <trkpt lat="45.85835" lon="4.84496">
        <ele>164</ele>
        <time>2011-06-02T09:27:58Z</time>
      </trkpt>
      <trkpt lat="45.85835" lon="4.845">
        <ele>163</ele>
        <time>2011-06-02T09:27:59Z</time>
      </trkpt>
      <trkpt lat="45.85835" lon="4.84502">
        <ele>163</ele>
        <time>2011-06-02T09:28:00Z</time>
      </trkpt>
      <trkpt lat="45.85835" lon="4.84505">
        <ele>163</ele>
        <time>2011-06-02T09:28:01Z</time>
      </trkpt>
      <trkpt lat="45.85835" lon="4.84508">
        <ele>163</ele>
        <time>2011-06-02T09:28:02Z</time>
      </trkpt>
      <trkpt lat="45.85835" lon="4.8451">
        <ele>163</ele>
        <time>2011-06-02T09:28:03Z</time>
      </trkpt>
      <trkpt lat="45.85835" lon="4.84513">
        <ele>163</ele>
        <time>2011-06-02T09:28:04Z</time>
      </trkpt>
      <trkpt lat="45.85835" lon="4.84515">
        <ele>163</ele>
        <time>2011-06-02T09:28:05Z</time>
      </trkpt>
      <trkpt lat="45.85834" lon="4.84519">
        <ele>163</ele>
        <time>2011-06-02T09:28:06Z</time>
      </trkpt>
      <trkpt lat="45.85833" lon="4.84522">
        <ele>163</ele>
        <time>2011-06-02T09:28:07Z</time>
      </trkpt>
      <trkpt lat="45.85833" lon="4.84524">
        <ele>163</ele>
        <time>2011-06-02T09:28:08Z</time>
      </trkpt>
      <trkpt lat="45.85833" lon="4.84527">
        <ele>163</ele>
        <time>2011-06-02T09:28:09Z</time>
      </trkpt>
      <trkpt lat="45.85832" lon="4.84529">
        <ele>163</ele>
        <time>2011-06-02T09:28:10Z</time>
      </trkpt>
      <trkpt lat="45.85833" lon="4.84531">
        <ele>163</ele>
        <time>2011-06-02T09:28:11Z</time>
      </trkpt>
      <trkpt lat="45.85833" lon="4.84533">
        <ele>163</ele>
        <time>2011-06-02T09:28:12Z</time>
      </trkpt>
      <trkpt lat="45.85834" lon="4.84534">
        <ele>163</ele>
        <time>2011-06-02T09:28:13Z</time>
      </trkpt>
      <trkpt lat="45.85836" lon="4.84536">
        <ele>163</ele>
        <time>2011-06-02T09:28:15Z</time>
      </trkpt>
      <trkpt lat="45.85838" lon="4.84537">
        <ele>163</ele>
        <time>2011-06-02T09:28:17Z</time>
      </trkpt>
      <trkpt lat="45.85841" lon="4.84537">
        <ele>164</ele>
        <time>2011-06-02T09:28:19Z</time>
      </trkpt>
      <trkpt lat="45.85844" lon="4.84539">
        <ele>164</ele>
        <time>2011-06-02T09:28:20Z</time>
      </trkpt>
      <trkpt lat="45.85846" lon="4.84541">
        <ele>165</ele>
        <time>2011-06-02T09:28:21Z</time>
      </trkpt>
      <trkpt lat="45.85848" lon="4.84543">
        <ele>165</ele>
        <time>2011-06-02T09:28:22Z</time>
      </trkpt>
      <trkpt lat="45.85849" lon="4.84545">
        <ele>165</ele>
        <time>2011-06-02T09:28:23Z</time>
      </trkpt>
      <trkpt lat="45.85851" lon="4.84547">
        <ele>165</ele>
        <time>2011-06-02T09:28:24Z</time>
      </trkpt>
      <trkpt lat="45.85852" lon="4.84549">
        <ele>165</ele>
        <time>2011-06-02T09:28:25Z</time>
      </trkpt>
      <trkpt lat="45.85854" lon="4.84551">
        <ele>166</ele>
        <time>2011-06-02T09:28:26Z</time>
      </trkpt>
      <trkpt lat="45.85855" lon="4.84552">
        <ele>166</ele>
        <time>2011-06-02T09:28:27Z</time>
      </trkpt>
      <trkpt lat="45.85856" lon="4.84554">
        <ele>167</ele>
        <time>2011-06-02T09:28:28Z</time>
      </trkpt>
      <trkpt lat="45.85857" lon="4.84555">
        <ele>167</ele>
        <time>2011-06-02T09:28:29Z</time>
      </trkpt>
      <trkpt lat="45.85859" lon="4.84557">
        <ele>168</ele>
        <time>2011-06-02T09:28:30Z</time>
      </trkpt>
      <trkpt lat="45.8586" lon="4.84559">
        <ele>168</ele>
        <time>2011-06-02T09:28:31Z</time>
      </trkpt>
      <trkpt lat="45.85862" lon="4.84562">
        <ele>168</ele>
        <time>2011-06-02T09:28:32Z</time>
      </trkpt>
      <trkpt lat="45.85864" lon="4.84564">
        <ele>168</ele>
        <time>2011-06-02T09:28:33Z</time>
      </trkpt>
      <trkpt lat="45.85866" lon="4.84566">
        <ele>168</ele>
        <time>2011-06-02T09:28:34Z</time>
      </trkpt>
      <trkpt lat="45.85867" lon="4.84567">
        <ele>168</ele>
        <time>2011-06-02T09:28:35Z</time>
      </trkpt>
      <trkpt lat="45.85869" lon="4.84569">
        <ele>168</ele>
        <time>2011-06-02T09:28:36Z</time>
      </trkpt>
      <trkpt lat="45.8587" lon="4.8457">
        <ele>168</ele>
        <time>2011-06-02T09:28:37Z</time>
      </trkpt>
      <trkpt lat="45.85871" lon="4.84571">
        <ele>168</ele>
        <time>2011-06-02T09:28:38Z</time>
      </trkpt>
      <trkpt lat="45.85872" lon="4.84572">
        <ele>169</ele>
        <time>2011-06-02T09:28:39Z</time>
      </trkpt>
      <trkpt lat="45.85873" lon="4.84574">
        <ele>169</ele>
        <time>2011-06-02T09:28:40Z</time>
      </trkpt>
      <trkpt lat="45.85875" lon="4.84576">
        <ele>170</ele>
        <time>2011-06-02T09:28:41Z</time>
      </trkpt>
      <trkpt lat="45.85877" lon="4.84578">
        <ele>170</ele>
        <time>2011-06-02T09:28:43Z</time>
      </trkpt>
      <trkpt lat="45.85879" lon="4.8458">
        <ele>171</ele>
        <time>2011-06-02T09:28:44Z</time>
      </trkpt>
      <trkpt lat="45.8588" lon="4.84582">
        <ele>171</ele>
        <time>2011-06-02T09:28:45Z</time>
      </trkpt>
      <trkpt lat="45.85882" lon="4.84584">
        <ele>171</ele>
        <time>2011-06-02T09:28:46Z</time>
      </trkpt>
      <trkpt lat="45.85883" lon="4.84585">
        <ele>171</ele>
        <time>2011-06-02T09:28:47Z</time>
      </trkpt>
      <trkpt lat="45.85884" lon="4.84588">
        <ele>171</ele>
        <time>2011-06-02T09:28:48Z</time>
      </trkpt>
      <trkpt lat="45.85886" lon="4.8459">
        <ele>171</ele>
        <time>2011-06-02T09:28:49Z</time>
      </trkpt>
      <trkpt lat="45.85887" lon="4.84593">
        <ele>171</ele>
        <time>2011-06-02T09:28:50Z</time>
      </trkpt>
      <trkpt lat="45.85888" lon="4.84594">
        <ele>171</ele>
        <time>2011-06-02T09:28:51Z</time>
      </trkpt>
      <trkpt lat="45.85888" lon="4.84596">
        <ele>171</ele>
        <time>2011-06-02T09:28:52Z</time>
      </trkpt>
      <trkpt lat="45.85889" lon="4.84599">
        <ele>171</ele>
        <time>2011-06-02T09:28:54Z</time>
      </trkpt>
      <trkpt lat="45.8589" lon="4.846">
        <ele>171</ele>
        <time>2011-06-02T09:28:55Z</time>
      </trkpt>
      <trkpt lat="45.85892" lon="4.84603">
        <ele>171</ele>
        <time>2011-06-02T09:28:56Z</time>
      </trkpt>
      <trkpt lat="45.85893" lon="4.84606">
        <ele>171</ele>
        <time>2011-06-02T09:28:57Z</time>
      </trkpt>
      <trkpt lat="45.85895" lon="4.84608">
        <ele>171</ele>
        <time>2011-06-02T09:28:58Z</time>
      </trkpt>
      <trkpt lat="45.85896" lon="4.8461">
        <ele>171</ele>
        <time>2011-06-02T09:28:59Z</time>
      </trkpt>
      <trkpt lat="45.85898" lon="4.84613">
        <ele>171</ele>
        <time>2011-06-02T09:29:00Z</time>
      </trkpt>
      <trkpt lat="45.85899" lon="4.84615">
        <ele>171</ele>
        <time>2011-06-02T09:29:01Z</time>
      </trkpt>
      <trkpt lat="45.859" lon="4.84617">
        <ele>171</ele>
        <time>2011-06-02T09:29:02Z</time>
      </trkpt>
      <trkpt lat="45.85902" lon="4.8462">
        <ele>171</ele>
        <time>2011-06-02T09:29:03Z</time>
      </trkpt>
      <trkpt lat="45.85904" lon="4.84622">
        <ele>171</ele>
        <time>2011-06-02T09:29:04Z</time>
      </trkpt>
      <trkpt lat="45.85906" lon="4.84623">
        <ele>171</ele>
        <time>2011-06-02T09:29:05Z</time>
      </trkpt>
      <trkpt lat="45.85908" lon="4.84625">
        <ele>171</ele>
        <time>2011-06-02T09:29:06Z</time>
      </trkpt>
      <trkpt lat="45.8591" lon="4.84626">
        <ele>171</ele>
        <time>2011-06-02T09:29:07Z</time>
      </trkpt>
      <trkpt lat="45.85913" lon="4.84626">
        <ele>171</ele>
        <time>2011-06-02T09:29:08Z</time>
      </trkpt>
      <trkpt lat="45.85915" lon="4.84627">
        <ele>171</ele>
        <time>2011-06-02T09:29:09Z</time>
      </trkpt>
      <trkpt lat="45.85918" lon="4.84627">
        <ele>172</ele>
        <time>2011-06-02T09:29:10Z</time>
      </trkpt>
      <trkpt lat="45.8592" lon="4.84628">
        <ele>172</ele>
        <time>2011-06-02T09:29:11Z</time>
      </trkpt>
      <trkpt lat="45.85923" lon="4.84629">
        <ele>173</ele>
        <time>2011-06-02T09:29:12Z</time>
      </trkpt>
      <trkpt lat="45.85927" lon="4.84631">
        <ele>173</ele>
        <time>2011-06-02T09:29:13Z</time>
      </trkpt>
      <trkpt lat="45.8593" lon="4.84632">
        <ele>173</ele>
        <time>2011-06-02T09:29:14Z</time>
      </trkpt>
      <trkpt lat="45.85933" lon="4.84634">
        <ele>173</ele>
        <time>2011-06-02T09:29:15Z</time>
      </trkpt>
      <trkpt lat="45.85936" lon="4.84636">
        <ele>173</ele>
        <time>2011-06-02T09:29:16Z</time>
      </trkpt>
      <trkpt lat="45.85939" lon="4.84639">
        <ele>173</ele>
        <time>2011-06-02T09:29:17Z</time>
      </trkpt>
      <trkpt lat="45.85942" lon="4.84642">
        <ele>173</ele>
        <time>2011-06-02T09:29:18Z</time>
      </trkpt>
      <trkpt lat="45.85945" lon="4.84645">
        <ele>173</ele>
        <time>2011-06-02T09:29:19Z</time>
      </trkpt>
      <trkpt lat="45.85949" lon="4.84648">
        <ele>173</ele>
        <time>2011-06-02T09:29:20Z</time>
      </trkpt>
      <trkpt lat="45.85952" lon="4.84651">
        <ele>173</ele>
        <time>2011-06-02T09:29:21Z</time>
      </trkpt>
      <trkpt lat="45.85955" lon="4.84656">
        <ele>173</ele>
        <time>2011-06-02T09:29:22Z</time>
      </trkpt>
      <trkpt lat="45.85958" lon="4.84659">
        <ele>173</ele>
        <time>2011-06-02T09:29:23Z</time>
      </trkpt>
      <trkpt lat="45.8596" lon="4.84663">
        <ele>173</ele>
        <time>2011-06-02T09:29:24Z</time>
      </trkpt>
      <trkpt lat="45.85963" lon="4.84666">
        <ele>173</ele>
        <time>2011-06-02T09:29:25Z</time>
      </trkpt>
      <trkpt lat="45.85966" lon="4.84669">
        <ele>173</ele>
        <time>2011-06-02T09:29:26Z</time>
      </trkpt>
      <trkpt lat="45.85969" lon="4.84673">
        <ele>173</ele>
        <time>2011-06-02T09:29:27Z</time>
      </trkpt>
      <trkpt lat="45.85972" lon="4.84676">
        <ele>173</ele>
        <time>2011-06-02T09:29:28Z</time>
      </trkpt>
      <trkpt lat="45.85975" lon="4.8468">
        <ele>173</ele>
        <time>2011-06-02T09:29:29Z</time>
      </trkpt>
      <trkpt lat="45.85977" lon="4.84683">
        <ele>173</ele>
        <time>2011-06-02T09:29:30Z</time>
      </trkpt>
      <trkpt lat="45.85979" lon="4.84686">
        <ele>173</ele>
        <time>2011-06-02T09:29:31Z</time>
      </trkpt>
      <trkpt lat="45.85981" lon="4.8469">
        <ele>173</ele>
        <time>2011-06-02T09:29:32Z</time>
      </trkpt>
      <trkpt lat="45.85983" lon="4.84693">
        <ele>173</ele>
        <time>2011-06-02T09:29:33Z</time>
      </trkpt>
      <trkpt lat="45.85983" lon="4.84697">
        <ele>173</ele>
        <time>2011-06-02T09:29:34Z</time>
      </trkpt>
      <trkpt lat="45.85984" lon="4.84702">
        <ele>173</ele>
        <time>2011-06-02T09:29:35Z</time>
      </trkpt>
      <trkpt lat="45.85984" lon="4.84707">
        <ele>173</ele>
        <time>2011-06-02T09:29:36Z</time>
      </trkpt>
      <trkpt lat="45.85984" lon="4.84712">
        <ele>173</ele>
        <time>2011-06-02T09:29:37Z</time>
      </trkpt>
      <trkpt lat="45.85984" lon="4.84716">
        <ele>173</ele>
        <time>2011-06-02T09:29:38Z</time>
      </trkpt>
      <trkpt lat="45.85984" lon="4.8472">
        <ele>173</ele>
        <time>2011-06-02T09:29:39Z</time>
      </trkpt>
      <trkpt lat="45.85982" lon="4.84724">
        <ele>173</ele>
        <time>2011-06-02T09:29:40Z</time>
      </trkpt>
      <trkpt lat="45.8598" lon="4.84727">
        <ele>173</ele>
        <time>2011-06-02T09:29:41Z</time>
      </trkpt>
      <trkpt lat="45.85979" lon="4.84731">
        <ele>173</ele>
        <time>2011-06-02T09:29:42Z</time>
      </trkpt>
      <trkpt lat="45.85978" lon="4.84733">
        <ele>174</ele>
        <time>2011-06-02T09:29:43Z</time>
      </trkpt>
      <trkpt lat="45.85977" lon="4.84736">
        <ele>174</ele>
        <time>2011-06-02T09:29:44Z</time>
      </trkpt>
      <trkpt lat="45.85975" lon="4.84738">
        <ele>175</ele>
        <time>2011-06-02T09:29:45Z</time>
      </trkpt>
      <trkpt lat="45.85974" lon="4.84739">
        <ele>175</ele>
        <time>2011-06-02T09:29:47Z</time>
      </trkpt>
      <trkpt lat="45.85973" lon="4.84743">
        <ele>175</ele>
        <time>2011-06-02T09:29:49Z</time>
      </trkpt>
      <trkpt lat="45.85972" lon="4.84746">
        <ele>175</ele>
        <time>2011-06-02T09:29:50Z</time>
      </trkpt>
      <trkpt lat="45.85971" lon="4.84749">
        <ele>176</ele>
        <time>2011-06-02T09:29:51Z</time>
      </trkpt>
      <trkpt lat="45.85969" lon="4.84753">
        <ele>176</ele>
        <time>2011-06-02T09:29:52Z</time>
      </trkpt>
      <trkpt lat="45.85968" lon="4.84756">
        <ele>177</ele>
        <time>2011-06-02T09:29:53Z</time>
      </trkpt>
      <trkpt lat="45.85966" lon="4.84759">
        <ele>178</ele>
        <time>2011-06-02T09:29:54Z</time>
      </trkpt>
      <trkpt lat="45.85965" lon="4.84763">
        <ele>178</ele>
        <time>2011-06-02T09:29:55Z</time>
      </trkpt>
      <trkpt lat="45.85963" lon="4.84766">
        <ele>179</ele>
        <time>2011-06-02T09:29:56Z</time>
      </trkpt>
      <trkpt lat="45.85963" lon="4.84769">
        <ele>180</ele>
        <time>2011-06-02T09:29:57Z</time>
      </trkpt>
      <trkpt lat="45.85961" lon="4.84773">
        <ele>180</ele>
        <time>2011-06-02T09:29:58Z</time>
      </trkpt>
      <trkpt lat="45.8596" lon="4.84776">
        <ele>181</ele>
        <time>2011-06-02T09:29:59Z</time>
      </trkpt>
      <trkpt lat="45.85958" lon="4.84779">
        <ele>182</ele>
        <time>2011-06-02T09:30:00Z</time>
      </trkpt>
      <trkpt lat="45.85957" lon="4.84782">
        <ele>183</ele>
        <time>2011-06-02T09:30:01Z</time>
      </trkpt>
      <trkpt lat="45.85955" lon="4.84785">
        <ele>183</ele>
        <time>2011-06-02T09:30:02Z</time>
      </trkpt>
      <trkpt lat="45.85955" lon="4.84787">
        <ele>184</ele>
        <time>2011-06-02T09:30:03Z</time>
      </trkpt>
      <trkpt lat="45.85954" lon="4.8479">
        <ele>185</ele>
        <time>2011-06-02T09:30:04Z</time>
      </trkpt>
      <trkpt lat="45.85952" lon="4.84794">
        <ele>185</ele>
        <time>2011-06-02T09:30:05Z</time>
      </trkpt>
      <trkpt lat="45.85951" lon="4.84797">
        <ele>186</ele>
        <time>2011-06-02T09:30:06Z</time>
      </trkpt>
      <trkpt lat="45.8595" lon="4.84801">
        <ele>187</ele>
        <time>2011-06-02T09:30:07Z</time>
      </trkpt>
      <trkpt lat="45.85949" lon="4.84804">
        <ele>188</ele>
        <time>2011-06-02T09:30:08Z</time>
      </trkpt>
      <trkpt lat="45.85948" lon="4.84808">
        <ele>189</ele>
        <time>2011-06-02T09:30:09Z</time>
      </trkpt>
      <trkpt lat="45.85947" lon="4.84811">
        <ele>190</ele>
        <time>2011-06-02T09:30:10Z</time>
      </trkpt>
      <trkpt lat="45.85946" lon="4.84815">
        <ele>191</ele>
        <time>2011-06-02T09:30:11Z</time>
      </trkpt>
      <trkpt lat="45.85944" lon="4.84819">
        <ele>192</ele>
        <time>2011-06-02T09:30:12Z</time>
      </trkpt>
      <trkpt lat="45.85942" lon="4.84822">
        <ele>192</ele>
        <time>2011-06-02T09:30:13Z</time>
      </trkpt>
      <trkpt lat="45.8594" lon="4.84826">
        <ele>192</ele>
        <time>2011-06-02T09:30:14Z</time>
      </trkpt>
      <trkpt lat="45.85938" lon="4.84829">
        <ele>193</ele>
        <time>2011-06-02T09:30:15Z</time>
      </trkpt>
      <trkpt lat="45.85937" lon="4.84832">
        <ele>193</ele>
        <time>2011-06-02T09:30:16Z</time>
      </trkpt>
      <trkpt lat="45.85936" lon="4.84835">
        <ele>193</ele>
        <time>2011-06-02T09:30:17Z</time>
      </trkpt>
      <trkpt lat="45.85934" lon="4.84839">
        <ele>194</ele>
        <time>2011-06-02T09:30:18Z</time>
      </trkpt>
      <trkpt lat="45.85934" lon="4.84842">
        <ele>194</ele>
        <time>2011-06-02T09:30:19Z</time>
      </trkpt>
      <trkpt lat="45.85932" lon="4.84845">
        <ele>195</ele>
        <time>2011-06-02T09:30:20Z</time>
      </trkpt>
      <trkpt lat="45.85931" lon="4.84848">
        <ele>195</ele>
        <time>2011-06-02T09:30:21Z</time>
      </trkpt>
      <trkpt lat="45.8593" lon="4.84851">
        <ele>196</ele>
        <time>2011-06-02T09:30:22Z</time>
      </trkpt>
      <trkpt lat="45.85928" lon="4.84854">
        <ele>196</ele>
        <time>2011-06-02T09:30:23Z</time>
      </trkpt>
      <trkpt lat="45.85926" lon="4.84857">
        <ele>196</ele>
        <time>2011-06-02T09:30:24Z</time>
      </trkpt>
      <trkpt lat="45.85924" lon="4.84861">
        <ele>196</ele>
        <time>2011-06-02T09:30:25Z</time>
      </trkpt>
      <trkpt lat="45.85922" lon="4.84865">
        <ele>196</ele>
        <time>2011-06-02T09:30:26Z</time>
      </trkpt>
      <trkpt lat="45.85921" lon="4.84867">
        <ele>196</ele>
        <time>2011-06-02T09:30:27Z</time>
      </trkpt>
      <trkpt lat="45.85919" lon="4.8487">
        <ele>197</ele>
        <time>2011-06-02T09:30:28Z</time>
      </trkpt>
      <trkpt lat="45.85918" lon="4.84873">
        <ele>197</ele>
        <time>2011-06-02T09:30:29Z</time>
      </trkpt>
      <trkpt lat="45.85917" lon="4.84876">
        <ele>197</ele>
        <time>2011-06-02T09:30:30Z</time>
      </trkpt>
      <trkpt lat="45.85915" lon="4.84879">
        <ele>198</ele>
        <time>2011-06-02T09:30:31Z</time>
      </trkpt>
      <trkpt lat="45.85914" lon="4.84882">
        <ele>198</ele>
        <time>2011-06-02T09:30:32Z</time>
      </trkpt>
      <trkpt lat="45.85913" lon="4.84885">
        <ele>198</ele>
        <time>2011-06-02T09:30:33Z</time>
      </trkpt>
      <trkpt lat="45.85912" lon="4.84888">
        <ele>199</ele>
        <time>2011-06-02T09:30:34Z</time>
      </trkpt>
      <trkpt lat="45.8591" lon="4.84891">
        <ele>199</ele>
        <time>2011-06-02T09:30:35Z</time>
      </trkpt>
      <trkpt lat="45.85909" lon="4.84894">
        <ele>200</ele>
        <time>2011-06-02T09:30:36Z</time>
      </trkpt>
      <trkpt lat="45.85907" lon="4.84897">
        <ele>200</ele>
        <time>2011-06-02T09:30:37Z</time>
      </trkpt>
      <trkpt lat="45.85905" lon="4.849">
        <ele>201</ele>
        <time>2011-06-02T09:30:38Z</time>
      </trkpt>
      <trkpt lat="45.85904" lon="4.84903">
        <ele>201</ele>
        <time>2011-06-02T09:30:39Z</time>
      </trkpt>
      <trkpt lat="45.85902" lon="4.84905">
        <ele>202</ele>
        <time>2011-06-02T09:30:40Z</time>
      </trkpt>
      <trkpt lat="45.859" lon="4.84908">
        <ele>202</ele>
        <time>2011-06-02T09:30:41Z</time>
      </trkpt>
      <trkpt lat="45.85899" lon="4.84911">
        <ele>202</ele>
        <time>2011-06-02T09:30:42Z</time>
      </trkpt>
      <trkpt lat="45.85898" lon="4.84913">
        <ele>202</ele>
        <time>2011-06-02T09:30:43Z</time>
      </trkpt>
      <trkpt lat="45.85897" lon="4.84916">
        <ele>203</ele>
        <time>2011-06-02T09:30:44Z</time>
      </trkpt>
      <trkpt lat="45.85895" lon="4.84919">
        <ele>203</ele>
        <time>2011-06-02T09:30:45Z</time>
      </trkpt>
      <trkpt lat="45.85894" lon="4.84922">
        <ele>203</ele>
        <time>2011-06-02T09:30:46Z</time>
      </trkpt>
      <trkpt lat="45.85893" lon="4.84925">
        <ele>203</ele>
        <time>2011-06-02T09:30:47Z</time>
      </trkpt>
      <trkpt lat="45.85892" lon="4.84927">
        <ele>204</ele>
        <time>2011-06-02T09:30:48Z</time>
      </trkpt>
      <trkpt lat="45.85891" lon="4.8493">
        <ele>204</ele>
        <time>2011-06-02T09:30:49Z</time>
      </trkpt>
      <trkpt lat="45.85889" lon="4.84932">
        <ele>204</ele>
        <time>2011-06-02T09:30:50Z</time>
      </trkpt>
      <trkpt lat="45.85887" lon="4.84934">
        <ele>205</ele>
        <time>2011-06-02T09:30:51Z</time>
      </trkpt>
      <trkpt lat="45.85885" lon="4.84936">
        <ele>205</ele>
        <time>2011-06-02T09:30:52Z</time>
      </trkpt>
      <trkpt lat="45.85883" lon="4.84939">
        <ele>205</ele>
        <time>2011-06-02T09:30:53Z</time>
      </trkpt>
      <trkpt lat="45.85881" lon="4.84941">
        <ele>205</ele>
        <time>2011-06-02T09:30:54Z</time>
      </trkpt>
      <trkpt lat="45.85879" lon="4.84943">
        <ele>205</ele>
        <time>2011-06-02T09:30:55Z</time>
      </trkpt>
      <trkpt lat="45.85878" lon="4.84946">
        <ele>205</ele>
        <time>2011-06-02T09:30:56Z</time>
      </trkpt>
      <trkpt lat="45.85876" lon="4.84948">
        <ele>205</ele>
        <time>2011-06-02T09:30:57Z</time>
      </trkpt>
      <trkpt lat="45.85874" lon="4.8495">
        <ele>205</ele>
        <time>2011-06-02T09:30:58Z</time>
      </trkpt>
      <trkpt lat="45.85872" lon="4.84952">
        <ele>206</ele>
        <time>2011-06-02T09:30:59Z</time>
      </trkpt>
      <trkpt lat="45.85871" lon="4.84954">
        <ele>206</ele>
        <time>2011-06-02T09:31:00Z</time>
      </trkpt>
      <trkpt lat="45.8587" lon="4.84956">
        <ele>206</ele>
        <time>2011-06-02T09:31:01Z</time>
      </trkpt>
      <trkpt lat="45.85869" lon="4.84958">
        <ele>207</ele>
        <time>2011-06-02T09:31:02Z</time>
      </trkpt>
      <trkpt lat="45.85868" lon="4.8496">
        <ele>207</ele>
        <time>2011-06-02T09:31:03Z</time>
      </trkpt>
      <trkpt lat="45.85867" lon="4.84962">
        <ele>208</ele>
        <time>2011-06-02T09:31:04Z</time>
      </trkpt>
      <trkpt lat="45.85866" lon="4.84964">
        <ele>209</ele>
        <time>2011-06-02T09:31:05Z</time>
      </trkpt>
      <trkpt lat="45.85866" lon="4.84966">
        <ele>209</ele>
        <time>2011-06-02T09:31:06Z</time>
      </trkpt>
      <trkpt lat="45.85865" lon="4.84968">
        <ele>210</ele>
        <time>2011-06-02T09:31:07Z</time>
      </trkpt>
      <trkpt lat="45.85864" lon="4.84971">
        <ele>211</ele>
        <time>2011-06-02T09:31:08Z</time>
      </trkpt>
      <trkpt lat="45.85864" lon="4.84973">
        <ele>211</ele>
        <time>2011-06-02T09:31:09Z</time>
      </trkpt>
      <trkpt lat="45.85863" lon="4.84975">
        <ele>211</ele>
        <time>2011-06-02T09:31:10Z</time>
      </trkpt>
      <trkpt lat="45.85863" lon="4.84978">
        <ele>212</ele>
        <time>2011-06-02T09:31:11Z</time>
      </trkpt>
      <trkpt lat="45.85863" lon="4.8498">
        <ele>212</ele>
        <time>2011-06-02T09:31:12Z</time>
      </trkpt>
      <trkpt lat="45.85863" lon="4.84982">
        <ele>212</ele>
        <time>2011-06-02T09:31:13Z</time>
      </trkpt>
      <trkpt lat="45.85863" lon="4.84984">
        <ele>213</ele>
        <time>2011-06-02T09:31:14Z</time>
      </trkpt>
      <trkpt lat="45.85862" lon="4.84986">
        <ele>213</ele>
        <time>2011-06-02T09:31:15Z</time>
      </trkpt>
      <trkpt lat="45.85863" lon="4.84988">
        <ele>213</ele>
        <time>2011-06-02T09:31:16Z</time>
      </trkpt>
      <trkpt lat="45.85862" lon="4.8499">
        <ele>214</ele>
        <time>2011-06-02T09:31:17Z</time>
      </trkpt>
      <trkpt lat="45.85862" lon="4.84992">
        <ele>214</ele>
        <time>2011-06-02T09:31:18Z</time>
      </trkpt>
      <trkpt lat="45.85864" lon="4.84995">
        <ele>214</ele>
        <time>2011-06-02T09:31:20Z</time>
      </trkpt>
      <trkpt lat="45.85865" lon="4.84997">
        <ele>214</ele>
        <time>2011-06-02T09:31:21Z</time>
      </trkpt>
      <trkpt lat="45.85867" lon="4.84999">
        <ele>214</ele>
        <time>2011-06-02T09:31:23Z</time>
      </trkpt>
      <trkpt lat="45.85868" lon="4.85001">
        <ele>214</ele>
        <time>2011-06-02T09:31:25Z</time>
      </trkpt>
      <trkpt lat="45.8587" lon="4.85002">
        <ele>214</ele>
        <time>2011-06-02T09:31:26Z</time>
      </trkpt>
      <trkpt lat="45.85871" lon="4.85003">
        <ele>214</ele>
        <time>2011-06-02T09:31:27Z</time>
      </trkpt>
      <trkpt lat="45.85873" lon="4.85005">
        <ele>214</ele>
        <time>2011-06-02T09:31:29Z</time>
      </trkpt>
      <trkpt lat="45.85874" lon="4.85007">
        <ele>214</ele>
        <time>2011-06-02T09:31:30Z</time>
      </trkpt>
      <trkpt lat="45.85875" lon="4.85008">
        <ele>214</ele>
        <time>2011-06-02T09:31:31Z</time>
      </trkpt>
      <trkpt lat="45.85877" lon="4.85009">
        <ele>214</ele>
        <time>2011-06-02T09:31:32Z</time>
      </trkpt>
      <trkpt lat="45.85878" lon="4.8501">
        <ele>214</ele>
        <time>2011-06-02T09:31:33Z</time>
      </trkpt>
      <trkpt lat="45.8588" lon="4.85012">
        <ele>214</ele>
        <time>2011-06-02T09:31:35Z</time>
      </trkpt>
      <trkpt lat="45.85881" lon="4.85014">
        <ele>214</ele>
        <time>2011-06-02T09:31:37Z</time>
      </trkpt>
      <trkpt lat="45.85884" lon="4.85015">
        <ele>214</ele>
        <time>2011-06-02T09:31:40Z</time>
      </trkpt>
      <trkpt lat="45.85886" lon="4.85017">
        <ele>214</ele>
        <time>2011-06-02T09:31:41Z</time>
      </trkpt>
      <trkpt lat="45.85887" lon="4.85018">
        <ele>214</ele>
        <time>2011-06-02T09:31:42Z</time>
      </trkpt>
      <trkpt lat="45.85889" lon="4.85019">
        <ele>214</ele>
        <time>2011-06-02T09:31:43Z</time>
      </trkpt>
      <trkpt lat="45.85891" lon="4.8502">
        <ele>214</ele>
        <time>2011-06-02T09:31:44Z</time>
      </trkpt>
      <trkpt lat="45.85892" lon="4.85021">
        <ele>214</ele>
        <time>2011-06-02T09:31:45Z</time>
      </trkpt>
      <trkpt lat="45.85894" lon="4.85022">
        <ele>214</ele>
        <time>2011-06-02T09:31:46Z</time>
      </trkpt>
      <trkpt lat="45.85896" lon="4.85024">
        <ele>214</ele>
        <time>2011-06-02T09:31:47Z</time>
      </trkpt>
      <trkpt lat="45.85897" lon="4.85026">
        <ele>214</ele>
        <time>2011-06-02T09:31:48Z</time>
      </trkpt>
      <trkpt lat="45.85899" lon="4.85027">
        <ele>214</ele>
        <time>2011-06-02T09:31:49Z</time>
      </trkpt>
      <trkpt lat="45.859" lon="4.85029">
        <ele>214</ele>
        <time>2011-06-02T09:31:50Z</time>
      </trkpt>
      <trkpt lat="45.85902" lon="4.85031">
        <ele>214</ele>
        <time>2011-06-02T09:31:51Z</time>
      </trkpt>
      <trkpt lat="45.85904" lon="4.85032">
        <ele>214</ele>
        <time>2011-06-02T09:31:52Z</time>
      </trkpt>
      <trkpt lat="45.85906" lon="4.85034">
        <ele>214</ele>
        <time>2011-06-02T09:31:53Z</time>
      </trkpt>
      <trkpt lat="45.85909" lon="4.85036">
        <ele>214</ele>
        <time>2011-06-02T09:31:54Z</time>
      </trkpt>
      <trkpt lat="45.85911" lon="4.85037">
        <ele>214</ele>
        <time>2011-06-02T09:31:55Z</time>
      </trkpt>
      <trkpt lat="45.85914" lon="4.8504">
        <ele>214</ele>
        <time>2011-06-02T09:31:56Z</time>
      </trkpt>
      <trkpt lat="45.85916" lon="4.85042">
        <ele>214</ele>
        <time>2011-06-02T09:31:57Z</time>
      </trkpt>
      <trkpt lat="45.85918" lon="4.85043">
        <ele>214</ele>
        <time>2011-06-02T09:31:58Z</time>
      </trkpt>
      <trkpt lat="45.85921" lon="4.85046">
        <ele>214</ele>
        <time>2011-06-02T09:31:59Z</time>
      </trkpt>
      <trkpt lat="45.85923" lon="4.85048">
        <ele>214</ele>
        <time>2011-06-02T09:32:00Z</time>
      </trkpt>
      <trkpt lat="45.85926" lon="4.85051">
        <ele>214</ele>
        <time>2011-06-02T09:32:01Z</time>
      </trkpt>
      <trkpt lat="45.85928" lon="4.85053">
        <ele>214</ele>
        <time>2011-06-02T09:32:02Z</time>
      </trkpt>
      <trkpt lat="45.85929" lon="4.85054">
        <ele>214</ele>
        <time>2011-06-02T09:32:03Z</time>
      </trkpt>
      <trkpt lat="45.85931" lon="4.85056">
        <ele>214</ele>
        <time>2011-06-02T09:32:04Z</time>
      </trkpt>
      <trkpt lat="45.85933" lon="4.85058">
        <ele>214</ele>
        <time>2011-06-02T09:32:05Z</time>
      </trkpt>
      <trkpt lat="45.85935" lon="4.85059">
        <ele>214</ele>
        <time>2011-06-02T09:32:06Z</time>
      </trkpt>
      <trkpt lat="45.85936" lon="4.85062">
        <ele>214</ele>
        <time>2011-06-02T09:32:07Z</time>
      </trkpt>
      <trkpt lat="45.85938" lon="4.85064">
        <ele>214</ele>
        <time>2011-06-02T09:32:08Z</time>
      </trkpt>
      <trkpt lat="45.8594" lon="4.85065">
        <ele>214</ele>
        <time>2011-06-02T09:32:09Z</time>
      </trkpt>
      <trkpt lat="45.85941" lon="4.85067">
        <ele>214</ele>
        <time>2011-06-02T09:32:10Z</time>
      </trkpt>
      <trkpt lat="45.85944" lon="4.85069">
        <ele>214</ele>
        <time>2011-06-02T09:32:11Z</time>
      </trkpt>
      <trkpt lat="45.85946" lon="4.85071">
        <ele>214</ele>
        <time>2011-06-02T09:32:12Z</time>
      </trkpt>
      <trkpt lat="45.85948" lon="4.85073">
        <ele>214</ele>
        <time>2011-06-02T09:32:13Z</time>
      </trkpt>
      <trkpt lat="45.8595" lon="4.85075">
        <ele>214</ele>
        <time>2011-06-02T09:32:14Z</time>
      </trkpt>
      <trkpt lat="45.85952" lon="4.85077">
        <ele>214</ele>
        <time>2011-06-02T09:32:15Z</time>
      </trkpt>
      <trkpt lat="45.85953" lon="4.85079">
        <ele>214</ele>
        <time>2011-06-02T09:32:16Z</time>
      </trkpt>
      <trkpt lat="45.85955" lon="4.85081">
        <ele>214</ele>
        <time>2011-06-02T09:32:17Z</time>
      </trkpt>
      <trkpt lat="45.85958" lon="4.85084">
        <ele>214</ele>
        <time>2011-06-02T09:32:18Z</time>
      </trkpt>
      <trkpt lat="45.8596" lon="4.85087">
        <ele>214</ele>
        <time>2011-06-02T09:32:19Z</time>
      </trkpt>
      <trkpt lat="45.85963" lon="4.8509">
        <ele>214</ele>
        <time>2011-06-02T09:32:20Z</time>
      </trkpt>
      <trkpt lat="45.85965" lon="4.85092">
        <ele>214</ele>
        <time>2011-06-02T09:32:21Z</time>
      </trkpt>
      <trkpt lat="45.85967" lon="4.85095">
        <ele>214</ele>
        <time>2011-06-02T09:32:22Z</time>
      </trkpt>
      <trkpt lat="45.85969" lon="4.85097">
        <ele>214</ele>
        <time>2011-06-02T09:32:23Z</time>
      </trkpt>
      <trkpt lat="45.85971" lon="4.85099">
        <ele>214</ele>
        <time>2011-06-02T09:32:24Z</time>
      </trkpt>
      <trkpt lat="45.85973" lon="4.85101">
        <ele>214</ele>
        <time>2011-06-02T09:32:25Z</time>
      </trkpt>
      <trkpt lat="45.85975" lon="4.85103">
        <ele>214</ele>
        <time>2011-06-02T09:32:26Z</time>
      </trkpt>
      <trkpt lat="45.85977" lon="4.85106">
        <ele>214</ele>
        <time>2011-06-02T09:32:27Z</time>
      </trkpt>
      <trkpt lat="45.85979" lon="4.85108">
        <ele>214</ele>
        <time>2011-06-02T09:32:28Z</time>
      </trkpt>
      <trkpt lat="45.8598" lon="4.85111">
        <ele>214</ele>
        <time>2011-06-02T09:32:29Z</time>
      </trkpt>
      <trkpt lat="45.85983" lon="4.85112">
        <ele>214</ele>
        <time>2011-06-02T09:32:30Z</time>
      </trkpt>
      <trkpt lat="45.85984" lon="4.85114">
        <ele>214</ele>
        <time>2011-06-02T09:32:31Z</time>
      </trkpt>
      <trkpt lat="45.85986" lon="4.85116">
        <ele>214</ele>
        <time>2011-06-02T09:32:32Z</time>
      </trkpt>
      <trkpt lat="45.85988" lon="4.85118">
        <ele>214</ele>
        <time>2011-06-02T09:32:33Z</time>
      </trkpt>
      <trkpt lat="45.85989" lon="4.85121">
        <ele>214</ele>
        <time>2011-06-02T09:32:34Z</time>
      </trkpt>
      <trkpt lat="45.85991" lon="4.85123">
        <ele>214</ele>
        <time>2011-06-02T09:32:35Z</time>
      </trkpt>
      <trkpt lat="45.85993" lon="4.85124">
        <ele>213</ele>
        <time>2011-06-02T09:32:36Z</time>
      </trkpt>
      <trkpt lat="45.85994" lon="4.85126">
        <ele>213</ele>
        <time>2011-06-02T09:32:37Z</time>
      </trkpt>
      <trkpt lat="45.85995" lon="4.85128">
        <ele>212</ele>
        <time>2011-06-02T09:32:38Z</time>
      </trkpt>
      <trkpt lat="45.85997" lon="4.8513">
        <ele>212</ele>
        <time>2011-06-02T09:32:39Z</time>
      </trkpt>
      <trkpt lat="45.85998" lon="4.85132">
        <ele>211</ele>
        <time>2011-06-02T09:32:40Z</time>
      </trkpt>
      <trkpt lat="45.85999" lon="4.85133">
        <ele>211</ele>
        <time>2011-06-02T09:32:41Z</time>
      </trkpt>
      <trkpt lat="45.86" lon="4.85134">
        <ele>211</ele>
        <time>2011-06-02T09:32:42Z</time>
      </trkpt>
      <trkpt lat="45.86002" lon="4.85137">
        <ele>210</ele>
        <time>2011-06-02T09:32:43Z</time>
      </trkpt>
      <trkpt lat="45.86003" lon="4.85139">
        <ele>210</ele>
        <time>2011-06-02T09:32:44Z</time>
      </trkpt>
      <trkpt lat="45.86004" lon="4.8514">
        <ele>210</ele>
        <time>2011-06-02T09:32:45Z</time>
      </trkpt>
      <trkpt lat="45.86005" lon="4.85142">
        <ele>210</ele>
        <time>2011-06-02T09:32:46Z</time>
      </trkpt>
      <trkpt lat="45.86008" lon="4.85145">
        <ele>209</ele>
        <time>2011-06-02T09:32:48Z</time>
      </trkpt>
      <trkpt lat="45.86009" lon="4.85147">
        <ele>209</ele>
        <time>2011-06-02T09:32:49Z</time>
      </trkpt>
      <trkpt lat="45.8601" lon="4.85148">
        <ele>209</ele>
        <time>2011-06-02T09:32:50Z</time>
      </trkpt>
      <trkpt lat="45.86012" lon="4.8515">
        <ele>209</ele>
        <time>2011-06-02T09:32:51Z</time>
      </trkpt>
      <trkpt lat="45.86013" lon="4.85152">
        <ele>208</ele>
        <time>2011-06-02T09:32:52Z</time>
      </trkpt>
      <trkpt lat="45.86015" lon="4.85154">
        <ele>208</ele>
        <time>2011-06-02T09:32:53Z</time>
      </trkpt>
      <trkpt lat="45.86016" lon="4.85156">
        <ele>207</ele>
        <time>2011-06-02T09:32:54Z</time>
      </trkpt>
      <trkpt lat="45.86017" lon="4.85157">
        <ele>207</ele>
        <time>2011-06-02T09:32:55Z</time>
      </trkpt>
      <trkpt lat="45.86019" lon="4.85159">
        <ele>206</ele>
        <time>2011-06-02T09:32:56Z</time>
      </trkpt>
      <trkpt lat="45.86021" lon="4.85161">
        <ele>206</ele>
        <time>2011-06-02T09:32:57Z</time>
      </trkpt>
      <trkpt lat="45.86023" lon="4.85162">
        <ele>206</ele>
        <time>2011-06-02T09:32:58Z</time>
      </trkpt>
      <trkpt lat="45.86024" lon="4.85164">
        <ele>205</ele>
        <time>2011-06-02T09:32:59Z</time>
      </trkpt>
      <trkpt lat="45.86026" lon="4.85167">
        <ele>205</ele>
        <time>2011-06-02T09:33:01Z</time>
      </trkpt>
      <trkpt lat="45.86027" lon="4.85168">
        <ele>205</ele>
        <time>2011-06-02T09:33:02Z</time>
      </trkpt>
      <trkpt lat="45.86028" lon="4.8517">
        <ele>205</ele>
        <time>2011-06-02T09:33:03Z</time>
      </trkpt>
      <trkpt lat="45.86029" lon="4.85172">
        <ele>205</ele>
        <time>2011-06-02T09:33:04Z</time>
      </trkpt>
      <trkpt lat="45.8603" lon="4.85173">
        <ele>205</ele>
        <time>2011-06-02T09:33:06Z</time>
      </trkpt>
      <trkpt lat="45.86031" lon="4.85175">
        <ele>205</ele>
        <time>2011-06-02T09:33:07Z</time>
      </trkpt>
      <trkpt lat="45.86034" lon="4.85177">
        <ele>205</ele>
        <time>2011-06-02T09:33:08Z</time>
      </trkpt>
      <trkpt lat="45.86035" lon="4.85179">
        <ele>205</ele>
        <time>2011-06-02T09:33:09Z</time>
      </trkpt>
      <trkpt lat="45.86037" lon="4.85181">
        <ele>205</ele>
        <time>2011-06-02T09:33:10Z</time>
      </trkpt>
      <trkpt lat="45.86039" lon="4.85183">
        <ele>205</ele>
        <time>2011-06-02T09:33:11Z</time>
      </trkpt>
      <trkpt lat="45.8604" lon="4.85185">
        <ele>205</ele>
        <time>2011-06-02T09:33:12Z</time>
      </trkpt>
      <trkpt lat="45.86041" lon="4.85187">
        <ele>205</ele>
        <time>2011-06-02T09:33:13Z</time>
      </trkpt>
      <trkpt lat="45.86042" lon="4.85189">
        <ele>204</ele>
        <time>2011-06-02T09:33:14Z</time>
      </trkpt>
      <trkpt lat="45.86044" lon="4.85192">
        <ele>204</ele>
        <time>2011-06-02T09:33:16Z</time>
      </trkpt>
      <trkpt lat="45.86045" lon="4.85195">
        <ele>204</ele>
        <time>2011-06-02T09:33:18Z</time>
      </trkpt>
      <trkpt lat="45.86047" lon="4.85196">
        <ele>204</ele>
        <time>2011-06-02T09:33:19Z</time>
      </trkpt>
      <trkpt lat="45.86048" lon="4.85197">
        <ele>204</ele>
        <time>2011-06-02T09:33:20Z</time>
      </trkpt>
      <trkpt lat="45.8605" lon="4.85199">
        <ele>205</ele>
        <time>2011-06-02T09:33:21Z</time>
      </trkpt>
      <trkpt lat="45.86052" lon="4.85201">
        <ele>207</ele>
        <time>2011-06-02T09:33:23Z</time>
      </trkpt>
      <trkpt lat="45.86054" lon="4.85203">
        <ele>209</ele>
        <time>2011-06-02T09:33:25Z</time>
      </trkpt>
      <trkpt lat="45.86056" lon="4.85206">
        <ele>211</ele>
        <time>2011-06-02T09:33:27Z</time>
      </trkpt>
      <trkpt lat="45.86057" lon="4.85207">
        <ele>212</ele>
        <time>2011-06-02T09:33:28Z</time>
      </trkpt>
      <trkpt lat="45.86059" lon="4.85209">
        <ele>213</ele>
        <time>2011-06-02T09:33:29Z</time>
      </trkpt>
      <trkpt lat="45.86061" lon="4.85212">
        <ele>215</ele>
        <time>2011-06-02T09:33:31Z</time>
      </trkpt>
      <trkpt lat="45.86061" lon="4.85213">
        <ele>216</ele>
        <time>2011-06-02T09:33:32Z</time>
      </trkpt>
      <trkpt lat="45.86063" lon="4.85215">
        <ele>216</ele>
        <time>2011-06-02T09:33:33Z</time>
      </trkpt>
      <trkpt lat="45.86064" lon="4.85218">
        <ele>216</ele>
        <time>2011-06-02T09:33:34Z</time>
      </trkpt>
      <trkpt lat="45.86066" lon="4.85221">
        <ele>216</ele>
        <time>2011-06-02T09:33:35Z</time>
      </trkpt>
      <trkpt lat="45.86067" lon="4.85223">
        <ele>216</ele>
        <time>2011-06-02T09:33:36Z</time>
      </trkpt>
      <trkpt lat="45.86068" lon="4.85225">
        <ele>216</ele>
        <time>2011-06-02T09:33:38Z</time>
      </trkpt>
      <trkpt lat="45.86069" lon="4.85227">
        <ele>216</ele>
        <time>2011-06-02T09:33:40Z</time>
      </trkpt>
      <trkpt lat="45.86071" lon="4.8523">
        <ele>216</ele>
        <time>2011-06-02T09:33:42Z</time>
      </trkpt>
      <trkpt lat="45.86073" lon="4.85232">
        <ele>216</ele>
        <time>2011-06-02T09:33:43Z</time>
      </trkpt>
      <trkpt lat="45.86074" lon="4.85233">
        <ele>216</ele>
        <time>2011-06-02T09:33:44Z</time>
      </trkpt>
      <trkpt lat="45.86074" lon="4.85235">
        <ele>216</ele>
        <time>2011-06-02T09:33:45Z</time>
      </trkpt>
      <trkpt lat="45.86076" lon="4.85237">
        <ele>216</ele>
        <time>2011-06-02T09:33:46Z</time>
      </trkpt>
      <trkpt lat="45.86077" lon="4.85238">
        <ele>216</ele>
        <time>2011-06-02T09:33:47Z</time>
      </trkpt>
      <trkpt lat="45.86079" lon="4.85239">
        <ele>216</ele>
        <time>2011-06-02T09:33:48Z</time>
      </trkpt>
      <trkpt lat="45.86081" lon="4.85242">
        <ele>216</ele>
        <time>2011-06-02T09:33:49Z</time>
      </trkpt>
      <trkpt lat="45.86082" lon="4.85243">
        <ele>216</ele>
        <time>2011-06-02T09:33:50Z</time>
      </trkpt>
      <trkpt lat="45.86083" lon="4.85245">
        <ele>216</ele>
        <time>2011-06-02T09:33:51Z</time>
      </trkpt>
      <trkpt lat="45.86085" lon="4.85245">
        <ele>216</ele>
        <time>2011-06-02T09:33:52Z</time>
      </trkpt>
      <trkpt lat="45.86086" lon="4.85247">
        <ele>216</ele>
        <time>2011-06-02T09:33:53Z</time>
      </trkpt>
      <trkpt lat="45.86087" lon="4.85248">
        <ele>216</ele>
        <time>2011-06-02T09:33:54Z</time>
      </trkpt>
      <trkpt lat="45.86088" lon="4.85249">
        <ele>216</ele>
        <time>2011-06-02T09:33:55Z</time>
      </trkpt>
      <trkpt lat="45.8609" lon="4.85252">
        <ele>216</ele>
        <time>2011-06-02T09:33:57Z</time>
      </trkpt>
      <trkpt lat="45.86091" lon="4.85254">
        <ele>216</ele>
        <time>2011-06-02T09:33:58Z</time>
      </trkpt>
      <trkpt lat="45.86092" lon="4.85256">
        <ele>216</ele>
        <time>2011-06-02T09:33:59Z</time>
      </trkpt>
      <trkpt lat="45.86092" lon="4.85258">
        <ele>216</ele>
        <time>2011-06-02T09:34:00Z</time>
      </trkpt>
      <trkpt lat="45.86095" lon="4.85261">
        <ele>217</ele>
        <time>2011-06-02T09:34:02Z</time>
      </trkpt>
      <trkpt lat="45.86096" lon="4.85263">
        <ele>217</ele>
        <time>2011-06-02T09:34:03Z</time>
      </trkpt>
      <trkpt lat="45.86098" lon="4.85265">
        <ele>217</ele>
        <time>2011-06-02T09:34:05Z</time>
      </trkpt>
      <trkpt lat="45.86101" lon="4.85266">
        <ele>217</ele>
        <time>2011-06-02T09:34:07Z</time>
      </trkpt>
      <trkpt lat="45.86102" lon="4.85267">
        <ele>217</ele>
        <time>2011-06-02T09:34:08Z</time>
      </trkpt>
      <trkpt lat="45.86103" lon="4.85269">
        <ele>217</ele>
        <time>2011-06-02T09:34:10Z</time>
      </trkpt>
      <trkpt lat="45.86104" lon="4.85271">
        <ele>217</ele>
        <time>2011-06-02T09:34:11Z</time>
      </trkpt>
      <trkpt lat="45.86106" lon="4.85273">
        <ele>218</ele>
        <time>2011-06-02T09:34:13Z</time>
      </trkpt>
      <trkpt lat="45.86108" lon="4.85276">
        <ele>219</ele>
        <time>2011-06-02T09:34:15Z</time>
      </trkpt>
      <trkpt lat="45.86111" lon="4.85277">
        <ele>222</ele>
        <time>2011-06-02T09:34:18Z</time>
      </trkpt>
      <trkpt lat="45.86112" lon="4.85278">
        <ele>223</ele>
        <time>2011-06-02T09:34:19Z</time>
      </trkpt>
      <trkpt lat="45.86113" lon="4.85279">
        <ele>224</ele>
        <time>2011-06-02T09:34:20Z</time>
      </trkpt>
      <trkpt lat="45.86116" lon="4.85281">
        <ele>226</ele>
        <time>2011-06-02T09:34:22Z</time>
      </trkpt>
      <trkpt lat="45.86118" lon="4.85284">
        <ele>228</ele>
        <time>2011-06-02T09:34:24Z</time>
      </trkpt>
      <trkpt lat="45.86119" lon="4.85286">
        <ele>229</ele>
        <time>2011-06-02T09:34:25Z</time>
      </trkpt>
      <trkpt lat="45.8612" lon="4.85288">
        <ele>230</ele>
        <time>2011-06-02T09:34:26Z</time>
      </trkpt>
      <trkpt lat="45.86122" lon="4.8529">
        <ele>230</ele>
        <time>2011-06-02T09:34:28Z</time>
      </trkpt>
      <trkpt lat="45.86123" lon="4.85292">
        <ele>230</ele>
        <time>2011-06-02T09:34:29Z</time>
      </trkpt>
      <trkpt lat="45.86124" lon="4.85294">
        <ele>230</ele>
        <time>2011-06-02T09:34:30Z</time>
      </trkpt>
      <trkpt lat="45.86125" lon="4.85296">
        <ele>230</ele>
        <time>2011-06-02T09:34:31Z</time>
      </trkpt>
      <trkpt lat="45.86126" lon="4.85298">
        <ele>230</ele>
        <time>2011-06-02T09:34:32Z</time>
      </trkpt>
      <trkpt lat="45.86127" lon="4.85301">
        <ele>230</ele>
        <time>2011-06-02T09:34:34Z</time>
      </trkpt>
      <trkpt lat="45.86128" lon="4.85303">
        <ele>230</ele>
        <time>2011-06-02T09:34:35Z</time>
      </trkpt>
      <trkpt lat="45.86129" lon="4.85304">
        <ele>231</ele>
        <time>2011-06-02T09:34:36Z</time>
      </trkpt>
      <trkpt lat="45.86131" lon="4.85305">
        <ele>232</ele>
        <time>2011-06-02T09:34:38Z</time>
      </trkpt>
      <trkpt lat="45.86132" lon="4.85307">
        <ele>233</ele>
        <time>2011-06-02T09:34:40Z</time>
      </trkpt>
      <trkpt lat="45.86134" lon="4.85308">
        <ele>233</ele>
        <time>2011-06-02T09:34:41Z</time>
      </trkpt>
      <trkpt lat="45.86135" lon="4.8531">
        <ele>235</ele>
        <time>2011-06-02T09:34:43Z</time>
      </trkpt>
      <trkpt lat="45.86137" lon="4.85311">
        <ele>235</ele>
        <time>2011-06-02T09:34:44Z</time>
      </trkpt>
      <trkpt lat="45.86138" lon="4.85312">
        <ele>236</ele>
        <time>2011-06-02T09:34:45Z</time>
      </trkpt>
      <trkpt lat="45.8614" lon="4.85314">
        <ele>237</ele>
        <time>2011-06-02T09:34:47Z</time>
      </trkpt>
      <trkpt lat="45.86142" lon="4.85316">
        <ele>238</ele>
        <time>2011-06-02T09:34:50Z</time>
      </trkpt>
      <trkpt lat="45.86143" lon="4.85318">
        <ele>238</ele>
        <time>2011-06-02T09:34:51Z</time>
      </trkpt>
      <trkpt lat="45.86146" lon="4.8532">
        <ele>239</ele>
        <time>2011-06-02T09:34:53Z</time>
      </trkpt>
      <trkpt lat="45.86147" lon="4.85321">
        <ele>239</ele>
        <time>2011-06-02T09:34:54Z</time>
      </trkpt>
      <trkpt lat="45.86148" lon="4.85321">
        <ele>240</ele>
        <time>2011-06-02T09:34:56Z</time>
      </trkpt>
      <trkpt lat="45.8615" lon="4.85321">
        <ele>242</ele>
        <time>2011-06-02T09:34:58Z</time>
      </trkpt>
      <trkpt lat="45.86152" lon="4.85322">
        <ele>243</ele>
        <time>2011-06-02T09:34:59Z</time>
      </trkpt>
      <trkpt lat="45.86153" lon="4.85324">
        <ele>245</ele>
        <time>2011-06-02T09:35:01Z</time>
      </trkpt>
      <trkpt lat="45.86156" lon="4.85326">
        <ele>246</ele>
        <time>2011-06-02T09:35:03Z</time>
      </trkpt>
      <trkpt lat="45.86157" lon="4.85328">
        <ele>246</ele>
        <time>2011-06-02T09:35:04Z</time>
      </trkpt>
      <trkpt lat="45.8616" lon="4.85329">
        <ele>247</ele>
        <time>2011-06-02T09:35:06Z</time>
      </trkpt>
      <trkpt lat="45.86162" lon="4.8533">
        <ele>247</ele>
        <time>2011-06-02T09:35:07Z</time>
      </trkpt>
      <trkpt lat="45.86164" lon="4.85331">
        <ele>247</ele>
        <time>2011-06-02T09:35:08Z</time>
      </trkpt>
      <trkpt lat="45.86166" lon="4.85333">
        <ele>247</ele>
        <time>2011-06-02T09:35:10Z</time>
      </trkpt>
      <trkpt lat="45.86167" lon="4.85333">
        <ele>248</ele>
        <time>2011-06-02T09:35:11Z</time>
      </trkpt>
      <trkpt lat="45.86169" lon="4.85333">
        <ele>248</ele>
        <time>2011-06-02T09:35:12Z</time>
      </trkpt>
      <trkpt lat="45.86171" lon="4.85334">
        <ele>248</ele>
        <time>2011-06-02T09:35:13Z</time>
      </trkpt>
      <trkpt lat="45.86173" lon="4.85335">
        <ele>249</ele>
        <time>2011-06-02T09:35:14Z</time>
      </trkpt>
      <trkpt lat="45.86176" lon="4.85337">
        <ele>249</ele>
        <time>2011-06-02T09:35:16Z</time>
      </trkpt>
      <trkpt lat="45.86177" lon="4.85338">
        <ele>249</ele>
        <time>2011-06-02T09:35:17Z</time>
      </trkpt>
      <trkpt lat="45.86178" lon="4.85339">
        <ele>249</ele>
        <time>2011-06-02T09:35:18Z</time>
      </trkpt>
      <trkpt lat="45.8618" lon="4.85341">
        <ele>249</ele>
        <time>2011-06-02T09:35:19Z</time>
      </trkpt>
      <trkpt lat="45.86182" lon="4.85341">
        <ele>250</ele>
        <time>2011-06-02T09:35:20Z</time>
      </trkpt>
      <trkpt lat="45.86184" lon="4.85342">
        <ele>250</ele>
        <time>2011-06-02T09:35:22Z</time>
      </trkpt>
      <trkpt lat="45.86186" lon="4.85344">
        <ele>250</ele>
        <time>2011-06-02T09:35:24Z</time>
      </trkpt>
      <trkpt lat="45.86187" lon="4.85345">
        <ele>250</ele>
        <time>2011-06-02T09:35:25Z</time>
      </trkpt>
      <trkpt lat="45.86189" lon="4.85345">
        <ele>250</ele>
        <time>2011-06-02T09:35:26Z</time>
      </trkpt>
      <trkpt lat="45.8619" lon="4.85346">
        <ele>250</ele>
        <time>2011-06-02T09:35:27Z</time>
      </trkpt>
      <trkpt lat="45.86192" lon="4.85348">
        <ele>250</ele>
        <time>2011-06-02T09:35:28Z</time>
      </trkpt>
      <trkpt lat="45.86193" lon="4.85349">
        <ele>250</ele>
        <time>2011-06-02T09:35:29Z</time>
      </trkpt>
      <trkpt lat="45.86195" lon="4.85351">
        <ele>250</ele>
        <time>2011-06-02T09:35:30Z</time>
      </trkpt>
      <trkpt lat="45.86196" lon="4.85352">
        <ele>250</ele>
        <time>2011-06-02T09:35:31Z</time>
      </trkpt>
      <trkpt lat="45.86197" lon="4.85354">
        <ele>250</ele>
        <time>2011-06-02T09:35:32Z</time>
      </trkpt>
      <trkpt lat="45.86199" lon="4.85356">
        <ele>250</ele>
        <time>2011-06-02T09:35:34Z</time>
      </trkpt>
      <trkpt lat="45.862" lon="4.85357">
        <ele>250</ele>
        <time>2011-06-02T09:35:35Z</time>
      </trkpt>
      <trkpt lat="45.86203" lon="4.85358">
        <ele>250</ele>
        <time>2011-06-02T09:35:37Z</time>
      </trkpt>
      <trkpt lat="45.86204" lon="4.85359">
        <ele>250</ele>
        <time>2011-06-02T09:35:38Z</time>
      </trkpt>
      <trkpt lat="45.86206" lon="4.85361">
        <ele>250</ele>
        <time>2011-06-02T09:35:39Z</time>
      </trkpt>
      <trkpt lat="45.86208" lon="4.85362">
        <ele>250</ele>
        <time>2011-06-02T09:35:40Z</time>
      </trkpt>
      <trkpt lat="45.86209" lon="4.85364">
        <ele>250</ele>
        <time>2011-06-02T09:35:41Z</time>
      </trkpt>
      <trkpt lat="45.86211" lon="4.85364">
        <ele>250</ele>
        <time>2011-06-02T09:35:42Z</time>
      </trkpt>
      <trkpt lat="45.86212" lon="4.85366">
        <ele>251</ele>
        <time>2011-06-02T09:35:44Z</time>
      </trkpt>
      <trkpt lat="45.86214" lon="4.85368">
        <ele>252</ele>
        <time>2011-06-02T09:35:46Z</time>
      </trkpt>
      <trkpt lat="45.86216" lon="4.85369">
        <ele>252</ele>
        <time>2011-06-02T09:35:47Z</time>
      </trkpt>
      <trkpt lat="45.86218" lon="4.8537">
        <ele>253</ele>
        <time>2011-06-02T09:35:48Z</time>
      </trkpt>
      <trkpt lat="45.86219" lon="4.8537">
        <ele>254</ele>
        <time>2011-06-02T09:35:49Z</time>
      </trkpt>
      <trkpt lat="45.86221" lon="4.85371">
        <ele>254</ele>
        <time>2011-06-02T09:35:50Z</time>
      </trkpt>
      <trkpt lat="45.86223" lon="4.85374">
        <ele>255</ele>
        <time>2011-06-02T09:35:51Z</time>
      </trkpt>
      <trkpt lat="45.86226" lon="4.85376">
        <ele>255</ele>
        <time>2011-06-02T09:35:52Z</time>
      </trkpt>
      <trkpt lat="45.86227" lon="4.85377">
        <ele>255</ele>
        <time>2011-06-02T09:35:53Z</time>
      </trkpt>
      <trkpt lat="45.86228" lon="4.85378">
        <ele>255</ele>
        <time>2011-06-02T09:35:54Z</time>
      </trkpt>
      <trkpt lat="45.8623" lon="4.85379">
        <ele>255</ele>
        <time>2011-06-02T09:35:55Z</time>
      </trkpt>
      <trkpt lat="45.86232" lon="4.8538">
        <ele>255</ele>
        <time>2011-06-02T09:35:56Z</time>
      </trkpt>
      <trkpt lat="45.86234" lon="4.85382">
        <ele>255</ele>
        <time>2011-06-02T09:35:57Z</time>
      </trkpt>
      <trkpt lat="45.86236" lon="4.85384">
        <ele>256</ele>
        <time>2011-06-02T09:35:58Z</time>
      </trkpt>
      <trkpt lat="45.86238" lon="4.85386">
        <ele>256</ele>
        <time>2011-06-02T09:35:59Z</time>
      </trkpt>
      <trkpt lat="45.8624" lon="4.85388">
        <ele>256</ele>
        <time>2011-06-02T09:36:00Z</time>
      </trkpt>
      <trkpt lat="45.86242" lon="4.85389">
        <ele>256</ele>
        <time>2011-06-02T09:36:01Z</time>
      </trkpt>
      <trkpt lat="45.86244" lon="4.85391">
        <ele>256</ele>
        <time>2011-06-02T09:36:02Z</time>
      </trkpt>
      <trkpt lat="45.86246" lon="4.85393">
        <ele>256</ele>
        <time>2011-06-02T09:36:03Z</time>
      </trkpt>
      <trkpt lat="45.86248" lon="4.85395">
        <ele>256</ele>
        <time>2011-06-02T09:36:04Z</time>
      </trkpt>
      <trkpt lat="45.8625" lon="4.85396">
        <ele>256</ele>
        <time>2011-06-02T09:36:05Z</time>
      </trkpt>
      <trkpt lat="45.86252" lon="4.85398">
        <ele>256</ele>
        <time>2011-06-02T09:36:06Z</time>
      </trkpt>
      <trkpt lat="45.86253" lon="4.85399">
        <ele>256</ele>
        <time>2011-06-02T09:36:07Z</time>
      </trkpt>
      <trkpt lat="45.86255" lon="4.85401">
        <ele>256</ele>
        <time>2011-06-02T09:36:08Z</time>
      </trkpt>
      <trkpt lat="45.86257" lon="4.85403">
        <ele>256</ele>
        <time>2011-06-02T09:36:09Z</time>
      </trkpt>
      <trkpt lat="45.86259" lon="4.85405">
        <ele>256</ele>
        <time>2011-06-02T09:36:10Z</time>
      </trkpt>
      <trkpt lat="45.86261" lon="4.85406">
        <ele>256</ele>
        <time>2011-06-02T09:36:11Z</time>
      </trkpt>
      <trkpt lat="45.86263" lon="4.85408">
        <ele>256</ele>
        <time>2011-06-02T09:36:12Z</time>
      </trkpt>
      <trkpt lat="45.86264" lon="4.85409">
        <ele>256</ele>
        <time>2011-06-02T09:36:13Z</time>
      </trkpt>
      <trkpt lat="45.86266" lon="4.85411">
        <ele>256</ele>
        <time>2011-06-02T09:36:14Z</time>
      </trkpt>
      <trkpt lat="45.86267" lon="4.85412">
        <ele>256</ele>
        <time>2011-06-02T09:36:15Z</time>
      </trkpt>
      <trkpt lat="45.86269" lon="4.85413">
        <ele>256</ele>
        <time>2011-06-02T09:36:16Z</time>
      </trkpt>
      <trkpt lat="45.86271" lon="4.85415">
        <ele>256</ele>
        <time>2011-06-02T09:36:17Z</time>
      </trkpt>
      <trkpt lat="45.86273" lon="4.85417">
        <ele>256</ele>
        <time>2011-06-02T09:36:18Z</time>
      </trkpt>
      <trkpt lat="45.86274" lon="4.85418">
        <ele>256</ele>
        <time>2011-06-02T09:36:19Z</time>
      </trkpt>
      <trkpt lat="45.86276" lon="4.8542">
        <ele>256</ele>
        <time>2011-06-02T09:36:20Z</time>
      </trkpt>
      <trkpt lat="45.86278" lon="4.85421">
        <ele>256</ele>
        <time>2011-06-02T09:36:21Z</time>
      </trkpt>
      <trkpt lat="45.86279" lon="4.85422">
        <ele>256</ele>
        <time>2011-06-02T09:36:22Z</time>
      </trkpt>
      <trkpt lat="45.86281" lon="4.85423">
        <ele>256</ele>
        <time>2011-06-02T09:36:23Z</time>
      </trkpt>
      <trkpt lat="45.86282" lon="4.85424">
        <ele>256</ele>
        <time>2011-06-02T09:36:24Z</time>
      </trkpt>
      <trkpt lat="45.86284" lon="4.85425">
        <ele>257</ele>
        <time>2011-06-02T09:36:25Z</time>
      </trkpt>
      <trkpt lat="45.86286" lon="4.85426">
        <ele>258</ele>
        <time>2011-06-02T09:36:26Z</time>
      </trkpt>
      <trkpt lat="45.86288" lon="4.85428">
        <ele>258</ele>
        <time>2011-06-02T09:36:27Z</time>
      </trkpt>
      <trkpt lat="45.8629" lon="4.8543">
        <ele>258</ele>
        <time>2011-06-02T09:36:28Z</time>
      </trkpt>
      <trkpt lat="45.86291" lon="4.85432">
        <ele>258</ele>
        <time>2011-06-02T09:36:29Z</time>
      </trkpt>
      <trkpt lat="45.86292" lon="4.85434">
        <ele>258</ele>
        <time>2011-06-02T09:36:30Z</time>
      </trkpt>
      <trkpt lat="45.86293" lon="4.85435">
        <ele>258</ele>
        <time>2011-06-02T09:36:31Z</time>
      </trkpt>
      <trkpt lat="45.86295" lon="4.85437">
        <ele>259</ele>
        <time>2011-06-02T09:36:32Z</time>
      </trkpt>
      <trkpt lat="45.86296" lon="4.85438">
        <ele>260</ele>
        <time>2011-06-02T09:36:33Z</time>
      </trkpt>
      <trkpt lat="45.86298" lon="4.85439">
        <ele>261</ele>
        <time>2011-06-02T09:36:34Z</time>
      </trkpt>
      <trkpt lat="45.863" lon="4.85441">
        <ele>262</ele>
        <time>2011-06-02T09:36:36Z</time>
      </trkpt>
      <trkpt lat="45.86301" lon="4.85443">
        <ele>263</ele>
        <time>2011-06-02T09:36:37Z</time>
      </trkpt>
      <trkpt lat="45.86302" lon="4.85446">
        <ele>264</ele>
        <time>2011-06-02T09:36:38Z</time>
      </trkpt>
      <trkpt lat="45.86303" lon="4.85448">
        <ele>264</ele>
        <time>2011-06-02T09:36:39Z</time>
      </trkpt>
      <trkpt lat="45.86304" lon="4.85451">
        <ele>265</ele>
        <time>2011-06-02T09:36:40Z</time>
      </trkpt>
      <trkpt lat="45.86305" lon="4.85453">
        <ele>265</ele>
        <time>2011-06-02T09:36:41Z</time>
      </trkpt>
      <trkpt lat="45.86306" lon="4.85455">
        <ele>265</ele>
        <time>2011-06-02T09:36:42Z</time>
      </trkpt>
      <trkpt lat="45.86308" lon="4.85458">
        <ele>266</ele>
        <time>2011-06-02T09:36:43Z</time>
      </trkpt>
      <trkpt lat="45.8631" lon="4.8546">
        <ele>266</ele>
        <time>2011-06-02T09:36:44Z</time>
      </trkpt>
      <trkpt lat="45.86311" lon="4.85462">
        <ele>266</ele>
        <time>2011-06-02T09:36:45Z</time>
      </trkpt>
      <trkpt lat="45.86312" lon="4.85464">
        <ele>267</ele>
        <time>2011-06-02T09:36:46Z</time>
      </trkpt>
      <trkpt lat="45.86313" lon="4.85467">
        <ele>267</ele>
        <time>2011-06-02T09:36:47Z</time>
      </trkpt>
      <trkpt lat="45.86314" lon="4.8547">
        <ele>267</ele>
        <time>2011-06-02T09:36:48Z</time>
      </trkpt>
      <trkpt lat="45.86314" lon="4.85471">
        <ele>267</ele>
        <time>2011-06-02T09:36:49Z</time>
      </trkpt>
      <trkpt lat="45.86315" lon="4.85474">
        <ele>268</ele>
        <time>2011-06-02T09:36:50Z</time>
      </trkpt>
      <trkpt lat="45.86316" lon="4.85476">
        <ele>268</ele>
        <time>2011-06-02T09:36:51Z</time>
      </trkpt>
      <trkpt lat="45.86317" lon="4.85479">
        <ele>268</ele>
        <time>2011-06-02T09:36:52Z</time>
      </trkpt>
      <trkpt lat="45.86318" lon="4.85481">
        <ele>268</ele>
        <time>2011-06-02T09:36:53Z</time>
      </trkpt>
      <trkpt lat="45.86319" lon="4.85483">
        <ele>268</ele>
        <time>2011-06-02T09:36:54Z</time>
      </trkpt>
      <trkpt lat="45.86319" lon="4.85486">
        <ele>268</ele>
        <time>2011-06-02T09:36:55Z</time>
      </trkpt>
      <trkpt lat="45.86319" lon="4.85488">
        <ele>268</ele>
        <time>2011-06-02T09:36:56Z</time>
      </trkpt>
      <trkpt lat="45.86319" lon="4.85491">
        <ele>268</ele>
        <time>2011-06-02T09:36:57Z</time>
      </trkpt>
      <trkpt lat="45.8632" lon="4.85493">
        <ele>268</ele>
        <time>2011-06-02T09:36:58Z</time>
      </trkpt>
      <trkpt lat="45.86321" lon="4.85496">
        <ele>268</ele>
        <time>2011-06-02T09:36:59Z</time>
      </trkpt>
      <trkpt lat="45.86322" lon="4.85499">
        <ele>268</ele>
        <time>2011-06-02T09:37:00Z</time>
      </trkpt>
      <trkpt lat="45.86322" lon="4.85502">
        <ele>268</ele>
        <time>2011-06-02T09:37:01Z</time>
      </trkpt>
      <trkpt lat="45.86324" lon="4.85506">
        <ele>268</ele>
        <time>2011-06-02T09:37:02Z</time>
      </trkpt>
      <trkpt lat="45.86325" lon="4.8551">
        <ele>268</ele>
        <time>2011-06-02T09:37:03Z</time>
      </trkpt>
      <trkpt lat="45.86327" lon="4.85514">
        <ele>268</ele>
        <time>2011-06-02T09:37:04Z</time>
      </trkpt>
      <trkpt lat="45.86328" lon="4.85517">
        <ele>268</ele>
        <time>2011-06-02T09:37:05Z</time>
      </trkpt>
      <trkpt lat="45.86328" lon="4.85519">
        <ele>268</ele>
        <time>2011-06-02T09:37:06Z</time>
      </trkpt>
      <trkpt lat="45.86329" lon="4.85522">
        <ele>268</ele>
        <time>2011-06-02T09:37:07Z</time>
      </trkpt>
      <trkpt lat="45.8633" lon="4.85526">
        <ele>268</ele>
        <time>2011-06-02T09:37:08Z</time>
      </trkpt>
      <trkpt lat="45.86331" lon="4.85529">
        <ele>268</ele>
        <time>2011-06-02T09:37:09Z</time>
      </trkpt>
      <trkpt lat="45.86331" lon="4.85533">
        <ele>268</ele>
        <time>2011-06-02T09:37:10Z</time>
      </trkpt>
      <trkpt lat="45.86332" lon="4.85536">
        <ele>268</ele>
        <time>2011-06-02T09:37:11Z</time>
      </trkpt>
      <trkpt lat="45.86332" lon="4.85538">
        <ele>268</ele>
        <time>2011-06-02T09:37:12Z</time>
      </trkpt>
      <trkpt lat="45.86332" lon="4.85542">
        <ele>269</ele>
        <time>2011-06-02T09:37:13Z</time>
      </trkpt>
      <trkpt lat="45.86332" lon="4.85544">
        <ele>269</ele>
        <time>2011-06-02T09:37:14Z</time>
      </trkpt>
      <trkpt lat="45.86332" lon="4.85547">
        <ele>269</ele>
        <time>2011-06-02T09:37:15Z</time>
      </trkpt>
      <trkpt lat="45.86333" lon="4.85549">
        <ele>269</ele>
        <time>2011-06-02T09:37:16Z</time>
      </trkpt>
      <trkpt lat="45.86333" lon="4.85553">
        <ele>269</ele>
        <time>2011-06-02T09:37:17Z</time>
      </trkpt>
      <trkpt lat="45.86333" lon="4.85555">
        <ele>269</ele>
        <time>2011-06-02T09:37:18Z</time>
      </trkpt>
      <trkpt lat="45.86333" lon="4.85558">
        <ele>269</ele>
        <time>2011-06-02T09:37:19Z</time>
      </trkpt>
      <trkpt lat="45.86334" lon="4.85562">
        <ele>269</ele>
        <time>2011-06-02T09:37:20Z</time>
      </trkpt>
      <trkpt lat="45.86334" lon="4.85565">
        <ele>269</ele>
        <time>2011-06-02T09:37:21Z</time>
      </trkpt>
      <trkpt lat="45.86335" lon="4.85569">
        <ele>270</ele>
        <time>2011-06-02T09:37:22Z</time>
      </trkpt>
      <trkpt lat="45.86335" lon="4.85572">
        <ele>270</ele>
        <time>2011-06-02T09:37:23Z</time>
      </trkpt>
      <trkpt lat="45.86335" lon="4.85574">
        <ele>270</ele>
        <time>2011-06-02T09:37:24Z</time>
      </trkpt>
      <trkpt lat="45.86336" lon="4.85578">
        <ele>270</ele>
        <time>2011-06-02T09:37:25Z</time>
      </trkpt>
      <trkpt lat="45.86337" lon="4.85582">
        <ele>270</ele>
        <time>2011-06-02T09:37:26Z</time>
      </trkpt>
      <trkpt lat="45.86338" lon="4.85585">
        <ele>271</ele>
        <time>2011-06-02T09:37:27Z</time>
      </trkpt>
      <trkpt lat="45.86339" lon="4.85588">
        <ele>271</ele>
        <time>2011-06-02T09:37:28Z</time>
      </trkpt>
      <trkpt lat="45.86339" lon="4.85591">
        <ele>271</ele>
        <time>2011-06-02T09:37:29Z</time>
      </trkpt>
      <trkpt lat="45.86339" lon="4.85594">
        <ele>271</ele>
        <time>2011-06-02T09:37:30Z</time>
      </trkpt>
      <trkpt lat="45.8634" lon="4.85597">
        <ele>271</ele>
        <time>2011-06-02T09:37:31Z</time>
      </trkpt>
      <trkpt lat="45.8634" lon="4.856">
        <ele>271</ele>
        <time>2011-06-02T09:37:32Z</time>
      </trkpt>
      <trkpt lat="45.86341" lon="4.85602">
        <ele>271</ele>
        <time>2011-06-02T09:37:33Z</time>
      </trkpt>
      <trkpt lat="45.86342" lon="4.85606">
        <ele>271</ele>
        <time>2011-06-02T09:37:34Z</time>
      </trkpt>
      <trkpt lat="45.86343" lon="4.85609">
        <ele>271</ele>
        <time>2011-06-02T09:37:35Z</time>
      </trkpt>
      <trkpt lat="45.86344" lon="4.85613">
        <ele>271</ele>
        <time>2011-06-02T09:37:36Z</time>
      </trkpt>
      <trkpt lat="45.86344" lon="4.85616">
        <ele>271</ele>
        <time>2011-06-02T09:37:37Z</time>
      </trkpt>
      <trkpt lat="45.86344" lon="4.8562">
        <ele>271</ele>
        <time>2011-06-02T09:37:38Z</time>
      </trkpt>
      <trkpt lat="45.86344" lon="4.85624">
        <ele>270</ele>
        <time>2011-06-02T09:37:39Z</time>
      </trkpt>
      <trkpt lat="45.86344" lon="4.85628">
        <ele>270</ele>
        <time>2011-06-02T09:37:40Z</time>
      </trkpt>
      <trkpt lat="45.86344" lon="4.85632">
        <ele>269</ele>
        <time>2011-06-02T09:37:41Z</time>
      </trkpt>
      <trkpt lat="45.86345" lon="4.85635">
        <ele>268</ele>
        <time>2011-06-02T09:37:42Z</time>
      </trkpt>
      <trkpt lat="45.86345" lon="4.85638">
        <ele>267</ele>
        <time>2011-06-02T09:37:43Z</time>
      </trkpt>
      <trkpt lat="45.86346" lon="4.8564">
        <ele>267</ele>
        <time>2011-06-02T09:37:44Z</time>
      </trkpt>
      <trkpt lat="45.86346" lon="4.85643">
        <ele>266</ele>
        <time>2011-06-02T09:37:45Z</time>
      </trkpt>
      <trkpt lat="45.86346" lon="4.85647">
        <ele>266</ele>
        <time>2011-06-02T09:37:46Z</time>
      </trkpt>
      <trkpt lat="45.86346" lon="4.8565">
        <ele>266</ele>
        <time>2011-06-02T09:37:47Z</time>
      </trkpt>
      <trkpt lat="45.86346" lon="4.85653">
        <ele>266</ele>
        <time>2011-06-02T09:37:48Z</time>
      </trkpt>
      <trkpt lat="45.86346" lon="4.85656">
        <ele>266</ele>
        <time>2011-06-02T09:37:49Z</time>
      </trkpt>
      <trkpt lat="45.86346" lon="4.85659">
        <ele>266</ele>
        <time>2011-06-02T09:37:50Z</time>
      </trkpt>
      <trkpt lat="45.86346" lon="4.85663">
        <ele>266</ele>
        <time>2011-06-02T09:37:51Z</time>
      </trkpt>
      <trkpt lat="45.86346" lon="4.85666">
        <ele>266</ele>
        <time>2011-06-02T09:37:52Z</time>
      </trkpt>
      <trkpt lat="45.86345" lon="4.85669">
        <ele>266</ele>
        <time>2011-06-02T09:37:53Z</time>
      </trkpt>
      <trkpt lat="45.86345" lon="4.85672">
        <ele>266</ele>
        <time>2011-06-02T09:37:54Z</time>
      </trkpt>
      <trkpt lat="45.86345" lon="4.85675">
        <ele>266</ele>
        <time>2011-06-02T09:37:55Z</time>
      </trkpt>
      <trkpt lat="45.86345" lon="4.85679">
        <ele>266</ele>
        <time>2011-06-02T09:37:56Z</time>
      </trkpt>
      <trkpt lat="45.86345" lon="4.85683">
        <ele>266</ele>
        <time>2011-06-02T09:37:57Z</time>
      </trkpt>
      <trkpt lat="45.86345" lon="4.85686">
        <ele>266</ele>
        <time>2011-06-02T09:37:58Z</time>
      </trkpt>
      <trkpt lat="45.86345" lon="4.85689">
        <ele>266</ele>
        <time>2011-06-02T09:37:59Z</time>
      </trkpt>
      <trkpt lat="45.86345" lon="4.85693">
        <ele>266</ele>
        <time>2011-06-02T09:38:00Z</time>
      </trkpt>
      <trkpt lat="45.86345" lon="4.85696">
        <ele>266</ele>
        <time>2011-06-02T09:38:01Z</time>
      </trkpt>
      <trkpt lat="45.86344" lon="4.857">
        <ele>266</ele>
        <time>2011-06-02T09:38:02Z</time>
      </trkpt>
      <trkpt lat="45.86344" lon="4.85703">
        <ele>266</ele>
        <time>2011-06-02T09:38:03Z</time>
      </trkpt>
      <trkpt lat="45.86343" lon="4.85706">
        <ele>266</ele>
        <time>2011-06-02T09:38:04Z</time>
      </trkpt>
      <trkpt lat="45.86343" lon="4.85708">
        <ele>266</ele>
        <time>2011-06-02T09:38:05Z</time>
      </trkpt>
      <trkpt lat="45.86343" lon="4.85711">
        <ele>266</ele>
        <time>2011-06-02T09:38:06Z</time>
      </trkpt>
      <trkpt lat="45.86343" lon="4.85713">
        <ele>266</ele>
        <time>2011-06-02T09:38:07Z</time>
      </trkpt>
      <trkpt lat="45.86343" lon="4.85716">
        <ele>266</ele>
        <time>2011-06-02T09:38:08Z</time>
      </trkpt>
      <trkpt lat="45.86342" lon="4.85719">
        <ele>266</ele>
        <time>2011-06-02T09:38:09Z</time>
      </trkpt>
      <trkpt lat="45.86343" lon="4.85722">
        <ele>266</ele>
        <time>2011-06-02T09:38:10Z</time>
      </trkpt>
      <trkpt lat="45.86343" lon="4.85725">
        <ele>266</ele>
        <time>2011-06-02T09:38:11Z</time>
      </trkpt>
      <trkpt lat="45.86343" lon="4.85728">
        <ele>266</ele>
        <time>2011-06-02T09:38:12Z</time>
      </trkpt>
      <trkpt lat="45.86342" lon="4.8573">
        <ele>266</ele>
        <time>2011-06-02T09:38:13Z</time>
      </trkpt>
      <trkpt lat="45.86342" lon="4.85733">
        <ele>266</ele>
        <time>2011-06-02T09:38:14Z</time>
      </trkpt>
      <trkpt lat="45.86343" lon="4.85735">
        <ele>266</ele>
        <time>2011-06-02T09:38:15Z</time>
      </trkpt>
      <trkpt lat="45.86343" lon="4.85738">
        <ele>266</ele>
        <time>2011-06-02T09:38:16Z</time>
      </trkpt>
      <trkpt lat="45.86344" lon="4.85741">
        <ele>267</ele>
        <time>2011-06-02T09:38:17Z</time>
      </trkpt>
      <trkpt lat="45.86344" lon="4.85744">
        <ele>267</ele>
        <time>2011-06-02T09:38:18Z</time>
      </trkpt>
      <trkpt lat="45.86344" lon="4.85746">
        <ele>267</ele>
        <time>2011-06-02T09:38:19Z</time>
      </trkpt>
      <trkpt lat="45.86344" lon="4.85749">
        <ele>267</ele>
        <time>2011-06-02T09:38:20Z</time>
      </trkpt>
      <trkpt lat="45.86344" lon="4.8575">
        <ele>267</ele>
        <time>2011-06-02T09:38:22Z</time>
      </trkpt>
      <trkpt lat="45.86343" lon="4.85752">
        <ele>266</ele>
        <time>2011-06-02T09:38:30Z</time>
      </trkpt>
      <trkpt lat="45.86345" lon="4.85752">
        <ele>263</ele>
        <time>2011-06-02T09:38:34Z</time>
      </trkpt>
      <trkpt lat="45.86346" lon="4.85752">
        <ele>262</ele>
        <time>2011-06-02T09:38:36Z</time>
      </trkpt>
      <trkpt lat="45.86347" lon="4.85752">
        <ele>261</ele>
        <time>2011-06-02T09:38:39Z</time>
      </trkpt>
      <trkpt lat="45.86347" lon="4.85754">
        <ele>261</ele>
        <time>2011-06-02T09:38:55Z</time>
      </trkpt>
      <trkpt lat="45.86348" lon="4.85755">
        <ele>261</ele>
        <time>2011-06-02T09:39:05Z</time>
      </trkpt>
      <trkpt lat="45.86346" lon="4.85756">
        <ele>261</ele>
        <time>2011-06-02T09:39:31Z</time>
      </trkpt>
      <trkpt lat="45.86345" lon="4.85756">
        <ele>261</ele>
        <time>2011-06-02T09:39:55Z</time>
      </trkpt>
      <trkpt lat="45.86345" lon="4.85755">
        <ele>261</ele>
        <time>2011-06-02T09:40:08Z</time>
      </trkpt>
      <trkpt lat="45.86344" lon="4.85756">
        <ele>262</ele>
        <time>2011-06-02T09:40:14Z</time>
      </trkpt>
      <trkpt lat="45.86344" lon="4.85758">
        <ele>263</ele>
        <time>2011-06-02T09:40:15Z</time>
      </trkpt>
      <trkpt lat="45.86344" lon="4.8576">
        <ele>264</ele>
        <time>2011-06-02T09:40:16Z</time>
      </trkpt>
      <trkpt lat="45.86343" lon="4.85763">
        <ele>265</ele>
        <time>2011-06-02T09:40:17Z</time>
      </trkpt>
      <trkpt lat="45.86344" lon="4.85765">
        <ele>266</ele>
        <time>2011-06-02T09:40:18Z</time>
      </trkpt>
      <trkpt lat="45.86344" lon="4.85768">
        <ele>266</ele>
        <time>2011-06-02T09:40:19Z</time>
      </trkpt>
      <trkpt lat="45.86345" lon="4.85771">
        <ele>266</ele>
        <time>2011-06-02T09:40:20Z</time>
      </trkpt>
      <trkpt lat="45.86345" lon="4.85774">
        <ele>266</ele>
        <time>2011-06-02T09:40:21Z</time>
      </trkpt>
      <trkpt lat="45.86345" lon="4.85777">
        <ele>266</ele>
        <time>2011-06-02T09:40:22Z</time>
      </trkpt>
      <trkpt lat="45.86345" lon="4.85781">
        <ele>266</ele>
        <time>2011-06-02T09:40:23Z</time>
      </trkpt>
      <trkpt lat="45.86345" lon="4.85785">
        <ele>266</ele>
        <time>2011-06-02T09:40:24Z</time>
      </trkpt>
      <trkpt lat="45.86345" lon="4.85789">
        <ele>267</ele>
        <time>2011-06-02T09:40:25Z</time>
      </trkpt>
      <trkpt lat="45.86345" lon="4.85793">
        <ele>268</ele>
        <time>2011-06-02T09:40:26Z</time>
      </trkpt>
      <trkpt lat="45.86346" lon="4.85797">
        <ele>268</ele>
        <time>2011-06-02T09:40:27Z</time>
      </trkpt>
      <trkpt lat="45.86346" lon="4.85801">
        <ele>268</ele>
        <time>2011-06-02T09:40:28Z</time>
      </trkpt>
      <trkpt lat="45.86346" lon="4.85806">
        <ele>268</ele>
        <time>2011-06-02T09:40:29Z</time>
      </trkpt>
      <trkpt lat="45.86346" lon="4.85811">
        <ele>268</ele>
        <time>2011-06-02T09:40:30Z</time>
      </trkpt>
      <trkpt lat="45.86346" lon="4.85815">
        <ele>268</ele>
        <time>2011-06-02T09:40:31Z</time>
      </trkpt>
      <trkpt lat="45.86346" lon="4.85819">
        <ele>268</ele>
        <time>2011-06-02T09:40:32Z</time>
      </trkpt>
      <trkpt lat="45.86346" lon="4.85823">
        <ele>268</ele>
        <time>2011-06-02T09:40:33Z</time>
      </trkpt>
      <trkpt lat="45.86346" lon="4.85827">
        <ele>268</ele>
        <time>2011-06-02T09:40:34Z</time>
      </trkpt>
      <trkpt lat="45.86345" lon="4.85831">
        <ele>268</ele>
        <time>2011-06-02T09:40:35Z</time>
      </trkpt>
      <trkpt lat="45.86345" lon="4.85835">
        <ele>269</ele>
        <time>2011-06-02T09:40:36Z</time>
      </trkpt>
      <trkpt lat="45.86345" lon="4.8584">
        <ele>269</ele>
        <time>2011-06-02T09:40:37Z</time>
      </trkpt>
      <trkpt lat="45.86345" lon="4.85844">
        <ele>269</ele>
        <time>2011-06-02T09:40:38Z</time>
      </trkpt>
      <trkpt lat="45.86344" lon="4.85848">
        <ele>269</ele>
        <time>2011-06-02T09:40:39Z</time>
      </trkpt>
      <trkpt lat="45.86344" lon="4.85851">
        <ele>269</ele>
        <time>2011-06-02T09:40:40Z</time>
      </trkpt>
      <trkpt lat="45.86343" lon="4.85855">
        <ele>269</ele>
        <time>2011-06-02T09:40:41Z</time>
      </trkpt>
      <trkpt lat="45.86343" lon="4.85859">
        <ele>269</ele>
        <time>2011-06-02T09:40:42Z</time>
      </trkpt>
      <trkpt lat="45.86343" lon="4.85862">
        <ele>269</ele>
        <time>2011-06-02T09:40:43Z</time>
      </trkpt>
      <trkpt lat="45.86344" lon="4.85866">
        <ele>269</ele>
        <time>2011-06-02T09:40:44Z</time>
      </trkpt>
      <trkpt lat="45.86346" lon="4.8587">
        <ele>269</ele>
        <time>2011-06-02T09:40:45Z</time>
      </trkpt>
      <trkpt lat="45.86348" lon="4.85873">
        <ele>269</ele>
        <time>2011-06-02T09:40:46Z</time>
      </trkpt>
      <trkpt lat="45.8635" lon="4.85876">
        <ele>269</ele>
        <time>2011-06-02T09:40:47Z</time>
      </trkpt>
      <trkpt lat="45.86352" lon="4.85878">
        <ele>269</ele>
        <time>2011-06-02T09:40:48Z</time>
      </trkpt>
      <trkpt lat="45.86355" lon="4.85879">
        <ele>269</ele>
        <time>2011-06-02T09:40:49Z</time>
      </trkpt>
      <trkpt lat="45.86357" lon="4.85881">
        <ele>269</ele>
        <time>2011-06-02T09:40:50Z</time>
      </trkpt>
      <trkpt lat="45.8636" lon="4.85883">
        <ele>269</ele>
        <time>2011-06-02T09:40:51Z</time>
      </trkpt>
      <trkpt lat="45.86363" lon="4.85884">
        <ele>269</ele>
        <time>2011-06-02T09:40:52Z</time>
      </trkpt>
      <trkpt lat="45.86365" lon="4.85886">
        <ele>269</ele>
        <time>2011-06-02T09:40:53Z</time>
      </trkpt>
      <trkpt lat="45.86368" lon="4.85887">
        <ele>269</ele>
        <time>2011-06-02T09:40:54Z</time>
      </trkpt>
      <trkpt lat="45.8637" lon="4.85889">
        <ele>269</ele>
        <time>2011-06-02T09:40:55Z</time>
      </trkpt>
      <trkpt lat="45.86373" lon="4.8589">
        <ele>269</ele>
        <time>2011-06-02T09:40:56Z</time>
      </trkpt>
      <trkpt lat="45.86376" lon="4.85891">
        <ele>269</ele>
        <time>2011-06-02T09:40:57Z</time>
      </trkpt>
      <trkpt lat="45.86379" lon="4.85892">
        <ele>269</ele>
        <time>2011-06-02T09:40:58Z</time>
      </trkpt>
      <trkpt lat="45.86381" lon="4.85893">
        <ele>269</ele>
        <time>2011-06-02T09:40:59Z</time>
      </trkpt>
      <trkpt lat="45.86384" lon="4.85894">
        <ele>269</ele>
        <time>2011-06-02T09:41:00Z</time>
      </trkpt>
      <trkpt lat="45.86386" lon="4.85896">
        <ele>269</ele>
        <time>2011-06-02T09:41:01Z</time>
      </trkpt>
      <trkpt lat="45.86388" lon="4.85897">
        <ele>269</ele>
        <time>2011-06-02T09:41:02Z</time>
      </trkpt>
      <trkpt lat="45.86391" lon="4.85898">
        <ele>269</ele>
        <time>2011-06-02T09:41:03Z</time>
      </trkpt>
      <trkpt lat="45.86394" lon="4.85899">
        <ele>269</ele>
        <time>2011-06-02T09:41:04Z</time>
      </trkpt>
      <trkpt lat="45.86397" lon="4.859">
        <ele>269</ele>
        <time>2011-06-02T09:41:05Z</time>
      </trkpt>
      <trkpt lat="45.86399" lon="4.85901">
        <ele>269</ele>
        <time>2011-06-02T09:41:06Z</time>
      </trkpt>
      <trkpt lat="45.86402" lon="4.85903">
        <ele>269</ele>
        <time>2011-06-02T09:41:07Z</time>
      </trkpt>
      <trkpt lat="45.86404" lon="4.85904">
        <ele>269</ele>
        <time>2011-06-02T09:41:08Z</time>
      </trkpt>
      <trkpt lat="45.86407" lon="4.85906">
        <ele>269</ele>
        <time>2011-06-02T09:41:09Z</time>
      </trkpt>
      <trkpt lat="45.8641" lon="4.85907">
        <ele>269</ele>
        <time>2011-06-02T09:41:10Z</time>
      </trkpt>
      <trkpt lat="45.86412" lon="4.85908">
        <ele>269</ele>
        <time>2011-06-02T09:41:11Z</time>
      </trkpt>
      <trkpt lat="45.86414" lon="4.85909">
        <ele>269</ele>
        <time>2011-06-02T09:41:12Z</time>
      </trkpt>
      <trkpt lat="45.86417" lon="4.85911">
        <ele>269</ele>
        <time>2011-06-02T09:41:13Z</time>
      </trkpt>
      <trkpt lat="45.86419" lon="4.85912">
        <ele>269</ele>
        <time>2011-06-02T09:41:14Z</time>
      </trkpt>
      <trkpt lat="45.8642" lon="4.85912">
        <ele>269</ele>
        <time>2011-06-02T09:41:15Z</time>
      </trkpt>
      <trkpt lat="45.86423" lon="4.85913">
        <ele>270</ele>
        <time>2011-06-02T09:41:16Z</time>
      </trkpt>
      <trkpt lat="45.86425" lon="4.85914">
        <ele>270</ele>
        <time>2011-06-02T09:41:17Z</time>
      </trkpt>
      <trkpt lat="45.86427" lon="4.85915">
        <ele>270</ele>
        <time>2011-06-02T09:41:18Z</time>
      </trkpt>
      <trkpt lat="45.8643" lon="4.85917">
        <ele>270</ele>
        <time>2011-06-02T09:41:19Z</time>
      </trkpt>
      <trkpt lat="45.86433" lon="4.85918">
        <ele>270</ele>
        <time>2011-06-02T09:41:20Z</time>
      </trkpt>
      <trkpt lat="45.86435" lon="4.85918">
        <ele>270</ele>
        <time>2011-06-02T09:41:21Z</time>
      </trkpt>
      <trkpt lat="45.86437" lon="4.85919">
        <ele>270</ele>
        <time>2011-06-02T09:41:22Z</time>
      </trkpt>
      <trkpt lat="45.8644" lon="4.8592">
        <ele>270</ele>
        <time>2011-06-02T09:41:23Z</time>
      </trkpt>
      <trkpt lat="45.86442" lon="4.8592">
        <ele>270</ele>
        <time>2011-06-02T09:41:24Z</time>
      </trkpt>
      <trkpt lat="45.86444" lon="4.8592">
        <ele>270</ele>
        <time>2011-06-02T09:41:25Z</time>
      </trkpt>
      <trkpt lat="45.86446" lon="4.85921">
        <ele>271</ele>
        <time>2011-06-02T09:41:26Z</time>
      </trkpt>
      <trkpt lat="45.86447" lon="4.85922">
        <ele>271</ele>
        <time>2011-06-02T09:41:27Z</time>
      </trkpt>
      <trkpt lat="45.86449" lon="4.85922">
        <ele>271</ele>
        <time>2011-06-02T09:41:28Z</time>
      </trkpt>
      <trkpt lat="45.86451" lon="4.85923">
        <ele>271</ele>
        <time>2011-06-02T09:41:29Z</time>
      </trkpt>
      <trkpt lat="45.86453" lon="4.85924">
        <ele>271</ele>
        <time>2011-06-02T09:41:30Z</time>
      </trkpt>
      <trkpt lat="45.86455" lon="4.85924">
        <ele>272</ele>
        <time>2011-06-02T09:41:31Z</time>
      </trkpt>
      <trkpt lat="45.86457" lon="4.85925">
        <ele>272</ele>
        <time>2011-06-02T09:41:32Z</time>
      </trkpt>
      <trkpt lat="45.86459" lon="4.85926">
        <ele>273</ele>
        <time>2011-06-02T09:41:33Z</time>
      </trkpt>
      <trkpt lat="45.86462" lon="4.85926">
        <ele>273</ele>
        <time>2011-06-02T09:41:34Z</time>
      </trkpt>
      <trkpt lat="45.86464" lon="4.85927">
        <ele>274</ele>
        <time>2011-06-02T09:41:35Z</time>
      </trkpt>
      <trkpt lat="45.86465" lon="4.85927">
        <ele>274</ele>
        <time>2011-06-02T09:41:36Z</time>
      </trkpt>
      <trkpt lat="45.86467" lon="4.85928">
        <ele>275</ele>
        <time>2011-06-02T09:41:37Z</time>
      </trkpt>
      <trkpt lat="45.86468" lon="4.85928">
        <ele>276</ele>
        <time>2011-06-02T09:41:38Z</time>
      </trkpt>
      <trkpt lat="45.8647" lon="4.85929">
        <ele>277</ele>
        <time>2011-06-02T09:41:39Z</time>
      </trkpt>
      <trkpt lat="45.86473" lon="4.85931">
        <ele>278</ele>
        <time>2011-06-02T09:41:40Z</time>
      </trkpt>
      <trkpt lat="45.86475" lon="4.85933">
        <ele>278</ele>
        <time>2011-06-02T09:41:41Z</time>
      </trkpt>
      <trkpt lat="45.86478" lon="4.85934">
        <ele>278</ele>
        <time>2011-06-02T09:41:42Z</time>
      </trkpt>
      <trkpt lat="45.8648" lon="4.85936">
        <ele>278</ele>
        <time>2011-06-02T09:41:43Z</time>
      </trkpt>
      <trkpt lat="45.86483" lon="4.85938">
        <ele>278</ele>
        <time>2011-06-02T09:41:44Z</time>
      </trkpt>
      <trkpt lat="45.86485" lon="4.85939">
        <ele>278</ele>
        <time>2011-06-02T09:41:45Z</time>
      </trkpt>
      <trkpt lat="45.86488" lon="4.8594">
        <ele>278</ele>
        <time>2011-06-02T09:41:46Z</time>
      </trkpt>
      <trkpt lat="45.8649" lon="4.85941">
        <ele>278</ele>
        <time>2011-06-02T09:41:47Z</time>
      </trkpt>
      <trkpt lat="45.86492" lon="4.85942">
        <ele>278</ele>
        <time>2011-06-02T09:41:48Z</time>
      </trkpt>
      <trkpt lat="45.86494" lon="4.85943">
        <ele>278</ele>
        <time>2011-06-02T09:41:49Z</time>
      </trkpt>
      <trkpt lat="45.86496" lon="4.85944">
        <ele>278</ele>
        <time>2011-06-02T09:41:50Z</time>
      </trkpt>
      <trkpt lat="45.86499" lon="4.85946">
        <ele>278</ele>
        <time>2011-06-02T09:41:51Z</time>
      </trkpt>
      <trkpt lat="45.86501" lon="4.85947">
        <ele>278</ele>
        <time>2011-06-02T09:41:52Z</time>
      </trkpt>
      <trkpt lat="45.86503" lon="4.85948">
        <ele>278</ele>
        <time>2011-06-02T09:41:53Z</time>
      </trkpt>
      <trkpt lat="45.86506" lon="4.85949">
        <ele>278</ele>
        <time>2011-06-02T09:41:54Z</time>
      </trkpt>
      <trkpt lat="45.86508" lon="4.85951">
        <ele>278</ele>
        <time>2011-06-02T09:41:55Z</time>
      </trkpt>
      <trkpt lat="45.8651" lon="4.85953">
        <ele>278</ele>
        <time>2011-06-02T09:41:56Z</time>
      </trkpt>
      <trkpt lat="45.86513" lon="4.85954">
        <ele>278</ele>
        <time>2011-06-02T09:41:57Z</time>
      </trkpt>
      <trkpt lat="45.86516" lon="4.85956">
        <ele>278</ele>
        <time>2011-06-02T09:41:58Z</time>
      </trkpt>
      <trkpt lat="45.86518" lon="4.85957">
        <ele>278</ele>
        <time>2011-06-02T09:41:59Z</time>
      </trkpt>
      <trkpt lat="45.86521" lon="4.85959">
        <ele>278</ele>
        <time>2011-06-02T09:42:00Z</time>
      </trkpt>
      <trkpt lat="45.86524" lon="4.85961">
        <ele>278</ele>
        <time>2011-06-02T09:42:01Z</time>
      </trkpt>
      <trkpt lat="45.86527" lon="4.85963">
        <ele>278</ele>
        <time>2011-06-02T09:42:02Z</time>
      </trkpt>
      <trkpt lat="45.8653" lon="4.85965">
        <ele>278</ele>
        <time>2011-06-02T09:42:03Z</time>
      </trkpt>
      <trkpt lat="45.86533" lon="4.85968">
        <ele>278</ele>
        <time>2011-06-02T09:42:04Z</time>
      </trkpt>
      <trkpt lat="45.86536" lon="4.8597">
        <ele>279</ele>
        <time>2011-06-02T09:42:05Z</time>
      </trkpt>
      <trkpt lat="45.86539" lon="4.85973">
        <ele>279</ele>
        <time>2011-06-02T09:42:06Z</time>
      </trkpt>
      <trkpt lat="45.86542" lon="4.85975">
        <ele>279</ele>
        <time>2011-06-02T09:42:07Z</time>
      </trkpt>
      <trkpt lat="45.86545" lon="4.85977">
        <ele>279</ele>
        <time>2011-06-02T09:42:08Z</time>
      </trkpt>
      <trkpt lat="45.86548" lon="4.85979">
        <ele>279</ele>
        <time>2011-06-02T09:42:09Z</time>
      </trkpt>
      <trkpt lat="45.86551" lon="4.85981">
        <ele>279</ele>
        <time>2011-06-02T09:42:10Z</time>
      </trkpt>
      <trkpt lat="45.86555" lon="4.85983">
        <ele>279</ele>
        <time>2011-06-02T09:42:11Z</time>
      </trkpt>
      <trkpt lat="45.86558" lon="4.85985">
        <ele>279</ele>
        <time>2011-06-02T09:42:12Z</time>
      </trkpt>
      <trkpt lat="45.86562" lon="4.85987">
        <ele>279</ele>
        <time>2011-06-02T09:42:13Z</time>
      </trkpt>
      <trkpt lat="45.86565" lon="4.85989">
        <ele>279</ele>
        <time>2011-06-02T09:42:14Z</time>
      </trkpt>
      <trkpt lat="45.86569" lon="4.8599">
        <ele>279</ele>
        <time>2011-06-02T09:42:15Z</time>
      </trkpt>
      <trkpt lat="45.86572" lon="4.85992">
        <ele>279</ele>
        <time>2011-06-02T09:42:16Z</time>
      </trkpt>
      <trkpt lat="45.86575" lon="4.85993">
        <ele>279</ele>
        <time>2011-06-02T09:42:17Z</time>
      </trkpt>
      <trkpt lat="45.86578" lon="4.85994">
        <ele>279</ele>
        <time>2011-06-02T09:42:18Z</time>
      </trkpt>
      <trkpt lat="45.86582" lon="4.85995">
        <ele>279</ele>
        <time>2011-06-02T09:42:19Z</time>
      </trkpt>
      <trkpt lat="45.86585" lon="4.85997">
        <ele>279</ele>
        <time>2011-06-02T09:42:20Z</time>
      </trkpt>
      <trkpt lat="45.86588" lon="4.85998">
        <ele>279</ele>
        <time>2011-06-02T09:42:21Z</time>
      </trkpt>
      <trkpt lat="45.86591" lon="4.85999">
        <ele>279</ele>
        <time>2011-06-02T09:42:22Z</time>
      </trkpt>
      <trkpt lat="45.86594" lon="4.86">
        <ele>279</ele>
        <time>2011-06-02T09:42:23Z</time>
      </trkpt>
      <trkpt lat="45.86597" lon="4.86001">
        <ele>279</ele>
        <time>2011-06-02T09:42:24Z</time>
      </trkpt>
      <trkpt lat="45.866" lon="4.86002">
        <ele>279</ele>
        <time>2011-06-02T09:42:25Z</time>
      </trkpt>
      <trkpt lat="45.86603" lon="4.86003">
        <ele>279</ele>
        <time>2011-06-02T09:42:26Z</time>
      </trkpt>
      <trkpt lat="45.86606" lon="4.86003">
        <ele>279</ele>
        <time>2011-06-02T09:42:27Z</time>
      </trkpt>
      <trkpt lat="45.86609" lon="4.86003">
        <ele>279</ele>
        <time>2011-06-02T09:42:28Z</time>
      </trkpt>
      <trkpt lat="45.86612" lon="4.86003">
        <ele>279</ele>
        <time>2011-06-02T09:42:29Z</time>
      </trkpt>
      <trkpt lat="45.86615" lon="4.86003">
        <ele>279</ele>
        <time>2011-06-02T09:42:30Z</time>
      </trkpt>
      <trkpt lat="45.86619" lon="4.86004">
        <ele>280</ele>
        <time>2011-06-02T09:42:31Z</time>
      </trkpt>
      <trkpt lat="45.86622" lon="4.86004">
        <ele>280</ele>
        <time>2011-06-02T09:42:32Z</time>
      </trkpt>
      <trkpt lat="45.86626" lon="4.86005">
        <ele>280</ele>
        <time>2011-06-02T09:42:33Z</time>
      </trkpt>
      <trkpt lat="45.86629" lon="4.86006">
        <ele>280</ele>
        <time>2011-06-02T09:42:34Z</time>
      </trkpt>
      <trkpt lat="45.86632" lon="4.86007">
        <ele>281</ele>
        <time>2011-06-02T09:42:35Z</time>
      </trkpt>
      <trkpt lat="45.86635" lon="4.86009">
        <ele>281</ele>
        <time>2011-06-02T09:42:36Z</time>
      </trkpt>
      <trkpt lat="45.86638" lon="4.86011">
        <ele>281</ele>
        <time>2011-06-02T09:42:37Z</time>
      </trkpt>
      <trkpt lat="45.86641" lon="4.86012">
        <ele>281</ele>
        <time>2011-06-02T09:42:38Z</time>
      </trkpt>
      <trkpt lat="45.86644" lon="4.86014">
        <ele>281</ele>
        <time>2011-06-02T09:42:39Z</time>
      </trkpt>
      <trkpt lat="45.86647" lon="4.86015">
        <ele>281</ele>
        <time>2011-06-02T09:42:40Z</time>
      </trkpt>
      <trkpt lat="45.86649" lon="4.86017">
        <ele>281</ele>
        <time>2011-06-02T09:42:41Z</time>
      </trkpt>
      <trkpt lat="45.86652" lon="4.86018">
        <ele>281</ele>
        <time>2011-06-02T09:42:42Z</time>
      </trkpt>
      <trkpt lat="45.86655" lon="4.86019">
        <ele>282</ele>
        <time>2011-06-02T09:42:43Z</time>
      </trkpt>
      <trkpt lat="45.86657" lon="4.86021">
        <ele>282</ele>
        <time>2011-06-02T09:42:44Z</time>
      </trkpt>
      <trkpt lat="45.8666" lon="4.86022">
        <ele>282</ele>
        <time>2011-06-02T09:42:45Z</time>
      </trkpt>
      <trkpt lat="45.86663" lon="4.86024">
        <ele>282</ele>
        <time>2011-06-02T09:42:46Z</time>
      </trkpt>
      <trkpt lat="45.86666" lon="4.86025">
        <ele>282</ele>
        <time>2011-06-02T09:42:47Z</time>
      </trkpt>
      <trkpt lat="45.86668" lon="4.86027">
        <ele>282</ele>
        <time>2011-06-02T09:42:48Z</time>
      </trkpt>
      <trkpt lat="45.86671" lon="4.86029">
        <ele>282</ele>
        <time>2011-06-02T09:42:49Z</time>
      </trkpt>
      <trkpt lat="45.86673" lon="4.86031">
        <ele>282</ele>
        <time>2011-06-02T09:42:50Z</time>
      </trkpt>
      <trkpt lat="45.86676" lon="4.86033">
        <ele>282</ele>
        <time>2011-06-02T09:42:51Z</time>
      </trkpt>
      <trkpt lat="45.86678" lon="4.86035">
        <ele>282</ele>
        <time>2011-06-02T09:42:52Z</time>
      </trkpt>
      <trkpt lat="45.86681" lon="4.86037">
        <ele>283</ele>
        <time>2011-06-02T09:42:53Z</time>
      </trkpt>
      <trkpt lat="45.86684" lon="4.86039">
        <ele>283</ele>
        <time>2011-06-02T09:42:54Z</time>
      </trkpt>
      <trkpt lat="45.86686" lon="4.86041">
        <ele>283</ele>
        <time>2011-06-02T09:42:55Z</time>
      </trkpt>
      <trkpt lat="45.86689" lon="4.86043">
        <ele>283</ele>
        <time>2011-06-02T09:42:56Z</time>
      </trkpt>
      <trkpt lat="45.86691" lon="4.86045">
        <ele>283</ele>
        <time>2011-06-02T09:42:57Z</time>
      </trkpt>
      <trkpt lat="45.86693" lon="4.86047">
        <ele>283</ele>
        <time>2011-06-02T09:42:58Z</time>
      </trkpt>
      <trkpt lat="45.86696" lon="4.8605">
        <ele>283</ele>
        <time>2011-06-02T09:42:59Z</time>
      </trkpt>
      <trkpt lat="45.86698" lon="4.86052">
        <ele>283</ele>
        <time>2011-06-02T09:43:00Z</time>
      </trkpt>
      <trkpt lat="45.867" lon="4.86055">
        <ele>283</ele>
        <time>2011-06-02T09:43:01Z</time>
      </trkpt>
      <trkpt lat="45.86703" lon="4.86057">
        <ele>283</ele>
        <time>2011-06-02T09:43:02Z</time>
      </trkpt>
      <trkpt lat="45.86705" lon="4.86059">
        <ele>284</ele>
        <time>2011-06-02T09:43:03Z</time>
      </trkpt>
      <trkpt lat="45.86708" lon="4.86061">
        <ele>284</ele>
        <time>2011-06-02T09:43:04Z</time>
      </trkpt>
      <trkpt lat="45.8671" lon="4.86064">
        <ele>284</ele>
        <time>2011-06-02T09:43:05Z</time>
      </trkpt>
      <trkpt lat="45.86713" lon="4.86066">
        <ele>284</ele>
        <time>2011-06-02T09:43:06Z</time>
      </trkpt>
      <trkpt lat="45.86715" lon="4.86068">
        <ele>284</ele>
        <time>2011-06-02T09:43:07Z</time>
      </trkpt>
      <trkpt lat="45.86718" lon="4.8607">
        <ele>284</ele>
        <time>2011-06-02T09:43:08Z</time>
      </trkpt>
      <trkpt lat="45.8672" lon="4.86072">
        <ele>284</ele>
        <time>2011-06-02T09:43:09Z</time>
      </trkpt>
      <trkpt lat="45.86723" lon="4.86075">
        <ele>285</ele>
        <time>2011-06-02T09:43:10Z</time>
      </trkpt>
      <trkpt lat="45.86725" lon="4.86077">
        <ele>285</ele>
        <time>2011-06-02T09:43:11Z</time>
      </trkpt>
      <trkpt lat="45.86728" lon="4.8608">
        <ele>285</ele>
        <time>2011-06-02T09:43:12Z</time>
      </trkpt>
      <trkpt lat="45.8673" lon="4.86082">
        <ele>285</ele>
        <time>2011-06-02T09:43:13Z</time>
      </trkpt>
      <trkpt lat="45.86733" lon="4.86084">
        <ele>285</ele>
        <time>2011-06-02T09:43:14Z</time>
      </trkpt>
      <trkpt lat="45.86735" lon="4.86085">
        <ele>285</ele>
        <time>2011-06-02T09:43:15Z</time>
      </trkpt>
      <trkpt lat="45.86738" lon="4.86087">
        <ele>285</ele>
        <time>2011-06-02T09:43:16Z</time>
      </trkpt>
      <trkpt lat="45.86741" lon="4.86089">
        <ele>285</ele>
        <time>2011-06-02T09:43:17Z</time>
      </trkpt>
      <trkpt lat="45.86744" lon="4.8609">
        <ele>286</ele>
        <time>2011-06-02T09:43:18Z</time>
      </trkpt>
      <trkpt lat="45.86747" lon="4.86092">
        <ele>286</ele>
        <time>2011-06-02T09:43:19Z</time>
      </trkpt>
      <trkpt lat="45.8675" lon="4.86093">
        <ele>286</ele>
        <time>2011-06-02T09:43:20Z</time>
      </trkpt>
      <trkpt lat="45.86754" lon="4.86095">
        <ele>286</ele>
        <time>2011-06-02T09:43:21Z</time>
      </trkpt>
      <trkpt lat="45.86757" lon="4.86096">
        <ele>286</ele>
        <time>2011-06-02T09:43:22Z</time>
      </trkpt>
      <trkpt lat="45.8676" lon="4.86096">
        <ele>286</ele>
        <time>2011-06-02T09:43:23Z</time>
      </trkpt>
      <trkpt lat="45.86764" lon="4.86097">
        <ele>286</ele>
        <time>2011-06-02T09:43:24Z</time>
      </trkpt>
      <trkpt lat="45.86767" lon="4.86098">
        <ele>286</ele>
        <time>2011-06-02T09:43:25Z</time>
      </trkpt>
      <trkpt lat="45.86771" lon="4.86098">
        <ele>286</ele>
        <time>2011-06-02T09:43:26Z</time>
      </trkpt>
      <trkpt lat="45.86774" lon="4.86098">
        <ele>286</ele>
        <time>2011-06-02T09:43:27Z</time>
      </trkpt>
      <trkpt lat="45.86778" lon="4.86099">
        <ele>287</ele>
        <time>2011-06-02T09:43:28Z</time>
      </trkpt>
      <trkpt lat="45.86782" lon="4.861">
        <ele>287</ele>
        <time>2011-06-02T09:43:29Z</time>
      </trkpt>
      <trkpt lat="45.86786" lon="4.861">
        <ele>287</ele>
        <time>2011-06-02T09:43:30Z</time>
      </trkpt>
      <trkpt lat="45.8679" lon="4.861">
        <ele>287</ele>
        <time>2011-06-02T09:43:31Z</time>
      </trkpt>
      <trkpt lat="45.86794" lon="4.861">
        <ele>287</ele>
        <time>2011-06-02T09:43:32Z</time>
      </trkpt>
      <trkpt lat="45.86798" lon="4.861">
        <ele>287</ele>
        <time>2011-06-02T09:43:33Z</time>
      </trkpt>
      <trkpt lat="45.86802" lon="4.86101">
        <ele>287</ele>
        <time>2011-06-02T09:43:34Z</time>
      </trkpt>
      <trkpt lat="45.86806" lon="4.86101">
        <ele>287</ele>
        <time>2011-06-02T09:43:35Z</time>
      </trkpt>
      <trkpt lat="45.86811" lon="4.86101">
        <ele>287</ele>
        <time>2011-06-02T09:43:36Z</time>
      </trkpt>
      <trkpt lat="45.86815" lon="4.86101">
        <ele>287</ele>
        <time>2011-06-02T09:43:37Z</time>
      </trkpt>
      <trkpt lat="45.86819" lon="4.86101">
        <ele>287</ele>
        <time>2011-06-02T09:43:38Z</time>
      </trkpt>
      <trkpt lat="45.86824" lon="4.86101">
        <ele>287</ele>
        <time>2011-06-02T09:43:39Z</time>
      </trkpt>
      <trkpt lat="45.86828" lon="4.86101">
        <ele>287</ele>
        <time>2011-06-02T09:43:40Z</time>
      </trkpt>
      <trkpt lat="45.86832" lon="4.86101">
        <ele>287</ele>
        <time>2011-06-02T09:43:41Z</time>
      </trkpt>
      <trkpt lat="45.86837" lon="4.86101">
        <ele>287</ele>
        <time>2011-06-02T09:43:42Z</time>
      </trkpt>
      <trkpt lat="45.86841" lon="4.86101">
        <ele>287</ele>
        <time>2011-06-02T09:43:43Z</time>
      </trkpt>
      <trkpt lat="45.86846" lon="4.86101">
        <ele>287</ele>
        <time>2011-06-02T09:43:44Z</time>
      </trkpt>
      <trkpt lat="45.8685" lon="4.86101">
        <ele>287</ele>
        <time>2011-06-02T09:43:45Z</time>
      </trkpt>
      <trkpt lat="45.86854" lon="4.86101">
        <ele>287</ele>
        <time>2011-06-02T09:43:46Z</time>
      </trkpt>
      <trkpt lat="45.86858" lon="4.86101">
        <ele>287</ele>
        <time>2011-06-02T09:43:47Z</time>
      </trkpt>
      <trkpt lat="45.86863" lon="4.86101">
        <ele>287</ele>
        <time>2011-06-02T09:43:48Z</time>
      </trkpt>
      <trkpt lat="45.86867" lon="4.86101">
        <ele>287</ele>
        <time>2011-06-02T09:43:49Z</time>
      </trkpt>
      <trkpt lat="45.86871" lon="4.86101">
        <ele>287</ele>
        <time>2011-06-02T09:43:50Z</time>
      </trkpt>
      <trkpt lat="45.86875" lon="4.86101">
        <ele>287</ele>
        <time>2011-06-02T09:43:51Z</time>
      </trkpt>
      <trkpt lat="45.86879" lon="4.86101">
        <ele>287</ele>
        <time>2011-06-02T09:43:52Z</time>
      </trkpt>
      <trkpt lat="45.86883" lon="4.86101">
        <ele>287</ele>
        <time>2011-06-02T09:43:53Z</time>
      </trkpt>
      <trkpt lat="45.86887" lon="4.86102">
        <ele>287</ele>
        <time>2011-06-02T09:43:54Z</time>
      </trkpt>
      <trkpt lat="45.86891" lon="4.86103">
        <ele>288</ele>
        <time>2011-06-02T09:43:55Z</time>
      </trkpt>
      <trkpt lat="45.86895" lon="4.86105">
        <ele>288</ele>
        <time>2011-06-02T09:43:56Z</time>
      </trkpt>
      <trkpt lat="45.86898" lon="4.86106">
        <ele>288</ele>
        <time>2011-06-02T09:43:57Z</time>
      </trkpt>
      <trkpt lat="45.86902" lon="4.86109">
        <ele>288</ele>
        <time>2011-06-02T09:43:58Z</time>
      </trkpt>
      <trkpt lat="45.86906" lon="4.86111">
        <ele>289</ele>
        <time>2011-06-02T09:43:59Z</time>
      </trkpt>
      <trkpt lat="45.86909" lon="4.86114">
        <ele>289</ele>
        <time>2011-06-02T09:44:00Z</time>
      </trkpt>
      <trkpt lat="45.86913" lon="4.86116">
        <ele>289</ele>
        <time>2011-06-02T09:44:01Z</time>
      </trkpt>
      <trkpt lat="45.86916" lon="4.86119">
        <ele>289</ele>
        <time>2011-06-02T09:44:02Z</time>
      </trkpt>
      <trkpt lat="45.86919" lon="4.86122">
        <ele>289</ele>
        <time>2011-06-02T09:44:03Z</time>
      </trkpt>
      <trkpt lat="45.86923" lon="4.86125">
        <ele>289</ele>
        <time>2011-06-02T09:44:04Z</time>
      </trkpt>
      <trkpt lat="45.86926" lon="4.86128">
        <ele>289</ele>
        <time>2011-06-02T09:44:05Z</time>
      </trkpt>
      <trkpt lat="45.86929" lon="4.86132">
        <ele>289</ele>
        <time>2011-06-02T09:44:06Z</time>
      </trkpt>
      <trkpt lat="45.86931" lon="4.86136">
        <ele>289</ele>
        <time>2011-06-02T09:44:07Z</time>
      </trkpt>
      <trkpt lat="45.86934" lon="4.8614">
        <ele>289</ele>
        <time>2011-06-02T09:44:08Z</time>
      </trkpt>
      <trkpt lat="45.86937" lon="4.86144">
        <ele>289</ele>
        <time>2011-06-02T09:44:09Z</time>
      </trkpt>
      <trkpt lat="45.86939" lon="4.86147">
        <ele>289</ele>
        <time>2011-06-02T09:44:10Z</time>
      </trkpt>
      <trkpt lat="45.86942" lon="4.86152">
        <ele>289</ele>
        <time>2011-06-02T09:44:11Z</time>
      </trkpt>
      <trkpt lat="45.86945" lon="4.86155">
        <ele>289</ele>
        <time>2011-06-02T09:44:12Z</time>
      </trkpt>
      <trkpt lat="45.86947" lon="4.86159">
        <ele>289</ele>
        <time>2011-06-02T09:44:13Z</time>
      </trkpt>
      <trkpt lat="45.8695" lon="4.86163">
        <ele>289</ele>
        <time>2011-06-02T09:44:14Z</time>
      </trkpt>
      <trkpt lat="45.86952" lon="4.86166">
        <ele>289</ele>
        <time>2011-06-02T09:44:15Z</time>
      </trkpt>
      <trkpt lat="45.86955" lon="4.8617">
        <ele>289</ele>
        <time>2011-06-02T09:44:16Z</time>
      </trkpt>
      <trkpt lat="45.86958" lon="4.86173">
        <ele>289</ele>
        <time>2011-06-02T09:44:17Z</time>
      </trkpt>
      <trkpt lat="45.86961" lon="4.86176">
        <ele>289</ele>
        <time>2011-06-02T09:44:18Z</time>
      </trkpt>
      <trkpt lat="45.86964" lon="4.86179">
        <ele>289</ele>
        <time>2011-06-02T09:44:19Z</time>
      </trkpt>
      <trkpt lat="45.86967" lon="4.86181">
        <ele>289</ele>
        <time>2011-06-02T09:44:20Z</time>
      </trkpt>
      <trkpt lat="45.8697" lon="4.86182">
        <ele>289</ele>
        <time>2011-06-02T09:44:21Z</time>
      </trkpt>
      <trkpt lat="45.86974" lon="4.86182">
        <ele>289</ele>
        <time>2011-06-02T09:44:22Z</time>
      </trkpt>
      <trkpt lat="45.86977" lon="4.86182">
        <ele>289</ele>
        <time>2011-06-02T09:44:23Z</time>
      </trkpt>
      <trkpt lat="45.86981" lon="4.86182">
        <ele>289</ele>
        <time>2011-06-02T09:44:24Z</time>
      </trkpt>
      <trkpt lat="45.86984" lon="4.8618">
        <ele>289</ele>
        <time>2011-06-02T09:44:25Z</time>
      </trkpt>
      <trkpt lat="45.86988" lon="4.86178">
        <ele>289</ele>
        <time>2011-06-02T09:44:26Z</time>
      </trkpt>
      <trkpt lat="45.86991" lon="4.86177">
        <ele>289</ele>
        <time>2011-06-02T09:44:27Z</time>
      </trkpt>
      <trkpt lat="45.86995" lon="4.86175">
        <ele>289</ele>
        <time>2011-06-02T09:44:28Z</time>
      </trkpt>
      <trkpt lat="45.86998" lon="4.86174">
        <ele>288</ele>
        <time>2011-06-02T09:44:29Z</time>
      </trkpt>
      <trkpt lat="45.87002" lon="4.86173">
        <ele>288</ele>
        <time>2011-06-02T09:44:30Z</time>
      </trkpt>
      <trkpt lat="45.87006" lon="4.86172">
        <ele>288</ele>
        <time>2011-06-02T09:44:31Z</time>
      </trkpt>
      <trkpt lat="45.87009" lon="4.86171">
        <ele>288</ele>
        <time>2011-06-02T09:44:32Z</time>
      </trkpt>
      <trkpt lat="45.87013" lon="4.8617">
        <ele>288</ele>
        <time>2011-06-02T09:44:33Z</time>
      </trkpt>
      <trkpt lat="45.87016" lon="4.86168">
        <ele>288</ele>
        <time>2011-06-02T09:44:34Z</time>
      </trkpt>
      <trkpt lat="45.8702" lon="4.86167">
        <ele>288</ele>
        <time>2011-06-02T09:44:35Z</time>
      </trkpt>
      <trkpt lat="45.87023" lon="4.86166">
        <ele>288</ele>
        <time>2011-06-02T09:44:36Z</time>
      </trkpt>
      <trkpt lat="45.87027" lon="4.86164">
        <ele>288</ele>
        <time>2011-06-02T09:44:37Z</time>
      </trkpt>
      <trkpt lat="45.8703" lon="4.86162">
        <ele>288</ele>
        <time>2011-06-02T09:44:38Z</time>
      </trkpt>
      <trkpt lat="45.87033" lon="4.86161">
        <ele>288</ele>
        <time>2011-06-02T09:44:39Z</time>
      </trkpt>
      <trkpt lat="45.87037" lon="4.86159">
        <ele>288</ele>
        <time>2011-06-02T09:44:40Z</time>
      </trkpt>
      <trkpt lat="45.8704" lon="4.86157">
        <ele>288</ele>
        <time>2011-06-02T09:44:41Z</time>
      </trkpt>
      <trkpt lat="45.87044" lon="4.86155">
        <ele>288</ele>
        <time>2011-06-02T09:44:42Z</time>
      </trkpt>
      <trkpt lat="45.87047" lon="4.86153">
        <ele>288</ele>
        <time>2011-06-02T09:44:43Z</time>
      </trkpt>
      <trkpt lat="45.8705" lon="4.86152">
        <ele>288</ele>
        <time>2011-06-02T09:44:44Z</time>
      </trkpt>
      <trkpt lat="45.87053" lon="4.86151">
        <ele>288</ele>
        <time>2011-06-02T09:44:45Z</time>
      </trkpt>
      <trkpt lat="45.87056" lon="4.86148">
        <ele>288</ele>
        <time>2011-06-02T09:44:46Z</time>
      </trkpt>
      <trkpt lat="45.8706" lon="4.86145">
        <ele>288</ele>
        <time>2011-06-02T09:44:47Z</time>
      </trkpt>
      <trkpt lat="45.87063" lon="4.86143">
        <ele>288</ele>
        <time>2011-06-02T09:44:48Z</time>
      </trkpt>
      <trkpt lat="45.87067" lon="4.86142">
        <ele>288</ele>
        <time>2011-06-02T09:44:49Z</time>
      </trkpt>
      <trkpt lat="45.87071" lon="4.86141">
        <ele>288</ele>
        <time>2011-06-02T09:44:50Z</time>
      </trkpt>
      <trkpt lat="45.87075" lon="4.86139">
        <ele>288</ele>
        <time>2011-06-02T09:44:51Z</time>
      </trkpt>
      <trkpt lat="45.87078" lon="4.86137">
        <ele>288</ele>
        <time>2011-06-02T09:44:52Z</time>
      </trkpt>
      <trkpt lat="45.87081" lon="4.86135">
        <ele>288</ele>
        <time>2011-06-02T09:44:53Z</time>
      </trkpt>
      <trkpt lat="45.87085" lon="4.86133">
        <ele>288</ele>
        <time>2011-06-02T09:44:54Z</time>
      </trkpt>
      <trkpt lat="45.87088" lon="4.86131">
        <ele>289</ele>
        <time>2011-06-02T09:44:55Z</time>
      </trkpt>
      <trkpt lat="45.87091" lon="4.86129">
        <ele>289</ele>
        <time>2011-06-02T09:44:56Z</time>
      </trkpt>
      <trkpt lat="45.87094" lon="4.86127">
        <ele>289</ele>
        <time>2011-06-02T09:44:57Z</time>
      </trkpt>
      <trkpt lat="45.87098" lon="4.86126">
        <ele>289</ele>
        <time>2011-06-02T09:44:58Z</time>
      </trkpt>
      <trkpt lat="45.87101" lon="4.86124">
        <ele>290</ele>
        <time>2011-06-02T09:44:59Z</time>
      </trkpt>
      <trkpt lat="45.87105" lon="4.86123">
        <ele>290</ele>
        <time>2011-06-02T09:45:00Z</time>
      </trkpt>
      <trkpt lat="45.87108" lon="4.86121">
        <ele>290</ele>
        <time>2011-06-02T09:45:01Z</time>
      </trkpt>
      <trkpt lat="45.87112" lon="4.86119">
        <ele>290</ele>
        <time>2011-06-02T09:45:02Z</time>
      </trkpt>
      <trkpt lat="45.87115" lon="4.86117">
        <ele>290</ele>
        <time>2011-06-02T09:45:03Z</time>
      </trkpt>
      <trkpt lat="45.87119" lon="4.86116">
        <ele>290</ele>
        <time>2011-06-02T09:45:04Z</time>
      </trkpt>
      <trkpt lat="45.87122" lon="4.86115">
        <ele>290</ele>
        <time>2011-06-02T09:45:05Z</time>
      </trkpt>
      <trkpt lat="45.87125" lon="4.86113">
        <ele>290</ele>
        <time>2011-06-02T09:45:06Z</time>
      </trkpt>
      <trkpt lat="45.87129" lon="4.86112">
        <ele>290</ele>
        <time>2011-06-02T09:45:07Z</time>
      </trkpt>
      <trkpt lat="45.87132" lon="4.86111">
        <ele>290</ele>
        <time>2011-06-02T09:45:08Z</time>
      </trkpt>
      <trkpt lat="45.87135" lon="4.8611">
        <ele>290</ele>
        <time>2011-06-02T09:45:09Z</time>
      </trkpt>
      <trkpt lat="45.87138" lon="4.86109">
        <ele>290</ele>
        <time>2011-06-02T09:45:10Z</time>
      </trkpt>
      <trkpt lat="45.87142" lon="4.86108">
        <ele>290</ele>
        <time>2011-06-02T09:45:11Z</time>
      </trkpt>
      <trkpt lat="45.87146" lon="4.86108">
        <ele>290</ele>
        <time>2011-06-02T09:45:12Z</time>
      </trkpt>
      <trkpt lat="45.8715" lon="4.86107">
        <ele>290</ele>
        <time>2011-06-02T09:45:13Z</time>
      </trkpt>
      <trkpt lat="45.87154" lon="4.86107">
        <ele>290</ele>
        <time>2011-06-02T09:45:14Z</time>
      </trkpt>
      <trkpt lat="45.87158" lon="4.86107">
        <ele>290</ele>
        <time>2011-06-02T09:45:15Z</time>
      </trkpt>
      <trkpt lat="45.87162" lon="4.86107">
        <ele>290</ele>
        <time>2011-06-02T09:45:16Z</time>
      </trkpt>
      <trkpt lat="45.87166" lon="4.86108">
        <ele>290</ele>
        <time>2011-06-02T09:45:17Z</time>
      </trkpt>
      <trkpt lat="45.8717" lon="4.86109">
        <ele>290</ele>
        <time>2011-06-02T09:45:18Z</time>
      </trkpt>
      <trkpt lat="45.87173" lon="4.86111">
        <ele>290</ele>
        <time>2011-06-02T09:45:19Z</time>
      </trkpt>
      <trkpt lat="45.87177" lon="4.86112">
        <ele>290</ele>
        <time>2011-06-02T09:45:20Z</time>
      </trkpt>
      <trkpt lat="45.8718" lon="4.86113">
        <ele>290</ele>
        <time>2011-06-02T09:45:21Z</time>
      </trkpt>
      <trkpt lat="45.87183" lon="4.86115">
        <ele>290</ele>
        <time>2011-06-02T09:45:22Z</time>
      </trkpt>
      <trkpt lat="45.87187" lon="4.86116">
        <ele>290</ele>
        <time>2011-06-02T09:45:23Z</time>
      </trkpt>
      <trkpt lat="45.8719" lon="4.86118">
        <ele>290</ele>
        <time>2011-06-02T09:45:24Z</time>
      </trkpt>
      <trkpt lat="45.87193" lon="4.8612">
        <ele>290</ele>
        <time>2011-06-02T09:45:25Z</time>
      </trkpt>
      <trkpt lat="45.87196" lon="4.86121">
        <ele>290</ele>
        <time>2011-06-02T09:45:26Z</time>
      </trkpt>
      <trkpt lat="45.872" lon="4.86122">
        <ele>290</ele>
        <time>2011-06-02T09:45:27Z</time>
      </trkpt>
      <trkpt lat="45.87203" lon="4.86123">
        <ele>290</ele>
        <time>2011-06-02T09:45:28Z</time>
      </trkpt>
      <trkpt lat="45.87206" lon="4.86123">
        <ele>290</ele>
        <time>2011-06-02T09:45:29Z</time>
      </trkpt>
      <trkpt lat="45.8721" lon="4.86123">
        <ele>290</ele>
        <time>2011-06-02T09:45:30Z</time>
      </trkpt>
      <trkpt lat="45.87214" lon="4.86123">
        <ele>290</ele>
        <time>2011-06-02T09:45:31Z</time>
      </trkpt>
      <trkpt lat="45.87217" lon="4.86123">
        <ele>290</ele>
        <time>2011-06-02T09:45:32Z</time>
      </trkpt>
      <trkpt lat="45.87221" lon="4.86123">
        <ele>290</ele>
        <time>2011-06-02T09:45:33Z</time>
      </trkpt>
      <trkpt lat="45.87225" lon="4.86123">
        <ele>290</ele>
        <time>2011-06-02T09:45:34Z</time>
      </trkpt>
      <trkpt lat="45.8723" lon="4.86123">
        <ele>290</ele>
        <time>2011-06-02T09:45:35Z</time>
      </trkpt>
      <trkpt lat="45.87233" lon="4.86123">
        <ele>290</ele>
        <time>2011-06-02T09:45:36Z</time>
      </trkpt>
      <trkpt lat="45.87238" lon="4.86123">
        <ele>290</ele>
        <time>2011-06-02T09:45:37Z</time>
      </trkpt>
      <trkpt lat="45.87242" lon="4.86123">
        <ele>290</ele>
        <time>2011-06-02T09:45:38Z</time>
      </trkpt>
      <trkpt lat="45.87246" lon="4.86123">
        <ele>290</ele>
        <time>2011-06-02T09:45:39Z</time>
      </trkpt>
      <trkpt lat="45.87251" lon="4.86123">
        <ele>290</ele>
        <time>2011-06-02T09:45:40Z</time>
      </trkpt>
      <trkpt lat="45.87255" lon="4.86122">
        <ele>290</ele>
        <time>2011-06-02T09:45:41Z</time>
      </trkpt>
      <trkpt lat="45.8726" lon="4.86122">
        <ele>290</ele>
        <time>2011-06-02T09:45:42Z</time>
      </trkpt>
      <trkpt lat="45.87264" lon="4.86122">
        <ele>290</ele>
        <time>2011-06-02T09:45:43Z</time>
      </trkpt>
      <trkpt lat="45.87269" lon="4.86121">
        <ele>290</ele>
        <time>2011-06-02T09:45:44Z</time>
      </trkpt>
      <trkpt lat="45.87273" lon="4.86121">
        <ele>290</ele>
        <time>2011-06-02T09:45:45Z</time>
      </trkpt>
      <trkpt lat="45.87278" lon="4.86121">
        <ele>290</ele>
        <time>2011-06-02T09:45:46Z</time>
      </trkpt>
      <trkpt lat="45.87282" lon="4.8612">
        <ele>290</ele>
        <time>2011-06-02T09:45:47Z</time>
      </trkpt>
      <trkpt lat="45.87287" lon="4.8612">
        <ele>290</ele>
        <time>2011-06-02T09:45:48Z</time>
      </trkpt>
      <trkpt lat="45.87291" lon="4.86121">
        <ele>290</ele>
        <time>2011-06-02T09:45:49Z</time>
      </trkpt>
      <trkpt lat="45.87296" lon="4.86121">
        <ele>290</ele>
        <time>2011-06-02T09:45:50Z</time>
      </trkpt>
      <trkpt lat="45.873" lon="4.86121">
        <ele>290</ele>
        <time>2011-06-02T09:45:51Z</time>
      </trkpt>
      <trkpt lat="45.87304" lon="4.8612">
        <ele>290</ele>
        <time>2011-06-02T09:45:52Z</time>
      </trkpt>
      <trkpt lat="45.87308" lon="4.8612">
        <ele>290</ele>
        <time>2011-06-02T09:45:53Z</time>
      </trkpt>
      <trkpt lat="45.87312" lon="4.86121">
        <ele>290</ele>
        <time>2011-06-02T09:45:54Z</time>
      </trkpt>
      <trkpt lat="45.87316" lon="4.86121">
        <ele>290</ele>
        <time>2011-06-02T09:45:55Z</time>
      </trkpt>
      <trkpt lat="45.8732" lon="4.86122">
        <ele>290</ele>
        <time>2011-06-02T09:45:56Z</time>
      </trkpt>
      <trkpt lat="45.87324" lon="4.86123">
        <ele>290</ele>
        <time>2011-06-02T09:45:57Z</time>
      </trkpt>
      <trkpt lat="45.87328" lon="4.86124">
        <ele>290</ele>
        <time>2011-06-02T09:45:58Z</time>
      </trkpt>
      <trkpt lat="45.87332" lon="4.86126">
        <ele>290</ele>
        <time>2011-06-02T09:45:59Z</time>
      </trkpt>
      <trkpt lat="45.87336" lon="4.86128">
        <ele>290</ele>
        <time>2011-06-02T09:46:00Z</time>
      </trkpt>
      <trkpt lat="45.8734" lon="4.86131">
        <ele>290</ele>
        <time>2011-06-02T09:46:01Z</time>
      </trkpt>
      <trkpt lat="45.87344" lon="4.86133">
        <ele>290</ele>
        <time>2011-06-02T09:46:02Z</time>
      </trkpt>
      <trkpt lat="45.87347" lon="4.86136">
        <ele>290</ele>
        <time>2011-06-02T09:46:03Z</time>
      </trkpt>
      <trkpt lat="45.87351" lon="4.86138">
        <ele>290</ele>
        <time>2011-06-02T09:46:04Z</time>
      </trkpt>
      <trkpt lat="45.87355" lon="4.86142">
        <ele>290</ele>
        <time>2011-06-02T09:46:05Z</time>
      </trkpt>
      <trkpt lat="45.87359" lon="4.86145">
        <ele>290</ele>
        <time>2011-06-02T09:46:06Z</time>
      </trkpt>
      <trkpt lat="45.87363" lon="4.86149">
        <ele>290</ele>
        <time>2011-06-02T09:46:07Z</time>
      </trkpt>
      <trkpt lat="45.87366" lon="4.86152">
        <ele>290</ele>
        <time>2011-06-02T09:46:08Z</time>
      </trkpt>
      <trkpt lat="45.8737" lon="4.86154">
        <ele>290</ele>
        <time>2011-06-02T09:46:09Z</time>
      </trkpt>
      <trkpt lat="45.87373" lon="4.86158">
        <ele>290</ele>
        <time>2011-06-02T09:46:10Z</time>
      </trkpt>
      <trkpt lat="45.87377" lon="4.86161">
        <ele>290</ele>
        <time>2011-06-02T09:46:11Z</time>
      </trkpt>
      <trkpt lat="45.87381" lon="4.86164">
        <ele>290</ele>
        <time>2011-06-02T09:46:12Z</time>
      </trkpt>
      <trkpt lat="45.87384" lon="4.86167">
        <ele>290</ele>
        <time>2011-06-02T09:46:13Z</time>
      </trkpt>
      <trkpt lat="45.87388" lon="4.8617">
        <ele>290</ele>
        <time>2011-06-02T09:46:14Z</time>
      </trkpt>
      <trkpt lat="45.87392" lon="4.86172">
        <ele>290</ele>
        <time>2011-06-02T09:46:15Z</time>
      </trkpt>
      <trkpt lat="45.87396" lon="4.86175">
        <ele>290</ele>
        <time>2011-06-02T09:46:16Z</time>
      </trkpt>
      <trkpt lat="45.874" lon="4.86176">
        <ele>290</ele>
        <time>2011-06-02T09:46:17Z</time>
      </trkpt>
      <trkpt lat="45.87404" lon="4.86178">
        <ele>290</ele>
        <time>2011-06-02T09:46:18Z</time>
      </trkpt>
      <trkpt lat="45.87408" lon="4.86179">
        <ele>290</ele>
        <time>2011-06-02T09:46:19Z</time>
      </trkpt>
      <trkpt lat="45.87412" lon="4.86179">
        <ele>290</ele>
        <time>2011-06-02T09:46:20Z</time>
      </trkpt>
      <trkpt lat="45.87416" lon="4.86179">
        <ele>290</ele>
        <time>2011-06-02T09:46:21Z</time>
      </trkpt>
      <trkpt lat="45.8742" lon="4.8618">
        <ele>290</ele>
        <time>2011-06-02T09:46:22Z</time>
      </trkpt>
      <trkpt lat="45.87423" lon="4.8618">
        <ele>290</ele>
        <time>2011-06-02T09:46:23Z</time>
      </trkpt>
      <trkpt lat="45.87427" lon="4.8618">
        <ele>290</ele>
        <time>2011-06-02T09:46:24Z</time>
      </trkpt>
      <trkpt lat="45.8743" lon="4.86181">
        <ele>290</ele>
        <time>2011-06-02T09:46:25Z</time>
      </trkpt>
      <trkpt lat="45.87434" lon="4.8618">
        <ele>290</ele>
        <time>2011-06-02T09:46:26Z</time>
      </trkpt>
      <trkpt lat="45.87437" lon="4.8618">
        <ele>290</ele>
        <time>2011-06-02T09:46:27Z</time>
      </trkpt>
      <trkpt lat="45.87441" lon="4.8618">
        <ele>290</ele>
        <time>2011-06-02T09:46:28Z</time>
      </trkpt>
      <trkpt lat="45.87444" lon="4.8618">
        <ele>290</ele>
        <time>2011-06-02T09:46:29Z</time>
      </trkpt>
      <trkpt lat="45.87448" lon="4.8618">
        <ele>290</ele>
        <time>2011-06-02T09:46:30Z</time>
      </trkpt>
      <trkpt lat="45.87452" lon="4.86179">
        <ele>290</ele>
        <time>2011-06-02T09:46:31Z</time>
      </trkpt>
      <trkpt lat="45.87455" lon="4.86179">
        <ele>290</ele>
        <time>2011-06-02T09:46:32Z</time>
      </trkpt>
      <trkpt lat="45.87458" lon="4.86179">
        <ele>290</ele>
        <time>2011-06-02T09:46:33Z</time>
      </trkpt>
      <trkpt lat="45.87462" lon="4.86178">
        <ele>290</ele>
        <time>2011-06-02T09:46:34Z</time>
      </trkpt>
      <trkpt lat="45.87465" lon="4.86178">
        <ele>290</ele>
        <time>2011-06-02T09:46:35Z</time>
      </trkpt>
      <trkpt lat="45.87468" lon="4.86177">
        <ele>290</ele>
        <time>2011-06-02T09:46:36Z</time>
      </trkpt>
      <trkpt lat="45.87472" lon="4.86176">
        <ele>290</ele>
        <time>2011-06-02T09:46:37Z</time>
      </trkpt>
      <trkpt lat="45.87476" lon="4.86176">
        <ele>290</ele>
        <time>2011-06-02T09:46:38Z</time>
      </trkpt>
      <trkpt lat="45.87479" lon="4.86176">
        <ele>290</ele>
        <time>2011-06-02T09:46:39Z</time>
      </trkpt>
      <trkpt lat="45.87483" lon="4.86176">
        <ele>290</ele>
        <time>2011-06-02T09:46:40Z</time>
      </trkpt>
      <trkpt lat="45.87487" lon="4.86176">
        <ele>290</ele>
        <time>2011-06-02T09:46:41Z</time>
      </trkpt>
      <trkpt lat="45.8749" lon="4.86176">
        <ele>290</ele>
        <time>2011-06-02T09:46:42Z</time>
      </trkpt>
      <trkpt lat="45.87494" lon="4.86176">
        <ele>290</ele>
        <time>2011-06-02T09:46:43Z</time>
      </trkpt>
      <trkpt lat="45.87497" lon="4.86175">
        <ele>290</ele>
        <time>2011-06-02T09:46:44Z</time>
      </trkpt>
      <trkpt lat="45.87501" lon="4.86174">
        <ele>290</ele>
        <time>2011-06-02T09:46:45Z</time>
      </trkpt>
      <trkpt lat="45.87504" lon="4.86174">
        <ele>290</ele>
        <time>2011-06-02T09:46:46Z</time>
      </trkpt>
      <trkpt lat="45.87508" lon="4.86173">
        <ele>290</ele>
        <time>2011-06-02T09:46:47Z</time>
      </trkpt>
      <trkpt lat="45.87511" lon="4.86172">
        <ele>290</ele>
        <time>2011-06-02T09:46:48Z</time>
      </trkpt>
      <trkpt lat="45.87515" lon="4.86171">
        <ele>290</ele>
        <time>2011-06-02T09:46:49Z</time>
      </trkpt>
      <trkpt lat="45.87518" lon="4.8617">
        <ele>290</ele>
        <time>2011-06-02T09:46:50Z</time>
      </trkpt>
      <trkpt lat="45.87522" lon="4.86169">
        <ele>290</ele>
        <time>2011-06-02T09:46:51Z</time>
      </trkpt>
      <trkpt lat="45.87526" lon="4.86168">
        <ele>290</ele>
        <time>2011-06-02T09:46:52Z</time>
      </trkpt>
      <trkpt lat="45.87529" lon="4.86167">
        <ele>290</ele>
        <time>2011-06-02T09:46:53Z</time>
      </trkpt>
      <trkpt lat="45.87533" lon="4.86166">
        <ele>290</ele>
        <time>2011-06-02T09:46:54Z</time>
      </trkpt>
      <trkpt lat="45.87537" lon="4.86166">
        <ele>290</ele>
        <time>2011-06-02T09:46:55Z</time>
      </trkpt>
      <trkpt lat="45.8754" lon="4.86165">
        <ele>290</ele>
        <time>2011-06-02T09:46:56Z</time>
      </trkpt>
      <trkpt lat="45.87543" lon="4.86164">
        <ele>290</ele>
        <time>2011-06-02T09:46:57Z</time>
      </trkpt>
      <trkpt lat="45.87545" lon="4.86163">
        <ele>290</ele>
        <time>2011-06-02T09:46:58Z</time>
      </trkpt>
      <trkpt lat="45.87547" lon="4.8616">
        <ele>290</ele>
        <time>2011-06-02T09:46:59Z</time>
      </trkpt>
      <trkpt lat="45.87548" lon="4.86157">
        <ele>290</ele>
        <time>2011-06-02T09:47:00Z</time>
      </trkpt>
      <trkpt lat="45.87547" lon="4.86154">
        <ele>290</ele>
        <time>2011-06-02T09:47:01Z</time>
      </trkpt>
      <trkpt lat="45.87547" lon="4.8615">
        <ele>290</ele>
        <time>2011-06-02T09:47:02Z</time>
      </trkpt>
      <trkpt lat="45.87547" lon="4.86146">
        <ele>290</ele>
        <time>2011-06-02T09:47:03Z</time>
      </trkpt>
      <trkpt lat="45.87546" lon="4.86142">
        <ele>289</ele>
        <time>2011-06-02T09:47:04Z</time>
      </trkpt>
      <trkpt lat="45.87545" lon="4.86138">
        <ele>289</ele>
        <time>2011-06-02T09:47:05Z</time>
      </trkpt>
      <trkpt lat="45.87545" lon="4.86133">
        <ele>288</ele>
        <time>2011-06-02T09:47:06Z</time>
      </trkpt>
      <trkpt lat="45.87545" lon="4.86129">
        <ele>288</ele>
        <time>2011-06-02T09:47:07Z</time>
      </trkpt>
      <trkpt lat="45.87545" lon="4.86125">
        <ele>288</ele>
        <time>2011-06-02T09:47:08Z</time>
      </trkpt>
      <trkpt lat="45.87545" lon="4.8612">
        <ele>288</ele>
        <time>2011-06-02T09:47:09Z</time>
      </trkpt>
      <trkpt lat="45.87545" lon="4.86115">
        <ele>288</ele>
        <time>2011-06-02T09:47:10Z</time>
      </trkpt>
      <trkpt lat="45.87544" lon="4.86111">
        <ele>288</ele>
        <time>2011-06-02T09:47:11Z</time>
      </trkpt>
      <trkpt lat="45.87544" lon="4.86106">
        <ele>288</ele>
        <time>2011-06-02T09:47:12Z</time>
      </trkpt>
      <trkpt lat="45.87544" lon="4.86101">
        <ele>288</ele>
        <time>2011-06-02T09:47:13Z</time>
      </trkpt>
      <trkpt lat="45.87545" lon="4.86097">
        <ele>288</ele>
        <time>2011-06-02T09:47:14Z</time>
      </trkpt>
      <trkpt lat="45.87545" lon="4.86094">
        <ele>288</ele>
        <time>2011-06-02T09:47:15Z</time>
      </trkpt>
      <trkpt lat="45.87546" lon="4.8609">
        <ele>288</ele>
        <time>2011-06-02T09:47:16Z</time>
      </trkpt>
      <trkpt lat="45.87546" lon="4.86087">
        <ele>288</ele>
        <time>2011-06-02T09:47:17Z</time>
      </trkpt>
      <trkpt lat="45.87544" lon="4.86085">
        <ele>288</ele>
        <time>2011-06-02T09:47:18Z</time>
      </trkpt>
      <trkpt lat="45.87542" lon="4.86083">
        <ele>288</ele>
        <time>2011-06-02T09:47:19Z</time>
      </trkpt>
      <trkpt lat="45.8754" lon="4.86082">
        <ele>288</ele>
        <time>2011-06-02T09:47:20Z</time>
      </trkpt>
      <trkpt lat="45.87539" lon="4.86082">
        <ele>288</ele>
        <time>2011-06-02T09:47:21Z</time>
      </trkpt>
      <trkpt lat="45.87537" lon="4.86082">
        <ele>288</ele>
        <time>2011-06-02T09:47:23Z</time>
      </trkpt>
      <trkpt lat="45.87537" lon="4.86083">
        <ele>288</ele>
        <time>2011-06-02T09:47:25Z</time>
      </trkpt>
      <trkpt lat="45.87538" lon="4.86085">
        <ele>288</ele>
        <time>2011-06-02T09:47:34Z</time>
      </trkpt>
      <trkpt lat="45.87537" lon="4.86086">
        <ele>288</ele>
        <time>2011-06-02T09:47:39Z</time>
      </trkpt>
      <trkpt lat="45.87535" lon="4.86086">
        <ele>288</ele>
        <time>2011-06-02T09:47:41Z</time>
      </trkpt>
      <trkpt lat="45.87534" lon="4.86086">
        <ele>288</ele>
        <time>2011-06-02T09:47:43Z</time>
      </trkpt>
      <trkpt lat="45.87532" lon="4.86087">
        <ele>288</ele>
        <time>2011-06-02T09:47:45Z</time>
      </trkpt>
      <trkpt lat="45.8753" lon="4.86087">
        <ele>288</ele>
        <time>2011-06-02T09:47:46Z</time>
      </trkpt>
      <trkpt lat="45.87529" lon="4.86087">
        <ele>288</ele>
        <time>2011-06-02T09:47:47Z</time>
      </trkpt>
      <trkpt lat="45.87527" lon="4.86087">
        <ele>288</ele>
        <time>2011-06-02T09:47:48Z</time>
      </trkpt>
      <trkpt lat="45.87526" lon="4.86088">
        <ele>288</ele>
        <time>2011-06-02T09:47:49Z</time>
      </trkpt>
      <trkpt lat="45.87524" lon="4.86088">
        <ele>288</ele>
        <time>2011-06-02T09:47:50Z</time>
      </trkpt>
      <trkpt lat="45.87523" lon="4.86088">
        <ele>288</ele>
        <time>2011-06-02T09:47:51Z</time>
      </trkpt>
      <trkpt lat="45.87521" lon="4.86088">
        <ele>288</ele>
        <time>2011-06-02T09:47:52Z</time>
      </trkpt>
      <trkpt lat="45.8752" lon="4.86088">
        <ele>288</ele>
        <time>2011-06-02T09:47:53Z</time>
      </trkpt>
      <trkpt lat="45.87518" lon="4.86089">
        <ele>288</ele>
        <time>2011-06-02T09:47:54Z</time>
      </trkpt>
      <trkpt lat="45.87516" lon="4.86089">
        <ele>288</ele>
        <time>2011-06-02T09:47:55Z</time>
      </trkpt>
      <trkpt lat="45.87515" lon="4.86089">
        <ele>288</ele>
        <time>2011-06-02T09:47:56Z</time>
      </trkpt>
      <trkpt lat="45.87513" lon="4.86089">
        <ele>288</ele>
        <time>2011-06-02T09:47:57Z</time>
      </trkpt>
      <trkpt lat="45.87511" lon="4.86089">
        <ele>288</ele>
        <time>2011-06-02T09:47:58Z</time>
      </trkpt>
      <trkpt lat="45.87509" lon="4.86089">
        <ele>288</ele>
        <time>2011-06-02T09:47:59Z</time>
      </trkpt>
      <trkpt lat="45.87508" lon="4.86089">
        <ele>288</ele>
        <time>2011-06-02T09:48:00Z</time>
      </trkpt>
      <trkpt lat="45.87506" lon="4.8609">
        <ele>288</ele>
        <time>2011-06-02T09:48:01Z</time>
      </trkpt>
      <trkpt lat="45.87505" lon="4.86091">
        <ele>288</ele>
        <time>2011-06-02T09:48:02Z</time>
      </trkpt>
      <trkpt lat="45.87503" lon="4.86091">
        <ele>288</ele>
        <time>2011-06-02T09:48:03Z</time>
      </trkpt>
      <trkpt lat="45.87502" lon="4.86091">
        <ele>288</ele>
        <time>2011-06-02T09:48:04Z</time>
      </trkpt>
      <trkpt lat="45.87501" lon="4.8609">
        <ele>288</ele>
        <time>2011-06-02T09:48:05Z</time>
      </trkpt>
      <trkpt lat="45.875" lon="4.8609">
        <ele>288</ele>
        <time>2011-06-02T09:48:06Z</time>
      </trkpt>
      <trkpt lat="45.87498" lon="4.8609">
        <ele>288</ele>
        <time>2011-06-02T09:48:08Z</time>
      </trkpt>
      <trkpt lat="45.87498" lon="4.86088">
        <ele>288</ele>
        <time>2011-06-02T09:48:11Z</time>
      </trkpt>
      <trkpt lat="45.87497" lon="4.86085">
        <ele>288</ele>
        <time>2011-06-02T09:48:13Z</time>
      </trkpt>
      <trkpt lat="45.87497" lon="4.86083">
        <ele>290</ele>
        <time>2011-06-02T09:48:16Z</time>
      </trkpt>
      <trkpt lat="45.87495" lon="4.86082">
        <ele>294</ele>
        <time>2011-06-02T09:48:21Z</time>
      </trkpt>
      <trkpt lat="45.87494" lon="4.8608">
        <ele>296</ele>
        <time>2011-06-02T09:48:28Z</time>
      </trkpt>
      <trkpt lat="45.87493" lon="4.8608">
        <ele>296</ele>
        <time>2011-06-02T09:48:40Z</time>
      </trkpt>
      <trkpt lat="45.87492" lon="4.86078">
        <ele>298</ele>
        <time>2011-06-02T09:49:09Z</time>
      </trkpt>
      <trkpt lat="45.87494" lon="4.86078">
        <ele>302</ele>
        <time>2011-06-02T09:49:33Z</time>
      </trkpt>
      <trkpt lat="45.87495" lon="4.86079">
        <ele>306</ele>
        <time>2011-06-02T09:49:51Z</time>
      </trkpt>
      <trkpt lat="45.87496" lon="4.86079">
        <ele>307</ele>
        <time>2011-06-02T09:49:53Z</time>
      </trkpt>
      <trkpt lat="45.87497" lon="4.86077">
        <ele>313</ele>
        <time>2011-06-02T09:49:59Z</time>
      </trkpt>
      <trkpt lat="45.87499" lon="4.86077">
        <ele>316</ele>
        <time>2011-06-02T09:50:02Z</time>
      </trkpt>
      <trkpt lat="45.87499" lon="4.86075">
        <ele>320</ele>
        <time>2011-06-02T09:50:06Z</time>
      </trkpt>
      <trkpt lat="45.875" lon="4.86074">
        <ele>323</ele>
        <time>2011-06-02T09:50:09Z</time>
      </trkpt>
      <trkpt lat="45.87501" lon="4.86074">
        <ele>325</ele>
        <time>2011-06-02T09:50:11Z</time>
      </trkpt>
      <trkpt lat="45.87503" lon="4.86074">
        <ele>328</ele>
        <time>2011-06-02T09:50:14Z</time>
      </trkpt>
      <trkpt lat="45.87503" lon="4.86073">
        <ele>330</ele>
        <time>2011-06-02T09:50:16Z</time>
      </trkpt>
      <trkpt lat="45.87504" lon="4.86071">
        <ele>334</ele>
        <time>2011-06-02T09:50:20Z</time>
      </trkpt>
      <trkpt lat="45.87504" lon="4.86074">
        <ele>331</ele>
        <time>2011-06-02T09:50:30Z</time>
      </trkpt>
      <trkpt lat="45.87503" lon="4.86076">
        <ele>329</ele>
        <time>2011-06-02T09:50:32Z</time>
      </trkpt>
      <trkpt lat="45.87504" lon="4.86077">
        <ele>327</ele>
        <time>2011-06-02T09:50:34Z</time>
      </trkpt>
      <trkpt lat="45.87503" lon="4.86077">
        <ele>324</ele>
        <time>2011-06-02T09:50:41Z</time>
      </trkpt>
      <trkpt lat="45.87504" lon="4.86077">
        <ele>324</ele>
        <time>2011-06-02T09:50:46Z</time>
      </trkpt>
      <trkpt lat="45.87505" lon="4.86078">
        <ele>324</ele>
        <time>2011-06-02T09:50:48Z</time>
      </trkpt>
      <trkpt lat="45.87503" lon="4.86077">
        <ele>324</ele>
        <time>2011-06-02T09:50:52Z</time>
      </trkpt>
      <trkpt lat="45.87502" lon="4.86076">
        <ele>324</ele>
        <time>2011-06-02T09:50:54Z</time>
      </trkpt>
      <trkpt lat="45.875" lon="4.86074">
        <ele>324</ele>
        <time>2011-06-02T09:50:56Z</time>
      </trkpt>
      <trkpt lat="45.87499" lon="4.86074">
        <ele>321</ele>
        <time>2011-06-02T09:51:00Z</time>
      </trkpt>
      <trkpt lat="45.87499" lon="4.86077">
        <ele>320</ele>
        <time>2011-06-02T09:51:03Z</time>
      </trkpt>
      <trkpt lat="45.87499" lon="4.86079">
        <ele>320</ele>
        <time>2011-06-02T09:51:05Z</time>
      </trkpt>
      <trkpt lat="45.87497" lon="4.86078">
        <ele>320</ele>
        <time>2011-06-02T09:51:07Z</time>
      </trkpt>
      <trkpt lat="45.87496" lon="4.86076">
        <ele>320</ele>
        <time>2011-06-02T09:51:12Z</time>
      </trkpt>
      <trkpt lat="45.87496" lon="4.86079">
        <ele>320</ele>
        <time>2011-06-02T09:51:17Z</time>
      </trkpt>
      <trkpt lat="45.87496" lon="4.86081">
        <ele>320</ele>
        <time>2011-06-02T09:51:18Z</time>
      </trkpt>
      <trkpt lat="45.87497" lon="4.86084">
        <ele>320</ele>
        <time>2011-06-02T09:51:20Z</time>
      </trkpt>
      <trkpt lat="45.87498" lon="4.86086">
        <ele>318</ele>
        <time>2011-06-02T09:51:22Z</time>
      </trkpt>
      <trkpt lat="45.87498" lon="4.86088">
        <ele>316</ele>
        <time>2011-06-02T09:51:24Z</time>
      </trkpt>
      <trkpt lat="45.87499" lon="4.8609">
        <ele>314</ele>
        <time>2011-06-02T09:51:26Z</time>
      </trkpt>
      <trkpt lat="45.87499" lon="4.86092">
        <ele>312</ele>
        <time>2011-06-02T09:51:28Z</time>
      </trkpt>
      <trkpt lat="45.875" lon="4.86093">
        <ele>310</ele>
        <time>2011-06-02T09:51:30Z</time>
      </trkpt>
      <trkpt lat="45.87501" lon="4.86095">
        <ele>306</ele>
        <time>2011-06-02T09:51:33Z</time>
      </trkpt>
      <trkpt lat="45.87501" lon="4.86096">
        <ele>297</ele>
        <time>2011-06-02T09:51:41Z</time>
      </trkpt>
      <trkpt lat="45.87502" lon="4.86098">
        <ele>284</ele>
        <time>2011-06-02T09:52:02Z</time>
      </trkpt>
      <trkpt lat="45.87502" lon="4.86096">
        <ele>283</ele>
        <time>2011-06-02T09:52:46Z</time>
      </trkpt>
      <trkpt lat="45.875" lon="4.86095">
        <ele>283</ele>
        <time>2011-06-02T09:52:52Z</time>
      </trkpt>
      <trkpt lat="45.87499" lon="4.86093">
        <ele>284</ele>
        <time>2011-06-02T09:53:09Z</time>
      </trkpt>
      <trkpt lat="45.87498" lon="4.86091">
        <ele>284</ele>
        <time>2011-06-02T09:53:15Z</time>
      </trkpt>
      <trkpt lat="45.87497" lon="4.8609">
        <ele>285</ele>
        <time>2011-06-02T09:53:17Z</time>
      </trkpt>
      <trkpt lat="45.87496" lon="4.8609">
        <ele>286</ele>
        <time>2011-06-02T09:53:21Z</time>
      </trkpt>
      <trkpt lat="45.87495" lon="4.86088">
        <ele>287</ele>
        <time>2011-06-02T09:53:24Z</time>
      </trkpt>
      <trkpt lat="45.87495" lon="4.86086">
        <ele>289</ele>
        <time>2011-06-02T09:53:35Z</time>
      </trkpt>
      <trkpt lat="45.87494" lon="4.86085">
        <ele>290</ele>
        <time>2011-06-02T09:53:37Z</time>
      </trkpt>
      <trkpt lat="45.87493" lon="4.86084">
        <ele>292</ele>
        <time>2011-06-02T09:53:41Z</time>
      </trkpt>
      <trkpt lat="45.87492" lon="4.86084">
        <ele>292</ele>
        <time>2011-06-02T09:53:46Z</time>
      </trkpt>
      <trkpt lat="45.8749" lon="4.86084">
        <ele>292</ele>
        <time>2011-06-02T09:53:56Z</time>
      </trkpt>
      <trkpt lat="45.8749" lon="4.86086">
        <ele>292</ele>
        <time>2011-06-02T09:54:05Z</time>
      </trkpt>
      <trkpt lat="45.87492" lon="4.86086">
        <ele>292</ele>
        <time>2011-06-02T09:54:14Z</time>
      </trkpt>
      <trkpt lat="45.87493" lon="4.86085">
        <ele>292</ele>
        <time>2011-06-02T09:54:25Z</time>
      </trkpt>
      <trkpt lat="45.87493" lon="4.86083">
        <ele>292</ele>
        <time>2011-06-02T09:54:31Z</time>
      </trkpt>
      <trkpt lat="45.87491" lon="4.86081">
        <ele>292</ele>
        <time>2011-06-02T09:54:33Z</time>
      </trkpt>
      <trkpt lat="45.8749" lon="4.86079">
        <ele>292</ele>
        <time>2011-06-02T09:54:35Z</time>
      </trkpt>
      <trkpt lat="45.87489" lon="4.86077">
        <ele>292</ele>
        <time>2011-06-02T09:54:41Z</time>
      </trkpt>
      <trkpt lat="45.87488" lon="4.86075">
        <ele>294</ele>
        <time>2011-06-02T09:54:47Z</time>
      </trkpt>
      <trkpt lat="45.87487" lon="4.86074">
        <ele>295</ele>
        <time>2011-06-02T09:54:52Z</time>
      </trkpt>
      <trkpt lat="45.87486" lon="4.86072">
        <ele>295</ele>
        <time>2011-06-02T09:54:55Z</time>
      </trkpt>
      <trkpt lat="45.87487" lon="4.86074">
        <ele>295</ele>
        <time>2011-06-02T09:55:04Z</time>
      </trkpt>
      <trkpt lat="45.87488" lon="4.86076">
        <ele>295</ele>
        <time>2011-06-02T09:55:07Z</time>
      </trkpt>
      <trkpt lat="45.87489" lon="4.86077">
        <ele>295</ele>
        <time>2011-06-02T09:55:11Z</time>
      </trkpt>
      <trkpt lat="45.8749" lon="4.86078">
        <ele>285</ele>
        <time>2011-06-02T09:55:34Z</time>
      </trkpt>
      <trkpt lat="45.87491" lon="4.86079">
        <ele>285</ele>
        <time>2011-06-02T09:55:42Z</time>
      </trkpt>
      <trkpt lat="45.87492" lon="4.86079">
        <ele>285</ele>
        <time>2011-06-02T09:55:45Z</time>
      </trkpt>
      <trkpt lat="45.87494" lon="4.8608">
        <ele>285</ele>
        <time>2011-06-02T09:55:47Z</time>
      </trkpt>
      <trkpt lat="45.87495" lon="4.8608">
        <ele>285</ele>
        <time>2011-06-02T09:55:48Z</time>
      </trkpt>
      <trkpt lat="45.87497" lon="4.8608">
        <ele>285</ele>
        <time>2011-06-02T09:55:49Z</time>
      </trkpt>
      <trkpt lat="45.87499" lon="4.86079">
        <ele>285</ele>
        <time>2011-06-02T09:55:50Z</time>
      </trkpt>
      <trkpt lat="45.87502" lon="4.86079">
        <ele>285</ele>
        <time>2011-06-02T09:55:51Z</time>
      </trkpt>
      <trkpt lat="45.87504" lon="4.86079">
        <ele>285</ele>
        <time>2011-06-02T09:55:52Z</time>
      </trkpt>
      <trkpt lat="45.87507" lon="4.86079">
        <ele>285</ele>
        <time>2011-06-02T09:55:53Z</time>
      </trkpt>
      <trkpt lat="45.8751" lon="4.86078">
        <ele>286</ele>
        <time>2011-06-02T09:55:54Z</time>
      </trkpt>
      <trkpt lat="45.87513" lon="4.86078">
        <ele>287</ele>
        <time>2011-06-02T09:55:55Z</time>
      </trkpt>
      <trkpt lat="45.87516" lon="4.86079">
        <ele>287</ele>
        <time>2011-06-02T09:55:56Z</time>
      </trkpt>
      <trkpt lat="45.87519" lon="4.86079">
        <ele>287</ele>
        <time>2011-06-02T09:55:57Z</time>
      </trkpt>
      <trkpt lat="45.87522" lon="4.86079">
        <ele>288</ele>
        <time>2011-06-02T09:55:58Z</time>
      </trkpt>
      <trkpt lat="45.87525" lon="4.86079">
        <ele>288</ele>
        <time>2011-06-02T09:55:59Z</time>
      </trkpt>
      <trkpt lat="45.87528" lon="4.86079">
        <ele>288</ele>
        <time>2011-06-02T09:56:00Z</time>
      </trkpt>
      <trkpt lat="45.87531" lon="4.8608">
        <ele>289</ele>
        <time>2011-06-02T09:56:01Z</time>
      </trkpt>
      <trkpt lat="45.87533" lon="4.86079">
        <ele>289</ele>
        <time>2011-06-02T09:56:02Z</time>
      </trkpt>
      <trkpt lat="45.87536" lon="4.86079">
        <ele>289</ele>
        <time>2011-06-02T09:56:03Z</time>
      </trkpt>
      <trkpt lat="45.87538" lon="4.86079">
        <ele>290</ele>
        <time>2011-06-02T09:56:04Z</time>
      </trkpt>
      <trkpt lat="45.8754" lon="4.8608">
        <ele>290</ele>
        <time>2011-06-02T09:56:05Z</time>
      </trkpt>
      <trkpt lat="45.87542" lon="4.86082">
        <ele>290</ele>
        <time>2011-06-02T09:56:06Z</time>
      </trkpt>
      <trkpt lat="45.87544" lon="4.86085">
        <ele>290</ele>
        <time>2011-06-02T09:56:07Z</time>
      </trkpt>
      <trkpt lat="45.87544" lon="4.86089">
        <ele>290</ele>
        <time>2011-06-02T09:56:08Z</time>
      </trkpt>
      <trkpt lat="45.87545" lon="4.86093">
        <ele>290</ele>
        <time>2011-06-02T09:56:09Z</time>
      </trkpt>
      <trkpt lat="45.87545" lon="4.86097">
        <ele>290</ele>
        <time>2011-06-02T09:56:10Z</time>
      </trkpt>
      <trkpt lat="45.87545" lon="4.86102">
        <ele>290</ele>
        <time>2011-06-02T09:56:11Z</time>
      </trkpt>
      <trkpt lat="45.87545" lon="4.86106">
        <ele>290</ele>
        <time>2011-06-02T09:56:12Z</time>
      </trkpt>
      <trkpt lat="45.87545" lon="4.86111">
        <ele>290</ele>
        <time>2011-06-02T09:56:13Z</time>
      </trkpt>
      <trkpt lat="45.87546" lon="4.86116">
        <ele>290</ele>
        <time>2011-06-02T09:56:14Z</time>
      </trkpt>
      <trkpt lat="45.87547" lon="4.8612">
        <ele>290</ele>
        <time>2011-06-02T09:56:15Z</time>
      </trkpt>
      <trkpt lat="45.87547" lon="4.86125">
        <ele>290</ele>
        <time>2011-06-02T09:56:16Z</time>
      </trkpt>
      <trkpt lat="45.87547" lon="4.86129">
        <ele>290</ele>
        <time>2011-06-02T09:56:17Z</time>
      </trkpt>
      <trkpt lat="45.87547" lon="4.86134">
        <ele>290</ele>
        <time>2011-06-02T09:56:18Z</time>
      </trkpt>
      <trkpt lat="45.87548" lon="4.86139">
        <ele>290</ele>
        <time>2011-06-02T09:56:19Z</time>
      </trkpt>
      <trkpt lat="45.87548" lon="4.86143">
        <ele>290</ele>
        <time>2011-06-02T09:56:20Z</time>
      </trkpt>
      <trkpt lat="45.87549" lon="4.86147">
        <ele>290</ele>
        <time>2011-06-02T09:56:21Z</time>
      </trkpt>
      <trkpt lat="45.8755" lon="4.86152">
        <ele>290</ele>
        <time>2011-06-02T09:56:22Z</time>
      </trkpt>
      <trkpt lat="45.8755" lon="4.86157">
        <ele>290</ele>
        <time>2011-06-02T09:56:23Z</time>
      </trkpt>
      <trkpt lat="45.87551" lon="4.86162">
        <ele>290</ele>
        <time>2011-06-02T09:56:24Z</time>
      </trkpt>
      <trkpt lat="45.87552" lon="4.86166">
        <ele>290</ele>
        <time>2011-06-02T09:56:25Z</time>
      </trkpt>
      <trkpt lat="45.87554" lon="4.86169">
        <ele>290</ele>
        <time>2011-06-02T09:56:26Z</time>
      </trkpt>
      <trkpt lat="45.87556" lon="4.86171">
        <ele>290</ele>
        <time>2011-06-02T09:56:27Z</time>
      </trkpt>
      <trkpt lat="45.8756" lon="4.86172">
        <ele>290</ele>
        <time>2011-06-02T09:56:28Z</time>
      </trkpt>
      <trkpt lat="45.87563" lon="4.86173">
        <ele>290</ele>
        <time>2011-06-02T09:56:29Z</time>
      </trkpt>
      <trkpt lat="45.87566" lon="4.86173">
        <ele>290</ele>
        <time>2011-06-02T09:56:30Z</time>
      </trkpt>
      <trkpt lat="45.8757" lon="4.86173">
        <ele>290</ele>
        <time>2011-06-02T09:56:31Z</time>
      </trkpt>
      <trkpt lat="45.87574" lon="4.86173">
        <ele>290</ele>
        <time>2011-06-02T09:56:32Z</time>
      </trkpt>
      <trkpt lat="45.87577" lon="4.86172">
        <ele>290</ele>
        <time>2011-06-02T09:56:33Z</time>
      </trkpt>
      <trkpt lat="45.87581" lon="4.86172">
        <ele>290</ele>
        <time>2011-06-02T09:56:34Z</time>
      </trkpt>
      <trkpt lat="45.87585" lon="4.86171">
        <ele>290</ele>
        <time>2011-06-02T09:56:35Z</time>
      </trkpt>
      <trkpt lat="45.87589" lon="4.8617">
        <ele>290</ele>
        <time>2011-06-02T09:56:36Z</time>
      </trkpt>
      <trkpt lat="45.87592" lon="4.8617">
        <ele>290</ele>
        <time>2011-06-02T09:56:37Z</time>
      </trkpt>
      <trkpt lat="45.87596" lon="4.86169">
        <ele>290</ele>
        <time>2011-06-02T09:56:38Z</time>
      </trkpt>
      <trkpt lat="45.876" lon="4.86169">
        <ele>290</ele>
        <time>2011-06-02T09:56:39Z</time>
      </trkpt>
      <trkpt lat="45.87604" lon="4.86168">
        <ele>290</ele>
        <time>2011-06-02T09:56:40Z</time>
      </trkpt>
      <trkpt lat="45.87608" lon="4.86168">
        <ele>290</ele>
        <time>2011-06-02T09:56:41Z</time>
      </trkpt>
      <trkpt lat="45.87612" lon="4.86167">
        <ele>290</ele>
        <time>2011-06-02T09:56:42Z</time>
      </trkpt>
      <trkpt lat="45.87616" lon="4.86167">
        <ele>290</ele>
        <time>2011-06-02T09:56:43Z</time>
      </trkpt>
      <trkpt lat="45.8762" lon="4.86166">
        <ele>290</ele>
        <time>2011-06-02T09:56:44Z</time>
      </trkpt>
      <trkpt lat="45.87624" lon="4.86166">
        <ele>290</ele>
        <time>2011-06-02T09:56:45Z</time>
      </trkpt>
      <trkpt lat="45.87627" lon="4.86166">
        <ele>290</ele>
        <time>2011-06-02T09:56:46Z</time>
      </trkpt>
      <trkpt lat="45.87631" lon="4.86165">
        <ele>290</ele>
        <time>2011-06-02T09:56:47Z</time>
      </trkpt>
      <trkpt lat="45.87635" lon="4.86165">
        <ele>290</ele>
        <time>2011-06-02T09:56:48Z</time>
      </trkpt>
      <trkpt lat="45.87638" lon="4.86166">
        <ele>290</ele>
        <time>2011-06-02T09:56:49Z</time>
      </trkpt>
      <trkpt lat="45.87642" lon="4.86167">
        <ele>290</ele>
        <time>2011-06-02T09:56:50Z</time>
      </trkpt>
      <trkpt lat="45.87646" lon="4.8617">
        <ele>290</ele>
        <time>2011-06-02T09:56:51Z</time>
      </trkpt>
      <trkpt lat="45.87648" lon="4.86174">
        <ele>290</ele>
        <time>2011-06-02T09:56:52Z</time>
      </trkpt>
      <trkpt lat="45.8765" lon="4.8618">
        <ele>290</ele>
        <time>2011-06-02T09:56:53Z</time>
      </trkpt>
      <trkpt lat="45.87652" lon="4.86186">
        <ele>290</ele>
        <time>2011-06-02T09:56:54Z</time>
      </trkpt>
      <trkpt lat="45.87653" lon="4.86192">
        <ele>290</ele>
        <time>2011-06-02T09:56:55Z</time>
      </trkpt>
      <trkpt lat="45.87653" lon="4.86197">
        <ele>290</ele>
        <time>2011-06-02T09:56:56Z</time>
      </trkpt>
      <trkpt lat="45.87653" lon="4.86202">
        <ele>290</ele>
        <time>2011-06-02T09:56:57Z</time>
      </trkpt>
      <trkpt lat="45.87653" lon="4.86207">
        <ele>290</ele>
        <time>2011-06-02T09:56:58Z</time>
      </trkpt>
      <trkpt lat="45.87653" lon="4.86211">
        <ele>290</ele>
        <time>2011-06-02T09:56:59Z</time>
      </trkpt>
      <trkpt lat="45.87654" lon="4.86216">
        <ele>290</ele>
        <time>2011-06-02T09:57:00Z</time>
      </trkpt>
      <trkpt lat="45.87654" lon="4.86221">
        <ele>290</ele>
        <time>2011-06-02T09:57:01Z</time>
      </trkpt>
      <trkpt lat="45.87654" lon="4.86225">
        <ele>290</ele>
        <time>2011-06-02T09:57:02Z</time>
      </trkpt>
      <trkpt lat="45.87655" lon="4.8623">
        <ele>290</ele>
        <time>2011-06-02T09:57:03Z</time>
      </trkpt>
      <trkpt lat="45.87655" lon="4.86235">
        <ele>290</ele>
        <time>2011-06-02T09:57:04Z</time>
      </trkpt>
      <trkpt lat="45.87656" lon="4.8624">
        <ele>290</ele>
        <time>2011-06-02T09:57:05Z</time>
      </trkpt>
      <trkpt lat="45.87656" lon="4.86245">
        <ele>290</ele>
        <time>2011-06-02T09:57:06Z</time>
      </trkpt>
      <trkpt lat="45.87657" lon="4.8625">
        <ele>290</ele>
        <time>2011-06-02T09:57:07Z</time>
      </trkpt>
      <trkpt lat="45.87658" lon="4.86255">
        <ele>290</ele>
        <time>2011-06-02T09:57:08Z</time>
      </trkpt>
      <trkpt lat="45.87659" lon="4.8626">
        <ele>290</ele>
        <time>2011-06-02T09:57:09Z</time>
      </trkpt>
      <trkpt lat="45.87659" lon="4.86265">
        <ele>290</ele>
        <time>2011-06-02T09:57:10Z</time>
      </trkpt>
      <trkpt lat="45.87659" lon="4.8627">
        <ele>290</ele>
        <time>2011-06-02T09:57:11Z</time>
      </trkpt>
      <trkpt lat="45.8766" lon="4.86274">
        <ele>290</ele>
        <time>2011-06-02T09:57:12Z</time>
      </trkpt>
      <trkpt lat="45.8766" lon="4.86278">
        <ele>290</ele>
        <time>2011-06-02T09:57:13Z</time>
      </trkpt>
      <trkpt lat="45.87661" lon="4.86281">
        <ele>289</ele>
        <time>2011-06-02T09:57:14Z</time>
      </trkpt>
      <trkpt lat="45.87662" lon="4.86284">
        <ele>289</ele>
        <time>2011-06-02T09:57:15Z</time>
      </trkpt>
      <trkpt lat="45.87664" lon="4.86286">
        <ele>289</ele>
        <time>2011-06-02T09:57:16Z</time>
      </trkpt>
      <trkpt lat="45.87666" lon="4.86288">
        <ele>289</ele>
        <time>2011-06-02T09:57:17Z</time>
      </trkpt>
      <trkpt lat="45.87668" lon="4.8629">
        <ele>289</ele>
        <time>2011-06-02T09:57:18Z</time>
      </trkpt>
      <trkpt lat="45.8767" lon="4.86291">
        <ele>289</ele>
        <time>2011-06-02T09:57:19Z</time>
      </trkpt>
      <trkpt lat="45.87672" lon="4.86292">
        <ele>289</ele>
        <time>2011-06-02T09:57:20Z</time>
      </trkpt>
      <trkpt lat="45.87675" lon="4.86292">
        <ele>289</ele>
        <time>2011-06-02T09:57:21Z</time>
      </trkpt>
      <trkpt lat="45.87677" lon="4.86291">
        <ele>289</ele>
        <time>2011-06-02T09:57:22Z</time>
      </trkpt>
      <trkpt lat="45.8768" lon="4.86291">
        <ele>289</ele>
        <time>2011-06-02T09:57:23Z</time>
      </trkpt>
      <trkpt lat="45.87682" lon="4.86291">
        <ele>289</ele>
        <time>2011-06-02T09:57:24Z</time>
      </trkpt>
      <trkpt lat="45.87685" lon="4.8629">
        <ele>289</ele>
        <time>2011-06-02T09:57:25Z</time>
      </trkpt>
      <trkpt lat="45.87688" lon="4.8629">
        <ele>289</ele>
        <time>2011-06-02T09:57:26Z</time>
      </trkpt>
      <trkpt lat="45.87691" lon="4.86289">
        <ele>290</ele>
        <time>2011-06-02T09:57:27Z</time>
      </trkpt>
      <trkpt lat="45.87693" lon="4.86288">
        <ele>290</ele>
        <time>2011-06-02T09:57:28Z</time>
      </trkpt>
      <trkpt lat="45.87696" lon="4.86287">
        <ele>290</ele>
        <time>2011-06-02T09:57:29Z</time>
      </trkpt>
      <trkpt lat="45.87699" lon="4.86286">
        <ele>291</ele>
        <time>2011-06-02T09:57:30Z</time>
      </trkpt>
      <trkpt lat="45.87702" lon="4.86285">
        <ele>291</ele>
        <time>2011-06-02T09:57:31Z</time>
      </trkpt>
      <trkpt lat="45.87704" lon="4.86284">
        <ele>291</ele>
        <time>2011-06-02T09:57:32Z</time>
      </trkpt>
      <trkpt lat="45.87707" lon="4.86283">
        <ele>292</ele>
        <time>2011-06-02T09:57:33Z</time>
      </trkpt>
      <trkpt lat="45.8771" lon="4.86282">
        <ele>292</ele>
        <time>2011-06-02T09:57:34Z</time>
      </trkpt>
      <trkpt lat="45.87713" lon="4.86281">
        <ele>293</ele>
        <time>2011-06-02T09:57:35Z</time>
      </trkpt>
      <trkpt lat="45.87715" lon="4.86279">
        <ele>294</ele>
        <time>2011-06-02T09:57:36Z</time>
      </trkpt>
      <trkpt lat="45.87718" lon="4.86278">
        <ele>295</ele>
        <time>2011-06-02T09:57:37Z</time>
      </trkpt>
      <trkpt lat="45.8772" lon="4.86278">
        <ele>296</ele>
        <time>2011-06-02T09:57:38Z</time>
      </trkpt>
      <trkpt lat="45.87723" lon="4.86277">
        <ele>297</ele>
        <time>2011-06-02T09:57:39Z</time>
      </trkpt>
      <trkpt lat="45.87725" lon="4.86275">
        <ele>297</ele>
        <time>2011-06-02T09:57:40Z</time>
      </trkpt>
      <trkpt lat="45.87727" lon="4.86273">
        <ele>298</ele>
        <time>2011-06-02T09:57:41Z</time>
      </trkpt>
      <trkpt lat="45.8773" lon="4.86272">
        <ele>299</ele>
        <time>2011-06-02T09:57:42Z</time>
      </trkpt>
      <trkpt lat="45.87733" lon="4.86271">
        <ele>299</ele>
        <time>2011-06-02T09:57:43Z</time>
      </trkpt>
      <trkpt lat="45.87736" lon="4.8627">
        <ele>300</ele>
        <time>2011-06-02T09:57:44Z</time>
      </trkpt>
      <trkpt lat="45.8774" lon="4.86269">
        <ele>301</ele>
        <time>2011-06-02T09:57:45Z</time>
      </trkpt>
      <trkpt lat="45.87742" lon="4.86269">
        <ele>301</ele>
        <time>2011-06-02T09:57:46Z</time>
      </trkpt>
      <trkpt lat="45.87745" lon="4.86269">
        <ele>302</ele>
        <time>2011-06-02T09:57:47Z</time>
      </trkpt>
      <trkpt lat="45.87749" lon="4.86269">
        <ele>302</ele>
        <time>2011-06-02T09:57:48Z</time>
      </trkpt>
      <trkpt lat="45.87752" lon="4.86269">
        <ele>303</ele>
        <time>2011-06-02T09:57:49Z</time>
      </trkpt>
      <trkpt lat="45.87754" lon="4.86268">
        <ele>303</ele>
        <time>2011-06-02T09:57:50Z</time>
      </trkpt>
      <trkpt lat="45.87758" lon="4.86268">
        <ele>303</ele>
        <time>2011-06-02T09:57:51Z</time>
      </trkpt>
      <trkpt lat="45.87761" lon="4.86268">
        <ele>303</ele>
        <time>2011-06-02T09:57:52Z</time>
      </trkpt>
      <trkpt lat="45.87765" lon="4.86269">
        <ele>304</ele>
        <time>2011-06-02T09:57:53Z</time>
      </trkpt>
      <trkpt lat="45.87768" lon="4.86269">
        <ele>304</ele>
        <time>2011-06-02T09:57:54Z</time>
      </trkpt>
      <trkpt lat="45.87772" lon="4.86269">
        <ele>304</ele>
        <time>2011-06-02T09:57:55Z</time>
      </trkpt>
      <trkpt lat="45.87775" lon="4.86269">
        <ele>304</ele>
        <time>2011-06-02T09:57:56Z</time>
      </trkpt>
      <trkpt lat="45.87778" lon="4.8627">
        <ele>304</ele>
        <time>2011-06-02T09:57:57Z</time>
      </trkpt>
      <trkpt lat="45.87782" lon="4.8627">
        <ele>305</ele>
        <time>2011-06-02T09:57:58Z</time>
      </trkpt>
      <trkpt lat="45.87785" lon="4.86271">
        <ele>305</ele>
        <time>2011-06-02T09:57:59Z</time>
      </trkpt>
      <trkpt lat="45.87788" lon="4.86271">
        <ele>305</ele>
        <time>2011-06-02T09:58:00Z</time>
      </trkpt>
      <trkpt lat="45.87792" lon="4.86272">
        <ele>306</ele>
        <time>2011-06-02T09:58:01Z</time>
      </trkpt>
      <trkpt lat="45.87795" lon="4.86272">
        <ele>306</ele>
        <time>2011-06-02T09:58:02Z</time>
      </trkpt>
      <trkpt lat="45.87798" lon="4.86272">
        <ele>306</ele>
        <time>2011-06-02T09:58:03Z</time>
      </trkpt>
      <trkpt lat="45.87802" lon="4.86273">
        <ele>306</ele>
        <time>2011-06-02T09:58:04Z</time>
      </trkpt>
      <trkpt lat="45.87806" lon="4.86273">
        <ele>306</ele>
        <time>2011-06-02T09:58:05Z</time>
      </trkpt>
      <trkpt lat="45.87809" lon="4.86273">
        <ele>306</ele>
        <time>2011-06-02T09:58:06Z</time>
      </trkpt>
      <trkpt lat="45.87813" lon="4.86273">
        <ele>306</ele>
        <time>2011-06-02T09:58:07Z</time>
      </trkpt>
      <trkpt lat="45.87817" lon="4.86272">
        <ele>306</ele>
        <time>2011-06-02T09:58:08Z</time>
      </trkpt>
      <trkpt lat="45.8782" lon="4.86271">
        <ele>306</ele>
        <time>2011-06-02T09:58:09Z</time>
      </trkpt>
      <trkpt lat="45.87823" lon="4.86269">
        <ele>306</ele>
        <time>2011-06-02T09:58:10Z</time>
      </trkpt>
      <trkpt lat="45.87826" lon="4.86268">
        <ele>306</ele>
        <time>2011-06-02T09:58:11Z</time>
      </trkpt>
      <trkpt lat="45.87829" lon="4.86264">
        <ele>306</ele>
        <time>2011-06-02T09:58:12Z</time>
      </trkpt>
      <trkpt lat="45.87831" lon="4.8626">
        <ele>306</ele>
        <time>2011-06-02T09:58:13Z</time>
      </trkpt>
      <trkpt lat="45.87834" lon="4.86257">
        <ele>306</ele>
        <time>2011-06-02T09:58:14Z</time>
      </trkpt>
      <trkpt lat="45.87838" lon="4.86254">
        <ele>306</ele>
        <time>2011-06-02T09:58:15Z</time>
      </trkpt>
      <trkpt lat="45.87842" lon="4.86254">
        <ele>306</ele>
        <time>2011-06-02T09:58:16Z</time>
      </trkpt>
      <trkpt lat="45.87846" lon="4.86255">
        <ele>306</ele>
        <time>2011-06-02T09:58:17Z</time>
      </trkpt>
      <trkpt lat="45.8785" lon="4.86257">
        <ele>306</ele>
        <time>2011-06-02T09:58:18Z</time>
      </trkpt>
      <trkpt lat="45.87854" lon="4.86258">
        <ele>307</ele>
        <time>2011-06-02T09:58:19Z</time>
      </trkpt>
      <trkpt lat="45.87858" lon="4.86259">
        <ele>307</ele>
        <time>2011-06-02T09:58:20Z</time>
      </trkpt>
      <trkpt lat="45.87862" lon="4.86261">
        <ele>307</ele>
        <time>2011-06-02T09:58:21Z</time>
      </trkpt>
      <trkpt lat="45.87866" lon="4.86263">
        <ele>307</ele>
        <time>2011-06-02T09:58:22Z</time>
      </trkpt>
      <trkpt lat="45.87869" lon="4.86264">
        <ele>307</ele>
        <time>2011-06-02T09:58:23Z</time>
      </trkpt>
      <trkpt lat="45.87872" lon="4.86265">
        <ele>307</ele>
        <time>2011-06-02T09:58:24Z</time>
      </trkpt>
      <trkpt lat="45.87876" lon="4.86268">
        <ele>307</ele>
        <time>2011-06-02T09:58:25Z</time>
      </trkpt>
      <trkpt lat="45.87879" lon="4.86269">
        <ele>307</ele>
        <time>2011-06-02T09:58:26Z</time>
      </trkpt>
      <trkpt lat="45.87883" lon="4.86271">
        <ele>307</ele>
        <time>2011-06-02T09:58:27Z</time>
      </trkpt>
      <trkpt lat="45.87887" lon="4.86273">
        <ele>307</ele>
        <time>2011-06-02T09:58:28Z</time>
      </trkpt>
      <trkpt lat="45.8789" lon="4.86274">
        <ele>307</ele>
        <time>2011-06-02T09:58:29Z</time>
      </trkpt>
      <trkpt lat="45.87894" lon="4.86276">
        <ele>307</ele>
        <time>2011-06-02T09:58:30Z</time>
      </trkpt>
      <trkpt lat="45.87898" lon="4.86277">
        <ele>307</ele>
        <time>2011-06-02T09:58:31Z</time>
      </trkpt>
      <trkpt lat="45.87902" lon="4.86278">
        <ele>307</ele>
        <time>2011-06-02T09:58:32Z</time>
      </trkpt>
      <trkpt lat="45.87906" lon="4.8628">
        <ele>307</ele>
        <time>2011-06-02T09:58:33Z</time>
      </trkpt>
      <trkpt lat="45.8791" lon="4.86281">
        <ele>307</ele>
        <time>2011-06-02T09:58:34Z</time>
      </trkpt>
      <trkpt lat="45.87914" lon="4.8628">
        <ele>307</ele>
        <time>2011-06-02T09:58:35Z</time>
      </trkpt>
      <trkpt lat="45.87919" lon="4.86282">
        <ele>307</ele>
        <time>2011-06-02T09:58:36Z</time>
      </trkpt>
      <trkpt lat="45.87923" lon="4.86281">
        <ele>307</ele>
        <time>2011-06-02T09:58:37Z</time>
      </trkpt>
      <trkpt lat="45.87927" lon="4.86281">
        <ele>307</ele>
        <time>2011-06-02T09:58:38Z</time>
      </trkpt>
      <trkpt lat="45.87931" lon="4.86282">
        <ele>307</ele>
        <time>2011-06-02T09:58:39Z</time>
      </trkpt>
      <trkpt lat="45.87935" lon="4.86281">
        <ele>307</ele>
        <time>2011-06-02T09:58:40Z</time>
      </trkpt>
      <trkpt lat="45.87939" lon="4.8628">
        <ele>307</ele>
        <time>2011-06-02T09:58:41Z</time>
      </trkpt>
      <trkpt lat="45.87943" lon="4.86279">
        <ele>307</ele>
        <time>2011-06-02T09:58:42Z</time>
      </trkpt>
      <trkpt lat="45.87946" lon="4.86277">
        <ele>307</ele>
        <time>2011-06-02T09:58:43Z</time>
      </trkpt>
      <trkpt lat="45.8795" lon="4.86276">
        <ele>307</ele>
        <time>2011-06-02T09:58:44Z</time>
      </trkpt>
      <trkpt lat="45.87954" lon="4.86276">
        <ele>307</ele>
        <time>2011-06-02T09:58:45Z</time>
      </trkpt>
      <trkpt lat="45.87957" lon="4.86274">
        <ele>307</ele>
        <time>2011-06-02T09:58:46Z</time>
      </trkpt>
      <trkpt lat="45.87961" lon="4.86273">
        <ele>307</ele>
        <time>2011-06-02T09:58:47Z</time>
      </trkpt>
      <trkpt lat="45.87965" lon="4.86272">
        <ele>307</ele>
        <time>2011-06-02T09:58:48Z</time>
      </trkpt>
      <trkpt lat="45.87969" lon="4.86271">
        <ele>307</ele>
        <time>2011-06-02T09:58:49Z</time>
      </trkpt>
      <trkpt lat="45.87973" lon="4.8627">
        <ele>307</ele>
        <time>2011-06-02T09:58:50Z</time>
      </trkpt>
      <trkpt lat="45.87977" lon="4.86268">
        <ele>307</ele>
        <time>2011-06-02T09:58:51Z</time>
      </trkpt>
      <trkpt lat="45.87981" lon="4.86267">
        <ele>307</ele>
        <time>2011-06-02T09:58:52Z</time>
      </trkpt>
      <trkpt lat="45.87985" lon="4.86266">
        <ele>307</ele>
        <time>2011-06-02T09:58:53Z</time>
      </trkpt>
      <trkpt lat="45.87989" lon="4.86265">
        <ele>307</ele>
        <time>2011-06-02T09:58:54Z</time>
      </trkpt>
      <trkpt lat="45.87993" lon="4.86264">
        <ele>307</ele>
        <time>2011-06-02T09:58:55Z</time>
      </trkpt>
      <trkpt lat="45.87997" lon="4.86262">
        <ele>307</ele>
        <time>2011-06-02T09:58:56Z</time>
      </trkpt>
      <trkpt lat="45.88001" lon="4.86262">
        <ele>307</ele>
        <time>2011-06-02T09:58:57Z</time>
      </trkpt>
      <trkpt lat="45.88006" lon="4.86261">
        <ele>307</ele>
        <time>2011-06-02T09:58:58Z</time>
      </trkpt>
      <trkpt lat="45.88011" lon="4.8626">
        <ele>307</ele>
        <time>2011-06-02T09:58:59Z</time>
      </trkpt>
      <trkpt lat="45.88017" lon="4.86259">
        <ele>307</ele>
        <time>2011-06-02T09:59:00Z</time>
      </trkpt>
      <trkpt lat="45.88022" lon="4.86258">
        <ele>307</ele>
        <time>2011-06-02T09:59:01Z</time>
      </trkpt>
      <trkpt lat="45.88028" lon="4.86257">
        <ele>307</ele>
        <time>2011-06-02T09:59:02Z</time>
      </trkpt>
      <trkpt lat="45.88033" lon="4.86256">
        <ele>306</ele>
        <time>2011-06-02T09:59:03Z</time>
      </trkpt>
      <trkpt lat="45.88039" lon="4.86255">
        <ele>306</ele>
        <time>2011-06-02T09:59:04Z</time>
      </trkpt>
      <trkpt lat="45.88046" lon="4.86253">
        <ele>306</ele>
        <time>2011-06-02T09:59:05Z</time>
      </trkpt>
      <trkpt lat="45.88052" lon="4.86252">
        <ele>306</ele>
        <time>2011-06-02T09:59:06Z</time>
      </trkpt>
      <trkpt lat="45.88058" lon="4.8625">
        <ele>305</ele>
        <time>2011-06-02T09:59:07Z</time>
      </trkpt>
      <trkpt lat="45.88064" lon="4.86248">
        <ele>305</ele>
        <time>2011-06-02T09:59:08Z</time>
      </trkpt>
      <trkpt lat="45.88069" lon="4.86247">
        <ele>305</ele>
        <time>2011-06-02T09:59:09Z</time>
      </trkpt>
      <trkpt lat="45.88075" lon="4.86246">
        <ele>304</ele>
        <time>2011-06-02T09:59:10Z</time>
      </trkpt>
      <trkpt lat="45.8808" lon="4.86246">
        <ele>304</ele>
        <time>2011-06-02T09:59:11Z</time>
      </trkpt>
      <trkpt lat="45.88084" lon="4.86248">
        <ele>304</ele>
        <time>2011-06-02T09:59:12Z</time>
      </trkpt>
      <trkpt lat="45.88087" lon="4.86253">
        <ele>303</ele>
        <time>2011-06-02T09:59:13Z</time>
      </trkpt>
      <trkpt lat="45.8809" lon="4.86259">
        <ele>303</ele>
        <time>2011-06-02T09:59:14Z</time>
      </trkpt>
      <trkpt lat="45.88092" lon="4.86265">
        <ele>303</ele>
        <time>2011-06-02T09:59:15Z</time>
      </trkpt>
      <trkpt lat="45.88093" lon="4.86272">
        <ele>302</ele>
        <time>2011-06-02T09:59:16Z</time>
      </trkpt>
      <trkpt lat="45.88094" lon="4.86279">
        <ele>302</ele>
        <time>2011-06-02T09:59:17Z</time>
      </trkpt>
      <trkpt lat="45.88096" lon="4.86286">
        <ele>301</ele>
        <time>2011-06-02T09:59:18Z</time>
      </trkpt>
      <trkpt lat="45.88097" lon="4.86293">
        <ele>301</ele>
        <time>2011-06-02T09:59:19Z</time>
      </trkpt>
      <trkpt lat="45.88099" lon="4.86299">
        <ele>300</ele>
        <time>2011-06-02T09:59:20Z</time>
      </trkpt>
      <trkpt lat="45.881" lon="4.86306">
        <ele>299</ele>
        <time>2011-06-02T09:59:21Z</time>
      </trkpt>
      <trkpt lat="45.88102" lon="4.8631">
        <ele>299</ele>
        <time>2011-06-02T09:59:22Z</time>
      </trkpt>
      <trkpt lat="45.88105" lon="4.86314">
        <ele>299</ele>
        <time>2011-06-02T09:59:23Z</time>
      </trkpt>
      <trkpt lat="45.88108" lon="4.86313">
        <ele>298</ele>
        <time>2011-06-02T09:59:24Z</time>
      </trkpt>
      <trkpt lat="45.88111" lon="4.8631">
        <ele>298</ele>
        <time>2011-06-02T09:59:25Z</time>
      </trkpt>
      <trkpt lat="45.88114" lon="4.86307">
        <ele>298</ele>
        <time>2011-06-02T09:59:26Z</time>
      </trkpt>
      <trkpt lat="45.88117" lon="4.86305">
        <ele>298</ele>
        <time>2011-06-02T09:59:27Z</time>
      </trkpt>
      <trkpt lat="45.88119" lon="4.86302">
        <ele>298</ele>
        <time>2011-06-02T09:59:28Z</time>
      </trkpt>
      <trkpt lat="45.88123" lon="4.86302">
        <ele>298</ele>
        <time>2011-06-02T09:59:29Z</time>
      </trkpt>
      <trkpt lat="45.88125" lon="4.86301">
        <ele>298</ele>
        <time>2011-06-02T09:59:30Z</time>
      </trkpt>
      <trkpt lat="45.88128" lon="4.86298">
        <ele>298</ele>
        <time>2011-06-02T09:59:31Z</time>
      </trkpt>
      <trkpt lat="45.88131" lon="4.86296">
        <ele>298</ele>
        <time>2011-06-02T09:59:32Z</time>
      </trkpt>
      <trkpt lat="45.88134" lon="4.86295">
        <ele>298</ele>
        <time>2011-06-02T09:59:33Z</time>
      </trkpt>
      <trkpt lat="45.88136" lon="4.86293">
        <ele>298</ele>
        <time>2011-06-02T09:59:34Z</time>
      </trkpt>
      <trkpt lat="45.88139" lon="4.86291">
        <ele>298</ele>
        <time>2011-06-02T09:59:35Z</time>
      </trkpt>
      <trkpt lat="45.88142" lon="4.86292">
        <ele>298</ele>
        <time>2011-06-02T09:59:36Z</time>
      </trkpt>
      <trkpt lat="45.88146" lon="4.86292">
        <ele>298</ele>
        <time>2011-06-02T09:59:37Z</time>
      </trkpt>
      <trkpt lat="45.88149" lon="4.86292">
        <ele>298</ele>
        <time>2011-06-02T09:59:38Z</time>
      </trkpt>
      <trkpt lat="45.88152" lon="4.86292">
        <ele>298</ele>
        <time>2011-06-02T09:59:39Z</time>
      </trkpt>
      <trkpt lat="45.88155" lon="4.86291">
        <ele>299</ele>
        <time>2011-06-02T09:59:40Z</time>
      </trkpt>
      <trkpt lat="45.88158" lon="4.86291">
        <ele>299</ele>
        <time>2011-06-02T09:59:41Z</time>
      </trkpt>
      <trkpt lat="45.88161" lon="4.86291">
        <ele>299</ele>
        <time>2011-06-02T09:59:42Z</time>
      </trkpt>
      <trkpt lat="45.88165" lon="4.86291">
        <ele>300</ele>
        <time>2011-06-02T09:59:43Z</time>
      </trkpt>
      <trkpt lat="45.88168" lon="4.86291">
        <ele>301</ele>
        <time>2011-06-02T09:59:44Z</time>
      </trkpt>
      <trkpt lat="45.88172" lon="4.86293">
        <ele>301</ele>
        <time>2011-06-02T09:59:45Z</time>
      </trkpt>
      <trkpt lat="45.88176" lon="4.86296">
        <ele>301</ele>
        <time>2011-06-02T09:59:46Z</time>
      </trkpt>
      <trkpt lat="45.88179" lon="4.86299">
        <ele>301</ele>
        <time>2011-06-02T09:59:47Z</time>
      </trkpt>
      <trkpt lat="45.88181" lon="4.86301">
        <ele>301</ele>
        <time>2011-06-02T09:59:48Z</time>
      </trkpt>
      <trkpt lat="45.88184" lon="4.86303">
        <ele>301</ele>
        <time>2011-06-02T09:59:49Z</time>
      </trkpt>
      <trkpt lat="45.88187" lon="4.86305">
        <ele>301</ele>
        <time>2011-06-02T09:59:50Z</time>
      </trkpt>
      <trkpt lat="45.8819" lon="4.86306">
        <ele>301</ele>
        <time>2011-06-02T09:59:51Z</time>
      </trkpt>
      <trkpt lat="45.88192" lon="4.86308">
        <ele>301</ele>
        <time>2011-06-02T09:59:52Z</time>
      </trkpt>
      <trkpt lat="45.88195" lon="4.86309">
        <ele>301</ele>
        <time>2011-06-02T09:59:53Z</time>
      </trkpt>
      <trkpt lat="45.88198" lon="4.86311">
        <ele>301</ele>
        <time>2011-06-02T09:59:54Z</time>
      </trkpt>
      <trkpt lat="45.88201" lon="4.86313">
        <ele>301</ele>
        <time>2011-06-02T09:59:55Z</time>
      </trkpt>
      <trkpt lat="45.88204" lon="4.86315">
        <ele>301</ele>
        <time>2011-06-02T09:59:56Z</time>
      </trkpt>
      <trkpt lat="45.88206" lon="4.86316">
        <ele>301</ele>
        <time>2011-06-02T09:59:57Z</time>
      </trkpt>
      <trkpt lat="45.88209" lon="4.86317">
        <ele>301</ele>
        <time>2011-06-02T09:59:58Z</time>
      </trkpt>
      <trkpt lat="45.88212" lon="4.86318">
        <ele>301</ele>
        <time>2011-06-02T09:59:59Z</time>
      </trkpt>
      <trkpt lat="45.88215" lon="4.86319">
        <ele>301</ele>
        <time>2011-06-02T10:00:00Z</time>
      </trkpt>
      <trkpt lat="45.88218" lon="4.8632">
        <ele>301</ele>
        <time>2011-06-02T10:00:01Z</time>
      </trkpt>
      <trkpt lat="45.8822" lon="4.8632">
        <ele>301</ele>
        <time>2011-06-02T10:00:02Z</time>
      </trkpt>
      <trkpt lat="45.88224" lon="4.86322">
        <ele>301</ele>
        <time>2011-06-02T10:00:03Z</time>
      </trkpt>
      <trkpt lat="45.88226" lon="4.86323">
        <ele>301</ele>
        <time>2011-06-02T10:00:04Z</time>
      </trkpt>
      <trkpt lat="45.88229" lon="4.86324">
        <ele>301</ele>
        <time>2011-06-02T10:00:05Z</time>
      </trkpt>
      <trkpt lat="45.88232" lon="4.86324">
        <ele>302</ele>
        <time>2011-06-02T10:00:06Z</time>
      </trkpt>
      <trkpt lat="45.88234" lon="4.86325">
        <ele>302</ele>
        <time>2011-06-02T10:00:07Z</time>
      </trkpt>
      <trkpt lat="45.88236" lon="4.86327">
        <ele>302</ele>
        <time>2011-06-02T10:00:08Z</time>
      </trkpt>
      <trkpt lat="45.88237" lon="4.86329">
        <ele>302</ele>
        <time>2011-06-02T10:00:09Z</time>
      </trkpt>
      <trkpt lat="45.88238" lon="4.86333">
        <ele>302</ele>
        <time>2011-06-02T10:00:10Z</time>
      </trkpt>
      <trkpt lat="45.88239" lon="4.86337">
        <ele>302</ele>
        <time>2011-06-02T10:00:11Z</time>
      </trkpt>
      <trkpt lat="45.88239" lon="4.8634">
        <ele>302</ele>
        <time>2011-06-02T10:00:12Z</time>
      </trkpt>
      <trkpt lat="45.8824" lon="4.86342">
        <ele>302</ele>
        <time>2011-06-02T10:00:13Z</time>
      </trkpt>
      <trkpt lat="45.8824" lon="4.86343">
        <ele>302</ele>
        <time>2011-06-02T10:00:15Z</time>
      </trkpt>
    </trkseg>
  </trk>
</gpx>